<?xml version='1.0' encoding='UTF-8'?><gpx version="1.1" creator="JPX - https://github.com/jenetics/jpx" xmlns="http://www.topografix.com/GPX/1/1"><trk><trkseg><trkpt lat="45.5098691" lon="11.8943829"><ele>14.0</ele><time>2026-04-29T06:48:23.247Z</time></trkpt><trkpt lat="45.5099493" lon="11.8943239"><ele>13.999999999999998</ele><time>2026-04-29T06:48:26.247Z</time></trkpt><trkpt lat="45.5100606" lon="11.8942778"><ele>13.999999999999998</ele><time>2026-04-29T06:48:28.247Z</time></trkpt><trkpt lat="45.5101761" lon="11.8942266"><ele>14.0</ele><time>2026-04-29T06:48:30.248Z</time></trkpt><trkpt lat="45.5102898" lon="11.8941726"><ele>14.0</ele><time>2026-04-29T06:48:32.248Z</time></trkpt><trkpt lat="45.510403" lon="11.8941212"><ele>14.399999999999999</ele><time>2026-04-29T06:48:34.247Z</time></trkpt><trkpt lat="45.5105192" lon="11.8940553"><ele>14.799999999999999</ele><time>2026-04-29T06:48:36.248Z</time></trkpt><trkpt lat="45.5106307" lon="11.8940036"><ele>15.200000000000001</ele><time>2026-04-29T06:48:38.248Z</time></trkpt><trkpt lat="45.5107449" lon="11.8939544"><ele>15.600000000000001</ele><time>2026-04-29T06:48:40.247Z</time></trkpt><trkpt lat="45.5108049" lon="11.8939255"><ele>16.0</ele><time>2026-04-29T06:48:41.248Z</time></trkpt><trkpt lat="45.5109188" lon="11.8938693"><ele>16.0</ele><time>2026-04-29T06:48:43.247Z</time></trkpt><trkpt lat="45.5110315" lon="11.8938158"><ele>16.0</ele><time>2026-04-29T06:48:45.248Z</time></trkpt><trkpt lat="45.5111443" lon="11.8937711"><ele>16.0</ele><time>2026-04-29T06:48:47.247Z</time></trkpt><trkpt lat="45.5112558" lon="11.8937189"><ele>16.0</ele><time>2026-04-29T06:48:49.248Z</time></trkpt><trkpt lat="45.5113753" lon="11.8936634"><ele>16.0</ele><time>2026-04-29T06:48:51.247Z</time></trkpt><trkpt lat="45.5114867" lon="11.8936108"><ele>16.0</ele><time>2026-04-29T06:48:53.247Z</time></trkpt><trkpt lat="45.5115984" lon="11.8935493"><ele>16.0</ele><time>2026-04-29T06:48:55.247Z</time></trkpt><trkpt lat="45.5117104" lon="11.8934659"><ele>16.0</ele><time>2026-04-29T06:48:57.247Z</time></trkpt><trkpt lat="45.5118155" lon="11.8933831"><ele>16.0</ele><time>2026-04-29T06:48:59.248Z</time></trkpt><trkpt lat="45.5118728" lon="11.8933364"><ele>16.0</ele><time>2026-04-29T06:49:00.247Z</time></trkpt><trkpt lat="45.5119782" lon="11.893241"><ele>16.0</ele><time>2026-04-29T06:49:02.247Z</time></trkpt><trkpt lat="45.5120722" lon="11.893128"><ele>16.0</ele><time>2026-04-29T06:49:04.247Z</time></trkpt><trkpt lat="45.5121554" lon="11.8930089"><ele>16.0</ele><time>2026-04-29T06:49:06.247Z</time></trkpt><trkpt lat="45.5122438" lon="11.8928879"><ele>16.2</ele><time>2026-04-29T06:49:08.247Z</time></trkpt><trkpt lat="45.5123217" lon="11.8927632"><ele>16.400000000000002</ele><time>2026-04-29T06:49:10.247Z</time></trkpt><trkpt lat="45.5123929" lon="11.8926284"><ele>16.6</ele><time>2026-04-29T06:49:12.247Z</time></trkpt><trkpt lat="45.5124463" lon="11.8925023"><ele>16.8</ele><time>2026-04-29T06:49:14.247Z</time></trkpt><trkpt lat="45.5125002" lon="11.8923784"><ele>17.0</ele><time>2026-04-29T06:49:16.247Z</time></trkpt><trkpt lat="45.5125451" lon="11.8922734"><ele>16.833333333333336</ele><time>2026-04-29T06:49:18.247Z</time></trkpt><trkpt lat="45.5126201" lon="11.892218"><ele>16.666666666666668</ele><time>2026-04-29T06:49:21.247Z</time></trkpt><trkpt lat="45.5126829" lon="11.8922461"><ele>16.5</ele><time>2026-04-29T06:49:23.246Z</time></trkpt><trkpt lat="45.5127405" lon="11.8921855"><ele>16.333333333333332</ele><time>2026-04-29T06:49:25.246Z</time></trkpt><trkpt lat="45.5128143" lon="11.8921214"><ele>16.166666666666664</ele><time>2026-04-29T06:49:27.247Z</time></trkpt><trkpt lat="45.5128769" lon="11.8920534"><ele>16.0</ele><time>2026-04-29T06:49:29.246Z</time></trkpt><trkpt lat="45.5129375" lon="11.8919491"><ele>16.0</ele><time>2026-04-29T06:49:31.246Z</time></trkpt><trkpt lat="45.5130156" lon="11.8918749"><ele>16.0</ele><time>2026-04-29T06:49:33.247Z</time></trkpt><trkpt lat="45.5131179" lon="11.8918861"><ele>16.0</ele><time>2026-04-29T06:49:35.246Z</time></trkpt><trkpt lat="45.5132336" lon="11.8919105"><ele>16.0</ele><time>2026-04-29T06:49:37.246Z</time></trkpt><trkpt lat="45.5133491" lon="11.8919609"><ele>16.0</ele><time>2026-04-29T06:49:39.246Z</time></trkpt><trkpt lat="45.5134727" lon="11.8920024"><ele>15.999999999999998</ele><time>2026-04-29T06:49:41.247Z</time></trkpt><trkpt lat="45.5135927" lon="11.8920556"><ele>16.0</ele><time>2026-04-29T06:49:43.246Z</time></trkpt><trkpt lat="45.5137159" lon="11.8921046"><ele>16.0</ele><time>2026-04-29T06:49:45.246Z</time></trkpt><trkpt lat="45.5137781" lon="11.8921237"><ele>16.0</ele><time>2026-04-29T06:49:46.246Z</time></trkpt><trkpt lat="45.5138429" lon="11.8921439"><ele>15.999999999999998</ele><time>2026-04-29T06:49:47.247Z</time></trkpt><trkpt lat="45.5139055" lon="11.8921661"><ele>16.0</ele><time>2026-04-29T06:49:48.246Z</time></trkpt><trkpt lat="45.5140208" lon="11.8922151"><ele>15.999999999999998</ele><time>2026-04-29T06:49:50.246Z</time></trkpt><trkpt lat="45.5140831" lon="11.8922451"><ele>16.0</ele><time>2026-04-29T06:49:51.246Z</time></trkpt><trkpt lat="45.514202" lon="11.8922945"><ele>16.0</ele><time>2026-04-29T06:49:53.246Z</time></trkpt><trkpt lat="45.5142625" lon="11.8923238"><ele>16.0</ele><time>2026-04-29T06:49:54.246Z</time></trkpt><trkpt lat="45.514326" lon="11.8923487"><ele>15.999999999999998</ele><time>2026-04-29T06:49:55.247Z</time></trkpt><trkpt lat="45.5143883" lon="11.8923756"><ele>16.0</ele><time>2026-04-29T06:49:56.247Z</time></trkpt><trkpt lat="45.5144554" lon="11.8924015"><ele>15.833333333333332</ele><time>2026-04-29T06:49:57.247Z</time></trkpt><trkpt lat="45.5145756" lon="11.892458"><ele>15.666666666666666</ele><time>2026-04-29T06:49:59.246Z</time></trkpt><trkpt lat="45.5146383" lon="11.8924855"><ele>15.5</ele><time>2026-04-29T06:50:00.246Z</time></trkpt><trkpt lat="45.5147007" lon="11.8925146"><ele>15.333333333333332</ele><time>2026-04-29T06:50:01.247Z</time></trkpt><trkpt lat="45.5147671" lon="11.8925409"><ele>15.166666666666666</ele><time>2026-04-29T06:50:02.246Z</time></trkpt><trkpt lat="45.5148313" lon="11.8925664"><ele>15.0</ele><time>2026-04-29T06:50:03.246Z</time></trkpt><trkpt lat="45.5148958" lon="11.8925875"><ele>15.0</ele><time>2026-04-29T06:50:04.246Z</time></trkpt><trkpt lat="45.5150163" lon="11.8926404"><ele>15.0</ele><time>2026-04-29T06:50:06.246Z</time></trkpt><trkpt lat="45.5150792" lon="11.8926648"><ele>15.0</ele><time>2026-04-29T06:50:07.246Z</time></trkpt><trkpt lat="45.5151424" lon="11.8926918"><ele>15.0</ele><time>2026-04-29T06:50:08.246Z</time></trkpt><trkpt lat="45.5152634" lon="11.8927382"><ele>15.0</ele><time>2026-04-29T06:50:10.246Z</time></trkpt><trkpt lat="45.515382" lon="11.892788"><ele>15.285714285714286</ele><time>2026-04-29T06:50:12.246Z</time></trkpt><trkpt lat="45.5154463" lon="11.8928152"><ele>15.57142857142857</ele><time>2026-04-29T06:50:13.246Z</time></trkpt><trkpt lat="45.515509" lon="11.892837"><ele>15.857142857142856</ele><time>2026-04-29T06:50:14.247Z</time></trkpt><trkpt lat="45.515573" lon="11.8928645"><ele>16.142857142857142</ele><time>2026-04-29T06:50:15.247Z</time></trkpt><trkpt lat="45.5156364" lon="11.8928968"><ele>16.428571428571427</ele><time>2026-04-29T06:50:16.246Z</time></trkpt><trkpt lat="45.5156987" lon="11.8929237"><ele>16.71428571428571</ele><time>2026-04-29T06:50:17.246Z</time></trkpt><trkpt lat="45.51576" lon="11.8929471"><ele>17.0</ele><time>2026-04-29T06:50:18.246Z</time></trkpt><trkpt lat="45.5158268" lon="11.8929717"><ele>16.999999999999996</ele><time>2026-04-29T06:50:19.247Z</time></trkpt><trkpt lat="45.5158915" lon="11.8929989"><ele>17.0</ele><time>2026-04-29T06:50:20.246Z</time></trkpt><trkpt lat="45.5159583" lon="11.8930216"><ele>17.0</ele><time>2026-04-29T06:50:21.246Z</time></trkpt><trkpt lat="45.5160236" lon="11.8930467"><ele>17.0</ele><time>2026-04-29T06:50:22.247Z</time></trkpt><trkpt lat="45.5160854" lon="11.8930773"><ele>17.0</ele><time>2026-04-29T06:50:23.247Z</time></trkpt><trkpt lat="45.5161487" lon="11.8931007"><ele>16.999999999999996</ele><time>2026-04-29T06:50:24.246Z</time></trkpt><trkpt lat="45.5162127" lon="11.8931218"><ele>17.0</ele><time>2026-04-29T06:50:25.246Z</time></trkpt><trkpt lat="45.5162749" lon="11.893147"><ele>16.857142857142854</ele><time>2026-04-29T06:50:26.247Z</time></trkpt><trkpt lat="45.5163395" lon="11.8931756"><ele>16.714285714285715</ele><time>2026-04-29T06:50:27.246Z</time></trkpt><trkpt lat="45.5164036" lon="11.8932006"><ele>16.57142857142857</ele><time>2026-04-29T06:50:28.246Z</time></trkpt><trkpt lat="45.5164668" lon="11.8932184"><ele>16.428571428571427</ele><time>2026-04-29T06:50:29.246Z</time></trkpt><trkpt lat="45.5165302" lon="11.8932435"><ele>16.285714285714285</ele><time>2026-04-29T06:50:30.247Z</time></trkpt><trkpt lat="45.5165947" lon="11.8932682"><ele>16.142857142857142</ele><time>2026-04-29T06:50:31.246Z</time></trkpt><trkpt lat="45.5166564" lon="11.8932956"><ele>16.0</ele><time>2026-04-29T06:50:32.246Z</time></trkpt><trkpt lat="45.5167204" lon="11.893326"><ele>15.999999999999998</ele><time>2026-04-29T06:50:33.246Z</time></trkpt><trkpt lat="45.5167833" lon="11.8933536"><ele>16.0</ele><time>2026-04-29T06:50:34.246Z</time></trkpt><trkpt lat="45.5168492" lon="11.8933801"><ele>16.0</ele><time>2026-04-29T06:50:35.246Z</time></trkpt><trkpt lat="45.5169123" lon="11.8934055"><ele>16.0</ele><time>2026-04-29T06:50:36.246Z</time></trkpt><trkpt lat="45.5170379" lon="11.8934473"><ele>15.999999999999998</ele><time>2026-04-29T06:50:38.247Z</time></trkpt><trkpt lat="45.5171035" lon="11.8934742"><ele>16.0</ele><time>2026-04-29T06:50:39.246Z</time></trkpt><trkpt lat="45.5171695" lon="11.8935082"><ele>15.999999999999998</ele><time>2026-04-29T06:50:40.246Z</time></trkpt><trkpt lat="45.5172357" lon="11.8935377"><ele>16.0</ele><time>2026-04-29T06:50:41.246Z</time></trkpt><trkpt lat="45.5173014" lon="11.8935683"><ele>16.0</ele><time>2026-04-29T06:50:42.246Z</time></trkpt><trkpt lat="45.5173672" lon="11.8935939"><ele>16.0</ele><time>2026-04-29T06:50:43.246Z</time></trkpt><trkpt lat="45.517477" lon="11.89364"><ele>15.999999999999998</ele><time>2026-04-29T06:50:45.246Z</time></trkpt><trkpt lat="45.5175922" lon="11.8936898"><ele>16.0</ele><time>2026-04-29T06:50:47.246Z</time></trkpt><trkpt lat="45.5176997" lon="11.8937417"><ele>15.999999999999998</ele><time>2026-04-29T06:50:49.246Z</time></trkpt><trkpt lat="45.5178063" lon="11.8937872"><ele>16.0</ele><time>2026-04-29T06:50:51.246Z</time></trkpt><trkpt lat="45.5179213" lon="11.8938247"><ele>16.0</ele><time>2026-04-29T06:50:53.246Z</time></trkpt><trkpt lat="45.5179839" lon="11.8938586"><ele>16.0</ele><time>2026-04-29T06:50:54.247Z</time></trkpt><trkpt lat="45.5180441" lon="11.893897"><ele>15.999999999999998</ele><time>2026-04-29T06:50:55.246Z</time></trkpt><trkpt lat="45.5181123" lon="11.8939255"><ele>16.0</ele><time>2026-04-29T06:50:56.246Z</time></trkpt><trkpt lat="45.5182327" lon="11.8939773"><ele>15.714285714285714</ele><time>2026-04-29T06:50:58.246Z</time></trkpt><trkpt lat="45.5182955" lon="11.8940113"><ele>15.428571428571427</ele><time>2026-04-29T06:50:59.246Z</time></trkpt><trkpt lat="45.5183591" lon="11.8940456"><ele>15.142857142857142</ele><time>2026-04-29T06:51:00.246Z</time></trkpt><trkpt lat="45.518419" lon="11.8940819"><ele>14.857142857142858</ele><time>2026-04-29T06:51:01.246Z</time></trkpt><trkpt lat="45.5184784" lon="11.8941151"><ele>14.571428571428571</ele><time>2026-04-29T06:51:02.247Z</time></trkpt><trkpt lat="45.5185371" lon="11.8941503"><ele>14.285714285714285</ele><time>2026-04-29T06:51:03.247Z</time></trkpt><trkpt lat="45.5185966" lon="11.8941848"><ele>14.0</ele><time>2026-04-29T06:51:04.247Z</time></trkpt><trkpt lat="45.5186568" lon="11.894215"><ele>14.166666666666668</ele><time>2026-04-29T06:51:05.246Z</time></trkpt><trkpt lat="45.5187777" lon="11.8942614"><ele>14.333333333333334</ele><time>2026-04-29T06:51:07.247Z</time></trkpt><trkpt lat="45.5188402" lon="11.8942835"><ele>14.5</ele><time>2026-04-29T06:51:08.246Z</time></trkpt><trkpt lat="45.5189042" lon="11.8943051"><ele>14.666666666666668</ele><time>2026-04-29T06:51:09.246Z</time></trkpt><trkpt lat="45.5189695" lon="11.8943296"><ele>14.833333333333334</ele><time>2026-04-29T06:51:10.246Z</time></trkpt><trkpt lat="45.5190344" lon="11.8943512"><ele>15.0</ele><time>2026-04-29T06:51:11.246Z</time></trkpt><trkpt lat="45.519096" lon="11.8943729"><ele>15.0</ele><time>2026-04-29T06:51:12.247Z</time></trkpt><trkpt lat="45.5191595" lon="11.8943972"><ele>15.0</ele><time>2026-04-29T06:51:13.247Z</time></trkpt><trkpt lat="45.5192842" lon="11.8944353"><ele>15.0</ele><time>2026-04-29T06:51:15.246Z</time></trkpt><trkpt lat="45.5193473" lon="11.8944571"><ele>15.0</ele><time>2026-04-29T06:51:16.247Z</time></trkpt><trkpt lat="45.5194106" lon="11.8944786"><ele>15.0</ele><time>2026-04-29T06:51:17.246Z</time></trkpt><trkpt lat="45.5195292" lon="11.8945254"><ele>15.0</ele><time>2026-04-29T06:51:19.246Z</time></trkpt><trkpt lat="45.5195923" lon="11.894545"><ele>15.333333333333334</ele><time>2026-04-29T06:51:20.247Z</time></trkpt><trkpt lat="45.5196581" lon="11.8945641"><ele>15.666666666666668</ele><time>2026-04-29T06:51:21.247Z</time></trkpt><trkpt lat="45.5197193" lon="11.8945866"><ele>16.0</ele><time>2026-04-29T06:51:22.246Z</time></trkpt><trkpt lat="45.5198378" lon="11.8946202"><ele>16.333333333333336</ele><time>2026-04-29T06:51:24.246Z</time></trkpt><trkpt lat="45.5199013" lon="11.8946411"><ele>16.666666666666668</ele><time>2026-04-29T06:51:25.247Z</time></trkpt><trkpt lat="45.5200269" lon="11.8946863"><ele>17.0</ele><time>2026-04-29T06:51:27.247Z</time></trkpt><trkpt lat="45.5200917" lon="11.8947084"><ele>17.0</ele><time>2026-04-29T06:51:28.246Z</time></trkpt><trkpt lat="45.5201537" lon="11.8947328"><ele>17.0</ele><time>2026-04-29T06:51:29.247Z</time></trkpt><trkpt lat="45.5202157" lon="11.894758"><ele>17.0</ele><time>2026-04-29T06:51:30.246Z</time></trkpt><trkpt lat="45.5202789" lon="11.8947784"><ele>17.0</ele><time>2026-04-29T06:51:31.246Z</time></trkpt><trkpt lat="45.5203458" lon="11.8948015"><ele>17.0</ele><time>2026-04-29T06:51:32.247Z</time></trkpt><trkpt lat="45.5204699" lon="11.8948462"><ele>17.0</ele><time>2026-04-29T06:51:34.246Z</time></trkpt><trkpt lat="45.5205358" lon="11.8948722"><ele>17.142857142857142</ele><time>2026-04-29T06:51:35.247Z</time></trkpt><trkpt lat="45.5206016" lon="11.8948939"><ele>17.285714285714285</ele><time>2026-04-29T06:51:36.246Z</time></trkpt><trkpt lat="45.5206647" lon="11.8949171"><ele>17.42857142857143</ele><time>2026-04-29T06:51:37.246Z</time></trkpt><trkpt lat="45.5207332" lon="11.8949417"><ele>17.57142857142857</ele><time>2026-04-29T06:51:38.246Z</time></trkpt><trkpt lat="45.5208015" lon="11.8949629"><ele>17.714285714285715</ele><time>2026-04-29T06:51:39.247Z</time></trkpt><trkpt lat="45.5208668" lon="11.8949814"><ele>17.857142857142858</ele><time>2026-04-29T06:51:40.246Z</time></trkpt><trkpt lat="45.5209308" lon="11.8949991"><ele>18.0</ele><time>2026-04-29T06:51:41.246Z</time></trkpt><trkpt lat="45.5209927" lon="11.8950155"><ele>18.0</ele><time>2026-04-29T06:51:42.246Z</time></trkpt><trkpt lat="45.5210559" lon="11.8950427"><ele>18.0</ele><time>2026-04-29T06:51:43.247Z</time></trkpt><trkpt lat="45.521178" lon="11.8950815"><ele>18.0</ele><time>2026-04-29T06:51:45.246Z</time></trkpt><trkpt lat="45.5212985" lon="11.8951375"><ele>18.0</ele><time>2026-04-29T06:51:47.246Z</time></trkpt><trkpt lat="45.521359" lon="11.8951636"><ele>18.0</ele><time>2026-04-29T06:51:48.246Z</time></trkpt><trkpt lat="45.5214207" lon="11.895186"><ele>18.0</ele><time>2026-04-29T06:51:49.246Z</time></trkpt><trkpt lat="45.5214861" lon="11.895213"><ele>17.833333333333332</ele><time>2026-04-29T06:51:50.246Z</time></trkpt><trkpt lat="45.5215485" lon="11.8952363"><ele>17.666666666666668</ele><time>2026-04-29T06:51:51.246Z</time></trkpt><trkpt lat="45.5216658" lon="11.8952836"><ele>17.5</ele><time>2026-04-29T06:51:53.246Z</time></trkpt><trkpt lat="45.5217291" lon="11.8953102"><ele>17.333333333333336</ele><time>2026-04-29T06:51:54.246Z</time></trkpt><trkpt lat="45.521793" lon="11.8953363"><ele>17.166666666666668</ele><time>2026-04-29T06:51:55.246Z</time></trkpt><trkpt lat="45.5218555" lon="11.8953585"><ele>17.0</ele><time>2026-04-29T06:51:56.246Z</time></trkpt><trkpt lat="45.5219207" lon="11.8953853"><ele>16.999999999999996</ele><time>2026-04-29T06:51:57.247Z</time></trkpt><trkpt lat="45.5219855" lon="11.8954034"><ele>17.0</ele><time>2026-04-29T06:51:58.246Z</time></trkpt><trkpt lat="45.5220521" lon="11.8954233"><ele>17.0</ele><time>2026-04-29T06:51:59.247Z</time></trkpt><trkpt lat="45.5221163" lon="11.8954483"><ele>17.0</ele><time>2026-04-29T06:52:00.247Z</time></trkpt><trkpt lat="45.5221822" lon="11.8954822"><ele>17.0</ele><time>2026-04-29T06:52:01.246Z</time></trkpt><trkpt lat="45.5222507" lon="11.8955039"><ele>16.999999999999996</ele><time>2026-04-29T06:52:02.246Z</time></trkpt><trkpt lat="45.5223139" lon="11.8955284"><ele>17.0</ele><time>2026-04-29T06:52:03.246Z</time></trkpt><trkpt lat="45.5223771" lon="11.8955498"><ele>16.999999999999996</ele><time>2026-04-29T06:52:04.246Z</time></trkpt><trkpt lat="45.5224424" lon="11.8955662"><ele>17.0</ele><time>2026-04-29T06:52:05.246Z</time></trkpt><trkpt lat="45.5225047" lon="11.8955813"><ele>17.0</ele><time>2026-04-29T06:52:06.247Z</time></trkpt><trkpt lat="45.5225659" lon="11.8956054"><ele>17.0</ele><time>2026-04-29T06:52:07.246Z</time></trkpt><trkpt lat="45.522628" lon="11.8956253"><ele>17.0</ele><time>2026-04-29T06:52:08.246Z</time></trkpt><trkpt lat="45.5227486" lon="11.8956763"><ele>16.999999999999996</ele><time>2026-04-29T06:52:10.246Z</time></trkpt><trkpt lat="45.5228099" lon="11.895703"><ele>17.0</ele><time>2026-04-29T06:52:11.246Z</time></trkpt><trkpt lat="45.5228718" lon="11.8957261"><ele>16.6</ele><time>2026-04-29T06:52:12.246Z</time></trkpt><trkpt lat="45.5229919" lon="11.8957742"><ele>16.2</ele><time>2026-04-29T06:52:14.246Z</time></trkpt><trkpt lat="45.5230579" lon="11.8958007"><ele>15.8</ele><time>2026-04-29T06:52:15.246Z</time></trkpt><trkpt lat="45.5231846" lon="11.895841"><ele>15.4</ele><time>2026-04-29T06:52:17.247Z</time></trkpt><trkpt lat="45.523246" lon="11.8958683"><ele>15.0</ele><time>2026-04-29T06:52:18.246Z</time></trkpt><trkpt lat="45.5233077" lon="11.8958897"><ele>15.0</ele><time>2026-04-29T06:52:19.246Z</time></trkpt><trkpt lat="45.5233714" lon="11.8959152"><ele>15.0</ele><time>2026-04-29T06:52:20.247Z</time></trkpt><trkpt lat="45.5234329" lon="11.8959378"><ele>15.0</ele><time>2026-04-29T06:52:21.246Z</time></trkpt><trkpt lat="45.5234969" lon="11.8959653"><ele>15.0</ele><time>2026-04-29T06:52:22.247Z</time></trkpt><trkpt lat="45.5235605" lon="11.8959875"><ele>15.0</ele><time>2026-04-29T06:52:23.247Z</time></trkpt><trkpt lat="45.5236815" lon="11.8960287"><ele>15.0</ele><time>2026-04-29T06:52:25.246Z</time></trkpt><trkpt lat="45.5238016" lon="11.896068"><ele>15.5</ele><time>2026-04-29T06:52:27.246Z</time></trkpt><trkpt lat="45.5238644" lon="11.896097"><ele>16.0</ele><time>2026-04-29T06:52:28.246Z</time></trkpt><trkpt lat="45.5239901" lon="11.8961457"><ele>16.5</ele><time>2026-04-29T06:52:30.246Z</time></trkpt><trkpt lat="45.5240519" lon="11.8961678"><ele>17.0</ele><time>2026-04-29T06:52:31.246Z</time></trkpt><trkpt lat="45.5241206" lon="11.8961881"><ele>17.5</ele><time>2026-04-29T06:52:32.247Z</time></trkpt><trkpt lat="45.5241861" lon="11.8962096"><ele>18.0</ele><time>2026-04-29T06:52:33.246Z</time></trkpt><trkpt lat="45.5242506" lon="11.8962396"><ele>18.0</ele><time>2026-04-29T06:52:34.246Z</time></trkpt><trkpt lat="45.5243756" lon="11.8962861"><ele>18.0</ele><time>2026-04-29T06:52:36.246Z</time></trkpt><trkpt lat="45.5244955" lon="11.8963378"><ele>18.0</ele><time>2026-04-29T06:52:38.246Z</time></trkpt><trkpt lat="45.5245579" lon="11.8963619"><ele>18.0</ele><time>2026-04-29T06:52:39.247Z</time></trkpt><trkpt lat="45.5246208" lon="11.8963871"><ele>18.0</ele><time>2026-04-29T06:52:40.246Z</time></trkpt><trkpt lat="45.5246824" lon="11.8964081"><ele>18.0</ele><time>2026-04-29T06:52:41.246Z</time></trkpt><trkpt lat="45.524748" lon="11.8964262"><ele>17.8</ele><time>2026-04-29T06:52:42.246Z</time></trkpt><trkpt lat="45.5248164" lon="11.8964513"><ele>17.6</ele><time>2026-04-29T06:52:43.247Z</time></trkpt><trkpt lat="45.5249365" lon="11.8965068"><ele>17.4</ele><time>2026-04-29T06:52:45.246Z</time></trkpt><trkpt lat="45.5250548" lon="11.896563"><ele>17.2</ele><time>2026-04-29T06:52:47.247Z</time></trkpt><trkpt lat="45.5251689" lon="11.8966149"><ele>17.0</ele><time>2026-04-29T06:52:49.246Z</time></trkpt><trkpt lat="45.5252327" lon="11.8966411"><ele>17.0</ele><time>2026-04-29T06:52:50.247Z</time></trkpt><trkpt lat="45.5253507" lon="11.8966746"><ele>17.0</ele><time>2026-04-29T06:52:52.246Z</time></trkpt><trkpt lat="45.5254696" lon="11.896723"><ele>17.0</ele><time>2026-04-29T06:52:54.246Z</time></trkpt><trkpt lat="45.5255336" lon="11.8967418"><ele>17.0</ele><time>2026-04-29T06:52:55.246Z</time></trkpt><trkpt lat="45.5255965" lon="11.8967677"><ele>17.0</ele><time>2026-04-29T06:52:56.247Z</time></trkpt><trkpt lat="45.5256587" lon="11.8967901"><ele>17.0</ele><time>2026-04-29T06:52:57.247Z</time></trkpt><trkpt lat="45.5257217" lon="11.8968111"><ele>17.166666666666668</ele><time>2026-04-29T06:52:58.246Z</time></trkpt><trkpt lat="45.5257832" lon="11.8968321"><ele>17.333333333333336</ele><time>2026-04-29T06:52:59.247Z</time></trkpt><trkpt lat="45.525907" lon="11.8968741"><ele>17.5</ele><time>2026-04-29T06:53:01.247Z</time></trkpt><trkpt lat="45.5259693" lon="11.8968994"><ele>17.666666666666668</ele><time>2026-04-29T06:53:02.246Z</time></trkpt><trkpt lat="45.5260335" lon="11.8969225"><ele>17.833333333333332</ele><time>2026-04-29T06:53:03.246Z</time></trkpt><trkpt lat="45.5260969" lon="11.8969462"><ele>18.0</ele><time>2026-04-29T06:53:04.247Z</time></trkpt><trkpt lat="45.5262133" lon="11.8969903"><ele>17.857142857142858</ele><time>2026-04-29T06:53:06.247Z</time></trkpt><trkpt lat="45.5262774" lon="11.8970096"><ele>17.714285714285715</ele><time>2026-04-29T06:53:07.246Z</time></trkpt><trkpt lat="45.5263404" lon="11.8970297"><ele>17.57142857142857</ele><time>2026-04-29T06:53:08.246Z</time></trkpt><trkpt lat="45.5264031" lon="11.8970496"><ele>17.42857142857143</ele><time>2026-04-29T06:53:09.246Z</time></trkpt><trkpt lat="45.5264699" lon="11.8970673"><ele>17.285714285714285</ele><time>2026-04-29T06:53:10.247Z</time></trkpt><trkpt lat="45.5265323" lon="11.8970946"><ele>17.142857142857142</ele><time>2026-04-29T06:53:11.247Z</time></trkpt><trkpt lat="45.526594" lon="11.8971197"><ele>17.0</ele><time>2026-04-29T06:53:12.247Z</time></trkpt><trkpt lat="45.526656" lon="11.8971416"><ele>17.0</ele><time>2026-04-29T06:53:13.247Z</time></trkpt><trkpt lat="45.5267178" lon="11.8971636"><ele>17.0</ele><time>2026-04-29T06:53:14.247Z</time></trkpt><trkpt lat="45.5268336" lon="11.8972025"><ele>17.0</ele><time>2026-04-29T06:53:16.247Z</time></trkpt><trkpt lat="45.5269517" lon="11.8972404"><ele>17.0</ele><time>2026-04-29T06:53:18.246Z</time></trkpt><trkpt lat="45.527014" lon="11.8972642"><ele>17.0</ele><time>2026-04-29T06:53:19.246Z</time></trkpt><trkpt lat="45.527127" lon="11.8973014"><ele>17.333333333333336</ele><time>2026-04-29T06:53:21.246Z</time></trkpt><trkpt lat="45.5272467" lon="11.897341"><ele>17.666666666666668</ele><time>2026-04-29T06:53:23.247Z</time></trkpt><trkpt lat="45.5273665" lon="11.8973796"><ele>18.0</ele><time>2026-04-29T06:53:25.246Z</time></trkpt><trkpt lat="45.5274343" lon="11.897401"><ele>18.333333333333332</ele><time>2026-04-29T06:53:26.246Z</time></trkpt><trkpt lat="45.527497" lon="11.8974214"><ele>18.666666666666664</ele><time>2026-04-29T06:53:27.247Z</time></trkpt><trkpt lat="45.5275608" lon="11.8974445"><ele>19.0</ele><time>2026-04-29T06:53:28.246Z</time></trkpt><trkpt lat="45.5276275" lon="11.8974691"><ele>19.0</ele><time>2026-04-29T06:53:29.246Z</time></trkpt><trkpt lat="45.5277475" lon="11.8975076"><ele>19.0</ele><time>2026-04-29T06:53:31.246Z</time></trkpt><trkpt lat="45.5278082" lon="11.8975331"><ele>19.0</ele><time>2026-04-29T06:53:32.247Z</time></trkpt><trkpt lat="45.5279291" lon="11.8975859"><ele>19.0</ele><time>2026-04-29T06:53:34.246Z</time></trkpt><trkpt lat="45.5280511" lon="11.8976303"><ele>19.0</ele><time>2026-04-29T06:53:36.246Z</time></trkpt><trkpt lat="45.5281604" lon="11.8976856"><ele>18.75</ele><time>2026-04-29T06:53:38.247Z</time></trkpt><trkpt lat="45.5282756" lon="11.897724"><ele>18.5</ele><time>2026-04-29T06:53:40.247Z</time></trkpt><trkpt lat="45.5283899" lon="11.8977619"><ele>18.25</ele><time>2026-04-29T06:53:42.246Z</time></trkpt><trkpt lat="45.5285004" lon="11.8978033"><ele>18.0</ele><time>2026-04-29T06:53:44.247Z</time></trkpt><trkpt lat="45.5286168" lon="11.8978473"><ele>18.0</ele><time>2026-04-29T06:53:46.247Z</time></trkpt><trkpt lat="45.5287336" lon="11.8979041"><ele>18.0</ele><time>2026-04-29T06:53:48.247Z</time></trkpt><trkpt lat="45.5288532" lon="11.8979494"><ele>18.0</ele><time>2026-04-29T06:53:50.246Z</time></trkpt><trkpt lat="45.5289167" lon="11.8979723"><ele>18.0</ele><time>2026-04-29T06:53:51.246Z</time></trkpt><trkpt lat="45.528981" lon="11.8979982"><ele>18.0</ele><time>2026-04-29T06:53:52.246Z</time></trkpt><trkpt lat="45.5290429" lon="11.8980209"><ele>18.0</ele><time>2026-04-29T06:53:53.247Z</time></trkpt><trkpt lat="45.529107" lon="11.8980472"><ele>18.000000000000004</ele><time>2026-04-29T06:53:54.247Z</time></trkpt><trkpt lat="45.5291701" lon="11.8980688"><ele>18.0</ele><time>2026-04-29T06:53:55.247Z</time></trkpt><trkpt lat="45.5292324" lon="11.8980939"><ele>18.0</ele><time>2026-04-29T06:53:56.246Z</time></trkpt><trkpt lat="45.5292967" lon="11.8981193"><ele>18.0</ele><time>2026-04-29T06:53:57.246Z</time></trkpt><trkpt lat="45.5293603" lon="11.8981343"><ele>18.0</ele><time>2026-04-29T06:53:58.246Z</time></trkpt><trkpt lat="45.5294254" lon="11.8981607"><ele>18.000000000000004</ele><time>2026-04-29T06:53:59.245Z</time></trkpt><trkpt lat="45.5294899" lon="11.8981858"><ele>18.0</ele><time>2026-04-29T06:54:00.245Z</time></trkpt><trkpt lat="45.5295544" lon="11.8982089"><ele>18.166666666666668</ele><time>2026-04-29T06:54:01.246Z</time></trkpt><trkpt lat="45.529615" lon="11.8982339"><ele>18.333333333333332</ele><time>2026-04-29T06:54:02.245Z</time></trkpt><trkpt lat="45.5297411" lon="11.8982763"><ele>18.5</ele><time>2026-04-29T06:54:04.245Z</time></trkpt><trkpt lat="45.5298041" lon="11.8983024"><ele>18.666666666666664</ele><time>2026-04-29T06:54:05.246Z</time></trkpt><trkpt lat="45.5299257" lon="11.8983352"><ele>18.833333333333332</ele><time>2026-04-29T06:54:07.245Z</time></trkpt><trkpt lat="45.5299878" lon="11.8983536"><ele>19.0</ele><time>2026-04-29T06:54:08.245Z</time></trkpt><trkpt lat="45.5301107" lon="11.8983928"><ele>19.0</ele><time>2026-04-29T06:54:10.245Z</time></trkpt><trkpt lat="45.5302301" lon="11.8984301"><ele>19.0</ele><time>2026-04-29T06:54:12.245Z</time></trkpt><trkpt lat="45.530294" lon="11.8984441"><ele>19.0</ele><time>2026-04-29T06:54:13.245Z</time></trkpt><trkpt lat="45.5303589" lon="11.8984587"><ele>19.0</ele><time>2026-04-29T06:54:14.246Z</time></trkpt><trkpt lat="45.53042" lon="11.8984816"><ele>19.0</ele><time>2026-04-29T06:54:15.245Z</time></trkpt><trkpt lat="45.5304822" lon="11.8985036"><ele>19.0</ele><time>2026-04-29T06:54:16.245Z</time></trkpt><trkpt lat="45.5305444" lon="11.8985223"><ele>19.0</ele><time>2026-04-29T06:54:17.245Z</time></trkpt><trkpt lat="45.5306065" lon="11.8985414"><ele>19.0</ele><time>2026-04-29T06:54:18.245Z</time></trkpt><trkpt lat="45.5306688" lon="11.898558"><ele>19.0</ele><time>2026-04-29T06:54:19.245Z</time></trkpt><trkpt lat="45.5307311" lon="11.898574"><ele>19.0</ele><time>2026-04-29T06:54:20.245Z</time></trkpt><trkpt lat="45.530858" lon="11.8986088"><ele>19.0</ele><time>2026-04-29T06:54:22.245Z</time></trkpt><trkpt lat="45.530978" lon="11.8986557"><ele>19.0</ele><time>2026-04-29T06:54:24.245Z</time></trkpt><trkpt lat="45.5311019" lon="11.898696"><ele>19.0</ele><time>2026-04-29T06:54:26.245Z</time></trkpt><trkpt lat="45.5312207" lon="11.8987355"><ele>19.0</ele><time>2026-04-29T06:54:28.245Z</time></trkpt><trkpt lat="45.5313386" lon="11.8987804"><ele>19.0</ele><time>2026-04-29T06:54:30.245Z</time></trkpt><trkpt lat="45.5314549" lon="11.8988263"><ele>19.0</ele><time>2026-04-29T06:54:32.245Z</time></trkpt><trkpt lat="45.5315162" lon="11.8988487"><ele>19.0</ele><time>2026-04-29T06:54:33.245Z</time></trkpt><trkpt lat="45.5316386" lon="11.8988917"><ele>19.0</ele><time>2026-04-29T06:54:35.245Z</time></trkpt><trkpt lat="45.5317582" lon="11.8989373"><ele>19.0</ele><time>2026-04-29T06:54:37.245Z</time></trkpt><trkpt lat="45.5318219" lon="11.8989589"><ele>19.0</ele><time>2026-04-29T06:54:38.246Z</time></trkpt><trkpt lat="45.5319389" lon="11.8990181"><ele>19.0</ele><time>2026-04-29T06:54:40.245Z</time></trkpt><trkpt lat="45.5320578" lon="11.8990695"><ele>19.0</ele><time>2026-04-29T06:54:42.245Z</time></trkpt><trkpt lat="45.5321729" lon="11.8991225"><ele>18.599999999999998</ele><time>2026-04-29T06:54:44.245Z</time></trkpt><trkpt lat="45.5322792" lon="11.8991786"><ele>18.2</ele><time>2026-04-29T06:54:46.245Z</time></trkpt><trkpt lat="45.5323957" lon="11.8992328"><ele>17.799999999999997</ele><time>2026-04-29T06:54:48.245Z</time></trkpt><trkpt lat="45.5324558" lon="11.8992682"><ele>17.4</ele><time>2026-04-29T06:54:49.245Z</time></trkpt><trkpt lat="45.5325632" lon="11.8993257"><ele>17.0</ele><time>2026-04-29T06:54:51.245Z</time></trkpt><trkpt lat="45.5326698" lon="11.8993744"><ele>17.0</ele><time>2026-04-29T06:54:53.245Z</time></trkpt><trkpt lat="45.5327708" lon="11.8994272"><ele>17.0</ele><time>2026-04-29T06:54:55.245Z</time></trkpt><trkpt lat="45.5328785" lon="11.8994827"><ele>17.0</ele><time>2026-04-29T06:54:57.246Z</time></trkpt><trkpt lat="45.5329976" lon="11.8995159"><ele>17.0</ele><time>2026-04-29T06:54:59.245Z</time></trkpt><trkpt lat="45.5331046" lon="11.8995612"><ele>17.2</ele><time>2026-04-29T06:55:01.245Z</time></trkpt><trkpt lat="45.5332095" lon="11.8995769"><ele>17.4</ele><time>2026-04-29T06:55:03.245Z</time></trkpt><trkpt lat="45.5333171" lon="11.8996044"><ele>17.6</ele><time>2026-04-29T06:55:05.246Z</time></trkpt><trkpt lat="45.5333908" lon="11.8995378"><ele>17.8</ele><time>2026-04-29T06:55:07.245Z</time></trkpt><trkpt lat="45.5334247" lon="11.8994278"><ele>18.0</ele><time>2026-04-29T06:55:09.245Z</time></trkpt><trkpt lat="45.5334382" lon="11.899288"><ele>18.0</ele><time>2026-04-29T06:55:11.245Z</time></trkpt><trkpt lat="45.5334535" lon="11.8991451"><ele>18.0</ele><time>2026-04-29T06:55:13.245Z</time></trkpt><trkpt lat="45.5334799" lon="11.8989888"><ele>18.0</ele><time>2026-04-29T06:55:15.246Z</time></trkpt><trkpt lat="45.5335098" lon="11.8988185"><ele>18.0</ele><time>2026-04-29T06:55:17.245Z</time></trkpt><trkpt lat="45.5335376" lon="11.898649"><ele>18.0</ele><time>2026-04-29T06:55:19.245Z</time></trkpt><trkpt lat="45.5335652" lon="11.8984883"><ele>18.0</ele><time>2026-04-29T06:55:21.245Z</time></trkpt><trkpt lat="45.5335876" lon="11.8983104"><ele>18.0</ele><time>2026-04-29T06:55:23.245Z</time></trkpt><trkpt lat="45.5336018" lon="11.8981432"><ele>18.0</ele><time>2026-04-29T06:55:25.245Z</time></trkpt><trkpt lat="45.5336055" lon="11.897965"><ele>18.2</ele><time>2026-04-29T06:55:27.245Z</time></trkpt><trkpt lat="45.5336205" lon="11.8977932"><ele>18.4</ele><time>2026-04-29T06:55:29.245Z</time></trkpt><trkpt lat="45.5336347" lon="11.897616"><ele>18.599999999999998</ele><time>2026-04-29T06:55:31.246Z</time></trkpt><trkpt lat="45.5336409" lon="11.8975218"><ele>18.8</ele><time>2026-04-29T06:55:32.246Z</time></trkpt><trkpt lat="45.5336599" lon="11.897343"><ele>19.0</ele><time>2026-04-29T06:55:34.245Z</time></trkpt><trkpt lat="45.5336831" lon="11.8971743"><ele>19.0</ele><time>2026-04-29T06:55:36.246Z</time></trkpt><trkpt lat="45.5337038" lon="11.8970139"><ele>19.0</ele><time>2026-04-29T06:55:38.245Z</time></trkpt><trkpt lat="45.5337296" lon="11.8968373"><ele>19.0</ele><time>2026-04-29T06:55:40.245Z</time></trkpt><trkpt lat="45.5337522" lon="11.8966654"><ele>19.0</ele><time>2026-04-29T06:55:42.245Z</time></trkpt><trkpt lat="45.5337761" lon="11.8964897"><ele>19.0</ele><time>2026-04-29T06:55:44.246Z</time></trkpt><trkpt lat="45.5337964" lon="11.8964032"><ele>19.0</ele><time>2026-04-29T06:55:45.246Z</time></trkpt><trkpt lat="45.5338147" lon="11.896227"><ele>19.0</ele><time>2026-04-29T06:55:47.245Z</time></trkpt><trkpt lat="45.533829" lon="11.8961356"><ele>19.0</ele><time>2026-04-29T06:55:48.245Z</time></trkpt><trkpt lat="45.533858" lon="11.8959582"><ele>19.0</ele><time>2026-04-29T06:55:50.245Z</time></trkpt><trkpt lat="45.5338852" lon="11.8957944"><ele>19.25</ele><time>2026-04-29T06:55:52.245Z</time></trkpt><trkpt lat="45.5339121" lon="11.89564"><ele>19.5</ele><time>2026-04-29T06:55:54.246Z</time></trkpt><trkpt lat="45.5339364" lon="11.8954889"><ele>19.75</ele><time>2026-04-29T06:55:56.245Z</time></trkpt><trkpt lat="45.5339585" lon="11.8953394"><ele>20.0</ele><time>2026-04-29T06:55:58.246Z</time></trkpt><trkpt lat="45.5340036" lon="11.8951765"><ele>20.0</ele><time>2026-04-29T06:56:00.245Z</time></trkpt><trkpt lat="45.5340174" lon="11.8950824"><ele>20.0</ele><time>2026-04-29T06:56:01.245Z</time></trkpt><trkpt lat="45.5340315" lon="11.8949113"><ele>20.0</ele><time>2026-04-29T06:56:03.246Z</time></trkpt><trkpt lat="45.5340333" lon="11.8948163"><ele>20.0</ele><time>2026-04-29T06:56:04.245Z</time></trkpt><trkpt lat="45.5340757" lon="11.8946549"><ele>20.0</ele><time>2026-04-29T06:56:06.245Z</time></trkpt><trkpt lat="45.5341613" lon="11.8945673"><ele>20.0</ele><time>2026-04-29T06:56:08.245Z</time></trkpt><trkpt lat="45.5342679" lon="11.8945583"><ele>20.0</ele><time>2026-04-29T06:56:10.246Z</time></trkpt><trkpt lat="45.5343731" lon="11.8946068"><ele>20.0</ele><time>2026-04-29T06:56:12.245Z</time></trkpt><trkpt lat="45.5344808" lon="11.8946508"><ele>20.0</ele><time>2026-04-29T06:56:14.246Z</time></trkpt><trkpt lat="45.5345842" lon="11.8946819"><ele>20.0</ele><time>2026-04-29T06:56:16.246Z</time></trkpt><trkpt lat="45.5346827" lon="11.8947265"><ele>20.0</ele><time>2026-04-29T06:56:18.246Z</time></trkpt><trkpt lat="45.5347965" lon="11.8947656"><ele>20.0</ele><time>2026-04-29T06:56:20.245Z</time></trkpt><trkpt lat="45.5349098" lon="11.8948132"><ele>20.0</ele><time>2026-04-29T06:56:22.246Z</time></trkpt><trkpt lat="45.5350193" lon="11.8948652"><ele>20.0</ele><time>2026-04-29T06:56:24.245Z</time></trkpt><trkpt lat="45.535134" lon="11.8949145"><ele>20.0</ele><time>2026-04-29T06:56:26.245Z</time></trkpt><trkpt lat="45.5352413" lon="11.8949595"><ele>20.0</ele><time>2026-04-29T06:56:28.245Z</time></trkpt><trkpt lat="45.535354" lon="11.8950155"><ele>20.0</ele><time>2026-04-29T06:56:30.245Z</time></trkpt><trkpt lat="45.5354672" lon="11.8950728"><ele>20.0</ele><time>2026-04-29T06:56:32.245Z</time></trkpt><trkpt lat="45.5355753" lon="11.8951337"><ele>19.6</ele><time>2026-04-29T06:56:34.245Z</time></trkpt><trkpt lat="45.5356791" lon="11.8951805"><ele>19.2</ele><time>2026-04-29T06:56:36.245Z</time></trkpt><trkpt lat="45.5357744" lon="11.8952147"><ele>18.8</ele><time>2026-04-29T06:56:38.246Z</time></trkpt><trkpt lat="45.5358727" lon="11.8952552"><ele>18.4</ele><time>2026-04-29T06:56:40.245Z</time></trkpt><trkpt lat="45.5359748" lon="11.8952937"><ele>18.0</ele><time>2026-04-29T06:56:42.245Z</time></trkpt><trkpt lat="45.5360779" lon="11.8953403"><ele>18.0</ele><time>2026-04-29T06:56:44.246Z</time></trkpt><trkpt lat="45.5361673" lon="11.8953797"><ele>18.0</ele><time>2026-04-29T06:56:46.245Z</time></trkpt><trkpt lat="45.5362592" lon="11.8954174"><ele>18.0</ele><time>2026-04-29T06:56:48.245Z</time></trkpt><trkpt lat="45.5363505" lon="11.8954563"><ele>18.0</ele><time>2026-04-29T06:56:50.245Z</time></trkpt><trkpt lat="45.5364409" lon="11.895492"><ele>18.0</ele><time>2026-04-29T06:56:52.245Z</time></trkpt><trkpt lat="45.5365292" lon="11.8955361"><ele>18.333333333333332</ele><time>2026-04-29T06:56:54.245Z</time></trkpt><trkpt lat="45.5366093" lon="11.8955712"><ele>18.666666666666668</ele><time>2026-04-29T06:56:56.245Z</time></trkpt><trkpt lat="45.5366878" lon="11.8956112"><ele>19.0</ele><time>2026-04-29T06:56:58.245Z</time></trkpt><trkpt lat="45.5367536" lon="11.8956448"><ele>19.333333333333336</ele><time>2026-04-29T06:57:00.245Z</time></trkpt><trkpt lat="45.5368248" lon="11.8956223"><ele>19.666666666666668</ele><time>2026-04-29T06:57:03.246Z</time></trkpt><trkpt lat="45.5368773" lon="11.8955458"><ele>20.0</ele><time>2026-04-29T06:57:05.245Z</time></trkpt><trkpt lat="45.5369186" lon="11.8954488"><ele>20.0</ele><time>2026-04-29T06:57:07.246Z</time></trkpt><trkpt lat="45.5369372" lon="11.8953315"><ele>20.0</ele><time>2026-04-29T06:57:09.245Z</time></trkpt><trkpt lat="45.5369677" lon="11.8951925"><ele>20.0</ele><time>2026-04-29T06:57:11.245Z</time></trkpt><trkpt lat="45.5369995" lon="11.8950486"><ele>20.0</ele><time>2026-04-29T06:57:13.246Z</time></trkpt><trkpt lat="45.537031" lon="11.8948973"><ele>20.0</ele><time>2026-04-29T06:57:15.245Z</time></trkpt><trkpt lat="45.5370616" lon="11.8947538"><ele>20.25</ele><time>2026-04-29T06:57:17.245Z</time></trkpt><trkpt lat="45.5370943" lon="11.894609"><ele>20.5</ele><time>2026-04-29T06:57:19.245Z</time></trkpt><trkpt lat="45.5371324" lon="11.8944452"><ele>20.75</ele><time>2026-04-29T06:57:21.246Z</time></trkpt><trkpt lat="45.537172" lon="11.8942876"><ele>21.0</ele><time>2026-04-29T06:57:23.245Z</time></trkpt><trkpt lat="45.5372167" lon="11.8941307"><ele>21.0</ele><time>2026-04-29T06:57:25.245Z</time></trkpt><trkpt lat="45.537255" lon="11.8939652"><ele>21.0</ele><time>2026-04-29T06:57:27.246Z</time></trkpt><trkpt lat="45.5372736" lon="11.8938776"><ele>21.0</ele><time>2026-04-29T06:57:28.246Z</time></trkpt><trkpt lat="45.537295" lon="11.893792"><ele>21.0</ele><time>2026-04-29T06:57:29.245Z</time></trkpt><trkpt lat="45.5373144" lon="11.8937059"><ele>21.0</ele><time>2026-04-29T06:57:30.246Z</time></trkpt><trkpt lat="45.537351" lon="11.8935458"><ele>21.0</ele><time>2026-04-29T06:57:32.245Z</time></trkpt><trkpt lat="45.5373836" lon="11.8933893"><ele>20.6</ele><time>2026-04-29T06:57:34.245Z</time></trkpt><trkpt lat="45.5374163" lon="11.8932515"><ele>20.200000000000003</ele><time>2026-04-29T06:57:36.245Z</time></trkpt><trkpt lat="45.5374456" lon="11.8931097"><ele>19.799999999999997</ele><time>2026-04-29T06:57:38.246Z</time></trkpt><trkpt lat="45.5374691" lon="11.8929605"><ele>19.4</ele><time>2026-04-29T06:57:40.245Z</time></trkpt><trkpt lat="45.5374918" lon="11.8928178"><ele>19.0</ele><time>2026-04-29T06:57:42.245Z</time></trkpt><trkpt lat="45.5375203" lon="11.8926589"><ele>19.0</ele><time>2026-04-29T06:57:44.245Z</time></trkpt><trkpt lat="45.5375496" lon="11.8924983"><ele>19.0</ele><time>2026-04-29T06:57:46.245Z</time></trkpt><trkpt lat="45.5375832" lon="11.8923492"><ele>19.0</ele><time>2026-04-29T06:57:48.246Z</time></trkpt><trkpt lat="45.5376088" lon="11.8921983"><ele>19.0</ele><time>2026-04-29T06:57:50.245Z</time></trkpt><trkpt lat="45.5376637" lon="11.8920485"><ele>19.0</ele><time>2026-04-29T06:57:52.245Z</time></trkpt><trkpt lat="45.5377596" lon="11.891942"><ele>19.0</ele><time>2026-04-29T06:57:54.245Z</time></trkpt><trkpt lat="45.537823" lon="11.8919175"><ele>19.0</ele><time>2026-04-29T06:57:55.245Z</time></trkpt><trkpt lat="45.5379446" lon="11.8919022"><ele>19.0</ele><time>2026-04-29T06:57:57.245Z</time></trkpt><trkpt lat="45.5380603" lon="11.8919352"><ele>19.0</ele><time>2026-04-29T06:57:59.245Z</time></trkpt><trkpt lat="45.5381653" lon="11.8919758"><ele>19.0</ele><time>2026-04-29T06:58:01.246Z</time></trkpt><trkpt lat="45.538274" lon="11.8920203"><ele>19.0</ele><time>2026-04-29T06:58:03.245Z</time></trkpt><trkpt lat="45.5383877" lon="11.8920622"><ele>19.0</ele><time>2026-04-29T06:58:05.245Z</time></trkpt><trkpt lat="45.5385027" lon="11.8921042"><ele>19.0</ele><time>2026-04-29T06:58:07.245Z</time></trkpt><trkpt lat="45.5386147" lon="11.8921497"><ele>19.0</ele><time>2026-04-29T06:58:09.245Z</time></trkpt><trkpt lat="45.5387245" lon="11.8921944"><ele>19.0</ele><time>2026-04-29T06:58:11.245Z</time></trkpt><trkpt lat="45.5388433" lon="11.8922411"><ele>19.0</ele><time>2026-04-29T06:58:13.245Z</time></trkpt><trkpt lat="45.5389594" lon="11.8922863"><ele>19.0</ele><time>2026-04-29T06:58:15.245Z</time></trkpt><trkpt lat="45.5390787" lon="11.8923302"><ele>19.0</ele><time>2026-04-29T06:58:17.245Z</time></trkpt><trkpt lat="45.5391958" lon="11.8923819"><ele>19.0</ele><time>2026-04-29T06:58:19.245Z</time></trkpt><trkpt lat="45.5393163" lon="11.8924269"><ele>19.0</ele><time>2026-04-29T06:58:21.245Z</time></trkpt><trkpt lat="45.5393787" lon="11.8924519"><ele>19.0</ele><time>2026-04-29T06:58:22.245Z</time></trkpt><trkpt lat="45.5394965" lon="11.892498"><ele>19.0</ele><time>2026-04-29T06:58:24.245Z</time></trkpt><trkpt lat="45.5396135" lon="11.8925481"><ele>19.2</ele><time>2026-04-29T06:58:26.246Z</time></trkpt><trkpt lat="45.5397393" lon="11.8925928"><ele>19.4</ele><time>2026-04-29T06:58:28.246Z</time></trkpt><trkpt lat="45.539801" lon="11.8926133"><ele>19.6</ele><time>2026-04-29T06:58:29.246Z</time></trkpt><trkpt lat="45.5398649" lon="11.892636"><ele>19.8</ele><time>2026-04-29T06:58:30.246Z</time></trkpt><trkpt lat="45.5399773" lon="11.8926769"><ele>20.0</ele><time>2026-04-29T06:58:32.245Z</time></trkpt><trkpt lat="45.5400838" lon="11.892713"><ele>20.0</ele><time>2026-04-29T06:58:34.245Z</time></trkpt><trkpt lat="45.5401803" lon="11.892761"><ele>20.0</ele><time>2026-04-29T06:58:36.245Z</time></trkpt><trkpt lat="45.5402592" lon="11.8927942"><ele>20.0</ele><time>2026-04-29T06:58:38.245Z</time></trkpt><trkpt lat="45.5403358" lon="11.8928427"><ele>20.0</ele><time>2026-04-29T06:58:41.245Z</time></trkpt><trkpt lat="45.540401" lon="11.8928675"><ele>20.0</ele><time>2026-04-29T06:58:45.245Z</time></trkpt><trkpt lat="45.5404732" lon="11.8928999"><ele>20.0</ele><time>2026-04-29T06:58:48.245Z</time></trkpt><trkpt lat="45.5405368" lon="11.8929466"><ele>20.4</ele><time>2026-04-29T06:58:50.245Z</time></trkpt><trkpt lat="45.5406251" lon="11.8930022"><ele>20.8</ele><time>2026-04-29T06:58:52.246Z</time></trkpt><trkpt lat="45.5407213" lon="11.8930135"><ele>21.200000000000003</ele><time>2026-04-29T06:58:54.245Z</time></trkpt><trkpt lat="45.5408343" lon="11.892994"><ele>21.6</ele><time>2026-04-29T06:58:56.245Z</time></trkpt><trkpt lat="45.5409355" lon="11.8930154"><ele>22.0</ele><time>2026-04-29T06:58:58.245Z</time></trkpt><trkpt lat="45.541053" lon="11.8930473"><ele>22.0</ele><time>2026-04-29T06:59:00.245Z</time></trkpt><trkpt lat="45.5411707" lon="11.893078"><ele>22.0</ele><time>2026-04-29T06:59:02.245Z</time></trkpt><trkpt lat="45.5412743" lon="11.8931082"><ele>22.0</ele><time>2026-04-29T06:59:04.244Z</time></trkpt><trkpt lat="45.5413804" lon="11.8931526"><ele>22.0</ele><time>2026-04-29T06:59:06.244Z</time></trkpt><trkpt lat="45.5414947" lon="11.8931946"><ele>22.0</ele><time>2026-04-29T06:59:08.244Z</time></trkpt><trkpt lat="45.5416113" lon="11.8932422"><ele>22.0</ele><time>2026-04-29T06:59:10.245Z</time></trkpt><trkpt lat="45.5416771" lon="11.8932612"><ele>22.0</ele><time>2026-04-29T06:59:11.244Z</time></trkpt><trkpt lat="45.541744" lon="11.893277"><ele>22.0</ele><time>2026-04-29T06:59:12.244Z</time></trkpt><trkpt lat="45.5418125" lon="11.8933016"><ele>22.0</ele><time>2026-04-29T06:59:13.244Z</time></trkpt><trkpt lat="45.5419339" lon="11.8933553"><ele>22.0</ele><time>2026-04-29T06:59:15.245Z</time></trkpt><trkpt lat="45.5419963" lon="11.8933813"><ele>22.0</ele><time>2026-04-29T06:59:16.244Z</time></trkpt><trkpt lat="45.5420604" lon="11.8934025"><ele>22.0</ele><time>2026-04-29T06:59:17.244Z</time></trkpt><trkpt lat="45.542182" lon="11.8934489"><ele>22.0</ele><time>2026-04-29T06:59:19.244Z</time></trkpt><trkpt lat="45.542245" lon="11.8934756"><ele>22.0</ele><time>2026-04-29T06:59:20.245Z</time></trkpt><trkpt lat="45.5423657" lon="11.893536"><ele>21.833333333333332</ele><time>2026-04-29T06:59:22.244Z</time></trkpt><trkpt lat="45.542487" lon="11.8935762"><ele>21.666666666666664</ele><time>2026-04-29T06:59:24.244Z</time></trkpt><trkpt lat="45.5425503" lon="11.8936099"><ele>21.5</ele><time>2026-04-29T06:59:25.244Z</time></trkpt><trkpt lat="45.5426157" lon="11.8936446"><ele>21.333333333333332</ele><time>2026-04-29T06:59:26.244Z</time></trkpt><trkpt lat="45.5426817" lon="11.8936744"><ele>21.166666666666668</ele><time>2026-04-29T06:59:27.244Z</time></trkpt><trkpt lat="45.5427505" lon="11.8937097"><ele>21.0</ele><time>2026-04-29T06:59:28.244Z</time></trkpt><trkpt lat="45.5428152" lon="11.8937411"><ele>20.833333333333332</ele><time>2026-04-29T06:59:29.245Z</time></trkpt><trkpt lat="45.5429312" lon="11.8937931"><ele>20.666666666666668</ele><time>2026-04-29T06:59:31.244Z</time></trkpt><trkpt lat="45.5429972" lon="11.8938216"><ele>20.5</ele><time>2026-04-29T06:59:32.245Z</time></trkpt><trkpt lat="45.5430602" lon="11.8938447"><ele>20.333333333333336</ele><time>2026-04-29T06:59:33.244Z</time></trkpt><trkpt lat="45.5431249" lon="11.8938664"><ele>20.166666666666668</ele><time>2026-04-29T06:59:34.244Z</time></trkpt><trkpt lat="45.5431883" lon="11.8938894"><ele>20.0</ele><time>2026-04-29T06:59:35.245Z</time></trkpt><trkpt lat="45.5432524" lon="11.8939108"><ele>20.0</ele><time>2026-04-29T06:59:36.245Z</time></trkpt><trkpt lat="45.543322" lon="11.8939349"><ele>20.0</ele><time>2026-04-29T06:59:37.244Z</time></trkpt><trkpt lat="45.5433845" lon="11.8939598"><ele>20.0</ele><time>2026-04-29T06:59:38.244Z</time></trkpt><trkpt lat="45.5434496" lon="11.8939852"><ele>20.0</ele><time>2026-04-29T06:59:39.244Z</time></trkpt><trkpt lat="45.5435139" lon="11.8940125"><ele>20.0</ele><time>2026-04-29T06:59:40.244Z</time></trkpt><trkpt lat="45.5435799" lon="11.8940355"><ele>20.0</ele><time>2026-04-29T06:59:41.244Z</time></trkpt><trkpt lat="45.5436483" lon="11.8940535"><ele>20.0</ele><time>2026-04-29T06:59:42.245Z</time></trkpt><trkpt lat="45.5437133" lon="11.8940762"><ele>20.0</ele><time>2026-04-29T06:59:43.244Z</time></trkpt><trkpt lat="45.543777" lon="11.8940944"><ele>20.0</ele><time>2026-04-29T06:59:44.244Z</time></trkpt><trkpt lat="45.5438402" lon="11.8941128"><ele>20.0</ele><time>2026-04-29T06:59:45.244Z</time></trkpt><trkpt lat="45.5439052" lon="11.8941378"><ele>20.0</ele><time>2026-04-29T06:59:46.244Z</time></trkpt><trkpt lat="45.5439716" lon="11.8941601"><ele>20.0</ele><time>2026-04-29T06:59:47.244Z</time></trkpt><trkpt lat="45.5440371" lon="11.8941773"><ele>20.0</ele><time>2026-04-29T06:59:48.244Z</time></trkpt><trkpt lat="45.5441012" lon="11.8941995"><ele>20.0</ele><time>2026-04-29T06:59:49.244Z</time></trkpt><trkpt lat="45.5441701" lon="11.8942223"><ele>20.0</ele><time>2026-04-29T06:59:50.245Z</time></trkpt><trkpt lat="45.5442955" lon="11.8942547"><ele>20.0</ele><time>2026-04-29T06:59:52.244Z</time></trkpt><trkpt lat="45.5444161" lon="11.8942902"><ele>20.0</ele><time>2026-04-29T06:59:54.244Z</time></trkpt><trkpt lat="45.544479" lon="11.8943124"><ele>20.0</ele><time>2026-04-29T06:59:55.244Z</time></trkpt><trkpt lat="45.54454" lon="11.894335"><ele>20.0</ele><time>2026-04-29T06:59:56.244Z</time></trkpt><trkpt lat="45.5446021" lon="11.8943602"><ele>20.0</ele><time>2026-04-29T06:59:57.244Z</time></trkpt><trkpt lat="45.5446672" lon="11.8943839"><ele>20.0</ele><time>2026-04-29T06:59:58.244Z</time></trkpt><trkpt lat="45.5447884" lon="11.8944128"><ele>20.0</ele><time>2026-04-29T07:00:00.244Z</time></trkpt><trkpt lat="45.5448522" lon="11.8944317"><ele>20.0</ele><time>2026-04-29T07:00:01.244Z</time></trkpt><trkpt lat="45.544966" lon="11.8944779"><ele>20.0</ele><time>2026-04-29T07:00:03.244Z</time></trkpt><trkpt lat="45.5450811" lon="11.8945106"><ele>20.0</ele><time>2026-04-29T07:00:05.244Z</time></trkpt><trkpt lat="45.5451952" lon="11.8945588"><ele>20.0</ele><time>2026-04-29T07:00:07.244Z</time></trkpt><trkpt lat="45.5452593" lon="11.8945848"><ele>20.0</ele><time>2026-04-29T07:00:08.244Z</time></trkpt><trkpt lat="45.545321" lon="11.8946119"><ele>20.0</ele><time>2026-04-29T07:00:09.245Z</time></trkpt><trkpt lat="45.5453833" lon="11.8946336"><ele>20.0</ele><time>2026-04-29T07:00:10.245Z</time></trkpt><trkpt lat="45.5455054" lon="11.8946754"><ele>20.0</ele><time>2026-04-29T07:00:12.244Z</time></trkpt><trkpt lat="45.5455672" lon="11.8946982"><ele>20.0</ele><time>2026-04-29T07:00:13.245Z</time></trkpt><trkpt lat="45.5456808" lon="11.8947438"><ele>20.25</ele><time>2026-04-29T07:00:15.245Z</time></trkpt><trkpt lat="45.5457959" lon="11.8947994"><ele>20.5</ele><time>2026-04-29T07:00:17.244Z</time></trkpt><trkpt lat="45.5459065" lon="11.8948486"><ele>20.75</ele><time>2026-04-29T07:00:19.244Z</time></trkpt><trkpt lat="45.5460157" lon="11.8948918"><ele>21.0</ele><time>2026-04-29T07:00:21.244Z</time></trkpt><trkpt lat="45.5461302" lon="11.8949375"><ele>21.0</ele><time>2026-04-29T07:00:23.244Z</time></trkpt><trkpt lat="45.5462439" lon="11.8949865"><ele>21.0</ele><time>2026-04-29T07:00:25.245Z</time></trkpt><trkpt lat="45.5463575" lon="11.8950298"><ele>21.0</ele><time>2026-04-29T07:00:27.244Z</time></trkpt><trkpt lat="45.5464751" lon="11.8950701"><ele>21.0</ele><time>2026-04-29T07:00:29.244Z</time></trkpt><trkpt lat="45.5465361" lon="11.8950964"><ele>21.0</ele><time>2026-04-29T07:00:30.244Z</time></trkpt><trkpt lat="45.5465964" lon="11.8951263"><ele>21.0</ele><time>2026-04-29T07:00:31.245Z</time></trkpt><trkpt lat="45.5467135" lon="11.8951786"><ele>21.0</ele><time>2026-04-29T07:00:33.244Z</time></trkpt><trkpt lat="45.546774" lon="11.8952039"><ele>21.0</ele><time>2026-04-29T07:00:34.244Z</time></trkpt><trkpt lat="45.5468356" lon="11.8952268"><ele>21.0</ele><time>2026-04-29T07:00:35.245Z</time></trkpt><trkpt lat="45.5469553" lon="11.8952722"><ele>21.0</ele><time>2026-04-29T07:00:37.244Z</time></trkpt><trkpt lat="45.5470157" lon="11.8952993"><ele>21.0</ele><time>2026-04-29T07:00:38.244Z</time></trkpt><trkpt lat="45.5470802" lon="11.8953227"><ele>21.0</ele><time>2026-04-29T07:00:39.244Z</time></trkpt><trkpt lat="45.5471435" lon="11.8953484"><ele>21.0</ele><time>2026-04-29T07:00:40.244Z</time></trkpt><trkpt lat="45.547211" lon="11.895376"><ele>21.0</ele><time>2026-04-29T07:00:41.245Z</time></trkpt><trkpt lat="45.547273" lon="11.895403"><ele>21.0</ele><time>2026-04-29T07:00:42.244Z</time></trkpt><trkpt lat="45.5473872" lon="11.8954568"><ele>21.0</ele><time>2026-04-29T07:00:44.244Z</time></trkpt><trkpt lat="45.5474988" lon="11.8955054"><ele>21.0</ele><time>2026-04-29T07:00:46.244Z</time></trkpt><trkpt lat="45.5475977" lon="11.8955454"><ele>21.0</ele><time>2026-04-29T07:00:48.244Z</time></trkpt><trkpt lat="45.5477061" lon="11.8955883"><ele>21.0</ele><time>2026-04-29T07:00:50.244Z</time></trkpt><trkpt lat="45.5478244" lon="11.895637"><ele>21.0</ele><time>2026-04-29T07:00:52.244Z</time></trkpt><trkpt lat="45.5479411" lon="11.8956884"><ele>21.0</ele><time>2026-04-29T07:00:54.244Z</time></trkpt><trkpt lat="45.5480644" lon="11.8957282"><ele>21.0</ele><time>2026-04-29T07:00:56.245Z</time></trkpt><trkpt lat="45.5481755" lon="11.8957924"><ele>21.0</ele><time>2026-04-29T07:00:58.244Z</time></trkpt><trkpt lat="45.5482375" lon="11.8958136"><ele>21.0</ele><time>2026-04-29T07:00:59.245Z</time></trkpt><trkpt lat="45.5483033" lon="11.895845"><ele>21.0</ele><time>2026-04-29T07:01:00.244Z</time></trkpt><trkpt lat="45.5483663" lon="11.8958742"><ele>21.0</ele><time>2026-04-29T07:01:01.245Z</time></trkpt><trkpt lat="45.5484896" lon="11.8959249"><ele>21.0</ele><time>2026-04-29T07:01:03.245Z</time></trkpt><trkpt lat="45.5485519" lon="11.8959416"><ele>21.0</ele><time>2026-04-29T07:01:04.244Z</time></trkpt><trkpt lat="45.5486683" lon="11.895979"><ele>21.0</ele><time>2026-04-29T07:01:06.244Z</time></trkpt><trkpt lat="45.5487838" lon="11.8960328"><ele>21.0</ele><time>2026-04-29T07:01:08.244Z</time></trkpt><trkpt lat="45.5488457" lon="11.8960613"><ele>21.0</ele><time>2026-04-29T07:01:09.245Z</time></trkpt><trkpt lat="45.548966" lon="11.8961058"><ele>21.0</ele><time>2026-04-29T07:01:11.244Z</time></trkpt><trkpt lat="45.5490871" lon="11.8961535"><ele>20.8</ele><time>2026-04-29T07:01:13.244Z</time></trkpt><trkpt lat="45.5492092" lon="11.8962006"><ele>20.6</ele><time>2026-04-29T07:01:15.244Z</time></trkpt><trkpt lat="45.5492732" lon="11.8962234"><ele>20.4</ele><time>2026-04-29T07:01:16.244Z</time></trkpt><trkpt lat="45.549395" lon="11.89627"><ele>20.2</ele><time>2026-04-29T07:01:18.244Z</time></trkpt><trkpt lat="45.5495168" lon="11.8963123"><ele>20.0</ele><time>2026-04-29T07:01:20.245Z</time></trkpt><trkpt lat="45.5495813" lon="11.8963331"><ele>20.0</ele><time>2026-04-29T07:01:21.244Z</time></trkpt><trkpt lat="45.5496413" lon="11.8963615"><ele>20.0</ele><time>2026-04-29T07:01:22.244Z</time></trkpt><trkpt lat="45.5497037" lon="11.8963814"><ele>20.0</ele><time>2026-04-29T07:01:23.244Z</time></trkpt><trkpt lat="45.5497664" lon="11.8964043"><ele>20.0</ele><time>2026-04-29T07:01:24.245Z</time></trkpt><trkpt lat="45.5498292" lon="11.8964272"><ele>20.0</ele><time>2026-04-29T07:01:25.244Z</time></trkpt><trkpt lat="45.5499519" lon="11.8964767"><ele>20.0</ele><time>2026-04-29T07:01:27.244Z</time></trkpt><trkpt lat="45.550064" lon="11.896517"><ele>20.0</ele><time>2026-04-29T07:01:29.244Z</time></trkpt><trkpt lat="45.5501778" lon="11.8965556"><ele>20.0</ele><time>2026-04-29T07:01:31.244Z</time></trkpt><trkpt lat="45.5502893" lon="11.8965985"><ele>20.0</ele><time>2026-04-29T07:01:33.244Z</time></trkpt><trkpt lat="45.5504084" lon="11.8966313"><ele>20.0</ele><time>2026-04-29T07:01:35.244Z</time></trkpt><trkpt lat="45.5504714" lon="11.896658"><ele>20.0</ele><time>2026-04-29T07:01:36.244Z</time></trkpt><trkpt lat="45.5505817" lon="11.8966901"><ele>20.0</ele><time>2026-04-29T07:01:38.244Z</time></trkpt><trkpt lat="45.5506927" lon="11.896735"><ele>20.0</ele><time>2026-04-29T07:01:40.245Z</time></trkpt><trkpt lat="45.5508079" lon="11.8967728"><ele>20.0</ele><time>2026-04-29T07:01:42.244Z</time></trkpt><trkpt lat="45.5508708" lon="11.8967927"><ele>20.0</ele><time>2026-04-29T07:01:43.245Z</time></trkpt><trkpt lat="45.5509329" lon="11.8968139"><ele>20.0</ele><time>2026-04-29T07:01:44.245Z</time></trkpt><trkpt lat="45.5509979" lon="11.8968352"><ele>20.0</ele><time>2026-04-29T07:01:45.244Z</time></trkpt><trkpt lat="45.5510598" lon="11.8968577"><ele>20.0</ele><time>2026-04-29T07:01:46.244Z</time></trkpt><trkpt lat="45.5511208" lon="11.8968818"><ele>20.0</ele><time>2026-04-29T07:01:47.244Z</time></trkpt><trkpt lat="45.5511861" lon="11.896908"><ele>20.0</ele><time>2026-04-29T07:01:48.244Z</time></trkpt><trkpt lat="45.5513111" lon="11.8969505"><ele>20.0</ele><time>2026-04-29T07:01:50.245Z</time></trkpt><trkpt lat="45.5514297" lon="11.8969856"><ele>20.0</ele><time>2026-04-29T07:01:52.245Z</time></trkpt><trkpt lat="45.5514913" lon="11.8970113"><ele>20.0</ele><time>2026-04-29T07:01:53.245Z</time></trkpt><trkpt lat="45.5516083" lon="11.8970554"><ele>20.0</ele><time>2026-04-29T07:01:55.244Z</time></trkpt><trkpt lat="45.5517197" lon="11.8970942"><ele>20.0</ele><time>2026-04-29T07:01:57.244Z</time></trkpt><trkpt lat="45.5518403" lon="11.8971352"><ele>20.0</ele><time>2026-04-29T07:01:59.245Z</time></trkpt><trkpt lat="45.5519032" lon="11.8971591"><ele>20.0</ele><time>2026-04-29T07:02:00.245Z</time></trkpt><trkpt lat="45.5519666" lon="11.8971855"><ele>20.0</ele><time>2026-04-29T07:02:01.245Z</time></trkpt><trkpt lat="45.5520292" lon="11.8972069"><ele>20.0</ele><time>2026-04-29T07:02:02.245Z</time></trkpt><trkpt lat="45.552092" lon="11.8972304"><ele>20.0</ele><time>2026-04-29T07:02:03.244Z</time></trkpt><trkpt lat="45.5521538" lon="11.8972484"><ele>20.0</ele><time>2026-04-29T07:02:04.245Z</time></trkpt><trkpt lat="45.5522162" lon="11.8972702"><ele>20.0</ele><time>2026-04-29T07:02:05.244Z</time></trkpt><trkpt lat="45.55233" lon="11.8973072"><ele>20.0</ele><time>2026-04-29T07:02:07.244Z</time></trkpt><trkpt lat="45.552445" lon="11.8973584"><ele>20.0</ele><time>2026-04-29T07:02:09.244Z</time></trkpt><trkpt lat="45.5525088" lon="11.8973796"><ele>20.0</ele><time>2026-04-29T07:02:10.244Z</time></trkpt><trkpt lat="45.5525704" lon="11.8974031"><ele>20.0</ele><time>2026-04-29T07:02:11.244Z</time></trkpt><trkpt lat="45.5526313" lon="11.8974271"><ele>20.0</ele><time>2026-04-29T07:02:12.244Z</time></trkpt><trkpt lat="45.5527521" lon="11.8974747"><ele>20.0</ele><time>2026-04-29T07:02:14.244Z</time></trkpt><trkpt lat="45.5528149" lon="11.8974974"><ele>20.0</ele><time>2026-04-29T07:02:15.244Z</time></trkpt><trkpt lat="45.5528755" lon="11.8975227"><ele>20.0</ele><time>2026-04-29T07:02:16.244Z</time></trkpt><trkpt lat="45.5529431" lon="11.8975406"><ele>20.0</ele><time>2026-04-29T07:02:17.245Z</time></trkpt><trkpt lat="45.5530109" lon="11.8975628"><ele>19.857142857142858</ele><time>2026-04-29T07:02:18.244Z</time></trkpt><trkpt lat="45.5530759" lon="11.8975895"><ele>19.714285714285715</ele><time>2026-04-29T07:02:19.244Z</time></trkpt><trkpt lat="45.55314" lon="11.8976153"><ele>19.57142857142857</ele><time>2026-04-29T07:02:20.244Z</time></trkpt><trkpt lat="45.5532026" lon="11.8976397"><ele>19.42857142857143</ele><time>2026-04-29T07:02:21.244Z</time></trkpt><trkpt lat="45.5532664" lon="11.8976634"><ele>19.28571428571429</ele><time>2026-04-29T07:02:22.245Z</time></trkpt><trkpt lat="45.553328" lon="11.8976872"><ele>19.142857142857142</ele><time>2026-04-29T07:02:23.245Z</time></trkpt><trkpt lat="45.5533902" lon="11.8977079"><ele>19.0</ele><time>2026-04-29T07:02:24.244Z</time></trkpt><trkpt lat="45.5535047" lon="11.8977587"><ele>19.0</ele><time>2026-04-29T07:02:26.244Z</time></trkpt><trkpt lat="45.553619" lon="11.897808"><ele>19.0</ele><time>2026-04-29T07:02:28.244Z</time></trkpt><trkpt lat="45.5537361" lon="11.8978704"><ele>19.0</ele><time>2026-04-29T07:02:30.244Z</time></trkpt><trkpt lat="45.553855" lon="11.8979212"><ele>19.0</ele><time>2026-04-29T07:02:32.245Z</time></trkpt><trkpt lat="45.5539155" lon="11.8979546"><ele>19.0</ele><time>2026-04-29T07:02:33.245Z</time></trkpt><trkpt lat="45.5539768" lon="11.8979834"><ele>19.166666666666664</ele><time>2026-04-29T07:02:34.244Z</time></trkpt><trkpt lat="45.554039" lon="11.8980137"><ele>19.333333333333332</ele><time>2026-04-29T07:02:35.244Z</time></trkpt><trkpt lat="45.5540994" lon="11.8980432"><ele>19.5</ele><time>2026-04-29T07:02:36.244Z</time></trkpt><trkpt lat="45.5541603" lon="11.89807"><ele>19.666666666666668</ele><time>2026-04-29T07:02:37.244Z</time></trkpt><trkpt lat="45.5542773" lon="11.8981329"><ele>19.833333333333336</ele><time>2026-04-29T07:02:39.245Z</time></trkpt><trkpt lat="45.5543899" lon="11.8981948"><ele>20.0</ele><time>2026-04-29T07:02:41.245Z</time></trkpt><trkpt lat="45.5545113" lon="11.8982535"><ele>20.0</ele><time>2026-04-29T07:02:43.244Z</time></trkpt><trkpt lat="45.5545713" lon="11.8982876"><ele>20.0</ele><time>2026-04-29T07:02:44.244Z</time></trkpt><trkpt lat="45.5546772" lon="11.898331"><ele>20.0</ele><time>2026-04-29T07:02:46.244Z</time></trkpt><trkpt lat="45.5547763" lon="11.8983717"><ele>20.0</ele><time>2026-04-29T07:02:48.244Z</time></trkpt><trkpt lat="45.5548672" lon="11.8984014"><ele>20.0</ele><time>2026-04-29T07:02:50.244Z</time></trkpt><trkpt lat="45.5549636" lon="11.8984312"><ele>20.0</ele><time>2026-04-29T07:02:52.244Z</time></trkpt><trkpt lat="45.5550594" lon="11.8984516"><ele>20.0</ele><time>2026-04-29T07:02:54.245Z</time></trkpt><trkpt lat="45.5551574" lon="11.8984472"><ele>20.0</ele><time>2026-04-29T07:02:56.244Z</time></trkpt><trkpt lat="45.555244" lon="11.8984525"><ele>20.0</ele><time>2026-04-29T07:02:58.245Z</time></trkpt><trkpt lat="45.5553096" lon="11.8984695"><ele>20.0</ele><time>2026-04-29T07:03:00.245Z</time></trkpt><trkpt lat="45.5553728" lon="11.8984762"><ele>20.0</ele><time>2026-04-29T07:03:02.245Z</time></trkpt><trkpt lat="45.5553126" lon="11.898418"><ele>20.166666666666668</ele><time>2026-04-29T07:03:06.244Z</time></trkpt><trkpt lat="45.5552678" lon="11.8983324"><ele>20.333333333333336</ele><time>2026-04-29T07:03:08.244Z</time></trkpt><trkpt lat="45.5552516" lon="11.8982172"><ele>20.5</ele><time>2026-04-29T07:03:10.244Z</time></trkpt><trkpt lat="45.5552453" lon="11.8981208"><ele>20.666666666666668</ele><time>2026-04-29T07:03:12.244Z</time></trkpt><trkpt lat="45.5552246" lon="11.8980197"><ele>20.833333333333332</ele><time>2026-04-29T07:03:14.245Z</time></trkpt><trkpt lat="45.5551963" lon="11.8979019"><ele>21.0</ele><time>2026-04-29T07:03:16.244Z</time></trkpt><trkpt lat="45.5551604" lon="11.8977654"><ele>21.0</ele><time>2026-04-29T07:03:18.244Z</time></trkpt><trkpt lat="45.5551275" lon="11.8976094"><ele>21.0</ele><time>2026-04-29T07:03:20.244Z</time></trkpt><trkpt lat="45.5550954" lon="11.8974722"><ele>21.0</ele><time>2026-04-29T07:03:22.245Z</time></trkpt><trkpt lat="45.5550584" lon="11.8973208"><ele>21.0</ele><time>2026-04-29T07:03:24.245Z</time></trkpt><trkpt lat="45.5550241" lon="11.8971644"><ele>21.0</ele><time>2026-04-29T07:03:26.244Z</time></trkpt><trkpt lat="45.5550086" lon="11.8970761"><ele>20.833333333333332</ele><time>2026-04-29T07:03:27.245Z</time></trkpt><trkpt lat="45.5549721" lon="11.896906"><ele>20.666666666666668</ele><time>2026-04-29T07:03:29.244Z</time></trkpt><trkpt lat="45.5549548" lon="11.8968195"><ele>20.5</ele><time>2026-04-29T07:03:30.244Z</time></trkpt><trkpt lat="45.5549304" lon="11.8967332"><ele>20.333333333333336</ele><time>2026-04-29T07:03:31.245Z</time></trkpt><trkpt lat="45.5549073" lon="11.8966472"><ele>20.166666666666668</ele><time>2026-04-29T07:03:32.245Z</time></trkpt><trkpt lat="45.5548721" lon="11.8964794"><ele>20.0</ele><time>2026-04-29T07:03:34.244Z</time></trkpt><trkpt lat="45.5548521" lon="11.8963871"><ele>20.0</ele><time>2026-04-29T07:03:35.244Z</time></trkpt><trkpt lat="45.5548352" lon="11.8962985"><ele>20.0</ele><time>2026-04-29T07:03:36.244Z</time></trkpt><trkpt lat="45.5548058" lon="11.8961249"><ele>20.0</ele><time>2026-04-29T07:03:38.244Z</time></trkpt><trkpt lat="45.5547915" lon="11.8960351"><ele>20.0</ele><time>2026-04-29T07:03:39.244Z</time></trkpt><trkpt lat="45.5547631" lon="11.8958606"><ele>20.0</ele><time>2026-04-29T07:03:41.244Z</time></trkpt><trkpt lat="45.5547439" lon="11.8957667"><ele>20.0</ele><time>2026-04-29T07:03:42.244Z</time></trkpt><trkpt lat="45.5547242" lon="11.8956755"><ele>20.0</ele><time>2026-04-29T07:03:43.245Z</time></trkpt><trkpt lat="45.554706" lon="11.8955871"><ele>20.0</ele><time>2026-04-29T07:03:44.244Z</time></trkpt><trkpt lat="45.5546834" lon="11.8954924"><ele>20.0</ele><time>2026-04-29T07:03:45.244Z</time></trkpt><trkpt lat="45.554667" lon="11.8954004"><ele>20.0</ele><time>2026-04-29T07:03:46.244Z</time></trkpt><trkpt lat="45.5546364" lon="11.8952335"><ele>20.0</ele><time>2026-04-29T07:03:48.244Z</time></trkpt><trkpt lat="45.5545931" lon="11.8950733"><ele>20.0</ele><time>2026-04-29T07:03:50.245Z</time></trkpt><trkpt lat="45.5545619" lon="11.8949278"><ele>20.4</ele><time>2026-04-29T07:03:52.245Z</time></trkpt><trkpt lat="45.5545246" lon="11.8947745"><ele>20.8</ele><time>2026-04-29T07:03:54.245Z</time></trkpt><trkpt lat="45.5544841" lon="11.894613"><ele>21.200000000000003</ele><time>2026-04-29T07:03:56.244Z</time></trkpt><trkpt lat="45.554451" lon="11.8944448"><ele>21.6</ele><time>2026-04-29T07:03:58.244Z</time></trkpt><trkpt lat="45.554431" lon="11.8943578"><ele>22.0</ele><time>2026-04-29T07:03:59.244Z</time></trkpt><trkpt lat="45.5544053" lon="11.8941881"><ele>22.0</ele><time>2026-04-29T07:04:01.244Z</time></trkpt><trkpt lat="45.5543667" lon="11.8940298"><ele>22.0</ele><time>2026-04-29T07:04:03.244Z</time></trkpt><trkpt lat="45.5543232" lon="11.8938835"><ele>22.0</ele><time>2026-04-29T07:04:05.244Z</time></trkpt><trkpt lat="45.5542833" lon="11.8937159"><ele>22.0</ele><time>2026-04-29T07:04:07.244Z</time></trkpt><trkpt lat="45.5542698" lon="11.8936215"><ele>22.0</ele><time>2026-04-29T07:04:08.245Z</time></trkpt><trkpt lat="45.5542518" lon="11.8935246"><ele>22.0</ele><time>2026-04-29T07:04:09.243Z</time></trkpt><trkpt lat="45.5542383" lon="11.8934242"><ele>22.0</ele><time>2026-04-29T07:04:10.243Z</time></trkpt><trkpt lat="45.5542221" lon="11.8933266"><ele>22.0</ele><time>2026-04-29T07:04:11.243Z</time></trkpt><trkpt lat="45.5542027" lon="11.8932337"><ele>22.0</ele><time>2026-04-29T07:04:12.243Z</time></trkpt><trkpt lat="45.5541623" lon="11.8930696"><ele>22.0</ele><time>2026-04-29T07:04:14.243Z</time></trkpt><trkpt lat="45.5541248" lon="11.8929149"><ele>22.0</ele><time>2026-04-29T07:04:16.243Z</time></trkpt><trkpt lat="45.5540921" lon="11.8927643"><ele>21.8</ele><time>2026-04-29T07:04:18.244Z</time></trkpt><trkpt lat="45.5540666" lon="11.8926282"><ele>21.6</ele><time>2026-04-29T07:04:20.243Z</time></trkpt><trkpt lat="45.5540329" lon="11.8924689"><ele>21.400000000000002</ele><time>2026-04-29T07:04:22.244Z</time></trkpt><trkpt lat="45.5539995" lon="11.8922909"><ele>21.200000000000003</ele><time>2026-04-29T07:04:24.243Z</time></trkpt><trkpt lat="45.5539806" lon="11.8922027"><ele>21.0</ele><time>2026-04-29T07:04:25.243Z</time></trkpt><trkpt lat="45.5539636" lon="11.8921039"><ele>21.0</ele><time>2026-04-29T07:04:26.243Z</time></trkpt><trkpt lat="45.553943" lon="11.8920073"><ele>21.0</ele><time>2026-04-29T07:04:27.244Z</time></trkpt><trkpt lat="45.5539241" lon="11.8919162"><ele>21.0</ele><time>2026-04-29T07:04:28.243Z</time></trkpt><trkpt lat="45.5539039" lon="11.8918197"><ele>21.0</ele><time>2026-04-29T07:04:29.243Z</time></trkpt><trkpt lat="45.5538832" lon="11.8917317"><ele>21.0</ele><time>2026-04-29T07:04:30.243Z</time></trkpt><trkpt lat="45.5538656" lon="11.8916452"><ele>21.0</ele><time>2026-04-29T07:04:31.244Z</time></trkpt><trkpt lat="45.5538237" lon="11.8914716"><ele>21.166666666666668</ele><time>2026-04-29T07:04:33.243Z</time></trkpt><trkpt lat="45.5537941" lon="11.8912948"><ele>21.333333333333332</ele><time>2026-04-29T07:04:35.244Z</time></trkpt><trkpt lat="45.5537785" lon="11.8912044"><ele>21.5</ele><time>2026-04-29T07:04:36.243Z</time></trkpt><trkpt lat="45.553751" lon="11.8911107"><ele>21.666666666666664</ele><time>2026-04-29T07:04:37.243Z</time></trkpt><trkpt lat="45.5537308" lon="11.8910206"><ele>21.833333333333332</ele><time>2026-04-29T07:04:38.243Z</time></trkpt><trkpt lat="45.5537088" lon="11.8909288"><ele>22.0</ele><time>2026-04-29T07:04:39.244Z</time></trkpt><trkpt lat="45.5536863" lon="11.8908428"><ele>22.0</ele><time>2026-04-29T07:04:40.243Z</time></trkpt><trkpt lat="45.5536695" lon="11.890753"><ele>22.0</ele><time>2026-04-29T07:04:41.243Z</time></trkpt><trkpt lat="45.553649" lon="11.8906637"><ele>22.0</ele><time>2026-04-29T07:04:42.244Z</time></trkpt><trkpt lat="45.5536294" lon="11.8905707"><ele>22.0</ele><time>2026-04-29T07:04:43.243Z</time></trkpt><trkpt lat="45.5536047" lon="11.8904753"><ele>22.0</ele><time>2026-04-29T07:04:44.243Z</time></trkpt><trkpt lat="45.5535858" lon="11.8903892"><ele>22.0</ele><time>2026-04-29T07:04:45.243Z</time></trkpt><trkpt lat="45.5535643" lon="11.8903004"><ele>22.0</ele><time>2026-04-29T07:04:46.243Z</time></trkpt><trkpt lat="45.5535255" lon="11.8901277"><ele>21.666666666666664</ele><time>2026-04-29T07:04:48.244Z</time></trkpt><trkpt lat="45.5535024" lon="11.8900373"><ele>21.333333333333332</ele><time>2026-04-29T07:04:49.243Z</time></trkpt><trkpt lat="45.553484" lon="11.8899492"><ele>21.0</ele><time>2026-04-29T07:04:50.244Z</time></trkpt><trkpt lat="45.5534552" lon="11.8897764"><ele>20.666666666666668</ele><time>2026-04-29T07:04:52.243Z</time></trkpt><trkpt lat="45.5534396" lon="11.8896852"><ele>20.333333333333336</ele><time>2026-04-29T07:04:53.243Z</time></trkpt><trkpt lat="45.5534233" lon="11.8895836"><ele>20.0</ele><time>2026-04-29T07:04:54.243Z</time></trkpt><trkpt lat="45.553406" lon="11.889493"><ele>20.0</ele><time>2026-04-29T07:04:55.243Z</time></trkpt><trkpt lat="45.5533864" lon="11.8894033"><ele>20.0</ele><time>2026-04-29T07:04:56.243Z</time></trkpt><trkpt lat="45.5533633" lon="11.8893141"><ele>20.0</ele><time>2026-04-29T07:04:57.243Z</time></trkpt><trkpt lat="45.5533408" lon="11.8892184"><ele>20.0</ele><time>2026-04-29T07:04:58.243Z</time></trkpt><trkpt lat="45.5533226" lon="11.8891259"><ele>20.0</ele><time>2026-04-29T07:04:59.243Z</time></trkpt><trkpt lat="45.5533035" lon="11.8890376"><ele>20.0</ele><time>2026-04-29T07:05:00.244Z</time></trkpt><trkpt lat="45.5532707" lon="11.8888586"><ele>20.25</ele><time>2026-04-29T07:05:02.243Z</time></trkpt><trkpt lat="45.5532426" lon="11.8886995"><ele>20.5</ele><time>2026-04-29T07:05:04.243Z</time></trkpt><trkpt lat="45.5532142" lon="11.8885299"><ele>20.75</ele><time>2026-04-29T07:05:06.243Z</time></trkpt><trkpt lat="45.5531787" lon="11.8883662"><ele>21.0</ele><time>2026-04-29T07:05:08.244Z</time></trkpt><trkpt lat="45.5531406" lon="11.8882114"><ele>21.0</ele><time>2026-04-29T07:05:10.243Z</time></trkpt><trkpt lat="45.5530965" lon="11.8880515"><ele>21.0</ele><time>2026-04-29T07:05:12.243Z</time></trkpt><trkpt lat="45.5530627" lon="11.8879012"><ele>21.0</ele><time>2026-04-29T07:05:14.243Z</time></trkpt><trkpt lat="45.5530285" lon="11.8877424"><ele>21.0</ele><time>2026-04-29T07:05:16.243Z</time></trkpt><trkpt lat="45.5530036" lon="11.8876226"><ele>21.0</ele><time>2026-04-29T07:05:18.243Z</time></trkpt><trkpt lat="45.5530022" lon="11.8875279"><ele>21.0</ele><time>2026-04-29T07:05:20.243Z</time></trkpt><trkpt lat="45.552971" lon="11.8874113"><ele>21.0</ele><time>2026-04-29T07:05:22.244Z</time></trkpt><trkpt lat="45.5529241" lon="11.8872697"><ele>21.0</ele><time>2026-04-29T07:05:24.243Z</time></trkpt><trkpt lat="45.552887" lon="11.887125"><ele>21.0</ele><time>2026-04-29T07:05:26.243Z</time></trkpt><trkpt lat="45.5528638" lon="11.8869729"><ele>21.0</ele><time>2026-04-29T07:05:28.243Z</time></trkpt><trkpt lat="45.5528375" lon="11.8868219"><ele>20.8</ele><time>2026-04-29T07:05:30.243Z</time></trkpt><trkpt lat="45.552801" lon="11.8866763"><ele>20.6</ele><time>2026-04-29T07:05:32.243Z</time></trkpt><trkpt lat="45.5527655" lon="11.8865158"><ele>20.4</ele><time>2026-04-29T07:05:34.243Z</time></trkpt><trkpt lat="45.5527464" lon="11.8864285"><ele>20.2</ele><time>2026-04-29T07:05:35.243Z</time></trkpt><trkpt lat="45.552711" lon="11.8862733"><ele>20.0</ele><time>2026-04-29T07:05:37.243Z</time></trkpt><trkpt lat="45.5526778" lon="11.8861044"><ele>20.0</ele><time>2026-04-29T07:05:39.244Z</time></trkpt><trkpt lat="45.5526452" lon="11.8859399"><ele>20.0</ele><time>2026-04-29T07:05:41.243Z</time></trkpt><trkpt lat="45.5526284" lon="11.8858518"><ele>20.0</ele><time>2026-04-29T07:05:42.243Z</time></trkpt><trkpt lat="45.5526087" lon="11.8857648"><ele>20.0</ele><time>2026-04-29T07:05:43.243Z</time></trkpt><trkpt lat="45.5525901" lon="11.885677"><ele>20.0</ele><time>2026-04-29T07:05:44.244Z</time></trkpt><trkpt lat="45.5525687" lon="11.8855896"><ele>20.0</ele><time>2026-04-29T07:05:45.244Z</time></trkpt><trkpt lat="45.5525388" lon="11.8854158"><ele>20.166666666666668</ele><time>2026-04-29T07:05:47.244Z</time></trkpt><trkpt lat="45.5525181" lon="11.8853298"><ele>20.333333333333336</ele><time>2026-04-29T07:05:48.244Z</time></trkpt><trkpt lat="45.5524976" lon="11.8852448"><ele>20.5</ele><time>2026-04-29T07:05:49.243Z</time></trkpt><trkpt lat="45.5524623" lon="11.8850727"><ele>20.666666666666668</ele><time>2026-04-29T07:05:51.243Z</time></trkpt><trkpt lat="45.5524364" lon="11.8849797"><ele>20.833333333333332</ele><time>2026-04-29T07:05:52.243Z</time></trkpt><trkpt lat="45.5524171" lon="11.8848907"><ele>21.0</ele><time>2026-04-29T07:05:53.243Z</time></trkpt><trkpt lat="45.5523969" lon="11.8848048"><ele>21.0</ele><time>2026-04-29T07:05:54.243Z</time></trkpt><trkpt lat="45.5523643" lon="11.8846355"><ele>21.0</ele><time>2026-04-29T07:05:56.243Z</time></trkpt><trkpt lat="45.5523325" lon="11.8844667"><ele>21.0</ele><time>2026-04-29T07:05:58.243Z</time></trkpt><trkpt lat="45.5523136" lon="11.8843807"><ele>21.0</ele><time>2026-04-29T07:05:59.243Z</time></trkpt><trkpt lat="45.5523005" lon="11.8842922"><ele>21.0</ele><time>2026-04-29T07:06:00.243Z</time></trkpt><trkpt lat="45.5522628" lon="11.8841243"><ele>21.166666666666668</ele><time>2026-04-29T07:06:02.243Z</time></trkpt><trkpt lat="45.552242" lon="11.884037"><ele>21.333333333333332</ele><time>2026-04-29T07:06:03.243Z</time></trkpt><trkpt lat="45.552221" lon="11.8839411"><ele>21.5</ele><time>2026-04-29T07:06:04.243Z</time></trkpt><trkpt lat="45.5521849" lon="11.8837668"><ele>21.666666666666664</ele><time>2026-04-29T07:06:06.244Z</time></trkpt><trkpt lat="45.5521531" lon="11.8836019"><ele>21.833333333333332</ele><time>2026-04-29T07:06:08.243Z</time></trkpt><trkpt lat="45.5521323" lon="11.883511"><ele>22.0</ele><time>2026-04-29T07:06:09.243Z</time></trkpt><trkpt lat="45.5521129" lon="11.8834203"><ele>22.0</ele><time>2026-04-29T07:06:10.244Z</time></trkpt><trkpt lat="45.5520928" lon="11.883334"><ele>22.0</ele><time>2026-04-29T07:06:11.243Z</time></trkpt><trkpt lat="45.5520741" lon="11.8832419"><ele>22.0</ele><time>2026-04-29T07:06:12.243Z</time></trkpt><trkpt lat="45.5520394" lon="11.883068"><ele>22.0</ele><time>2026-04-29T07:06:14.244Z</time></trkpt><trkpt lat="45.5520078" lon="11.8829038"><ele>22.0</ele><time>2026-04-29T07:06:16.244Z</time></trkpt><trkpt lat="45.5519901" lon="11.8828173"><ele>22.0</ele><time>2026-04-29T07:06:17.243Z</time></trkpt><trkpt lat="45.5519702" lon="11.8827282"><ele>22.0</ele><time>2026-04-29T07:06:18.244Z</time></trkpt><trkpt lat="45.551936" lon="11.8825596"><ele>22.0</ele><time>2026-04-29T07:06:20.244Z</time></trkpt><trkpt lat="45.5518998" lon="11.8823948"><ele>22.0</ele><time>2026-04-29T07:06:22.243Z</time></trkpt><trkpt lat="45.5518635" lon="11.8822265"><ele>22.0</ele><time>2026-04-29T07:06:24.244Z</time></trkpt><trkpt lat="45.5518288" lon="11.8820664"><ele>22.0</ele><time>2026-04-29T07:06:26.243Z</time></trkpt><trkpt lat="45.5518021" lon="11.8819004"><ele>22.0</ele><time>2026-04-29T07:06:28.244Z</time></trkpt><trkpt lat="45.5517642" lon="11.8817459"><ele>22.0</ele><time>2026-04-29T07:06:30.244Z</time></trkpt><trkpt lat="45.5517355" lon="11.8816155"><ele>22.0</ele><time>2026-04-29T07:06:32.243Z</time></trkpt><trkpt lat="45.5516972" lon="11.8814912"><ele>22.0</ele><time>2026-04-29T07:06:34.243Z</time></trkpt><trkpt lat="45.5516742" lon="11.8813736"><ele>22.0</ele><time>2026-04-29T07:06:36.243Z</time></trkpt><trkpt lat="45.551656" lon="11.8812366"><ele>22.0</ele><time>2026-04-29T07:06:38.243Z</time></trkpt><trkpt lat="45.5516515" lon="11.8811378"><ele>22.0</ele><time>2026-04-29T07:06:41.243Z</time></trkpt><trkpt lat="45.5516067" lon="11.8810173"><ele>22.0</ele><time>2026-04-29T07:06:44.243Z</time></trkpt><trkpt lat="45.5515889" lon="11.8808909"><ele>22.0</ele><time>2026-04-29T07:06:46.244Z</time></trkpt><trkpt lat="45.5515662" lon="11.8807764"><ele>22.0</ele><time>2026-04-29T07:06:48.243Z</time></trkpt><trkpt lat="45.5515341" lon="11.8806629"><ele>22.0</ele><time>2026-04-29T07:06:50.244Z</time></trkpt><trkpt lat="45.5515134" lon="11.8805464"><ele>22.0</ele><time>2026-04-29T07:06:52.243Z</time></trkpt><trkpt lat="45.5514811" lon="11.8804102"><ele>22.0</ele><time>2026-04-29T07:06:54.244Z</time></trkpt><trkpt lat="45.5514434" lon="11.8802787"><ele>22.0</ele><time>2026-04-29T07:06:56.243Z</time></trkpt><trkpt lat="45.5514102" lon="11.8801486"><ele>22.0</ele><time>2026-04-29T07:06:58.244Z</time></trkpt><trkpt lat="45.5513916" lon="11.8800164"><ele>22.0</ele><time>2026-04-29T07:07:00.243Z</time></trkpt><trkpt lat="45.5513639" lon="11.8798842"><ele>22.0</ele><time>2026-04-29T07:07:02.244Z</time></trkpt><trkpt lat="45.5513361" lon="11.8797559"><ele>22.0</ele><time>2026-04-29T07:07:04.243Z</time></trkpt><trkpt lat="45.5513035" lon="11.8796181"><ele>22.0</ele><time>2026-04-29T07:07:06.243Z</time></trkpt><trkpt lat="45.5512702" lon="11.8794712"><ele>22.0</ele><time>2026-04-29T07:07:08.243Z</time></trkpt><trkpt lat="45.5512375" lon="11.8793151"><ele>21.75</ele><time>2026-04-29T07:07:10.244Z</time></trkpt><trkpt lat="45.5512032" lon="11.8791599"><ele>21.5</ele><time>2026-04-29T07:07:12.244Z</time></trkpt><trkpt lat="45.5511759" lon="11.8789909"><ele>21.25</ele><time>2026-04-29T07:07:14.243Z</time></trkpt><trkpt lat="45.5511478" lon="11.8788307"><ele>21.0</ele><time>2026-04-29T07:07:16.243Z</time></trkpt><trkpt lat="45.5511288" lon="11.8786749"><ele>21.0</ele><time>2026-04-29T07:07:18.244Z</time></trkpt><trkpt lat="45.5510969" lon="11.8785327"><ele>21.0</ele><time>2026-04-29T07:07:20.243Z</time></trkpt><trkpt lat="45.5510637" lon="11.8783821"><ele>21.0</ele><time>2026-04-29T07:07:22.243Z</time></trkpt><trkpt lat="45.5510368" lon="11.8782269"><ele>21.0</ele><time>2026-04-29T07:07:24.243Z</time></trkpt><trkpt lat="45.5510113" lon="11.878079"><ele>21.0</ele><time>2026-04-29T07:07:26.243Z</time></trkpt><trkpt lat="45.5509767" lon="11.8778962"><ele>21.200000000000003</ele><time>2026-04-29T07:07:28.244Z</time></trkpt><trkpt lat="45.5509439" lon="11.8777279"><ele>21.400000000000002</ele><time>2026-04-29T07:07:30.244Z</time></trkpt><trkpt lat="45.5509191" lon="11.8775473"><ele>21.6</ele><time>2026-04-29T07:07:32.243Z</time></trkpt><trkpt lat="45.5509052" lon="11.8774494"><ele>21.8</ele><time>2026-04-29T07:07:33.243Z</time></trkpt><trkpt lat="45.55089" lon="11.8773527"><ele>22.0</ele><time>2026-04-29T07:07:34.243Z</time></trkpt><trkpt lat="45.5508684" lon="11.8772553"><ele>22.142857142857142</ele><time>2026-04-29T07:07:35.243Z</time></trkpt><trkpt lat="45.5508496" lon="11.8771607"><ele>22.285714285714285</ele><time>2026-04-29T07:07:36.244Z</time></trkpt><trkpt lat="45.5508343" lon="11.8770669"><ele>22.42857142857143</ele><time>2026-04-29T07:07:37.244Z</time></trkpt><trkpt lat="45.550822" lon="11.8769754"><ele>22.57142857142857</ele><time>2026-04-29T07:07:38.243Z</time></trkpt><trkpt lat="45.5508077" lon="11.8768845"><ele>22.71428571428571</ele><time>2026-04-29T07:07:39.243Z</time></trkpt><trkpt lat="45.550792" lon="11.8767937"><ele>22.857142857142858</ele><time>2026-04-29T07:07:40.243Z</time></trkpt><trkpt lat="45.5507749" lon="11.8767056"><ele>23.0</ele><time>2026-04-29T07:07:41.243Z</time></trkpt><trkpt lat="45.5507615" lon="11.8766126"><ele>22.714285714285715</ele><time>2026-04-29T07:07:42.243Z</time></trkpt><trkpt lat="45.5507463" lon="11.8765243"><ele>22.428571428571427</ele><time>2026-04-29T07:07:43.244Z</time></trkpt><trkpt lat="45.5507412" lon="11.876432"><ele>22.142857142857142</ele><time>2026-04-29T07:07:44.244Z</time></trkpt><trkpt lat="45.5507259" lon="11.8763297"><ele>21.857142857142858</ele><time>2026-04-29T07:07:45.244Z</time></trkpt><trkpt lat="45.5507134" lon="11.8762322"><ele>21.57142857142857</ele><time>2026-04-29T07:07:46.243Z</time></trkpt><trkpt lat="45.5506943" lon="11.8761376"><ele>21.285714285714285</ele><time>2026-04-29T07:07:47.243Z</time></trkpt><trkpt lat="45.5506788" lon="11.8760427"><ele>21.0</ele><time>2026-04-29T07:07:48.243Z</time></trkpt><trkpt lat="45.5506599" lon="11.875947"><ele>21.0</ele><time>2026-04-29T07:07:49.243Z</time></trkpt><trkpt lat="45.5506413" lon="11.8758557"><ele>21.0</ele><time>2026-04-29T07:07:50.243Z</time></trkpt><trkpt lat="45.5506181" lon="11.8757643"><ele>21.0</ele><time>2026-04-29T07:07:51.243Z</time></trkpt><trkpt lat="45.5506025" lon="11.8756711"><ele>21.0</ele><time>2026-04-29T07:07:52.243Z</time></trkpt><trkpt lat="45.5505858" lon="11.8755761"><ele>21.0</ele><time>2026-04-29T07:07:53.243Z</time></trkpt><trkpt lat="45.5505723" lon="11.8754882"><ele>21.0</ele><time>2026-04-29T07:07:54.243Z</time></trkpt><trkpt lat="45.5505541" lon="11.8753978"><ele>21.0</ele><time>2026-04-29T07:07:55.243Z</time></trkpt><trkpt lat="45.5505407" lon="11.8753069"><ele>21.0</ele><time>2026-04-29T07:07:56.243Z</time></trkpt><trkpt lat="45.5505234" lon="11.8752144"><ele>21.0</ele><time>2026-04-29T07:07:57.243Z</time></trkpt><trkpt lat="45.5504895" lon="11.8750413"><ele>21.0</ele><time>2026-04-29T07:07:59.243Z</time></trkpt><trkpt lat="45.5504517" lon="11.8748875"><ele>21.0</ele><time>2026-04-29T07:08:01.243Z</time></trkpt><trkpt lat="45.5504071" lon="11.8747128"><ele>21.0</ele><time>2026-04-29T07:08:03.243Z</time></trkpt><trkpt lat="45.5503937" lon="11.8746213"><ele>21.0</ele><time>2026-04-29T07:08:04.243Z</time></trkpt><trkpt lat="45.5503918" lon="11.8745294"><ele>21.0</ele><time>2026-04-29T07:08:05.243Z</time></trkpt><trkpt lat="45.5503766" lon="11.8743515"><ele>21.0</ele><time>2026-04-29T07:08:07.243Z</time></trkpt><trkpt lat="45.5503645" lon="11.8742619"><ele>21.0</ele><time>2026-04-29T07:08:08.243Z</time></trkpt><trkpt lat="45.5503343" lon="11.8741014"><ele>21.0</ele><time>2026-04-29T07:08:10.243Z</time></trkpt><trkpt lat="45.5503021" lon="11.8739529"><ele>21.0</ele><time>2026-04-29T07:08:12.243Z</time></trkpt><trkpt lat="45.5502781" lon="11.8738092"><ele>21.0</ele><time>2026-04-29T07:08:14.243Z</time></trkpt><trkpt lat="45.5502602" lon="11.8736648"><ele>21.0</ele><time>2026-04-29T07:08:16.243Z</time></trkpt><trkpt lat="45.5502325" lon="11.8735192"><ele>21.0</ele><time>2026-04-29T07:08:18.243Z</time></trkpt><trkpt lat="45.5502064" lon="11.8734035"><ele>21.0</ele><time>2026-04-29T07:08:20.244Z</time></trkpt><trkpt lat="45.5501512" lon="11.8733388"><ele>21.0</ele><time>2026-04-29T07:08:23.244Z</time></trkpt><trkpt lat="45.550073" lon="11.8733745"><ele>21.0</ele><time>2026-04-29T07:08:26.244Z</time></trkpt><trkpt lat="45.5500058" lon="11.8733812"><ele>21.0</ele><time>2026-04-29T07:08:30.243Z</time></trkpt><trkpt lat="45.5499971" lon="11.8732857"><ele>21.0</ele><time>2026-04-29T07:08:36.244Z</time></trkpt><trkpt lat="45.5500598" lon="11.8732243"><ele>21.0</ele><time>2026-04-29T07:08:39.243Z</time></trkpt><trkpt lat="45.5501526" lon="11.8732072"><ele>21.0</ele><time>2026-04-29T07:08:42.244Z</time></trkpt><trkpt lat="45.5501707" lon="11.8731119"><ele>21.0</ele><time>2026-04-29T07:08:46.243Z</time></trkpt><trkpt lat="45.550145" lon="11.8730246"><ele>21.0</ele><time>2026-04-29T07:08:48.243Z</time></trkpt><trkpt lat="45.5501291" lon="11.8728955"><ele>21.0</ele><time>2026-04-29T07:08:51.243Z</time></trkpt><trkpt lat="45.5501162" lon="11.8727746"><ele>21.0</ele><time>2026-04-29T07:08:53.243Z</time></trkpt><trkpt lat="45.5501028" lon="11.872652"><ele>21.0</ele><time>2026-04-29T07:08:55.244Z</time></trkpt><trkpt lat="45.5500743" lon="11.8725169"><ele>21.0</ele><time>2026-04-29T07:08:57.243Z</time></trkpt><trkpt lat="45.5500514" lon="11.8723604"><ele>20.8</ele><time>2026-04-29T07:08:59.243Z</time></trkpt><trkpt lat="45.5500191" lon="11.8722096"><ele>20.6</ele><time>2026-04-29T07:09:01.242Z</time></trkpt><trkpt lat="45.5499915" lon="11.8720428"><ele>20.4</ele><time>2026-04-29T07:09:03.243Z</time></trkpt><trkpt lat="45.5499743" lon="11.8719496"><ele>20.2</ele><time>2026-04-29T07:09:04.243Z</time></trkpt><trkpt lat="45.5499456" lon="11.8717783"><ele>20.0</ele><time>2026-04-29T07:09:06.242Z</time></trkpt><trkpt lat="45.5499262" lon="11.8716801"><ele>20.0</ele><time>2026-04-29T07:09:07.242Z</time></trkpt><trkpt lat="45.5498999" lon="11.8715092"><ele>20.0</ele><time>2026-04-29T07:09:09.242Z</time></trkpt><trkpt lat="45.5498872" lon="11.8714186"><ele>20.0</ele><time>2026-04-29T07:09:10.243Z</time></trkpt><trkpt lat="45.5498697" lon="11.8713301"><ele>20.0</ele><time>2026-04-29T07:09:11.243Z</time></trkpt><trkpt lat="45.5498571" lon="11.8712405"><ele>20.0</ele><time>2026-04-29T07:09:12.243Z</time></trkpt><trkpt lat="45.5498454" lon="11.8711456"><ele>20.0</ele><time>2026-04-29T07:09:13.243Z</time></trkpt><trkpt lat="45.5498138" lon="11.8709783"><ele>20.285714285714285</ele><time>2026-04-29T07:09:15.242Z</time></trkpt><trkpt lat="45.5497954" lon="11.8708886"><ele>20.571428571428573</ele><time>2026-04-29T07:09:16.242Z</time></trkpt><trkpt lat="45.5497757" lon="11.8707959"><ele>20.857142857142858</ele><time>2026-04-29T07:09:17.243Z</time></trkpt><trkpt lat="45.5497569" lon="11.8707043"><ele>21.142857142857142</ele><time>2026-04-29T07:09:18.243Z</time></trkpt><trkpt lat="45.549737" lon="11.8706041"><ele>21.428571428571427</ele><time>2026-04-29T07:09:19.242Z</time></trkpt><trkpt lat="45.5497198" lon="11.8705083"><ele>21.714285714285715</ele><time>2026-04-29T07:09:20.242Z</time></trkpt><trkpt lat="45.5497039" lon="11.8704141"><ele>22.0</ele><time>2026-04-29T07:09:21.242Z</time></trkpt><trkpt lat="45.5496873" lon="11.8703183"><ele>22.0</ele><time>2026-04-29T07:09:22.243Z</time></trkpt><trkpt lat="45.5496723" lon="11.8702251"><ele>22.0</ele><time>2026-04-29T07:09:23.243Z</time></trkpt><trkpt lat="45.5496606" lon="11.8701313"><ele>22.0</ele><time>2026-04-29T07:09:24.242Z</time></trkpt><trkpt lat="45.5496492" lon="11.8700362"><ele>22.0</ele><time>2026-04-29T07:09:25.242Z</time></trkpt><trkpt lat="45.54962" lon="11.869861"><ele>22.0</ele><time>2026-04-29T07:09:27.243Z</time></trkpt><trkpt lat="45.5496016" lon="11.8697592"><ele>22.0</ele><time>2026-04-29T07:09:28.242Z</time></trkpt><trkpt lat="45.5495865" lon="11.8696639"><ele>22.0</ele><time>2026-04-29T07:09:29.242Z</time></trkpt><trkpt lat="45.5495672" lon="11.8694846"><ele>22.0</ele><time>2026-04-29T07:09:31.243Z</time></trkpt><trkpt lat="45.5495522" lon="11.8693906"><ele>22.0</ele><time>2026-04-29T07:09:32.242Z</time></trkpt><trkpt lat="45.5495365" lon="11.8693031"><ele>22.0</ele><time>2026-04-29T07:09:33.242Z</time></trkpt><trkpt lat="45.5495199" lon="11.8692087"><ele>22.0</ele><time>2026-04-29T07:09:34.243Z</time></trkpt><trkpt lat="45.5494985" lon="11.8691138"><ele>22.0</ele><time>2026-04-29T07:09:35.242Z</time></trkpt><trkpt lat="45.549482" lon="11.8690172"><ele>22.0</ele><time>2026-04-29T07:09:36.242Z</time></trkpt><trkpt lat="45.5494628" lon="11.8689222"><ele>22.0</ele><time>2026-04-29T07:09:37.242Z</time></trkpt><trkpt lat="45.5494444" lon="11.868828"><ele>22.0</ele><time>2026-04-29T07:09:38.242Z</time></trkpt><trkpt lat="45.5494201" lon="11.8686528"><ele>22.0</ele><time>2026-04-29T07:09:40.242Z</time></trkpt><trkpt lat="45.5494106" lon="11.8685612"><ele>22.0</ele><time>2026-04-29T07:09:41.242Z</time></trkpt><trkpt lat="45.5493945" lon="11.8684726"><ele>22.0</ele><time>2026-04-29T07:09:42.243Z</time></trkpt><trkpt lat="45.5493749" lon="11.8683696"><ele>21.8</ele><time>2026-04-29T07:09:43.242Z</time></trkpt><trkpt lat="45.5493567" lon="11.8682775"><ele>21.6</ele><time>2026-04-29T07:09:44.242Z</time></trkpt><trkpt lat="45.5493297" lon="11.8681017"><ele>21.400000000000002</ele><time>2026-04-29T07:09:46.243Z</time></trkpt><trkpt lat="45.5493187" lon="11.8680131"><ele>21.200000000000003</ele><time>2026-04-29T07:09:47.242Z</time></trkpt><trkpt lat="45.5492864" lon="11.8678382"><ele>21.0</ele><time>2026-04-29T07:09:49.243Z</time></trkpt><trkpt lat="45.5492501" lon="11.8676705"><ele>21.200000000000003</ele><time>2026-04-29T07:09:51.242Z</time></trkpt><trkpt lat="45.5492341" lon="11.8675827"><ele>21.400000000000002</ele><time>2026-04-29T07:09:52.242Z</time></trkpt><trkpt lat="45.5492182" lon="11.8674941"><ele>21.6</ele><time>2026-04-29T07:09:53.242Z</time></trkpt><trkpt lat="45.549196" lon="11.8673385"><ele>21.8</ele><time>2026-04-29T07:09:55.242Z</time></trkpt><trkpt lat="45.549172" lon="11.8671791"><ele>22.0</ele><time>2026-04-29T07:09:57.243Z</time></trkpt><trkpt lat="45.5491416" lon="11.8670358"><ele>22.0</ele><time>2026-04-29T07:09:59.242Z</time></trkpt><trkpt lat="45.5491237" lon="11.8668846"><ele>22.0</ele><time>2026-04-29T07:10:01.242Z</time></trkpt><trkpt lat="45.5491003" lon="11.8667448"><ele>22.0</ele><time>2026-04-29T07:10:03.242Z</time></trkpt><trkpt lat="45.5490622" lon="11.8666036"><ele>22.0</ele><time>2026-04-29T07:10:05.242Z</time></trkpt><trkpt lat="45.5490357" lon="11.8664706"><ele>22.0</ele><time>2026-04-29T07:10:07.242Z</time></trkpt><trkpt lat="45.5490167" lon="11.8663736"><ele>22.166666666666664</ele><time>2026-04-29T07:10:09.242Z</time></trkpt><trkpt lat="45.5489779" lon="11.8662459"><ele>22.333333333333332</ele><time>2026-04-29T07:10:12.242Z</time></trkpt><trkpt lat="45.5489596" lon="11.8661319"><ele>22.5</ele><time>2026-04-29T07:10:14.246Z</time></trkpt><trkpt lat="45.5489514" lon="11.8659963"><ele>22.666666666666668</ele><time>2026-04-29T07:10:16.246Z</time></trkpt><trkpt lat="45.5489462" lon="11.8658693"><ele>22.833333333333336</ele><time>2026-04-29T07:10:18.247Z</time></trkpt><trkpt lat="45.5489238" lon="11.8657611"><ele>23.0</ele><time>2026-04-29T07:10:20.246Z</time></trkpt><trkpt lat="45.548892" lon="11.8656267"><ele>23.2</ele><time>2026-04-29T07:10:22.246Z</time></trkpt><trkpt lat="45.5488606" lon="11.8654753"><ele>23.4</ele><time>2026-04-29T07:10:24.246Z</time></trkpt><trkpt lat="45.5488285" lon="11.8653268"><ele>23.599999999999998</ele><time>2026-04-29T07:10:26.246Z</time></trkpt><trkpt lat="45.5488018" lon="11.8651584"><ele>23.799999999999997</ele><time>2026-04-29T07:10:28.246Z</time></trkpt><trkpt lat="45.5487934" lon="11.8650546"><ele>24.0</ele><time>2026-04-29T07:10:29.246Z</time></trkpt><trkpt lat="45.5487782" lon="11.8649663"><ele>24.0</ele><time>2026-04-29T07:10:30.246Z</time></trkpt><trkpt lat="45.5487684" lon="11.8648734"><ele>24.0</ele><time>2026-04-29T07:10:31.246Z</time></trkpt><trkpt lat="45.548756" lon="11.8647804"><ele>24.0</ele><time>2026-04-29T07:10:32.246Z</time></trkpt><trkpt lat="45.5487296" lon="11.8646065"><ele>24.0</ele><time>2026-04-29T07:10:34.247Z</time></trkpt><trkpt lat="45.5487099" lon="11.8645108"><ele>24.0</ele><time>2026-04-29T07:10:35.247Z</time></trkpt><trkpt lat="45.5486972" lon="11.8644209"><ele>24.0</ele><time>2026-04-29T07:10:36.246Z</time></trkpt><trkpt lat="45.5486656" lon="11.8642388"><ele>23.666666666666668</ele><time>2026-04-29T07:10:38.246Z</time></trkpt><trkpt lat="45.5486478" lon="11.8641514"><ele>23.333333333333332</ele><time>2026-04-29T07:10:39.246Z</time></trkpt><trkpt lat="45.548637" lon="11.8640609"><ele>23.0</ele><time>2026-04-29T07:10:40.246Z</time></trkpt><trkpt lat="45.5486304" lon="11.86397"><ele>22.666666666666664</ele><time>2026-04-29T07:10:41.246Z</time></trkpt><trkpt lat="45.5486148" lon="11.8637803"><ele>22.333333333333332</ele><time>2026-04-29T07:10:43.247Z</time></trkpt><trkpt lat="45.5486043" lon="11.8636808"><ele>22.0</ele><time>2026-04-29T07:10:44.246Z</time></trkpt><trkpt lat="45.5485882" lon="11.8635792"><ele>22.0</ele><time>2026-04-29T07:10:45.246Z</time></trkpt><trkpt lat="45.5485751" lon="11.8634774"><ele>22.0</ele><time>2026-04-29T07:10:46.247Z</time></trkpt><trkpt lat="45.5485588" lon="11.8633842"><ele>22.0</ele><time>2026-04-29T07:10:47.247Z</time></trkpt><trkpt lat="45.548541" lon="11.8632844"><ele>22.0</ele><time>2026-04-29T07:10:48.246Z</time></trkpt><trkpt lat="45.5485267" lon="11.8631893"><ele>22.0</ele><time>2026-04-29T07:10:49.246Z</time></trkpt><trkpt lat="45.5485134" lon="11.8630867"><ele>22.0</ele><time>2026-04-29T07:10:50.246Z</time></trkpt><trkpt lat="45.5485059" lon="11.8629946"><ele>22.0</ele><time>2026-04-29T07:10:51.246Z</time></trkpt><trkpt lat="45.5484946" lon="11.8629014"><ele>22.142857142857142</ele><time>2026-04-29T07:10:52.247Z</time></trkpt><trkpt lat="45.5484796" lon="11.8628054"><ele>22.285714285714285</ele><time>2026-04-29T07:10:53.246Z</time></trkpt><trkpt lat="45.5484634" lon="11.862703"><ele>22.42857142857143</ele><time>2026-04-29T07:10:54.246Z</time></trkpt><trkpt lat="45.5484492" lon="11.8626047"><ele>22.57142857142857</ele><time>2026-04-29T07:10:55.246Z</time></trkpt><trkpt lat="45.5484341" lon="11.8625013"><ele>22.71428571428571</ele><time>2026-04-29T07:10:56.247Z</time></trkpt><trkpt lat="45.5484144" lon="11.8624032"><ele>22.857142857142858</ele><time>2026-04-29T07:10:57.246Z</time></trkpt><trkpt lat="45.5483993" lon="11.8623038"><ele>23.0</ele><time>2026-04-29T07:10:58.246Z</time></trkpt><trkpt lat="45.5483871" lon="11.8621937"><ele>23.0</ele><time>2026-04-29T07:10:59.246Z</time></trkpt><trkpt lat="45.5483737" lon="11.8620917"><ele>23.0</ele><time>2026-04-29T07:11:00.247Z</time></trkpt><trkpt lat="45.5483583" lon="11.8619935"><ele>23.0</ele><time>2026-04-29T07:11:01.246Z</time></trkpt><trkpt lat="45.5483366" lon="11.8618937"><ele>23.0</ele><time>2026-04-29T07:11:02.246Z</time></trkpt><trkpt lat="45.5483118" lon="11.8617879"><ele>23.0</ele><time>2026-04-29T07:11:03.246Z</time></trkpt><trkpt lat="45.5482929" lon="11.8616949"><ele>23.0</ele><time>2026-04-29T07:11:04.246Z</time></trkpt><trkpt lat="45.5482717" lon="11.8616074"><ele>23.0</ele><time>2026-04-29T07:11:05.246Z</time></trkpt><trkpt lat="45.5482512" lon="11.8615064"><ele>23.0</ele><time>2026-04-29T07:11:06.246Z</time></trkpt><trkpt lat="45.5482346" lon="11.861394"><ele>23.0</ele><time>2026-04-29T07:11:07.246Z</time></trkpt><trkpt lat="45.5482219" lon="11.8612798"><ele>23.0</ele><time>2026-04-29T07:11:08.247Z</time></trkpt><trkpt lat="45.5482152" lon="11.8611728"><ele>23.0</ele><time>2026-04-29T07:11:09.246Z</time></trkpt><trkpt lat="45.5482052" lon="11.8610702"><ele>23.0</ele><time>2026-04-29T07:11:10.246Z</time></trkpt><trkpt lat="45.5481869" lon="11.8609637"><ele>23.0</ele><time>2026-04-29T07:11:11.247Z</time></trkpt><trkpt lat="45.5481718" lon="11.8608717"><ele>22.857142857142858</ele><time>2026-04-29T07:11:12.247Z</time></trkpt><trkpt lat="45.5481608" lon="11.8607663"><ele>22.71428571428571</ele><time>2026-04-29T07:11:13.247Z</time></trkpt><trkpt lat="45.5481346" lon="11.8606659"><ele>22.57142857142857</ele><time>2026-04-29T07:11:14.246Z</time></trkpt><trkpt lat="45.5481079" lon="11.8605668"><ele>22.42857142857143</ele><time>2026-04-29T07:11:15.246Z</time></trkpt><trkpt lat="45.5480906" lon="11.8604673"><ele>22.285714285714285</ele><time>2026-04-29T07:11:16.247Z</time></trkpt><trkpt lat="45.5480756" lon="11.860372"><ele>22.142857142857142</ele><time>2026-04-29T07:11:17.247Z</time></trkpt><trkpt lat="45.5480573" lon="11.8602713"><ele>22.0</ele><time>2026-04-29T07:11:18.246Z</time></trkpt><trkpt lat="45.5480424" lon="11.8601705"><ele>22.142857142857142</ele><time>2026-04-29T07:11:19.246Z</time></trkpt><trkpt lat="45.5480265" lon="11.8600625"><ele>22.285714285714285</ele><time>2026-04-29T07:11:20.246Z</time></trkpt><trkpt lat="45.5480122" lon="11.8599657"><ele>22.42857142857143</ele><time>2026-04-29T07:11:21.246Z</time></trkpt><trkpt lat="45.5480008" lon="11.8598701"><ele>22.57142857142857</ele><time>2026-04-29T07:11:22.246Z</time></trkpt><trkpt lat="45.5479836" lon="11.8597756"><ele>22.71428571428571</ele><time>2026-04-29T07:11:23.246Z</time></trkpt><trkpt lat="45.547966" lon="11.8596613"><ele>22.857142857142858</ele><time>2026-04-29T07:11:24.247Z</time></trkpt><trkpt lat="45.5479363" lon="11.8595645"><ele>23.0</ele><time>2026-04-29T07:11:25.246Z</time></trkpt><trkpt lat="45.5479127" lon="11.8594691"><ele>23.0</ele><time>2026-04-29T07:11:26.247Z</time></trkpt><trkpt lat="45.5478872" lon="11.8593684"><ele>23.0</ele><time>2026-04-29T07:11:27.246Z</time></trkpt><trkpt lat="45.5478652" lon="11.8592683"><ele>23.0</ele><time>2026-04-29T07:11:28.247Z</time></trkpt><trkpt lat="45.5478432" lon="11.8591691"><ele>23.0</ele><time>2026-04-29T07:11:29.247Z</time></trkpt><trkpt lat="45.5478221" lon="11.8590637"><ele>23.0</ele><time>2026-04-29T07:11:30.246Z</time></trkpt><trkpt lat="45.5478041" lon="11.8589608"><ele>23.0</ele><time>2026-04-29T07:11:31.246Z</time></trkpt><trkpt lat="45.547788" lon="11.8588589"><ele>23.0</ele><time>2026-04-29T07:11:32.246Z</time></trkpt><trkpt lat="45.547775" lon="11.8587541"><ele>23.0</ele><time>2026-04-29T07:11:33.246Z</time></trkpt><trkpt lat="45.5477577" lon="11.8586524"><ele>23.0</ele><time>2026-04-29T07:11:34.247Z</time></trkpt><trkpt lat="45.5477377" lon="11.8585544"><ele>23.0</ele><time>2026-04-29T07:11:35.246Z</time></trkpt><trkpt lat="45.5477203" lon="11.858456"><ele>23.0</ele><time>2026-04-29T07:11:36.247Z</time></trkpt><trkpt lat="45.5477019" lon="11.8583564"><ele>23.0</ele><time>2026-04-29T07:11:37.246Z</time></trkpt><trkpt lat="45.5476775" lon="11.8582533"><ele>23.0</ele><time>2026-04-29T07:11:38.246Z</time></trkpt><trkpt lat="45.5476562" lon="11.8581418"><ele>23.0</ele><time>2026-04-29T07:11:39.246Z</time></trkpt><trkpt lat="45.5476272" lon="11.8580388"><ele>23.0</ele><time>2026-04-29T07:11:40.247Z</time></trkpt><trkpt lat="45.5476035" lon="11.857936"><ele>23.0</ele><time>2026-04-29T07:11:41.247Z</time></trkpt><trkpt lat="45.5475803" lon="11.8578346"><ele>23.0</ele><time>2026-04-29T07:11:42.246Z</time></trkpt><trkpt lat="45.5475624" lon="11.8577279"><ele>23.0</ele><time>2026-04-29T07:11:43.246Z</time></trkpt><trkpt lat="45.5475461" lon="11.8576252"><ele>23.0</ele><time>2026-04-29T07:11:44.247Z</time></trkpt><trkpt lat="45.5475337" lon="11.857515"><ele>23.0</ele><time>2026-04-29T07:11:45.247Z</time></trkpt><trkpt lat="45.547521" lon="11.8574038"><ele>23.0</ele><time>2026-04-29T07:11:46.247Z</time></trkpt><trkpt lat="45.5475058" lon="11.8573022"><ele>23.0</ele><time>2026-04-29T07:11:47.246Z</time></trkpt><trkpt lat="45.5474834" lon="11.857196"><ele>23.0</ele><time>2026-04-29T07:11:48.246Z</time></trkpt><trkpt lat="45.547461" lon="11.8570975"><ele>23.0</ele><time>2026-04-29T07:11:49.246Z</time></trkpt><trkpt lat="45.5474403" lon="11.8570064"><ele>23.0</ele><time>2026-04-29T07:11:50.246Z</time></trkpt><trkpt lat="45.5474224" lon="11.8569123"><ele>23.0</ele><time>2026-04-29T07:11:51.247Z</time></trkpt><trkpt lat="45.5474025" lon="11.8568143"><ele>23.0</ele><time>2026-04-29T07:11:52.246Z</time></trkpt><trkpt lat="45.5473863" lon="11.8567143"><ele>22.714285714285715</ele><time>2026-04-29T07:11:53.246Z</time></trkpt><trkpt lat="45.54738" lon="11.8566156"><ele>22.428571428571427</ele><time>2026-04-29T07:11:54.246Z</time></trkpt><trkpt lat="45.5473696" lon="11.8565123"><ele>22.142857142857142</ele><time>2026-04-29T07:11:55.246Z</time></trkpt><trkpt lat="45.547359" lon="11.8564092"><ele>21.857142857142858</ele><time>2026-04-29T07:11:56.247Z</time></trkpt><trkpt lat="45.5473429" lon="11.8563126"><ele>21.57142857142857</ele><time>2026-04-29T07:11:57.247Z</time></trkpt><trkpt lat="45.5473258" lon="11.8562175"><ele>21.285714285714285</ele><time>2026-04-29T07:11:58.246Z</time></trkpt><trkpt lat="45.5473064" lon="11.8561124"><ele>21.0</ele><time>2026-04-29T07:11:59.246Z</time></trkpt><trkpt lat="45.5472853" lon="11.8560148"><ele>21.0</ele><time>2026-04-29T07:12:00.246Z</time></trkpt><trkpt lat="45.5472658" lon="11.8559119"><ele>21.0</ele><time>2026-04-29T07:12:01.246Z</time></trkpt><trkpt lat="45.5472496" lon="11.8558065"><ele>21.0</ele><time>2026-04-29T07:12:02.246Z</time></trkpt><trkpt lat="45.5472407" lon="11.8557011"><ele>21.0</ele><time>2026-04-29T07:12:03.247Z</time></trkpt><trkpt lat="45.5472314" lon="11.8555949"><ele>21.0</ele><time>2026-04-29T07:12:04.246Z</time></trkpt><trkpt lat="45.5472162" lon="11.8554876"><ele>21.0</ele><time>2026-04-29T07:12:05.246Z</time></trkpt><trkpt lat="45.5471962" lon="11.8553761"><ele>21.0</ele><time>2026-04-29T07:12:06.246Z</time></trkpt><trkpt lat="45.5471822" lon="11.8552799"><ele>21.0</ele><time>2026-04-29T07:12:07.246Z</time></trkpt><trkpt lat="45.5471659" lon="11.8551807"><ele>21.0</ele><time>2026-04-29T07:12:08.247Z</time></trkpt><trkpt lat="45.5471548" lon="11.8550791"><ele>21.0</ele><time>2026-04-29T07:12:09.246Z</time></trkpt><trkpt lat="45.5471428" lon="11.8549798"><ele>21.0</ele><time>2026-04-29T07:12:10.246Z</time></trkpt><trkpt lat="45.5471306" lon="11.8548826"><ele>21.0</ele><time>2026-04-29T07:12:11.246Z</time></trkpt><trkpt lat="45.5471137" lon="11.85478"><ele>21.0</ele><time>2026-04-29T07:12:12.246Z</time></trkpt><trkpt lat="45.5470996" lon="11.8546703"><ele>21.0</ele><time>2026-04-29T07:12:13.246Z</time></trkpt><trkpt lat="45.5470869" lon="11.8545798"><ele>21.0</ele><time>2026-04-29T07:12:14.246Z</time></trkpt><trkpt lat="45.5470754" lon="11.854485"><ele>21.0</ele><time>2026-04-29T07:12:15.246Z</time></trkpt><trkpt lat="45.5470631" lon="11.8543785"><ele>21.0</ele><time>2026-04-29T07:12:16.247Z</time></trkpt><trkpt lat="45.5470452" lon="11.8542733"><ele>21.0</ele><time>2026-04-29T07:12:17.247Z</time></trkpt><trkpt lat="45.5470185" lon="11.8541626"><ele>21.0</ele><time>2026-04-29T07:12:18.247Z</time></trkpt><trkpt lat="45.5470039" lon="11.8540626"><ele>21.0</ele><time>2026-04-29T07:12:19.246Z</time></trkpt><trkpt lat="45.5469693" lon="11.8538922"><ele>21.5</ele><time>2026-04-29T07:12:21.246Z</time></trkpt><trkpt lat="45.5469504" lon="11.8537273"><ele>22.0</ele><time>2026-04-29T07:12:23.246Z</time></trkpt><trkpt lat="45.5469318" lon="11.8536395"><ele>22.5</ele><time>2026-04-29T07:12:24.246Z</time></trkpt><trkpt lat="45.5469158" lon="11.8535429"><ele>23.0</ele><time>2026-04-29T07:12:25.247Z</time></trkpt><trkpt lat="45.5468971" lon="11.8534411"><ele>23.5</ele><time>2026-04-29T07:12:26.246Z</time></trkpt><trkpt lat="45.5468774" lon="11.8533338"><ele>24.0</ele><time>2026-04-29T07:12:27.247Z</time></trkpt><trkpt lat="45.5468569" lon="11.8532343"><ele>23.999999999999996</ele><time>2026-04-29T07:12:28.247Z</time></trkpt><trkpt lat="45.5468393" lon="11.8531371"><ele>24.0</ele><time>2026-04-29T07:12:29.247Z</time></trkpt><trkpt lat="45.5468263" lon="11.8530443"><ele>24.0</ele><time>2026-04-29T07:12:30.247Z</time></trkpt><trkpt lat="45.5468161" lon="11.8529468"><ele>24.0</ele><time>2026-04-29T07:12:31.246Z</time></trkpt><trkpt lat="45.5467986" lon="11.8528517"><ele>24.0</ele><time>2026-04-29T07:12:32.246Z</time></trkpt><trkpt lat="45.5467798" lon="11.8527604"><ele>23.999999999999996</ele><time>2026-04-29T07:12:33.246Z</time></trkpt><trkpt lat="45.5467647" lon="11.8526674"><ele>24.0</ele><time>2026-04-29T07:12:34.246Z</time></trkpt><trkpt lat="45.5467484" lon="11.8525732"><ele>23.999999999999996</ele><time>2026-04-29T07:12:35.246Z</time></trkpt><trkpt lat="45.5467254" lon="11.8524787"><ele>24.0</ele><time>2026-04-29T07:12:36.246Z</time></trkpt><trkpt lat="45.5467077" lon="11.8523791"><ele>24.0</ele><time>2026-04-29T07:12:37.247Z</time></trkpt><trkpt lat="45.5466922" lon="11.8522913"><ele>24.0</ele><time>2026-04-29T07:12:38.247Z</time></trkpt><trkpt lat="45.5466741" lon="11.8522023"><ele>24.0</ele><time>2026-04-29T07:12:39.246Z</time></trkpt><trkpt lat="45.546662" lon="11.852111"><ele>23.999999999999996</ele><time>2026-04-29T07:12:40.246Z</time></trkpt><trkpt lat="45.5466449" lon="11.8520127"><ele>24.0</ele><time>2026-04-29T07:12:41.246Z</time></trkpt><trkpt lat="45.546626" lon="11.8519165"><ele>23.999999999999996</ele><time>2026-04-29T07:12:42.246Z</time></trkpt><trkpt lat="45.5466022" lon="11.8518189"><ele>24.0</ele><time>2026-04-29T07:12:43.246Z</time></trkpt><trkpt lat="45.5465847" lon="11.8517186"><ele>24.0</ele><time>2026-04-29T07:12:44.246Z</time></trkpt><trkpt lat="45.5465697" lon="11.8516191"><ele>24.0</ele><time>2026-04-29T07:12:45.246Z</time></trkpt><trkpt lat="45.5465495" lon="11.851516"><ele>24.0</ele><time>2026-04-29T07:12:46.246Z</time></trkpt><trkpt lat="45.5465275" lon="11.8514166"><ele>23.999999999999996</ele><time>2026-04-29T07:12:47.247Z</time></trkpt><trkpt lat="45.5465072" lon="11.8513196"><ele>24.0</ele><time>2026-04-29T07:12:48.246Z</time></trkpt><trkpt lat="45.5464949" lon="11.8512145"><ele>23.999999999999996</ele><time>2026-04-29T07:12:49.247Z</time></trkpt><trkpt lat="45.5464785" lon="11.8511085"><ele>24.0</ele><time>2026-04-29T07:12:50.247Z</time></trkpt><trkpt lat="45.5464641" lon="11.851003"><ele>24.0</ele><time>2026-04-29T07:12:51.246Z</time></trkpt><trkpt lat="45.5464458" lon="11.8509079"><ele>24.0</ele><time>2026-04-29T07:12:52.246Z</time></trkpt><trkpt lat="45.5464298" lon="11.8508029"><ele>24.0</ele><time>2026-04-29T07:12:53.246Z</time></trkpt><trkpt lat="45.5464149" lon="11.8506974"><ele>23.999999999999996</ele><time>2026-04-29T07:12:54.246Z</time></trkpt><trkpt lat="45.5463982" lon="11.8505973"><ele>24.0</ele><time>2026-04-29T07:12:55.246Z</time></trkpt><trkpt lat="45.5463837" lon="11.8504995"><ele>23.999999999999996</ele><time>2026-04-29T07:12:56.246Z</time></trkpt><trkpt lat="45.5463658" lon="11.8503939"><ele>24.0</ele><time>2026-04-29T07:12:57.246Z</time></trkpt><trkpt lat="45.5463514" lon="11.8502873"><ele>24.0</ele><time>2026-04-29T07:12:58.246Z</time></trkpt><trkpt lat="45.5463359" lon="11.8501852"><ele>24.0</ele><time>2026-04-29T07:12:59.246Z</time></trkpt><trkpt lat="45.5463194" lon="11.8500876"><ele>24.0</ele><time>2026-04-29T07:13:00.246Z</time></trkpt><trkpt lat="45.5463012" lon="11.8499916"><ele>23.999999999999996</ele><time>2026-04-29T07:13:01.247Z</time></trkpt><trkpt lat="45.5462849" lon="11.8498947"><ele>24.0</ele><time>2026-04-29T07:13:02.246Z</time></trkpt><trkpt lat="45.5462679" lon="11.849801"><ele>23.833333333333332</ele><time>2026-04-29T07:13:03.246Z</time></trkpt><trkpt lat="45.5462496" lon="11.8497093"><ele>23.666666666666668</ele><time>2026-04-29T07:13:04.246Z</time></trkpt><trkpt lat="45.5462335" lon="11.8496138"><ele>23.5</ele><time>2026-04-29T07:13:05.247Z</time></trkpt><trkpt lat="45.5462223" lon="11.849516"><ele>23.333333333333336</ele><time>2026-04-29T07:13:06.246Z</time></trkpt><trkpt lat="45.5462083" lon="11.8494248"><ele>23.166666666666668</ele><time>2026-04-29T07:13:07.246Z</time></trkpt><trkpt lat="45.5461944" lon="11.8493342"><ele>23.0</ele><time>2026-04-29T07:13:08.246Z</time></trkpt><trkpt lat="45.5461618" lon="11.8491681"><ele>23.0</ele><time>2026-04-29T07:13:10.246Z</time></trkpt><trkpt lat="45.5461216" lon="11.8490222"><ele>23.0</ele><time>2026-04-29T07:13:12.246Z</time></trkpt><trkpt lat="45.546132" lon="11.8488631"><ele>23.0</ele><time>2026-04-29T07:13:14.247Z</time></trkpt><trkpt lat="45.5461659" lon="11.848783"><ele>23.0</ele><time>2026-04-29T07:13:15.247Z</time></trkpt><trkpt lat="45.5462534" lon="11.8486689"><ele>23.0</ele><time>2026-04-29T07:13:17.246Z</time></trkpt><trkpt lat="45.5463397" lon="11.8485636"><ele>22.799999999999997</ele><time>2026-04-29T07:13:19.246Z</time></trkpt><trkpt lat="45.5463708" lon="11.8484041"><ele>22.6</ele><time>2026-04-29T07:13:21.246Z</time></trkpt><trkpt lat="45.5463514" lon="11.848259"><ele>22.4</ele><time>2026-04-29T07:13:23.246Z</time></trkpt><trkpt lat="45.5463477" lon="11.8481048"><ele>22.200000000000003</ele><time>2026-04-29T07:13:25.246Z</time></trkpt><trkpt lat="45.5463516" lon="11.8479784"><ele>22.0</ele><time>2026-04-29T07:13:27.246Z</time></trkpt><trkpt lat="45.5463187" lon="11.8478653"><ele>22.0</ele><time>2026-04-29T07:13:30.247Z</time></trkpt><trkpt lat="45.5462997" lon="11.8477741"><ele>22.0</ele><time>2026-04-29T07:13:33.246Z</time></trkpt><trkpt lat="45.5462866" lon="11.8476659"><ele>22.0</ele><time>2026-04-29T07:13:38.246Z</time></trkpt><trkpt lat="45.5462365" lon="11.8476092"><ele>22.0</ele><time>2026-04-29T07:13:40.246Z</time></trkpt><trkpt lat="45.546168" lon="11.8475522"><ele>22.0</ele><time>2026-04-29T07:13:42.246Z</time></trkpt><trkpt lat="45.5460791" lon="11.8475576"><ele>22.0</ele><time>2026-04-29T07:13:44.247Z</time></trkpt><trkpt lat="45.5459856" lon="11.8475636"><ele>22.6</ele><time>2026-04-29T07:13:46.246Z</time></trkpt><trkpt lat="45.5458975" lon="11.8475713"><ele>23.200000000000003</ele><time>2026-04-29T07:13:48.247Z</time></trkpt><trkpt lat="45.5458602" lon="11.8474507"><ele>23.8</ele><time>2026-04-29T07:13:50.246Z</time></trkpt><trkpt lat="45.5458333" lon="11.8472792"><ele>24.4</ele><time>2026-04-29T07:13:52.246Z</time></trkpt><trkpt lat="45.5458062" lon="11.8471155"><ele>25.0</ele><time>2026-04-29T07:13:54.247Z</time></trkpt><trkpt lat="45.5457642" lon="11.8469418"><ele>25.000000000000004</ele><time>2026-04-29T07:13:56.247Z</time></trkpt><trkpt lat="45.5457463" lon="11.846855"><ele>25.0</ele><time>2026-04-29T07:13:57.246Z</time></trkpt><trkpt lat="45.5457313" lon="11.8467629"><ele>25.0</ele><time>2026-04-29T07:13:58.246Z</time></trkpt><trkpt lat="45.5457172" lon="11.846668"><ele>25.0</ele><time>2026-04-29T07:13:59.246Z</time></trkpt><trkpt lat="45.5457015" lon="11.8465651"><ele>25.0</ele><time>2026-04-29T07:14:00.247Z</time></trkpt><trkpt lat="45.5456819" lon="11.8464714"><ele>25.000000000000004</ele><time>2026-04-29T07:14:01.247Z</time></trkpt><trkpt lat="45.5456604" lon="11.8463701"><ele>25.0</ele><time>2026-04-29T07:14:02.246Z</time></trkpt><trkpt lat="45.5456397" lon="11.8462762"><ele>24.666666666666668</ele><time>2026-04-29T07:14:03.247Z</time></trkpt><trkpt lat="45.5456133" lon="11.8461775"><ele>24.333333333333336</ele><time>2026-04-29T07:14:04.246Z</time></trkpt><trkpt lat="45.5455899" lon="11.8460806"><ele>24.0</ele><time>2026-04-29T07:14:05.246Z</time></trkpt><trkpt lat="45.5455645" lon="11.8459783"><ele>23.666666666666668</ele><time>2026-04-29T07:14:06.246Z</time></trkpt><trkpt lat="45.5455396" lon="11.8458699"><ele>23.333333333333336</ele><time>2026-04-29T07:14:07.247Z</time></trkpt><trkpt lat="45.5455176" lon="11.8457684"><ele>23.0</ele><time>2026-04-29T07:14:08.246Z</time></trkpt><trkpt lat="45.5454866" lon="11.8456622"><ele>23.0</ele><time>2026-04-29T07:14:09.246Z</time></trkpt><trkpt lat="45.5454645" lon="11.8455548"><ele>23.0</ele><time>2026-04-29T07:14:10.247Z</time></trkpt><trkpt lat="45.5454355" lon="11.84545"><ele>23.0</ele><time>2026-04-29T07:14:11.246Z</time></trkpt><trkpt lat="45.5454082" lon="11.8453489"><ele>23.0</ele><time>2026-04-29T07:14:12.246Z</time></trkpt><trkpt lat="45.545378" lon="11.8452524"><ele>23.0</ele><time>2026-04-29T07:14:13.245Z</time></trkpt><trkpt lat="45.5453488" lon="11.8451555"><ele>23.0</ele><time>2026-04-29T07:14:14.245Z</time></trkpt><trkpt lat="45.5453215" lon="11.8450716"><ele>23.0</ele><time>2026-04-29T07:14:15.245Z</time></trkpt><trkpt lat="45.5452926" lon="11.8449814"><ele>22.714285714285715</ele><time>2026-04-29T07:14:16.245Z</time></trkpt><trkpt lat="45.545265" lon="11.8448934"><ele>22.428571428571427</ele><time>2026-04-29T07:14:17.245Z</time></trkpt><trkpt lat="45.5452367" lon="11.8448027"><ele>22.142857142857142</ele><time>2026-04-29T07:14:18.246Z</time></trkpt><trkpt lat="45.5452044" lon="11.8447172"><ele>21.857142857142858</ele><time>2026-04-29T07:14:19.245Z</time></trkpt><trkpt lat="45.5451724" lon="11.8446291"><ele>21.57142857142857</ele><time>2026-04-29T07:14:20.245Z</time></trkpt><trkpt lat="45.5451452" lon="11.8445385"><ele>21.285714285714285</ele><time>2026-04-29T07:14:21.245Z</time></trkpt><trkpt lat="45.5451194" lon="11.8444473"><ele>21.0</ele><time>2026-04-29T07:14:22.246Z</time></trkpt><trkpt lat="45.5450968" lon="11.8443617"><ele>21.0</ele><time>2026-04-29T07:14:23.246Z</time></trkpt><trkpt lat="45.5450619" lon="11.8442675"><ele>21.0</ele><time>2026-04-29T07:14:24.246Z</time></trkpt><trkpt lat="45.5450252" lon="11.8441707"><ele>21.0</ele><time>2026-04-29T07:14:25.245Z</time></trkpt><trkpt lat="45.5449952" lon="11.8440794"><ele>21.0</ele><time>2026-04-29T07:14:26.245Z</time></trkpt><trkpt lat="45.5449665" lon="11.8439879"><ele>21.0</ele><time>2026-04-29T07:14:27.245Z</time></trkpt><trkpt lat="45.5449369" lon="11.8438967"><ele>21.0</ele><time>2026-04-29T07:14:28.245Z</time></trkpt><trkpt lat="45.5449084" lon="11.8437979"><ele>21.0</ele><time>2026-04-29T07:14:29.245Z</time></trkpt><trkpt lat="45.5448784" lon="11.8437127"><ele>21.0</ele><time>2026-04-29T07:14:30.246Z</time></trkpt><trkpt lat="45.5448538" lon="11.8436278"><ele>21.0</ele><time>2026-04-29T07:14:31.245Z</time></trkpt><trkpt lat="45.5448214" lon="11.8435426"><ele>21.0</ele><time>2026-04-29T07:14:32.245Z</time></trkpt><trkpt lat="45.5447898" lon="11.8434534"><ele>21.0</ele><time>2026-04-29T07:14:33.245Z</time></trkpt><trkpt lat="45.5447569" lon="11.8433646"><ele>21.0</ele><time>2026-04-29T07:14:34.245Z</time></trkpt><trkpt lat="45.544727" lon="11.8432755"><ele>21.0</ele><time>2026-04-29T07:14:35.245Z</time></trkpt><trkpt lat="45.5446924" lon="11.8431881"><ele>21.0</ele><time>2026-04-29T07:14:36.245Z</time></trkpt><trkpt lat="45.5446638" lon="11.8430975"><ele>21.0</ele><time>2026-04-29T07:14:37.245Z</time></trkpt><trkpt lat="45.5446418" lon="11.843005"><ele>21.0</ele><time>2026-04-29T07:14:38.245Z</time></trkpt><trkpt lat="45.544612" lon="11.8429214"><ele>21.0</ele><time>2026-04-29T07:14:39.245Z</time></trkpt><trkpt lat="45.5445805" lon="11.8428397"><ele>21.0</ele><time>2026-04-29T07:14:40.245Z</time></trkpt><trkpt lat="45.5445543" lon="11.8427534"><ele>21.0</ele><time>2026-04-29T07:14:41.245Z</time></trkpt><trkpt lat="45.544527" lon="11.842657"><ele>21.0</ele><time>2026-04-29T07:14:42.246Z</time></trkpt><trkpt lat="45.5444988" lon="11.8425595"><ele>21.0</ele><time>2026-04-29T07:14:43.246Z</time></trkpt><trkpt lat="45.5444691" lon="11.8424668"><ele>21.166666666666668</ele><time>2026-04-29T07:14:44.246Z</time></trkpt><trkpt lat="45.5444383" lon="11.8423695"><ele>21.333333333333332</ele><time>2026-04-29T07:14:45.245Z</time></trkpt><trkpt lat="45.5444051" lon="11.8422727"><ele>21.5</ele><time>2026-04-29T07:14:46.245Z</time></trkpt><trkpt lat="45.5443764" lon="11.8421758"><ele>21.666666666666664</ele><time>2026-04-29T07:14:47.245Z</time></trkpt><trkpt lat="45.544349" lon="11.8420697"><ele>21.833333333333332</ele><time>2026-04-29T07:14:48.245Z</time></trkpt><trkpt lat="45.5443121" lon="11.8419744"><ele>22.0</ele><time>2026-04-29T07:14:49.245Z</time></trkpt><trkpt lat="45.544273" lon="11.8418834"><ele>21.833333333333332</ele><time>2026-04-29T07:14:50.245Z</time></trkpt><trkpt lat="45.5442364" lon="11.8417944"><ele>21.666666666666664</ele><time>2026-04-29T07:14:51.245Z</time></trkpt><trkpt lat="45.5442126" lon="11.8417024"><ele>21.5</ele><time>2026-04-29T07:14:52.246Z</time></trkpt><trkpt lat="45.5441842" lon="11.8416157"><ele>21.333333333333332</ele><time>2026-04-29T07:14:53.246Z</time></trkpt><trkpt lat="45.5441395" lon="11.8414544"><ele>21.166666666666668</ele><time>2026-04-29T07:14:55.245Z</time></trkpt><trkpt lat="45.5441044" lon="11.841371"><ele>21.0</ele><time>2026-04-29T07:14:56.245Z</time></trkpt><trkpt lat="45.5440724" lon="11.8412854"><ele>21.0</ele><time>2026-04-29T07:14:57.245Z</time></trkpt><trkpt lat="45.5440374" lon="11.8411957"><ele>21.0</ele><time>2026-04-29T07:14:58.245Z</time></trkpt><trkpt lat="45.5440139" lon="11.8411091"><ele>21.0</ele><time>2026-04-29T07:14:59.245Z</time></trkpt><trkpt lat="45.5439818" lon="11.8410216"><ele>21.0</ele><time>2026-04-29T07:15:00.245Z</time></trkpt><trkpt lat="45.5439544" lon="11.8409335"><ele>21.0</ele><time>2026-04-29T07:15:01.245Z</time></trkpt><trkpt lat="45.5439249" lon="11.8408506"><ele>21.0</ele><time>2026-04-29T07:15:02.246Z</time></trkpt><trkpt lat="45.5438997" lon="11.8407631"><ele>21.0</ele><time>2026-04-29T07:15:03.245Z</time></trkpt><trkpt lat="45.5438736" lon="11.8406793"><ele>21.0</ele><time>2026-04-29T07:15:04.245Z</time></trkpt><trkpt lat="45.5438421" lon="11.8405852"><ele>21.0</ele><time>2026-04-29T07:15:05.245Z</time></trkpt><trkpt lat="45.5438103" lon="11.8405055"><ele>21.0</ele><time>2026-04-29T07:15:06.246Z</time></trkpt><trkpt lat="45.5437549" lon="11.8403424"><ele>21.0</ele><time>2026-04-29T07:15:08.245Z</time></trkpt><trkpt lat="45.5437078" lon="11.8401908"><ele>21.0</ele><time>2026-04-29T07:15:10.246Z</time></trkpt><trkpt lat="45.5436637" lon="11.8400306"><ele>21.0</ele><time>2026-04-29T07:15:12.245Z</time></trkpt><trkpt lat="45.5436353" lon="11.8399359"><ele>21.0</ele><time>2026-04-29T07:15:13.246Z</time></trkpt><trkpt lat="45.5436055" lon="11.8398363"><ele>21.0</ele><time>2026-04-29T07:15:14.245Z</time></trkpt><trkpt lat="45.5435737" lon="11.8397543"><ele>21.0</ele><time>2026-04-29T07:15:15.246Z</time></trkpt><trkpt lat="45.5435385" lon="11.8396763"><ele>21.0</ele><time>2026-04-29T07:15:16.246Z</time></trkpt><trkpt lat="45.5435038" lon="11.8395946"><ele>21.0</ele><time>2026-04-29T07:15:17.245Z</time></trkpt><trkpt lat="45.5434746" lon="11.8395104"><ele>21.0</ele><time>2026-04-29T07:15:18.246Z</time></trkpt><trkpt lat="45.5434452" lon="11.8394301"><ele>21.0</ele><time>2026-04-29T07:15:19.246Z</time></trkpt><trkpt lat="45.5434129" lon="11.8393413"><ele>21.0</ele><time>2026-04-29T07:15:20.246Z</time></trkpt><trkpt lat="45.5433805" lon="11.8392527"><ele>21.0</ele><time>2026-04-29T07:15:21.245Z</time></trkpt><trkpt lat="45.5433463" lon="11.839168"><ele>21.0</ele><time>2026-04-29T07:15:22.245Z</time></trkpt><trkpt lat="45.543313" lon="11.8390845"><ele>21.0</ele><time>2026-04-29T07:15:23.245Z</time></trkpt><trkpt lat="45.5432843" lon="11.838999"><ele>21.0</ele><time>2026-04-29T07:15:24.245Z</time></trkpt><trkpt lat="45.5432352" lon="11.8388381"><ele>21.0</ele><time>2026-04-29T07:15:26.245Z</time></trkpt><trkpt lat="45.5431848" lon="11.8386839"><ele>21.0</ele><time>2026-04-29T07:15:28.245Z</time></trkpt><trkpt lat="45.5431447" lon="11.8385332"><ele>21.0</ele><time>2026-04-29T07:15:30.245Z</time></trkpt><trkpt lat="45.5430881" lon="11.8384101"><ele>21.0</ele><time>2026-04-29T07:15:32.246Z</time></trkpt><trkpt lat="45.543061" lon="11.8383075"><ele>21.0</ele><time>2026-04-29T07:15:35.245Z</time></trkpt><trkpt lat="45.5430339" lon="11.8381801"><ele>21.0</ele><time>2026-04-29T07:15:38.245Z</time></trkpt><trkpt lat="45.5429827" lon="11.8380421"><ele>21.0</ele><time>2026-04-29T07:15:40.245Z</time></trkpt><trkpt lat="45.5429336" lon="11.8378954"><ele>21.0</ele><time>2026-04-29T07:15:42.245Z</time></trkpt><trkpt lat="45.5428887" lon="11.8377403"><ele>21.0</ele><time>2026-04-29T07:15:44.245Z</time></trkpt><trkpt lat="45.5428612" lon="11.8376591"><ele>21.0</ele><time>2026-04-29T07:15:45.245Z</time></trkpt><trkpt lat="45.5428111" lon="11.8375002"><ele>21.0</ele><time>2026-04-29T07:15:47.246Z</time></trkpt><trkpt lat="45.5427845" lon="11.8374096"><ele>21.0</ele><time>2026-04-29T07:15:48.245Z</time></trkpt><trkpt lat="45.5427561" lon="11.837319"><ele>21.0</ele><time>2026-04-29T07:15:49.245Z</time></trkpt><trkpt lat="45.542726" lon="11.8372304"><ele>21.0</ele><time>2026-04-29T07:15:50.246Z</time></trkpt><trkpt lat="45.5426997" lon="11.8371375"><ele>21.0</ele><time>2026-04-29T07:15:51.245Z</time></trkpt><trkpt lat="45.5426787" lon="11.8370512"><ele>21.0</ele><time>2026-04-29T07:15:52.246Z</time></trkpt><trkpt lat="45.5426517" lon="11.8369656"><ele>21.0</ele><time>2026-04-29T07:15:53.245Z</time></trkpt><trkpt lat="45.5426186" lon="11.8368812"><ele>21.0</ele><time>2026-04-29T07:15:54.245Z</time></trkpt><trkpt lat="45.5425874" lon="11.8367907"><ele>21.0</ele><time>2026-04-29T07:15:55.245Z</time></trkpt><trkpt lat="45.5425592" lon="11.8367066"><ele>21.0</ele><time>2026-04-29T07:15:56.245Z</time></trkpt><trkpt lat="45.5425352" lon="11.836623"><ele>21.0</ele><time>2026-04-29T07:15:57.245Z</time></trkpt><trkpt lat="45.5424952" lon="11.8364576"><ele>21.0</ele><time>2026-04-29T07:15:59.246Z</time></trkpt><trkpt lat="45.5424625" lon="11.836372"><ele>21.0</ele><time>2026-04-29T07:16:00.245Z</time></trkpt><trkpt lat="45.5424323" lon="11.8362861"><ele>21.0</ele><time>2026-04-29T07:16:01.245Z</time></trkpt><trkpt lat="45.5424069" lon="11.8361947"><ele>21.0</ele><time>2026-04-29T07:16:02.245Z</time></trkpt><trkpt lat="45.542378" lon="11.8361125"><ele>21.0</ele><time>2026-04-29T07:16:03.245Z</time></trkpt><trkpt lat="45.5423474" lon="11.8360201"><ele>21.0</ele><time>2026-04-29T07:16:04.245Z</time></trkpt><trkpt lat="45.5423126" lon="11.835927"><ele>21.0</ele><time>2026-04-29T07:16:05.245Z</time></trkpt><trkpt lat="45.5422823" lon="11.8358328"><ele>21.0</ele><time>2026-04-29T07:16:06.245Z</time></trkpt><trkpt lat="45.5422494" lon="11.835739"><ele>21.0</ele><time>2026-04-29T07:16:07.245Z</time></trkpt><trkpt lat="45.5422196" lon="11.8356481"><ele>21.0</ele><time>2026-04-29T07:16:08.245Z</time></trkpt><trkpt lat="45.5421909" lon="11.8355603"><ele>21.0</ele><time>2026-04-29T07:16:09.245Z</time></trkpt><trkpt lat="45.5421524" lon="11.8354705"><ele>21.0</ele><time>2026-04-29T07:16:10.245Z</time></trkpt><trkpt lat="45.5421176" lon="11.8353739"><ele>21.0</ele><time>2026-04-29T07:16:11.245Z</time></trkpt><trkpt lat="45.5420872" lon="11.8352812"><ele>21.0</ele><time>2026-04-29T07:16:12.245Z</time></trkpt><trkpt lat="45.542051" lon="11.8351939"><ele>21.0</ele><time>2026-04-29T07:16:13.245Z</time></trkpt><trkpt lat="45.54202" lon="11.8351008"><ele>21.0</ele><time>2026-04-29T07:16:14.245Z</time></trkpt><trkpt lat="45.5419893" lon="11.8350007"><ele>21.0</ele><time>2026-04-29T07:16:15.245Z</time></trkpt><trkpt lat="45.5419565" lon="11.8349106"><ele>21.0</ele><time>2026-04-29T07:16:16.246Z</time></trkpt><trkpt lat="45.5419252" lon="11.8348168"><ele>21.0</ele><time>2026-04-29T07:16:17.245Z</time></trkpt><trkpt lat="45.5418929" lon="11.8347303"><ele>21.0</ele><time>2026-04-29T07:16:18.246Z</time></trkpt><trkpt lat="45.5418599" lon="11.8346398"><ele>21.0</ele><time>2026-04-29T07:16:19.246Z</time></trkpt><trkpt lat="45.5418301" lon="11.8345498"><ele>21.0</ele><time>2026-04-29T07:16:20.245Z</time></trkpt><trkpt lat="45.5418025" lon="11.8344607"><ele>21.0</ele><time>2026-04-29T07:16:21.245Z</time></trkpt><trkpt lat="45.5417722" lon="11.8343695"><ele>21.142857142857142</ele><time>2026-04-29T07:16:22.245Z</time></trkpt><trkpt lat="45.5417442" lon="11.8342793"><ele>21.285714285714285</ele><time>2026-04-29T07:16:23.245Z</time></trkpt><trkpt lat="45.5417163" lon="11.834189"><ele>21.42857142857143</ele><time>2026-04-29T07:16:24.245Z</time></trkpt><trkpt lat="45.5416798" lon="11.8340931"><ele>21.57142857142857</ele><time>2026-04-29T07:16:25.245Z</time></trkpt><trkpt lat="45.5416495" lon="11.8340026"><ele>21.714285714285715</ele><time>2026-04-29T07:16:26.245Z</time></trkpt><trkpt lat="45.5416174" lon="11.8339138"><ele>21.857142857142858</ele><time>2026-04-29T07:16:27.245Z</time></trkpt><trkpt lat="45.5415878" lon="11.8338303"><ele>22.0</ele><time>2026-04-29T07:16:28.245Z</time></trkpt><trkpt lat="45.5415606" lon="11.8337436"><ele>22.0</ele><time>2026-04-29T07:16:29.246Z</time></trkpt><trkpt lat="45.541527" lon="11.8336546"><ele>22.0</ele><time>2026-04-29T07:16:30.245Z</time></trkpt><trkpt lat="45.5415028" lon="11.8335612"><ele>22.0</ele><time>2026-04-29T07:16:31.245Z</time></trkpt><trkpt lat="45.5414775" lon="11.8334724"><ele>22.0</ele><time>2026-04-29T07:16:32.245Z</time></trkpt><trkpt lat="45.5414168" lon="11.8333075"><ele>22.0</ele><time>2026-04-29T07:16:34.245Z</time></trkpt><trkpt lat="45.541359" lon="11.8331673"><ele>22.0</ele><time>2026-04-29T07:16:36.245Z</time></trkpt><trkpt lat="45.5413345" lon="11.833079"><ele>22.0</ele><time>2026-04-29T07:16:38.245Z</time></trkpt><trkpt lat="45.5413063" lon="11.8329656"><ele>22.0</ele><time>2026-04-29T07:16:44.245Z</time></trkpt><trkpt lat="45.5412737" lon="11.8328532"><ele>22.0</ele><time>2026-04-29T07:16:46.245Z</time></trkpt><trkpt lat="45.5412331" lon="11.8327326"><ele>22.0</ele><time>2026-04-29T07:16:48.246Z</time></trkpt><trkpt lat="45.5411919" lon="11.8325922"><ele>22.0</ele><time>2026-04-29T07:16:50.245Z</time></trkpt><trkpt lat="45.5411484" lon="11.8324501"><ele>22.0</ele><time>2026-04-29T07:16:52.245Z</time></trkpt><trkpt lat="45.5410976" lon="11.8322989"><ele>22.0</ele><time>2026-04-29T07:16:54.245Z</time></trkpt><trkpt lat="45.5410692" lon="11.8322186"><ele>22.0</ele><time>2026-04-29T07:16:55.245Z</time></trkpt><trkpt lat="45.5410135" lon="11.8320624"><ele>22.0</ele><time>2026-04-29T07:16:57.245Z</time></trkpt><trkpt lat="45.5409871" lon="11.8319795"><ele>22.0</ele><time>2026-04-29T07:16:58.246Z</time></trkpt><trkpt lat="45.5409616" lon="11.8318973"><ele>22.0</ele><time>2026-04-29T07:16:59.245Z</time></trkpt><trkpt lat="45.5409314" lon="11.8318058"><ele>21.571428571428573</ele><time>2026-04-29T07:17:00.245Z</time></trkpt><trkpt lat="45.5409004" lon="11.8317193"><ele>21.142857142857142</ele><time>2026-04-29T07:17:01.245Z</time></trkpt><trkpt lat="45.5408704" lon="11.8316333"><ele>20.714285714285715</ele><time>2026-04-29T07:17:02.245Z</time></trkpt><trkpt lat="45.5408397" lon="11.8315496"><ele>20.285714285714285</ele><time>2026-04-29T07:17:03.246Z</time></trkpt><trkpt lat="45.5408099" lon="11.8314688"><ele>19.857142857142858</ele><time>2026-04-29T07:17:04.245Z</time></trkpt><trkpt lat="45.5407797" lon="11.8313784"><ele>19.428571428571427</ele><time>2026-04-29T07:17:05.245Z</time></trkpt><trkpt lat="45.54075" lon="11.8312934"><ele>19.0</ele><time>2026-04-29T07:17:06.245Z</time></trkpt><trkpt lat="45.5407247" lon="11.8312041"><ele>19.0</ele><time>2026-04-29T07:17:07.245Z</time></trkpt><trkpt lat="45.5406982" lon="11.8311125"><ele>19.0</ele><time>2026-04-29T07:17:08.245Z</time></trkpt><trkpt lat="45.5406656" lon="11.8310325"><ele>19.0</ele><time>2026-04-29T07:17:09.246Z</time></trkpt><trkpt lat="45.540634" lon="11.8309404"><ele>19.0</ele><time>2026-04-29T07:17:10.245Z</time></trkpt><trkpt lat="45.5405995" lon="11.8308489"><ele>19.0</ele><time>2026-04-29T07:17:11.246Z</time></trkpt><trkpt lat="45.5405725" lon="11.8307502"><ele>19.0</ele><time>2026-04-29T07:17:12.246Z</time></trkpt><trkpt lat="45.5405345" lon="11.8306623"><ele>19.0</ele><time>2026-04-29T07:17:13.246Z</time></trkpt><trkpt lat="45.5405028" lon="11.8305745"><ele>18.857142857142858</ele><time>2026-04-29T07:17:14.245Z</time></trkpt><trkpt lat="45.5404767" lon="11.8304861"><ele>18.714285714285715</ele><time>2026-04-29T07:17:15.245Z</time></trkpt><trkpt lat="45.5404545" lon="11.8303968"><ele>18.571428571428573</ele><time>2026-04-29T07:17:16.245Z</time></trkpt><trkpt lat="45.5404286" lon="11.8303102"><ele>18.42857142857143</ele><time>2026-04-29T07:17:17.246Z</time></trkpt><trkpt lat="45.5404035" lon="11.8302181"><ele>18.285714285714285</ele><time>2026-04-29T07:17:18.245Z</time></trkpt><trkpt lat="45.5403765" lon="11.8301295"><ele>18.142857142857146</ele><time>2026-04-29T07:17:19.246Z</time></trkpt><trkpt lat="45.5403479" lon="11.830044"><ele>18.0</ele><time>2026-04-29T07:17:20.246Z</time></trkpt><trkpt lat="45.5403261" lon="11.8299594"><ele>18.6</ele><time>2026-04-29T07:17:21.246Z</time></trkpt><trkpt lat="45.5402835" lon="11.8298153"><ele>19.200000000000003</ele><time>2026-04-29T07:17:23.246Z</time></trkpt><trkpt lat="45.5402337" lon="11.8296802"><ele>19.8</ele><time>2026-04-29T07:17:25.245Z</time></trkpt><trkpt lat="45.5401762" lon="11.82955"><ele>20.400000000000002</ele><time>2026-04-29T07:17:27.246Z</time></trkpt><trkpt lat="45.5401407" lon="11.8294019"><ele>21.0</ele><time>2026-04-29T07:17:29.245Z</time></trkpt><trkpt lat="45.5400901" lon="11.8292532"><ele>21.200000000000003</ele><time>2026-04-29T07:17:31.245Z</time></trkpt><trkpt lat="45.5400371" lon="11.829095"><ele>21.400000000000002</ele><time>2026-04-29T07:17:33.245Z</time></trkpt><trkpt lat="45.5400078" lon="11.8290117"><ele>21.6</ele><time>2026-04-29T07:17:34.245Z</time></trkpt><trkpt lat="45.5399502" lon="11.8288387"><ele>21.8</ele><time>2026-04-29T07:17:36.245Z</time></trkpt><trkpt lat="45.5399272" lon="11.8287512"><ele>22.0</ele><time>2026-04-29T07:17:37.245Z</time></trkpt><trkpt lat="45.539884" lon="11.8285925"><ele>21.833333333333332</ele><time>2026-04-29T07:17:39.245Z</time></trkpt><trkpt lat="45.5398221" lon="11.8284447"><ele>21.666666666666664</ele><time>2026-04-29T07:17:41.246Z</time></trkpt><trkpt lat="45.5397684" lon="11.8282901"><ele>21.5</ele><time>2026-04-29T07:17:43.245Z</time></trkpt><trkpt lat="45.5397382" lon="11.8282081"><ele>21.333333333333332</ele><time>2026-04-29T07:17:44.245Z</time></trkpt><trkpt lat="45.539713" lon="11.8281167"><ele>21.166666666666668</ele><time>2026-04-29T07:17:45.245Z</time></trkpt><trkpt lat="45.5396979" lon="11.8280277"><ele>21.0</ele><time>2026-04-29T07:17:46.245Z</time></trkpt><trkpt lat="45.539669" lon="11.827938"><ele>21.0</ele><time>2026-04-29T07:17:47.246Z</time></trkpt><trkpt lat="45.5396415" lon="11.8278446"><ele>21.0</ele><time>2026-04-29T07:17:48.245Z</time></trkpt><trkpt lat="45.5396117" lon="11.8277468"><ele>21.0</ele><time>2026-04-29T07:17:49.245Z</time></trkpt><trkpt lat="45.5395863" lon="11.8276514"><ele>21.0</ele><time>2026-04-29T07:17:50.246Z</time></trkpt><trkpt lat="45.5395558" lon="11.8275527"><ele>21.0</ele><time>2026-04-29T07:17:51.245Z</time></trkpt><trkpt lat="45.5395341" lon="11.827466"><ele>21.0</ele><time>2026-04-29T07:17:52.246Z</time></trkpt><trkpt lat="45.5395123" lon="11.8273777"><ele>21.0</ele><time>2026-04-29T07:17:53.245Z</time></trkpt><trkpt lat="45.5394922" lon="11.8272874"><ele>21.142857142857142</ele><time>2026-04-29T07:17:54.245Z</time></trkpt><trkpt lat="45.539469" lon="11.8271993"><ele>21.285714285714285</ele><time>2026-04-29T07:17:55.245Z</time></trkpt><trkpt lat="45.539445" lon="11.8271046"><ele>21.42857142857143</ele><time>2026-04-29T07:17:56.245Z</time></trkpt><trkpt lat="45.5394182" lon="11.82701"><ele>21.57142857142857</ele><time>2026-04-29T07:17:57.246Z</time></trkpt><trkpt lat="45.5393882" lon="11.8269099"><ele>21.714285714285715</ele><time>2026-04-29T07:17:58.246Z</time></trkpt><trkpt lat="45.5393674" lon="11.8268072"><ele>21.857142857142858</ele><time>2026-04-29T07:17:59.245Z</time></trkpt><trkpt lat="45.539345" lon="11.8267074"><ele>22.0</ele><time>2026-04-29T07:18:00.245Z</time></trkpt><trkpt lat="45.5393214" lon="11.8266152"><ele>22.285714285714285</ele><time>2026-04-29T07:18:01.245Z</time></trkpt><trkpt lat="45.5393038" lon="11.8265256"><ele>22.57142857142857</ele><time>2026-04-29T07:18:02.246Z</time></trkpt><trkpt lat="45.5392815" lon="11.8264354"><ele>22.857142857142854</ele><time>2026-04-29T07:18:03.245Z</time></trkpt><trkpt lat="45.5392674" lon="11.8263289"><ele>23.142857142857142</ele><time>2026-04-29T07:18:04.246Z</time></trkpt><trkpt lat="45.5392443" lon="11.8262292"><ele>23.428571428571427</ele><time>2026-04-29T07:18:05.246Z</time></trkpt><trkpt lat="45.5392213" lon="11.8261316"><ele>23.71428571428571</ele><time>2026-04-29T07:18:06.245Z</time></trkpt><trkpt lat="45.5391982" lon="11.8260398"><ele>24.0</ele><time>2026-04-29T07:18:07.245Z</time></trkpt><trkpt lat="45.539176" lon="11.8259491"><ele>24.142857142857142</ele><time>2026-04-29T07:18:08.246Z</time></trkpt><trkpt lat="45.5391525" lon="11.8258542"><ele>24.285714285714285</ele><time>2026-04-29T07:18:09.245Z</time></trkpt><trkpt lat="45.5391296" lon="11.8257559"><ele>24.42857142857143</ele><time>2026-04-29T07:18:10.246Z</time></trkpt><trkpt lat="45.539108" lon="11.8256624"><ele>24.57142857142857</ele><time>2026-04-29T07:18:11.245Z</time></trkpt><trkpt lat="45.539091" lon="11.8255671"><ele>24.714285714285715</ele><time>2026-04-29T07:18:12.245Z</time></trkpt><trkpt lat="45.5390755" lon="11.8254744"><ele>24.857142857142858</ele><time>2026-04-29T07:18:13.245Z</time></trkpt><trkpt lat="45.539057" lon="11.8253864"><ele>25.0</ele><time>2026-04-29T07:18:14.245Z</time></trkpt><trkpt lat="45.5390318" lon="11.8252243"><ele>24.6</ele><time>2026-04-29T07:18:16.245Z</time></trkpt><trkpt lat="45.5390018" lon="11.8250698"><ele>24.2</ele><time>2026-04-29T07:18:18.245Z</time></trkpt><trkpt lat="45.5389721" lon="11.8249191"><ele>23.799999999999997</ele><time>2026-04-29T07:18:20.246Z</time></trkpt><trkpt lat="45.5389555" lon="11.8247726"><ele>23.4</ele><time>2026-04-29T07:18:22.245Z</time></trkpt><trkpt lat="45.5389433" lon="11.8246191"><ele>23.0</ele><time>2026-04-29T07:18:24.245Z</time></trkpt><trkpt lat="45.538937" lon="11.8244578"><ele>23.2</ele><time>2026-04-29T07:18:26.245Z</time></trkpt><trkpt lat="45.5388997" lon="11.824306"><ele>23.4</ele><time>2026-04-29T07:18:28.245Z</time></trkpt><trkpt lat="45.5388604" lon="11.8241653"><ele>23.599999999999998</ele><time>2026-04-29T07:18:30.245Z</time></trkpt><trkpt lat="45.5388216" lon="11.8240187"><ele>23.799999999999997</ele><time>2026-04-29T07:18:32.245Z</time></trkpt><trkpt lat="45.5388066" lon="11.8238875"><ele>24.0</ele><time>2026-04-29T07:18:34.245Z</time></trkpt><trkpt lat="45.5388326" lon="11.8237907"><ele>24.0</ele><time>2026-04-29T07:18:36.246Z</time></trkpt><trkpt lat="45.5389064" lon="11.8237528"><ele>24.0</ele><time>2026-04-29T07:18:39.245Z</time></trkpt><trkpt lat="45.5389542" lon="11.823684"><ele>24.0</ele><time>2026-04-29T07:18:42.245Z</time></trkpt><trkpt lat="45.5388808" lon="11.823657"><ele>24.0</ele><time>2026-04-29T07:18:45.245Z</time></trkpt><trkpt lat="45.5388026" lon="11.8236523"><ele>24.0</ele><time>2026-04-29T07:18:47.245Z</time></trkpt><trkpt lat="45.5387641" lon="11.8235648"><ele>24.0</ele><time>2026-04-29T07:18:49.245Z</time></trkpt><trkpt lat="45.5387515" lon="11.823443"><ele>23.833333333333332</ele><time>2026-04-29T07:18:51.245Z</time></trkpt><trkpt lat="45.5387622" lon="11.8233022"><ele>23.666666666666668</ele><time>2026-04-29T07:18:53.245Z</time></trkpt><trkpt lat="45.5387558" lon="11.8231422"><ele>23.5</ele><time>2026-04-29T07:18:55.246Z</time></trkpt><trkpt lat="45.5387404" lon="11.8230545"><ele>23.333333333333336</ele><time>2026-04-29T07:18:56.245Z</time></trkpt><trkpt lat="45.5387276" lon="11.8229646"><ele>23.166666666666668</ele><time>2026-04-29T07:18:57.245Z</time></trkpt><trkpt lat="45.5387171" lon="11.8228713"><ele>23.0</ele><time>2026-04-29T07:18:58.246Z</time></trkpt><trkpt lat="45.5387045" lon="11.8227743"><ele>23.0</ele><time>2026-04-29T07:18:59.245Z</time></trkpt><trkpt lat="45.5386794" lon="11.822678"><ele>23.0</ele><time>2026-04-29T07:19:00.245Z</time></trkpt><trkpt lat="45.5386646" lon="11.822581"><ele>23.0</ele><time>2026-04-29T07:19:01.245Z</time></trkpt><trkpt lat="45.5386414" lon="11.8224866"><ele>23.0</ele><time>2026-04-29T07:19:02.245Z</time></trkpt><trkpt lat="45.5386155" lon="11.8224017"><ele>23.0</ele><time>2026-04-29T07:19:03.246Z</time></trkpt><trkpt lat="45.5385934" lon="11.8223121"><ele>23.0</ele><time>2026-04-29T07:19:04.245Z</time></trkpt><trkpt lat="45.5385761" lon="11.82222"><ele>23.0</ele><time>2026-04-29T07:19:05.245Z</time></trkpt><trkpt lat="45.5385604" lon="11.8221286"><ele>23.0</ele><time>2026-04-29T07:19:06.245Z</time></trkpt><trkpt lat="45.5385473" lon="11.8220396"><ele>23.0</ele><time>2026-04-29T07:19:07.245Z</time></trkpt><trkpt lat="45.5385306" lon="11.8219468"><ele>23.0</ele><time>2026-04-29T07:19:08.246Z</time></trkpt><trkpt lat="45.5385178" lon="11.8218502"><ele>23.0</ele><time>2026-04-29T07:19:09.244Z</time></trkpt><trkpt lat="45.5385078" lon="11.8217544"><ele>23.0</ele><time>2026-04-29T07:19:10.244Z</time></trkpt><trkpt lat="45.5384962" lon="11.8216604"><ele>23.0</ele><time>2026-04-29T07:19:11.245Z</time></trkpt><trkpt lat="45.538482" lon="11.821566"><ele>23.0</ele><time>2026-04-29T07:19:12.245Z</time></trkpt><trkpt lat="45.5384792" lon="11.8214073"><ele>23.0</ele><time>2026-04-29T07:19:14.244Z</time></trkpt><trkpt lat="45.538468" lon="11.8212609"><ele>23.0</ele><time>2026-04-29T07:19:16.244Z</time></trkpt><trkpt lat="45.5384585" lon="11.8211186"><ele>23.0</ele><time>2026-04-29T07:19:18.245Z</time></trkpt><trkpt lat="45.5384479" lon="11.8209913"><ele>23.0</ele><time>2026-04-29T07:19:20.245Z</time></trkpt><trkpt lat="45.5384451" lon="11.8208709"><ele>23.0</ele><time>2026-04-29T07:19:22.244Z</time></trkpt><trkpt lat="45.5384262" lon="11.820752"><ele>22.799999999999997</ele><time>2026-04-29T07:19:24.245Z</time></trkpt><trkpt lat="45.5384147" lon="11.8206312"><ele>22.6</ele><time>2026-04-29T07:19:26.244Z</time></trkpt><trkpt lat="45.5384115" lon="11.8204966"><ele>22.4</ele><time>2026-04-29T07:19:28.244Z</time></trkpt><trkpt lat="45.5384101" lon="11.8203161"><ele>22.200000000000003</ele><time>2026-04-29T07:19:30.245Z</time></trkpt><trkpt lat="45.5384051" lon="11.8202156"><ele>22.0</ele><time>2026-04-29T07:19:31.244Z</time></trkpt><trkpt lat="45.538404" lon="11.8201059"><ele>21.666666666666664</ele><time>2026-04-29T07:19:32.245Z</time></trkpt><trkpt lat="45.538403" lon="11.8199947"><ele>21.333333333333332</ele><time>2026-04-29T07:19:33.244Z</time></trkpt><trkpt lat="45.5383927" lon="11.8198801"><ele>21.0</ele><time>2026-04-29T07:19:34.244Z</time></trkpt><trkpt lat="45.5383879" lon="11.8197703"><ele>20.666666666666668</ele><time>2026-04-29T07:19:35.244Z</time></trkpt><trkpt lat="45.5383828" lon="11.8196564"><ele>20.333333333333336</ele><time>2026-04-29T07:19:36.244Z</time></trkpt><trkpt lat="45.538377" lon="11.8195391"><ele>20.0</ele><time>2026-04-29T07:19:37.244Z</time></trkpt><trkpt lat="45.5383712" lon="11.819423"><ele>19.833333333333336</ele><time>2026-04-29T07:19:38.245Z</time></trkpt><trkpt lat="45.5383645" lon="11.8193127"><ele>19.666666666666668</ele><time>2026-04-29T07:19:39.244Z</time></trkpt><trkpt lat="45.5383583" lon="11.8192073"><ele>19.5</ele><time>2026-04-29T07:19:40.244Z</time></trkpt><trkpt lat="45.5383562" lon="11.8191006"><ele>19.333333333333332</ele><time>2026-04-29T07:19:41.244Z</time></trkpt><trkpt lat="45.5383531" lon="11.8189868"><ele>19.166666666666664</ele><time>2026-04-29T07:19:42.244Z</time></trkpt><trkpt lat="45.5383476" lon="11.8188767"><ele>19.0</ele><time>2026-04-29T07:19:43.245Z</time></trkpt><trkpt lat="45.5383488" lon="11.8187678"><ele>19.0</ele><time>2026-04-29T07:19:44.245Z</time></trkpt><trkpt lat="45.5383499" lon="11.8186605"><ele>19.0</ele><time>2026-04-29T07:19:45.244Z</time></trkpt><trkpt lat="45.5383503" lon="11.8185473"><ele>19.0</ele><time>2026-04-29T07:19:46.244Z</time></trkpt><trkpt lat="45.538346" lon="11.818442"><ele>19.0</ele><time>2026-04-29T07:19:47.244Z</time></trkpt><trkpt lat="45.5383454" lon="11.818341"><ele>19.0</ele><time>2026-04-29T07:19:48.245Z</time></trkpt><trkpt lat="45.5383486" lon="11.8182352"><ele>19.0</ele><time>2026-04-29T07:19:49.244Z</time></trkpt><trkpt lat="45.5383504" lon="11.8181261"><ele>19.0</ele><time>2026-04-29T07:19:50.245Z</time></trkpt><trkpt lat="45.5383528" lon="11.8180201"><ele>19.0</ele><time>2026-04-29T07:19:51.244Z</time></trkpt><trkpt lat="45.5383533" lon="11.8179073"><ele>19.0</ele><time>2026-04-29T07:19:52.244Z</time></trkpt><trkpt lat="45.5383568" lon="11.8177969"><ele>19.0</ele><time>2026-04-29T07:19:53.244Z</time></trkpt><trkpt lat="45.5383569" lon="11.8176898"><ele>19.0</ele><time>2026-04-29T07:19:54.244Z</time></trkpt><trkpt lat="45.5383477" lon="11.8175786"><ele>19.0</ele><time>2026-04-29T07:19:55.244Z</time></trkpt><trkpt lat="45.5383446" lon="11.8174659"><ele>19.0</ele><time>2026-04-29T07:19:56.244Z</time></trkpt><trkpt lat="45.5383397" lon="11.8173642"><ele>19.0</ele><time>2026-04-29T07:19:57.244Z</time></trkpt><trkpt lat="45.5383364" lon="11.8172606"><ele>19.0</ele><time>2026-04-29T07:19:58.244Z</time></trkpt><trkpt lat="45.5383346" lon="11.8171693"><ele>19.0</ele><time>2026-04-29T07:19:59.245Z</time></trkpt><trkpt lat="45.5383334" lon="11.8170714"><ele>19.0</ele><time>2026-04-29T07:20:00.245Z</time></trkpt><trkpt lat="45.5383333" lon="11.8169789"><ele>19.0</ele><time>2026-04-29T07:20:01.244Z</time></trkpt><trkpt lat="45.5383341" lon="11.8168108"><ele>19.0</ele><time>2026-04-29T07:20:03.245Z</time></trkpt><trkpt lat="45.5383333" lon="11.816643"><ele>19.0</ele><time>2026-04-29T07:20:05.244Z</time></trkpt><trkpt lat="45.5383287" lon="11.8164681"><ele>19.0</ele><time>2026-04-29T07:20:07.244Z</time></trkpt><trkpt lat="45.5383177" lon="11.8163159"><ele>19.0</ele><time>2026-04-29T07:20:09.244Z</time></trkpt><trkpt lat="45.5383357" lon="11.816209"><ele>19.0</ele><time>2026-04-29T07:20:11.244Z</time></trkpt><trkpt lat="45.538331" lon="11.8160862"><ele>19.25</ele><time>2026-04-29T07:20:13.245Z</time></trkpt><trkpt lat="45.5383269" lon="11.8159313"><ele>19.5</ele><time>2026-04-29T07:20:15.245Z</time></trkpt><trkpt lat="45.5383254" lon="11.8157754"><ele>19.75</ele><time>2026-04-29T07:20:17.245Z</time></trkpt><trkpt lat="45.5383218" lon="11.8156033"><ele>20.0</ele><time>2026-04-29T07:20:19.244Z</time></trkpt><trkpt lat="45.5383183" lon="11.8154258"><ele>20.0</ele><time>2026-04-29T07:20:21.244Z</time></trkpt><trkpt lat="45.5383179" lon="11.8153348"><ele>20.0</ele><time>2026-04-29T07:20:22.245Z</time></trkpt><trkpt lat="45.5383158" lon="11.8151595"><ele>20.0</ele><time>2026-04-29T07:20:24.244Z</time></trkpt><trkpt lat="45.5383176" lon="11.8149838"><ele>20.0</ele><time>2026-04-29T07:20:26.244Z</time></trkpt><trkpt lat="45.5383185" lon="11.814885"><ele>20.0</ele><time>2026-04-29T07:20:27.245Z</time></trkpt><trkpt lat="45.5383209" lon="11.8147854"><ele>20.0</ele><time>2026-04-29T07:20:28.244Z</time></trkpt><trkpt lat="45.538324" lon="11.8146871"><ele>20.0</ele><time>2026-04-29T07:20:29.244Z</time></trkpt><trkpt lat="45.5383245" lon="11.8145889"><ele>20.0</ele><time>2026-04-29T07:20:30.244Z</time></trkpt><trkpt lat="45.5383228" lon="11.8144828"><ele>20.0</ele><time>2026-04-29T07:20:31.245Z</time></trkpt><trkpt lat="45.5383167" lon="11.8143791"><ele>20.0</ele><time>2026-04-29T07:20:32.244Z</time></trkpt><trkpt lat="45.5383135" lon="11.8142784"><ele>20.0</ele><time>2026-04-29T07:20:33.245Z</time></trkpt><trkpt lat="45.5383124" lon="11.8141857"><ele>20.0</ele><time>2026-04-29T07:20:34.244Z</time></trkpt><trkpt lat="45.5383116" lon="11.8140955"><ele>20.0</ele><time>2026-04-29T07:20:35.244Z</time></trkpt><trkpt lat="45.5383058" lon="11.8139249"><ele>20.0</ele><time>2026-04-29T07:20:37.245Z</time></trkpt><trkpt lat="45.5383016" lon="11.8137711"><ele>20.0</ele><time>2026-04-29T07:20:39.244Z</time></trkpt><trkpt lat="45.5382901" lon="11.8136363"><ele>20.0</ele><time>2026-04-29T07:20:41.244Z</time></trkpt><trkpt lat="45.5382897" lon="11.8135159"><ele>20.0</ele><time>2026-04-29T07:20:43.244Z</time></trkpt><trkpt lat="45.5382941" lon="11.8134083"><ele>20.0</ele><time>2026-04-29T07:20:45.244Z</time></trkpt><trkpt lat="45.5382929" lon="11.8133002"><ele>20.0</ele><time>2026-04-29T07:20:47.245Z</time></trkpt><trkpt lat="45.538295" lon="11.813171"><ele>20.0</ele><time>2026-04-29T07:20:49.244Z</time></trkpt><trkpt lat="45.5382815" lon="11.8130336"><ele>20.0</ele><time>2026-04-29T07:20:51.244Z</time></trkpt><trkpt lat="45.5382821" lon="11.8128539"><ele>20.0</ele><time>2026-04-29T07:20:53.244Z</time></trkpt><trkpt lat="45.5382827" lon="11.812747"><ele>20.0</ele><time>2026-04-29T07:20:54.244Z</time></trkpt><trkpt lat="45.5382796" lon="11.8126362"><ele>20.0</ele><time>2026-04-29T07:20:55.244Z</time></trkpt><trkpt lat="45.5382741" lon="11.8125285"><ele>20.142857142857142</ele><time>2026-04-29T07:20:56.244Z</time></trkpt><trkpt lat="45.5382717" lon="11.8124291"><ele>20.285714285714285</ele><time>2026-04-29T07:20:57.245Z</time></trkpt><trkpt lat="45.5382791" lon="11.8123326"><ele>20.42857142857143</ele><time>2026-04-29T07:20:58.244Z</time></trkpt><trkpt lat="45.5382827" lon="11.812233"><ele>20.57142857142857</ele><time>2026-04-29T07:20:59.244Z</time></trkpt><trkpt lat="45.53828" lon="11.8121412"><ele>20.714285714285715</ele><time>2026-04-29T07:21:00.245Z</time></trkpt><trkpt lat="45.5382826" lon="11.8120365"><ele>20.857142857142858</ele><time>2026-04-29T07:21:01.245Z</time></trkpt><trkpt lat="45.5382789" lon="11.8119409"><ele>21.0</ele><time>2026-04-29T07:21:02.244Z</time></trkpt><trkpt lat="45.5382731" lon="11.8117645"><ele>21.0</ele><time>2026-04-29T07:21:04.244Z</time></trkpt><trkpt lat="45.5382649" lon="11.8115875"><ele>21.0</ele><time>2026-04-29T07:21:06.244Z</time></trkpt><trkpt lat="45.5382631" lon="11.8114816"><ele>21.0</ele><time>2026-04-29T07:21:07.244Z</time></trkpt><trkpt lat="45.5382693" lon="11.811386"><ele>21.0</ele><time>2026-04-29T07:21:08.244Z</time></trkpt><trkpt lat="45.5382763" lon="11.81129"><ele>21.0</ele><time>2026-04-29T07:21:09.244Z</time></trkpt><trkpt lat="45.5382751" lon="11.8111937"><ele>21.0</ele><time>2026-04-29T07:21:10.244Z</time></trkpt><trkpt lat="45.5382735" lon="11.8110913"><ele>21.0</ele><time>2026-04-29T07:21:11.244Z</time></trkpt><trkpt lat="45.5382744" lon="11.8109928"><ele>21.0</ele><time>2026-04-29T07:21:12.244Z</time></trkpt><trkpt lat="45.5382758" lon="11.8108984"><ele>21.0</ele><time>2026-04-29T07:21:13.245Z</time></trkpt><trkpt lat="45.53827" lon="11.8107958"><ele>21.0</ele><time>2026-04-29T07:21:14.245Z</time></trkpt><trkpt lat="45.5382677" lon="11.8106954"><ele>21.0</ele><time>2026-04-29T07:21:15.245Z</time></trkpt><trkpt lat="45.5382681" lon="11.8105927"><ele>21.0</ele><time>2026-04-29T07:21:16.244Z</time></trkpt><trkpt lat="45.5382703" lon="11.8104927"><ele>21.0</ele><time>2026-04-29T07:21:17.244Z</time></trkpt><trkpt lat="45.5382657" lon="11.8103937"><ele>21.0</ele><time>2026-04-29T07:21:18.244Z</time></trkpt><trkpt lat="45.5382615" lon="11.8102971"><ele>21.0</ele><time>2026-04-29T07:21:19.245Z</time></trkpt><trkpt lat="45.538259" lon="11.8102011"><ele>21.0</ele><time>2026-04-29T07:21:20.245Z</time></trkpt><trkpt lat="45.5382571" lon="11.8100188"><ele>21.0</ele><time>2026-04-29T07:21:22.245Z</time></trkpt><trkpt lat="45.5382555" lon="11.8099234"><ele>21.0</ele><time>2026-04-29T07:21:23.244Z</time></trkpt><trkpt lat="45.538255" lon="11.8098275"><ele>21.0</ele><time>2026-04-29T07:21:24.244Z</time></trkpt><trkpt lat="45.5382522" lon="11.8097307"><ele>21.166666666666668</ele><time>2026-04-29T07:21:25.245Z</time></trkpt><trkpt lat="45.5382493" lon="11.8096383"><ele>21.333333333333332</ele><time>2026-04-29T07:21:26.244Z</time></trkpt><trkpt lat="45.5382468" lon="11.8094599"><ele>21.5</ele><time>2026-04-29T07:21:28.244Z</time></trkpt><trkpt lat="45.5382436" lon="11.8093638"><ele>21.666666666666664</ele><time>2026-04-29T07:21:29.244Z</time></trkpt><trkpt lat="45.5382447" lon="11.8092728"><ele>21.833333333333332</ele><time>2026-04-29T07:21:30.244Z</time></trkpt><trkpt lat="45.5382436" lon="11.8091806"><ele>22.0</ele><time>2026-04-29T07:21:31.244Z</time></trkpt><trkpt lat="45.5382486" lon="11.8090107"><ele>22.0</ele><time>2026-04-29T07:21:33.244Z</time></trkpt><trkpt lat="45.5382509" lon="11.8088649"><ele>22.0</ele><time>2026-04-29T07:21:35.244Z</time></trkpt><trkpt lat="45.5382468" lon="11.8087109"><ele>22.0</ele><time>2026-04-29T07:21:37.245Z</time></trkpt><trkpt lat="45.5382413" lon="11.8085704"><ele>22.0</ele><time>2026-04-29T07:21:39.244Z</time></trkpt><trkpt lat="45.5382387" lon="11.8084332"><ele>22.0</ele><time>2026-04-29T07:21:41.245Z</time></trkpt><trkpt lat="45.5382347" lon="11.8082904"><ele>21.25</ele><time>2026-04-29T07:21:43.244Z</time></trkpt><trkpt lat="45.538224" lon="11.80814"><ele>20.5</ele><time>2026-04-29T07:21:45.244Z</time></trkpt><trkpt lat="45.5382185" lon="11.8079759"><ele>19.75</ele><time>2026-04-29T07:21:47.244Z</time></trkpt><trkpt lat="45.5382189" lon="11.8078001"><ele>19.0</ele><time>2026-04-29T07:21:49.245Z</time></trkpt><trkpt lat="45.538218" lon="11.8076201"><ele>18.71428571428571</ele><time>2026-04-29T07:21:51.244Z</time></trkpt><trkpt lat="45.5382191" lon="11.8075238"><ele>18.42857142857143</ele><time>2026-04-29T07:21:52.244Z</time></trkpt><trkpt lat="45.5382198" lon="11.8074305"><ele>18.142857142857142</ele><time>2026-04-29T07:21:53.244Z</time></trkpt><trkpt lat="45.5382186" lon="11.807337"><ele>17.857142857142854</ele><time>2026-04-29T07:21:54.244Z</time></trkpt><trkpt lat="45.5382194" lon="11.8072352"><ele>17.57142857142857</ele><time>2026-04-29T07:21:55.244Z</time></trkpt><trkpt lat="45.5382205" lon="11.8071319"><ele>17.285714285714285</ele><time>2026-04-29T07:21:56.244Z</time></trkpt><trkpt lat="45.5382244" lon="11.8070278"><ele>17.0</ele><time>2026-04-29T07:21:57.244Z</time></trkpt><trkpt lat="45.5382225" lon="11.8069292"><ele>17.666666666666668</ele><time>2026-04-29T07:21:58.244Z</time></trkpt><trkpt lat="45.5382161" lon="11.806825"><ele>18.333333333333336</ele><time>2026-04-29T07:21:59.244Z</time></trkpt><trkpt lat="45.5382146" lon="11.8067218"><ele>19.0</ele><time>2026-04-29T07:22:00.245Z</time></trkpt><trkpt lat="45.538212" lon="11.8066165"><ele>19.666666666666668</ele><time>2026-04-29T07:22:01.244Z</time></trkpt><trkpt lat="45.5382068" lon="11.8064999"><ele>20.333333333333332</ele><time>2026-04-29T07:22:02.244Z</time></trkpt><trkpt lat="45.538207" lon="11.8063887"><ele>21.0</ele><time>2026-04-29T07:22:03.244Z</time></trkpt><trkpt lat="45.5382052" lon="11.8062865"><ele>21.0</ele><time>2026-04-29T07:22:04.245Z</time></trkpt><trkpt lat="45.5382008" lon="11.8061838"><ele>21.0</ele><time>2026-04-29T07:22:05.244Z</time></trkpt><trkpt lat="45.5381976" lon="11.8060768"><ele>21.0</ele><time>2026-04-29T07:22:06.244Z</time></trkpt><trkpt lat="45.5381973" lon="11.8059708"><ele>21.0</ele><time>2026-04-29T07:22:07.245Z</time></trkpt><trkpt lat="45.5381936" lon="11.8058633"><ele>21.0</ele><time>2026-04-29T07:22:08.245Z</time></trkpt><trkpt lat="45.5381926" lon="11.8057576"><ele>21.0</ele><time>2026-04-29T07:22:09.245Z</time></trkpt><trkpt lat="45.5381844" lon="11.8056482"><ele>21.0</ele><time>2026-04-29T07:22:10.244Z</time></trkpt><trkpt lat="45.5381805" lon="11.8055444"><ele>21.142857142857142</ele><time>2026-04-29T07:22:11.244Z</time></trkpt><trkpt lat="45.5381732" lon="11.8054329"><ele>21.285714285714285</ele><time>2026-04-29T07:22:12.245Z</time></trkpt><trkpt lat="45.5381682" lon="11.8053249"><ele>21.42857142857143</ele><time>2026-04-29T07:22:13.244Z</time></trkpt><trkpt lat="45.5381647" lon="11.8052142"><ele>21.57142857142857</ele><time>2026-04-29T07:22:14.244Z</time></trkpt><trkpt lat="45.538155" lon="11.8051088"><ele>21.714285714285715</ele><time>2026-04-29T07:22:15.245Z</time></trkpt><trkpt lat="45.538145" lon="11.8050065"><ele>21.857142857142858</ele><time>2026-04-29T07:22:16.245Z</time></trkpt><trkpt lat="45.538138" lon="11.8049066"><ele>22.0</ele><time>2026-04-29T07:22:17.244Z</time></trkpt><trkpt lat="45.5381285" lon="11.804806"><ele>22.166666666666664</ele><time>2026-04-29T07:22:18.244Z</time></trkpt><trkpt lat="45.5381245" lon="11.804703"><ele>22.333333333333332</ele><time>2026-04-29T07:22:19.244Z</time></trkpt><trkpt lat="45.5381156" lon="11.8045954"><ele>22.5</ele><time>2026-04-29T07:22:20.244Z</time></trkpt><trkpt lat="45.5381079" lon="11.8044885"><ele>22.666666666666668</ele><time>2026-04-29T07:22:21.245Z</time></trkpt><trkpt lat="45.5380989" lon="11.8043835"><ele>22.833333333333336</ele><time>2026-04-29T07:22:22.244Z</time></trkpt><trkpt lat="45.5380922" lon="11.8042695"><ele>23.0</ele><time>2026-04-29T07:22:23.244Z</time></trkpt><trkpt lat="45.5380825" lon="11.8041583"><ele>22.666666666666668</ele><time>2026-04-29T07:22:24.244Z</time></trkpt><trkpt lat="45.538069" lon="11.8040519"><ele>22.333333333333336</ele><time>2026-04-29T07:22:25.245Z</time></trkpt><trkpt lat="45.5380517" lon="11.8039389"><ele>22.0</ele><time>2026-04-29T07:22:26.244Z</time></trkpt><trkpt lat="45.5380358" lon="11.8038271"><ele>21.666666666666668</ele><time>2026-04-29T07:22:27.244Z</time></trkpt><trkpt lat="45.5380241" lon="11.8037184"><ele>21.333333333333332</ele><time>2026-04-29T07:22:28.244Z</time></trkpt><trkpt lat="45.538007" lon="11.80361"><ele>21.0</ele><time>2026-04-29T07:22:29.245Z</time></trkpt><trkpt lat="45.5379911" lon="11.8035126"><ele>21.0</ele><time>2026-04-29T07:22:30.244Z</time></trkpt><trkpt lat="45.5379795" lon="11.8034124"><ele>21.0</ele><time>2026-04-29T07:22:31.245Z</time></trkpt><trkpt lat="45.5379648" lon="11.8033055"><ele>21.0</ele><time>2026-04-29T07:22:32.244Z</time></trkpt><trkpt lat="45.5379461" lon="11.8031965"><ele>21.0</ele><time>2026-04-29T07:22:33.244Z</time></trkpt><trkpt lat="45.5379328" lon="11.8030899"><ele>21.0</ele><time>2026-04-29T07:22:34.245Z</time></trkpt><trkpt lat="45.5379176" lon="11.8029858"><ele>21.0</ele><time>2026-04-29T07:22:35.244Z</time></trkpt><trkpt lat="45.5379004" lon="11.8028802"><ele>21.0</ele><time>2026-04-29T07:22:36.245Z</time></trkpt><trkpt lat="45.5378814" lon="11.8027718"><ele>21.0</ele><time>2026-04-29T07:22:37.244Z</time></trkpt><trkpt lat="45.5378664" lon="11.8026708"><ele>21.0</ele><time>2026-04-29T07:22:38.244Z</time></trkpt><trkpt lat="45.5378523" lon="11.8025749"><ele>21.0</ele><time>2026-04-29T07:22:39.244Z</time></trkpt><trkpt lat="45.5378353" lon="11.8024766"><ele>21.0</ele><time>2026-04-29T07:22:40.244Z</time></trkpt><trkpt lat="45.5378156" lon="11.802384"><ele>21.0</ele><time>2026-04-29T07:22:41.244Z</time></trkpt><trkpt lat="45.5377992" lon="11.8022914"><ele>21.0</ele><time>2026-04-29T07:22:42.244Z</time></trkpt><trkpt lat="45.5377834" lon="11.8022015"><ele>20.857142857142858</ele><time>2026-04-29T07:22:43.245Z</time></trkpt><trkpt lat="45.5377698" lon="11.8021087"><ele>20.714285714285715</ele><time>2026-04-29T07:22:44.244Z</time></trkpt><trkpt lat="45.5377513" lon="11.802017"><ele>20.57142857142857</ele><time>2026-04-29T07:22:45.244Z</time></trkpt><trkpt lat="45.53773" lon="11.8019176"><ele>20.42857142857143</ele><time>2026-04-29T07:22:46.244Z</time></trkpt><trkpt lat="45.537706" lon="11.8018182"><ele>20.285714285714285</ele><time>2026-04-29T07:22:47.244Z</time></trkpt><trkpt lat="45.5376869" lon="11.8017172"><ele>20.142857142857142</ele><time>2026-04-29T07:22:48.245Z</time></trkpt><trkpt lat="45.5376643" lon="11.8016184"><ele>20.0</ele><time>2026-04-29T07:22:49.244Z</time></trkpt><trkpt lat="45.537642" lon="11.8015238"><ele>20.0</ele><time>2026-04-29T07:22:50.244Z</time></trkpt><trkpt lat="45.5376149" lon="11.8014276"><ele>20.0</ele><time>2026-04-29T07:22:51.245Z</time></trkpt><trkpt lat="45.537589" lon="11.8013233"><ele>20.0</ele><time>2026-04-29T07:22:52.244Z</time></trkpt><trkpt lat="45.5375661" lon="11.8012151"><ele>20.0</ele><time>2026-04-29T07:22:53.244Z</time></trkpt><trkpt lat="45.5375422" lon="11.8011069"><ele>20.0</ele><time>2026-04-29T07:22:54.245Z</time></trkpt><trkpt lat="45.5375191" lon="11.8010029"><ele>20.0</ele><time>2026-04-29T07:22:55.244Z</time></trkpt><trkpt lat="45.5374937" lon="11.8008989"><ele>20.166666666666668</ele><time>2026-04-29T07:22:56.244Z</time></trkpt><trkpt lat="45.5374698" lon="11.8007971"><ele>20.333333333333336</ele><time>2026-04-29T07:22:57.244Z</time></trkpt><trkpt lat="45.5374434" lon="11.8006919"><ele>20.5</ele><time>2026-04-29T07:22:58.244Z</time></trkpt><trkpt lat="45.5374186" lon="11.8005859"><ele>20.666666666666668</ele><time>2026-04-29T07:22:59.245Z</time></trkpt><trkpt lat="45.5373926" lon="11.8004871"><ele>20.833333333333332</ele><time>2026-04-29T07:23:00.245Z</time></trkpt><trkpt lat="45.537366" lon="11.8003874"><ele>21.0</ele><time>2026-04-29T07:23:01.245Z</time></trkpt><trkpt lat="45.5373381" lon="11.8002856"><ele>21.0</ele><time>2026-04-29T07:23:02.244Z</time></trkpt><trkpt lat="45.5373137" lon="11.8001827"><ele>21.0</ele><time>2026-04-29T07:23:03.244Z</time></trkpt><trkpt lat="45.5372908" lon="11.8000823"><ele>21.0</ele><time>2026-04-29T07:23:04.244Z</time></trkpt><trkpt lat="45.5372665" lon="11.7999844"><ele>21.0</ele><time>2026-04-29T07:23:05.244Z</time></trkpt><trkpt lat="45.53724" lon="11.799885"><ele>21.0</ele><time>2026-04-29T07:23:06.245Z</time></trkpt><trkpt lat="45.53721" lon="11.7997896"><ele>21.0</ele><time>2026-04-29T07:23:07.244Z</time></trkpt><trkpt lat="45.5371835" lon="11.7996933"><ele>21.0</ele><time>2026-04-29T07:23:08.245Z</time></trkpt><trkpt lat="45.5371546" lon="11.7995997"><ele>21.0</ele><time>2026-04-29T07:23:09.244Z</time></trkpt><trkpt lat="45.5371244" lon="11.7995039"><ele>21.0</ele><time>2026-04-29T07:23:10.245Z</time></trkpt><trkpt lat="45.5370994" lon="11.799406"><ele>21.0</ele><time>2026-04-29T07:23:11.245Z</time></trkpt><trkpt lat="45.5370784" lon="11.7993051"><ele>21.0</ele><time>2026-04-29T07:23:12.244Z</time></trkpt><trkpt lat="45.5370505" lon="11.7992121"><ele>21.0</ele><time>2026-04-29T07:23:13.245Z</time></trkpt><trkpt lat="45.537025" lon="11.7991168"><ele>21.0</ele><time>2026-04-29T07:23:14.244Z</time></trkpt><trkpt lat="45.5370031" lon="11.7990188"><ele>21.0</ele><time>2026-04-29T07:23:15.244Z</time></trkpt><trkpt lat="45.536986" lon="11.7989208"><ele>21.0</ele><time>2026-04-29T07:23:16.245Z</time></trkpt><trkpt lat="45.5369636" lon="11.798828"><ele>21.0</ele><time>2026-04-29T07:23:17.244Z</time></trkpt><trkpt lat="45.5369376" lon="11.7987275"><ele>21.0</ele><time>2026-04-29T07:23:18.244Z</time></trkpt><trkpt lat="45.5369091" lon="11.7986355"><ele>21.0</ele><time>2026-04-29T07:23:19.244Z</time></trkpt><trkpt lat="45.5368838" lon="11.7985392"><ele>21.0</ele><time>2026-04-29T07:23:20.245Z</time></trkpt><trkpt lat="45.5368594" lon="11.7984449"><ele>21.0</ele><time>2026-04-29T07:23:21.245Z</time></trkpt><trkpt lat="45.5368335" lon="11.7983526"><ele>21.0</ele><time>2026-04-29T07:23:22.245Z</time></trkpt><trkpt lat="45.5368146" lon="11.7982645"><ele>21.0</ele><time>2026-04-29T07:23:23.244Z</time></trkpt><trkpt lat="45.5367889" lon="11.7981676"><ele>21.0</ele><time>2026-04-29T07:23:24.244Z</time></trkpt><trkpt lat="45.5367678" lon="11.7980788"><ele>21.0</ele><time>2026-04-29T07:23:25.244Z</time></trkpt><trkpt lat="45.5367464" lon="11.7979913"><ele>21.0</ele><time>2026-04-29T07:23:26.245Z</time></trkpt><trkpt lat="45.5367218" lon="11.7978989"><ele>21.0</ele><time>2026-04-29T07:23:27.245Z</time></trkpt><trkpt lat="45.5367017" lon="11.7978108"><ele>21.0</ele><time>2026-04-29T07:23:28.244Z</time></trkpt><trkpt lat="45.5366594" lon="11.7976441"><ele>21.0</ele><time>2026-04-29T07:23:30.244Z</time></trkpt><trkpt lat="45.5366105" lon="11.7974831"><ele>21.0</ele><time>2026-04-29T07:23:32.244Z</time></trkpt><trkpt lat="45.536588" lon="11.7973939"><ele>21.0</ele><time>2026-04-29T07:23:33.245Z</time></trkpt><trkpt lat="45.5365695" lon="11.7973047"><ele>21.0</ele><time>2026-04-29T07:23:34.244Z</time></trkpt><trkpt lat="45.5365483" lon="11.7972085"><ele>21.0</ele><time>2026-04-29T07:23:35.245Z</time></trkpt><trkpt lat="45.5365242" lon="11.7971087"><ele>21.0</ele><time>2026-04-29T07:23:36.244Z</time></trkpt><trkpt lat="45.5364973" lon="11.7970118"><ele>21.0</ele><time>2026-04-29T07:23:37.244Z</time></trkpt><trkpt lat="45.5364757" lon="11.7969145"><ele>21.0</ele><time>2026-04-29T07:23:38.245Z</time></trkpt><trkpt lat="45.5364484" lon="11.796813"><ele>21.0</ele><time>2026-04-29T07:23:39.244Z</time></trkpt><trkpt lat="45.536419" lon="11.7967213"><ele>21.0</ele><time>2026-04-29T07:23:40.244Z</time></trkpt><trkpt lat="45.5363938" lon="11.7966212"><ele>21.0</ele><time>2026-04-29T07:23:41.244Z</time></trkpt><trkpt lat="45.5363718" lon="11.796525"><ele>21.0</ele><time>2026-04-29T07:23:42.244Z</time></trkpt><trkpt lat="45.5363487" lon="11.7964281"><ele>21.0</ele><time>2026-04-29T07:23:43.244Z</time></trkpt><trkpt lat="45.5363257" lon="11.7963286"><ele>21.0</ele><time>2026-04-29T07:23:44.244Z</time></trkpt><trkpt lat="45.5363" lon="11.7962307"><ele>21.0</ele><time>2026-04-29T07:23:45.244Z</time></trkpt><trkpt lat="45.5362729" lon="11.7961337"><ele>21.0</ele><time>2026-04-29T07:23:46.244Z</time></trkpt><trkpt lat="45.5362476" lon="11.7960434"><ele>21.0</ele><time>2026-04-29T07:23:47.244Z</time></trkpt><trkpt lat="45.5362203" lon="11.7959424"><ele>21.0</ele><time>2026-04-29T07:23:48.244Z</time></trkpt><trkpt lat="45.536192" lon="11.7958403"><ele>21.0</ele><time>2026-04-29T07:23:49.244Z</time></trkpt><trkpt lat="45.536164" lon="11.795735"><ele>21.0</ele><time>2026-04-29T07:23:50.244Z</time></trkpt><trkpt lat="45.5361384" lon="11.7956358"><ele>20.857142857142858</ele><time>2026-04-29T07:23:51.244Z</time></trkpt><trkpt lat="45.5361098" lon="11.7955322"><ele>20.714285714285715</ele><time>2026-04-29T07:23:52.244Z</time></trkpt><trkpt lat="45.5360854" lon="11.7954394"><ele>20.57142857142857</ele><time>2026-04-29T07:23:53.244Z</time></trkpt><trkpt lat="45.5360608" lon="11.7953381"><ele>20.42857142857143</ele><time>2026-04-29T07:23:54.244Z</time></trkpt><trkpt lat="45.5360351" lon="11.7952395"><ele>20.285714285714285</ele><time>2026-04-29T07:23:55.244Z</time></trkpt><trkpt lat="45.5360109" lon="11.7951364"><ele>20.142857142857142</ele><time>2026-04-29T07:23:56.244Z</time></trkpt><trkpt lat="45.5359872" lon="11.7950403"><ele>20.0</ele><time>2026-04-29T07:23:57.244Z</time></trkpt><trkpt lat="45.535962" lon="11.7949459"><ele>20.0</ele><time>2026-04-29T07:23:58.243Z</time></trkpt><trkpt lat="45.5359383" lon="11.7948515"><ele>20.0</ele><time>2026-04-29T07:23:59.243Z</time></trkpt><trkpt lat="45.5359157" lon="11.7947533"><ele>20.0</ele><time>2026-04-29T07:24:00.243Z</time></trkpt><trkpt lat="45.5358903" lon="11.7946541"><ele>20.0</ele><time>2026-04-29T07:24:01.243Z</time></trkpt><trkpt lat="45.535864" lon="11.7945565"><ele>20.0</ele><time>2026-04-29T07:24:02.244Z</time></trkpt><trkpt lat="45.5358422" lon="11.7944633"><ele>20.0</ele><time>2026-04-29T07:24:03.243Z</time></trkpt><trkpt lat="45.5358189" lon="11.7943622"><ele>20.0</ele><time>2026-04-29T07:24:04.244Z</time></trkpt><trkpt lat="45.5357934" lon="11.7942695"><ele>20.0</ele><time>2026-04-29T07:24:05.243Z</time></trkpt><trkpt lat="45.5357706" lon="11.7941829"><ele>20.0</ele><time>2026-04-29T07:24:06.243Z</time></trkpt><trkpt lat="45.5357367" lon="11.794092"><ele>20.0</ele><time>2026-04-29T07:24:07.244Z</time></trkpt><trkpt lat="45.5357095" lon="11.7939998"><ele>20.0</ele><time>2026-04-29T07:24:08.243Z</time></trkpt><trkpt lat="45.535684" lon="11.7939064"><ele>20.0</ele><time>2026-04-29T07:24:09.243Z</time></trkpt><trkpt lat="45.535658" lon="11.79381"><ele>20.0</ele><time>2026-04-29T07:24:10.243Z</time></trkpt><trkpt lat="45.5356351" lon="11.7937044"><ele>20.0</ele><time>2026-04-29T07:24:11.243Z</time></trkpt><trkpt lat="45.5356207" lon="11.7936058"><ele>20.285714285714285</ele><time>2026-04-29T07:24:12.244Z</time></trkpt><trkpt lat="45.5356004" lon="11.7935031"><ele>20.571428571428573</ele><time>2026-04-29T07:24:13.243Z</time></trkpt><trkpt lat="45.5355776" lon="11.7934101"><ele>20.857142857142858</ele><time>2026-04-29T07:24:14.243Z</time></trkpt><trkpt lat="45.5355531" lon="11.7933067"><ele>21.142857142857142</ele><time>2026-04-29T07:24:15.243Z</time></trkpt><trkpt lat="45.5355263" lon="11.7932068"><ele>21.428571428571427</ele><time>2026-04-29T07:24:16.243Z</time></trkpt><trkpt lat="45.5354951" lon="11.7931075"><ele>21.714285714285715</ele><time>2026-04-29T07:24:17.243Z</time></trkpt><trkpt lat="45.5354622" lon="11.7930094"><ele>22.0</ele><time>2026-04-29T07:24:18.243Z</time></trkpt><trkpt lat="45.5354317" lon="11.7929291"><ele>22.200000000000003</ele><time>2026-04-29T07:24:19.244Z</time></trkpt><trkpt lat="45.5353812" lon="11.7927701"><ele>22.4</ele><time>2026-04-29T07:24:21.243Z</time></trkpt><trkpt lat="45.5353597" lon="11.792681"><ele>22.6</ele><time>2026-04-29T07:24:22.243Z</time></trkpt><trkpt lat="45.5353361" lon="11.792587"><ele>22.799999999999997</ele><time>2026-04-29T07:24:23.243Z</time></trkpt><trkpt lat="45.535295" lon="11.7924061"><ele>23.0</ele><time>2026-04-29T07:24:25.243Z</time></trkpt><trkpt lat="45.5352729" lon="11.7923044"><ele>23.0</ele><time>2026-04-29T07:24:26.243Z</time></trkpt><trkpt lat="45.5352465" lon="11.792196"><ele>23.0</ele><time>2026-04-29T07:24:27.244Z</time></trkpt><trkpt lat="45.5352059" lon="11.7920179"><ele>23.0</ele><time>2026-04-29T07:24:29.243Z</time></trkpt><trkpt lat="45.5351787" lon="11.7919217"><ele>23.0</ele><time>2026-04-29T07:24:30.243Z</time></trkpt><trkpt lat="45.5351542" lon="11.7918247"><ele>23.0</ele><time>2026-04-29T07:24:31.243Z</time></trkpt><trkpt lat="45.535132" lon="11.791733"><ele>23.0</ele><time>2026-04-29T07:24:32.243Z</time></trkpt><trkpt lat="45.5351173" lon="11.7916436"><ele>23.0</ele><time>2026-04-29T07:24:33.244Z</time></trkpt><trkpt lat="45.5350951" lon="11.791549"><ele>23.0</ele><time>2026-04-29T07:24:34.243Z</time></trkpt><trkpt lat="45.5350709" lon="11.7914547"><ele>23.0</ele><time>2026-04-29T07:24:35.244Z</time></trkpt><trkpt lat="45.5350521" lon="11.7913627"><ele>23.0</ele><time>2026-04-29T07:24:36.244Z</time></trkpt><trkpt lat="45.5350323" lon="11.7912741"><ele>23.0</ele><time>2026-04-29T07:24:37.243Z</time></trkpt><trkpt lat="45.5350069" lon="11.7911913"><ele>23.0</ele><time>2026-04-29T07:24:38.243Z</time></trkpt><trkpt lat="45.5349758" lon="11.7911094"><ele>23.0</ele><time>2026-04-29T07:24:39.244Z</time></trkpt><trkpt lat="45.5349505" lon="11.7910178"><ele>23.4</ele><time>2026-04-29T07:24:40.243Z</time></trkpt><trkpt lat="45.5349256" lon="11.7909338"><ele>23.799999999999997</ele><time>2026-04-29T07:24:41.243Z</time></trkpt><trkpt lat="45.5348829" lon="11.7907724"><ele>24.2</ele><time>2026-04-29T07:24:43.243Z</time></trkpt><trkpt lat="45.5348432" lon="11.7906146"><ele>24.6</ele><time>2026-04-29T07:24:45.244Z</time></trkpt><trkpt lat="45.5348122" lon="11.7904563"><ele>25.0</ele><time>2026-04-29T07:24:47.243Z</time></trkpt><trkpt lat="45.5347749" lon="11.7903075"><ele>25.000000000000004</ele><time>2026-04-29T07:24:49.243Z</time></trkpt><trkpt lat="45.5347433" lon="11.7901963"><ele>25.0</ele><time>2026-04-29T07:24:51.243Z</time></trkpt><trkpt lat="45.5347355" lon="11.7901058"><ele>25.0</ele><time>2026-04-29T07:24:53.243Z</time></trkpt><trkpt lat="45.5346818" lon="11.7900526"><ele>25.0</ele><time>2026-04-29T07:25:00.243Z</time></trkpt><trkpt lat="45.5347127" lon="11.7899417"><ele>25.000000000000004</ele><time>2026-04-29T07:25:03.244Z</time></trkpt><trkpt lat="45.5346767" lon="11.7898008"><ele>25.0</ele><time>2026-04-29T07:25:05.244Z</time></trkpt><trkpt lat="45.5346511" lon="11.7896643"><ele>25.000000000000004</ele><time>2026-04-29T07:25:07.243Z</time></trkpt><trkpt lat="45.5346182" lon="11.7895033"><ele>25.0</ele><time>2026-04-29T07:25:09.243Z</time></trkpt><trkpt lat="45.5345875" lon="11.7894155"><ele>25.0</ele><time>2026-04-29T07:25:10.243Z</time></trkpt><trkpt lat="45.5345659" lon="11.7893295"><ele>25.0</ele><time>2026-04-29T07:25:11.243Z</time></trkpt><trkpt lat="45.534542" lon="11.7892408"><ele>25.000000000000004</ele><time>2026-04-29T07:25:12.244Z</time></trkpt><trkpt lat="45.5345209" lon="11.7891518"><ele>25.0</ele><time>2026-04-29T07:25:13.243Z</time></trkpt><trkpt lat="45.5344952" lon="11.7890618"><ele>25.000000000000004</ele><time>2026-04-29T07:25:14.243Z</time></trkpt><trkpt lat="45.534471" lon="11.7889762"><ele>25.0</ele><time>2026-04-29T07:25:15.244Z</time></trkpt><trkpt lat="45.5344448" lon="11.7888819"><ele>25.0</ele><time>2026-04-29T07:25:16.243Z</time></trkpt><trkpt lat="45.5344209" lon="11.7887875"><ele>25.0</ele><time>2026-04-29T07:25:17.244Z</time></trkpt><trkpt lat="45.5343922" lon="11.7886935"><ele>25.0</ele><time>2026-04-29T07:25:18.243Z</time></trkpt><trkpt lat="45.5343659" lon="11.7885994"><ele>25.000000000000004</ele><time>2026-04-29T07:25:19.244Z</time></trkpt><trkpt lat="45.5343367" lon="11.7884971"><ele>25.0</ele><time>2026-04-29T07:25:20.243Z</time></trkpt><trkpt lat="45.5343089" lon="11.7884003"><ele>24.666666666666668</ele><time>2026-04-29T07:25:21.243Z</time></trkpt><trkpt lat="45.5342817" lon="11.7882919"><ele>24.333333333333336</ele><time>2026-04-29T07:25:22.243Z</time></trkpt><trkpt lat="45.5342548" lon="11.7881873"><ele>24.0</ele><time>2026-04-29T07:25:23.243Z</time></trkpt><trkpt lat="45.534227" lon="11.788084"><ele>23.666666666666668</ele><time>2026-04-29T07:25:24.243Z</time></trkpt><trkpt lat="45.5341998" lon="11.7879789"><ele>23.333333333333336</ele><time>2026-04-29T07:25:25.243Z</time></trkpt><trkpt lat="45.5341753" lon="11.7878759"><ele>23.0</ele><time>2026-04-29T07:25:26.243Z</time></trkpt><trkpt lat="45.5341495" lon="11.7877748"><ele>23.0</ele><time>2026-04-29T07:25:27.243Z</time></trkpt><trkpt lat="45.5341229" lon="11.7876713"><ele>23.0</ele><time>2026-04-29T07:25:28.244Z</time></trkpt><trkpt lat="45.5340983" lon="11.7875683"><ele>23.0</ele><time>2026-04-29T07:25:29.243Z</time></trkpt><trkpt lat="45.5340788" lon="11.7874698"><ele>23.0</ele><time>2026-04-29T07:25:30.243Z</time></trkpt><trkpt lat="45.5340548" lon="11.7873647"><ele>23.0</ele><time>2026-04-29T07:25:31.244Z</time></trkpt><trkpt lat="45.5340266" lon="11.7872767"><ele>23.0</ele><time>2026-04-29T07:25:32.244Z</time></trkpt><trkpt lat="45.5339977" lon="11.7871844"><ele>23.0</ele><time>2026-04-29T07:25:33.243Z</time></trkpt><trkpt lat="45.533965" lon="11.7870904"><ele>23.0</ele><time>2026-04-29T07:25:34.243Z</time></trkpt><trkpt lat="45.5339391" lon="11.7869948"><ele>23.0</ele><time>2026-04-29T07:25:35.243Z</time></trkpt><trkpt lat="45.5339176" lon="11.7868952"><ele>23.0</ele><time>2026-04-29T07:25:36.243Z</time></trkpt><trkpt lat="45.5338935" lon="11.7867967"><ele>23.0</ele><time>2026-04-29T07:25:37.244Z</time></trkpt><trkpt lat="45.5338683" lon="11.786698"><ele>23.0</ele><time>2026-04-29T07:25:38.243Z</time></trkpt><trkpt lat="45.5338455" lon="11.7865954"><ele>23.0</ele><time>2026-04-29T07:25:39.243Z</time></trkpt><trkpt lat="45.5338212" lon="11.786486"><ele>23.0</ele><time>2026-04-29T07:25:40.243Z</time></trkpt><trkpt lat="45.5338015" lon="11.7863852"><ele>23.0</ele><time>2026-04-29T07:25:41.243Z</time></trkpt><trkpt lat="45.5337845" lon="11.7862822"><ele>23.0</ele><time>2026-04-29T07:25:42.244Z</time></trkpt><trkpt lat="45.5337674" lon="11.7861805"><ele>23.0</ele><time>2026-04-29T07:25:43.244Z</time></trkpt><trkpt lat="45.5337476" lon="11.7860771"><ele>23.0</ele><time>2026-04-29T07:25:44.243Z</time></trkpt><trkpt lat="45.5337264" lon="11.7859778"><ele>23.0</ele><time>2026-04-29T07:25:45.244Z</time></trkpt><trkpt lat="45.5337002" lon="11.7858797"><ele>23.0</ele><time>2026-04-29T07:25:46.243Z</time></trkpt><trkpt lat="45.5336738" lon="11.7857779"><ele>23.0</ele><time>2026-04-29T07:25:47.243Z</time></trkpt><trkpt lat="45.5336422" lon="11.7856816"><ele>23.0</ele><time>2026-04-29T07:25:48.243Z</time></trkpt><trkpt lat="45.5336153" lon="11.7855809"><ele>23.0</ele><time>2026-04-29T07:25:49.243Z</time></trkpt><trkpt lat="45.5335915" lon="11.7854803"><ele>23.0</ele><time>2026-04-29T07:25:50.243Z</time></trkpt><trkpt lat="45.5335628" lon="11.7853837"><ele>23.0</ele><time>2026-04-29T07:25:51.243Z</time></trkpt><trkpt lat="45.5335317" lon="11.7852828"><ele>23.0</ele><time>2026-04-29T07:25:52.244Z</time></trkpt><trkpt lat="45.5335052" lon="11.7851856"><ele>23.0</ele><time>2026-04-29T07:25:53.243Z</time></trkpt><trkpt lat="45.5334761" lon="11.785075"><ele>23.0</ele><time>2026-04-29T07:25:54.244Z</time></trkpt><trkpt lat="45.533451" lon="11.7849704"><ele>23.0</ele><time>2026-04-29T07:25:55.243Z</time></trkpt><trkpt lat="45.5334319" lon="11.784869"><ele>23.0</ele><time>2026-04-29T07:25:56.243Z</time></trkpt><trkpt lat="45.5334131" lon="11.7847636"><ele>23.0</ele><time>2026-04-29T07:25:57.244Z</time></trkpt><trkpt lat="45.533393" lon="11.7846596"><ele>23.0</ele><time>2026-04-29T07:25:58.244Z</time></trkpt><trkpt lat="45.5333683" lon="11.7845602"><ele>23.0</ele><time>2026-04-29T07:25:59.244Z</time></trkpt><trkpt lat="45.5333428" lon="11.7844565"><ele>23.0</ele><time>2026-04-29T07:26:00.243Z</time></trkpt><trkpt lat="45.5333207" lon="11.7843576"><ele>23.0</ele><time>2026-04-29T07:26:01.244Z</time></trkpt><trkpt lat="45.5332931" lon="11.7842618"><ele>23.0</ele><time>2026-04-29T07:26:02.243Z</time></trkpt><trkpt lat="45.5332662" lon="11.7841665"><ele>23.0</ele><time>2026-04-29T07:26:03.243Z</time></trkpt><trkpt lat="45.533239" lon="11.7840726"><ele>23.0</ele><time>2026-04-29T07:26:04.244Z</time></trkpt><trkpt lat="45.5332112" lon="11.7839753"><ele>23.0</ele><time>2026-04-29T07:26:05.243Z</time></trkpt><trkpt lat="45.533183" lon="11.7838764"><ele>23.0</ele><time>2026-04-29T07:26:06.243Z</time></trkpt><trkpt lat="45.5331584" lon="11.7837798"><ele>23.0</ele><time>2026-04-29T07:26:07.243Z</time></trkpt><trkpt lat="45.5331297" lon="11.7836857"><ele>23.0</ele><time>2026-04-29T07:26:08.243Z</time></trkpt><trkpt lat="45.5331061" lon="11.7835992"><ele>23.0</ele><time>2026-04-29T07:26:09.243Z</time></trkpt><trkpt lat="45.5330848" lon="11.7835141"><ele>23.0</ele><time>2026-04-29T07:26:10.243Z</time></trkpt><trkpt lat="45.5330458" lon="11.7833508"><ele>23.0</ele><time>2026-04-29T07:26:12.244Z</time></trkpt><trkpt lat="45.5330228" lon="11.7832637"><ele>23.0</ele><time>2026-04-29T07:26:13.243Z</time></trkpt><trkpt lat="45.5330028" lon="11.7831738"><ele>23.142857142857142</ele><time>2026-04-29T07:26:14.243Z</time></trkpt><trkpt lat="45.5329784" lon="11.7830843"><ele>23.285714285714285</ele><time>2026-04-29T07:26:15.243Z</time></trkpt><trkpt lat="45.532956" lon="11.7829976"><ele>23.428571428571427</ele><time>2026-04-29T07:26:16.243Z</time></trkpt><trkpt lat="45.5329342" lon="11.7829096"><ele>23.57142857142857</ele><time>2026-04-29T07:26:17.244Z</time></trkpt><trkpt lat="45.5329083" lon="11.7828185"><ele>23.714285714285715</ele><time>2026-04-29T07:26:18.243Z</time></trkpt><trkpt lat="45.5328794" lon="11.7827267"><ele>23.857142857142854</ele><time>2026-04-29T07:26:19.243Z</time></trkpt><trkpt lat="45.5328564" lon="11.782628"><ele>24.0</ele><time>2026-04-29T07:26:20.243Z</time></trkpt><trkpt lat="45.5328331" lon="11.7825269"><ele>24.285714285714285</ele><time>2026-04-29T07:26:21.243Z</time></trkpt><trkpt lat="45.5328072" lon="11.7824316"><ele>24.57142857142857</ele><time>2026-04-29T07:26:22.243Z</time></trkpt><trkpt lat="45.5327819" lon="11.7823349"><ele>24.857142857142854</ele><time>2026-04-29T07:26:23.243Z</time></trkpt><trkpt lat="45.5327541" lon="11.7822341"><ele>25.142857142857142</ele><time>2026-04-29T07:26:24.244Z</time></trkpt><trkpt lat="45.5327244" lon="11.7821415"><ele>25.42857142857143</ele><time>2026-04-29T07:26:25.243Z</time></trkpt><trkpt lat="45.5326944" lon="11.782046"><ele>25.71428571428571</ele><time>2026-04-29T07:26:26.243Z</time></trkpt><trkpt lat="45.5326674" lon="11.7819484"><ele>26.0</ele><time>2026-04-29T07:26:27.243Z</time></trkpt><trkpt lat="45.5326411" lon="11.7818478"><ele>26.166666666666664</ele><time>2026-04-29T07:26:28.243Z</time></trkpt><trkpt lat="45.532611" lon="11.7817503"><ele>26.333333333333332</ele><time>2026-04-29T07:26:29.243Z</time></trkpt><trkpt lat="45.532574" lon="11.7816507"><ele>26.5</ele><time>2026-04-29T07:26:30.243Z</time></trkpt><trkpt lat="45.5325411" lon="11.7815526"><ele>26.666666666666664</ele><time>2026-04-29T07:26:31.243Z</time></trkpt><trkpt lat="45.5325028" lon="11.781451"><ele>26.833333333333332</ele><time>2026-04-29T07:26:32.243Z</time></trkpt><trkpt lat="45.5324695" lon="11.7813588"><ele>27.0</ele><time>2026-04-29T07:26:33.243Z</time></trkpt><trkpt lat="45.5324358" lon="11.7812692"><ele>27.0</ele><time>2026-04-29T07:26:34.243Z</time></trkpt><trkpt lat="45.5324093" lon="11.7811743"><ele>27.0</ele><time>2026-04-29T07:26:35.243Z</time></trkpt><trkpt lat="45.5323839" lon="11.781074"><ele>27.0</ele><time>2026-04-29T07:26:36.243Z</time></trkpt><trkpt lat="45.5323545" lon="11.780975"><ele>27.0</ele><time>2026-04-29T07:26:37.243Z</time></trkpt><trkpt lat="45.5323289" lon="11.7808741"><ele>27.0</ele><time>2026-04-29T07:26:38.243Z</time></trkpt><trkpt lat="45.532302" lon="11.7807721"><ele>27.0</ele><time>2026-04-29T07:26:39.243Z</time></trkpt><trkpt lat="45.5322757" lon="11.7806688"><ele>26.57142857142857</ele><time>2026-04-29T07:26:40.243Z</time></trkpt><trkpt lat="45.5322526" lon="11.7805739"><ele>26.142857142857142</ele><time>2026-04-29T07:26:41.244Z</time></trkpt><trkpt lat="45.5322282" lon="11.7804777"><ele>25.714285714285715</ele><time>2026-04-29T07:26:42.243Z</time></trkpt><trkpt lat="45.5322069" lon="11.7803772"><ele>25.285714285714285</ele><time>2026-04-29T07:26:43.243Z</time></trkpt><trkpt lat="45.5321873" lon="11.7802721"><ele>24.857142857142858</ele><time>2026-04-29T07:26:44.243Z</time></trkpt><trkpt lat="45.532169" lon="11.7801701"><ele>24.428571428571427</ele><time>2026-04-29T07:26:45.243Z</time></trkpt><trkpt lat="45.5321504" lon="11.7800697"><ele>24.0</ele><time>2026-04-29T07:26:46.244Z</time></trkpt><trkpt lat="45.5321315" lon="11.7799725"><ele>23.999999999999996</ele><time>2026-04-29T07:26:47.243Z</time></trkpt><trkpt lat="45.5321086" lon="11.7798855"><ele>24.0</ele><time>2026-04-29T07:26:48.243Z</time></trkpt><trkpt lat="45.5320842" lon="11.7797949"><ele>24.0</ele><time>2026-04-29T07:26:49.243Z</time></trkpt><trkpt lat="45.5320605" lon="11.7797022"><ele>24.0</ele><time>2026-04-29T07:26:50.243Z</time></trkpt><trkpt lat="45.5320361" lon="11.7796095"><ele>24.0</ele><time>2026-04-29T07:26:51.243Z</time></trkpt><trkpt lat="45.5320181" lon="11.7795133"><ele>23.999999999999996</ele><time>2026-04-29T07:26:52.244Z</time></trkpt><trkpt lat="45.5319995" lon="11.7794094"><ele>24.0</ele><time>2026-04-29T07:26:53.244Z</time></trkpt><trkpt lat="45.531978" lon="11.779318"><ele>24.166666666666668</ele><time>2026-04-29T07:26:54.243Z</time></trkpt><trkpt lat="45.5319548" lon="11.7792313"><ele>24.333333333333336</ele><time>2026-04-29T07:26:55.243Z</time></trkpt><trkpt lat="45.5319339" lon="11.7791465"><ele>24.5</ele><time>2026-04-29T07:26:56.243Z</time></trkpt><trkpt lat="45.5319139" lon="11.7790604"><ele>24.666666666666668</ele><time>2026-04-29T07:26:57.244Z</time></trkpt><trkpt lat="45.5318745" lon="11.7789002"><ele>24.833333333333336</ele><time>2026-04-29T07:26:59.244Z</time></trkpt><trkpt lat="45.5318419" lon="11.7787614"><ele>25.0</ele><time>2026-04-29T07:27:01.244Z</time></trkpt><trkpt lat="45.5318174" lon="11.778644"><ele>25.0</ele><time>2026-04-29T07:27:03.243Z</time></trkpt><trkpt lat="45.5317847" lon="11.7785419"><ele>25.0</ele><time>2026-04-29T07:27:05.244Z</time></trkpt><trkpt lat="45.5317504" lon="11.7784077"><ele>25.0</ele><time>2026-04-29T07:27:07.244Z</time></trkpt><trkpt lat="45.5317235" lon="11.7782527"><ele>25.0</ele><time>2026-04-29T07:27:09.244Z</time></trkpt><trkpt lat="45.5316844" lon="11.7780965"><ele>25.0</ele><time>2026-04-29T07:27:11.244Z</time></trkpt><trkpt lat="45.531639" lon="11.7779488"><ele>25.000000000000004</ele><time>2026-04-29T07:27:13.243Z</time></trkpt><trkpt lat="45.5315943" lon="11.777785"><ele>25.0</ele><time>2026-04-29T07:27:15.243Z</time></trkpt><trkpt lat="45.5315676" lon="11.7777007"><ele>25.0</ele><time>2026-04-29T07:27:16.243Z</time></trkpt><trkpt lat="45.5315415" lon="11.7776077"><ele>25.0</ele><time>2026-04-29T07:27:17.243Z</time></trkpt><trkpt lat="45.531513" lon="11.7775205"><ele>25.000000000000004</ele><time>2026-04-29T07:27:18.244Z</time></trkpt><trkpt lat="45.5314827" lon="11.7774354"><ele>25.0</ele><time>2026-04-29T07:27:19.244Z</time></trkpt><trkpt lat="45.5314578" lon="11.7773479"><ele>25.000000000000004</ele><time>2026-04-29T07:27:20.243Z</time></trkpt><trkpt lat="45.5314363" lon="11.7772573"><ele>25.0</ele><time>2026-04-29T07:27:21.244Z</time></trkpt><trkpt lat="45.5314119" lon="11.7771733"><ele>25.0</ele><time>2026-04-29T07:27:22.243Z</time></trkpt><trkpt lat="45.5313867" lon="11.7770756"><ele>25.0</ele><time>2026-04-29T07:27:23.243Z</time></trkpt><trkpt lat="45.5313647" lon="11.7769717"><ele>25.0</ele><time>2026-04-29T07:27:24.243Z</time></trkpt><trkpt lat="45.531347" lon="11.7768682"><ele>25.000000000000004</ele><time>2026-04-29T07:27:25.243Z</time></trkpt><trkpt lat="45.5313306" lon="11.7767728"><ele>25.0</ele><time>2026-04-29T07:27:26.243Z</time></trkpt><trkpt lat="45.5313127" lon="11.7766779"><ele>25.000000000000004</ele><time>2026-04-29T07:27:27.244Z</time></trkpt><trkpt lat="45.5312905" lon="11.7765828"><ele>25.0</ele><time>2026-04-29T07:27:28.244Z</time></trkpt><trkpt lat="45.5312636" lon="11.7764879"><ele>25.0</ele><time>2026-04-29T07:27:29.243Z</time></trkpt><trkpt lat="45.5312327" lon="11.7763988"><ele>25.0</ele><time>2026-04-29T07:27:30.244Z</time></trkpt><trkpt lat="45.531208" lon="11.7763098"><ele>25.0</ele><time>2026-04-29T07:27:31.244Z</time></trkpt><trkpt lat="45.5311804" lon="11.7762152"><ele>25.000000000000004</ele><time>2026-04-29T07:27:32.243Z</time></trkpt><trkpt lat="45.5311512" lon="11.7761137"><ele>25.0</ele><time>2026-04-29T07:27:33.243Z</time></trkpt><trkpt lat="45.531126" lon="11.776028"><ele>25.000000000000004</ele><time>2026-04-29T07:27:34.243Z</time></trkpt><trkpt lat="45.5311064" lon="11.7759408"><ele>25.0</ele><time>2026-04-29T07:27:35.244Z</time></trkpt><trkpt lat="45.5310878" lon="11.7758517"><ele>25.0</ele><time>2026-04-29T07:27:36.244Z</time></trkpt><trkpt lat="45.5310605" lon="11.7757636"><ele>25.0</ele><time>2026-04-29T07:27:37.244Z</time></trkpt><trkpt lat="45.5310258" lon="11.7756684"><ele>25.0</ele><time>2026-04-29T07:27:38.243Z</time></trkpt><trkpt lat="45.5309993" lon="11.7755722"><ele>25.000000000000004</ele><time>2026-04-29T07:27:39.243Z</time></trkpt><trkpt lat="45.5309745" lon="11.7754732"><ele>25.0</ele><time>2026-04-29T07:27:40.243Z</time></trkpt><trkpt lat="45.5309539" lon="11.7753748"><ele>25.000000000000004</ele><time>2026-04-29T07:27:41.243Z</time></trkpt><trkpt lat="45.5309297" lon="11.7752815"><ele>25.0</ele><time>2026-04-29T07:27:42.243Z</time></trkpt><trkpt lat="45.5309003" lon="11.7751774"><ele>25.0</ele><time>2026-04-29T07:27:43.243Z</time></trkpt><trkpt lat="45.5308761" lon="11.7750792"><ele>25.0</ele><time>2026-04-29T07:27:44.244Z</time></trkpt><trkpt lat="45.530851" lon="11.7749862"><ele>25.0</ele><time>2026-04-29T07:27:45.244Z</time></trkpt><trkpt lat="45.5308273" lon="11.7748825"><ele>25.000000000000004</ele><time>2026-04-29T07:27:46.243Z</time></trkpt><trkpt lat="45.5307989" lon="11.7747804"><ele>25.0</ele><time>2026-04-29T07:27:47.244Z</time></trkpt><trkpt lat="45.5307731" lon="11.7746833"><ele>24.833333333333336</ele><time>2026-04-29T07:27:48.244Z</time></trkpt><trkpt lat="45.5307453" lon="11.7745835"><ele>24.666666666666668</ele><time>2026-04-29T07:27:49.243Z</time></trkpt><trkpt lat="45.5307154" lon="11.7744808"><ele>24.5</ele><time>2026-04-29T07:27:50.244Z</time></trkpt><trkpt lat="45.5306901" lon="11.7743838"><ele>24.333333333333336</ele><time>2026-04-29T07:27:51.243Z</time></trkpt><trkpt lat="45.5306602" lon="11.7742808"><ele>24.166666666666668</ele><time>2026-04-29T07:27:52.244Z</time></trkpt><trkpt lat="45.5306277" lon="11.7741808"><ele>24.0</ele><time>2026-04-29T07:27:53.243Z</time></trkpt><trkpt lat="45.5306031" lon="11.7740808"><ele>24.0</ele><time>2026-04-29T07:27:54.243Z</time></trkpt><trkpt lat="45.5305807" lon="11.773986"><ele>24.0</ele><time>2026-04-29T07:27:55.243Z</time></trkpt><trkpt lat="45.5305546" lon="11.7738824"><ele>24.0</ele><time>2026-04-29T07:27:56.244Z</time></trkpt><trkpt lat="45.5305313" lon="11.7737766"><ele>24.0</ele><time>2026-04-29T07:27:57.243Z</time></trkpt><trkpt lat="45.5305083" lon="11.7736718"><ele>24.0</ele><time>2026-04-29T07:27:58.244Z</time></trkpt><trkpt lat="45.5304876" lon="11.7735725"><ele>24.0</ele><time>2026-04-29T07:27:59.244Z</time></trkpt><trkpt lat="45.5304661" lon="11.7734624"><ele>23.999999999999996</ele><time>2026-04-29T07:28:00.244Z</time></trkpt><trkpt lat="45.5304362" lon="11.7733483"><ele>24.0</ele><time>2026-04-29T07:28:01.243Z</time></trkpt><trkpt lat="45.530405" lon="11.7732475"><ele>24.0</ele><time>2026-04-29T07:28:02.244Z</time></trkpt><trkpt lat="45.5303776" lon="11.7731468"><ele>24.0</ele><time>2026-04-29T07:28:03.243Z</time></trkpt><trkpt lat="45.5303423" lon="11.7730505"><ele>24.0</ele><time>2026-04-29T07:28:04.243Z</time></trkpt><trkpt lat="45.5303111" lon="11.7729614"><ele>23.999999999999996</ele><time>2026-04-29T07:28:05.243Z</time></trkpt><trkpt lat="45.5302835" lon="11.7728768"><ele>24.0</ele><time>2026-04-29T07:28:06.244Z</time></trkpt><trkpt lat="45.5302568" lon="11.7727888"><ele>23.999999999999996</ele><time>2026-04-29T07:28:07.244Z</time></trkpt><trkpt lat="45.5302265" lon="11.7727019"><ele>24.0</ele><time>2026-04-29T07:28:08.243Z</time></trkpt><trkpt lat="45.5301985" lon="11.7726189"><ele>24.0</ele><time>2026-04-29T07:28:09.243Z</time></trkpt><trkpt lat="45.53017" lon="11.772535"><ele>24.0</ele><time>2026-04-29T07:28:10.244Z</time></trkpt><trkpt lat="45.5301397" lon="11.7724521"><ele>24.0</ele><time>2026-04-29T07:28:11.243Z</time></trkpt><trkpt lat="45.5301117" lon="11.7723708"><ele>23.999999999999996</ele><time>2026-04-29T07:28:12.244Z</time></trkpt><trkpt lat="45.5300801" lon="11.7722852"><ele>24.0</ele><time>2026-04-29T07:28:13.243Z</time></trkpt><trkpt lat="45.5300472" lon="11.7722002"><ele>24.0</ele><time>2026-04-29T07:28:14.243Z</time></trkpt><trkpt lat="45.5299967" lon="11.7720427"><ele>24.0</ele><time>2026-04-29T07:28:16.244Z</time></trkpt><trkpt lat="45.5299431" lon="11.7718848"><ele>24.0</ele><time>2026-04-29T07:28:18.243Z</time></trkpt><trkpt lat="45.5298847" lon="11.771734"><ele>24.0</ele><time>2026-04-29T07:28:20.243Z</time></trkpt><trkpt lat="45.5298345" lon="11.7715845"><ele>24.0</ele><time>2026-04-29T07:28:22.243Z</time></trkpt><trkpt lat="45.5297808" lon="11.7714649"><ele>24.0</ele><time>2026-04-29T07:28:24.244Z</time></trkpt><trkpt lat="45.5297245" lon="11.7713597"><ele>24.0</ele><time>2026-04-29T07:28:26.244Z</time></trkpt><trkpt lat="45.5296814" lon="11.7712545"><ele>24.0</ele><time>2026-04-29T07:28:28.243Z</time></trkpt><trkpt lat="45.5296327" lon="11.7711518"><ele>24.0</ele><time>2026-04-29T07:28:30.244Z</time></trkpt><trkpt lat="45.529594" lon="11.7710717"><ele>24.0</ele><time>2026-04-29T07:28:31.243Z</time></trkpt><trkpt lat="45.5295525" lon="11.7709812"><ele>24.166666666666668</ele><time>2026-04-29T07:28:32.243Z</time></trkpt><trkpt lat="45.5295086" lon="11.7708842"><ele>24.333333333333336</ele><time>2026-04-29T07:28:33.244Z</time></trkpt><trkpt lat="45.5294607" lon="11.770798"><ele>24.5</ele><time>2026-04-29T07:28:34.243Z</time></trkpt><trkpt lat="45.5294196" lon="11.7707119"><ele>24.666666666666668</ele><time>2026-04-29T07:28:35.244Z</time></trkpt><trkpt lat="45.5293788" lon="11.7706236"><ele>24.833333333333336</ele><time>2026-04-29T07:28:36.243Z</time></trkpt><trkpt lat="45.5293408" lon="11.7705308"><ele>25.0</ele><time>2026-04-29T07:28:37.243Z</time></trkpt><trkpt lat="45.5292975" lon="11.7704391"><ele>25.000000000000004</ele><time>2026-04-29T07:28:38.244Z</time></trkpt><trkpt lat="45.5292555" lon="11.7703517"><ele>25.0</ele><time>2026-04-29T07:28:39.244Z</time></trkpt><trkpt lat="45.5292132" lon="11.7702661"><ele>25.0</ele><time>2026-04-29T07:28:40.243Z</time></trkpt><trkpt lat="45.5291694" lon="11.7701812"><ele>25.0</ele><time>2026-04-29T07:28:41.243Z</time></trkpt><trkpt lat="45.5291267" lon="11.7700974"><ele>25.0</ele><time>2026-04-29T07:28:42.243Z</time></trkpt><trkpt lat="45.5290788" lon="11.7700159"><ele>25.000000000000004</ele><time>2026-04-29T07:28:43.242Z</time></trkpt><trkpt lat="45.5290282" lon="11.7699343"><ele>25.0</ele><time>2026-04-29T07:28:44.242Z</time></trkpt><trkpt lat="45.5289805" lon="11.7698524"><ele>24.666666666666668</ele><time>2026-04-29T07:28:45.242Z</time></trkpt><trkpt lat="45.5289385" lon="11.7697778"><ele>24.333333333333336</ele><time>2026-04-29T07:28:46.243Z</time></trkpt><trkpt lat="45.5288933" lon="11.7697066"><ele>24.0</ele><time>2026-04-29T07:28:47.242Z</time></trkpt><trkpt lat="45.5288462" lon="11.769634"><ele>23.666666666666668</ele><time>2026-04-29T07:28:48.242Z</time></trkpt><trkpt lat="45.5287979" lon="11.7695602"><ele>23.333333333333336</ele><time>2026-04-29T07:28:49.242Z</time></trkpt><trkpt lat="45.5287573" lon="11.7694802"><ele>23.0</ele><time>2026-04-29T07:28:50.242Z</time></trkpt><trkpt lat="45.5286779" lon="11.7693411"><ele>23.0</ele><time>2026-04-29T07:28:52.243Z</time></trkpt><trkpt lat="45.528634" lon="11.7692757"><ele>23.0</ele><time>2026-04-29T07:28:53.243Z</time></trkpt><trkpt lat="45.5285466" lon="11.7691431"><ele>23.0</ele><time>2026-04-29T07:28:55.243Z</time></trkpt><trkpt lat="45.5284983" lon="11.7690711"><ele>23.0</ele><time>2026-04-29T07:28:56.242Z</time></trkpt><trkpt lat="45.5284507" lon="11.7690057"><ele>23.0</ele><time>2026-04-29T07:28:57.242Z</time></trkpt><trkpt lat="45.528401" lon="11.7689444"><ele>23.0</ele><time>2026-04-29T07:28:58.242Z</time></trkpt><trkpt lat="45.5283529" lon="11.7688829"><ele>23.0</ele><time>2026-04-29T07:28:59.242Z</time></trkpt><trkpt lat="45.5283043" lon="11.7688234"><ele>23.0</ele><time>2026-04-29T07:29:00.243Z</time></trkpt><trkpt lat="45.5282578" lon="11.7687582"><ele>23.0</ele><time>2026-04-29T07:29:01.242Z</time></trkpt><trkpt lat="45.5281569" lon="11.768637"><ele>23.0</ele><time>2026-04-29T07:29:03.243Z</time></trkpt><trkpt lat="45.5281114" lon="11.7685673"><ele>23.0</ele><time>2026-04-29T07:29:04.242Z</time></trkpt><trkpt lat="45.5280599" lon="11.7684969"><ele>23.0</ele><time>2026-04-29T07:29:05.242Z</time></trkpt><trkpt lat="45.5280087" lon="11.7684285"><ele>23.142857142857142</ele><time>2026-04-29T07:29:06.242Z</time></trkpt><trkpt lat="45.5279578" lon="11.768363"><ele>23.285714285714285</ele><time>2026-04-29T07:29:07.242Z</time></trkpt><trkpt lat="45.5279057" lon="11.768292"><ele>23.428571428571427</ele><time>2026-04-29T07:29:08.242Z</time></trkpt><trkpt lat="45.5278539" lon="11.7682263"><ele>23.57142857142857</ele><time>2026-04-29T07:29:09.242Z</time></trkpt><trkpt lat="45.5278013" lon="11.7681612"><ele>23.714285714285715</ele><time>2026-04-29T07:29:10.242Z</time></trkpt><trkpt lat="45.5277474" lon="11.7680978"><ele>23.857142857142854</ele><time>2026-04-29T07:29:11.242Z</time></trkpt><trkpt lat="45.5276911" lon="11.7680378"><ele>24.0</ele><time>2026-04-29T07:29:12.242Z</time></trkpt><trkpt lat="45.5276372" lon="11.7679815"><ele>23.999999999999996</ele><time>2026-04-29T07:29:13.242Z</time></trkpt><trkpt lat="45.5275848" lon="11.7679186"><ele>24.0</ele><time>2026-04-29T07:29:14.242Z</time></trkpt><trkpt lat="45.5275309" lon="11.7678641"><ele>24.0</ele><time>2026-04-29T07:29:15.242Z</time></trkpt><trkpt lat="45.5274764" lon="11.7678069"><ele>24.0</ele><time>2026-04-29T07:29:16.243Z</time></trkpt><trkpt lat="45.5274224" lon="11.7677472"><ele>24.0</ele><time>2026-04-29T07:29:17.243Z</time></trkpt><trkpt lat="45.5273674" lon="11.7676956"><ele>23.999999999999996</ele><time>2026-04-29T07:29:18.243Z</time></trkpt><trkpt lat="45.527309" lon="11.7676408"><ele>24.0</ele><time>2026-04-29T07:29:19.243Z</time></trkpt><trkpt lat="45.527255" lon="11.7675852"><ele>23.999999999999996</ele><time>2026-04-29T07:29:20.242Z</time></trkpt><trkpt lat="45.527197" lon="11.7675243"><ele>24.0</ele><time>2026-04-29T07:29:21.242Z</time></trkpt><trkpt lat="45.5271366" lon="11.7674661"><ele>24.0</ele><time>2026-04-29T07:29:22.242Z</time></trkpt><trkpt lat="45.5270772" lon="11.7674083"><ele>24.0</ele><time>2026-04-29T07:29:23.242Z</time></trkpt><trkpt lat="45.5270122" lon="11.7673502"><ele>24.0</ele><time>2026-04-29T07:29:24.243Z</time></trkpt><trkpt lat="45.5269501" lon="11.7672904"><ele>23.999999999999996</ele><time>2026-04-29T07:29:25.243Z</time></trkpt><trkpt lat="45.5268914" lon="11.7672281"><ele>24.0</ele><time>2026-04-29T07:29:26.242Z</time></trkpt><trkpt lat="45.5268334" lon="11.7671726"><ele>23.999999999999996</ele><time>2026-04-29T07:29:27.242Z</time></trkpt><trkpt lat="45.5267755" lon="11.7671176"><ele>24.0</ele><time>2026-04-29T07:29:28.243Z</time></trkpt><trkpt lat="45.5267191" lon="11.7670631"><ele>24.0</ele><time>2026-04-29T07:29:29.242Z</time></trkpt><trkpt lat="45.5266591" lon="11.7670085"><ele>24.0</ele><time>2026-04-29T07:29:30.242Z</time></trkpt><trkpt lat="45.5266034" lon="11.7669476"><ele>24.0</ele><time>2026-04-29T07:29:31.242Z</time></trkpt><trkpt lat="45.5265444" lon="11.7668951"><ele>23.999999999999996</ele><time>2026-04-29T07:29:32.242Z</time></trkpt><trkpt lat="45.5264865" lon="11.766841"><ele>24.0</ele><time>2026-04-29T07:29:33.243Z</time></trkpt><trkpt lat="45.5264272" lon="11.7667786"><ele>24.0</ele><time>2026-04-29T07:29:34.243Z</time></trkpt><trkpt lat="45.5263762" lon="11.7667186"><ele>24.0</ele><time>2026-04-29T07:29:35.242Z</time></trkpt><trkpt lat="45.5262725" lon="11.7666156"><ele>24.0</ele><time>2026-04-29T07:29:37.243Z</time></trkpt><trkpt lat="45.5262171" lon="11.7665668"><ele>24.0</ele><time>2026-04-29T07:29:38.242Z</time></trkpt><trkpt lat="45.5261602" lon="11.7665197"><ele>24.0</ele><time>2026-04-29T07:29:39.242Z</time></trkpt><trkpt lat="45.5260536" lon="11.7664239"><ele>24.0</ele><time>2026-04-29T07:29:41.242Z</time></trkpt><trkpt lat="45.5260007" lon="11.7663695"><ele>23.999999999999996</ele><time>2026-04-29T07:29:42.242Z</time></trkpt><trkpt lat="45.5259481" lon="11.7663158"><ele>24.0</ele><time>2026-04-29T07:29:43.242Z</time></trkpt><trkpt lat="45.5258936" lon="11.7662625"><ele>24.0</ele><time>2026-04-29T07:29:44.242Z</time></trkpt><trkpt lat="45.5258368" lon="11.7662097"><ele>24.0</ele><time>2026-04-29T07:29:45.242Z</time></trkpt><trkpt lat="45.5257775" lon="11.7661506"><ele>24.0</ele><time>2026-04-29T07:29:46.242Z</time></trkpt><trkpt lat="45.5257224" lon="11.7660918"><ele>23.999999999999996</ele><time>2026-04-29T07:29:47.24Z</time></trkpt><trkpt lat="45.5256668" lon="11.7660342"><ele>24.0</ele><time>2026-04-29T07:29:48.242Z</time></trkpt><trkpt lat="45.5256119" lon="11.7659706"><ele>23.999999999999996</ele><time>2026-04-29T07:29:49.242Z</time></trkpt><trkpt lat="45.5255552" lon="11.7659084"><ele>24.0</ele><time>2026-04-29T07:29:50.243Z</time></trkpt><trkpt lat="45.5254997" lon="11.765845"><ele>24.0</ele><time>2026-04-29T07:29:51.242Z</time></trkpt><trkpt lat="45.525437" lon="11.7657799"><ele>24.0</ele><time>2026-04-29T07:29:52.242Z</time></trkpt><trkpt lat="45.5253809" lon="11.7657183"><ele>24.0</ele><time>2026-04-29T07:29:53.242Z</time></trkpt><trkpt lat="45.5253221" lon="11.7656583"><ele>23.999999999999996</ele><time>2026-04-29T07:29:54.242Z</time></trkpt><trkpt lat="45.5252634" lon="11.7655983"><ele>24.0</ele><time>2026-04-29T07:29:55.242Z</time></trkpt><trkpt lat="45.5252048" lon="11.765539"><ele>23.999999999999996</ele><time>2026-04-29T07:29:56.243Z</time></trkpt><trkpt lat="45.5251471" lon="11.7654767"><ele>24.0</ele><time>2026-04-29T07:29:57.242Z</time></trkpt><trkpt lat="45.5250883" lon="11.7654181"><ele>24.0</ele><time>2026-04-29T07:29:58.242Z</time></trkpt><trkpt lat="45.5250317" lon="11.7653581"><ele>24.0</ele><time>2026-04-29T07:29:59.242Z</time></trkpt><trkpt lat="45.524972" lon="11.7653038"><ele>24.0</ele><time>2026-04-29T07:30:00.243Z</time></trkpt><trkpt lat="45.5249151" lon="11.7652471"><ele>23.999999999999996</ele><time>2026-04-29T07:30:01.242Z</time></trkpt><trkpt lat="45.5248643" lon="11.7651934"><ele>24.0</ele><time>2026-04-29T07:30:02.242Z</time></trkpt><trkpt lat="45.524814" lon="11.7651369"><ele>23.799999999999997</ele><time>2026-04-29T07:30:03.243Z</time></trkpt><trkpt lat="45.5247152" lon="11.7650423"><ele>23.599999999999998</ele><time>2026-04-29T07:30:05.243Z</time></trkpt><trkpt lat="45.5246618" lon="11.7649939"><ele>23.4</ele><time>2026-04-29T07:30:06.242Z</time></trkpt><trkpt lat="45.524562" lon="11.7649037"><ele>23.2</ele><time>2026-04-29T07:30:08.243Z</time></trkpt><trkpt lat="45.5244664" lon="11.7648162"><ele>23.0</ele><time>2026-04-29T07:30:10.242Z</time></trkpt><trkpt lat="45.5243769" lon="11.7647255"><ele>22.833333333333336</ele><time>2026-04-29T07:30:12.242Z</time></trkpt><trkpt lat="45.5242918" lon="11.7646298"><ele>22.666666666666668</ele><time>2026-04-29T07:30:14.243Z</time></trkpt><trkpt lat="45.5242094" lon="11.7645662"><ele>22.5</ele><time>2026-04-29T07:30:16.243Z</time></trkpt><trkpt lat="45.5241189" lon="11.7645464"><ele>22.333333333333332</ele><time>2026-04-29T07:30:18.243Z</time></trkpt><trkpt lat="45.5240412" lon="11.7645049"><ele>22.166666666666664</ele><time>2026-04-29T07:30:20.242Z</time></trkpt><trkpt lat="45.5240025" lon="11.7644257"><ele>22.0</ele><time>2026-04-29T07:30:22.243Z</time></trkpt><trkpt lat="45.5239549" lon="11.7643407"><ele>22.0</ele><time>2026-04-29T07:30:24.243Z</time></trkpt><trkpt lat="45.5238625" lon="11.7642712"><ele>22.0</ele><time>2026-04-29T07:30:26.242Z</time></trkpt><trkpt lat="45.5237459" lon="11.7641828"><ele>22.0</ele><time>2026-04-29T07:30:28.243Z</time></trkpt><trkpt lat="45.5236953" lon="11.7641287"><ele>22.0</ele><time>2026-04-29T07:30:29.242Z</time></trkpt><trkpt lat="45.523643" lon="11.7640775"><ele>22.0</ele><time>2026-04-29T07:30:30.242Z</time></trkpt><trkpt lat="45.5235832" lon="11.7640306"><ele>22.0</ele><time>2026-04-29T07:30:31.243Z</time></trkpt><trkpt lat="45.5235307" lon="11.7639765"><ele>22.142857142857142</ele><time>2026-04-29T07:30:32.243Z</time></trkpt><trkpt lat="45.5234778" lon="11.7639263"><ele>22.285714285714285</ele><time>2026-04-29T07:30:33.242Z</time></trkpt><trkpt lat="45.5234223" lon="11.7638755"><ele>22.42857142857143</ele><time>2026-04-29T07:30:34.243Z</time></trkpt><trkpt lat="45.5233597" lon="11.7638203"><ele>22.57142857142857</ele><time>2026-04-29T07:30:35.242Z</time></trkpt><trkpt lat="45.5233029" lon="11.7637656"><ele>22.71428571428571</ele><time>2026-04-29T07:30:36.242Z</time></trkpt><trkpt lat="45.5232458" lon="11.7637087"><ele>22.857142857142858</ele><time>2026-04-29T07:30:37.243Z</time></trkpt><trkpt lat="45.5231878" lon="11.7636518"><ele>23.0</ele><time>2026-04-29T07:30:38.243Z</time></trkpt><trkpt lat="45.5231271" lon="11.7635992"><ele>23.0</ele><time>2026-04-29T07:30:39.243Z</time></trkpt><trkpt lat="45.5230674" lon="11.7635409"><ele>23.0</ele><time>2026-04-29T07:30:40.242Z</time></trkpt><trkpt lat="45.523008" lon="11.7634792"><ele>23.0</ele><time>2026-04-29T07:30:41.243Z</time></trkpt><trkpt lat="45.5229516" lon="11.7634232"><ele>23.0</ele><time>2026-04-29T07:30:42.242Z</time></trkpt><trkpt lat="45.5228953" lon="11.7633673"><ele>23.0</ele><time>2026-04-29T07:30:43.243Z</time></trkpt><trkpt lat="45.5228388" lon="11.7633119"><ele>23.0</ele><time>2026-04-29T07:30:44.242Z</time></trkpt><trkpt lat="45.5227817" lon="11.7632572"><ele>23.0</ele><time>2026-04-29T07:30:45.243Z</time></trkpt><trkpt lat="45.5227249" lon="11.763201"><ele>22.857142857142858</ele><time>2026-04-29T07:30:46.243Z</time></trkpt><trkpt lat="45.5226621" lon="11.7631441"><ele>22.71428571428571</ele><time>2026-04-29T07:30:47.242Z</time></trkpt><trkpt lat="45.5226014" lon="11.7630898"><ele>22.57142857142857</ele><time>2026-04-29T07:30:48.242Z</time></trkpt><trkpt lat="45.5225434" lon="11.7630308"><ele>22.42857142857143</ele><time>2026-04-29T07:30:49.242Z</time></trkpt><trkpt lat="45.5224811" lon="11.7629758"><ele>22.285714285714285</ele><time>2026-04-29T07:30:50.242Z</time></trkpt><trkpt lat="45.52242" lon="11.7629169"><ele>22.142857142857142</ele><time>2026-04-29T07:30:51.242Z</time></trkpt><trkpt lat="45.5223552" lon="11.7628562"><ele>22.0</ele><time>2026-04-29T07:30:52.243Z</time></trkpt><trkpt lat="45.5222963" lon="11.7628037"><ele>22.0</ele><time>2026-04-29T07:30:53.242Z</time></trkpt><trkpt lat="45.522238" lon="11.7627434"><ele>22.0</ele><time>2026-04-29T07:30:54.242Z</time></trkpt><trkpt lat="45.5221803" lon="11.7626856"><ele>22.0</ele><time>2026-04-29T07:30:55.242Z</time></trkpt><trkpt lat="45.5221226" lon="11.7626274"><ele>22.0</ele><time>2026-04-29T07:30:56.243Z</time></trkpt><trkpt lat="45.5220649" lon="11.7625724"><ele>22.0</ele><time>2026-04-29T07:30:57.242Z</time></trkpt><trkpt lat="45.5220086" lon="11.762515"><ele>22.0</ele><time>2026-04-29T07:30:58.242Z</time></trkpt><trkpt lat="45.5219523" lon="11.7624612"><ele>22.0</ele><time>2026-04-29T07:30:59.243Z</time></trkpt><trkpt lat="45.5218945" lon="11.7624021"><ele>22.142857142857142</ele><time>2026-04-29T07:31:00.243Z</time></trkpt><trkpt lat="45.5218376" lon="11.7623429"><ele>22.285714285714285</ele><time>2026-04-29T07:31:01.242Z</time></trkpt><trkpt lat="45.521778" lon="11.7622864"><ele>22.42857142857143</ele><time>2026-04-29T07:31:02.242Z</time></trkpt><trkpt lat="45.5217194" lon="11.7622284"><ele>22.57142857142857</ele><time>2026-04-29T07:31:03.242Z</time></trkpt><trkpt lat="45.5216579" lon="11.7621704"><ele>22.71428571428571</ele><time>2026-04-29T07:31:04.242Z</time></trkpt><trkpt lat="45.5216019" lon="11.7621128"><ele>22.857142857142858</ele><time>2026-04-29T07:31:05.242Z</time></trkpt><trkpt lat="45.521547" lon="11.7620604"><ele>23.0</ele><time>2026-04-29T07:31:06.242Z</time></trkpt><trkpt lat="45.5214946" lon="11.7620067"><ele>23.0</ele><time>2026-04-29T07:31:07.243Z</time></trkpt><trkpt lat="45.5214422" lon="11.7619502"><ele>23.0</ele><time>2026-04-29T07:31:08.243Z</time></trkpt><trkpt lat="45.5213424" lon="11.7618508"><ele>23.0</ele><time>2026-04-29T07:31:10.243Z</time></trkpt><trkpt lat="45.5212451" lon="11.7617599"><ele>23.0</ele><time>2026-04-29T07:31:12.243Z</time></trkpt><trkpt lat="45.5211496" lon="11.7616793"><ele>23.0</ele><time>2026-04-29T07:31:14.243Z</time></trkpt><trkpt lat="45.5210606" lon="11.7616136"><ele>23.2</ele><time>2026-04-29T07:31:16.242Z</time></trkpt><trkpt lat="45.5209882" lon="11.7615377"><ele>23.4</ele><time>2026-04-29T07:31:18.243Z</time></trkpt><trkpt lat="45.5209237" lon="11.7614715"><ele>23.599999999999998</ele><time>2026-04-29T07:31:20.242Z</time></trkpt><trkpt lat="45.5208477" lon="11.7614119"><ele>23.799999999999997</ele><time>2026-04-29T07:31:22.242Z</time></trkpt><trkpt lat="45.5207603" lon="11.7613234"><ele>24.0</ele><time>2026-04-29T07:31:24.242Z</time></trkpt><trkpt lat="45.5206672" lon="11.7612312"><ele>24.0</ele><time>2026-04-29T07:31:26.243Z</time></trkpt><trkpt lat="45.5205708" lon="11.7611266"><ele>24.0</ele><time>2026-04-29T07:31:28.242Z</time></trkpt><trkpt lat="45.5204702" lon="11.7610223"><ele>24.0</ele><time>2026-04-29T07:31:30.242Z</time></trkpt><trkpt lat="45.5203562" lon="11.7609277"><ele>24.0</ele><time>2026-04-29T07:31:32.242Z</time></trkpt><trkpt lat="45.5203024" lon="11.7608746"><ele>24.0</ele><time>2026-04-29T07:31:33.243Z</time></trkpt><trkpt lat="45.5202427" lon="11.7608089"><ele>23.999999999999996</ele><time>2026-04-29T07:31:34.243Z</time></trkpt><trkpt lat="45.5201887" lon="11.7607433"><ele>24.0</ele><time>2026-04-29T07:31:35.242Z</time></trkpt><trkpt lat="45.5201254" lon="11.7606921"><ele>24.0</ele><time>2026-04-29T07:31:36.242Z</time></trkpt><trkpt lat="45.5200641" lon="11.7606402"><ele>24.0</ele><time>2026-04-29T07:31:37.243Z</time></trkpt><trkpt lat="45.5200095" lon="11.7605846"><ele>24.0</ele><time>2026-04-29T07:31:38.242Z</time></trkpt><trkpt lat="45.5199512" lon="11.7605244"><ele>23.999999999999996</ele><time>2026-04-29T07:31:39.242Z</time></trkpt><trkpt lat="45.5198946" lon="11.7604589"><ele>24.0</ele><time>2026-04-29T07:31:40.243Z</time></trkpt><trkpt lat="45.5198383" lon="11.7604004"><ele>23.999999999999996</ele><time>2026-04-29T07:31:41.242Z</time></trkpt><trkpt lat="45.5197742" lon="11.7603452"><ele>24.0</ele><time>2026-04-29T07:31:42.242Z</time></trkpt><trkpt lat="45.5197088" lon="11.7602885"><ele>24.0</ele><time>2026-04-29T07:31:43.243Z</time></trkpt><trkpt lat="45.5196457" lon="11.7602312"><ele>24.0</ele><time>2026-04-29T07:31:44.242Z</time></trkpt><trkpt lat="45.5195834" lon="11.7601718"><ele>24.0</ele><time>2026-04-29T07:31:45.242Z</time></trkpt><trkpt lat="45.5195214" lon="11.7601174"><ele>23.999999999999996</ele><time>2026-04-29T07:31:46.242Z</time></trkpt><trkpt lat="45.5194631" lon="11.7600628"><ele>24.0</ele><time>2026-04-29T07:31:47.243Z</time></trkpt><trkpt lat="45.5194023" lon="11.7600067"><ele>23.833333333333332</ele><time>2026-04-29T07:31:48.242Z</time></trkpt><trkpt lat="45.5193427" lon="11.7599469"><ele>23.666666666666668</ele><time>2026-04-29T07:31:49.242Z</time></trkpt><trkpt lat="45.519278" lon="11.7598801"><ele>23.5</ele><time>2026-04-29T07:31:50.242Z</time></trkpt><trkpt lat="45.5192213" lon="11.7598146"><ele>23.333333333333336</ele><time>2026-04-29T07:31:51.242Z</time></trkpt><trkpt lat="45.5191585" lon="11.7597531"><ele>23.166666666666668</ele><time>2026-04-29T07:31:52.242Z</time></trkpt><trkpt lat="45.5190967" lon="11.759692"><ele>23.0</ele><time>2026-04-29T07:31:53.243Z</time></trkpt><trkpt lat="45.5190327" lon="11.7596319"><ele>23.0</ele><time>2026-04-29T07:31:54.243Z</time></trkpt><trkpt lat="45.5189688" lon="11.7595724"><ele>23.0</ele><time>2026-04-29T07:31:55.242Z</time></trkpt><trkpt lat="45.5189019" lon="11.7595123"><ele>23.0</ele><time>2026-04-29T07:31:56.242Z</time></trkpt><trkpt lat="45.518836" lon="11.7594534"><ele>23.0</ele><time>2026-04-29T07:31:57.242Z</time></trkpt><trkpt lat="45.5187772" lon="11.7593987"><ele>23.0</ele><time>2026-04-29T07:31:58.242Z</time></trkpt><trkpt lat="45.5187179" lon="11.759343"><ele>23.0</ele><time>2026-04-29T07:31:59.242Z</time></trkpt><trkpt lat="45.51866" lon="11.7592858"><ele>23.0</ele><time>2026-04-29T07:32:00.242Z</time></trkpt><trkpt lat="45.5186004" lon="11.7592254"><ele>23.0</ele><time>2026-04-29T07:32:01.243Z</time></trkpt><trkpt lat="45.5185377" lon="11.7591675"><ele>23.0</ele><time>2026-04-29T07:32:02.242Z</time></trkpt><trkpt lat="45.5184772" lon="11.7591041"><ele>23.0</ele><time>2026-04-29T07:32:03.242Z</time></trkpt><trkpt lat="45.5184115" lon="11.7590427"><ele>23.0</ele><time>2026-04-29T07:32:04.243Z</time></trkpt><trkpt lat="45.5183535" lon="11.7589896"><ele>23.0</ele><time>2026-04-29T07:32:05.242Z</time></trkpt><trkpt lat="45.5182919" lon="11.7589238"><ele>23.0</ele><time>2026-04-29T07:32:06.242Z</time></trkpt><trkpt lat="45.5182295" lon="11.7588649"><ele>23.0</ele><time>2026-04-29T07:32:07.243Z</time></trkpt><trkpt lat="45.5181628" lon="11.7588088"><ele>23.0</ele><time>2026-04-29T07:32:08.242Z</time></trkpt><trkpt lat="45.5180998" lon="11.7587498"><ele>23.0</ele><time>2026-04-29T07:32:09.242Z</time></trkpt><trkpt lat="45.518042" lon="11.7586933"><ele>23.0</ele><time>2026-04-29T07:32:10.243Z</time></trkpt><trkpt lat="45.5179776" lon="11.7586337"><ele>23.0</ele><time>2026-04-29T07:32:11.242Z</time></trkpt><trkpt lat="45.5179208" lon="11.7585737"><ele>23.0</ele><time>2026-04-29T07:32:12.243Z</time></trkpt><trkpt lat="45.5178627" lon="11.7585167"><ele>23.0</ele><time>2026-04-29T07:32:13.242Z</time></trkpt><trkpt lat="45.5178046" lon="11.7584638"><ele>23.0</ele><time>2026-04-29T07:32:14.242Z</time></trkpt><trkpt lat="45.517747" lon="11.7584054"><ele>23.0</ele><time>2026-04-29T07:32:15.242Z</time></trkpt><trkpt lat="45.5176873" lon="11.7583466"><ele>23.0</ele><time>2026-04-29T07:32:16.243Z</time></trkpt><trkpt lat="45.5176252" lon="11.758291"><ele>23.0</ele><time>2026-04-29T07:32:17.242Z</time></trkpt><trkpt lat="45.5175695" lon="11.7582326"><ele>23.0</ele><time>2026-04-29T07:32:18.242Z</time></trkpt><trkpt lat="45.5175097" lon="11.7581753"><ele>23.0</ele><time>2026-04-29T07:32:19.242Z</time></trkpt><trkpt lat="45.5174507" lon="11.7581178"><ele>23.0</ele><time>2026-04-29T07:32:20.243Z</time></trkpt><trkpt lat="45.5173924" lon="11.7580626"><ele>23.0</ele><time>2026-04-29T07:32:21.243Z</time></trkpt><trkpt lat="45.517335" lon="11.7580073"><ele>23.0</ele><time>2026-04-29T07:32:22.242Z</time></trkpt><trkpt lat="45.5172761" lon="11.7579479"><ele>23.0</ele><time>2026-04-29T07:32:23.242Z</time></trkpt><trkpt lat="45.5172155" lon="11.7578903"><ele>23.0</ele><time>2026-04-29T07:32:24.243Z</time></trkpt><trkpt lat="45.517153" lon="11.7578288"><ele>23.0</ele><time>2026-04-29T07:32:25.242Z</time></trkpt><trkpt lat="45.5170939" lon="11.7577738"><ele>23.0</ele><time>2026-04-29T07:32:26.242Z</time></trkpt><trkpt lat="45.5170344" lon="11.7577132"><ele>23.0</ele><time>2026-04-29T07:32:27.243Z</time></trkpt><trkpt lat="45.5169742" lon="11.7576564"><ele>23.0</ele><time>2026-04-29T07:32:28.243Z</time></trkpt><trkpt lat="45.5169152" lon="11.7576126"><ele>22.833333333333336</ele><time>2026-04-29T07:32:29.242Z</time></trkpt><trkpt lat="45.5168023" lon="11.7575075"><ele>22.666666666666668</ele><time>2026-04-29T07:32:31.242Z</time></trkpt><trkpt lat="45.5167409" lon="11.7574507"><ele>22.5</ele><time>2026-04-29T07:32:32.242Z</time></trkpt><trkpt lat="45.5166797" lon="11.7573909"><ele>22.333333333333332</ele><time>2026-04-29T07:32:33.242Z</time></trkpt><trkpt lat="45.5166161" lon="11.7573287"><ele>22.166666666666664</ele><time>2026-04-29T07:32:34.242Z</time></trkpt><trkpt lat="45.5165562" lon="11.7572658"><ele>22.0</ele><time>2026-04-29T07:32:35.242Z</time></trkpt><trkpt lat="45.516494" lon="11.7572077"><ele>22.0</ele><time>2026-04-29T07:32:36.242Z</time></trkpt><trkpt lat="45.5164342" lon="11.7571462"><ele>22.0</ele><time>2026-04-29T07:32:37.242Z</time></trkpt><trkpt lat="45.5163757" lon="11.7570901"><ele>22.0</ele><time>2026-04-29T07:32:38.242Z</time></trkpt><trkpt lat="45.5163188" lon="11.7570364"><ele>22.0</ele><time>2026-04-29T07:32:39.242Z</time></trkpt><trkpt lat="45.516264" lon="11.7569877"><ele>22.0</ele><time>2026-04-29T07:32:40.242Z</time></trkpt><trkpt lat="45.5162064" lon="11.7569314"><ele>22.0</ele><time>2026-04-29T07:32:41.242Z</time></trkpt><trkpt lat="45.5161446" lon="11.7568731"><ele>22.0</ele><time>2026-04-29T07:32:42.243Z</time></trkpt><trkpt lat="45.5160876" lon="11.7568198"><ele>22.5</ele><time>2026-04-29T07:32:43.242Z</time></trkpt><trkpt lat="45.5160321" lon="11.7567601"><ele>23.0</ele><time>2026-04-29T07:32:44.243Z</time></trkpt><trkpt lat="45.5159742" lon="11.7567087"><ele>23.5</ele><time>2026-04-29T07:32:45.242Z</time></trkpt><trkpt lat="45.5159188" lon="11.7566605"><ele>24.0</ele><time>2026-04-29T07:32:46.242Z</time></trkpt><trkpt lat="45.5158152" lon="11.7565617"><ele>24.500000000000004</ele><time>2026-04-29T07:32:48.243Z</time></trkpt><trkpt lat="45.5157569" lon="11.7565057"><ele>25.0</ele><time>2026-04-29T07:32:49.242Z</time></trkpt><trkpt lat="45.5157001" lon="11.7564475"><ele>25.000000000000004</ele><time>2026-04-29T07:32:50.242Z</time></trkpt><trkpt lat="45.5156433" lon="11.7563934"><ele>25.0</ele><time>2026-04-29T07:32:51.242Z</time></trkpt><trkpt lat="45.5155905" lon="11.7563429"><ele>25.0</ele><time>2026-04-29T07:32:52.243Z</time></trkpt><trkpt lat="45.515537" lon="11.7562861"><ele>25.0</ele><time>2026-04-29T07:32:53.242Z</time></trkpt><trkpt lat="45.5154839" lon="11.7562315"><ele>25.0</ele><time>2026-04-29T07:32:54.242Z</time></trkpt><trkpt lat="45.5154297" lon="11.7561742"><ele>25.000000000000004</ele><time>2026-04-29T07:32:55.242Z</time></trkpt><trkpt lat="45.515377" lon="11.7561229"><ele>25.0</ele><time>2026-04-29T07:32:56.242Z</time></trkpt><trkpt lat="45.5153246" lon="11.7560665"><ele>24.6</ele><time>2026-04-29T07:32:57.242Z</time></trkpt><trkpt lat="45.515226" lon="11.7559691"><ele>24.2</ele><time>2026-04-29T07:32:59.243Z</time></trkpt><trkpt lat="45.5151267" lon="11.7558764"><ele>23.799999999999997</ele><time>2026-04-29T07:33:01.242Z</time></trkpt><trkpt lat="45.5150445" lon="11.7557935"><ele>23.4</ele><time>2026-04-29T07:33:03.243Z</time></trkpt><trkpt lat="45.5149616" lon="11.7557415"><ele>23.0</ele><time>2026-04-29T07:33:05.243Z</time></trkpt><trkpt lat="45.5148931" lon="11.7556723"><ele>23.0</ele><time>2026-04-29T07:33:07.242Z</time></trkpt><trkpt lat="45.5148344" lon="11.7555859"><ele>23.0</ele><time>2026-04-29T07:33:09.243Z</time></trkpt><trkpt lat="45.5147634" lon="11.7554986"><ele>23.0</ele><time>2026-04-29T07:33:11.242Z</time></trkpt><trkpt lat="45.5146704" lon="11.7554117"><ele>23.0</ele><time>2026-04-29T07:33:13.241Z</time></trkpt><trkpt lat="45.5145809" lon="11.7553092"><ele>23.0</ele><time>2026-04-29T07:33:15.242Z</time></trkpt><trkpt lat="45.5144909" lon="11.7552344"><ele>22.799999999999997</ele><time>2026-04-29T07:33:17.241Z</time></trkpt><trkpt lat="45.514406" lon="11.7551536"><ele>22.6</ele><time>2026-04-29T07:33:19.241Z</time></trkpt><trkpt lat="45.5143083" lon="11.755073"><ele>22.4</ele><time>2026-04-29T07:33:21.242Z</time></trkpt><trkpt lat="45.5142028" lon="11.7549873"><ele>22.200000000000003</ele><time>2026-04-29T07:33:23.241Z</time></trkpt><trkpt lat="45.5141193" lon="11.7548943"><ele>22.0</ele><time>2026-04-29T07:33:25.241Z</time></trkpt><trkpt lat="45.5140303" lon="11.7548029"><ele>22.0</ele><time>2026-04-29T07:33:27.242Z</time></trkpt><trkpt lat="45.5139702" lon="11.7547518"><ele>22.0</ele><time>2026-04-29T07:33:28.241Z</time></trkpt><trkpt lat="45.5139098" lon="11.7547046"><ele>22.0</ele><time>2026-04-29T07:33:29.242Z</time></trkpt><trkpt lat="45.5138546" lon="11.7546559"><ele>22.0</ele><time>2026-04-29T07:33:30.241Z</time></trkpt><trkpt lat="45.5137418" lon="11.754571"><ele>22.0</ele><time>2026-04-29T07:33:32.241Z</time></trkpt><trkpt lat="45.5136747" lon="11.7545176"><ele>22.0</ele><time>2026-04-29T07:33:33.242Z</time></trkpt><trkpt lat="45.513619" lon="11.7544674"><ele>22.0</ele><time>2026-04-29T07:33:34.241Z</time></trkpt><trkpt lat="45.5135618" lon="11.754414"><ele>22.0</ele><time>2026-04-29T07:33:35.241Z</time></trkpt><trkpt lat="45.5135068" lon="11.7543565"><ele>22.0</ele><time>2026-04-29T07:33:36.241Z</time></trkpt><trkpt lat="45.5134523" lon="11.754296"><ele>22.0</ele><time>2026-04-29T07:33:37.242Z</time></trkpt><trkpt lat="45.513395" lon="11.7542388"><ele>22.0</ele><time>2026-04-29T07:33:38.241Z</time></trkpt><trkpt lat="45.5133322" lon="11.7541824"><ele>22.0</ele><time>2026-04-29T07:33:39.241Z</time></trkpt><trkpt lat="45.5132725" lon="11.7541228"><ele>22.0</ele><time>2026-04-29T07:33:40.242Z</time></trkpt><trkpt lat="45.5132135" lon="11.754064"><ele>22.0</ele><time>2026-04-29T07:33:41.242Z</time></trkpt><trkpt lat="45.513154" lon="11.7540023"><ele>22.0</ele><time>2026-04-29T07:33:42.241Z</time></trkpt><trkpt lat="45.5130979" lon="11.7539408"><ele>22.0</ele><time>2026-04-29T07:33:43.241Z</time></trkpt><trkpt lat="45.5130418" lon="11.7538838"><ele>22.0</ele><time>2026-04-29T07:33:44.242Z</time></trkpt><trkpt lat="45.512983" lon="11.7538287"><ele>22.0</ele><time>2026-04-29T07:33:45.242Z</time></trkpt><trkpt lat="45.5129342" lon="11.7537703"><ele>22.0</ele><time>2026-04-29T07:33:46.241Z</time></trkpt><trkpt lat="45.5128791" lon="11.7537167"><ele>22.0</ele><time>2026-04-29T07:33:47.241Z</time></trkpt><trkpt lat="45.5128217" lon="11.7536625"><ele>21.857142857142858</ele><time>2026-04-29T07:33:48.241Z</time></trkpt><trkpt lat="45.5127655" lon="11.7536078"><ele>21.714285714285715</ele><time>2026-04-29T07:33:49.241Z</time></trkpt><trkpt lat="45.5127067" lon="11.7535531"><ele>21.57142857142857</ele><time>2026-04-29T07:33:50.241Z</time></trkpt><trkpt lat="45.5126481" lon="11.7534941"><ele>21.42857142857143</ele><time>2026-04-29T07:33:51.242Z</time></trkpt><trkpt lat="45.512594" lon="11.7534425"><ele>21.285714285714285</ele><time>2026-04-29T07:33:52.242Z</time></trkpt><trkpt lat="45.5125355" lon="11.7533834"><ele>21.142857142857142</ele><time>2026-04-29T07:33:53.242Z</time></trkpt><trkpt lat="45.5124749" lon="11.7533274"><ele>21.0</ele><time>2026-04-29T07:33:54.242Z</time></trkpt><trkpt lat="45.5124138" lon="11.7532686"><ele>21.0</ele><time>2026-04-29T07:33:55.241Z</time></trkpt><trkpt lat="45.5123536" lon="11.7532107"><ele>21.0</ele><time>2026-04-29T07:33:56.241Z</time></trkpt><trkpt lat="45.512294" lon="11.7531528"><ele>21.0</ele><time>2026-04-29T07:33:57.242Z</time></trkpt><trkpt lat="45.5122348" lon="11.7530952"><ele>21.0</ele><time>2026-04-29T07:33:58.241Z</time></trkpt><trkpt lat="45.5121817" lon="11.7530419"><ele>21.0</ele><time>2026-04-29T07:33:59.241Z</time></trkpt><trkpt lat="45.5121208" lon="11.7529892"><ele>21.0</ele><time>2026-04-29T07:34:00.241Z</time></trkpt><trkpt lat="45.5120609" lon="11.7529295"><ele>21.0</ele><time>2026-04-29T07:34:01.241Z</time></trkpt><trkpt lat="45.512004" lon="11.7528786"><ele>21.0</ele><time>2026-04-29T07:34:02.241Z</time></trkpt><trkpt lat="45.5119462" lon="11.7528232"><ele>21.0</ele><time>2026-04-29T07:34:03.241Z</time></trkpt><trkpt lat="45.5118884" lon="11.7527693"><ele>21.0</ele><time>2026-04-29T07:34:04.242Z</time></trkpt><trkpt lat="45.511832" lon="11.7527221"><ele>21.0</ele><time>2026-04-29T07:34:05.241Z</time></trkpt><trkpt lat="45.5117724" lon="11.752674"><ele>21.0</ele><time>2026-04-29T07:34:06.242Z</time></trkpt><trkpt lat="45.5117178" lon="11.7526206"><ele>21.0</ele><time>2026-04-29T07:34:07.241Z</time></trkpt><trkpt lat="45.5116618" lon="11.7525668"><ele>21.0</ele><time>2026-04-29T07:34:08.241Z</time></trkpt><trkpt lat="45.5116061" lon="11.7525107"><ele>21.0</ele><time>2026-04-29T07:34:09.242Z</time></trkpt><trkpt lat="45.5115473" lon="11.7524561"><ele>21.0</ele><time>2026-04-29T07:34:10.242Z</time></trkpt><trkpt lat="45.5114924" lon="11.7524028"><ele>21.0</ele><time>2026-04-29T07:34:11.241Z</time></trkpt><trkpt lat="45.5114372" lon="11.7523441"><ele>21.0</ele><time>2026-04-29T07:34:12.241Z</time></trkpt><trkpt lat="45.5113754" lon="11.752284"><ele>21.0</ele><time>2026-04-29T07:34:13.241Z</time></trkpt><trkpt lat="45.5113093" lon="11.752224"><ele>21.0</ele><time>2026-04-29T07:34:14.241Z</time></trkpt><trkpt lat="45.5112448" lon="11.7521638"><ele>21.0</ele><time>2026-04-29T07:34:15.242Z</time></trkpt><trkpt lat="45.5111837" lon="11.7521016"><ele>21.0</ele><time>2026-04-29T07:34:16.241Z</time></trkpt><trkpt lat="45.5111264" lon="11.7520383"><ele>21.0</ele><time>2026-04-29T07:34:17.241Z</time></trkpt><trkpt lat="45.5110641" lon="11.7519732"><ele>21.0</ele><time>2026-04-29T07:34:18.241Z</time></trkpt><trkpt lat="45.5109994" lon="11.7519164"><ele>21.0</ele><time>2026-04-29T07:34:19.241Z</time></trkpt><trkpt lat="45.5109395" lon="11.7518588"><ele>21.0</ele><time>2026-04-29T07:34:20.241Z</time></trkpt><trkpt lat="45.5108827" lon="11.7517993"><ele>21.0</ele><time>2026-04-29T07:34:21.242Z</time></trkpt><trkpt lat="45.5108257" lon="11.7517404"><ele>21.0</ele><time>2026-04-29T07:34:22.241Z</time></trkpt><trkpt lat="45.510768" lon="11.7516816"><ele>21.142857142857142</ele><time>2026-04-29T07:34:23.242Z</time></trkpt><trkpt lat="45.5107064" lon="11.7516213"><ele>21.285714285714285</ele><time>2026-04-29T07:34:24.241Z</time></trkpt><trkpt lat="45.5106443" lon="11.7515658"><ele>21.42857142857143</ele><time>2026-04-29T07:34:25.241Z</time></trkpt><trkpt lat="45.5105843" lon="11.7515102"><ele>21.57142857142857</ele><time>2026-04-29T07:34:26.241Z</time></trkpt><trkpt lat="45.5105207" lon="11.751459"><ele>21.714285714285715</ele><time>2026-04-29T07:34:27.242Z</time></trkpt><trkpt lat="45.5104684" lon="11.7514045"><ele>21.857142857142858</ele><time>2026-04-29T07:34:28.241Z</time></trkpt><trkpt lat="45.5104132" lon="11.7513505"><ele>22.0</ele><time>2026-04-29T07:34:29.241Z</time></trkpt><trkpt lat="45.5103569" lon="11.7512952"><ele>22.142857142857142</ele><time>2026-04-29T07:34:30.242Z</time></trkpt><trkpt lat="45.5102984" lon="11.7512429"><ele>22.285714285714285</ele><time>2026-04-29T07:34:31.241Z</time></trkpt><trkpt lat="45.5102408" lon="11.7511909"><ele>22.42857142857143</ele><time>2026-04-29T07:34:32.241Z</time></trkpt><trkpt lat="45.5101808" lon="11.7511353"><ele>22.57142857142857</ele><time>2026-04-29T07:34:33.242Z</time></trkpt><trkpt lat="45.5101183" lon="11.7510831"><ele>22.71428571428571</ele><time>2026-04-29T07:34:34.241Z</time></trkpt><trkpt lat="45.5100591" lon="11.7510271"><ele>22.857142857142858</ele><time>2026-04-29T07:34:35.242Z</time></trkpt><trkpt lat="45.5100013" lon="11.7509672"><ele>23.0</ele><time>2026-04-29T07:34:36.241Z</time></trkpt><trkpt lat="45.5099511" lon="11.7509123"><ele>23.0</ele><time>2026-04-29T07:34:37.241Z</time></trkpt><trkpt lat="45.5098964" lon="11.7508663"><ele>23.0</ele><time>2026-04-29T07:34:38.241Z</time></trkpt><trkpt lat="45.509837" lon="11.7508066"><ele>23.0</ele><time>2026-04-29T07:34:39.241Z</time></trkpt><trkpt lat="45.5097806" lon="11.7507547"><ele>23.0</ele><time>2026-04-29T07:34:40.241Z</time></trkpt><trkpt lat="45.5097183" lon="11.7506973"><ele>23.0</ele><time>2026-04-29T07:34:41.241Z</time></trkpt><trkpt lat="45.509658" lon="11.7506451"><ele>23.0</ele><time>2026-04-29T07:34:42.241Z</time></trkpt><trkpt lat="45.5095983" lon="11.7505969"><ele>23.0</ele><time>2026-04-29T07:34:43.242Z</time></trkpt><trkpt lat="45.5095397" lon="11.7505393"><ele>23.166666666666668</ele><time>2026-04-29T07:34:44.241Z</time></trkpt><trkpt lat="45.5094802" lon="11.7504855"><ele>23.333333333333336</ele><time>2026-04-29T07:34:45.242Z</time></trkpt><trkpt lat="45.5094275" lon="11.7504274"><ele>23.5</ele><time>2026-04-29T07:34:46.241Z</time></trkpt><trkpt lat="45.5093702" lon="11.7503726"><ele>23.666666666666668</ele><time>2026-04-29T07:34:47.242Z</time></trkpt><trkpt lat="45.5092717" lon="11.7502793"><ele>23.833333333333332</ele><time>2026-04-29T07:34:49.241Z</time></trkpt><trkpt lat="45.5091796" lon="11.75018"><ele>24.0</ele><time>2026-04-29T07:34:51.241Z</time></trkpt><trkpt lat="45.5090927" lon="11.7501116"><ele>23.799999999999997</ele><time>2026-04-29T07:34:53.241Z</time></trkpt><trkpt lat="45.5090201" lon="11.7500438"><ele>23.599999999999998</ele><time>2026-04-29T07:34:56.241Z</time></trkpt><trkpt lat="45.5089435" lon="11.7499756"><ele>23.4</ele><time>2026-04-29T07:34:59.242Z</time></trkpt><trkpt lat="45.5088852" lon="11.7499044"><ele>23.2</ele><time>2026-04-29T07:35:01.241Z</time></trkpt><trkpt lat="45.5088143" lon="11.7498097"><ele>23.0</ele><time>2026-04-29T07:35:03.242Z</time></trkpt><trkpt lat="45.5087322" lon="11.7497286"><ele>23.0</ele><time>2026-04-29T07:35:05.242Z</time></trkpt><trkpt lat="45.5086344" lon="11.749638"><ele>23.0</ele><time>2026-04-29T07:35:07.241Z</time></trkpt><trkpt lat="45.5085304" lon="11.7495384"><ele>23.0</ele><time>2026-04-29T07:35:09.241Z</time></trkpt><trkpt lat="45.5084781" lon="11.7494879"><ele>23.0</ele><time>2026-04-29T07:35:10.241Z</time></trkpt><trkpt lat="45.5083739" lon="11.7493818"><ele>23.0</ele><time>2026-04-29T07:35:12.241Z</time></trkpt><trkpt lat="45.5083188" lon="11.7493332"><ele>22.857142857142858</ele><time>2026-04-29T07:35:13.242Z</time></trkpt><trkpt lat="45.5082621" lon="11.7492786"><ele>22.71428571428571</ele><time>2026-04-29T07:35:14.242Z</time></trkpt><trkpt lat="45.5082059" lon="11.7492222"><ele>22.57142857142857</ele><time>2026-04-29T07:35:15.241Z</time></trkpt><trkpt lat="45.5081475" lon="11.749165"><ele>22.42857142857143</ele><time>2026-04-29T07:35:16.241Z</time></trkpt><trkpt lat="45.5080872" lon="11.7491092"><ele>22.285714285714285</ele><time>2026-04-29T07:35:17.241Z</time></trkpt><trkpt lat="45.5080287" lon="11.7490587"><ele>22.142857142857142</ele><time>2026-04-29T07:35:18.241Z</time></trkpt><trkpt lat="45.5079706" lon="11.7490031"><ele>22.0</ele><time>2026-04-29T07:35:19.241Z</time></trkpt><trkpt lat="45.5079143" lon="11.7489438"><ele>21.714285714285715</ele><time>2026-04-29T07:35:20.242Z</time></trkpt><trkpt lat="45.5078588" lon="11.748888"><ele>21.428571428571427</ele><time>2026-04-29T07:35:21.241Z</time></trkpt><trkpt lat="45.5078019" lon="11.7488362"><ele>21.142857142857142</ele><time>2026-04-29T07:35:22.242Z</time></trkpt><trkpt lat="45.5077414" lon="11.7487782"><ele>20.857142857142858</ele><time>2026-04-29T07:35:23.241Z</time></trkpt><trkpt lat="45.5076804" lon="11.7487239"><ele>20.571428571428573</ele><time>2026-04-29T07:35:24.242Z</time></trkpt><trkpt lat="45.5076192" lon="11.7486668"><ele>20.285714285714285</ele><time>2026-04-29T07:35:25.242Z</time></trkpt><trkpt lat="45.5075568" lon="11.7486051"><ele>20.0</ele><time>2026-04-29T07:35:26.241Z</time></trkpt><trkpt lat="45.507491" lon="11.7485439"><ele>20.0</ele><time>2026-04-29T07:35:27.241Z</time></trkpt><trkpt lat="45.5074335" lon="11.748488"><ele>20.0</ele><time>2026-04-29T07:35:28.241Z</time></trkpt><trkpt lat="45.5073747" lon="11.7484314"><ele>20.0</ele><time>2026-04-29T07:35:29.241Z</time></trkpt><trkpt lat="45.5073129" lon="11.7483734"><ele>20.0</ele><time>2026-04-29T07:35:30.241Z</time></trkpt><trkpt lat="45.5072548" lon="11.7483128"><ele>20.0</ele><time>2026-04-29T07:35:31.241Z</time></trkpt><trkpt lat="45.5071951" lon="11.7482494"><ele>20.0</ele><time>2026-04-29T07:35:32.241Z</time></trkpt><trkpt lat="45.5071379" lon="11.7481938"><ele>20.0</ele><time>2026-04-29T07:35:33.241Z</time></trkpt><trkpt lat="45.5070769" lon="11.7481401"><ele>20.285714285714285</ele><time>2026-04-29T07:35:34.241Z</time></trkpt><trkpt lat="45.5070173" lon="11.7480795"><ele>20.571428571428573</ele><time>2026-04-29T07:35:35.242Z</time></trkpt><trkpt lat="45.506958" lon="11.7480189"><ele>20.857142857142858</ele><time>2026-04-29T07:35:36.241Z</time></trkpt><trkpt lat="45.506895" lon="11.7479564"><ele>21.142857142857142</ele><time>2026-04-29T07:35:37.242Z</time></trkpt><trkpt lat="45.5068343" lon="11.7478984"><ele>21.428571428571427</ele><time>2026-04-29T07:35:38.242Z</time></trkpt><trkpt lat="45.5067747" lon="11.7478404"><ele>21.714285714285715</ele><time>2026-04-29T07:35:39.241Z</time></trkpt><trkpt lat="45.5067101" lon="11.7477798"><ele>22.0</ele><time>2026-04-29T07:35:40.241Z</time></trkpt><trkpt lat="45.5066494" lon="11.7477183"><ele>22.0</ele><time>2026-04-29T07:35:41.241Z</time></trkpt><trkpt lat="45.506589" lon="11.7476576"><ele>22.0</ele><time>2026-04-29T07:35:42.241Z</time></trkpt><trkpt lat="45.506528" lon="11.7475944"><ele>22.0</ele><time>2026-04-29T07:35:43.241Z</time></trkpt><trkpt lat="45.5064635" lon="11.7475332"><ele>22.0</ele><time>2026-04-29T07:35:44.242Z</time></trkpt><trkpt lat="45.5064025" lon="11.7474776"><ele>22.0</ele><time>2026-04-29T07:35:45.242Z</time></trkpt><trkpt lat="45.5063417" lon="11.7474181"><ele>22.0</ele><time>2026-04-29T07:35:46.241Z</time></trkpt><trkpt lat="45.5062791" lon="11.7473586"><ele>22.0</ele><time>2026-04-29T07:35:47.241Z</time></trkpt><trkpt lat="45.5062215" lon="11.747303"><ele>22.0</ele><time>2026-04-29T07:35:48.241Z</time></trkpt><trkpt lat="45.5061619" lon="11.7472459"><ele>22.0</ele><time>2026-04-29T07:35:49.242Z</time></trkpt><trkpt lat="45.5061036" lon="11.7471908"><ele>22.0</ele><time>2026-04-29T07:35:50.241Z</time></trkpt><trkpt lat="45.5060391" lon="11.7471262"><ele>22.0</ele><time>2026-04-29T07:35:51.242Z</time></trkpt><trkpt lat="45.5059755" lon="11.7470614"><ele>22.0</ele><time>2026-04-29T07:35:52.241Z</time></trkpt><trkpt lat="45.5059082" lon="11.7470068"><ele>22.0</ele><time>2026-04-29T07:35:53.241Z</time></trkpt><trkpt lat="45.5058481" lon="11.7469465"><ele>22.0</ele><time>2026-04-29T07:35:54.241Z</time></trkpt><trkpt lat="45.5057888" lon="11.7468892"><ele>22.0</ele><time>2026-04-29T07:35:55.241Z</time></trkpt><trkpt lat="45.5057295" lon="11.7468393"><ele>22.0</ele><time>2026-04-29T07:35:56.241Z</time></trkpt><trkpt lat="45.5056743" lon="11.7467914"><ele>22.0</ele><time>2026-04-29T07:35:57.241Z</time></trkpt><trkpt lat="45.5056198" lon="11.7467384"><ele>22.0</ele><time>2026-04-29T07:35:58.242Z</time></trkpt><trkpt lat="45.5055625" lon="11.7466895"><ele>22.0</ele><time>2026-04-29T07:35:59.241Z</time></trkpt><trkpt lat="45.5055059" lon="11.7466288"><ele>22.0</ele><time>2026-04-29T07:36:00.242Z</time></trkpt><trkpt lat="45.5054491" lon="11.7465673"><ele>22.142857142857142</ele><time>2026-04-29T07:36:01.241Z</time></trkpt><trkpt lat="45.5053913" lon="11.7465144"><ele>22.285714285714285</ele><time>2026-04-29T07:36:02.241Z</time></trkpt><trkpt lat="45.5053316" lon="11.7464555"><ele>22.42857142857143</ele><time>2026-04-29T07:36:03.241Z</time></trkpt><trkpt lat="45.5052693" lon="11.746397"><ele>22.57142857142857</ele><time>2026-04-29T07:36:04.241Z</time></trkpt><trkpt lat="45.5052087" lon="11.7463431"><ele>22.71428571428571</ele><time>2026-04-29T07:36:05.241Z</time></trkpt><trkpt lat="45.5051486" lon="11.7462864"><ele>22.857142857142858</ele><time>2026-04-29T07:36:06.241Z</time></trkpt><trkpt lat="45.505097" lon="11.7462252"><ele>23.0</ele><time>2026-04-29T07:36:07.241Z</time></trkpt><trkpt lat="45.505044" lon="11.7461635"><ele>23.0</ele><time>2026-04-29T07:36:08.241Z</time></trkpt><trkpt lat="45.5049825" lon="11.7461052"><ele>23.0</ele><time>2026-04-29T07:36:09.241Z</time></trkpt><trkpt lat="45.5049257" lon="11.7460431"><ele>23.0</ele><time>2026-04-29T07:36:10.241Z</time></trkpt><trkpt lat="45.5048714" lon="11.7459818"><ele>23.0</ele><time>2026-04-29T07:36:11.241Z</time></trkpt><trkpt lat="45.5048183" lon="11.7459232"><ele>23.0</ele><time>2026-04-29T07:36:12.241Z</time></trkpt><trkpt lat="45.5047589" lon="11.745867"><ele>23.0</ele><time>2026-04-29T07:36:13.241Z</time></trkpt><trkpt lat="45.5047008" lon="11.7458139"><ele>23.0</ele><time>2026-04-29T07:36:14.241Z</time></trkpt><trkpt lat="45.5046487" lon="11.745756"><ele>23.0</ele><time>2026-04-29T07:36:15.241Z</time></trkpt><trkpt lat="45.504597" lon="11.7456987"><ele>23.0</ele><time>2026-04-29T07:36:16.241Z</time></trkpt><trkpt lat="45.5045435" lon="11.7456428"><ele>23.0</ele><time>2026-04-29T07:36:17.241Z</time></trkpt><trkpt lat="45.5044881" lon="11.7455856"><ele>23.0</ele><time>2026-04-29T07:36:18.241Z</time></trkpt><trkpt lat="45.5044324" lon="11.745529"><ele>23.0</ele><time>2026-04-29T07:36:19.242Z</time></trkpt><trkpt lat="45.5043789" lon="11.7454789"><ele>23.0</ele><time>2026-04-29T07:36:20.242Z</time></trkpt><trkpt lat="45.504325" lon="11.7454294"><ele>23.0</ele><time>2026-04-29T07:36:21.242Z</time></trkpt><trkpt lat="45.5042735" lon="11.7453773"><ele>23.0</ele><time>2026-04-29T07:36:22.241Z</time></trkpt><trkpt lat="45.5042203" lon="11.7453266"><ele>23.0</ele><time>2026-04-29T07:36:23.241Z</time></trkpt><trkpt lat="45.5041605" lon="11.7452808"><ele>23.0</ele><time>2026-04-29T07:36:24.242Z</time></trkpt><trkpt lat="45.5041028" lon="11.7452404"><ele>23.0</ele><time>2026-04-29T07:36:25.241Z</time></trkpt><trkpt lat="45.504039" lon="11.7451865"><ele>23.0</ele><time>2026-04-29T07:36:26.242Z</time></trkpt><trkpt lat="45.5039748" lon="11.7451322"><ele>23.0</ele><time>2026-04-29T07:36:27.241Z</time></trkpt><trkpt lat="45.5039108" lon="11.7450853"><ele>23.0</ele><time>2026-04-29T07:36:28.241Z</time></trkpt><trkpt lat="45.5038505" lon="11.7450437"><ele>22.599999999999998</ele><time>2026-04-29T07:36:29.242Z</time></trkpt><trkpt lat="45.5037393" lon="11.744964"><ele>22.2</ele><time>2026-04-29T07:36:31.241Z</time></trkpt><trkpt lat="45.5036325" lon="11.7448607"><ele>21.8</ele><time>2026-04-29T07:36:33.241Z</time></trkpt><trkpt lat="45.5035804" lon="11.7448096"><ele>21.4</ele><time>2026-04-29T07:36:34.241Z</time></trkpt><trkpt lat="45.5035199" lon="11.7447493"><ele>21.0</ele><time>2026-04-29T07:36:35.241Z</time></trkpt><trkpt lat="45.503463" lon="11.7446908"><ele>21.0</ele><time>2026-04-29T07:36:36.242Z</time></trkpt><trkpt lat="45.5034059" lon="11.7446252"><ele>21.0</ele><time>2026-04-29T07:36:37.241Z</time></trkpt><trkpt lat="45.5033542" lon="11.7445665"><ele>21.0</ele><time>2026-04-29T07:36:38.241Z</time></trkpt><trkpt lat="45.5033047" lon="11.7445105"><ele>21.0</ele><time>2026-04-29T07:36:39.242Z</time></trkpt><trkpt lat="45.5032477" lon="11.7444556"><ele>21.0</ele><time>2026-04-29T07:36:40.241Z</time></trkpt><trkpt lat="45.503187" lon="11.7443929"><ele>21.0</ele><time>2026-04-29T07:36:41.241Z</time></trkpt><trkpt lat="45.503128" lon="11.7443374"><ele>21.0</ele><time>2026-04-29T07:36:42.241Z</time></trkpt><trkpt lat="45.5030665" lon="11.7442805"><ele>20.833333333333332</ele><time>2026-04-29T07:36:43.242Z</time></trkpt><trkpt lat="45.5030036" lon="11.7442218"><ele>20.666666666666668</ele><time>2026-04-29T07:36:44.242Z</time></trkpt><trkpt lat="45.5029465" lon="11.7441631"><ele>20.5</ele><time>2026-04-29T07:36:45.241Z</time></trkpt><trkpt lat="45.5028908" lon="11.7441087"><ele>20.333333333333336</ele><time>2026-04-29T07:36:46.241Z</time></trkpt><trkpt lat="45.5028332" lon="11.7440609"><ele>20.166666666666668</ele><time>2026-04-29T07:36:47.242Z</time></trkpt><trkpt lat="45.5027308" lon="11.7439518"><ele>20.0</ele><time>2026-04-29T07:36:49.241Z</time></trkpt><trkpt lat="45.5026775" lon="11.7439038"><ele>20.5</ele><time>2026-04-29T07:36:50.241Z</time></trkpt><trkpt lat="45.502572" lon="11.7438156"><ele>21.0</ele><time>2026-04-29T07:36:52.241Z</time></trkpt><trkpt lat="45.502468" lon="11.7437071"><ele>21.5</ele><time>2026-04-29T07:36:54.242Z</time></trkpt><trkpt lat="45.5023722" lon="11.7436181"><ele>22.0</ele><time>2026-04-29T07:36:56.241Z</time></trkpt><trkpt lat="45.5022775" lon="11.7435353"><ele>22.0</ele><time>2026-04-29T07:36:58.241Z</time></trkpt><trkpt lat="45.5021827" lon="11.7434535"><ele>22.0</ele><time>2026-04-29T07:37:00.241Z</time></trkpt><trkpt lat="45.5021058" lon="11.7433577"><ele>22.0</ele><time>2026-04-29T07:37:02.241Z</time></trkpt><trkpt lat="45.5021081" lon="11.743212"><ele>22.0</ele><time>2026-04-29T07:37:04.241Z</time></trkpt><trkpt lat="45.5021594" lon="11.7430972"><ele>22.0</ele><time>2026-04-29T07:37:06.242Z</time></trkpt><trkpt lat="45.5021686" lon="11.742994"><ele>22.0</ele><time>2026-04-29T07:37:08.241Z</time></trkpt><trkpt lat="45.502109" lon="11.7429271"><ele>22.0</ele><time>2026-04-29T07:37:10.242Z</time></trkpt><trkpt lat="45.5020328" lon="11.7429719"><ele>22.0</ele><time>2026-04-29T07:37:12.241Z</time></trkpt><trkpt lat="45.5019517" lon="11.7429692"><ele>22.0</ele><time>2026-04-29T07:37:14.242Z</time></trkpt><trkpt lat="45.5018639" lon="11.742996"><ele>22.0</ele><time>2026-04-29T07:37:16.242Z</time></trkpt><trkpt lat="45.5017818" lon="11.7430157"><ele>22.0</ele><time>2026-04-29T07:37:18.241Z</time></trkpt><trkpt lat="45.5016999" lon="11.742986"><ele>22.0</ele><time>2026-04-29T07:37:20.241Z</time></trkpt><trkpt lat="45.5016295" lon="11.7429114"><ele>22.0</ele><time>2026-04-29T07:37:22.242Z</time></trkpt><trkpt lat="45.5015466" lon="11.7428186"><ele>22.0</ele><time>2026-04-29T07:37:24.241Z</time></trkpt><trkpt lat="45.5014464" lon="11.7427225"><ele>22.0</ele><time>2026-04-29T07:37:26.241Z</time></trkpt><trkpt lat="45.5013473" lon="11.7426203"><ele>22.0</ele><time>2026-04-29T07:37:28.242Z</time></trkpt><trkpt lat="45.5012401" lon="11.7425199"><ele>22.0</ele><time>2026-04-29T07:37:30.241Z</time></trkpt><trkpt lat="45.5011827" lon="11.7424636"><ele>22.0</ele><time>2026-04-29T07:37:31.242Z</time></trkpt><trkpt lat="45.5011276" lon="11.7424125"><ele>22.0</ele><time>2026-04-29T07:37:32.242Z</time></trkpt><trkpt lat="45.5010703" lon="11.7423603"><ele>22.0</ele><time>2026-04-29T07:37:33.242Z</time></trkpt><trkpt lat="45.501013" lon="11.7423077"><ele>22.0</ele><time>2026-04-29T07:37:34.241Z</time></trkpt><trkpt lat="45.500963" lon="11.7422509"><ele>22.0</ele><time>2026-04-29T07:37:35.241Z</time></trkpt><trkpt lat="45.5009094" lon="11.7421997"><ele>22.0</ele><time>2026-04-29T07:37:36.242Z</time></trkpt><trkpt lat="45.5008501" lon="11.7421465"><ele>22.0</ele><time>2026-04-29T07:37:37.242Z</time></trkpt><trkpt lat="45.5007929" lon="11.7420978"><ele>22.0</ele><time>2026-04-29T07:37:38.24Z</time></trkpt><trkpt lat="45.5007389" lon="11.7420487"><ele>22.0</ele><time>2026-04-29T07:37:39.24Z</time></trkpt><trkpt lat="45.500684" lon="11.741995"><ele>22.0</ele><time>2026-04-29T07:37:40.24Z</time></trkpt><trkpt lat="45.5006305" lon="11.7419387"><ele>22.0</ele><time>2026-04-29T07:37:41.241Z</time></trkpt><trkpt lat="45.5005773" lon="11.7418766"><ele>22.0</ele><time>2026-04-29T07:37:42.24Z</time></trkpt><trkpt lat="45.5005248" lon="11.7418226"><ele>22.0</ele><time>2026-04-29T07:37:43.241Z</time></trkpt><trkpt lat="45.5004662" lon="11.7417595"><ele>21.833333333333332</ele><time>2026-04-29T07:37:44.241Z</time></trkpt><trkpt lat="45.5004011" lon="11.7417035"><ele>21.666666666666664</ele><time>2026-04-29T07:37:45.241Z</time></trkpt><trkpt lat="45.5003416" lon="11.7416435"><ele>21.5</ele><time>2026-04-29T07:37:46.24Z</time></trkpt><trkpt lat="45.500288" lon="11.7415824"><ele>21.333333333333332</ele><time>2026-04-29T07:37:47.24Z</time></trkpt><trkpt lat="45.5001733" lon="11.74149"><ele>21.166666666666668</ele><time>2026-04-29T07:37:49.24Z</time></trkpt><trkpt lat="45.5001146" lon="11.7414346"><ele>21.0</ele><time>2026-04-29T07:37:50.241Z</time></trkpt><trkpt lat="45.5000599" lon="11.7413796"><ele>21.0</ele><time>2026-04-29T07:37:51.24Z</time></trkpt><trkpt lat="45.4999996" lon="11.7413228"><ele>21.0</ele><time>2026-04-29T07:37:52.24Z</time></trkpt><trkpt lat="45.4999431" lon="11.7412747"><ele>21.0</ele><time>2026-04-29T07:37:53.24Z</time></trkpt><trkpt lat="45.4998791" lon="11.7412249"><ele>21.0</ele><time>2026-04-29T07:37:54.24Z</time></trkpt><trkpt lat="45.4998201" lon="11.7411696"><ele>21.0</ele><time>2026-04-29T07:37:55.24Z</time></trkpt><trkpt lat="45.4997638" lon="11.7411094"><ele>21.0</ele><time>2026-04-29T07:37:56.24Z</time></trkpt><trkpt lat="45.499703" lon="11.7410441"><ele>21.0</ele><time>2026-04-29T07:37:57.24Z</time></trkpt><trkpt lat="45.4996436" lon="11.7409836"><ele>20.857142857142858</ele><time>2026-04-29T07:37:58.241Z</time></trkpt><trkpt lat="45.4995878" lon="11.7409238"><ele>20.714285714285715</ele><time>2026-04-29T07:37:59.24Z</time></trkpt><trkpt lat="45.4995286" lon="11.7408738"><ele>20.57142857142857</ele><time>2026-04-29T07:38:00.24Z</time></trkpt><trkpt lat="45.4994707" lon="11.7408219"><ele>20.42857142857143</ele><time>2026-04-29T07:38:01.24Z</time></trkpt><trkpt lat="45.4994127" lon="11.7407679"><ele>20.285714285714285</ele><time>2026-04-29T07:38:02.24Z</time></trkpt><trkpt lat="45.4993528" lon="11.7407124"><ele>20.142857142857142</ele><time>2026-04-29T07:38:03.24Z</time></trkpt><trkpt lat="45.4992938" lon="11.7406617"><ele>20.0</ele><time>2026-04-29T07:38:04.241Z</time></trkpt><trkpt lat="45.4992379" lon="11.7406082"><ele>20.0</ele><time>2026-04-29T07:38:05.24Z</time></trkpt><trkpt lat="45.4991843" lon="11.7405535"><ele>20.0</ele><time>2026-04-29T07:38:06.24Z</time></trkpt><trkpt lat="45.499127" lon="11.7404988"><ele>20.0</ele><time>2026-04-29T07:38:07.24Z</time></trkpt><trkpt lat="45.499064" lon="11.740439"><ele>20.0</ele><time>2026-04-29T07:38:08.24Z</time></trkpt><trkpt lat="45.4990054" lon="11.7403795"><ele>20.0</ele><time>2026-04-29T07:38:09.24Z</time></trkpt><trkpt lat="45.4989459" lon="11.7403237"><ele>20.0</ele><time>2026-04-29T07:38:10.24Z</time></trkpt><trkpt lat="45.4988872" lon="11.7402727"><ele>20.0</ele><time>2026-04-29T07:38:11.241Z</time></trkpt><trkpt lat="45.4988304" lon="11.7402155"><ele>20.0</ele><time>2026-04-29T07:38:12.24Z</time></trkpt><trkpt lat="45.4987726" lon="11.740157"><ele>20.0</ele><time>2026-04-29T07:38:13.241Z</time></trkpt><trkpt lat="45.4987113" lon="11.7400988"><ele>20.0</ele><time>2026-04-29T07:38:14.241Z</time></trkpt><trkpt lat="45.4986481" lon="11.7400327"><ele>20.0</ele><time>2026-04-29T07:38:15.24Z</time></trkpt><trkpt lat="45.498588" lon="11.7399662"><ele>20.0</ele><time>2026-04-29T07:38:16.24Z</time></trkpt><trkpt lat="45.4985261" lon="11.7399033"><ele>20.0</ele><time>2026-04-29T07:38:17.24Z</time></trkpt><trkpt lat="45.498466" lon="11.7398465"><ele>20.0</ele><time>2026-04-29T07:38:18.24Z</time></trkpt><trkpt lat="45.4984009" lon="11.7397843"><ele>19.666666666666668</ele><time>2026-04-29T07:38:19.24Z</time></trkpt><trkpt lat="45.4983406" lon="11.7397251"><ele>19.333333333333336</ele><time>2026-04-29T07:38:20.24Z</time></trkpt><trkpt lat="45.4982767" lon="11.7396627"><ele>19.0</ele><time>2026-04-29T07:38:21.24Z</time></trkpt><trkpt lat="45.4982102" lon="11.7396063"><ele>18.666666666666668</ele><time>2026-04-29T07:38:22.24Z</time></trkpt><trkpt lat="45.4981474" lon="11.739551"><ele>18.333333333333332</ele><time>2026-04-29T07:38:23.241Z</time></trkpt><trkpt lat="45.4980829" lon="11.7394854"><ele>18.0</ele><time>2026-04-29T07:38:24.24Z</time></trkpt><trkpt lat="45.4980178" lon="11.7394228"><ele>18.142857142857146</ele><time>2026-04-29T07:38:25.24Z</time></trkpt><trkpt lat="45.4979535" lon="11.7393563"><ele>18.285714285714285</ele><time>2026-04-29T07:38:26.241Z</time></trkpt><trkpt lat="45.4978955" lon="11.7393018"><ele>18.42857142857143</ele><time>2026-04-29T07:38:27.24Z</time></trkpt><trkpt lat="45.4978415" lon="11.7392415"><ele>18.571428571428573</ele><time>2026-04-29T07:38:28.24Z</time></trkpt><trkpt lat="45.4977808" lon="11.7391799"><ele>18.714285714285715</ele><time>2026-04-29T07:38:29.241Z</time></trkpt><trkpt lat="45.4977186" lon="11.7391202"><ele>18.857142857142858</ele><time>2026-04-29T07:38:30.24Z</time></trkpt><trkpt lat="45.4976583" lon="11.7390652"><ele>19.0</ele><time>2026-04-29T07:38:31.24Z</time></trkpt><trkpt lat="45.4975987" lon="11.7390115"><ele>19.0</ele><time>2026-04-29T07:38:32.241Z</time></trkpt><trkpt lat="45.4975427" lon="11.73896"><ele>19.0</ele><time>2026-04-29T07:38:33.241Z</time></trkpt><trkpt lat="45.4974831" lon="11.7389097"><ele>19.0</ele><time>2026-04-29T07:38:34.241Z</time></trkpt><trkpt lat="45.4974215" lon="11.7388513"><ele>19.0</ele><time>2026-04-29T07:38:35.24Z</time></trkpt><trkpt lat="45.4973578" lon="11.7387969"><ele>19.0</ele><time>2026-04-29T07:38:36.24Z</time></trkpt><trkpt lat="45.4973033" lon="11.7387445"><ele>19.0</ele><time>2026-04-29T07:38:37.24Z</time></trkpt><trkpt lat="45.4972445" lon="11.7386889"><ele>19.0</ele><time>2026-04-29T07:38:38.24Z</time></trkpt><trkpt lat="45.4971842" lon="11.738625"><ele>19.0</ele><time>2026-04-29T07:38:39.24Z</time></trkpt><trkpt lat="45.4971236" lon="11.7385651"><ele>19.0</ele><time>2026-04-29T07:38:40.241Z</time></trkpt><trkpt lat="45.4970622" lon="11.7385097"><ele>19.0</ele><time>2026-04-29T07:38:41.241Z</time></trkpt><trkpt lat="45.4970068" lon="11.7384559"><ele>19.0</ele><time>2026-04-29T07:38:42.24Z</time></trkpt><trkpt lat="45.4969455" lon="11.7384032"><ele>19.0</ele><time>2026-04-29T07:38:43.24Z</time></trkpt><trkpt lat="45.4968802" lon="11.7383408"><ele>19.0</ele><time>2026-04-29T07:38:44.24Z</time></trkpt><trkpt lat="45.4968196" lon="11.7382761"><ele>19.0</ele><time>2026-04-29T07:38:45.241Z</time></trkpt><trkpt lat="45.496759" lon="11.7382141"><ele>19.285714285714285</ele><time>2026-04-29T07:38:46.24Z</time></trkpt><trkpt lat="45.4966987" lon="11.7381601"><ele>19.571428571428573</ele><time>2026-04-29T07:38:47.241Z</time></trkpt><trkpt lat="45.4966423" lon="11.7381051"><ele>19.857142857142858</ele><time>2026-04-29T07:38:48.24Z</time></trkpt><trkpt lat="45.496583" lon="11.7380509"><ele>20.142857142857142</ele><time>2026-04-29T07:38:49.24Z</time></trkpt><trkpt lat="45.4965232" lon="11.7379983"><ele>20.42857142857143</ele><time>2026-04-29T07:38:50.24Z</time></trkpt><trkpt lat="45.4964653" lon="11.7379435"><ele>20.714285714285715</ele><time>2026-04-29T07:38:51.24Z</time></trkpt><trkpt lat="45.4964049" lon="11.7378831"><ele>21.0</ele><time>2026-04-29T07:38:52.241Z</time></trkpt><trkpt lat="45.4963495" lon="11.7378239"><ele>21.0</ele><time>2026-04-29T07:38:53.24Z</time></trkpt><trkpt lat="45.4962912" lon="11.7377662"><ele>21.0</ele><time>2026-04-29T07:38:54.24Z</time></trkpt><trkpt lat="45.496232" lon="11.7377119"><ele>21.0</ele><time>2026-04-29T07:38:55.24Z</time></trkpt><trkpt lat="45.4961769" lon="11.7376561"><ele>21.0</ele><time>2026-04-29T07:38:56.241Z</time></trkpt><trkpt lat="45.4961163" lon="11.7375965"><ele>21.0</ele><time>2026-04-29T07:38:57.24Z</time></trkpt><trkpt lat="45.4960562" lon="11.7375424"><ele>21.0</ele><time>2026-04-29T07:38:58.241Z</time></trkpt><trkpt lat="45.4959988" lon="11.7374844"><ele>21.0</ele><time>2026-04-29T07:38:59.24Z</time></trkpt><trkpt lat="45.4959399" lon="11.7374299"><ele>21.0</ele><time>2026-04-29T07:39:00.24Z</time></trkpt><trkpt lat="45.4958886" lon="11.7373744"><ele>21.0</ele><time>2026-04-29T07:39:01.24Z</time></trkpt><trkpt lat="45.4958324" lon="11.7373194"><ele>21.0</ele><time>2026-04-29T07:39:02.241Z</time></trkpt><trkpt lat="45.495778" lon="11.7372627"><ele>21.0</ele><time>2026-04-29T07:39:03.24Z</time></trkpt><trkpt lat="45.4956794" lon="11.7371552"><ele>21.0</ele><time>2026-04-29T07:39:05.24Z</time></trkpt><trkpt lat="45.4956259" lon="11.7370975"><ele>21.0</ele><time>2026-04-29T07:39:06.241Z</time></trkpt><trkpt lat="45.4955104" lon="11.7369983"><ele>21.0</ele><time>2026-04-29T07:39:08.241Z</time></trkpt><trkpt lat="45.495453" lon="11.736948"><ele>21.0</ele><time>2026-04-29T07:39:09.24Z</time></trkpt><trkpt lat="45.4953966" lon="11.7369012"><ele>21.0</ele><time>2026-04-29T07:39:10.24Z</time></trkpt><trkpt lat="45.4953377" lon="11.7368467"><ele>21.0</ele><time>2026-04-29T07:39:11.24Z</time></trkpt><trkpt lat="45.495278" lon="11.7367829"><ele>21.0</ele><time>2026-04-29T07:39:12.24Z</time></trkpt><trkpt lat="45.4952201" lon="11.7367307"><ele>21.0</ele><time>2026-04-29T07:39:13.24Z</time></trkpt><trkpt lat="45.495159" lon="11.7366681"><ele>21.0</ele><time>2026-04-29T07:39:14.24Z</time></trkpt><trkpt lat="45.4951003" lon="11.7366031"><ele>20.571428571428573</ele><time>2026-04-29T07:39:15.241Z</time></trkpt><trkpt lat="45.4950428" lon="11.7365456"><ele>20.142857142857142</ele><time>2026-04-29T07:39:16.241Z</time></trkpt><trkpt lat="45.4949825" lon="11.7364906"><ele>19.714285714285715</ele><time>2026-04-29T07:39:17.241Z</time></trkpt><trkpt lat="45.4949228" lon="11.736439"><ele>19.285714285714285</ele><time>2026-04-29T07:39:18.24Z</time></trkpt><trkpt lat="45.4948588" lon="11.7363842"><ele>18.857142857142858</ele><time>2026-04-29T07:39:19.24Z</time></trkpt><trkpt lat="45.4947963" lon="11.7363278"><ele>18.42857142857143</ele><time>2026-04-29T07:39:20.24Z</time></trkpt><trkpt lat="45.4947358" lon="11.7362702"><ele>18.0</ele><time>2026-04-29T07:39:21.24Z</time></trkpt><trkpt lat="45.4946763" lon="11.7362165"><ele>18.0</ele><time>2026-04-29T07:39:22.24Z</time></trkpt><trkpt lat="45.4946201" lon="11.7361564"><ele>18.0</ele><time>2026-04-29T07:39:23.24Z</time></trkpt><trkpt lat="45.494568" lon="11.7361047"><ele>18.0</ele><time>2026-04-29T07:39:24.24Z</time></trkpt><trkpt lat="45.4945154" lon="11.7360521"><ele>18.0</ele><time>2026-04-29T07:39:25.24Z</time></trkpt><trkpt lat="45.4944183" lon="11.735961"><ele>18.0</ele><time>2026-04-29T07:39:27.24Z</time></trkpt><trkpt lat="45.4943182" lon="11.7358766"><ele>18.0</ele><time>2026-04-29T07:39:29.24Z</time></trkpt><trkpt lat="45.4942392" lon="11.735786"><ele>18.6</ele><time>2026-04-29T07:39:31.24Z</time></trkpt><trkpt lat="45.4941683" lon="11.7357055"><ele>19.200000000000003</ele><time>2026-04-29T07:39:33.241Z</time></trkpt><trkpt lat="45.4940846" lon="11.7356452"><ele>19.8</ele><time>2026-04-29T07:39:35.241Z</time></trkpt><trkpt lat="45.4940048" lon="11.7355616"><ele>20.400000000000002</ele><time>2026-04-29T07:39:37.24Z</time></trkpt><trkpt lat="45.4939094" lon="11.7354738"><ele>21.0</ele><time>2026-04-29T07:39:39.24Z</time></trkpt><trkpt lat="45.4938146" lon="11.7353765"><ele>20.833333333333332</ele><time>2026-04-29T07:39:41.241Z</time></trkpt><trkpt lat="45.4937159" lon="11.7352819"><ele>20.666666666666668</ele><time>2026-04-29T07:39:43.24Z</time></trkpt><trkpt lat="45.4936611" lon="11.7352255"><ele>20.5</ele><time>2026-04-29T07:39:44.241Z</time></trkpt><trkpt lat="45.4936062" lon="11.7351757"><ele>20.333333333333336</ele><time>2026-04-29T07:39:45.24Z</time></trkpt><trkpt lat="45.4935458" lon="11.7351248"><ele>20.166666666666668</ele><time>2026-04-29T07:39:46.241Z</time></trkpt><trkpt lat="45.4934884" lon="11.7350721"><ele>20.0</ele><time>2026-04-29T07:39:47.24Z</time></trkpt><trkpt lat="45.4934332" lon="11.7350206"><ele>20.0</ele><time>2026-04-29T07:39:48.241Z</time></trkpt><trkpt lat="45.4933771" lon="11.7349687"><ele>20.0</ele><time>2026-04-29T07:39:49.24Z</time></trkpt><trkpt lat="45.4933172" lon="11.7349104"><ele>20.0</ele><time>2026-04-29T07:39:50.24Z</time></trkpt><trkpt lat="45.4932602" lon="11.7348632"><ele>20.0</ele><time>2026-04-29T07:39:51.241Z</time></trkpt><trkpt lat="45.4932059" lon="11.7348094"><ele>20.0</ele><time>2026-04-29T07:39:52.241Z</time></trkpt><trkpt lat="45.4931485" lon="11.7347482"><ele>20.0</ele><time>2026-04-29T07:39:53.24Z</time></trkpt><trkpt lat="45.493088" lon="11.7346937"><ele>20.0</ele><time>2026-04-29T07:39:54.24Z</time></trkpt><trkpt lat="45.4930276" lon="11.7346388"><ele>20.0</ele><time>2026-04-29T07:39:55.24Z</time></trkpt><trkpt lat="45.4929657" lon="11.734573"><ele>20.0</ele><time>2026-04-29T07:39:56.241Z</time></trkpt><trkpt lat="45.4929065" lon="11.7345216"><ele>20.0</ele><time>2026-04-29T07:39:57.24Z</time></trkpt><trkpt lat="45.4928486" lon="11.7344672"><ele>20.0</ele><time>2026-04-29T07:39:58.24Z</time></trkpt><trkpt lat="45.4927919" lon="11.7344143"><ele>20.0</ele><time>2026-04-29T07:39:59.24Z</time></trkpt><trkpt lat="45.4927398" lon="11.7343586"><ele>20.0</ele><time>2026-04-29T07:40:00.24Z</time></trkpt><trkpt lat="45.4926884" lon="11.7343065"><ele>20.0</ele><time>2026-04-29T07:40:01.24Z</time></trkpt><trkpt lat="45.4926343" lon="11.7342552"><ele>20.0</ele><time>2026-04-29T07:40:02.24Z</time></trkpt><trkpt lat="45.4925806" lon="11.7342034"><ele>20.0</ele><time>2026-04-29T07:40:03.24Z</time></trkpt><trkpt lat="45.4925251" lon="11.7341513"><ele>20.0</ele><time>2026-04-29T07:40:04.24Z</time></trkpt><trkpt lat="45.4924692" lon="11.7341012"><ele>20.0</ele><time>2026-04-29T07:40:05.24Z</time></trkpt><trkpt lat="45.4924157" lon="11.734049"><ele>20.0</ele><time>2026-04-29T07:40:06.24Z</time></trkpt><trkpt lat="45.4923632" lon="11.7339947"><ele>20.0</ele><time>2026-04-29T07:40:07.24Z</time></trkpt><trkpt lat="45.4923078" lon="11.7339483"><ele>20.0</ele><time>2026-04-29T07:40:08.241Z</time></trkpt><trkpt lat="45.4922094" lon="11.7338634"><ele>20.0</ele><time>2026-04-29T07:40:10.24Z</time></trkpt><trkpt lat="45.4921153" lon="11.7337716"><ele>20.0</ele><time>2026-04-29T07:40:12.24Z</time></trkpt><trkpt lat="45.492024" lon="11.7336798"><ele>20.0</ele><time>2026-04-29T07:40:14.24Z</time></trkpt><trkpt lat="45.4919299" lon="11.7335935"><ele>20.0</ele><time>2026-04-29T07:40:16.24Z</time></trkpt><trkpt lat="45.4918384" lon="11.7335091"><ele>20.0</ele><time>2026-04-29T07:40:18.24Z</time></trkpt><trkpt lat="45.4917431" lon="11.7334263"><ele>20.333333333333336</ele><time>2026-04-29T07:40:20.241Z</time></trkpt><trkpt lat="45.4916403" lon="11.7333341"><ele>20.666666666666668</ele><time>2026-04-29T07:40:22.24Z</time></trkpt><trkpt lat="45.4915848" lon="11.7332801"><ele>21.0</ele><time>2026-04-29T07:40:23.24Z</time></trkpt><trkpt lat="45.4915303" lon="11.7332214"><ele>21.333333333333332</ele><time>2026-04-29T07:40:24.24Z</time></trkpt><trkpt lat="45.4914768" lon="11.7331669"><ele>21.666666666666664</ele><time>2026-04-29T07:40:25.241Z</time></trkpt><trkpt lat="45.4914165" lon="11.7331098"><ele>22.0</ele><time>2026-04-29T07:40:26.24Z</time></trkpt><trkpt lat="45.4913545" lon="11.7330532"><ele>22.0</ele><time>2026-04-29T07:40:27.24Z</time></trkpt><trkpt lat="45.4912907" lon="11.7329902"><ele>22.0</ele><time>2026-04-29T07:40:28.241Z</time></trkpt><trkpt lat="45.4912318" lon="11.7329229"><ele>22.0</ele><time>2026-04-29T07:40:29.24Z</time></trkpt><trkpt lat="45.49117" lon="11.7328565"><ele>22.0</ele><time>2026-04-29T07:40:30.24Z</time></trkpt><trkpt lat="45.4911114" lon="11.7328016"><ele>22.0</ele><time>2026-04-29T07:40:31.24Z</time></trkpt><trkpt lat="45.4910493" lon="11.7327463"><ele>22.0</ele><time>2026-04-29T07:40:32.24Z</time></trkpt><trkpt lat="45.4909922" lon="11.7326915"><ele>22.0</ele><time>2026-04-29T07:40:33.24Z</time></trkpt><trkpt lat="45.4909344" lon="11.7326327"><ele>22.0</ele><time>2026-04-29T07:40:34.241Z</time></trkpt><trkpt lat="45.4908728" lon="11.7325824"><ele>22.0</ele><time>2026-04-29T07:40:35.24Z</time></trkpt><trkpt lat="45.4908119" lon="11.7325162"><ele>22.0</ele><time>2026-04-29T07:40:36.24Z</time></trkpt><trkpt lat="45.4907484" lon="11.7324586"><ele>22.0</ele><time>2026-04-29T07:40:37.241Z</time></trkpt><trkpt lat="45.4906873" lon="11.7324024"><ele>22.0</ele><time>2026-04-29T07:40:38.24Z</time></trkpt><trkpt lat="45.4906304" lon="11.732344"><ele>22.0</ele><time>2026-04-29T07:40:39.241Z</time></trkpt><trkpt lat="45.490573" lon="11.7322926"><ele>22.0</ele><time>2026-04-29T07:40:40.241Z</time></trkpt><trkpt lat="45.4905172" lon="11.7322319"><ele>22.0</ele><time>2026-04-29T07:40:41.24Z</time></trkpt><trkpt lat="45.4904544" lon="11.732172"><ele>22.0</ele><time>2026-04-29T07:40:42.241Z</time></trkpt><trkpt lat="45.4903848" lon="11.732111"><ele>22.0</ele><time>2026-04-29T07:40:43.241Z</time></trkpt><trkpt lat="45.49032" lon="11.7320415"><ele>22.0</ele><time>2026-04-29T07:40:44.24Z</time></trkpt><trkpt lat="45.4902496" lon="11.731974"><ele>22.0</ele><time>2026-04-29T07:40:45.24Z</time></trkpt><trkpt lat="45.4901809" lon="11.7318998"><ele>22.0</ele><time>2026-04-29T07:40:46.24Z</time></trkpt><trkpt lat="45.4901081" lon="11.7318249"><ele>21.666666666666664</ele><time>2026-04-29T07:40:47.24Z</time></trkpt><trkpt lat="45.4900387" lon="11.7317621"><ele>21.333333333333332</ele><time>2026-04-29T07:40:48.24Z</time></trkpt><trkpt lat="45.48997" lon="11.7316946"><ele>21.0</ele><time>2026-04-29T07:40:49.24Z</time></trkpt><trkpt lat="45.4899057" lon="11.7316316"><ele>20.666666666666668</ele><time>2026-04-29T07:40:50.241Z</time></trkpt><trkpt lat="45.4898394" lon="11.7315701"><ele>20.333333333333336</ele><time>2026-04-29T07:40:51.24Z</time></trkpt><trkpt lat="45.4897753" lon="11.7315102"><ele>20.0</ele><time>2026-04-29T07:40:52.24Z</time></trkpt><trkpt lat="45.489716" lon="11.7314549"><ele>20.0</ele><time>2026-04-29T07:40:53.241Z</time></trkpt><trkpt lat="45.4896569" lon="11.7313971"><ele>20.0</ele><time>2026-04-29T07:40:54.241Z</time></trkpt><trkpt lat="45.4895992" lon="11.7313393"><ele>20.0</ele><time>2026-04-29T07:40:55.24Z</time></trkpt><trkpt lat="45.4895433" lon="11.7312875"><ele>20.0</ele><time>2026-04-29T07:40:56.241Z</time></trkpt><trkpt lat="45.4894891" lon="11.7312298"><ele>20.0</ele><time>2026-04-29T07:40:57.24Z</time></trkpt><trkpt lat="45.4894349" lon="11.7311772"><ele>20.0</ele><time>2026-04-29T07:40:58.24Z</time></trkpt><trkpt lat="45.4893345" lon="11.73107"><ele>20.0</ele><time>2026-04-29T07:41:00.24Z</time></trkpt><trkpt lat="45.4892294" lon="11.7309728"><ele>20.0</ele><time>2026-04-29T07:41:02.24Z</time></trkpt><trkpt lat="45.4891442" lon="11.7308896"><ele>20.0</ele><time>2026-04-29T07:41:04.24Z</time></trkpt><trkpt lat="45.4890721" lon="11.7308237"><ele>20.0</ele><time>2026-04-29T07:41:06.24Z</time></trkpt><trkpt lat="45.4889962" lon="11.7307442"><ele>20.0</ele><time>2026-04-29T07:41:08.24Z</time></trkpt><trkpt lat="45.4888958" lon="11.7306894"><ele>20.0</ele><time>2026-04-29T07:41:10.24Z</time></trkpt><trkpt lat="45.4887806" lon="11.7307142"><ele>20.0</ele><time>2026-04-29T07:41:12.24Z</time></trkpt><trkpt lat="45.4886659" lon="11.7307569"><ele>20.0</ele><time>2026-04-29T07:41:14.24Z</time></trkpt><trkpt lat="45.4885995" lon="11.7307742"><ele>20.0</ele><time>2026-04-29T07:41:15.24Z</time></trkpt><trkpt lat="45.488537" lon="11.7308018"><ele>20.0</ele><time>2026-04-29T07:41:16.24Z</time></trkpt><trkpt lat="45.4884202" lon="11.7308434"><ele>20.2</ele><time>2026-04-29T07:41:18.24Z</time></trkpt><trkpt lat="45.4883577" lon="11.7308579"><ele>20.4</ele><time>2026-04-29T07:41:19.24Z</time></trkpt><trkpt lat="45.4882515" lon="11.7308924"><ele>20.6</ele><time>2026-04-29T07:41:21.241Z</time></trkpt><trkpt lat="45.4881498" lon="11.7309267"><ele>20.8</ele><time>2026-04-29T07:41:23.24Z</time></trkpt><trkpt lat="45.4880558" lon="11.7309368"><ele>21.0</ele><time>2026-04-29T07:41:25.24Z</time></trkpt><trkpt lat="45.4879675" lon="11.7309553"><ele>21.0</ele><time>2026-04-29T07:41:27.24Z</time></trkpt><trkpt lat="45.4878868" lon="11.7310012"><ele>21.0</ele><time>2026-04-29T07:41:29.24Z</time></trkpt><trkpt lat="45.487803" lon="11.7310274"><ele>21.0</ele><time>2026-04-29T07:41:31.241Z</time></trkpt><trkpt lat="45.4877159" lon="11.7310556"><ele>21.0</ele><time>2026-04-29T07:41:33.241Z</time></trkpt><trkpt lat="45.4876398" lon="11.7310679"><ele>21.0</ele><time>2026-04-29T07:41:35.24Z</time></trkpt><trkpt lat="45.4875712" lon="11.7310215"><ele>21.0</ele><time>2026-04-29T07:41:38.24Z</time></trkpt><trkpt lat="45.4875546" lon="11.7309105"><ele>21.0</ele><time>2026-04-29T07:41:45.24Z</time></trkpt><trkpt lat="45.4874695" lon="11.7308829"><ele>21.0</ele><time>2026-04-29T07:41:49.24Z</time></trkpt><trkpt lat="45.4873915" lon="11.7309055"><ele>21.0</ele><time>2026-04-29T07:41:52.241Z</time></trkpt><trkpt lat="45.4873276" lon="11.7309549"><ele>21.0</ele><time>2026-04-29T07:41:54.24Z</time></trkpt><trkpt lat="45.4872584" lon="11.7309978"><ele>21.0</ele><time>2026-04-29T07:41:56.241Z</time></trkpt><trkpt lat="45.4871859" lon="11.7310231"><ele>21.0</ele><time>2026-04-29T07:41:58.24Z</time></trkpt><trkpt lat="45.4871063" lon="11.7310396"><ele>20.6</ele><time>2026-04-29T07:42:00.24Z</time></trkpt><trkpt lat="45.4870268" lon="11.7309953"><ele>20.200000000000003</ele><time>2026-04-29T07:42:02.24Z</time></trkpt><trkpt lat="45.4869568" lon="11.7309118"><ele>19.799999999999997</ele><time>2026-04-29T07:42:04.24Z</time></trkpt><trkpt lat="45.4868773" lon="11.7308171"><ele>19.4</ele><time>2026-04-29T07:42:06.239Z</time></trkpt><trkpt lat="45.4867888" lon="11.7307213"><ele>19.0</ele><time>2026-04-29T07:42:08.24Z</time></trkpt><trkpt lat="45.4867001" lon="11.7306175"><ele>19.0</ele><time>2026-04-29T07:42:10.24Z</time></trkpt><trkpt lat="45.4866153" lon="11.7305043"><ele>19.0</ele><time>2026-04-29T07:42:12.239Z</time></trkpt><trkpt lat="45.4865422" lon="11.7303674"><ele>19.0</ele><time>2026-04-29T07:42:14.239Z</time></trkpt><trkpt lat="45.4865033" lon="11.7302951"><ele>19.0</ele><time>2026-04-29T07:42:15.239Z</time></trkpt><trkpt lat="45.4864655" lon="11.7302181"><ele>19.0</ele><time>2026-04-29T07:42:16.239Z</time></trkpt><trkpt lat="45.4864276" lon="11.7301402"><ele>19.0</ele><time>2026-04-29T07:42:17.239Z</time></trkpt><trkpt lat="45.4863889" lon="11.7300659"><ele>19.0</ele><time>2026-04-29T07:42:18.24Z</time></trkpt><trkpt lat="45.4863486" lon="11.7299947"><ele>19.0</ele><time>2026-04-29T07:42:19.239Z</time></trkpt><trkpt lat="45.4862823" lon="11.7298561"><ele>19.0</ele><time>2026-04-29T07:42:21.24Z</time></trkpt><trkpt lat="45.4862138" lon="11.7297112"><ele>19.0</ele><time>2026-04-29T07:42:23.239Z</time></trkpt><trkpt lat="45.4861461" lon="11.7295719"><ele>19.0</ele><time>2026-04-29T07:42:25.239Z</time></trkpt><trkpt lat="45.4861156" lon="11.7294123"><ele>19.0</ele><time>2026-04-29T07:42:27.24Z</time></trkpt><trkpt lat="45.4861455" lon="11.7292604"><ele>19.0</ele><time>2026-04-29T07:42:29.239Z</time></trkpt><trkpt lat="45.4861871" lon="11.729101"><ele>19.0</ele><time>2026-04-29T07:42:31.24Z</time></trkpt><trkpt lat="45.4862383" lon="11.7289393"><ele>19.0</ele><time>2026-04-29T07:42:33.239Z</time></trkpt><trkpt lat="45.486258" lon="11.7288534"><ele>19.0</ele><time>2026-04-29T07:42:34.24Z</time></trkpt><trkpt lat="45.4862969" lon="11.7286942"><ele>19.0</ele><time>2026-04-29T07:42:36.24Z</time></trkpt><trkpt lat="45.4863331" lon="11.7285393"><ele>19.0</ele><time>2026-04-29T07:42:38.239Z</time></trkpt><trkpt lat="45.4863809" lon="11.7284015"><ele>19.0</ele><time>2026-04-29T07:42:40.24Z</time></trkpt><trkpt lat="45.4864015" lon="11.7282857"><ele>19.0</ele><time>2026-04-29T07:42:42.239Z</time></trkpt><trkpt lat="45.486349" lon="11.7282021"><ele>19.0</ele><time>2026-04-29T07:42:45.24Z</time></trkpt><trkpt lat="45.4862522" lon="11.7281529"><ele>19.0</ele><time>2026-04-29T07:42:48.239Z</time></trkpt><trkpt lat="45.4861483" lon="11.7281183"><ele>19.0</ele><time>2026-04-29T07:42:50.239Z</time></trkpt><trkpt lat="45.4860873" lon="11.7280724"><ele>19.0</ele><time>2026-04-29T07:42:51.239Z</time></trkpt><trkpt lat="45.4860352" lon="11.7280218"><ele>19.0</ele><time>2026-04-29T07:42:52.239Z</time></trkpt><trkpt lat="45.4859747" lon="11.7279663"><ele>19.0</ele><time>2026-04-29T07:42:53.239Z</time></trkpt><trkpt lat="45.4859172" lon="11.7279121"><ele>19.0</ele><time>2026-04-29T07:42:54.239Z</time></trkpt><trkpt lat="45.4858659" lon="11.7278545"><ele>19.0</ele><time>2026-04-29T07:42:55.239Z</time></trkpt><trkpt lat="45.4858153" lon="11.7277938"><ele>19.5</ele><time>2026-04-29T07:42:56.24Z</time></trkpt><trkpt lat="45.4857167" lon="11.7276935"><ele>20.0</ele><time>2026-04-29T07:42:58.24Z</time></trkpt><trkpt lat="45.4856227" lon="11.7276117"><ele>20.5</ele><time>2026-04-29T07:43:00.239Z</time></trkpt><trkpt lat="45.485546" lon="11.7274966"><ele>21.0</ele><time>2026-04-29T07:43:02.239Z</time></trkpt><trkpt lat="45.4855719" lon="11.7273468"><ele>21.0</ele><time>2026-04-29T07:43:04.239Z</time></trkpt><trkpt lat="45.4856391" lon="11.7272267"><ele>21.0</ele><time>2026-04-29T07:43:06.239Z</time></trkpt><trkpt lat="45.4857" lon="11.7270936"><ele>21.0</ele><time>2026-04-29T07:43:08.239Z</time></trkpt><trkpt lat="45.4857693" lon="11.7269686"><ele>21.0</ele><time>2026-04-29T07:43:10.239Z</time></trkpt><trkpt lat="45.4858344" lon="11.7268571"><ele>21.0</ele><time>2026-04-29T07:43:12.239Z</time></trkpt><trkpt lat="45.4859141" lon="11.7267731"><ele>21.166666666666668</ele><time>2026-04-29T07:43:14.239Z</time></trkpt><trkpt lat="45.4860037" lon="11.7267455"><ele>21.333333333333332</ele><time>2026-04-29T07:43:16.239Z</time></trkpt><trkpt lat="45.4860702" lon="11.7266573"><ele>21.5</ele><time>2026-04-29T07:43:18.239Z</time></trkpt><trkpt lat="45.4861248" lon="11.7265615"><ele>21.666666666666664</ele><time>2026-04-29T07:43:20.239Z</time></trkpt><trkpt lat="45.4861702" lon="11.7264784"><ele>21.833333333333332</ele><time>2026-04-29T07:43:23.239Z</time></trkpt><trkpt lat="45.4862356" lon="11.7264275"><ele>22.0</ele><time>2026-04-29T07:43:33.24Z</time></trkpt><trkpt lat="45.4862236" lon="11.7263389"><ele>22.0</ele><time>2026-04-29T07:43:36.239Z</time></trkpt><trkpt lat="45.4861973" lon="11.7262424"><ele>22.0</ele><time>2026-04-29T07:43:38.239Z</time></trkpt><trkpt lat="45.486165" lon="11.7261218"><ele>22.0</ele><time>2026-04-29T07:43:40.24Z</time></trkpt><trkpt lat="45.4861506" lon="11.7259832"><ele>22.0</ele><time>2026-04-29T07:43:42.24Z</time></trkpt><trkpt lat="45.4861187" lon="11.7258448"><ele>22.0</ele><time>2026-04-29T07:43:44.24Z</time></trkpt><trkpt lat="45.4860872" lon="11.7256882"><ele>22.0</ele><time>2026-04-29T07:43:46.239Z</time></trkpt><trkpt lat="45.4860483" lon="11.725522"><ele>22.0</ele><time>2026-04-29T07:43:48.239Z</time></trkpt><trkpt lat="45.4860119" lon="11.725359"><ele>22.0</ele><time>2026-04-29T07:43:50.239Z</time></trkpt><trkpt lat="45.4859923" lon="11.7252728"><ele>22.0</ele><time>2026-04-29T07:43:51.239Z</time></trkpt><trkpt lat="45.4859525" lon="11.725103"><ele>22.0</ele><time>2026-04-29T07:43:53.239Z</time></trkpt><trkpt lat="45.4859154" lon="11.7249337"><ele>21.833333333333332</ele><time>2026-04-29T07:43:55.239Z</time></trkpt><trkpt lat="45.4858787" lon="11.7247648"><ele>21.666666666666664</ele><time>2026-04-29T07:43:57.239Z</time></trkpt><trkpt lat="45.4858638" lon="11.724676"><ele>21.5</ele><time>2026-04-29T07:43:58.239Z</time></trkpt><trkpt lat="45.4858492" lon="11.724587"><ele>21.333333333333332</ele><time>2026-04-29T07:43:59.239Z</time></trkpt><trkpt lat="45.4858144" lon="11.724419"><ele>21.166666666666668</ele><time>2026-04-29T07:44:01.24Z</time></trkpt><trkpt lat="45.485798" lon="11.7243308"><ele>21.0</ele><time>2026-04-29T07:44:02.239Z</time></trkpt><trkpt lat="45.4857874" lon="11.7241631"><ele>21.0</ele><time>2026-04-29T07:44:04.24Z</time></trkpt><trkpt lat="45.4858392" lon="11.7240237"><ele>21.0</ele><time>2026-04-29T07:44:06.239Z</time></trkpt><trkpt lat="45.4858594" lon="11.7239127"><ele>21.0</ele><time>2026-04-29T07:44:08.239Z</time></trkpt><trkpt lat="45.4858028" lon="11.7238093"><ele>21.0</ele><time>2026-04-29T07:44:10.24Z</time></trkpt><trkpt lat="45.485717" lon="11.7238012"><ele>21.0</ele><time>2026-04-29T07:44:12.239Z</time></trkpt><trkpt lat="45.4856461" lon="11.7237343"><ele>21.0</ele><time>2026-04-29T07:44:14.239Z</time></trkpt><trkpt lat="45.4856071" lon="11.7235943"><ele>21.0</ele><time>2026-04-29T07:44:16.239Z</time></trkpt><trkpt lat="45.4855749" lon="11.7234315"><ele>21.0</ele><time>2026-04-29T07:44:18.239Z</time></trkpt><trkpt lat="45.4855397" lon="11.7232628"><ele>21.0</ele><time>2026-04-29T07:44:20.239Z</time></trkpt><trkpt lat="45.4855194" lon="11.7231754"><ele>21.0</ele><time>2026-04-29T07:44:21.239Z</time></trkpt><trkpt lat="45.4855018" lon="11.7230859"><ele>21.0</ele><time>2026-04-29T07:44:22.24Z</time></trkpt><trkpt lat="45.485483" lon="11.7229973"><ele>21.0</ele><time>2026-04-29T07:44:23.24Z</time></trkpt><trkpt lat="45.4854611" lon="11.7229085"><ele>21.0</ele><time>2026-04-29T07:44:24.24Z</time></trkpt><trkpt lat="45.4854344" lon="11.7228204"><ele>21.0</ele><time>2026-04-29T07:44:25.239Z</time></trkpt><trkpt lat="45.4854106" lon="11.7227302"><ele>21.0</ele><time>2026-04-29T07:44:26.239Z</time></trkpt><trkpt lat="45.4853893" lon="11.7226346"><ele>21.0</ele><time>2026-04-29T07:44:27.24Z</time></trkpt><trkpt lat="45.4853671" lon="11.722543"><ele>21.0</ele><time>2026-04-29T07:44:28.239Z</time></trkpt><trkpt lat="45.4853464" lon="11.7224487"><ele>21.0</ele><time>2026-04-29T07:44:29.24Z</time></trkpt><trkpt lat="45.4853222" lon="11.7223529"><ele>21.0</ele><time>2026-04-29T07:44:30.24Z</time></trkpt><trkpt lat="45.4852973" lon="11.7222584"><ele>21.0</ele><time>2026-04-29T07:44:31.239Z</time></trkpt><trkpt lat="45.4852764" lon="11.7221638"><ele>21.0</ele><time>2026-04-29T07:44:32.239Z</time></trkpt><trkpt lat="45.4852565" lon="11.7220629"><ele>21.0</ele><time>2026-04-29T07:44:33.239Z</time></trkpt><trkpt lat="45.4852367" lon="11.7219645"><ele>21.0</ele><time>2026-04-29T07:44:34.239Z</time></trkpt><trkpt lat="45.4852159" lon="11.7218653"><ele>21.0</ele><time>2026-04-29T07:44:35.239Z</time></trkpt><trkpt lat="45.4851923" lon="11.7217692"><ele>21.0</ele><time>2026-04-29T07:44:36.239Z</time></trkpt><trkpt lat="45.4851731" lon="11.7216765"><ele>21.0</ele><time>2026-04-29T07:44:37.24Z</time></trkpt><trkpt lat="45.4851524" lon="11.7215828"><ele>21.0</ele><time>2026-04-29T07:44:38.24Z</time></trkpt><trkpt lat="45.485129" lon="11.721484"><ele>21.0</ele><time>2026-04-29T07:44:39.24Z</time></trkpt><trkpt lat="45.4851078" lon="11.7213814"><ele>21.0</ele><time>2026-04-29T07:44:40.239Z</time></trkpt><trkpt lat="45.4850872" lon="11.7212804"><ele>21.0</ele><time>2026-04-29T07:44:41.239Z</time></trkpt><trkpt lat="45.4850573" lon="11.7211801"><ele>21.0</ele><time>2026-04-29T07:44:42.239Z</time></trkpt><trkpt lat="45.4850355" lon="11.7210834"><ele>21.0</ele><time>2026-04-29T07:44:43.239Z</time></trkpt><trkpt lat="45.4850159" lon="11.7209893"><ele>21.0</ele><time>2026-04-29T07:44:44.239Z</time></trkpt><trkpt lat="45.484995" lon="11.7208941"><ele>21.0</ele><time>2026-04-29T07:44:45.24Z</time></trkpt><trkpt lat="45.4849745" lon="11.72079"><ele>21.0</ele><time>2026-04-29T07:44:46.239Z</time></trkpt><trkpt lat="45.4849538" lon="11.7206891"><ele>21.0</ele><time>2026-04-29T07:44:47.24Z</time></trkpt><trkpt lat="45.4849317" lon="11.7205898"><ele>21.0</ele><time>2026-04-29T07:44:48.239Z</time></trkpt><trkpt lat="45.4849092" lon="11.7204947"><ele>21.0</ele><time>2026-04-29T07:44:49.239Z</time></trkpt><trkpt lat="45.4848879" lon="11.720396"><ele>21.0</ele><time>2026-04-29T07:44:50.239Z</time></trkpt><trkpt lat="45.4848703" lon="11.720298"><ele>21.0</ele><time>2026-04-29T07:44:51.239Z</time></trkpt><trkpt lat="45.4848566" lon="11.7202067"><ele>21.0</ele><time>2026-04-29T07:44:52.239Z</time></trkpt><trkpt lat="45.4848394" lon="11.7201122"><ele>21.0</ele><time>2026-04-29T07:44:53.239Z</time></trkpt><trkpt lat="45.4848254" lon="11.7200178"><ele>21.0</ele><time>2026-04-29T07:44:54.24Z</time></trkpt><trkpt lat="45.4848133" lon="11.7199276"><ele>21.0</ele><time>2026-04-29T07:44:55.239Z</time></trkpt><trkpt lat="45.4848042" lon="11.7198375"><ele>21.0</ele><time>2026-04-29T07:44:56.239Z</time></trkpt><trkpt lat="45.4848032" lon="11.7196555"><ele>21.0</ele><time>2026-04-29T07:44:58.239Z</time></trkpt><trkpt lat="45.4848063" lon="11.7195588"><ele>21.0</ele><time>2026-04-29T07:44:59.24Z</time></trkpt><trkpt lat="45.4847996" lon="11.7194628"><ele>21.0</ele><time>2026-04-29T07:45:00.239Z</time></trkpt><trkpt lat="45.4847913" lon="11.7193679"><ele>21.0</ele><time>2026-04-29T07:45:01.239Z</time></trkpt><trkpt lat="45.484787" lon="11.7192722"><ele>21.0</ele><time>2026-04-29T07:45:02.24Z</time></trkpt><trkpt lat="45.4847894" lon="11.7191761"><ele>21.0</ele><time>2026-04-29T07:45:03.239Z</time></trkpt><trkpt lat="45.4847825" lon="11.7189934"><ele>21.0</ele><time>2026-04-29T07:45:05.239Z</time></trkpt><trkpt lat="45.4847752" lon="11.7189029"><ele>21.0</ele><time>2026-04-29T07:45:06.239Z</time></trkpt><trkpt lat="45.4847704" lon="11.7187239"><ele>21.0</ele><time>2026-04-29T07:45:08.239Z</time></trkpt><trkpt lat="45.4847626" lon="11.7186236"><ele>21.0</ele><time>2026-04-29T07:45:09.239Z</time></trkpt><trkpt lat="45.4847563" lon="11.7185256"><ele>21.0</ele><time>2026-04-29T07:45:10.239Z</time></trkpt><trkpt lat="45.4847463" lon="11.7184304"><ele>21.0</ele><time>2026-04-29T07:45:11.239Z</time></trkpt><trkpt lat="45.4847414" lon="11.7183399"><ele>21.4</ele><time>2026-04-29T07:45:12.24Z</time></trkpt><trkpt lat="45.4847287" lon="11.7181649"><ele>21.8</ele><time>2026-04-29T07:45:14.24Z</time></trkpt><trkpt lat="45.4847131" lon="11.7180042"><ele>22.2</ele><time>2026-04-29T07:45:16.239Z</time></trkpt><trkpt lat="45.4847056" lon="11.7178627"><ele>22.599999999999998</ele><time>2026-04-29T07:45:18.239Z</time></trkpt><trkpt lat="45.4847013" lon="11.7177104"><ele>23.0</ele><time>2026-04-29T07:45:20.239Z</time></trkpt><trkpt lat="45.4846841" lon="11.7175627"><ele>23.0</ele><time>2026-04-29T07:45:22.239Z</time></trkpt><trkpt lat="45.4846815" lon="11.7174172"><ele>23.0</ele><time>2026-04-29T07:45:24.24Z</time></trkpt><trkpt lat="45.4846779" lon="11.7172993"><ele>23.0</ele><time>2026-04-29T07:45:26.239Z</time></trkpt><trkpt lat="45.484661" lon="11.7171694"><ele>23.0</ele><time>2026-04-29T07:45:28.239Z</time></trkpt><trkpt lat="45.4846351" lon="11.7170474"><ele>23.0</ele><time>2026-04-29T07:45:30.239Z</time></trkpt><trkpt lat="45.4845928" lon="11.7169206"><ele>23.166666666666668</ele><time>2026-04-29T07:45:32.239Z</time></trkpt><trkpt lat="45.4845562" lon="11.7168102"><ele>23.333333333333336</ele><time>2026-04-29T07:45:34.24Z</time></trkpt><trkpt lat="45.4845108" lon="11.7167023"><ele>23.5</ele><time>2026-04-29T07:45:36.239Z</time></trkpt><trkpt lat="45.4844755" lon="11.7165993"><ele>23.666666666666668</ele><time>2026-04-29T07:45:38.24Z</time></trkpt><trkpt lat="45.4844774" lon="11.7165048"><ele>23.833333333333332</ele><time>2026-04-29T07:45:40.239Z</time></trkpt><trkpt lat="45.4844764" lon="11.7163944"><ele>24.0</ele><time>2026-04-29T07:45:43.239Z</time></trkpt><trkpt lat="45.4844096" lon="11.7163766"><ele>24.0</ele><time>2026-04-29T07:45:45.239Z</time></trkpt><trkpt lat="45.4843772" lon="11.7162845"><ele>24.0</ele><time>2026-04-29T07:45:47.24Z</time></trkpt><trkpt lat="45.4843467" lon="11.7161897"><ele>24.0</ele><time>2026-04-29T07:45:49.239Z</time></trkpt><trkpt lat="45.4843054" lon="11.7160938"><ele>24.0</ele><time>2026-04-29T07:45:51.239Z</time></trkpt><trkpt lat="45.4842717" lon="11.715973"><ele>24.0</ele><time>2026-04-29T07:45:53.24Z</time></trkpt><trkpt lat="45.484228" lon="11.7158591"><ele>24.0</ele><time>2026-04-29T07:45:55.239Z</time></trkpt><trkpt lat="45.484196" lon="11.7157503"><ele>24.2</ele><time>2026-04-29T07:45:57.239Z</time></trkpt><trkpt lat="45.4841619" lon="11.7156363"><ele>24.4</ele><time>2026-04-29T07:45:59.239Z</time></trkpt><trkpt lat="45.4841215" lon="11.7155186"><ele>24.6</ele><time>2026-04-29T07:46:01.24Z</time></trkpt><trkpt lat="45.4840814" lon="11.7153856"><ele>24.8</ele><time>2026-04-29T07:46:03.24Z</time></trkpt><trkpt lat="45.484034" lon="11.7152516"><ele>25.0</ele><time>2026-04-29T07:46:05.239Z</time></trkpt><trkpt lat="45.4839884" lon="11.7151136"><ele>24.6</ele><time>2026-04-29T07:46:07.239Z</time></trkpt><trkpt lat="45.4839399" lon="11.7149836"><ele>24.2</ele><time>2026-04-29T07:46:09.239Z</time></trkpt><trkpt lat="45.4838915" lon="11.7148354"><ele>23.799999999999997</ele><time>2026-04-29T07:46:11.239Z</time></trkpt><trkpt lat="45.4838501" lon="11.7146674"><ele>23.4</ele><time>2026-04-29T07:46:13.239Z</time></trkpt><trkpt lat="45.4838245" lon="11.7145722"><ele>23.0</ele><time>2026-04-29T07:46:14.239Z</time></trkpt><trkpt lat="45.4838029" lon="11.7144777"><ele>22.833333333333336</ele><time>2026-04-29T07:46:15.239Z</time></trkpt><trkpt lat="45.4837785" lon="11.7143797"><ele>22.666666666666668</ele><time>2026-04-29T07:46:16.239Z</time></trkpt><trkpt lat="45.4837511" lon="11.7142831"><ele>22.5</ele><time>2026-04-29T07:46:17.239Z</time></trkpt><trkpt lat="45.4837225" lon="11.7141818"><ele>22.333333333333332</ele><time>2026-04-29T07:46:18.239Z</time></trkpt><trkpt lat="45.4836945" lon="11.7140843"><ele>22.166666666666664</ele><time>2026-04-29T07:46:19.239Z</time></trkpt><trkpt lat="45.4836649" lon="11.7139777"><ele>22.0</ele><time>2026-04-29T07:46:20.239Z</time></trkpt><trkpt lat="45.4836399" lon="11.7138713"><ele>22.0</ele><time>2026-04-29T07:46:21.238Z</time></trkpt><trkpt lat="45.4836101" lon="11.7137568"><ele>22.0</ele><time>2026-04-29T07:46:22.238Z</time></trkpt><trkpt lat="45.4835792" lon="11.7136448"><ele>22.0</ele><time>2026-04-29T07:46:23.238Z</time></trkpt><trkpt lat="45.4835487" lon="11.7135306"><ele>22.0</ele><time>2026-04-29T07:46:24.238Z</time></trkpt><trkpt lat="45.4835182" lon="11.7134214"><ele>22.0</ele><time>2026-04-29T07:46:25.238Z</time></trkpt><trkpt lat="45.4834872" lon="11.7133074"><ele>22.0</ele><time>2026-04-29T07:46:26.239Z</time></trkpt><trkpt lat="45.4834593" lon="11.7131975"><ele>22.0</ele><time>2026-04-29T07:46:27.238Z</time></trkpt><trkpt lat="45.4834312" lon="11.7130907"><ele>22.0</ele><time>2026-04-29T07:46:28.238Z</time></trkpt><trkpt lat="45.4834031" lon="11.7129806"><ele>22.0</ele><time>2026-04-29T07:46:29.239Z</time></trkpt><trkpt lat="45.4833789" lon="11.712865"><ele>22.0</ele><time>2026-04-29T07:46:30.239Z</time></trkpt><trkpt lat="45.4833541" lon="11.7127476"><ele>22.0</ele><time>2026-04-29T07:46:31.238Z</time></trkpt><trkpt lat="45.4833263" lon="11.7126355"><ele>22.0</ele><time>2026-04-29T07:46:32.238Z</time></trkpt><trkpt lat="45.4832955" lon="11.7125249"><ele>22.0</ele><time>2026-04-29T07:46:33.239Z</time></trkpt><trkpt lat="45.4832624" lon="11.7124128"><ele>22.0</ele><time>2026-04-29T07:46:34.238Z</time></trkpt><trkpt lat="45.4832373" lon="11.7122914"><ele>22.0</ele><time>2026-04-29T07:46:35.238Z</time></trkpt><trkpt lat="45.4832106" lon="11.7121729"><ele>22.0</ele><time>2026-04-29T07:46:36.238Z</time></trkpt><trkpt lat="45.4831776" lon="11.7120559"><ele>22.0</ele><time>2026-04-29T07:46:37.239Z</time></trkpt><trkpt lat="45.483145" lon="11.7119427"><ele>22.0</ele><time>2026-04-29T07:46:38.239Z</time></trkpt><trkpt lat="45.4831111" lon="11.7118253"><ele>22.0</ele><time>2026-04-29T07:46:39.238Z</time></trkpt><trkpt lat="45.4830826" lon="11.7117237"><ele>22.0</ele><time>2026-04-29T07:46:40.238Z</time></trkpt><trkpt lat="45.4830617" lon="11.7116288"><ele>22.0</ele><time>2026-04-29T07:46:41.238Z</time></trkpt><trkpt lat="45.4830547" lon="11.711486"><ele>22.0</ele><time>2026-04-29T07:46:43.239Z</time></trkpt><trkpt lat="45.4831277" lon="11.7113545"><ele>22.0</ele><time>2026-04-29T07:46:45.238Z</time></trkpt><trkpt lat="45.4832401" lon="11.7113008"><ele>22.0</ele><time>2026-04-29T07:46:47.238Z</time></trkpt><trkpt lat="45.483349" lon="11.7112564"><ele>22.0</ele><time>2026-04-29T07:46:49.238Z</time></trkpt><trkpt lat="45.4834548" lon="11.7111919"><ele>22.0</ele><time>2026-04-29T07:46:51.238Z</time></trkpt><trkpt lat="45.4835688" lon="11.7111452"><ele>22.0</ele><time>2026-04-29T07:46:53.239Z</time></trkpt><trkpt lat="45.4836632" lon="11.7110804"><ele>21.8</ele><time>2026-04-29T07:46:55.239Z</time></trkpt><trkpt lat="45.4837076" lon="11.7109938"><ele>21.6</ele><time>2026-04-29T07:46:57.239Z</time></trkpt><trkpt lat="45.4837035" lon="11.7108914"><ele>21.400000000000002</ele><time>2026-04-29T07:46:59.238Z</time></trkpt><trkpt lat="45.4836646" lon="11.7107619"><ele>21.200000000000003</ele><time>2026-04-29T07:47:01.238Z</time></trkpt><trkpt lat="45.4836247" lon="11.710638"><ele>21.0</ele><time>2026-04-29T07:47:03.238Z</time></trkpt><trkpt lat="45.4835768" lon="11.7104994"><ele>21.0</ele><time>2026-04-29T07:47:05.238Z</time></trkpt><trkpt lat="45.4835556" lon="11.7103522"><ele>21.0</ele><time>2026-04-29T07:47:07.239Z</time></trkpt><trkpt lat="45.4835189" lon="11.710208"><ele>21.0</ele><time>2026-04-29T07:47:09.238Z</time></trkpt><trkpt lat="45.483474" lon="11.7100587"><ele>21.0</ele><time>2026-04-29T07:47:11.239Z</time></trkpt><trkpt lat="45.4834221" lon="11.7099159"><ele>21.0</ele><time>2026-04-29T07:47:13.239Z</time></trkpt><trkpt lat="45.4833718" lon="11.7097641"><ele>21.0</ele><time>2026-04-29T07:47:15.239Z</time></trkpt><trkpt lat="45.4833199" lon="11.7096046"><ele>21.0</ele><time>2026-04-29T07:47:17.238Z</time></trkpt><trkpt lat="45.4832806" lon="11.709442"><ele>21.0</ele><time>2026-04-29T07:47:19.238Z</time></trkpt><trkpt lat="45.4832359" lon="11.7092886"><ele>21.0</ele><time>2026-04-29T07:47:21.238Z</time></trkpt><trkpt lat="45.4831824" lon="11.7091261"><ele>21.0</ele><time>2026-04-29T07:47:23.239Z</time></trkpt><trkpt lat="45.4831297" lon="11.7089747"><ele>21.0</ele><time>2026-04-29T07:47:25.238Z</time></trkpt><trkpt lat="45.4830959" lon="11.7088172"><ele>21.0</ele><time>2026-04-29T07:47:27.239Z</time></trkpt><trkpt lat="45.4830731" lon="11.7087313"><ele>21.0</ele><time>2026-04-29T07:47:28.238Z</time></trkpt><trkpt lat="45.4830302" lon="11.7085695"><ele>21.0</ele><time>2026-04-29T07:47:30.238Z</time></trkpt><trkpt lat="45.4829865" lon="11.7084075"><ele>21.0</ele><time>2026-04-29T07:47:32.238Z</time></trkpt><trkpt lat="45.4829413" lon="11.7082451"><ele>21.0</ele><time>2026-04-29T07:47:34.239Z</time></trkpt><trkpt lat="45.4829189" lon="11.7081564"><ele>21.0</ele><time>2026-04-29T07:47:35.238Z</time></trkpt><trkpt lat="45.4828693" lon="11.7080071"><ele>21.0</ele><time>2026-04-29T07:47:37.238Z</time></trkpt><trkpt lat="45.4828361" lon="11.7078548"><ele>21.0</ele><time>2026-04-29T07:47:39.238Z</time></trkpt><trkpt lat="45.4828114" lon="11.707703"><ele>21.0</ele><time>2026-04-29T07:47:41.238Z</time></trkpt><trkpt lat="45.4827837" lon="11.7075528"><ele>21.0</ele><time>2026-04-29T07:47:43.238Z</time></trkpt><trkpt lat="45.4827508" lon="11.7074074"><ele>21.0</ele><time>2026-04-29T07:47:45.238Z</time></trkpt><trkpt lat="45.4827102" lon="11.7072813"><ele>21.0</ele><time>2026-04-29T07:47:47.238Z</time></trkpt><trkpt lat="45.4826784" lon="11.7071461"><ele>21.0</ele><time>2026-04-29T07:47:49.238Z</time></trkpt><trkpt lat="45.4827037" lon="11.7070225"><ele>21.0</ele><time>2026-04-29T07:47:51.238Z</time></trkpt><trkpt lat="45.4827746" lon="11.7069348"><ele>21.0</ele><time>2026-04-29T07:47:53.238Z</time></trkpt><trkpt lat="45.4828688" lon="11.7068957"><ele>21.0</ele><time>2026-04-29T07:47:55.239Z</time></trkpt><trkpt lat="45.4829797" lon="11.706845"><ele>21.0</ele><time>2026-04-29T07:47:57.238Z</time></trkpt><trkpt lat="45.4830966" lon="11.7067789"><ele>21.0</ele><time>2026-04-29T07:47:59.239Z</time></trkpt><trkpt lat="45.4831563" lon="11.706747"><ele>21.0</ele><time>2026-04-29T07:48:00.238Z</time></trkpt><trkpt lat="45.4832746" lon="11.7066975"><ele>21.0</ele><time>2026-04-29T07:48:02.238Z</time></trkpt><trkpt lat="45.4833356" lon="11.7066723"><ele>21.0</ele><time>2026-04-29T07:48:03.239Z</time></trkpt><trkpt lat="45.4834544" lon="11.7066166"><ele>21.0</ele><time>2026-04-29T07:48:05.238Z</time></trkpt><trkpt lat="45.4835162" lon="11.7065954"><ele>21.0</ele><time>2026-04-29T07:48:06.238Z</time></trkpt><trkpt lat="45.4836175" lon="11.706529"><ele>21.0</ele><time>2026-04-29T07:48:08.238Z</time></trkpt><trkpt lat="45.4837151" lon="11.7064776"><ele>21.0</ele><time>2026-04-29T07:48:10.238Z</time></trkpt><trkpt lat="45.4838178" lon="11.7064198"><ele>21.0</ele><time>2026-04-29T07:48:12.238Z</time></trkpt><trkpt lat="45.483903" lon="11.7063565"><ele>21.0</ele><time>2026-04-29T07:48:14.238Z</time></trkpt><trkpt lat="45.4839949" lon="11.7063176"><ele>21.0</ele><time>2026-04-29T07:48:16.238Z</time></trkpt><trkpt lat="45.4840889" lon="11.7062883"><ele>21.166666666666668</ele><time>2026-04-29T07:48:18.238Z</time></trkpt><trkpt lat="45.4841735" lon="11.7062338"><ele>21.333333333333332</ele><time>2026-04-29T07:48:20.239Z</time></trkpt><trkpt lat="45.4842372" lon="11.7061656"><ele>21.5</ele><time>2026-04-29T07:48:22.239Z</time></trkpt><trkpt lat="45.4842646" lon="11.7060714"><ele>21.666666666666664</ele><time>2026-04-29T07:48:24.238Z</time></trkpt><trkpt lat="45.484237" lon="11.7059572"><ele>21.833333333333332</ele><time>2026-04-29T07:48:26.238Z</time></trkpt><trkpt lat="45.4841604" lon="11.7058758"><ele>22.0</ele><time>2026-04-29T07:48:28.238Z</time></trkpt><trkpt lat="45.4840732" lon="11.7058071"><ele>22.166666666666664</ele><time>2026-04-29T07:48:30.238Z</time></trkpt><trkpt lat="45.4839785" lon="11.7057434"><ele>22.333333333333332</ele><time>2026-04-29T07:48:32.239Z</time></trkpt><trkpt lat="45.4839056" lon="11.7056468"><ele>22.5</ele><time>2026-04-29T07:48:34.238Z</time></trkpt><trkpt lat="45.4839117" lon="11.7055401"><ele>22.666666666666668</ele><time>2026-04-29T07:48:36.239Z</time></trkpt><trkpt lat="45.4839317" lon="11.7054433"><ele>22.833333333333336</ele><time>2026-04-29T07:48:38.239Z</time></trkpt><trkpt lat="45.4839845" lon="11.7053283"><ele>23.0</ele><time>2026-04-29T07:48:40.239Z</time></trkpt><trkpt lat="45.4840744" lon="11.7052709"><ele>23.2</ele><time>2026-04-29T07:48:42.238Z</time></trkpt><trkpt lat="45.4841663" lon="11.7052055"><ele>23.4</ele><time>2026-04-29T07:48:44.238Z</time></trkpt><trkpt lat="45.4842606" lon="11.7051268"><ele>23.599999999999998</ele><time>2026-04-29T07:48:46.239Z</time></trkpt><trkpt lat="45.4843658" lon="11.7050525"><ele>23.799999999999997</ele><time>2026-04-29T07:48:48.239Z</time></trkpt><trkpt lat="45.4844686" lon="11.7049752"><ele>24.0</ele><time>2026-04-29T07:48:50.239Z</time></trkpt><trkpt lat="45.4845734" lon="11.7048921"><ele>23.25</ele><time>2026-04-29T07:48:52.238Z</time></trkpt><trkpt lat="45.4846805" lon="11.7048151"><ele>22.5</ele><time>2026-04-29T07:48:54.238Z</time></trkpt><trkpt lat="45.4847815" lon="11.7047417"><ele>21.75</ele><time>2026-04-29T07:48:56.238Z</time></trkpt><trkpt lat="45.4848909" lon="11.7046634"><ele>21.0</ele><time>2026-04-29T07:48:58.239Z</time></trkpt><trkpt lat="45.4849987" lon="11.7045867"><ele>21.0</ele><time>2026-04-29T07:49:00.238Z</time></trkpt><trkpt lat="45.4850545" lon="11.704545"><ele>21.0</ele><time>2026-04-29T07:49:01.239Z</time></trkpt><trkpt lat="45.4851119" lon="11.7044966"><ele>21.0</ele><time>2026-04-29T07:49:02.239Z</time></trkpt><trkpt lat="45.4851697" lon="11.7044571"><ele>21.0</ele><time>2026-04-29T07:49:03.239Z</time></trkpt><trkpt lat="45.4852261" lon="11.7044129"><ele>21.0</ele><time>2026-04-29T07:49:04.239Z</time></trkpt><trkpt lat="45.4852838" lon="11.704366"><ele>21.0</ele><time>2026-04-29T07:49:05.238Z</time></trkpt><trkpt lat="45.485389" lon="11.7042858"><ele>21.0</ele><time>2026-04-29T07:49:07.238Z</time></trkpt><trkpt lat="45.485495" lon="11.7042026"><ele>21.4</ele><time>2026-04-29T07:49:09.239Z</time></trkpt><trkpt lat="45.4855525" lon="11.7041623"><ele>21.8</ele><time>2026-04-29T07:49:10.238Z</time></trkpt><trkpt lat="45.485658" lon="11.7040836"><ele>22.2</ele><time>2026-04-29T07:49:12.238Z</time></trkpt><trkpt lat="45.4857125" lon="11.7040381"><ele>22.599999999999998</ele><time>2026-04-29T07:49:13.239Z</time></trkpt><trkpt lat="45.4858206" lon="11.7039562"><ele>23.0</ele><time>2026-04-29T07:49:15.238Z</time></trkpt><trkpt lat="45.4859273" lon="11.7038831"><ele>23.0</ele><time>2026-04-29T07:49:17.239Z</time></trkpt><trkpt lat="45.4860298" lon="11.7038026"><ele>23.0</ele><time>2026-04-29T07:49:19.239Z</time></trkpt><trkpt lat="45.4861371" lon="11.7037285"><ele>23.0</ele><time>2026-04-29T07:49:21.238Z</time></trkpt><trkpt lat="45.4861921" lon="11.7036828"><ele>23.0</ele><time>2026-04-29T07:49:22.238Z</time></trkpt><trkpt lat="45.4862972" lon="11.7035999"><ele>23.0</ele><time>2026-04-29T07:49:24.238Z</time></trkpt><trkpt lat="45.4863988" lon="11.7035169"><ele>22.75</ele><time>2026-04-29T07:49:26.238Z</time></trkpt><trkpt lat="45.486504" lon="11.7034427"><ele>22.5</ele><time>2026-04-29T07:49:28.238Z</time></trkpt><trkpt lat="45.4866064" lon="11.7033652"><ele>22.25</ele><time>2026-04-29T07:49:30.239Z</time></trkpt><trkpt lat="45.4867119" lon="11.7032826"><ele>22.0</ele><time>2026-04-29T07:49:32.239Z</time></trkpt><trkpt lat="45.4868154" lon="11.7031998"><ele>22.0</ele><time>2026-04-29T07:49:34.239Z</time></trkpt><trkpt lat="45.4869155" lon="11.7031185"><ele>22.0</ele><time>2026-04-29T07:49:36.238Z</time></trkpt><trkpt lat="45.4870115" lon="11.7030512"><ele>22.0</ele><time>2026-04-29T07:49:38.238Z</time></trkpt><trkpt lat="45.487104" lon="11.7029833"><ele>22.0</ele><time>2026-04-29T07:49:40.238Z</time></trkpt><trkpt lat="45.4871927" lon="11.7029208"><ele>22.0</ele><time>2026-04-29T07:49:42.239Z</time></trkpt><trkpt lat="45.4872746" lon="11.7028729"><ele>22.166666666666664</ele><time>2026-04-29T07:49:44.239Z</time></trkpt><trkpt lat="45.4872823" lon="11.7027813"><ele>22.333333333333332</ele><time>2026-04-29T07:49:46.239Z</time></trkpt><trkpt lat="45.4872402" lon="11.7026929"><ele>22.5</ele><time>2026-04-29T07:49:48.239Z</time></trkpt><trkpt lat="45.4872688" lon="11.7025913"><ele>22.666666666666668</ele><time>2026-04-29T07:49:50.238Z</time></trkpt><trkpt lat="45.4873565" lon="11.7025338"><ele>22.833333333333336</ele><time>2026-04-29T07:49:52.239Z</time></trkpt><trkpt lat="45.4874532" lon="11.7024727"><ele>23.0</ele><time>2026-04-29T07:49:54.238Z</time></trkpt><trkpt lat="45.4875502" lon="11.7023996"><ele>23.0</ele><time>2026-04-29T07:49:56.238Z</time></trkpt><trkpt lat="45.4876591" lon="11.7023153"><ele>23.0</ele><time>2026-04-29T07:49:58.238Z</time></trkpt><trkpt lat="45.4877188" lon="11.702267"><ele>23.0</ele><time>2026-04-29T07:49:59.239Z</time></trkpt><trkpt lat="45.4877754" lon="11.7022246"><ele>23.0</ele><time>2026-04-29T07:50:00.238Z</time></trkpt><trkpt lat="45.4878333" lon="11.7021784"><ele>23.0</ele><time>2026-04-29T07:50:01.239Z</time></trkpt><trkpt lat="45.4878926" lon="11.7021271"><ele>23.0</ele><time>2026-04-29T07:50:02.238Z</time></trkpt><trkpt lat="45.4879556" lon="11.7020816"><ele>23.0</ele><time>2026-04-29T07:50:03.239Z</time></trkpt><trkpt lat="45.488016" lon="11.7020402"><ele>23.0</ele><time>2026-04-29T07:50:04.238Z</time></trkpt><trkpt lat="45.4880733" lon="11.7019915"><ele>23.0</ele><time>2026-04-29T07:50:05.238Z</time></trkpt><trkpt lat="45.4881352" lon="11.7019386"><ele>23.0</ele><time>2026-04-29T07:50:06.238Z</time></trkpt><trkpt lat="45.4881998" lon="11.7018919"><ele>23.0</ele><time>2026-04-29T07:50:07.238Z</time></trkpt><trkpt lat="45.488259" lon="11.7018437"><ele>23.0</ele><time>2026-04-29T07:50:08.238Z</time></trkpt><trkpt lat="45.4883195" lon="11.701797"><ele>23.0</ele><time>2026-04-29T07:50:09.238Z</time></trkpt><trkpt lat="45.4883801" lon="11.7017455"><ele>23.0</ele><time>2026-04-29T07:50:10.238Z</time></trkpt><trkpt lat="45.4884392" lon="11.7016929"><ele>23.0</ele><time>2026-04-29T07:50:11.239Z</time></trkpt><trkpt lat="45.4885025" lon="11.7016449"><ele>23.0</ele><time>2026-04-29T07:50:12.238Z</time></trkpt><trkpt lat="45.4885663" lon="11.7015977"><ele>23.0</ele><time>2026-04-29T07:50:13.238Z</time></trkpt><trkpt lat="45.4886285" lon="11.7015471"><ele>23.0</ele><time>2026-04-29T07:50:14.238Z</time></trkpt><trkpt lat="45.4886907" lon="11.7014931"><ele>23.0</ele><time>2026-04-29T07:50:15.239Z</time></trkpt><trkpt lat="45.4887519" lon="11.7014403"><ele>23.0</ele><time>2026-04-29T07:50:16.238Z</time></trkpt><trkpt lat="45.4888096" lon="11.7013915"><ele>23.142857142857142</ele><time>2026-04-29T07:50:17.238Z</time></trkpt><trkpt lat="45.4888673" lon="11.7013487"><ele>23.285714285714285</ele><time>2026-04-29T07:50:18.238Z</time></trkpt><trkpt lat="45.488928" lon="11.7013099"><ele>23.428571428571427</ele><time>2026-04-29T07:50:19.238Z</time></trkpt><trkpt lat="45.4889916" lon="11.7012621"><ele>23.57142857142857</ele><time>2026-04-29T07:50:20.238Z</time></trkpt><trkpt lat="45.4890512" lon="11.7012153"><ele>23.714285714285715</ele><time>2026-04-29T07:50:21.238Z</time></trkpt><trkpt lat="45.4891084" lon="11.7011631"><ele>23.857142857142854</ele><time>2026-04-29T07:50:22.238Z</time></trkpt><trkpt lat="45.4891704" lon="11.701121"><ele>24.0</ele><time>2026-04-29T07:50:23.238Z</time></trkpt><trkpt lat="45.4892307" lon="11.7010726"><ele>23.999999999999996</ele><time>2026-04-29T07:50:24.238Z</time></trkpt><trkpt lat="45.4892926" lon="11.7010214"><ele>24.0</ele><time>2026-04-29T07:50:25.237Z</time></trkpt><trkpt lat="45.4893504" lon="11.7009726"><ele>24.0</ele><time>2026-04-29T07:50:26.237Z</time></trkpt><trkpt lat="45.4894111" lon="11.7009228"><ele>24.0</ele><time>2026-04-29T07:50:27.238Z</time></trkpt><trkpt lat="45.4894684" lon="11.7008727"><ele>24.0</ele><time>2026-04-29T07:50:28.238Z</time></trkpt><trkpt lat="45.4895269" lon="11.7008223"><ele>23.999999999999996</ele><time>2026-04-29T07:50:29.237Z</time></trkpt><trkpt lat="45.4895857" lon="11.7007694"><ele>24.0</ele><time>2026-04-29T07:50:30.237Z</time></trkpt><trkpt lat="45.4896383" lon="11.700719"><ele>24.5</ele><time>2026-04-29T07:50:31.237Z</time></trkpt><trkpt lat="45.4896979" lon="11.7006667"><ele>25.0</ele><time>2026-04-29T07:50:32.238Z</time></trkpt><trkpt lat="45.4897595" lon="11.700626"><ele>25.5</ele><time>2026-04-29T07:50:33.237Z</time></trkpt><trkpt lat="45.489823" lon="11.700583"><ele>26.0</ele><time>2026-04-29T07:50:34.237Z</time></trkpt><trkpt lat="45.489885" lon="11.7005492"><ele>26.5</ele><time>2026-04-29T07:50:35.237Z</time></trkpt><trkpt lat="45.4899472" lon="11.7005185"><ele>27.0</ele><time>2026-04-29T07:50:36.237Z</time></trkpt><trkpt lat="45.4900647" lon="11.7004571"><ele>27.0</ele><time>2026-04-29T07:50:38.238Z</time></trkpt><trkpt lat="45.4901196" lon="11.7004116"><ele>27.0</ele><time>2026-04-29T07:50:39.238Z</time></trkpt><trkpt lat="45.4901867" lon="11.7002811"><ele>27.0</ele><time>2026-04-29T07:50:41.238Z</time></trkpt><trkpt lat="45.4902061" lon="11.7001942"><ele>27.0</ele><time>2026-04-29T07:50:42.237Z</time></trkpt><trkpt lat="45.4901961" lon="11.7000192"><ele>27.0</ele><time>2026-04-29T07:50:44.237Z</time></trkpt><trkpt lat="45.4901906" lon="11.6999215"><ele>27.0</ele><time>2026-04-29T07:50:45.237Z</time></trkpt><trkpt lat="45.4901838" lon="11.6998287"><ele>26.285714285714285</ele><time>2026-04-29T07:50:46.237Z</time></trkpt><trkpt lat="45.4901774" lon="11.6997366"><ele>25.57142857142857</ele><time>2026-04-29T07:50:47.237Z</time></trkpt><trkpt lat="45.4901695" lon="11.6996428"><ele>24.857142857142858</ele><time>2026-04-29T07:50:48.238Z</time></trkpt><trkpt lat="45.4901632" lon="11.6995501"><ele>24.142857142857142</ele><time>2026-04-29T07:50:49.237Z</time></trkpt><trkpt lat="45.4901574" lon="11.6994537"><ele>23.428571428571427</ele><time>2026-04-29T07:50:50.237Z</time></trkpt><trkpt lat="45.4901482" lon="11.6993584"><ele>22.714285714285715</ele><time>2026-04-29T07:50:51.237Z</time></trkpt><trkpt lat="45.4901383" lon="11.6992616"><ele>22.0</ele><time>2026-04-29T07:50:52.237Z</time></trkpt><trkpt lat="45.4901334" lon="11.6991634"><ele>22.0</ele><time>2026-04-29T07:50:53.238Z</time></trkpt><trkpt lat="45.4901606" lon="11.6990069"><ele>22.0</ele><time>2026-04-29T07:50:55.238Z</time></trkpt><trkpt lat="45.4901913" lon="11.6988578"><ele>22.0</ele><time>2026-04-29T07:50:57.238Z</time></trkpt><trkpt lat="45.4901716" lon="11.6987707"><ele>22.0</ele><time>2026-04-29T07:50:58.237Z</time></trkpt><trkpt lat="45.4901527" lon="11.6986776"><ele>22.0</ele><time>2026-04-29T07:50:59.237Z</time></trkpt><trkpt lat="45.4901356" lon="11.6985857"><ele>22.0</ele><time>2026-04-29T07:51:00.237Z</time></trkpt><trkpt lat="45.4901187" lon="11.6984928"><ele>22.200000000000003</ele><time>2026-04-29T07:51:01.237Z</time></trkpt><trkpt lat="45.4900992" lon="11.6984062"><ele>22.4</ele><time>2026-04-29T07:51:02.237Z</time></trkpt><trkpt lat="45.4900587" lon="11.6982581"><ele>22.6</ele><time>2026-04-29T07:51:04.237Z</time></trkpt><trkpt lat="45.4900142" lon="11.6981172"><ele>22.799999999999997</ele><time>2026-04-29T07:51:06.238Z</time></trkpt><trkpt lat="45.4899819" lon="11.6979714"><ele>23.0</ele><time>2026-04-29T07:51:08.237Z</time></trkpt><trkpt lat="45.4899759" lon="11.6978217"><ele>22.833333333333336</ele><time>2026-04-29T07:51:10.238Z</time></trkpt><trkpt lat="45.4899505" lon="11.6976603"><ele>22.666666666666668</ele><time>2026-04-29T07:51:12.237Z</time></trkpt><trkpt lat="45.4898848" lon="11.6975169"><ele>22.5</ele><time>2026-04-29T07:51:14.238Z</time></trkpt><trkpt lat="45.4898442" lon="11.6974412"><ele>22.333333333333332</ele><time>2026-04-29T07:51:15.237Z</time></trkpt><trkpt lat="45.489803" lon="11.6973732"><ele>22.166666666666664</ele><time>2026-04-29T07:51:16.237Z</time></trkpt><trkpt lat="45.4897514" lon="11.6973084"><ele>22.0</ele><time>2026-04-29T07:51:17.237Z</time></trkpt><trkpt lat="45.4897021" lon="11.6972496"><ele>22.0</ele><time>2026-04-29T07:51:18.237Z</time></trkpt><trkpt lat="45.4896132" lon="11.6971344"><ele>22.0</ele><time>2026-04-29T07:51:20.238Z</time></trkpt><trkpt lat="45.4895251" lon="11.6970218"><ele>22.0</ele><time>2026-04-29T07:51:22.237Z</time></trkpt><trkpt lat="45.4894325" lon="11.6969155"><ele>22.0</ele><time>2026-04-29T07:51:24.237Z</time></trkpt><trkpt lat="45.4893504" lon="11.6968238"><ele>22.200000000000003</ele><time>2026-04-29T07:51:26.237Z</time></trkpt><trkpt lat="45.4892707" lon="11.696727"><ele>22.4</ele><time>2026-04-29T07:51:28.237Z</time></trkpt><trkpt lat="45.4892386" lon="11.6966172"><ele>22.6</ele><time>2026-04-29T07:51:30.237Z</time></trkpt><trkpt lat="45.4893153" lon="11.6965361"><ele>22.799999999999997</ele><time>2026-04-29T07:51:32.238Z</time></trkpt><trkpt lat="45.4893956" lon="11.6964541"><ele>23.0</ele><time>2026-04-29T07:51:34.237Z</time></trkpt><trkpt lat="45.4894845" lon="11.6963608"><ele>23.0</ele><time>2026-04-29T07:51:36.238Z</time></trkpt><trkpt lat="45.4895616" lon="11.6962518"><ele>23.0</ele><time>2026-04-29T07:51:38.237Z</time></trkpt><trkpt lat="45.4896449" lon="11.6961632"><ele>23.0</ele><time>2026-04-29T07:51:40.237Z</time></trkpt><trkpt lat="45.4897288" lon="11.6960792"><ele>23.0</ele><time>2026-04-29T07:51:42.237Z</time></trkpt><trkpt lat="45.4898131" lon="11.6959873"><ele>23.0</ele><time>2026-04-29T07:51:44.237Z</time></trkpt><trkpt lat="45.4898955" lon="11.6958822"><ele>23.0</ele><time>2026-04-29T07:51:46.237Z</time></trkpt><trkpt lat="45.4899876" lon="11.6957811"><ele>23.0</ele><time>2026-04-29T07:51:48.237Z</time></trkpt><trkpt lat="45.4900829" lon="11.6956721"><ele>23.0</ele><time>2026-04-29T07:51:50.237Z</time></trkpt><trkpt lat="45.4901315" lon="11.6956134"><ele>23.0</ele><time>2026-04-29T07:51:51.238Z</time></trkpt><trkpt lat="45.4901827" lon="11.6955588"><ele>23.0</ele><time>2026-04-29T07:51:52.237Z</time></trkpt><trkpt lat="45.4902823" lon="11.695451"><ele>23.0</ele><time>2026-04-29T07:51:54.238Z</time></trkpt><trkpt lat="45.4903735" lon="11.6953391"><ele>23.0</ele><time>2026-04-29T07:51:56.238Z</time></trkpt><trkpt lat="45.4904649" lon="11.6952351"><ele>23.0</ele><time>2026-04-29T07:51:58.238Z</time></trkpt><trkpt lat="45.4905513" lon="11.6951398"><ele>23.0</ele><time>2026-04-29T07:52:00.237Z</time></trkpt><trkpt lat="45.4906355" lon="11.6950494"><ele>22.75</ele><time>2026-04-29T07:52:02.237Z</time></trkpt><trkpt lat="45.4907267" lon="11.6949444"><ele>22.5</ele><time>2026-04-29T07:52:04.238Z</time></trkpt><trkpt lat="45.490826" lon="11.6948356"><ele>22.25</ele><time>2026-04-29T07:52:06.237Z</time></trkpt><trkpt lat="45.490925" lon="11.694731"><ele>22.0</ele><time>2026-04-29T07:52:08.237Z</time></trkpt><trkpt lat="45.4910197" lon="11.6946168"><ele>22.0</ele><time>2026-04-29T07:52:10.238Z</time></trkpt><trkpt lat="45.4911094" lon="11.6945196"><ele>22.0</ele><time>2026-04-29T07:52:12.237Z</time></trkpt><trkpt lat="45.4911918" lon="11.6944255"><ele>22.0</ele><time>2026-04-29T07:52:14.237Z</time></trkpt><trkpt lat="45.4912729" lon="11.6943219"><ele>22.0</ele><time>2026-04-29T07:52:16.238Z</time></trkpt><trkpt lat="45.4912809" lon="11.6942299"><ele>22.0</ele><time>2026-04-29T07:52:18.237Z</time></trkpt><trkpt lat="45.4912555" lon="11.6941384"><ele>22.0</ele><time>2026-04-29T07:52:20.238Z</time></trkpt><trkpt lat="45.4912121" lon="11.6940168"><ele>22.0</ele><time>2026-04-29T07:52:22.237Z</time></trkpt><trkpt lat="45.4911547" lon="11.6938835"><ele>22.0</ele><time>2026-04-29T07:52:24.237Z</time></trkpt><trkpt lat="45.4910877" lon="11.6937359"><ele>22.0</ele><time>2026-04-29T07:52:26.238Z</time></trkpt><trkpt lat="45.4910521" lon="11.6936609"><ele>22.0</ele><time>2026-04-29T07:52:27.238Z</time></trkpt><trkpt lat="45.4910105" lon="11.6935824"><ele>22.0</ele><time>2026-04-29T07:52:28.238Z</time></trkpt><trkpt lat="45.490975" lon="11.6935067"><ele>22.0</ele><time>2026-04-29T07:52:29.237Z</time></trkpt><trkpt lat="45.4909374" lon="11.6934268"><ele>22.0</ele><time>2026-04-29T07:52:30.237Z</time></trkpt><trkpt lat="45.4909014" lon="11.6933495"><ele>22.0</ele><time>2026-04-29T07:52:31.237Z</time></trkpt><trkpt lat="45.4908624" lon="11.6932724"><ele>22.0</ele><time>2026-04-29T07:52:32.238Z</time></trkpt><trkpt lat="45.4908237" lon="11.6931954"><ele>22.0</ele><time>2026-04-29T07:52:33.238Z</time></trkpt><trkpt lat="45.4907818" lon="11.69312"><ele>22.0</ele><time>2026-04-29T07:52:34.237Z</time></trkpt><trkpt lat="45.4907353" lon="11.6930404"><ele>22.0</ele><time>2026-04-29T07:52:35.237Z</time></trkpt><trkpt lat="45.4906955" lon="11.6929682"><ele>22.0</ele><time>2026-04-29T07:52:36.237Z</time></trkpt><trkpt lat="45.490651" lon="11.6928908"><ele>22.0</ele><time>2026-04-29T07:52:37.237Z</time></trkpt><trkpt lat="45.4906036" lon="11.692814"><ele>22.0</ele><time>2026-04-29T07:52:38.237Z</time></trkpt><trkpt lat="45.490556" lon="11.692735"><ele>22.0</ele><time>2026-04-29T07:52:39.237Z</time></trkpt><trkpt lat="45.4905101" lon="11.6926558"><ele>22.0</ele><time>2026-04-29T07:52:40.238Z</time></trkpt><trkpt lat="45.4904657" lon="11.6925807"><ele>22.0</ele><time>2026-04-29T07:52:41.237Z</time></trkpt><trkpt lat="45.4904184" lon="11.6925099"><ele>21.857142857142858</ele><time>2026-04-29T07:52:42.237Z</time></trkpt><trkpt lat="45.49037" lon="11.692432"><ele>21.714285714285715</ele><time>2026-04-29T07:52:43.237Z</time></trkpt><trkpt lat="45.4903216" lon="11.6923533"><ele>21.57142857142857</ele><time>2026-04-29T07:52:44.237Z</time></trkpt><trkpt lat="45.4902721" lon="11.6922762"><ele>21.42857142857143</ele><time>2026-04-29T07:52:45.237Z</time></trkpt><trkpt lat="45.4902219" lon="11.6921973"><ele>21.285714285714285</ele><time>2026-04-29T07:52:46.237Z</time></trkpt><trkpt lat="45.4901747" lon="11.692121"><ele>21.142857142857142</ele><time>2026-04-29T07:52:47.237Z</time></trkpt><trkpt lat="45.4901259" lon="11.692042"><ele>21.0</ele><time>2026-04-29T07:52:48.237Z</time></trkpt><trkpt lat="45.4900754" lon="11.6919588"><ele>21.0</ele><time>2026-04-29T07:52:49.238Z</time></trkpt><trkpt lat="45.4900245" lon="11.691881"><ele>21.0</ele><time>2026-04-29T07:52:50.237Z</time></trkpt><trkpt lat="45.4899684" lon="11.6918055"><ele>21.0</ele><time>2026-04-29T07:52:51.237Z</time></trkpt><trkpt lat="45.4899167" lon="11.6917292"><ele>21.0</ele><time>2026-04-29T07:52:52.237Z</time></trkpt><trkpt lat="45.4898694" lon="11.691649"><ele>21.0</ele><time>2026-04-29T07:52:53.238Z</time></trkpt><trkpt lat="45.4898186" lon="11.6915634"><ele>21.0</ele><time>2026-04-29T07:52:54.237Z</time></trkpt><trkpt lat="45.4897701" lon="11.6914779"><ele>21.0</ele><time>2026-04-29T07:52:55.237Z</time></trkpt><trkpt lat="45.4897187" lon="11.6913981"><ele>21.0</ele><time>2026-04-29T07:52:56.237Z</time></trkpt><trkpt lat="45.4896673" lon="11.6913203"><ele>21.0</ele><time>2026-04-29T07:52:57.237Z</time></trkpt><trkpt lat="45.4896167" lon="11.6912426"><ele>21.0</ele><time>2026-04-29T07:52:58.238Z</time></trkpt><trkpt lat="45.4895656" lon="11.6911604"><ele>21.0</ele><time>2026-04-29T07:52:59.237Z</time></trkpt><trkpt lat="45.4895156" lon="11.6910798"><ele>21.0</ele><time>2026-04-29T07:53:00.237Z</time></trkpt><trkpt lat="45.4894658" lon="11.6909998"><ele>21.0</ele><time>2026-04-29T07:53:01.238Z</time></trkpt><trkpt lat="45.4894139" lon="11.6909201"><ele>21.0</ele><time>2026-04-29T07:53:02.237Z</time></trkpt><trkpt lat="45.4893634" lon="11.6908349"><ele>21.0</ele><time>2026-04-29T07:53:03.237Z</time></trkpt><trkpt lat="45.4893137" lon="11.6907537"><ele>21.0</ele><time>2026-04-29T07:53:04.238Z</time></trkpt><trkpt lat="45.4892705" lon="11.6906766"><ele>21.0</ele><time>2026-04-29T07:53:05.238Z</time></trkpt><trkpt lat="45.4892211" lon="11.6906021"><ele>21.0</ele><time>2026-04-29T07:53:06.237Z</time></trkpt><trkpt lat="45.4891732" lon="11.690525"><ele>21.0</ele><time>2026-04-29T07:53:07.237Z</time></trkpt><trkpt lat="45.4891243" lon="11.6904476"><ele>21.0</ele><time>2026-04-29T07:53:08.237Z</time></trkpt><trkpt lat="45.4890773" lon="11.6903728"><ele>21.0</ele><time>2026-04-29T07:53:09.237Z</time></trkpt><trkpt lat="45.4890301" lon="11.6902958"><ele>21.0</ele><time>2026-04-29T07:53:10.238Z</time></trkpt><trkpt lat="45.4889804" lon="11.6902231"><ele>21.0</ele><time>2026-04-29T07:53:11.237Z</time></trkpt><trkpt lat="45.4889298" lon="11.6901418"><ele>21.0</ele><time>2026-04-29T07:53:12.237Z</time></trkpt><trkpt lat="45.4888778" lon="11.6900642"><ele>21.0</ele><time>2026-04-29T07:53:13.237Z</time></trkpt><trkpt lat="45.4888276" lon="11.6899876"><ele>21.0</ele><time>2026-04-29T07:53:14.237Z</time></trkpt><trkpt lat="45.4887788" lon="11.6899085"><ele>21.0</ele><time>2026-04-29T07:53:15.238Z</time></trkpt><trkpt lat="45.4887313" lon="11.6898293"><ele>21.0</ele><time>2026-04-29T07:53:16.238Z</time></trkpt><trkpt lat="45.4886862" lon="11.6897513"><ele>21.0</ele><time>2026-04-29T07:53:17.238Z</time></trkpt><trkpt lat="45.4886386" lon="11.6896721"><ele>21.0</ele><time>2026-04-29T07:53:18.237Z</time></trkpt><trkpt lat="45.4885885" lon="11.6895974"><ele>21.0</ele><time>2026-04-29T07:53:19.237Z</time></trkpt><trkpt lat="45.4885409" lon="11.6895207"><ele>21.0</ele><time>2026-04-29T07:53:20.237Z</time></trkpt><trkpt lat="45.4884914" lon="11.6894411"><ele>21.0</ele><time>2026-04-29T07:53:21.237Z</time></trkpt><trkpt lat="45.4884442" lon="11.6893682"><ele>21.0</ele><time>2026-04-29T07:53:22.237Z</time></trkpt><trkpt lat="45.488397" lon="11.6892936"><ele>21.0</ele><time>2026-04-29T07:53:23.238Z</time></trkpt><trkpt lat="45.4883537" lon="11.6892193"><ele>21.0</ele><time>2026-04-29T07:53:24.237Z</time></trkpt><trkpt lat="45.4883044" lon="11.6891452"><ele>21.0</ele><time>2026-04-29T07:53:25.237Z</time></trkpt><trkpt lat="45.4882539" lon="11.6890728"><ele>21.0</ele><time>2026-04-29T07:53:26.237Z</time></trkpt><trkpt lat="45.4882048" lon="11.6889964"><ele>21.0</ele><time>2026-04-29T07:53:27.238Z</time></trkpt><trkpt lat="45.4881596" lon="11.6889281"><ele>21.0</ele><time>2026-04-29T07:53:28.238Z</time></trkpt><trkpt lat="45.488113" lon="11.6888521"><ele>21.0</ele><time>2026-04-29T07:53:29.237Z</time></trkpt><trkpt lat="45.4880665" lon="11.6887749"><ele>21.0</ele><time>2026-04-29T07:53:30.238Z</time></trkpt><trkpt lat="45.4880201" lon="11.6886964"><ele>21.0</ele><time>2026-04-29T07:53:31.237Z</time></trkpt><trkpt lat="45.4879723" lon="11.6886204"><ele>21.0</ele><time>2026-04-29T07:53:32.238Z</time></trkpt><trkpt lat="45.4879233" lon="11.688546"><ele>21.0</ele><time>2026-04-29T07:53:33.238Z</time></trkpt><trkpt lat="45.4878759" lon="11.6884687"><ele>21.0</ele><time>2026-04-29T07:53:34.237Z</time></trkpt><trkpt lat="45.487828" lon="11.6884014"><ele>21.0</ele><time>2026-04-29T07:53:35.237Z</time></trkpt><trkpt lat="45.4877795" lon="11.6883249"><ele>20.714285714285715</ele><time>2026-04-29T07:53:36.237Z</time></trkpt><trkpt lat="45.4877338" lon="11.6882469"><ele>20.42857142857143</ele><time>2026-04-29T07:53:37.237Z</time></trkpt><trkpt lat="45.4876846" lon="11.6881706"><ele>20.142857142857142</ele><time>2026-04-29T07:53:38.237Z</time></trkpt><trkpt lat="45.4876398" lon="11.6880962"><ele>19.857142857142858</ele><time>2026-04-29T07:53:39.237Z</time></trkpt><trkpt lat="45.4875943" lon="11.6880217"><ele>19.571428571428573</ele><time>2026-04-29T07:53:40.237Z</time></trkpt><trkpt lat="45.4875501" lon="11.6879501"><ele>19.285714285714285</ele><time>2026-04-29T07:53:41.238Z</time></trkpt><trkpt lat="45.487502" lon="11.6878819"><ele>19.0</ele><time>2026-04-29T07:53:42.237Z</time></trkpt><trkpt lat="45.4874581" lon="11.6878057"><ele>18.857142857142858</ele><time>2026-04-29T07:53:43.238Z</time></trkpt><trkpt lat="45.4874137" lon="11.6877348"><ele>18.714285714285715</ele><time>2026-04-29T07:53:44.237Z</time></trkpt><trkpt lat="45.4873663" lon="11.6876586"><ele>18.571428571428573</ele><time>2026-04-29T07:53:45.237Z</time></trkpt><trkpt lat="45.4873177" lon="11.6875812"><ele>18.42857142857143</ele><time>2026-04-29T07:53:46.238Z</time></trkpt><trkpt lat="45.4872714" lon="11.687509"><ele>18.285714285714285</ele><time>2026-04-29T07:53:47.237Z</time></trkpt><trkpt lat="45.4872211" lon="11.6874357"><ele>18.142857142857146</ele><time>2026-04-29T07:53:48.238Z</time></trkpt><trkpt lat="45.4871751" lon="11.687361"><ele>18.0</ele><time>2026-04-29T07:53:49.237Z</time></trkpt><trkpt lat="45.487128" lon="11.687285"><ele>18.28571428571429</ele><time>2026-04-29T07:53:50.237Z</time></trkpt><trkpt lat="45.4870814" lon="11.6872087"><ele>18.571428571428573</ele><time>2026-04-29T07:53:51.237Z</time></trkpt><trkpt lat="45.4870289" lon="11.6871346"><ele>18.857142857142858</ele><time>2026-04-29T07:53:52.237Z</time></trkpt><trkpt lat="45.4869799" lon="11.6870609"><ele>19.142857142857146</ele><time>2026-04-29T07:53:53.237Z</time></trkpt><trkpt lat="45.4869328" lon="11.6869933"><ele>19.42857142857143</ele><time>2026-04-29T07:53:54.238Z</time></trkpt><trkpt lat="45.4868869" lon="11.686927"><ele>19.714285714285715</ele><time>2026-04-29T07:53:55.237Z</time></trkpt><trkpt lat="45.4868452" lon="11.6868492"><ele>20.0</ele><time>2026-04-29T07:53:56.238Z</time></trkpt><trkpt lat="45.4868054" lon="11.6867727"><ele>20.0</ele><time>2026-04-29T07:53:57.237Z</time></trkpt><trkpt lat="45.4867596" lon="11.6867034"><ele>20.0</ele><time>2026-04-29T07:53:58.238Z</time></trkpt><trkpt lat="45.4867132" lon="11.6866356"><ele>20.0</ele><time>2026-04-29T07:53:59.237Z</time></trkpt><trkpt lat="45.486668" lon="11.6865673"><ele>20.0</ele><time>2026-04-29T07:54:00.238Z</time></trkpt><trkpt lat="45.4866217" lon="11.6864921"><ele>20.0</ele><time>2026-04-29T07:54:01.238Z</time></trkpt><trkpt lat="45.4865783" lon="11.6864138"><ele>20.0</ele><time>2026-04-29T07:54:02.238Z</time></trkpt><trkpt lat="45.4865353" lon="11.6863457"><ele>20.0</ele><time>2026-04-29T07:54:03.237Z</time></trkpt><trkpt lat="45.4864894" lon="11.686276"><ele>20.0</ele><time>2026-04-29T07:54:04.237Z</time></trkpt><trkpt lat="45.4864439" lon="11.6861993"><ele>20.0</ele><time>2026-04-29T07:54:05.238Z</time></trkpt><trkpt lat="45.4863989" lon="11.6861241"><ele>20.0</ele><time>2026-04-29T07:54:06.237Z</time></trkpt><trkpt lat="45.4863527" lon="11.6860467"><ele>20.0</ele><time>2026-04-29T07:54:07.237Z</time></trkpt><trkpt lat="45.4863068" lon="11.6859738"><ele>20.0</ele><time>2026-04-29T07:54:08.238Z</time></trkpt><trkpt lat="45.4862592" lon="11.6859025"><ele>20.0</ele><time>2026-04-29T07:54:09.237Z</time></trkpt><trkpt lat="45.4862121" lon="11.6858343"><ele>20.0</ele><time>2026-04-29T07:54:10.237Z</time></trkpt><trkpt lat="45.4861283" lon="11.6857102"><ele>20.4</ele><time>2026-04-29T07:54:12.237Z</time></trkpt><trkpt lat="45.4860538" lon="11.6855827"><ele>20.8</ele><time>2026-04-29T07:54:14.237Z</time></trkpt><trkpt lat="45.4859767" lon="11.6854597"><ele>21.200000000000003</ele><time>2026-04-29T07:54:16.237Z</time></trkpt><trkpt lat="45.4858943" lon="11.6853289"><ele>21.6</ele><time>2026-04-29T07:54:18.237Z</time></trkpt><trkpt lat="45.48585" lon="11.6852582"><ele>22.0</ele><time>2026-04-29T07:54:19.238Z</time></trkpt><trkpt lat="45.4857991" lon="11.6851881"><ele>22.166666666666664</ele><time>2026-04-29T07:54:20.238Z</time></trkpt><trkpt lat="45.4857497" lon="11.6851101"><ele>22.333333333333332</ele><time>2026-04-29T07:54:21.237Z</time></trkpt><trkpt lat="45.4856995" lon="11.685029"><ele>22.5</ele><time>2026-04-29T07:54:22.238Z</time></trkpt><trkpt lat="45.4856472" lon="11.6849494"><ele>22.666666666666668</ele><time>2026-04-29T07:54:23.237Z</time></trkpt><trkpt lat="45.4855957" lon="11.6848722"><ele>22.833333333333336</ele><time>2026-04-29T07:54:24.237Z</time></trkpt><trkpt lat="45.4855078" lon="11.68475"><ele>23.0</ele><time>2026-04-29T07:54:26.238Z</time></trkpt><trkpt lat="45.4854603" lon="11.6846669"><ele>22.857142857142858</ele><time>2026-04-29T07:54:27.238Z</time></trkpt><trkpt lat="45.4854085" lon="11.6845776"><ele>22.71428571428571</ele><time>2026-04-29T07:54:28.237Z</time></trkpt><trkpt lat="45.4853611" lon="11.6845028"><ele>22.57142857142857</ele><time>2026-04-29T07:54:29.238Z</time></trkpt><trkpt lat="45.4853138" lon="11.6844269"><ele>22.42857142857143</ele><time>2026-04-29T07:54:30.238Z</time></trkpt><trkpt lat="45.4852666" lon="11.6843505"><ele>22.285714285714285</ele><time>2026-04-29T07:54:31.238Z</time></trkpt><trkpt lat="45.4852189" lon="11.6842688"><ele>22.142857142857142</ele><time>2026-04-29T07:54:32.237Z</time></trkpt><trkpt lat="45.4851745" lon="11.6841849"><ele>22.0</ele><time>2026-04-29T07:54:33.237Z</time></trkpt><trkpt lat="45.4851259" lon="11.6841044"><ele>22.0</ele><time>2026-04-29T07:54:34.238Z</time></trkpt><trkpt lat="45.4850766" lon="11.684023"><ele>22.0</ele><time>2026-04-29T07:54:35.237Z</time></trkpt><trkpt lat="45.4850228" lon="11.6839412"><ele>22.0</ele><time>2026-04-29T07:54:36.237Z</time></trkpt><trkpt lat="45.4849745" lon="11.6838699"><ele>22.0</ele><time>2026-04-29T07:54:37.237Z</time></trkpt><trkpt lat="45.4849247" lon="11.6837965"><ele>22.0</ele><time>2026-04-29T07:54:38.237Z</time></trkpt><trkpt lat="45.4848722" lon="11.6837239"><ele>22.0</ele><time>2026-04-29T07:54:39.238Z</time></trkpt><trkpt lat="45.4848266" lon="11.6836451"><ele>22.0</ele><time>2026-04-29T07:54:40.237Z</time></trkpt><trkpt lat="45.4847813" lon="11.6835781"><ele>21.857142857142858</ele><time>2026-04-29T07:54:41.238Z</time></trkpt><trkpt lat="45.4847348" lon="11.6835085"><ele>21.714285714285715</ele><time>2026-04-29T07:54:42.237Z</time></trkpt><trkpt lat="45.484688" lon="11.6834429"><ele>21.57142857142857</ele><time>2026-04-29T07:54:43.236Z</time></trkpt><trkpt lat="45.4846384" lon="11.6833689"><ele>21.42857142857143</ele><time>2026-04-29T07:54:44.236Z</time></trkpt><trkpt lat="45.4845913" lon="11.6832897"><ele>21.285714285714285</ele><time>2026-04-29T07:54:45.236Z</time></trkpt><trkpt lat="45.4845397" lon="11.6832084"><ele>21.142857142857142</ele><time>2026-04-29T07:54:46.236Z</time></trkpt><trkpt lat="45.4844919" lon="11.6831303"><ele>21.0</ele><time>2026-04-29T07:54:47.236Z</time></trkpt><trkpt lat="45.4844497" lon="11.683054"><ele>20.833333333333332</ele><time>2026-04-29T07:54:48.236Z</time></trkpt><trkpt lat="45.484409" lon="11.682981"><ele>20.666666666666668</ele><time>2026-04-29T07:54:49.236Z</time></trkpt><trkpt lat="45.4843681" lon="11.6829107"><ele>20.5</ele><time>2026-04-29T07:54:50.236Z</time></trkpt><trkpt lat="45.4843246" lon="11.6828457"><ele>20.333333333333336</ele><time>2026-04-29T07:54:51.236Z</time></trkpt><trkpt lat="45.4842433" lon="11.6827107"><ele>20.166666666666668</ele><time>2026-04-29T07:54:53.236Z</time></trkpt><trkpt lat="45.4841639" lon="11.6825872"><ele>20.0</ele><time>2026-04-29T07:54:55.236Z</time></trkpt><trkpt lat="45.4840889" lon="11.6824611"><ele>20.0</ele><time>2026-04-29T07:54:57.236Z</time></trkpt><trkpt lat="45.4840178" lon="11.6823596"><ele>20.0</ele><time>2026-04-29T07:54:59.236Z</time></trkpt><trkpt lat="45.4839632" lon="11.6823071"><ele>20.0</ele><time>2026-04-29T07:55:01.237Z</time></trkpt><trkpt lat="45.4839163" lon="11.6822156"><ele>20.0</ele><time>2026-04-29T07:55:04.237Z</time></trkpt><trkpt lat="45.483868" lon="11.6821172"><ele>20.0</ele><time>2026-04-29T07:55:06.236Z</time></trkpt><trkpt lat="45.4837941" lon="11.6820122"><ele>20.0</ele><time>2026-04-29T07:55:08.236Z</time></trkpt><trkpt lat="45.4837206" lon="11.68189"><ele>20.4</ele><time>2026-04-29T07:55:10.236Z</time></trkpt><trkpt lat="45.4836367" lon="11.6817543"><ele>20.8</ele><time>2026-04-29T07:55:12.236Z</time></trkpt><trkpt lat="45.4835547" lon="11.6816139"><ele>21.200000000000003</ele><time>2026-04-29T07:55:14.236Z</time></trkpt><trkpt lat="45.4835102" lon="11.681545"><ele>21.6</ele><time>2026-04-29T07:55:15.237Z</time></trkpt><trkpt lat="45.4834688" lon="11.6814727"><ele>22.0</ele><time>2026-04-29T07:55:16.237Z</time></trkpt><trkpt lat="45.483421" lon="11.6814067"><ele>22.0</ele><time>2026-04-29T07:55:17.237Z</time></trkpt><trkpt lat="45.4833777" lon="11.6813367"><ele>22.0</ele><time>2026-04-29T07:55:18.237Z</time></trkpt><trkpt lat="45.4833363" lon="11.6812683"><ele>22.0</ele><time>2026-04-29T07:55:19.236Z</time></trkpt><trkpt lat="45.4832563" lon="11.6811379"><ele>22.0</ele><time>2026-04-29T07:55:21.236Z</time></trkpt><trkpt lat="45.4831736" lon="11.6810112"><ele>22.0</ele><time>2026-04-29T07:55:23.237Z</time></trkpt><trkpt lat="45.483094" lon="11.6809008"><ele>22.0</ele><time>2026-04-29T07:55:25.236Z</time></trkpt><trkpt lat="45.4830171" lon="11.6807717"><ele>22.0</ele><time>2026-04-29T07:55:27.237Z</time></trkpt><trkpt lat="45.4829484" lon="11.680656"><ele>22.0</ele><time>2026-04-29T07:55:29.236Z</time></trkpt><trkpt lat="45.4828769" lon="11.6805484"><ele>22.0</ele><time>2026-04-29T07:55:31.236Z</time></trkpt><trkpt lat="45.4828098" lon="11.6804327"><ele>22.0</ele><time>2026-04-29T07:55:33.236Z</time></trkpt><trkpt lat="45.4827409" lon="11.6803261"><ele>21.8</ele><time>2026-04-29T07:55:35.236Z</time></trkpt><trkpt lat="45.4826623" lon="11.6801979"><ele>21.6</ele><time>2026-04-29T07:55:37.237Z</time></trkpt><trkpt lat="45.4825845" lon="11.6800568"><ele>21.400000000000002</ele><time>2026-04-29T07:55:39.237Z</time></trkpt><trkpt lat="45.4824971" lon="11.6799211"><ele>21.200000000000003</ele><time>2026-04-29T07:55:41.236Z</time></trkpt><trkpt lat="45.4824517" lon="11.6798539"><ele>21.0</ele><time>2026-04-29T07:55:42.236Z</time></trkpt><trkpt lat="45.4824087" lon="11.6797831"><ele>21.0</ele><time>2026-04-29T07:55:43.236Z</time></trkpt><trkpt lat="45.4823616" lon="11.6797117"><ele>21.0</ele><time>2026-04-29T07:55:44.237Z</time></trkpt><trkpt lat="45.4823183" lon="11.6796393"><ele>21.0</ele><time>2026-04-29T07:55:45.236Z</time></trkpt><trkpt lat="45.4822689" lon="11.6795655"><ele>21.0</ele><time>2026-04-29T07:55:46.236Z</time></trkpt><trkpt lat="45.4822162" lon="11.6794887"><ele>21.0</ele><time>2026-04-29T07:55:47.237Z</time></trkpt><trkpt lat="45.4821687" lon="11.6794118"><ele>21.0</ele><time>2026-04-29T07:55:48.236Z</time></trkpt><trkpt lat="45.4821203" lon="11.679336"><ele>21.0</ele><time>2026-04-29T07:55:49.237Z</time></trkpt><trkpt lat="45.4820756" lon="11.6792647"><ele>21.0</ele><time>2026-04-29T07:55:50.236Z</time></trkpt><trkpt lat="45.4820313" lon="11.6791975"><ele>21.0</ele><time>2026-04-29T07:55:51.236Z</time></trkpt><trkpt lat="45.4819876" lon="11.6791245"><ele>21.0</ele><time>2026-04-29T07:55:52.236Z</time></trkpt><trkpt lat="45.4819435" lon="11.6790519"><ele>21.0</ele><time>2026-04-29T07:55:53.237Z</time></trkpt><trkpt lat="45.4818969" lon="11.6789807"><ele>21.0</ele><time>2026-04-29T07:55:54.237Z</time></trkpt><trkpt lat="45.4818485" lon="11.6789105"><ele>21.0</ele><time>2026-04-29T07:55:55.237Z</time></trkpt><trkpt lat="45.4817991" lon="11.678835"><ele>21.0</ele><time>2026-04-29T07:55:56.236Z</time></trkpt><trkpt lat="45.4817524" lon="11.6787588"><ele>21.0</ele><time>2026-04-29T07:55:57.236Z</time></trkpt><trkpt lat="45.4817032" lon="11.6786792"><ele>21.0</ele><time>2026-04-29T07:55:58.237Z</time></trkpt><trkpt lat="45.4816533" lon="11.6785992"><ele>21.0</ele><time>2026-04-29T07:55:59.237Z</time></trkpt><trkpt lat="45.4816028" lon="11.6785197"><ele>21.0</ele><time>2026-04-29T07:56:00.236Z</time></trkpt><trkpt lat="45.4815524" lon="11.6784385"><ele>21.0</ele><time>2026-04-29T07:56:01.237Z</time></trkpt><trkpt lat="45.4815038" lon="11.6783567"><ele>21.0</ele><time>2026-04-29T07:56:02.236Z</time></trkpt><trkpt lat="45.4814551" lon="11.6782749"><ele>21.0</ele><time>2026-04-29T07:56:03.236Z</time></trkpt><trkpt lat="45.4814017" lon="11.6781959"><ele>21.0</ele><time>2026-04-29T07:56:04.236Z</time></trkpt><trkpt lat="45.4813507" lon="11.6781137"><ele>21.0</ele><time>2026-04-29T07:56:05.236Z</time></trkpt><trkpt lat="45.4812991" lon="11.6780306"><ele>21.0</ele><time>2026-04-29T07:56:06.236Z</time></trkpt><trkpt lat="45.4812499" lon="11.677948"><ele>21.0</ele><time>2026-04-29T07:56:07.236Z</time></trkpt><trkpt lat="45.4811989" lon="11.6778623"><ele>21.0</ele><time>2026-04-29T07:56:08.236Z</time></trkpt><trkpt lat="45.4811489" lon="11.6777832"><ele>20.833333333333332</ele><time>2026-04-29T07:56:09.236Z</time></trkpt><trkpt lat="45.4810988" lon="11.6777027"><ele>20.666666666666668</ele><time>2026-04-29T07:56:10.236Z</time></trkpt><trkpt lat="45.4810511" lon="11.67763"><ele>20.5</ele><time>2026-04-29T07:56:11.236Z</time></trkpt><trkpt lat="45.4810058" lon="11.6775557"><ele>20.333333333333336</ele><time>2026-04-29T07:56:12.236Z</time></trkpt><trkpt lat="45.4809202" lon="11.6774266"><ele>20.166666666666668</ele><time>2026-04-29T07:56:14.236Z</time></trkpt><trkpt lat="45.4808737" lon="11.6773518"><ele>20.0</ele><time>2026-04-29T07:56:15.236Z</time></trkpt><trkpt lat="45.4808212" lon="11.6772784"><ele>20.0</ele><time>2026-04-29T07:56:16.236Z</time></trkpt><trkpt lat="45.4807755" lon="11.6772013"><ele>20.0</ele><time>2026-04-29T07:56:17.236Z</time></trkpt><trkpt lat="45.4807282" lon="11.6771244"><ele>20.0</ele><time>2026-04-29T07:56:18.236Z</time></trkpt><trkpt lat="45.4806772" lon="11.6770461"><ele>20.0</ele><time>2026-04-29T07:56:19.237Z</time></trkpt><trkpt lat="45.4806279" lon="11.6769664"><ele>20.0</ele><time>2026-04-29T07:56:20.237Z</time></trkpt><trkpt lat="45.480578" lon="11.6768907"><ele>20.0</ele><time>2026-04-29T07:56:21.236Z</time></trkpt><trkpt lat="45.4805268" lon="11.6768148"><ele>20.0</ele><time>2026-04-29T07:56:22.236Z</time></trkpt><trkpt lat="45.4804771" lon="11.6767363"><ele>19.833333333333336</ele><time>2026-04-29T07:56:23.237Z</time></trkpt><trkpt lat="45.4804275" lon="11.6766561"><ele>19.666666666666668</ele><time>2026-04-29T07:56:24.236Z</time></trkpt><trkpt lat="45.4803784" lon="11.6765758"><ele>19.5</ele><time>2026-04-29T07:56:25.236Z</time></trkpt><trkpt lat="45.4803268" lon="11.676493"><ele>19.333333333333332</ele><time>2026-04-29T07:56:26.236Z</time></trkpt><trkpt lat="45.4802745" lon="11.6764102"><ele>19.166666666666664</ele><time>2026-04-29T07:56:27.236Z</time></trkpt><trkpt lat="45.4802217" lon="11.6763268"><ele>19.0</ele><time>2026-04-29T07:56:28.236Z</time></trkpt><trkpt lat="45.4801672" lon="11.6762435"><ele>19.0</ele><time>2026-04-29T07:56:29.236Z</time></trkpt><trkpt lat="45.4801171" lon="11.6761634"><ele>19.0</ele><time>2026-04-29T07:56:30.236Z</time></trkpt><trkpt lat="45.4800712" lon="11.6760863"><ele>19.0</ele><time>2026-04-29T07:56:31.237Z</time></trkpt><trkpt lat="45.4800208" lon="11.6760077"><ele>19.0</ele><time>2026-04-29T07:56:32.236Z</time></trkpt><trkpt lat="45.4799695" lon="11.6759309"><ele>19.0</ele><time>2026-04-29T07:56:33.236Z</time></trkpt><trkpt lat="45.4799181" lon="11.67585"><ele>19.0</ele><time>2026-04-29T07:56:34.236Z</time></trkpt><trkpt lat="45.479871" lon="11.675766"><ele>19.0</ele><time>2026-04-29T07:56:35.237Z</time></trkpt><trkpt lat="45.4798217" lon="11.6756849"><ele>19.0</ele><time>2026-04-29T07:56:36.236Z</time></trkpt><trkpt lat="45.4797736" lon="11.6756078"><ele>19.0</ele><time>2026-04-29T07:56:37.237Z</time></trkpt><trkpt lat="45.4797262" lon="11.6755327"><ele>19.0</ele><time>2026-04-29T07:56:38.236Z</time></trkpt><trkpt lat="45.4796757" lon="11.6754485"><ele>19.0</ele><time>2026-04-29T07:56:39.237Z</time></trkpt><trkpt lat="45.4796268" lon="11.6753687"><ele>19.0</ele><time>2026-04-29T07:56:40.237Z</time></trkpt><trkpt lat="45.4795772" lon="11.6752884"><ele>19.0</ele><time>2026-04-29T07:56:41.236Z</time></trkpt><trkpt lat="45.4795262" lon="11.6752105"><ele>19.0</ele><time>2026-04-29T07:56:42.236Z</time></trkpt><trkpt lat="45.479477" lon="11.6751322"><ele>19.333333333333332</ele><time>2026-04-29T07:56:43.236Z</time></trkpt><trkpt lat="45.4794272" lon="11.6750507"><ele>19.666666666666664</ele><time>2026-04-29T07:56:44.236Z</time></trkpt><trkpt lat="45.479376" lon="11.6749635"><ele>20.0</ele><time>2026-04-29T07:56:45.236Z</time></trkpt><trkpt lat="45.4793189" lon="11.6748845"><ele>20.333333333333332</ele><time>2026-04-29T07:56:46.237Z</time></trkpt><trkpt lat="45.4792671" lon="11.6748084"><ele>20.666666666666668</ele><time>2026-04-29T07:56:47.237Z</time></trkpt><trkpt lat="45.4792142" lon="11.6747237"><ele>21.0</ele><time>2026-04-29T07:56:48.237Z</time></trkpt><trkpt lat="45.4791656" lon="11.6746446"><ele>21.0</ele><time>2026-04-29T07:56:49.236Z</time></trkpt><trkpt lat="45.4791171" lon="11.6745648"><ele>21.0</ele><time>2026-04-29T07:56:50.236Z</time></trkpt><trkpt lat="45.479069" lon="11.6744825"><ele>21.0</ele><time>2026-04-29T07:56:51.237Z</time></trkpt><trkpt lat="45.4790189" lon="11.6744031"><ele>21.0</ele><time>2026-04-29T07:56:52.237Z</time></trkpt><trkpt lat="45.4789598" lon="11.6743248"><ele>21.0</ele><time>2026-04-29T07:56:53.236Z</time></trkpt><trkpt lat="45.4789086" lon="11.6742429"><ele>21.0</ele><time>2026-04-29T07:56:54.236Z</time></trkpt><trkpt lat="45.4788585" lon="11.6741624"><ele>20.833333333333332</ele><time>2026-04-29T07:56:55.237Z</time></trkpt><trkpt lat="45.4788088" lon="11.6740841"><ele>20.666666666666668</ele><time>2026-04-29T07:56:56.237Z</time></trkpt><trkpt lat="45.478757" lon="11.6740038"><ele>20.5</ele><time>2026-04-29T07:56:57.236Z</time></trkpt><trkpt lat="45.478707" lon="11.6739231"><ele>20.333333333333336</ele><time>2026-04-29T07:56:58.237Z</time></trkpt><trkpt lat="45.4786572" lon="11.6738391"><ele>20.166666666666668</ele><time>2026-04-29T07:56:59.236Z</time></trkpt><trkpt lat="45.4786088" lon="11.673753"><ele>20.0</ele><time>2026-04-29T07:57:00.236Z</time></trkpt><trkpt lat="45.4785604" lon="11.6736708"><ele>20.166666666666668</ele><time>2026-04-29T07:57:01.236Z</time></trkpt><trkpt lat="45.4785081" lon="11.6735936"><ele>20.333333333333336</ele><time>2026-04-29T07:57:02.236Z</time></trkpt><trkpt lat="45.4784543" lon="11.6735183"><ele>20.5</ele><time>2026-04-29T07:57:03.236Z</time></trkpt><trkpt lat="45.4784051" lon="11.6734349"><ele>20.666666666666668</ele><time>2026-04-29T07:57:04.236Z</time></trkpt><trkpt lat="45.4783547" lon="11.6733468"><ele>20.833333333333332</ele><time>2026-04-29T07:57:05.236Z</time></trkpt><trkpt lat="45.4783064" lon="11.6732657"><ele>21.0</ele><time>2026-04-29T07:57:06.236Z</time></trkpt><trkpt lat="45.4782571" lon="11.6731874"><ele>21.0</ele><time>2026-04-29T07:57:07.236Z</time></trkpt><trkpt lat="45.4782064" lon="11.6731109"><ele>21.0</ele><time>2026-04-29T07:57:08.236Z</time></trkpt><trkpt lat="45.4781585" lon="11.6730331"><ele>21.0</ele><time>2026-04-29T07:57:09.236Z</time></trkpt><trkpt lat="45.4781095" lon="11.6729534"><ele>21.0</ele><time>2026-04-29T07:57:10.236Z</time></trkpt><trkpt lat="45.4780598" lon="11.6728762"><ele>21.0</ele><time>2026-04-29T07:57:11.236Z</time></trkpt><trkpt lat="45.4780092" lon="11.6727969"><ele>21.0</ele><time>2026-04-29T07:57:12.236Z</time></trkpt><trkpt lat="45.4779552" lon="11.6727188"><ele>21.0</ele><time>2026-04-29T07:57:13.236Z</time></trkpt><trkpt lat="45.4779045" lon="11.6726456"><ele>21.142857142857142</ele><time>2026-04-29T07:57:14.236Z</time></trkpt><trkpt lat="45.4778535" lon="11.6725662"><ele>21.285714285714285</ele><time>2026-04-29T07:57:15.237Z</time></trkpt><trkpt lat="45.4778039" lon="11.6724895"><ele>21.42857142857143</ele><time>2026-04-29T07:57:16.236Z</time></trkpt><trkpt lat="45.4777534" lon="11.6724141"><ele>21.57142857142857</ele><time>2026-04-29T07:57:17.236Z</time></trkpt><trkpt lat="45.4777034" lon="11.672342"><ele>21.714285714285715</ele><time>2026-04-29T07:57:18.236Z</time></trkpt><trkpt lat="45.4776535" lon="11.6722608"><ele>21.857142857142858</ele><time>2026-04-29T07:57:19.236Z</time></trkpt><trkpt lat="45.4776029" lon="11.6721836"><ele>22.0</ele><time>2026-04-29T07:57:20.236Z</time></trkpt><trkpt lat="45.4775511" lon="11.6721054"><ele>22.0</ele><time>2026-04-29T07:57:21.236Z</time></trkpt><trkpt lat="45.4775" lon="11.6720271"><ele>22.0</ele><time>2026-04-29T07:57:22.236Z</time></trkpt><trkpt lat="45.4774468" lon="11.6719468"><ele>22.0</ele><time>2026-04-29T07:57:23.236Z</time></trkpt><trkpt lat="45.4773987" lon="11.671868"><ele>22.0</ele><time>2026-04-29T07:57:24.236Z</time></trkpt><trkpt lat="45.4773516" lon="11.6717978"><ele>22.0</ele><time>2026-04-29T07:57:25.237Z</time></trkpt><trkpt lat="45.4773045" lon="11.6717291"><ele>22.0</ele><time>2026-04-29T07:57:26.236Z</time></trkpt><trkpt lat="45.4772654" lon="11.671658"><ele>22.0</ele><time>2026-04-29T07:57:27.236Z</time></trkpt><trkpt lat="45.4771839" lon="11.6715252"><ele>21.8</ele><time>2026-04-29T07:57:29.236Z</time></trkpt><trkpt lat="45.4771063" lon="11.67139"><ele>21.6</ele><time>2026-04-29T07:57:31.236Z</time></trkpt><trkpt lat="45.4770265" lon="11.671275"><ele>21.400000000000002</ele><time>2026-04-29T07:57:33.236Z</time></trkpt><trkpt lat="45.4769648" lon="11.6711637"><ele>21.200000000000003</ele><time>2026-04-29T07:57:35.237Z</time></trkpt><trkpt lat="45.4769104" lon="11.6710681"><ele>21.0</ele><time>2026-04-29T07:57:38.236Z</time></trkpt><trkpt lat="45.4768738" lon="11.6709861"><ele>21.5</ele><time>2026-04-29T07:57:40.236Z</time></trkpt><trkpt lat="45.4768125" lon="11.6708974"><ele>22.0</ele><time>2026-04-29T07:57:42.236Z</time></trkpt><trkpt lat="45.4767273" lon="11.6707818"><ele>22.5</ele><time>2026-04-29T07:57:44.237Z</time></trkpt><trkpt lat="45.4766407" lon="11.6706544"><ele>23.0</ele><time>2026-04-29T07:57:46.236Z</time></trkpt><trkpt lat="45.4765627" lon="11.6705176"><ele>23.0</ele><time>2026-04-29T07:57:48.236Z</time></trkpt><trkpt lat="45.4765197" lon="11.6704449"><ele>23.0</ele><time>2026-04-29T07:57:49.236Z</time></trkpt><trkpt lat="45.4764749" lon="11.6703735"><ele>23.0</ele><time>2026-04-29T07:57:50.236Z</time></trkpt><trkpt lat="45.47643" lon="11.6703003"><ele>23.0</ele><time>2026-04-29T07:57:51.236Z</time></trkpt><trkpt lat="45.4763792" lon="11.6702254"><ele>23.0</ele><time>2026-04-29T07:57:52.236Z</time></trkpt><trkpt lat="45.4763282" lon="11.6701516"><ele>23.0</ele><time>2026-04-29T07:57:53.236Z</time></trkpt><trkpt lat="45.4762782" lon="11.670076"><ele>23.0</ele><time>2026-04-29T07:57:54.236Z</time></trkpt><trkpt lat="45.4762318" lon="11.6700033"><ele>22.571428571428573</ele><time>2026-04-29T07:57:55.236Z</time></trkpt><trkpt lat="45.4761899" lon="11.6699277"><ele>22.142857142857142</ele><time>2026-04-29T07:57:56.236Z</time></trkpt><trkpt lat="45.4761426" lon="11.6698583"><ele>21.714285714285715</ele><time>2026-04-29T07:57:57.236Z</time></trkpt><trkpt lat="45.4760997" lon="11.6697855"><ele>21.285714285714285</ele><time>2026-04-29T07:57:58.236Z</time></trkpt><trkpt lat="45.4760574" lon="11.6697156"><ele>20.857142857142858</ele><time>2026-04-29T07:57:59.236Z</time></trkpt><trkpt lat="45.476012" lon="11.6696488"><ele>20.428571428571427</ele><time>2026-04-29T07:58:00.236Z</time></trkpt><trkpt lat="45.4759626" lon="11.6695764"><ele>20.0</ele><time>2026-04-29T07:58:01.237Z</time></trkpt><trkpt lat="45.4759155" lon="11.6695074"><ele>20.0</ele><time>2026-04-29T07:58:02.237Z</time></trkpt><trkpt lat="45.4758704" lon="11.6694319"><ele>20.0</ele><time>2026-04-29T07:58:03.236Z</time></trkpt><trkpt lat="45.4758242" lon="11.6693608"><ele>20.0</ele><time>2026-04-29T07:58:04.236Z</time></trkpt><trkpt lat="45.4757747" lon="11.6692851"><ele>20.0</ele><time>2026-04-29T07:58:05.236Z</time></trkpt><trkpt lat="45.4757292" lon="11.6692089"><ele>20.0</ele><time>2026-04-29T07:58:06.236Z</time></trkpt><trkpt lat="45.4756794" lon="11.6691351"><ele>20.0</ele><time>2026-04-29T07:58:07.236Z</time></trkpt><trkpt lat="45.4756325" lon="11.6690629"><ele>20.0</ele><time>2026-04-29T07:58:08.236Z</time></trkpt><trkpt lat="45.475591" lon="11.6689898"><ele>20.0</ele><time>2026-04-29T07:58:09.236Z</time></trkpt><trkpt lat="45.4755124" lon="11.6688505"><ele>20.0</ele><time>2026-04-29T07:58:11.236Z</time></trkpt><trkpt lat="45.4754293" lon="11.6687236"><ele>20.0</ele><time>2026-04-29T07:58:13.237Z</time></trkpt><trkpt lat="45.4753439" lon="11.6685971"><ele>20.0</ele><time>2026-04-29T07:58:15.236Z</time></trkpt><trkpt lat="45.4752662" lon="11.6684754"><ele>20.5</ele><time>2026-04-29T07:58:17.236Z</time></trkpt><trkpt lat="45.475213" lon="11.6683465"><ele>21.0</ele><time>2026-04-29T07:58:19.237Z</time></trkpt><trkpt lat="45.4751733" lon="11.6682597"><ele>21.5</ele><time>2026-04-29T07:58:21.237Z</time></trkpt><trkpt lat="45.4751208" lon="11.668198"><ele>22.0</ele><time>2026-04-29T07:58:23.236Z</time></trkpt><trkpt lat="45.4750462" lon="11.6681298"><ele>22.5</ele><time>2026-04-29T07:58:25.237Z</time></trkpt><trkpt lat="45.4749741" lon="11.6680069"><ele>23.0</ele><time>2026-04-29T07:58:27.236Z</time></trkpt><trkpt lat="45.4749326" lon="11.6679371"><ele>23.0</ele><time>2026-04-29T07:58:28.236Z</time></trkpt><trkpt lat="45.4748478" lon="11.6678099"><ele>23.0</ele><time>2026-04-29T07:58:30.236Z</time></trkpt><trkpt lat="45.4747658" lon="11.6676764"><ele>23.0</ele><time>2026-04-29T07:58:32.237Z</time></trkpt><trkpt lat="45.4747252" lon="11.6676044"><ele>23.0</ele><time>2026-04-29T07:58:33.237Z</time></trkpt><trkpt lat="45.4746365" lon="11.6674718"><ele>23.0</ele><time>2026-04-29T07:58:35.236Z</time></trkpt><trkpt lat="45.4745893" lon="11.6673952"><ele>23.0</ele><time>2026-04-29T07:58:36.237Z</time></trkpt><trkpt lat="45.4745428" lon="11.6673155"><ele>23.0</ele><time>2026-04-29T07:58:37.236Z</time></trkpt><trkpt lat="45.4744935" lon="11.66724"><ele>23.0</ele><time>2026-04-29T07:58:38.237Z</time></trkpt><trkpt lat="45.4744429" lon="11.6671673"><ele>23.0</ele><time>2026-04-29T07:58:39.236Z</time></trkpt><trkpt lat="45.4743943" lon="11.6670871"><ele>23.0</ele><time>2026-04-29T07:58:40.237Z</time></trkpt><trkpt lat="45.4743471" lon="11.6670045"><ele>23.0</ele><time>2026-04-29T07:58:41.236Z</time></trkpt><trkpt lat="45.4742958" lon="11.6669259"><ele>23.0</ele><time>2026-04-29T07:58:42.236Z</time></trkpt><trkpt lat="45.4742441" lon="11.6668466"><ele>23.0</ele><time>2026-04-29T07:58:43.237Z</time></trkpt><trkpt lat="45.4741927" lon="11.6667678"><ele>23.0</ele><time>2026-04-29T07:58:44.237Z</time></trkpt><trkpt lat="45.4741422" lon="11.6666912"><ele>23.0</ele><time>2026-04-29T07:58:45.237Z</time></trkpt><trkpt lat="45.4740916" lon="11.666605"><ele>23.0</ele><time>2026-04-29T07:58:46.237Z</time></trkpt><trkpt lat="45.474045" lon="11.6665223"><ele>23.0</ele><time>2026-04-29T07:58:47.236Z</time></trkpt><trkpt lat="45.4739952" lon="11.6664421"><ele>23.0</ele><time>2026-04-29T07:58:48.236Z</time></trkpt><trkpt lat="45.4739457" lon="11.666359"><ele>23.0</ele><time>2026-04-29T07:58:49.236Z</time></trkpt><trkpt lat="45.4738943" lon="11.6662762"><ele>23.0</ele><time>2026-04-29T07:58:50.236Z</time></trkpt><trkpt lat="45.4738442" lon="11.6661992"><ele>23.0</ele><time>2026-04-29T07:58:51.236Z</time></trkpt><trkpt lat="45.473792" lon="11.6661209"><ele>23.0</ele><time>2026-04-29T07:58:52.237Z</time></trkpt><trkpt lat="45.4737388" lon="11.6660297"><ele>23.0</ele><time>2026-04-29T07:58:53.236Z</time></trkpt><trkpt lat="45.4736843" lon="11.6659441"><ele>23.0</ele><time>2026-04-29T07:58:54.236Z</time></trkpt><trkpt lat="45.4736317" lon="11.6658579"><ele>23.0</ele><time>2026-04-29T07:58:55.236Z</time></trkpt><trkpt lat="45.4735786" lon="11.6657832"><ele>23.0</ele><time>2026-04-29T07:58:56.235Z</time></trkpt><trkpt lat="45.4735269" lon="11.6657059"><ele>23.0</ele><time>2026-04-29T07:58:57.236Z</time></trkpt><trkpt lat="45.473477" lon="11.6656267"><ele>23.0</ele><time>2026-04-29T07:58:58.235Z</time></trkpt><trkpt lat="45.4734241" lon="11.6655541"><ele>23.0</ele><time>2026-04-29T07:58:59.235Z</time></trkpt><trkpt lat="45.4733759" lon="11.6654732"><ele>23.0</ele><time>2026-04-29T07:59:00.235Z</time></trkpt><trkpt lat="45.4733261" lon="11.6653895"><ele>23.0</ele><time>2026-04-29T07:59:01.235Z</time></trkpt><trkpt lat="45.4732759" lon="11.6653093"><ele>22.833333333333336</ele><time>2026-04-29T07:59:02.235Z</time></trkpt><trkpt lat="45.4732212" lon="11.6652239"><ele>22.666666666666668</ele><time>2026-04-29T07:59:03.236Z</time></trkpt><trkpt lat="45.4731657" lon="11.6651463"><ele>22.5</ele><time>2026-04-29T07:59:04.236Z</time></trkpt><trkpt lat="45.4731125" lon="11.665066"><ele>22.333333333333332</ele><time>2026-04-29T07:59:05.236Z</time></trkpt><trkpt lat="45.4730621" lon="11.6649874"><ele>22.166666666666664</ele><time>2026-04-29T07:59:06.235Z</time></trkpt><trkpt lat="45.4730133" lon="11.6649033"><ele>22.0</ele><time>2026-04-29T07:59:07.235Z</time></trkpt><trkpt lat="45.4729667" lon="11.6648205"><ele>22.142857142857142</ele><time>2026-04-29T07:59:08.235Z</time></trkpt><trkpt lat="45.4729177" lon="11.6647429"><ele>22.285714285714285</ele><time>2026-04-29T07:59:09.235Z</time></trkpt><trkpt lat="45.4728697" lon="11.6646678"><ele>22.42857142857143</ele><time>2026-04-29T07:59:10.235Z</time></trkpt><trkpt lat="45.4728242" lon="11.6645927"><ele>22.57142857142857</ele><time>2026-04-29T07:59:11.235Z</time></trkpt><trkpt lat="45.4727759" lon="11.6645118"><ele>22.71428571428571</ele><time>2026-04-29T07:59:12.235Z</time></trkpt><trkpt lat="45.4727284" lon="11.6644321"><ele>22.857142857142858</ele><time>2026-04-29T07:59:13.236Z</time></trkpt><trkpt lat="45.4726766" lon="11.6643553"><ele>23.0</ele><time>2026-04-29T07:59:14.235Z</time></trkpt><trkpt lat="45.472626" lon="11.6642769"><ele>23.166666666666668</ele><time>2026-04-29T07:59:15.236Z</time></trkpt><trkpt lat="45.4725731" lon="11.6641927"><ele>23.333333333333336</ele><time>2026-04-29T07:59:16.235Z</time></trkpt><trkpt lat="45.4725242" lon="11.6641064"><ele>23.5</ele><time>2026-04-29T07:59:17.235Z</time></trkpt><trkpt lat="45.4724716" lon="11.6640231"><ele>23.666666666666668</ele><time>2026-04-29T07:59:18.235Z</time></trkpt><trkpt lat="45.4724209" lon="11.6639355"><ele>23.833333333333332</ele><time>2026-04-29T07:59:19.235Z</time></trkpt><trkpt lat="45.4723721" lon="11.6638524"><ele>24.0</ele><time>2026-04-29T07:59:20.236Z</time></trkpt><trkpt lat="45.4723196" lon="11.6637654"><ele>24.0</ele><time>2026-04-29T07:59:21.236Z</time></trkpt><trkpt lat="45.472269" lon="11.6636826"><ele>24.0</ele><time>2026-04-29T07:59:22.235Z</time></trkpt><trkpt lat="45.4722191" lon="11.663602"><ele>24.0</ele><time>2026-04-29T07:59:23.235Z</time></trkpt><trkpt lat="45.4721681" lon="11.6635203"><ele>24.0</ele><time>2026-04-29T07:59:24.235Z</time></trkpt><trkpt lat="45.4721181" lon="11.6634375"><ele>24.0</ele><time>2026-04-29T07:59:25.235Z</time></trkpt><trkpt lat="45.4720651" lon="11.663357"><ele>24.0</ele><time>2026-04-29T07:59:26.235Z</time></trkpt><trkpt lat="45.472013" lon="11.6632743"><ele>24.0</ele><time>2026-04-29T07:59:27.235Z</time></trkpt><trkpt lat="45.4719605" lon="11.6631927"><ele>24.0</ele><time>2026-04-29T07:59:28.235Z</time></trkpt><trkpt lat="45.4719055" lon="11.6631119"><ele>24.0</ele><time>2026-04-29T07:59:29.236Z</time></trkpt><trkpt lat="45.4718534" lon="11.6630283"><ele>24.0</ele><time>2026-04-29T07:59:30.236Z</time></trkpt><trkpt lat="45.4717993" lon="11.6629467"><ele>24.0</ele><time>2026-04-29T07:59:31.236Z</time></trkpt><trkpt lat="45.4717453" lon="11.6628619"><ele>24.0</ele><time>2026-04-29T07:59:32.235Z</time></trkpt><trkpt lat="45.471693" lon="11.662778"><ele>24.0</ele><time>2026-04-29T07:59:33.236Z</time></trkpt><trkpt lat="45.4716397" lon="11.6626949"><ele>24.0</ele><time>2026-04-29T07:59:34.236Z</time></trkpt><trkpt lat="45.471588" lon="11.6626118"><ele>24.0</ele><time>2026-04-29T07:59:35.235Z</time></trkpt><trkpt lat="45.4715351" lon="11.6625295"><ele>24.0</ele><time>2026-04-29T07:59:36.235Z</time></trkpt><trkpt lat="45.4714791" lon="11.6624464"><ele>24.0</ele><time>2026-04-29T07:59:37.235Z</time></trkpt><trkpt lat="45.4714213" lon="11.6623629"><ele>24.0</ele><time>2026-04-29T07:59:38.235Z</time></trkpt><trkpt lat="45.4713719" lon="11.6622827"><ele>24.0</ele><time>2026-04-29T07:59:39.235Z</time></trkpt><trkpt lat="45.4713207" lon="11.662202"><ele>24.0</ele><time>2026-04-29T07:59:40.235Z</time></trkpt><trkpt lat="45.4712704" lon="11.6621231"><ele>24.0</ele><time>2026-04-29T07:59:41.235Z</time></trkpt><trkpt lat="45.4712229" lon="11.6620436"><ele>24.0</ele><time>2026-04-29T07:59:42.235Z</time></trkpt><trkpt lat="45.4711702" lon="11.6619638"><ele>24.0</ele><time>2026-04-29T07:59:43.235Z</time></trkpt><trkpt lat="45.4711214" lon="11.6618829"><ele>24.0</ele><time>2026-04-29T07:59:44.235Z</time></trkpt><trkpt lat="45.4710729" lon="11.6618021"><ele>23.999999999999996</ele><time>2026-04-29T07:59:45.235Z</time></trkpt><trkpt lat="45.4710219" lon="11.6617251"><ele>24.0</ele><time>2026-04-29T07:59:46.235Z</time></trkpt><trkpt lat="45.4709717" lon="11.6616456"><ele>24.0</ele><time>2026-04-29T07:59:47.236Z</time></trkpt><trkpt lat="45.4709198" lon="11.6615723"><ele>24.0</ele><time>2026-04-29T07:59:48.235Z</time></trkpt><trkpt lat="45.4708721" lon="11.6614999"><ele>24.0</ele><time>2026-04-29T07:59:49.235Z</time></trkpt><trkpt lat="45.4708204" lon="11.6614256"><ele>23.999999999999996</ele><time>2026-04-29T07:59:50.235Z</time></trkpt><trkpt lat="45.470768" lon="11.6613494"><ele>24.0</ele><time>2026-04-29T07:59:51.236Z</time></trkpt><trkpt lat="45.470724" lon="11.6612714"><ele>23.999999999999996</ele><time>2026-04-29T07:59:52.235Z</time></trkpt><trkpt lat="45.4706768" lon="11.661197"><ele>24.0</ele><time>2026-04-29T07:59:53.236Z</time></trkpt><trkpt lat="45.4706316" lon="11.6611233"><ele>24.0</ele><time>2026-04-29T07:59:54.235Z</time></trkpt><trkpt lat="45.4705854" lon="11.6610505"><ele>24.0</ele><time>2026-04-29T07:59:55.235Z</time></trkpt><trkpt lat="45.470538" lon="11.6609759"><ele>24.0</ele><time>2026-04-29T07:59:56.235Z</time></trkpt><trkpt lat="45.4704906" lon="11.660905"><ele>23.999999999999996</ele><time>2026-04-29T07:59:57.236Z</time></trkpt><trkpt lat="45.4704456" lon="11.660835"><ele>24.0</ele><time>2026-04-29T07:59:58.236Z</time></trkpt><trkpt lat="45.4703722" lon="11.6607103"><ele>24.0</ele><time>2026-04-29T08:00:00.235Z</time></trkpt><trkpt lat="45.4702883" lon="11.6606189"><ele>24.0</ele><time>2026-04-29T08:00:03.235Z</time></trkpt><trkpt lat="45.4702342" lon="11.6605317"><ele>24.0</ele><time>2026-04-29T08:00:05.236Z</time></trkpt><trkpt lat="45.4701576" lon="11.6604018"><ele>24.0</ele><time>2026-04-29T08:00:07.235Z</time></trkpt><trkpt lat="45.4700771" lon="11.6602772"><ele>24.0</ele><time>2026-04-29T08:00:09.235Z</time></trkpt><trkpt lat="45.4700392" lon="11.6602021"><ele>23.999999999999996</ele><time>2026-04-29T08:00:10.235Z</time></trkpt><trkpt lat="45.4699976" lon="11.6601313"><ele>24.0</ele><time>2026-04-29T08:00:11.235Z</time></trkpt><trkpt lat="45.4699532" lon="11.6600604"><ele>24.0</ele><time>2026-04-29T08:00:12.236Z</time></trkpt><trkpt lat="45.4699068" lon="11.6599902"><ele>24.0</ele><time>2026-04-29T08:00:13.235Z</time></trkpt><trkpt lat="45.469861" lon="11.6599109"><ele>24.0</ele><time>2026-04-29T08:00:14.235Z</time></trkpt><trkpt lat="45.4698138" lon="11.659841"><ele>23.999999999999996</ele><time>2026-04-29T08:00:15.235Z</time></trkpt><trkpt lat="45.4697633" lon="11.6597755"><ele>24.0</ele><time>2026-04-29T08:00:16.236Z</time></trkpt><trkpt lat="45.4697119" lon="11.6596975"><ele>23.999999999999996</ele><time>2026-04-29T08:00:17.235Z</time></trkpt><trkpt lat="45.46966" lon="11.6596237"><ele>24.0</ele><time>2026-04-29T08:00:18.236Z</time></trkpt><trkpt lat="45.4696155" lon="11.6595426"><ele>24.0</ele><time>2026-04-29T08:00:19.236Z</time></trkpt><trkpt lat="45.4695684" lon="11.6594616"><ele>24.0</ele><time>2026-04-29T08:00:20.235Z</time></trkpt><trkpt lat="45.469518" lon="11.6593767"><ele>24.0</ele><time>2026-04-29T08:00:21.236Z</time></trkpt><trkpt lat="45.4694667" lon="11.6593012"><ele>23.999999999999996</ele><time>2026-04-29T08:00:22.235Z</time></trkpt><trkpt lat="45.4694153" lon="11.659225"><ele>24.0</ele><time>2026-04-29T08:00:23.235Z</time></trkpt><trkpt lat="45.4693674" lon="11.6591453"><ele>23.999999999999996</ele><time>2026-04-29T08:00:24.235Z</time></trkpt><trkpt lat="45.4693207" lon="11.659065"><ele>24.0</ele><time>2026-04-29T08:00:25.235Z</time></trkpt><trkpt lat="45.469271" lon="11.6589839"><ele>24.0</ele><time>2026-04-29T08:00:26.235Z</time></trkpt><trkpt lat="45.469224" lon="11.6589049"><ele>24.0</ele><time>2026-04-29T08:00:27.235Z</time></trkpt><trkpt lat="45.4691773" lon="11.6588266"><ele>24.0</ele><time>2026-04-29T08:00:28.236Z</time></trkpt><trkpt lat="45.4691257" lon="11.6587496"><ele>23.999999999999996</ele><time>2026-04-29T08:00:29.235Z</time></trkpt><trkpt lat="45.4690735" lon="11.6586691"><ele>24.0</ele><time>2026-04-29T08:00:30.235Z</time></trkpt><trkpt lat="45.4690242" lon="11.6585917"><ele>24.142857142857142</ele><time>2026-04-29T08:00:31.235Z</time></trkpt><trkpt lat="45.4689765" lon="11.6585159"><ele>24.285714285714285</ele><time>2026-04-29T08:00:32.235Z</time></trkpt><trkpt lat="45.4689293" lon="11.6584374"><ele>24.42857142857143</ele><time>2026-04-29T08:00:33.235Z</time></trkpt><trkpt lat="45.4688848" lon="11.6583601"><ele>24.57142857142857</ele><time>2026-04-29T08:00:34.236Z</time></trkpt><trkpt lat="45.46884" lon="11.6582835"><ele>24.714285714285715</ele><time>2026-04-29T08:00:35.236Z</time></trkpt><trkpt lat="45.4687919" lon="11.6582091"><ele>24.857142857142858</ele><time>2026-04-29T08:00:36.236Z</time></trkpt><trkpt lat="45.4687422" lon="11.658133"><ele>25.0</ele><time>2026-04-29T08:00:37.236Z</time></trkpt><trkpt lat="45.4686941" lon="11.6580523"><ele>25.000000000000004</ele><time>2026-04-29T08:00:38.235Z</time></trkpt><trkpt lat="45.4686463" lon="11.6579816"><ele>25.0</ele><time>2026-04-29T08:00:39.235Z</time></trkpt><trkpt lat="45.4686025" lon="11.6579067"><ele>25.0</ele><time>2026-04-29T08:00:40.235Z</time></trkpt><trkpt lat="45.4685544" lon="11.6578319"><ele>25.0</ele><time>2026-04-29T08:00:41.235Z</time></trkpt><trkpt lat="45.4685075" lon="11.6577573"><ele>25.0</ele><time>2026-04-29T08:00:42.235Z</time></trkpt><trkpt lat="45.4684597" lon="11.6576818"><ele>25.000000000000004</ele><time>2026-04-29T08:00:43.236Z</time></trkpt><trkpt lat="45.4684118" lon="11.6575972"><ele>25.0</ele><time>2026-04-29T08:00:44.235Z</time></trkpt><trkpt lat="45.4683659" lon="11.6575223"><ele>24.714285714285715</ele><time>2026-04-29T08:00:45.235Z</time></trkpt><trkpt lat="45.4683169" lon="11.65745"><ele>24.42857142857143</ele><time>2026-04-29T08:00:46.236Z</time></trkpt><trkpt lat="45.4682723" lon="11.6573789"><ele>24.142857142857146</ele><time>2026-04-29T08:00:47.236Z</time></trkpt><trkpt lat="45.4682211" lon="11.6573019"><ele>23.857142857142858</ele><time>2026-04-29T08:00:48.235Z</time></trkpt><trkpt lat="45.468173" lon="11.6572325"><ele>23.57142857142857</ele><time>2026-04-29T08:00:49.236Z</time></trkpt><trkpt lat="45.4681209" lon="11.6571561"><ele>23.28571428571429</ele><time>2026-04-29T08:00:50.235Z</time></trkpt><trkpt lat="45.4680701" lon="11.6570777"><ele>23.0</ele><time>2026-04-29T08:00:51.235Z</time></trkpt><trkpt lat="45.4680218" lon="11.656999"><ele>23.0</ele><time>2026-04-29T08:00:52.236Z</time></trkpt><trkpt lat="45.4679696" lon="11.6569121"><ele>23.0</ele><time>2026-04-29T08:00:53.235Z</time></trkpt><trkpt lat="45.4679149" lon="11.6568309"><ele>23.0</ele><time>2026-04-29T08:00:54.236Z</time></trkpt><trkpt lat="45.4678654" lon="11.6567512"><ele>23.0</ele><time>2026-04-29T08:00:55.235Z</time></trkpt><trkpt lat="45.4678175" lon="11.6566785"><ele>23.0</ele><time>2026-04-29T08:00:56.236Z</time></trkpt><trkpt lat="45.4677682" lon="11.6566003"><ele>23.0</ele><time>2026-04-29T08:00:57.236Z</time></trkpt><trkpt lat="45.4677282" lon="11.656518"><ele>23.0</ele><time>2026-04-29T08:00:58.235Z</time></trkpt><trkpt lat="45.4676795" lon="11.6564412"><ele>22.714285714285715</ele><time>2026-04-29T08:00:59.236Z</time></trkpt><trkpt lat="45.4676254" lon="11.6563703"><ele>22.428571428571427</ele><time>2026-04-29T08:01:00.235Z</time></trkpt><trkpt lat="45.4675781" lon="11.6562954"><ele>22.142857142857142</ele><time>2026-04-29T08:01:01.235Z</time></trkpt><trkpt lat="45.4675298" lon="11.656214"><ele>21.857142857142858</ele><time>2026-04-29T08:01:02.235Z</time></trkpt><trkpt lat="45.4674807" lon="11.6561325"><ele>21.57142857142857</ele><time>2026-04-29T08:01:03.235Z</time></trkpt><trkpt lat="45.4674308" lon="11.6560568"><ele>21.285714285714285</ele><time>2026-04-29T08:01:04.235Z</time></trkpt><trkpt lat="45.4673875" lon="11.6559767"><ele>21.0</ele><time>2026-04-29T08:01:05.235Z</time></trkpt><trkpt lat="45.4673419" lon="11.6559025"><ele>21.0</ele><time>2026-04-29T08:01:06.235Z</time></trkpt><trkpt lat="45.4672893" lon="11.6558327"><ele>21.0</ele><time>2026-04-29T08:01:07.235Z</time></trkpt><trkpt lat="45.4672401" lon="11.6557646"><ele>21.0</ele><time>2026-04-29T08:01:08.235Z</time></trkpt><trkpt lat="45.4671954" lon="11.6556916"><ele>21.0</ele><time>2026-04-29T08:01:09.235Z</time></trkpt><trkpt lat="45.4671502" lon="11.6556171"><ele>21.0</ele><time>2026-04-29T08:01:10.235Z</time></trkpt><trkpt lat="45.4671031" lon="11.6555415"><ele>21.0</ele><time>2026-04-29T08:01:11.235Z</time></trkpt><trkpt lat="45.4670528" lon="11.6554668"><ele>21.0</ele><time>2026-04-29T08:01:12.236Z</time></trkpt><trkpt lat="45.4670052" lon="11.6553924"><ele>21.0</ele><time>2026-04-29T08:01:13.235Z</time></trkpt><trkpt lat="45.4669565" lon="11.6553189"><ele>21.0</ele><time>2026-04-29T08:01:14.235Z</time></trkpt><trkpt lat="45.4669055" lon="11.6552459"><ele>21.0</ele><time>2026-04-29T08:01:15.236Z</time></trkpt><trkpt lat="45.4668606" lon="11.6551726"><ele>21.0</ele><time>2026-04-29T08:01:16.235Z</time></trkpt><trkpt lat="45.4668138" lon="11.6550935"><ele>21.0</ele><time>2026-04-29T08:01:17.235Z</time></trkpt><trkpt lat="45.4667657" lon="11.6550149"><ele>21.0</ele><time>2026-04-29T08:01:18.235Z</time></trkpt><trkpt lat="45.4667177" lon="11.6549377"><ele>21.0</ele><time>2026-04-29T08:01:19.236Z</time></trkpt><trkpt lat="45.4666722" lon="11.6548613"><ele>20.857142857142858</ele><time>2026-04-29T08:01:20.235Z</time></trkpt><trkpt lat="45.4666262" lon="11.6547858"><ele>20.714285714285715</ele><time>2026-04-29T08:01:21.235Z</time></trkpt><trkpt lat="45.4665818" lon="11.6547147"><ele>20.57142857142857</ele><time>2026-04-29T08:01:22.235Z</time></trkpt><trkpt lat="45.466538" lon="11.6546443"><ele>20.42857142857143</ele><time>2026-04-29T08:01:23.235Z</time></trkpt><trkpt lat="45.4664918" lon="11.6545694"><ele>20.285714285714285</ele><time>2026-04-29T08:01:24.235Z</time></trkpt><trkpt lat="45.466447" lon="11.6544968"><ele>20.142857142857142</ele><time>2026-04-29T08:01:25.236Z</time></trkpt><trkpt lat="45.4664008" lon="11.6544241"><ele>20.0</ele><time>2026-04-29T08:01:26.235Z</time></trkpt><trkpt lat="45.4663526" lon="11.6543525"><ele>20.166666666666668</ele><time>2026-04-29T08:01:27.236Z</time></trkpt><trkpt lat="45.4663078" lon="11.6542747"><ele>20.333333333333336</ele><time>2026-04-29T08:01:28.236Z</time></trkpt><trkpt lat="45.4662605" lon="11.6541965"><ele>20.5</ele><time>2026-04-29T08:01:29.235Z</time></trkpt><trkpt lat="45.4662126" lon="11.6541239"><ele>20.666666666666668</ele><time>2026-04-29T08:01:30.235Z</time></trkpt><trkpt lat="45.4661707" lon="11.6540548"><ele>20.833333333333332</ele><time>2026-04-29T08:01:31.235Z</time></trkpt><trkpt lat="45.46613" lon="11.6539858"><ele>21.0</ele><time>2026-04-29T08:01:32.235Z</time></trkpt><trkpt lat="45.4660489" lon="11.6538502"><ele>21.0</ele><time>2026-04-29T08:01:34.235Z</time></trkpt><trkpt lat="45.4659691" lon="11.6537318"><ele>21.0</ele><time>2026-04-29T08:01:36.235Z</time></trkpt><trkpt lat="45.4658862" lon="11.6536264"><ele>21.0</ele><time>2026-04-29T08:01:38.235Z</time></trkpt><trkpt lat="45.4658132" lon="11.6535217"><ele>21.0</ele><time>2026-04-29T08:01:40.236Z</time></trkpt><trkpt lat="45.4657654" lon="11.653426"><ele>21.0</ele><time>2026-04-29T08:01:42.235Z</time></trkpt><trkpt lat="45.465705" lon="11.653361"><ele>20.8</ele><time>2026-04-29T08:01:44.235Z</time></trkpt><trkpt lat="45.4656693" lon="11.6532715"><ele>20.6</ele><time>2026-04-29T08:01:46.235Z</time></trkpt><trkpt lat="45.4656107" lon="11.653175"><ele>20.4</ele><time>2026-04-29T08:01:48.235Z</time></trkpt><trkpt lat="45.4655375" lon="11.6530612"><ele>20.2</ele><time>2026-04-29T08:01:50.235Z</time></trkpt><trkpt lat="45.4654569" lon="11.6529341"><ele>20.0</ele><time>2026-04-29T08:01:52.235Z</time></trkpt><trkpt lat="45.4653701" lon="11.6528038"><ele>20.285714285714285</ele><time>2026-04-29T08:01:54.235Z</time></trkpt><trkpt lat="45.4653268" lon="11.6527324"><ele>20.571428571428573</ele><time>2026-04-29T08:01:55.235Z</time></trkpt><trkpt lat="45.465282" lon="11.6526553"><ele>20.857142857142858</ele><time>2026-04-29T08:01:56.235Z</time></trkpt><trkpt lat="45.4652385" lon="11.6525724"><ele>21.142857142857142</ele><time>2026-04-29T08:01:57.235Z</time></trkpt><trkpt lat="45.4651911" lon="11.6524969"><ele>21.428571428571427</ele><time>2026-04-29T08:01:58.236Z</time></trkpt><trkpt lat="45.465143" lon="11.6524176"><ele>21.714285714285715</ele><time>2026-04-29T08:01:59.235Z</time></trkpt><trkpt lat="45.4650925" lon="11.6523417"><ele>22.0</ele><time>2026-04-29T08:02:00.235Z</time></trkpt><trkpt lat="45.4650449" lon="11.6522651"><ele>22.0</ele><time>2026-04-29T08:02:01.235Z</time></trkpt><trkpt lat="45.4649998" lon="11.652191"><ele>22.0</ele><time>2026-04-29T08:02:02.236Z</time></trkpt><trkpt lat="45.4649544" lon="11.6521195"><ele>22.0</ele><time>2026-04-29T08:02:03.235Z</time></trkpt><trkpt lat="45.464903" lon="11.6520467"><ele>22.0</ele><time>2026-04-29T08:02:04.235Z</time></trkpt><trkpt lat="45.4648516" lon="11.6519719"><ele>22.0</ele><time>2026-04-29T08:02:05.235Z</time></trkpt><trkpt lat="45.4648057" lon="11.6518956"><ele>22.0</ele><time>2026-04-29T08:02:06.235Z</time></trkpt><trkpt lat="45.4647578" lon="11.651817"><ele>22.0</ele><time>2026-04-29T08:02:07.235Z</time></trkpt><trkpt lat="45.4647118" lon="11.6517357"><ele>21.833333333333332</ele><time>2026-04-29T08:02:08.235Z</time></trkpt><trkpt lat="45.4646653" lon="11.6516574"><ele>21.666666666666664</ele><time>2026-04-29T08:02:09.236Z</time></trkpt><trkpt lat="45.4646125" lon="11.6515821"><ele>21.5</ele><time>2026-04-29T08:02:10.235Z</time></trkpt><trkpt lat="45.4645617" lon="11.6515027"><ele>21.333333333333332</ele><time>2026-04-29T08:02:11.236Z</time></trkpt><trkpt lat="45.4645115" lon="11.6514223"><ele>21.166666666666668</ele><time>2026-04-29T08:02:12.235Z</time></trkpt><trkpt lat="45.4644578" lon="11.6513446"><ele>21.0</ele><time>2026-04-29T08:02:13.236Z</time></trkpt><trkpt lat="45.4644036" lon="11.6512626"><ele>21.0</ele><time>2026-04-29T08:02:14.236Z</time></trkpt><trkpt lat="45.4643533" lon="11.6511801"><ele>21.0</ele><time>2026-04-29T08:02:15.235Z</time></trkpt><trkpt lat="45.464304" lon="11.6510985"><ele>21.0</ele><time>2026-04-29T08:02:16.236Z</time></trkpt><trkpt lat="45.4642546" lon="11.6510179"><ele>21.0</ele><time>2026-04-29T08:02:17.235Z</time></trkpt><trkpt lat="45.464208" lon="11.6509397"><ele>21.0</ele><time>2026-04-29T08:02:18.235Z</time></trkpt><trkpt lat="45.4641568" lon="11.6508664"><ele>21.0</ele><time>2026-04-29T08:02:19.235Z</time></trkpt><trkpt lat="45.4641063" lon="11.6507949"><ele>21.0</ele><time>2026-04-29T08:02:20.235Z</time></trkpt><trkpt lat="45.4640575" lon="11.6507184"><ele>21.142857142857142</ele><time>2026-04-29T08:02:21.235Z</time></trkpt><trkpt lat="45.4640098" lon="11.6506406"><ele>21.285714285714285</ele><time>2026-04-29T08:02:22.235Z</time></trkpt><trkpt lat="45.4639603" lon="11.6505598"><ele>21.42857142857143</ele><time>2026-04-29T08:02:23.235Z</time></trkpt><trkpt lat="45.4639111" lon="11.6504826"><ele>21.57142857142857</ele><time>2026-04-29T08:02:24.235Z</time></trkpt><trkpt lat="45.4638638" lon="11.6504061"><ele>21.714285714285715</ele><time>2026-04-29T08:02:25.236Z</time></trkpt><trkpt lat="45.463815" lon="11.6503287"><ele>21.857142857142858</ele><time>2026-04-29T08:02:26.236Z</time></trkpt><trkpt lat="45.4637671" lon="11.650256"><ele>22.0</ele><time>2026-04-29T08:02:27.236Z</time></trkpt><trkpt lat="45.4637171" lon="11.650177"><ele>22.0</ele><time>2026-04-29T08:02:28.235Z</time></trkpt><trkpt lat="45.4636643" lon="11.6500966"><ele>22.0</ele><time>2026-04-29T08:02:29.235Z</time></trkpt><trkpt lat="45.4636116" lon="11.6500174"><ele>22.0</ele><time>2026-04-29T08:02:30.235Z</time></trkpt><trkpt lat="45.4635633" lon="11.6499339"><ele>22.0</ele><time>2026-04-29T08:02:31.236Z</time></trkpt><trkpt lat="45.4635122" lon="11.6498557"><ele>22.0</ele><time>2026-04-29T08:02:32.236Z</time></trkpt><trkpt lat="45.4634636" lon="11.6497688"><ele>22.0</ele><time>2026-04-29T08:02:33.235Z</time></trkpt><trkpt lat="45.4634141" lon="11.6496866"><ele>22.0</ele><time>2026-04-29T08:02:34.235Z</time></trkpt><trkpt lat="45.4633627" lon="11.6496051"><ele>22.0</ele><time>2026-04-29T08:02:35.235Z</time></trkpt><trkpt lat="45.4633089" lon="11.6495215"><ele>22.0</ele><time>2026-04-29T08:02:36.236Z</time></trkpt><trkpt lat="45.463256" lon="11.6494433"><ele>22.0</ele><time>2026-04-29T08:02:37.235Z</time></trkpt><trkpt lat="45.4632007" lon="11.6493618"><ele>22.0</ele><time>2026-04-29T08:02:38.235Z</time></trkpt><trkpt lat="45.4631476" lon="11.6492758"><ele>22.0</ele><time>2026-04-29T08:02:39.235Z</time></trkpt><trkpt lat="45.4630964" lon="11.6491877"><ele>21.833333333333332</ele><time>2026-04-29T08:02:40.236Z</time></trkpt><trkpt lat="45.4630395" lon="11.6491021"><ele>21.666666666666664</ele><time>2026-04-29T08:02:41.235Z</time></trkpt><trkpt lat="45.4629831" lon="11.6490179"><ele>21.5</ele><time>2026-04-29T08:02:42.235Z</time></trkpt><trkpt lat="45.4629288" lon="11.6489311"><ele>21.333333333333332</ele><time>2026-04-29T08:02:43.235Z</time></trkpt><trkpt lat="45.4628739" lon="11.6488441"><ele>21.166666666666668</ele><time>2026-04-29T08:02:44.235Z</time></trkpt><trkpt lat="45.4628165" lon="11.6487542"><ele>21.0</ele><time>2026-04-29T08:02:45.235Z</time></trkpt><trkpt lat="45.4627595" lon="11.6486602"><ele>21.0</ele><time>2026-04-29T08:02:46.235Z</time></trkpt><trkpt lat="45.4627069" lon="11.64857"><ele>21.0</ele><time>2026-04-29T08:02:47.235Z</time></trkpt><trkpt lat="45.4626522" lon="11.6484779"><ele>21.0</ele><time>2026-04-29T08:02:48.235Z</time></trkpt><trkpt lat="45.4625999" lon="11.6483876"><ele>21.0</ele><time>2026-04-29T08:02:49.235Z</time></trkpt><trkpt lat="45.4625437" lon="11.6482986"><ele>21.0</ele><time>2026-04-29T08:02:50.236Z</time></trkpt><trkpt lat="45.4624827" lon="11.648206"><ele>21.0</ele><time>2026-04-29T08:02:51.235Z</time></trkpt><trkpt lat="45.4624221" lon="11.6481125"><ele>21.0</ele><time>2026-04-29T08:02:52.235Z</time></trkpt><trkpt lat="45.4623636" lon="11.648017"><ele>21.0</ele><time>2026-04-29T08:02:53.236Z</time></trkpt><trkpt lat="45.4623064" lon="11.6479258"><ele>21.0</ele><time>2026-04-29T08:02:54.235Z</time></trkpt><trkpt lat="45.4622506" lon="11.6478341"><ele>21.0</ele><time>2026-04-29T08:02:55.236Z</time></trkpt><trkpt lat="45.4621926" lon="11.6477401"><ele>21.0</ele><time>2026-04-29T08:02:56.235Z</time></trkpt><trkpt lat="45.4621385" lon="11.6476486"><ele>21.0</ele><time>2026-04-29T08:02:57.235Z</time></trkpt><trkpt lat="45.4620793" lon="11.6475583"><ele>21.333333333333332</ele><time>2026-04-29T08:02:58.236Z</time></trkpt><trkpt lat="45.4620165" lon="11.6474674"><ele>21.666666666666668</ele><time>2026-04-29T08:02:59.234Z</time></trkpt><trkpt lat="45.4619577" lon="11.6473775"><ele>22.0</ele><time>2026-04-29T08:03:00.234Z</time></trkpt><trkpt lat="45.4618966" lon="11.6472892"><ele>22.333333333333336</ele><time>2026-04-29T08:03:01.234Z</time></trkpt><trkpt lat="45.4618384" lon="11.6471922"><ele>22.666666666666668</ele><time>2026-04-29T08:03:02.234Z</time></trkpt><trkpt lat="45.4617775" lon="11.6471024"><ele>23.0</ele><time>2026-04-29T08:03:03.234Z</time></trkpt><trkpt lat="45.4617178" lon="11.6470138"><ele>22.833333333333336</ele><time>2026-04-29T08:03:04.234Z</time></trkpt><trkpt lat="45.4616591" lon="11.646921"><ele>22.666666666666668</ele><time>2026-04-29T08:03:05.234Z</time></trkpt><trkpt lat="45.4615971" lon="11.6468331"><ele>22.5</ele><time>2026-04-29T08:03:06.234Z</time></trkpt><trkpt lat="45.461534" lon="11.6467427"><ele>22.333333333333332</ele><time>2026-04-29T08:03:07.235Z</time></trkpt><trkpt lat="45.4614699" lon="11.6466504"><ele>22.166666666666664</ele><time>2026-04-29T08:03:08.234Z</time></trkpt><trkpt lat="45.4614099" lon="11.6465604"><ele>22.0</ele><time>2026-04-29T08:03:09.234Z</time></trkpt><trkpt lat="45.4613482" lon="11.6464732"><ele>22.0</ele><time>2026-04-29T08:03:10.234Z</time></trkpt><trkpt lat="45.4612888" lon="11.6463837"><ele>22.0</ele><time>2026-04-29T08:03:11.234Z</time></trkpt><trkpt lat="45.4612257" lon="11.6462971"><ele>22.0</ele><time>2026-04-29T08:03:12.235Z</time></trkpt><trkpt lat="45.4611668" lon="11.6462085"><ele>22.0</ele><time>2026-04-29T08:03:13.234Z</time></trkpt><trkpt lat="45.4611084" lon="11.646121"><ele>22.0</ele><time>2026-04-29T08:03:14.235Z</time></trkpt><trkpt lat="45.461052" lon="11.6460371"><ele>22.0</ele><time>2026-04-29T08:03:15.235Z</time></trkpt><trkpt lat="45.4609926" lon="11.6459484"><ele>21.833333333333332</ele><time>2026-04-29T08:03:16.234Z</time></trkpt><trkpt lat="45.4609361" lon="11.6458594"><ele>21.666666666666664</ele><time>2026-04-29T08:03:17.234Z</time></trkpt><trkpt lat="45.4608764" lon="11.6457816"><ele>21.5</ele><time>2026-04-29T08:03:18.235Z</time></trkpt><trkpt lat="45.4608192" lon="11.6457066"><ele>21.333333333333332</ele><time>2026-04-29T08:03:19.235Z</time></trkpt><trkpt lat="45.4607695" lon="11.6456283"><ele>21.166666666666668</ele><time>2026-04-29T08:03:20.234Z</time></trkpt><trkpt lat="45.4607195" lon="11.6455491"><ele>21.0</ele><time>2026-04-29T08:03:21.234Z</time></trkpt><trkpt lat="45.4606641" lon="11.6454778"><ele>21.0</ele><time>2026-04-29T08:03:22.234Z</time></trkpt><trkpt lat="45.460615" lon="11.6454077"><ele>21.0</ele><time>2026-04-29T08:03:23.234Z</time></trkpt><trkpt lat="45.460569" lon="11.6453396"><ele>21.0</ele><time>2026-04-29T08:03:24.234Z</time></trkpt><trkpt lat="45.4605251" lon="11.6452689"><ele>21.0</ele><time>2026-04-29T08:03:25.234Z</time></trkpt><trkpt lat="45.4604419" lon="11.6451409"><ele>21.0</ele><time>2026-04-29T08:03:27.234Z</time></trkpt><trkpt lat="45.460358" lon="11.6450185"><ele>21.0</ele><time>2026-04-29T08:03:29.234Z</time></trkpt><trkpt lat="45.4602799" lon="11.6449027"><ele>21.0</ele><time>2026-04-29T08:03:31.234Z</time></trkpt><trkpt lat="45.4601995" lon="11.6448027"><ele>21.0</ele><time>2026-04-29T08:03:33.234Z</time></trkpt><trkpt lat="45.4601248" lon="11.6447143"><ele>21.0</ele><time>2026-04-29T08:03:35.234Z</time></trkpt><trkpt lat="45.4600747" lon="11.644617"><ele>21.0</ele><time>2026-04-29T08:03:37.234Z</time></trkpt><trkpt lat="45.4600217" lon="11.6445247"><ele>21.0</ele><time>2026-04-29T08:03:39.234Z</time></trkpt><trkpt lat="45.4599677" lon="11.6444509"><ele>21.0</ele><time>2026-04-29T08:03:41.235Z</time></trkpt><trkpt lat="45.459912" lon="11.6443918"><ele>21.333333333333332</ele><time>2026-04-29T08:03:43.234Z</time></trkpt><trkpt lat="45.4598551" lon="11.6443082"><ele>21.666666666666668</ele><time>2026-04-29T08:03:46.235Z</time></trkpt><trkpt lat="45.4598148" lon="11.6442261"><ele>22.0</ele><time>2026-04-29T08:03:48.234Z</time></trkpt><trkpt lat="45.4597414" lon="11.6442008"><ele>22.333333333333336</ele><time>2026-04-29T08:03:50.234Z</time></trkpt><trkpt lat="45.4596689" lon="11.6441297"><ele>22.666666666666668</ele><time>2026-04-29T08:03:52.234Z</time></trkpt><trkpt lat="45.4596265" lon="11.6440355"><ele>23.0</ele><time>2026-04-29T08:03:54.234Z</time></trkpt><trkpt lat="45.459574" lon="11.6439384"><ele>23.0</ele><time>2026-04-29T08:03:56.234Z</time></trkpt><trkpt lat="45.4595053" lon="11.6438463"><ele>23.0</ele><time>2026-04-29T08:03:58.234Z</time></trkpt><trkpt lat="45.4594317" lon="11.6437544"><ele>23.0</ele><time>2026-04-29T08:04:00.234Z</time></trkpt><trkpt lat="45.4593548" lon="11.6437197"><ele>23.0</ele><time>2026-04-29T08:04:02.234Z</time></trkpt><trkpt lat="45.4592759" lon="11.6437427"><ele>23.0</ele><time>2026-04-29T08:04:04.234Z</time></trkpt><trkpt lat="45.4592013" lon="11.6437707"><ele>23.0</ele><time>2026-04-29T08:04:06.234Z</time></trkpt><trkpt lat="45.4591202" lon="11.6437453"><ele>23.0</ele><time>2026-04-29T08:04:08.234Z</time></trkpt><trkpt lat="45.459122" lon="11.6436386"><ele>23.0</ele><time>2026-04-29T08:04:10.234Z</time></trkpt><trkpt lat="45.459129" lon="11.6435349"><ele>23.0</ele><time>2026-04-29T08:04:12.234Z</time></trkpt><trkpt lat="45.4590972" lon="11.6434284"><ele>23.0</ele><time>2026-04-29T08:04:14.235Z</time></trkpt><trkpt lat="45.4590448" lon="11.643313"><ele>23.0</ele><time>2026-04-29T08:04:16.234Z</time></trkpt><trkpt lat="45.4589975" lon="11.6432052"><ele>23.0</ele><time>2026-04-29T08:04:18.234Z</time></trkpt><trkpt lat="45.458932" lon="11.6430995"><ele>23.0</ele><time>2026-04-29T08:04:20.234Z</time></trkpt><trkpt lat="45.4588679" lon="11.6429932"><ele>23.0</ele><time>2026-04-29T08:04:22.234Z</time></trkpt><trkpt lat="45.4587994" lon="11.6428773"><ele>23.0</ele><time>2026-04-29T08:04:24.234Z</time></trkpt><trkpt lat="45.4587226" lon="11.6427606"><ele>23.0</ele><time>2026-04-29T08:04:26.235Z</time></trkpt><trkpt lat="45.4586389" lon="11.6426506"><ele>23.0</ele><time>2026-04-29T08:04:28.235Z</time></trkpt><trkpt lat="45.4585563" lon="11.6425234"><ele>23.0</ele><time>2026-04-29T08:04:30.234Z</time></trkpt><trkpt lat="45.4584723" lon="11.642412"><ele>23.0</ele><time>2026-04-29T08:04:32.234Z</time></trkpt><trkpt lat="45.4583923" lon="11.6422872"><ele>23.0</ele><time>2026-04-29T08:04:34.234Z</time></trkpt><trkpt lat="45.4583064" lon="11.6421703"><ele>23.0</ele><time>2026-04-29T08:04:36.234Z</time></trkpt><trkpt lat="45.4582198" lon="11.6420469"><ele>23.0</ele><time>2026-04-29T08:04:38.234Z</time></trkpt><trkpt lat="45.4581349" lon="11.6419252"><ele>23.0</ele><time>2026-04-29T08:04:40.234Z</time></trkpt><trkpt lat="45.4580505" lon="11.6417939"><ele>23.0</ele><time>2026-04-29T08:04:42.234Z</time></trkpt><trkpt lat="45.4579656" lon="11.6416673"><ele>23.0</ele><time>2026-04-29T08:04:44.235Z</time></trkpt><trkpt lat="45.4578817" lon="11.6415482"><ele>22.75</ele><time>2026-04-29T08:04:46.235Z</time></trkpt><trkpt lat="45.4578051" lon="11.6414274"><ele>22.5</ele><time>2026-04-29T08:04:48.235Z</time></trkpt><trkpt lat="45.4577207" lon="11.6413107"><ele>22.25</ele><time>2026-04-29T08:04:50.234Z</time></trkpt><trkpt lat="45.4576359" lon="11.6411863"><ele>22.0</ele><time>2026-04-29T08:04:52.234Z</time></trkpt><trkpt lat="45.4575562" lon="11.6410653"><ele>21.8</ele><time>2026-04-29T08:04:54.235Z</time></trkpt><trkpt lat="45.4574782" lon="11.6409547"><ele>21.6</ele><time>2026-04-29T08:04:56.234Z</time></trkpt><trkpt lat="45.4574061" lon="11.6408485"><ele>21.400000000000002</ele><time>2026-04-29T08:04:58.235Z</time></trkpt><trkpt lat="45.4573319" lon="11.6407318"><ele>21.200000000000003</ele><time>2026-04-29T08:05:00.234Z</time></trkpt><trkpt lat="45.4572484" lon="11.6406137"><ele>21.0</ele><time>2026-04-29T08:05:02.235Z</time></trkpt><trkpt lat="45.4571678" lon="11.6404885"><ele>21.75</ele><time>2026-04-29T08:05:04.234Z</time></trkpt><trkpt lat="45.4570874" lon="11.6403721"><ele>22.5</ele><time>2026-04-29T08:05:06.234Z</time></trkpt><trkpt lat="45.4569996" lon="11.6402444"><ele>23.25</ele><time>2026-04-29T08:05:08.235Z</time></trkpt><trkpt lat="45.4569149" lon="11.6401168"><ele>24.0</ele><time>2026-04-29T08:05:10.235Z</time></trkpt><trkpt lat="45.4568333" lon="11.6399901"><ele>24.0</ele><time>2026-04-29T08:05:12.234Z</time></trkpt><trkpt lat="45.45675" lon="11.6398756"><ele>24.0</ele><time>2026-04-29T08:05:14.234Z</time></trkpt><trkpt lat="45.4566659" lon="11.6397497"><ele>24.0</ele><time>2026-04-29T08:05:16.234Z</time></trkpt><trkpt lat="45.4565884" lon="11.6396401"><ele>24.0</ele><time>2026-04-29T08:05:18.234Z</time></trkpt><trkpt lat="45.4564977" lon="11.6396251"><ele>24.0</ele><time>2026-04-29T08:05:20.234Z</time></trkpt><trkpt lat="45.4564216" lon="11.6397453"><ele>23.999999999999996</ele><time>2026-04-29T08:05:22.235Z</time></trkpt><trkpt lat="45.4563855" lon="11.6398252"><ele>24.0</ele><time>2026-04-29T08:05:23.235Z</time></trkpt><trkpt lat="45.456352" lon="11.6399048"><ele>24.0</ele><time>2026-04-29T08:05:24.234Z</time></trkpt><trkpt lat="45.4563147" lon="11.6399854"><ele>24.0</ele><time>2026-04-29T08:05:25.234Z</time></trkpt><trkpt lat="45.4562799" lon="11.6400695"><ele>24.0</ele><time>2026-04-29T08:05:26.234Z</time></trkpt><trkpt lat="45.4562408" lon="11.6401559"><ele>23.999999999999996</ele><time>2026-04-29T08:05:27.234Z</time></trkpt><trkpt lat="45.4562058" lon="11.6402458"><ele>24.0</ele><time>2026-04-29T08:05:28.234Z</time></trkpt><trkpt lat="45.4561692" lon="11.6403391"><ele>23.6</ele><time>2026-04-29T08:05:29.235Z</time></trkpt><trkpt lat="45.4561285" lon="11.6404259"><ele>23.2</ele><time>2026-04-29T08:05:30.234Z</time></trkpt><trkpt lat="45.456093" lon="11.6405068"><ele>22.8</ele><time>2026-04-29T08:05:31.234Z</time></trkpt><trkpt lat="45.4560588" lon="11.6405892"><ele>22.400000000000002</ele><time>2026-04-29T08:05:32.235Z</time></trkpt><trkpt lat="45.4559962" lon="11.6407468"><ele>22.0</ele><time>2026-04-29T08:05:34.234Z</time></trkpt><trkpt lat="45.4559389" lon="11.6408921"><ele>22.0</ele><time>2026-04-29T08:05:36.234Z</time></trkpt><trkpt lat="45.4558828" lon="11.6410345"><ele>22.0</ele><time>2026-04-29T08:05:38.234Z</time></trkpt><trkpt lat="45.4558263" lon="11.6411859"><ele>22.0</ele><time>2026-04-29T08:05:40.234Z</time></trkpt><trkpt lat="45.4557678" lon="11.6413323"><ele>22.0</ele><time>2026-04-29T08:05:42.235Z</time></trkpt><trkpt lat="45.4557037" lon="11.6414868"><ele>21.857142857142858</ele><time>2026-04-29T08:05:44.234Z</time></trkpt><trkpt lat="45.4556716" lon="11.6415658"><ele>21.714285714285715</ele><time>2026-04-29T08:05:45.234Z</time></trkpt><trkpt lat="45.4556366" lon="11.6416476"><ele>21.57142857142857</ele><time>2026-04-29T08:05:46.234Z</time></trkpt><trkpt lat="45.4556017" lon="11.641723"><ele>21.42857142857143</ele><time>2026-04-29T08:05:47.235Z</time></trkpt><trkpt lat="45.4555615" lon="11.6417998"><ele>21.285714285714285</ele><time>2026-04-29T08:05:48.234Z</time></trkpt><trkpt lat="45.4555252" lon="11.6418798"><ele>21.142857142857142</ele><time>2026-04-29T08:05:49.234Z</time></trkpt><trkpt lat="45.4554862" lon="11.6419583"><ele>21.0</ele><time>2026-04-29T08:05:50.234Z</time></trkpt><trkpt lat="45.4554497" lon="11.6420347"><ele>21.333333333333332</ele><time>2026-04-29T08:05:51.235Z</time></trkpt><trkpt lat="45.4554113" lon="11.642113"><ele>21.666666666666668</ele><time>2026-04-29T08:05:52.234Z</time></trkpt><trkpt lat="45.4553688" lon="11.6421925"><ele>22.0</ele><time>2026-04-29T08:05:53.234Z</time></trkpt><trkpt lat="45.4553297" lon="11.6422711"><ele>22.333333333333336</ele><time>2026-04-29T08:05:54.235Z</time></trkpt><trkpt lat="45.4552585" lon="11.6424124"><ele>22.666666666666668</ele><time>2026-04-29T08:05:56.234Z</time></trkpt><trkpt lat="45.4552193" lon="11.6424882"><ele>23.0</ele><time>2026-04-29T08:05:57.234Z</time></trkpt><trkpt lat="45.4551508" lon="11.6426307"><ele>23.0</ele><time>2026-04-29T08:05:59.235Z</time></trkpt><trkpt lat="45.4550839" lon="11.6427687"><ele>23.0</ele><time>2026-04-29T08:06:01.234Z</time></trkpt><trkpt lat="45.4550065" lon="11.642907"><ele>23.0</ele><time>2026-04-29T08:06:03.234Z</time></trkpt><trkpt lat="45.4549339" lon="11.643053"><ele>23.0</ele><time>2026-04-29T08:06:05.234Z</time></trkpt><trkpt lat="45.4548974" lon="11.6431263"><ele>23.0</ele><time>2026-04-29T08:06:06.234Z</time></trkpt><trkpt lat="45.4548228" lon="11.6432726"><ele>22.799999999999997</ele><time>2026-04-29T08:06:08.235Z</time></trkpt><trkpt lat="45.4547844" lon="11.6433475"><ele>22.6</ele><time>2026-04-29T08:06:09.234Z</time></trkpt><trkpt lat="45.4547401" lon="11.6434211"><ele>22.4</ele><time>2026-04-29T08:06:10.234Z</time></trkpt><trkpt lat="45.4546603" lon="11.6435521"><ele>22.200000000000003</ele><time>2026-04-29T08:06:12.234Z</time></trkpt><trkpt lat="45.4545902" lon="11.6436702"><ele>22.0</ele><time>2026-04-29T08:06:14.235Z</time></trkpt><trkpt lat="45.45452" lon="11.6437806"><ele>22.0</ele><time>2026-04-29T08:06:16.234Z</time></trkpt><trkpt lat="45.4544346" lon="11.6438692"><ele>22.0</ele><time>2026-04-29T08:06:18.234Z</time></trkpt><trkpt lat="45.4543238" lon="11.6438536"><ele>22.0</ele><time>2026-04-29T08:06:20.234Z</time></trkpt><trkpt lat="45.4542199" lon="11.6437431"><ele>22.0</ele><time>2026-04-29T08:06:22.234Z</time></trkpt><trkpt lat="45.4541682" lon="11.6436763"><ele>22.0</ele><time>2026-04-29T08:06:23.234Z</time></trkpt><trkpt lat="45.4541116" lon="11.6436247"><ele>22.0</ele><time>2026-04-29T08:06:24.234Z</time></trkpt><trkpt lat="45.4540567" lon="11.6435713"><ele>22.0</ele><time>2026-04-29T08:06:25.234Z</time></trkpt><trkpt lat="45.4540003" lon="11.6435147"><ele>22.0</ele><time>2026-04-29T08:06:26.234Z</time></trkpt><trkpt lat="45.4539435" lon="11.6434542"><ele>22.0</ele><time>2026-04-29T08:06:27.234Z</time></trkpt><trkpt lat="45.4538882" lon="11.6433988"><ele>22.0</ele><time>2026-04-29T08:06:28.235Z</time></trkpt><trkpt lat="45.4538298" lon="11.6433508"><ele>22.0</ele><time>2026-04-29T08:06:29.234Z</time></trkpt><trkpt lat="45.4537686" lon="11.6432907"><ele>22.0</ele><time>2026-04-29T08:06:30.235Z</time></trkpt><trkpt lat="45.4537079" lon="11.6432367"><ele>22.0</ele><time>2026-04-29T08:06:31.235Z</time></trkpt><trkpt lat="45.4536476" lon="11.6431807"><ele>22.0</ele><time>2026-04-29T08:06:32.234Z</time></trkpt><trkpt lat="45.453587" lon="11.6431263"><ele>22.0</ele><time>2026-04-29T08:06:33.234Z</time></trkpt><trkpt lat="45.4535242" lon="11.6430745"><ele>22.0</ele><time>2026-04-29T08:06:34.234Z</time></trkpt><trkpt lat="45.45346" lon="11.6430198"><ele>22.0</ele><time>2026-04-29T08:06:35.234Z</time></trkpt><trkpt lat="45.4534025" lon="11.6429595"><ele>22.0</ele><time>2026-04-29T08:06:36.234Z</time></trkpt><trkpt lat="45.45335" lon="11.6428824"><ele>22.0</ele><time>2026-04-29T08:06:37.235Z</time></trkpt><trkpt lat="45.4533101" lon="11.642796"><ele>22.0</ele><time>2026-04-29T08:06:38.235Z</time></trkpt><trkpt lat="45.4532847" lon="11.6427027"><ele>22.0</ele><time>2026-04-29T08:06:39.234Z</time></trkpt><trkpt lat="45.4532712" lon="11.6426032"><ele>22.0</ele><time>2026-04-29T08:06:40.234Z</time></trkpt><trkpt lat="45.4532659" lon="11.6425002"><ele>22.0</ele><time>2026-04-29T08:06:41.234Z</time></trkpt><trkpt lat="45.4532542" lon="11.642399"><ele>22.0</ele><time>2026-04-29T08:06:42.234Z</time></trkpt><trkpt lat="45.4532403" lon="11.6422951"><ele>22.0</ele><time>2026-04-29T08:06:43.235Z</time></trkpt><trkpt lat="45.4532299" lon="11.6421944"><ele>22.0</ele><time>2026-04-29T08:06:44.234Z</time></trkpt><trkpt lat="45.4532195" lon="11.6420969"><ele>22.0</ele><time>2026-04-29T08:06:45.234Z</time></trkpt><trkpt lat="45.4532154" lon="11.6420001"><ele>22.0</ele><time>2026-04-29T08:06:46.234Z</time></trkpt><trkpt lat="45.4532041" lon="11.6419092"><ele>22.0</ele><time>2026-04-29T08:06:47.235Z</time></trkpt><trkpt lat="45.4531856" lon="11.641816"><ele>22.0</ele><time>2026-04-29T08:06:48.234Z</time></trkpt><trkpt lat="45.4531624" lon="11.6417213"><ele>22.0</ele><time>2026-04-29T08:06:49.234Z</time></trkpt><trkpt lat="45.4531284" lon="11.6416332"><ele>22.0</ele><time>2026-04-29T08:06:50.234Z</time></trkpt><trkpt lat="45.4530792" lon="11.6415417"><ele>22.0</ele><time>2026-04-29T08:06:51.234Z</time></trkpt><trkpt lat="45.4530167" lon="11.64149"><ele>22.142857142857142</ele><time>2026-04-29T08:06:52.235Z</time></trkpt><trkpt lat="45.4529495" lon="11.6414556"><ele>22.285714285714285</ele><time>2026-04-29T08:06:53.235Z</time></trkpt><trkpt lat="45.4528786" lon="11.6414271"><ele>22.42857142857143</ele><time>2026-04-29T08:06:54.234Z</time></trkpt><trkpt lat="45.4528098" lon="11.6414007"><ele>22.57142857142857</ele><time>2026-04-29T08:06:55.234Z</time></trkpt><trkpt lat="45.452739" lon="11.6413843"><ele>22.71428571428571</ele><time>2026-04-29T08:06:56.235Z</time></trkpt><trkpt lat="45.452669" lon="11.6413623"><ele>22.857142857142858</ele><time>2026-04-29T08:06:57.234Z</time></trkpt><trkpt lat="45.4525972" lon="11.6413389"><ele>23.0</ele><time>2026-04-29T08:06:58.234Z</time></trkpt><trkpt lat="45.4525237" lon="11.6413178"><ele>23.0</ele><time>2026-04-29T08:06:59.233Z</time></trkpt><trkpt lat="45.4524514" lon="11.6412972"><ele>23.0</ele><time>2026-04-29T08:07:00.234Z</time></trkpt><trkpt lat="45.4523783" lon="11.6412751"><ele>23.0</ele><time>2026-04-29T08:07:01.234Z</time></trkpt><trkpt lat="45.4523069" lon="11.6412527"><ele>23.0</ele><time>2026-04-29T08:07:02.233Z</time></trkpt><trkpt lat="45.452237" lon="11.6412301"><ele>23.0</ele><time>2026-04-29T08:07:03.233Z</time></trkpt><trkpt lat="45.4521663" lon="11.6412081"><ele>23.0</ele><time>2026-04-29T08:07:04.234Z</time></trkpt><trkpt lat="45.4520964" lon="11.6411851"><ele>23.0</ele><time>2026-04-29T08:07:05.233Z</time></trkpt><trkpt lat="45.4520225" lon="11.6411662"><ele>23.0</ele><time>2026-04-29T08:07:06.233Z</time></trkpt><trkpt lat="45.451952" lon="11.6411434"><ele>23.0</ele><time>2026-04-29T08:07:07.233Z</time></trkpt><trkpt lat="45.4518802" lon="11.6411131"><ele>23.0</ele><time>2026-04-29T08:07:08.233Z</time></trkpt><trkpt lat="45.4518089" lon="11.641088"><ele>23.0</ele><time>2026-04-29T08:07:09.233Z</time></trkpt><trkpt lat="45.4517379" lon="11.6410667"><ele>23.0</ele><time>2026-04-29T08:07:10.233Z</time></trkpt><trkpt lat="45.4516676" lon="11.6410455"><ele>23.0</ele><time>2026-04-29T08:07:11.233Z</time></trkpt><trkpt lat="45.4515993" lon="11.6410249"><ele>23.0</ele><time>2026-04-29T08:07:12.233Z</time></trkpt><trkpt lat="45.4515329" lon="11.6410038"><ele>23.142857142857142</ele><time>2026-04-29T08:07:13.234Z</time></trkpt><trkpt lat="45.451468" lon="11.6409771"><ele>23.285714285714285</ele><time>2026-04-29T08:07:14.233Z</time></trkpt><trkpt lat="45.4514001" lon="11.6409467"><ele>23.428571428571427</ele><time>2026-04-29T08:07:15.233Z</time></trkpt><trkpt lat="45.4513294" lon="11.6409178"><ele>23.57142857142857</ele><time>2026-04-29T08:07:16.233Z</time></trkpt><trkpt lat="45.4512585" lon="11.640891"><ele>23.714285714285715</ele><time>2026-04-29T08:07:17.233Z</time></trkpt><trkpt lat="45.4511872" lon="11.6408595"><ele>23.857142857142854</ele><time>2026-04-29T08:07:18.233Z</time></trkpt><trkpt lat="45.4511187" lon="11.6408244"><ele>24.0</ele><time>2026-04-29T08:07:19.233Z</time></trkpt><trkpt lat="45.4510512" lon="11.6407839"><ele>24.0</ele><time>2026-04-29T08:07:20.234Z</time></trkpt><trkpt lat="45.4509809" lon="11.6407429"><ele>24.0</ele><time>2026-04-29T08:07:21.233Z</time></trkpt><trkpt lat="45.4509075" lon="11.6407031"><ele>24.0</ele><time>2026-04-29T08:07:22.234Z</time></trkpt><trkpt lat="45.4508347" lon="11.6406658"><ele>24.0</ele><time>2026-04-29T08:07:23.233Z</time></trkpt><trkpt lat="45.4507627" lon="11.6406316"><ele>24.0</ele><time>2026-04-29T08:07:24.234Z</time></trkpt><trkpt lat="45.4506921" lon="11.6405943"><ele>24.0</ele><time>2026-04-29T08:07:25.234Z</time></trkpt><trkpt lat="45.4506254" lon="11.6405567"><ele>23.999999999999996</ele><time>2026-04-29T08:07:26.234Z</time></trkpt><trkpt lat="45.4505591" lon="11.6405191"><ele>24.0</ele><time>2026-04-29T08:07:27.233Z</time></trkpt><trkpt lat="45.4504936" lon="11.6404752"><ele>24.0</ele><time>2026-04-29T08:07:28.234Z</time></trkpt><trkpt lat="45.4504307" lon="11.6404262"><ele>24.0</ele><time>2026-04-29T08:07:29.233Z</time></trkpt><trkpt lat="45.4503652" lon="11.6403751"><ele>24.0</ele><time>2026-04-29T08:07:30.233Z</time></trkpt><trkpt lat="45.4503" lon="11.6403239"><ele>23.999999999999996</ele><time>2026-04-29T08:07:31.233Z</time></trkpt><trkpt lat="45.4502334" lon="11.6402681"><ele>24.0</ele><time>2026-04-29T08:07:32.234Z</time></trkpt><trkpt lat="45.4501719" lon="11.6402073"><ele>23.999999999999996</ele><time>2026-04-29T08:07:33.233Z</time></trkpt><trkpt lat="45.4501084" lon="11.6401473"><ele>24.0</ele><time>2026-04-29T08:07:34.233Z</time></trkpt><trkpt lat="45.4500481" lon="11.6400901"><ele>24.0</ele><time>2026-04-29T08:07:35.234Z</time></trkpt><trkpt lat="45.4499918" lon="11.6400324"><ele>24.0</ele><time>2026-04-29T08:07:36.234Z</time></trkpt><trkpt lat="45.44993" lon="11.639979"><ele>24.0</ele><time>2026-04-29T08:07:37.233Z</time></trkpt><trkpt lat="45.4498668" lon="11.6399285"><ele>23.999999999999996</ele><time>2026-04-29T08:07:38.233Z</time></trkpt><trkpt lat="45.4498054" lon="11.639877"><ele>24.0</ele><time>2026-04-29T08:07:39.233Z</time></trkpt><trkpt lat="45.4497438" lon="11.6398343"><ele>24.0</ele><time>2026-04-29T08:07:40.233Z</time></trkpt><trkpt lat="45.4496856" lon="11.6397846"><ele>24.0</ele><time>2026-04-29T08:07:41.233Z</time></trkpt><trkpt lat="45.4496274" lon="11.6397443"><ele>24.0</ele><time>2026-04-29T08:07:42.234Z</time></trkpt><trkpt lat="45.4495184" lon="11.6396641"><ele>24.0</ele><time>2026-04-29T08:07:44.233Z</time></trkpt><trkpt lat="45.4494158" lon="11.639601"><ele>24.0</ele><time>2026-04-29T08:07:46.233Z</time></trkpt><trkpt lat="45.44932" lon="11.6395404"><ele>24.0</ele><time>2026-04-29T08:07:48.233Z</time></trkpt><trkpt lat="45.4492404" lon="11.6394692"><ele>24.0</ele><time>2026-04-29T08:07:50.233Z</time></trkpt><trkpt lat="45.4491589" lon="11.6393987"><ele>24.0</ele><time>2026-04-29T08:07:52.233Z</time></trkpt><trkpt lat="45.4490545" lon="11.6393315"><ele>24.0</ele><time>2026-04-29T08:07:54.234Z</time></trkpt><trkpt lat="45.448953" lon="11.6392821"><ele>24.0</ele><time>2026-04-29T08:07:56.233Z</time></trkpt><trkpt lat="45.4488469" lon="11.639209"><ele>24.142857142857142</ele><time>2026-04-29T08:07:58.233Z</time></trkpt><trkpt lat="45.4487965" lon="11.6391536"><ele>24.285714285714285</ele><time>2026-04-29T08:07:59.233Z</time></trkpt><trkpt lat="45.4487075" lon="11.6390381"><ele>24.42857142857143</ele><time>2026-04-29T08:08:01.234Z</time></trkpt><trkpt lat="45.44865" lon="11.6389988"><ele>24.57142857142857</ele><time>2026-04-29T08:08:02.234Z</time></trkpt><trkpt lat="45.4485902" lon="11.6389581"><ele>24.714285714285715</ele><time>2026-04-29T08:08:03.234Z</time></trkpt><trkpt lat="45.4485304" lon="11.6389169"><ele>24.857142857142858</ele><time>2026-04-29T08:08:04.233Z</time></trkpt><trkpt lat="45.4484696" lon="11.6388801"><ele>25.0</ele><time>2026-04-29T08:08:05.233Z</time></trkpt><trkpt lat="45.4484066" lon="11.6388409"><ele>24.714285714285715</ele><time>2026-04-29T08:08:06.233Z</time></trkpt><trkpt lat="45.4483487" lon="11.6387928"><ele>24.42857142857143</ele><time>2026-04-29T08:08:07.233Z</time></trkpt><trkpt lat="45.4482889" lon="11.6387425"><ele>24.142857142857146</ele><time>2026-04-29T08:08:08.233Z</time></trkpt><trkpt lat="45.4482257" lon="11.6386976"><ele>23.857142857142858</ele><time>2026-04-29T08:08:09.233Z</time></trkpt><trkpt lat="45.4481613" lon="11.6386543"><ele>23.57142857142857</ele><time>2026-04-29T08:08:10.233Z</time></trkpt><trkpt lat="45.4480961" lon="11.6386133"><ele>23.28571428571429</ele><time>2026-04-29T08:08:11.233Z</time></trkpt><trkpt lat="45.4480304" lon="11.6385709"><ele>23.0</ele><time>2026-04-29T08:08:12.233Z</time></trkpt><trkpt lat="45.4479631" lon="11.6385311"><ele>23.0</ele><time>2026-04-29T08:08:13.234Z</time></trkpt><trkpt lat="45.4478984" lon="11.638481"><ele>23.0</ele><time>2026-04-29T08:08:14.233Z</time></trkpt><trkpt lat="45.4478378" lon="11.6384369"><ele>23.0</ele><time>2026-04-29T08:08:15.233Z</time></trkpt><trkpt lat="45.4477748" lon="11.638399"><ele>23.0</ele><time>2026-04-29T08:08:16.233Z</time></trkpt><trkpt lat="45.4477126" lon="11.6383624"><ele>23.0</ele><time>2026-04-29T08:08:17.234Z</time></trkpt><trkpt lat="45.4476505" lon="11.6383197"><ele>23.0</ele><time>2026-04-29T08:08:18.233Z</time></trkpt><trkpt lat="45.4475867" lon="11.6382778"><ele>23.0</ele><time>2026-04-29T08:08:19.233Z</time></trkpt><trkpt lat="45.4475233" lon="11.6382348"><ele>23.0</ele><time>2026-04-29T08:08:20.233Z</time></trkpt><trkpt lat="45.4474545" lon="11.6381965"><ele>23.0</ele><time>2026-04-29T08:08:21.234Z</time></trkpt><trkpt lat="45.4473915" lon="11.6381516"><ele>23.0</ele><time>2026-04-29T08:08:22.233Z</time></trkpt><trkpt lat="45.4473299" lon="11.6381101"><ele>23.0</ele><time>2026-04-29T08:08:23.234Z</time></trkpt><trkpt lat="45.4472671" lon="11.6380635"><ele>23.0</ele><time>2026-04-29T08:08:24.233Z</time></trkpt><trkpt lat="45.4472074" lon="11.6380204"><ele>23.0</ele><time>2026-04-29T08:08:25.233Z</time></trkpt><trkpt lat="45.4471469" lon="11.6379769"><ele>23.0</ele><time>2026-04-29T08:08:26.233Z</time></trkpt><trkpt lat="45.447089" lon="11.6379235"><ele>23.0</ele><time>2026-04-29T08:08:27.233Z</time></trkpt><trkpt lat="45.4470419" lon="11.637859"><ele>23.0</ele><time>2026-04-29T08:08:28.234Z</time></trkpt><trkpt lat="45.4470205" lon="11.6376955"><ele>23.0</ele><time>2026-04-29T08:08:30.233Z</time></trkpt><trkpt lat="45.4470886" lon="11.637555"><ele>23.0</ele><time>2026-04-29T08:08:32.233Z</time></trkpt><trkpt lat="45.4471243" lon="11.6374808"><ele>23.0</ele><time>2026-04-29T08:08:33.233Z</time></trkpt><trkpt lat="45.4472045" lon="11.6373565"><ele>22.799999999999997</ele><time>2026-04-29T08:08:35.233Z</time></trkpt><trkpt lat="45.4472848" lon="11.6372454"><ele>22.6</ele><time>2026-04-29T08:08:37.234Z</time></trkpt><trkpt lat="45.4473296" lon="11.6371119"><ele>22.4</ele><time>2026-04-29T08:08:39.233Z</time></trkpt><trkpt lat="45.4473625" lon="11.6369884"><ele>22.200000000000003</ele><time>2026-04-29T08:08:41.234Z</time></trkpt><trkpt lat="45.4473193" lon="11.6368993"><ele>22.0</ele><time>2026-04-29T08:08:43.234Z</time></trkpt><trkpt lat="45.4472402" lon="11.6368624"><ele>22.0</ele><time>2026-04-29T08:08:45.233Z</time></trkpt><trkpt lat="45.4471423" lon="11.6368866"><ele>22.0</ele><time>2026-04-29T08:08:47.234Z</time></trkpt><trkpt lat="45.4470344" lon="11.6368415"><ele>22.0</ele><time>2026-04-29T08:08:49.233Z</time></trkpt><trkpt lat="45.4469929" lon="11.636769"><ele>22.0</ele><time>2026-04-29T08:08:50.233Z</time></trkpt><trkpt lat="45.4469589" lon="11.6366928"><ele>22.0</ele><time>2026-04-29T08:08:51.233Z</time></trkpt><trkpt lat="45.4469201" lon="11.6366131"><ele>22.0</ele><time>2026-04-29T08:08:52.233Z</time></trkpt><trkpt lat="45.4468834" lon="11.6365362"><ele>22.0</ele><time>2026-04-29T08:08:53.233Z</time></trkpt><trkpt lat="45.4468426" lon="11.6364537"><ele>22.0</ele><time>2026-04-29T08:08:54.233Z</time></trkpt><trkpt lat="45.4467952" lon="11.6363778"><ele>22.0</ele><time>2026-04-29T08:08:55.233Z</time></trkpt><trkpt lat="45.446749" lon="11.6363046"><ele>22.0</ele><time>2026-04-29T08:08:56.234Z</time></trkpt><trkpt lat="45.4467025" lon="11.6362286"><ele>22.0</ele><time>2026-04-29T08:08:57.233Z</time></trkpt><trkpt lat="45.4466529" lon="11.6361511"><ele>22.0</ele><time>2026-04-29T08:08:58.233Z</time></trkpt><trkpt lat="45.4466037" lon="11.6360776"><ele>22.0</ele><time>2026-04-29T08:08:59.233Z</time></trkpt><trkpt lat="45.4465546" lon="11.6360022"><ele>22.0</ele><time>2026-04-29T08:09:00.234Z</time></trkpt><trkpt lat="45.4465049" lon="11.6359283"><ele>22.0</ele><time>2026-04-29T08:09:01.233Z</time></trkpt><trkpt lat="45.4464556" lon="11.6358488"><ele>22.0</ele><time>2026-04-29T08:09:02.233Z</time></trkpt><trkpt lat="45.4464076" lon="11.6357719"><ele>22.0</ele><time>2026-04-29T08:09:03.234Z</time></trkpt><trkpt lat="45.4463572" lon="11.6356987"><ele>22.0</ele><time>2026-04-29T08:09:04.234Z</time></trkpt><trkpt lat="45.4463047" lon="11.63562"><ele>22.0</ele><time>2026-04-29T08:09:05.233Z</time></trkpt><trkpt lat="45.4462567" lon="11.6355429"><ele>22.0</ele><time>2026-04-29T08:09:06.233Z</time></trkpt><trkpt lat="45.4462105" lon="11.6354769"><ele>22.0</ele><time>2026-04-29T08:09:07.234Z</time></trkpt><trkpt lat="45.4461606" lon="11.6354042"><ele>22.0</ele><time>2026-04-29T08:09:08.233Z</time></trkpt><trkpt lat="45.4461083" lon="11.6353255"><ele>22.0</ele><time>2026-04-29T08:09:09.233Z</time></trkpt><trkpt lat="45.4460578" lon="11.6352511"><ele>22.0</ele><time>2026-04-29T08:09:10.233Z</time></trkpt><trkpt lat="45.4460102" lon="11.6351809"><ele>22.0</ele><time>2026-04-29T08:09:11.233Z</time></trkpt><trkpt lat="45.4459644" lon="11.6351107"><ele>22.0</ele><time>2026-04-29T08:09:12.233Z</time></trkpt><trkpt lat="45.445917" lon="11.6350351"><ele>22.0</ele><time>2026-04-29T08:09:13.234Z</time></trkpt><trkpt lat="45.4458688" lon="11.6349641"><ele>22.0</ele><time>2026-04-29T08:09:14.234Z</time></trkpt><trkpt lat="45.4458222" lon="11.6348906"><ele>22.0</ele><time>2026-04-29T08:09:15.234Z</time></trkpt><trkpt lat="45.4457748" lon="11.6348197"><ele>22.0</ele><time>2026-04-29T08:09:16.233Z</time></trkpt><trkpt lat="45.4457273" lon="11.6347502"><ele>22.0</ele><time>2026-04-29T08:09:17.233Z</time></trkpt><trkpt lat="45.4456763" lon="11.6346805"><ele>22.0</ele><time>2026-04-29T08:09:18.234Z</time></trkpt><trkpt lat="45.4456331" lon="11.6346106"><ele>22.0</ele><time>2026-04-29T08:09:19.234Z</time></trkpt><trkpt lat="45.4455482" lon="11.6344935"><ele>22.0</ele><time>2026-04-29T08:09:21.233Z</time></trkpt><trkpt lat="45.4455052" lon="11.6344086"><ele>22.0</ele><time>2026-04-29T08:09:23.233Z</time></trkpt><trkpt lat="45.4454424" lon="11.6343633"><ele>22.0</ele><time>2026-04-29T08:09:26.234Z</time></trkpt><trkpt lat="45.4453818" lon="11.6342663"><ele>22.0</ele><time>2026-04-29T08:09:29.234Z</time></trkpt><trkpt lat="45.4453157" lon="11.6341791"><ele>22.0</ele><time>2026-04-29T08:09:31.233Z</time></trkpt><trkpt lat="45.4452502" lon="11.6340694"><ele>22.0</ele><time>2026-04-29T08:09:33.234Z</time></trkpt><trkpt lat="45.445171" lon="11.6339551"><ele>22.0</ele><time>2026-04-29T08:09:35.233Z</time></trkpt><trkpt lat="45.4450904" lon="11.6338303"><ele>22.0</ele><time>2026-04-29T08:09:37.233Z</time></trkpt><trkpt lat="45.4450146" lon="11.6337073"><ele>22.0</ele><time>2026-04-29T08:09:39.233Z</time></trkpt><trkpt lat="45.4449415" lon="11.6335912"><ele>22.0</ele><time>2026-04-29T08:09:41.233Z</time></trkpt><trkpt lat="45.4448739" lon="11.6334821"><ele>22.0</ele><time>2026-04-29T08:09:43.233Z</time></trkpt><trkpt lat="45.444798" lon="11.6333793"><ele>22.0</ele><time>2026-04-29T08:09:45.234Z</time></trkpt><trkpt lat="45.4447276" lon="11.6332731"><ele>22.0</ele><time>2026-04-29T08:09:47.233Z</time></trkpt><trkpt lat="45.4446634" lon="11.6331646"><ele>22.0</ele><time>2026-04-29T08:09:49.234Z</time></trkpt><trkpt lat="45.4446002" lon="11.6330743"><ele>22.0</ele><time>2026-04-29T08:09:51.233Z</time></trkpt><trkpt lat="45.4445424" lon="11.6329911"><ele>22.0</ele><time>2026-04-29T08:09:53.234Z</time></trkpt><trkpt lat="45.44449" lon="11.6329121"><ele>21.833333333333332</ele><time>2026-04-29T08:09:55.234Z</time></trkpt><trkpt lat="45.4444333" lon="11.6328233"><ele>21.666666666666664</ele><time>2026-04-29T08:09:57.233Z</time></trkpt><trkpt lat="45.4443802" lon="11.6327486"><ele>21.5</ele><time>2026-04-29T08:09:59.233Z</time></trkpt><trkpt lat="45.4443263" lon="11.6326675"><ele>21.333333333333332</ele><time>2026-04-29T08:10:01.233Z</time></trkpt><trkpt lat="45.4442635" lon="11.632572"><ele>21.166666666666668</ele><time>2026-04-29T08:10:03.233Z</time></trkpt><trkpt lat="45.444203" lon="11.6324786"><ele>21.0</ele><time>2026-04-29T08:10:05.233Z</time></trkpt><trkpt lat="45.4441371" lon="11.6323723"><ele>21.0</ele><time>2026-04-29T08:10:07.233Z</time></trkpt><trkpt lat="45.4440589" lon="11.6322587"><ele>21.0</ele><time>2026-04-29T08:10:09.234Z</time></trkpt><trkpt lat="45.4439852" lon="11.6321397"><ele>21.0</ele><time>2026-04-29T08:10:11.234Z</time></trkpt><trkpt lat="45.4439413" lon="11.6320751"><ele>21.0</ele><time>2026-04-29T08:10:12.233Z</time></trkpt><trkpt lat="45.4438909" lon="11.6320051"><ele>21.0</ele><time>2026-04-29T08:10:13.233Z</time></trkpt><trkpt lat="45.4438412" lon="11.6319296"><ele>21.0</ele><time>2026-04-29T08:10:14.233Z</time></trkpt><trkpt lat="45.4437858" lon="11.6318465"><ele>20.8</ele><time>2026-04-29T08:10:15.234Z</time></trkpt><trkpt lat="45.4437271" lon="11.6317638"><ele>20.6</ele><time>2026-04-29T08:10:16.233Z</time></trkpt><trkpt lat="45.4436706" lon="11.6316764"><ele>20.4</ele><time>2026-04-29T08:10:17.233Z</time></trkpt><trkpt lat="45.4436064" lon="11.6315846"><ele>20.2</ele><time>2026-04-29T08:10:18.233Z</time></trkpt><trkpt lat="45.4435406" lon="11.6314882"><ele>20.0</ele><time>2026-04-29T08:10:19.233Z</time></trkpt><trkpt lat="45.4434688" lon="11.6313922"><ele>20.0</ele><time>2026-04-29T08:10:20.233Z</time></trkpt><trkpt lat="45.4434042" lon="11.6312862"><ele>20.0</ele><time>2026-04-29T08:10:21.234Z</time></trkpt><trkpt lat="45.4433383" lon="11.6311845"><ele>20.0</ele><time>2026-04-29T08:10:22.234Z</time></trkpt><trkpt lat="45.4432702" lon="11.6310825"><ele>20.0</ele><time>2026-04-29T08:10:23.234Z</time></trkpt><trkpt lat="45.443198" lon="11.6309846"><ele>20.0</ele><time>2026-04-29T08:10:24.233Z</time></trkpt><trkpt lat="45.4431289" lon="11.630886"><ele>19.833333333333336</ele><time>2026-04-29T08:10:25.233Z</time></trkpt><trkpt lat="45.4430636" lon="11.630799"><ele>19.666666666666668</ele><time>2026-04-29T08:10:26.233Z</time></trkpt><trkpt lat="45.4430018" lon="11.6307178"><ele>19.5</ele><time>2026-04-29T08:10:27.233Z</time></trkpt><trkpt lat="45.4429456" lon="11.6306496"><ele>19.333333333333332</ele><time>2026-04-29T08:10:28.233Z</time></trkpt><trkpt lat="45.442894" lon="11.6305882"><ele>19.166666666666664</ele><time>2026-04-29T08:10:29.234Z</time></trkpt><trkpt lat="45.4428149" lon="11.6304979"><ele>19.0</ele><time>2026-04-29T08:10:31.234Z</time></trkpt><trkpt lat="45.4428144" lon="11.6304043"><ele>19.0</ele><time>2026-04-29T08:10:33.234Z</time></trkpt><trkpt lat="45.4428914" lon="11.6304467"><ele>19.0</ele><time>2026-04-29T08:10:36.233Z</time></trkpt><trkpt lat="45.4429297" lon="11.6305189"><ele>19.0</ele><time>2026-04-29T08:10:38.234Z</time></trkpt><trkpt lat="45.4429812" lon="11.6305957"><ele>19.0</ele><time>2026-04-29T08:10:40.233Z</time></trkpt><trkpt lat="45.4430496" lon="11.6306744"><ele>19.0</ele><time>2026-04-29T08:10:42.233Z</time></trkpt><trkpt lat="45.4431191" lon="11.630768"><ele>19.0</ele><time>2026-04-29T08:10:44.234Z</time></trkpt><trkpt lat="45.4431867" lon="11.6308665"><ele>19.0</ele><time>2026-04-29T08:10:46.233Z</time></trkpt><trkpt lat="45.4432598" lon="11.630968"><ele>19.0</ele><time>2026-04-29T08:10:48.233Z</time></trkpt><trkpt lat="45.4433346" lon="11.6310716"><ele>19.0</ele><time>2026-04-29T08:10:50.233Z</time></trkpt><trkpt lat="45.4434179" lon="11.6311747"><ele>19.0</ele><time>2026-04-29T08:10:52.233Z</time></trkpt><trkpt lat="45.4435121" lon="11.6312579"><ele>19.0</ele><time>2026-04-29T08:10:54.233Z</time></trkpt><trkpt lat="45.4436045" lon="11.6313511"><ele>19.0</ele><time>2026-04-29T08:10:56.233Z</time></trkpt><trkpt lat="45.4436841" lon="11.6314717"><ele>19.0</ele><time>2026-04-29T08:10:58.233Z</time></trkpt><trkpt lat="45.443775" lon="11.6315886"><ele>19.0</ele><time>2026-04-29T08:11:00.233Z</time></trkpt><trkpt lat="45.4438625" lon="11.6316973"><ele>19.0</ele><time>2026-04-29T08:11:02.233Z</time></trkpt><trkpt lat="45.443947" lon="11.6317996"><ele>19.0</ele><time>2026-04-29T08:11:04.233Z</time></trkpt><trkpt lat="45.4440284" lon="11.6319112"><ele>19.0</ele><time>2026-04-29T08:11:06.233Z</time></trkpt><trkpt lat="45.4441231" lon="11.6319965"><ele>19.0</ele><time>2026-04-29T08:11:08.234Z</time></trkpt><trkpt lat="45.4442274" lon="11.6320214"><ele>19.0</ele><time>2026-04-29T08:11:10.234Z</time></trkpt><trkpt lat="45.4443267" lon="11.631986"><ele>19.0</ele><time>2026-04-29T08:11:12.234Z</time></trkpt><trkpt lat="45.444428" lon="11.6319059"><ele>19.0</ele><time>2026-04-29T08:11:14.234Z</time></trkpt><trkpt lat="45.4445303" lon="11.6318429"><ele>19.0</ele><time>2026-04-29T08:11:16.233Z</time></trkpt><trkpt lat="45.4446397" lon="11.6317714"><ele>19.0</ele><time>2026-04-29T08:11:18.234Z</time></trkpt><trkpt lat="45.444749" lon="11.6316954"><ele>19.0</ele><time>2026-04-29T08:11:20.233Z</time></trkpt><trkpt lat="45.4448071" lon="11.631654"><ele>19.0</ele><time>2026-04-29T08:11:21.233Z</time></trkpt><trkpt lat="45.444862" lon="11.6316096"><ele>19.333333333333332</ele><time>2026-04-29T08:11:22.232Z</time></trkpt><trkpt lat="45.4449741" lon="11.631525"><ele>19.666666666666664</ele><time>2026-04-29T08:11:24.232Z</time></trkpt><trkpt lat="45.445034" lon="11.6314831"><ele>20.0</ele><time>2026-04-29T08:11:25.232Z</time></trkpt><trkpt lat="45.445093" lon="11.6314405"><ele>20.333333333333332</ele><time>2026-04-29T08:11:26.233Z</time></trkpt><trkpt lat="45.44515" lon="11.6314019"><ele>20.666666666666668</ele><time>2026-04-29T08:11:27.232Z</time></trkpt><trkpt lat="45.4452078" lon="11.631366"><ele>21.0</ele><time>2026-04-29T08:11:28.233Z</time></trkpt><trkpt lat="45.4452692" lon="11.6313207"><ele>21.0</ele><time>2026-04-29T08:11:29.232Z</time></trkpt><trkpt lat="45.4453269" lon="11.6312825"><ele>21.0</ele><time>2026-04-29T08:11:30.232Z</time></trkpt><trkpt lat="45.4454384" lon="11.6312062"><ele>21.0</ele><time>2026-04-29T08:11:32.233Z</time></trkpt><trkpt lat="45.4454933" lon="11.6311604"><ele>21.0</ele><time>2026-04-29T08:11:33.232Z</time></trkpt><trkpt lat="45.4455502" lon="11.6311168"><ele>21.0</ele><time>2026-04-29T08:11:34.233Z</time></trkpt><trkpt lat="45.445608" lon="11.6310727"><ele>21.0</ele><time>2026-04-29T08:11:35.232Z</time></trkpt><trkpt lat="45.4457209" lon="11.6309963"><ele>21.200000000000003</ele><time>2026-04-29T08:11:37.232Z</time></trkpt><trkpt lat="45.4458372" lon="11.6309282"><ele>21.400000000000002</ele><time>2026-04-29T08:11:39.233Z</time></trkpt><trkpt lat="45.4458976" lon="11.6308914"><ele>21.6</ele><time>2026-04-29T08:11:40.232Z</time></trkpt><trkpt lat="45.4459564" lon="11.6308522"><ele>21.8</ele><time>2026-04-29T08:11:41.233Z</time></trkpt><trkpt lat="45.4460204" lon="11.6308163"><ele>22.0</ele><time>2026-04-29T08:11:42.232Z</time></trkpt><trkpt lat="45.4461404" lon="11.6307558"><ele>22.0</ele><time>2026-04-29T08:11:44.232Z</time></trkpt><trkpt lat="45.4461988" lon="11.6307192"><ele>22.0</ele><time>2026-04-29T08:11:45.232Z</time></trkpt><trkpt lat="45.4462586" lon="11.630683"><ele>22.0</ele><time>2026-04-29T08:11:46.232Z</time></trkpt><trkpt lat="45.4463154" lon="11.6306433"><ele>22.0</ele><time>2026-04-29T08:11:47.232Z</time></trkpt><trkpt lat="45.4463751" lon="11.6306068"><ele>22.0</ele><time>2026-04-29T08:11:48.232Z</time></trkpt><trkpt lat="45.4464371" lon="11.6305704"><ele>22.0</ele><time>2026-04-29T08:11:49.232Z</time></trkpt><trkpt lat="45.4464967" lon="11.630539"><ele>22.0</ele><time>2026-04-29T08:11:50.232Z</time></trkpt><trkpt lat="45.4465554" lon="11.6305042"><ele>21.833333333333332</ele><time>2026-04-29T08:11:51.232Z</time></trkpt><trkpt lat="45.4466131" lon="11.630468"><ele>21.666666666666664</ele><time>2026-04-29T08:11:52.232Z</time></trkpt><trkpt lat="45.4466716" lon="11.6304332"><ele>21.5</ele><time>2026-04-29T08:11:53.233Z</time></trkpt><trkpt lat="45.4467337" lon="11.6303979"><ele>21.333333333333332</ele><time>2026-04-29T08:11:54.232Z</time></trkpt><trkpt lat="45.4467942" lon="11.6303599"><ele>21.166666666666668</ele><time>2026-04-29T08:11:55.232Z</time></trkpt><trkpt lat="45.4469067" lon="11.6302925"><ele>21.0</ele><time>2026-04-29T08:11:57.233Z</time></trkpt><trkpt lat="45.447011" lon="11.6302302"><ele>21.0</ele><time>2026-04-29T08:11:59.232Z</time></trkpt><trkpt lat="45.4471077" lon="11.6301588"><ele>21.0</ele><time>2026-04-29T08:12:01.232Z</time></trkpt><trkpt lat="45.4472124" lon="11.6300865"><ele>21.0</ele><time>2026-04-29T08:12:03.232Z</time></trkpt><trkpt lat="45.4473078" lon="11.630006"><ele>21.0</ele><time>2026-04-29T08:12:05.233Z</time></trkpt><trkpt lat="45.4474005" lon="11.6299077"><ele>21.25</ele><time>2026-04-29T08:12:07.232Z</time></trkpt><trkpt lat="45.4474957" lon="11.6297962"><ele>21.5</ele><time>2026-04-29T08:12:09.232Z</time></trkpt><trkpt lat="45.4475913" lon="11.6296893"><ele>21.75</ele><time>2026-04-29T08:12:11.232Z</time></trkpt><trkpt lat="45.4477035" lon="11.6296209"><ele>22.0</ele><time>2026-04-29T08:12:13.232Z</time></trkpt><trkpt lat="45.447816" lon="11.6295686"><ele>22.0</ele><time>2026-04-29T08:12:15.232Z</time></trkpt><trkpt lat="45.4479302" lon="11.6295496"><ele>22.0</ele><time>2026-04-29T08:12:17.232Z</time></trkpt><trkpt lat="45.4480561" lon="11.6295534"><ele>22.0</ele><time>2026-04-29T08:12:19.232Z</time></trkpt><trkpt lat="45.4481824" lon="11.6295483"><ele>22.0</ele><time>2026-04-29T08:12:21.232Z</time></trkpt><trkpt lat="45.4483052" lon="11.6295375"><ele>21.8</ele><time>2026-04-29T08:12:23.232Z</time></trkpt><trkpt lat="45.4484261" lon="11.6295086"><ele>21.6</ele><time>2026-04-29T08:12:25.232Z</time></trkpt><trkpt lat="45.4485469" lon="11.6294635"><ele>21.400000000000002</ele><time>2026-04-29T08:12:27.233Z</time></trkpt><trkpt lat="45.4486092" lon="11.6294437"><ele>21.200000000000003</ele><time>2026-04-29T08:12:28.232Z</time></trkpt><trkpt lat="45.4487205" lon="11.6293952"><ele>21.0</ele><time>2026-04-29T08:12:30.232Z</time></trkpt><trkpt lat="45.448817" lon="11.6293695"><ele>20.833333333333332</ele><time>2026-04-29T08:12:32.232Z</time></trkpt><trkpt lat="45.448796" lon="11.6292647"><ele>20.666666666666668</ele><time>2026-04-29T08:12:36.232Z</time></trkpt><trkpt lat="45.448721" lon="11.6291753"><ele>20.5</ele><time>2026-04-29T08:12:39.232Z</time></trkpt><trkpt lat="45.4486514" lon="11.6290913"><ele>20.333333333333336</ele><time>2026-04-29T08:12:41.232Z</time></trkpt><trkpt lat="45.4485865" lon="11.629011"><ele>20.166666666666668</ele><time>2026-04-29T08:12:43.232Z</time></trkpt><trkpt lat="45.4485175" lon="11.6289234"><ele>20.0</ele><time>2026-04-29T08:12:45.232Z</time></trkpt><trkpt lat="45.4484499" lon="11.6288356"><ele>20.0</ele><time>2026-04-29T08:12:47.232Z</time></trkpt><trkpt lat="45.4483702" lon="11.6287329"><ele>20.0</ele><time>2026-04-29T08:12:49.232Z</time></trkpt><trkpt lat="45.4482825" lon="11.6286232"><ele>20.0</ele><time>2026-04-29T08:12:51.232Z</time></trkpt><trkpt lat="45.448233" lon="11.6285677"><ele>20.0</ele><time>2026-04-29T08:12:52.233Z</time></trkpt><trkpt lat="45.4481389" lon="11.6284535"><ele>20.0</ele><time>2026-04-29T08:12:54.232Z</time></trkpt><trkpt lat="45.448089" lon="11.6283901"><ele>20.142857142857142</ele><time>2026-04-29T08:12:55.232Z</time></trkpt><trkpt lat="45.4480416" lon="11.6283255"><ele>20.285714285714285</ele><time>2026-04-29T08:12:56.233Z</time></trkpt><trkpt lat="45.4479934" lon="11.6282666"><ele>20.42857142857143</ele><time>2026-04-29T08:12:57.232Z</time></trkpt><trkpt lat="45.4479407" lon="11.6282063"><ele>20.57142857142857</ele><time>2026-04-29T08:12:58.232Z</time></trkpt><trkpt lat="45.4478921" lon="11.6281434"><ele>20.714285714285715</ele><time>2026-04-29T08:12:59.233Z</time></trkpt><trkpt lat="45.4478423" lon="11.6280799"><ele>20.857142857142858</ele><time>2026-04-29T08:13:00.232Z</time></trkpt><trkpt lat="45.4477906" lon="11.6280156"><ele>21.0</ele><time>2026-04-29T08:13:01.233Z</time></trkpt><trkpt lat="45.4477353" lon="11.6279463"><ele>21.142857142857142</ele><time>2026-04-29T08:13:02.233Z</time></trkpt><trkpt lat="45.4476798" lon="11.6278806"><ele>21.285714285714285</ele><time>2026-04-29T08:13:03.232Z</time></trkpt><trkpt lat="45.4476279" lon="11.627814"><ele>21.42857142857143</ele><time>2026-04-29T08:13:04.232Z</time></trkpt><trkpt lat="45.447575" lon="11.6277515"><ele>21.57142857142857</ele><time>2026-04-29T08:13:05.233Z</time></trkpt><trkpt lat="45.4475234" lon="11.6276903"><ele>21.714285714285715</ele><time>2026-04-29T08:13:06.233Z</time></trkpt><trkpt lat="45.4474698" lon="11.6276293"><ele>21.857142857142858</ele><time>2026-04-29T08:13:07.232Z</time></trkpt><trkpt lat="45.4474195" lon="11.6275674"><ele>22.0</ele><time>2026-04-29T08:13:08.233Z</time></trkpt><trkpt lat="45.4473663" lon="11.6275103"><ele>22.142857142857142</ele><time>2026-04-29T08:13:09.232Z</time></trkpt><trkpt lat="45.4473161" lon="11.6274477"><ele>22.285714285714285</ele><time>2026-04-29T08:13:10.232Z</time></trkpt><trkpt lat="45.4472668" lon="11.6273885"><ele>22.42857142857143</ele><time>2026-04-29T08:13:11.232Z</time></trkpt><trkpt lat="45.4472173" lon="11.6273286"><ele>22.57142857142857</ele><time>2026-04-29T08:13:12.232Z</time></trkpt><trkpt lat="45.4471705" lon="11.6272654"><ele>22.71428571428571</ele><time>2026-04-29T08:13:13.232Z</time></trkpt><trkpt lat="45.4471266" lon="11.6271914"><ele>22.857142857142858</ele><time>2026-04-29T08:13:14.232Z</time></trkpt><trkpt lat="45.4470876" lon="11.627114"><ele>23.0</ele><time>2026-04-29T08:13:15.233Z</time></trkpt><trkpt lat="45.4470553" lon="11.6270303"><ele>22.857142857142858</ele><time>2026-04-29T08:13:16.232Z</time></trkpt><trkpt lat="45.4470158" lon="11.6269551"><ele>22.71428571428571</ele><time>2026-04-29T08:13:17.232Z</time></trkpt><trkpt lat="45.446968" lon="11.6268894"><ele>22.57142857142857</ele><time>2026-04-29T08:13:18.233Z</time></trkpt><trkpt lat="45.4469151" lon="11.6268257"><ele>22.42857142857143</ele><time>2026-04-29T08:13:19.232Z</time></trkpt><trkpt lat="45.4468639" lon="11.6267709"><ele>22.285714285714285</ele><time>2026-04-29T08:13:20.233Z</time></trkpt><trkpt lat="45.4468092" lon="11.6267133"><ele>22.142857142857142</ele><time>2026-04-29T08:13:21.232Z</time></trkpt><trkpt lat="45.4467536" lon="11.6266483"><ele>22.0</ele><time>2026-04-29T08:13:22.233Z</time></trkpt><trkpt lat="45.4467018" lon="11.6265826"><ele>22.0</ele><time>2026-04-29T08:13:23.233Z</time></trkpt><trkpt lat="45.4466543" lon="11.6265208"><ele>22.0</ele><time>2026-04-29T08:13:24.232Z</time></trkpt><trkpt lat="45.4466068" lon="11.6264609"><ele>22.0</ele><time>2026-04-29T08:13:25.232Z</time></trkpt><trkpt lat="45.446508" lon="11.6263459"><ele>22.0</ele><time>2026-04-29T08:13:27.232Z</time></trkpt><trkpt lat="45.4464601" lon="11.6262873"><ele>22.0</ele><time>2026-04-29T08:13:28.232Z</time></trkpt><trkpt lat="45.4464111" lon="11.6262294"><ele>22.0</ele><time>2026-04-29T08:13:29.232Z</time></trkpt><trkpt lat="45.4463621" lon="11.62617"><ele>22.0</ele><time>2026-04-29T08:13:30.232Z</time></trkpt><trkpt lat="45.4463115" lon="11.6261078"><ele>22.142857142857142</ele><time>2026-04-29T08:13:31.232Z</time></trkpt><trkpt lat="45.4462593" lon="11.6260439"><ele>22.285714285714285</ele><time>2026-04-29T08:13:32.232Z</time></trkpt><trkpt lat="45.4462088" lon="11.6259839"><ele>22.42857142857143</ele><time>2026-04-29T08:13:33.233Z</time></trkpt><trkpt lat="45.4461546" lon="11.6259182"><ele>22.57142857142857</ele><time>2026-04-29T08:13:34.233Z</time></trkpt><trkpt lat="45.4461001" lon="11.625857"><ele>22.71428571428571</ele><time>2026-04-29T08:13:35.232Z</time></trkpt><trkpt lat="45.4460504" lon="11.6257929"><ele>22.857142857142858</ele><time>2026-04-29T08:13:36.232Z</time></trkpt><trkpt lat="45.4460016" lon="11.6257298"><ele>23.0</ele><time>2026-04-29T08:13:37.233Z</time></trkpt><trkpt lat="45.4459503" lon="11.6256623"><ele>23.0</ele><time>2026-04-29T08:13:38.232Z</time></trkpt><trkpt lat="45.4458981" lon="11.625598"><ele>23.0</ele><time>2026-04-29T08:13:39.232Z</time></trkpt><trkpt lat="45.4458452" lon="11.6255322"><ele>23.0</ele><time>2026-04-29T08:13:40.232Z</time></trkpt><trkpt lat="45.4457881" lon="11.6254679"><ele>23.0</ele><time>2026-04-29T08:13:41.232Z</time></trkpt><trkpt lat="45.4457324" lon="11.6253995"><ele>23.0</ele><time>2026-04-29T08:13:42.232Z</time></trkpt><trkpt lat="45.4456754" lon="11.6253344"><ele>23.0</ele><time>2026-04-29T08:13:43.233Z</time></trkpt><trkpt lat="45.44562" lon="11.6252668"><ele>23.0</ele><time>2026-04-29T08:13:44.232Z</time></trkpt><trkpt lat="45.4455628" lon="11.6251945"><ele>22.714285714285715</ele><time>2026-04-29T08:13:45.233Z</time></trkpt><trkpt lat="45.4455072" lon="11.6251224"><ele>22.428571428571427</ele><time>2026-04-29T08:13:46.232Z</time></trkpt><trkpt lat="45.4454533" lon="11.6250488"><ele>22.142857142857142</ele><time>2026-04-29T08:13:47.232Z</time></trkpt><trkpt lat="45.4453957" lon="11.6249766"><ele>21.857142857142858</ele><time>2026-04-29T08:13:48.232Z</time></trkpt><trkpt lat="45.4453383" lon="11.6249077"><ele>21.57142857142857</ele><time>2026-04-29T08:13:49.232Z</time></trkpt><trkpt lat="45.4452845" lon="11.6248401"><ele>21.285714285714285</ele><time>2026-04-29T08:13:50.232Z</time></trkpt><trkpt lat="45.4452285" lon="11.62477"><ele>21.0</ele><time>2026-04-29T08:13:51.232Z</time></trkpt><trkpt lat="45.4451737" lon="11.6247032"><ele>21.0</ele><time>2026-04-29T08:13:52.232Z</time></trkpt><trkpt lat="45.4451194" lon="11.6246333"><ele>21.0</ele><time>2026-04-29T08:13:53.232Z</time></trkpt><trkpt lat="45.4450636" lon="11.6245652"><ele>21.0</ele><time>2026-04-29T08:13:54.233Z</time></trkpt><trkpt lat="45.4450082" lon="11.624492"><ele>21.0</ele><time>2026-04-29T08:13:55.232Z</time></trkpt><trkpt lat="45.4449541" lon="11.6244238"><ele>21.0</ele><time>2026-04-29T08:13:56.232Z</time></trkpt><trkpt lat="45.4449019" lon="11.624354"><ele>21.0</ele><time>2026-04-29T08:13:57.232Z</time></trkpt><trkpt lat="45.4448463" lon="11.6242816"><ele>21.0</ele><time>2026-04-29T08:13:58.233Z</time></trkpt><trkpt lat="45.4447857" lon="11.6242113"><ele>21.0</ele><time>2026-04-29T08:13:59.232Z</time></trkpt><trkpt lat="45.4447237" lon="11.6241421"><ele>21.0</ele><time>2026-04-29T08:14:00.232Z</time></trkpt><trkpt lat="45.4446638" lon="11.6240703"><ele>21.0</ele><time>2026-04-29T08:14:01.233Z</time></trkpt><trkpt lat="45.4446085" lon="11.6240007"><ele>21.0</ele><time>2026-04-29T08:14:02.232Z</time></trkpt><trkpt lat="45.4445535" lon="11.6239299"><ele>21.0</ele><time>2026-04-29T08:14:03.232Z</time></trkpt><trkpt lat="45.4444997" lon="11.6238645"><ele>21.0</ele><time>2026-04-29T08:14:04.232Z</time></trkpt><trkpt lat="45.4444468" lon="11.6238026"><ele>21.0</ele><time>2026-04-29T08:14:05.233Z</time></trkpt><trkpt lat="45.4443933" lon="11.6237403"><ele>21.285714285714285</ele><time>2026-04-29T08:14:06.232Z</time></trkpt><trkpt lat="45.444338" lon="11.62367"><ele>21.57142857142857</ele><time>2026-04-29T08:14:07.233Z</time></trkpt><trkpt lat="45.4442831" lon="11.6236005"><ele>21.857142857142858</ele><time>2026-04-29T08:14:08.232Z</time></trkpt><trkpt lat="45.4442243" lon="11.6235331"><ele>22.142857142857142</ele><time>2026-04-29T08:14:09.232Z</time></trkpt><trkpt lat="45.4441668" lon="11.6234679"><ele>22.428571428571427</ele><time>2026-04-29T08:14:10.233Z</time></trkpt><trkpt lat="45.4441136" lon="11.623404"><ele>22.714285714285715</ele><time>2026-04-29T08:14:11.232Z</time></trkpt><trkpt lat="45.4440625" lon="11.6233383"><ele>23.0</ele><time>2026-04-29T08:14:12.232Z</time></trkpt><trkpt lat="45.4440106" lon="11.623274"><ele>23.0</ele><time>2026-04-29T08:14:13.232Z</time></trkpt><trkpt lat="45.4439574" lon="11.6232099"><ele>23.0</ele><time>2026-04-29T08:14:14.232Z</time></trkpt><trkpt lat="45.4439043" lon="11.6231383"><ele>23.0</ele><time>2026-04-29T08:14:15.232Z</time></trkpt><trkpt lat="45.4438528" lon="11.6230691"><ele>23.0</ele><time>2026-04-29T08:14:16.232Z</time></trkpt><trkpt lat="45.4437978" lon="11.6229953"><ele>23.0</ele><time>2026-04-29T08:14:17.232Z</time></trkpt><trkpt lat="45.4437439" lon="11.6229276"><ele>23.0</ele><time>2026-04-29T08:14:18.232Z</time></trkpt><trkpt lat="45.4436886" lon="11.6228579"><ele>23.0</ele><time>2026-04-29T08:14:19.233Z</time></trkpt><trkpt lat="45.4436316" lon="11.6227865"><ele>23.0</ele><time>2026-04-29T08:14:20.233Z</time></trkpt><trkpt lat="45.4435772" lon="11.622712"><ele>23.0</ele><time>2026-04-29T08:14:21.232Z</time></trkpt><trkpt lat="45.4435244" lon="11.6226414"><ele>23.0</ele><time>2026-04-29T08:14:22.233Z</time></trkpt><trkpt lat="45.4434691" lon="11.622581"><ele>23.0</ele><time>2026-04-29T08:14:23.232Z</time></trkpt><trkpt lat="45.4434129" lon="11.6225126"><ele>23.0</ele><time>2026-04-29T08:14:24.232Z</time></trkpt><trkpt lat="45.4433548" lon="11.6224468"><ele>23.0</ele><time>2026-04-29T08:14:25.232Z</time></trkpt><trkpt lat="45.4432951" lon="11.6223821"><ele>23.0</ele><time>2026-04-29T08:14:26.233Z</time></trkpt><trkpt lat="45.4432329" lon="11.6223176"><ele>23.0</ele><time>2026-04-29T08:14:27.233Z</time></trkpt><trkpt lat="45.4431758" lon="11.6222417"><ele>23.0</ele><time>2026-04-29T08:14:28.232Z</time></trkpt><trkpt lat="45.4431179" lon="11.6221671"><ele>23.0</ele><time>2026-04-29T08:14:29.232Z</time></trkpt><trkpt lat="45.4430578" lon="11.6220955"><ele>23.0</ele><time>2026-04-29T08:14:30.233Z</time></trkpt><trkpt lat="45.4429982" lon="11.6220308"><ele>23.0</ele><time>2026-04-29T08:14:31.233Z</time></trkpt><trkpt lat="45.4429336" lon="11.6219703"><ele>23.0</ele><time>2026-04-29T08:14:32.233Z</time></trkpt><trkpt lat="45.4428753" lon="11.6219049"><ele>22.833333333333336</ele><time>2026-04-29T08:14:33.232Z</time></trkpt><trkpt lat="45.4428179" lon="11.6218361"><ele>22.666666666666668</ele><time>2026-04-29T08:14:34.232Z</time></trkpt><trkpt lat="45.4427518" lon="11.62176"><ele>22.5</ele><time>2026-04-29T08:14:35.233Z</time></trkpt><trkpt lat="45.4426868" lon="11.6216871"><ele>22.333333333333332</ele><time>2026-04-29T08:14:36.233Z</time></trkpt><trkpt lat="45.4426208" lon="11.6216227"><ele>22.166666666666664</ele><time>2026-04-29T08:14:37.232Z</time></trkpt><trkpt lat="45.4425558" lon="11.6215511"><ele>22.0</ele><time>2026-04-29T08:14:38.233Z</time></trkpt><trkpt lat="45.4424842" lon="11.6214787"><ele>22.0</ele><time>2026-04-29T08:14:39.233Z</time></trkpt><trkpt lat="45.4424192" lon="11.6214113"><ele>22.0</ele><time>2026-04-29T08:14:40.233Z</time></trkpt><trkpt lat="45.4423561" lon="11.6213429"><ele>22.0</ele><time>2026-04-29T08:14:41.232Z</time></trkpt><trkpt lat="45.4422933" lon="11.6212697"><ele>22.0</ele><time>2026-04-29T08:14:42.232Z</time></trkpt><trkpt lat="45.4422305" lon="11.6211957"><ele>22.0</ele><time>2026-04-29T08:14:43.233Z</time></trkpt><trkpt lat="45.4421687" lon="11.6211252"><ele>22.0</ele><time>2026-04-29T08:14:44.232Z</time></trkpt><trkpt lat="45.4421037" lon="11.6210503"><ele>22.166666666666664</ele><time>2026-04-29T08:14:45.233Z</time></trkpt><trkpt lat="45.4420443" lon="11.6209776"><ele>22.333333333333332</ele><time>2026-04-29T08:14:46.232Z</time></trkpt><trkpt lat="45.4419802" lon="11.6209087"><ele>22.5</ele><time>2026-04-29T08:14:47.233Z</time></trkpt><trkpt lat="45.4419152" lon="11.620834"><ele>22.666666666666668</ele><time>2026-04-29T08:14:48.232Z</time></trkpt><trkpt lat="45.4418477" lon="11.6207652"><ele>22.833333333333336</ele><time>2026-04-29T08:14:49.232Z</time></trkpt><trkpt lat="45.4417824" lon="11.6206915"><ele>23.0</ele><time>2026-04-29T08:14:50.233Z</time></trkpt><trkpt lat="45.4417252" lon="11.6206123"><ele>23.0</ele><time>2026-04-29T08:14:51.233Z</time></trkpt><trkpt lat="45.4416625" lon="11.6205405"><ele>23.0</ele><time>2026-04-29T08:14:52.232Z</time></trkpt><trkpt lat="45.4416007" lon="11.620472"><ele>23.0</ele><time>2026-04-29T08:14:53.233Z</time></trkpt><trkpt lat="45.4415409" lon="11.6204007"><ele>23.0</ele><time>2026-04-29T08:14:54.232Z</time></trkpt><trkpt lat="45.4414821" lon="11.6203238"><ele>23.0</ele><time>2026-04-29T08:14:55.233Z</time></trkpt><trkpt lat="45.4414248" lon="11.6202495"><ele>23.0</ele><time>2026-04-29T08:14:56.232Z</time></trkpt><trkpt lat="45.4413662" lon="11.6201767"><ele>22.833333333333336</ele><time>2026-04-29T08:14:57.232Z</time></trkpt><trkpt lat="45.4413116" lon="11.6201087"><ele>22.666666666666668</ele><time>2026-04-29T08:14:58.233Z</time></trkpt><trkpt lat="45.4412529" lon="11.6200368"><ele>22.5</ele><time>2026-04-29T08:14:59.232Z</time></trkpt><trkpt lat="45.4411914" lon="11.6199701"><ele>22.333333333333332</ele><time>2026-04-29T08:15:00.232Z</time></trkpt><trkpt lat="45.4411306" lon="11.6199039"><ele>22.166666666666664</ele><time>2026-04-29T08:15:01.232Z</time></trkpt><trkpt lat="45.4410711" lon="11.6198306"><ele>22.0</ele><time>2026-04-29T08:15:02.233Z</time></trkpt><trkpt lat="45.4410127" lon="11.6197661"><ele>22.0</ele><time>2026-04-29T08:15:03.232Z</time></trkpt><trkpt lat="45.4409564" lon="11.6196905"><ele>22.0</ele><time>2026-04-29T08:15:04.232Z</time></trkpt><trkpt lat="45.4408974" lon="11.6196141"><ele>22.0</ele><time>2026-04-29T08:15:05.232Z</time></trkpt><trkpt lat="45.44084" lon="11.6195411"><ele>22.0</ele><time>2026-04-29T08:15:06.232Z</time></trkpt><trkpt lat="45.4407845" lon="11.6194708"><ele>22.0</ele><time>2026-04-29T08:15:07.232Z</time></trkpt><trkpt lat="45.4407318" lon="11.6194009"><ele>22.0</ele><time>2026-04-29T08:15:08.232Z</time></trkpt><trkpt lat="45.4406777" lon="11.6193347"><ele>22.0</ele><time>2026-04-29T08:15:09.232Z</time></trkpt><trkpt lat="45.4406227" lon="11.6192618"><ele>22.0</ele><time>2026-04-29T08:15:10.232Z</time></trkpt><trkpt lat="45.4405677" lon="11.6191899"><ele>22.0</ele><time>2026-04-29T08:15:11.232Z</time></trkpt><trkpt lat="45.4405109" lon="11.6191182"><ele>22.0</ele><time>2026-04-29T08:15:12.233Z</time></trkpt><trkpt lat="45.4404532" lon="11.6190449"><ele>22.0</ele><time>2026-04-29T08:15:13.232Z</time></trkpt><trkpt lat="45.4403925" lon="11.6189725"><ele>22.0</ele><time>2026-04-29T08:15:14.233Z</time></trkpt><trkpt lat="45.4403345" lon="11.6188996"><ele>22.0</ele><time>2026-04-29T08:15:15.232Z</time></trkpt><trkpt lat="45.4402755" lon="11.6188275"><ele>22.0</ele><time>2026-04-29T08:15:16.232Z</time></trkpt><trkpt lat="45.4402169" lon="11.6187529"><ele>22.0</ele><time>2026-04-29T08:15:17.233Z</time></trkpt><trkpt lat="45.4401576" lon="11.6186812"><ele>22.0</ele><time>2026-04-29T08:15:18.232Z</time></trkpt><trkpt lat="45.4400993" lon="11.6186087"><ele>22.0</ele><time>2026-04-29T08:15:19.232Z</time></trkpt><trkpt lat="45.4400414" lon="11.6185346"><ele>22.0</ele><time>2026-04-29T08:15:20.232Z</time></trkpt><trkpt lat="45.439983" lon="11.6184623"><ele>22.0</ele><time>2026-04-29T08:15:21.231Z</time></trkpt><trkpt lat="45.4399298" lon="11.6183956"><ele>22.0</ele><time>2026-04-29T08:15:22.231Z</time></trkpt><trkpt lat="45.4398761" lon="11.6183323"><ele>22.0</ele><time>2026-04-29T08:15:23.231Z</time></trkpt><trkpt lat="45.4398212" lon="11.6182662"><ele>22.0</ele><time>2026-04-29T08:15:24.232Z</time></trkpt><trkpt lat="45.4397675" lon="11.6182008"><ele>22.0</ele><time>2026-04-29T08:15:25.231Z</time></trkpt><trkpt lat="45.4397156" lon="11.6181294"><ele>22.0</ele><time>2026-04-29T08:15:26.231Z</time></trkpt><trkpt lat="45.4396587" lon="11.6180633"><ele>22.0</ele><time>2026-04-29T08:15:27.231Z</time></trkpt><trkpt lat="45.439603" lon="11.6180024"><ele>22.0</ele><time>2026-04-29T08:15:28.232Z</time></trkpt><trkpt lat="45.4395461" lon="11.6179379"><ele>22.0</ele><time>2026-04-29T08:15:29.231Z</time></trkpt><trkpt lat="45.4394917" lon="11.6178721"><ele>22.0</ele><time>2026-04-29T08:15:30.231Z</time></trkpt><trkpt lat="45.4394341" lon="11.6178096"><ele>22.0</ele><time>2026-04-29T08:15:31.232Z</time></trkpt><trkpt lat="45.4393808" lon="11.6177423"><ele>22.0</ele><time>2026-04-29T08:15:32.231Z</time></trkpt><trkpt lat="45.4393268" lon="11.6176744"><ele>22.0</ele><time>2026-04-29T08:15:33.231Z</time></trkpt><trkpt lat="45.439273" lon="11.6176118"><ele>22.0</ele><time>2026-04-29T08:15:34.232Z</time></trkpt><trkpt lat="45.4392173" lon="11.6175445"><ele>21.857142857142858</ele><time>2026-04-29T08:15:35.232Z</time></trkpt><trkpt lat="45.439165" lon="11.6174756"><ele>21.714285714285715</ele><time>2026-04-29T08:15:36.231Z</time></trkpt><trkpt lat="45.4391124" lon="11.6174087"><ele>21.57142857142857</ele><time>2026-04-29T08:15:37.231Z</time></trkpt><trkpt lat="45.439057" lon="11.6173457"><ele>21.42857142857143</ele><time>2026-04-29T08:15:38.232Z</time></trkpt><trkpt lat="45.4390034" lon="11.6172814"><ele>21.285714285714285</ele><time>2026-04-29T08:15:39.231Z</time></trkpt><trkpt lat="45.4389478" lon="11.6172187"><ele>21.142857142857142</ele><time>2026-04-29T08:15:40.231Z</time></trkpt><trkpt lat="45.4388997" lon="11.6171545"><ele>21.0</ele><time>2026-04-29T08:15:41.231Z</time></trkpt><trkpt lat="45.438853" lon="11.617094"><ele>21.200000000000003</ele><time>2026-04-29T08:15:42.231Z</time></trkpt><trkpt lat="45.4387829" lon="11.6169969"><ele>21.400000000000002</ele><time>2026-04-29T08:15:44.232Z</time></trkpt><trkpt lat="45.4387214" lon="11.616929"><ele>21.6</ele><time>2026-04-29T08:15:46.231Z</time></trkpt><trkpt lat="45.438651" lon="11.6168483"><ele>21.8</ele><time>2026-04-29T08:15:48.232Z</time></trkpt><trkpt lat="45.4385753" lon="11.616755"><ele>22.0</ele><time>2026-04-29T08:15:50.232Z</time></trkpt><trkpt lat="45.438483" lon="11.6166471"><ele>22.0</ele><time>2026-04-29T08:15:52.231Z</time></trkpt><trkpt lat="45.4383846" lon="11.6165359"><ele>22.0</ele><time>2026-04-29T08:15:54.231Z</time></trkpt><trkpt lat="45.4383377" lon="11.6164674"><ele>22.0</ele><time>2026-04-29T08:15:55.231Z</time></trkpt><trkpt lat="45.4382881" lon="11.6164089"><ele>22.0</ele><time>2026-04-29T08:15:56.231Z</time></trkpt><trkpt lat="45.4382347" lon="11.6163473"><ele>22.0</ele><time>2026-04-29T08:15:57.231Z</time></trkpt><trkpt lat="45.4381837" lon="11.6162836"><ele>22.0</ele><time>2026-04-29T08:15:58.231Z</time></trkpt><trkpt lat="45.4381278" lon="11.6162236"><ele>22.0</ele><time>2026-04-29T08:15:59.231Z</time></trkpt><trkpt lat="45.438069" lon="11.6161597"><ele>22.0</ele><time>2026-04-29T08:16:00.231Z</time></trkpt><trkpt lat="45.4380246" lon="11.6160866"><ele>22.0</ele><time>2026-04-29T08:16:01.231Z</time></trkpt><trkpt lat="45.4379883" lon="11.6160055"><ele>22.0</ele><time>2026-04-29T08:16:02.231Z</time></trkpt><trkpt lat="45.4379693" lon="11.6159115"><ele>22.0</ele><time>2026-04-29T08:16:03.231Z</time></trkpt><trkpt lat="45.4379492" lon="11.6158209"><ele>22.0</ele><time>2026-04-29T08:16:04.231Z</time></trkpt><trkpt lat="45.4379397" lon="11.6157311"><ele>22.0</ele><time>2026-04-29T08:16:05.232Z</time></trkpt><trkpt lat="45.4379475" lon="11.6155544"><ele>22.0</ele><time>2026-04-29T08:16:07.231Z</time></trkpt><trkpt lat="45.4379625" lon="11.6153781"><ele>22.0</ele><time>2026-04-29T08:16:09.231Z</time></trkpt><trkpt lat="45.4379332" lon="11.6152134"><ele>22.0</ele><time>2026-04-29T08:16:11.231Z</time></trkpt><trkpt lat="45.4378793" lon="11.6150611"><ele>22.0</ele><time>2026-04-29T08:16:13.231Z</time></trkpt><trkpt lat="45.4378338" lon="11.6149969"><ele>22.0</ele><time>2026-04-29T08:16:14.231Z</time></trkpt><trkpt lat="45.437774" lon="11.6149419"><ele>21.857142857142858</ele><time>2026-04-29T08:16:15.231Z</time></trkpt><trkpt lat="45.4377089" lon="11.614901"><ele>21.714285714285715</ele><time>2026-04-29T08:16:16.231Z</time></trkpt><trkpt lat="45.4376428" lon="11.6148721"><ele>21.57142857142857</ele><time>2026-04-29T08:16:17.232Z</time></trkpt><trkpt lat="45.4375751" lon="11.6148566"><ele>21.42857142857143</ele><time>2026-04-29T08:16:18.231Z</time></trkpt><trkpt lat="45.4375073" lon="11.6148423"><ele>21.285714285714285</ele><time>2026-04-29T08:16:19.232Z</time></trkpt><trkpt lat="45.4374429" lon="11.6148283"><ele>21.142857142857142</ele><time>2026-04-29T08:16:20.231Z</time></trkpt><trkpt lat="45.4373805" lon="11.614812"><ele>21.0</ele><time>2026-04-29T08:16:21.231Z</time></trkpt><trkpt lat="45.4372611" lon="11.614789"><ele>21.0</ele><time>2026-04-29T08:16:23.232Z</time></trkpt><trkpt lat="45.4371443" lon="11.6147823"><ele>21.0</ele><time>2026-04-29T08:16:25.231Z</time></trkpt><trkpt lat="45.4370349" lon="11.6147753"><ele>21.0</ele><time>2026-04-29T08:16:27.231Z</time></trkpt><trkpt lat="45.4369226" lon="11.6147482"><ele>21.0</ele><time>2026-04-29T08:16:29.231Z</time></trkpt><trkpt lat="45.4368236" lon="11.6146464"><ele>21.0</ele><time>2026-04-29T08:16:31.231Z</time></trkpt><trkpt lat="45.4367347" lon="11.6145199"><ele>21.0</ele><time>2026-04-29T08:16:33.231Z</time></trkpt><trkpt lat="45.4366856" lon="11.6144607"><ele>21.0</ele><time>2026-04-29T08:16:34.231Z</time></trkpt><trkpt lat="45.4366365" lon="11.6144007"><ele>21.0</ele><time>2026-04-29T08:16:35.231Z</time></trkpt><trkpt lat="45.436583" lon="11.6143398"><ele>21.0</ele><time>2026-04-29T08:16:36.232Z</time></trkpt><trkpt lat="45.4365321" lon="11.6142752"><ele>21.0</ele><time>2026-04-29T08:16:37.231Z</time></trkpt><trkpt lat="45.4364801" lon="11.6142103"><ele>20.833333333333332</ele><time>2026-04-29T08:16:38.232Z</time></trkpt><trkpt lat="45.4364301" lon="11.6141462"><ele>20.666666666666668</ele><time>2026-04-29T08:16:39.232Z</time></trkpt><trkpt lat="45.4363778" lon="11.6140844"><ele>20.5</ele><time>2026-04-29T08:16:40.231Z</time></trkpt><trkpt lat="45.4363281" lon="11.6140245"><ele>20.333333333333336</ele><time>2026-04-29T08:16:41.232Z</time></trkpt><trkpt lat="45.4362766" lon="11.6139691"><ele>20.166666666666668</ele><time>2026-04-29T08:16:42.231Z</time></trkpt><trkpt lat="45.4362268" lon="11.613909"><ele>20.0</ele><time>2026-04-29T08:16:43.232Z</time></trkpt><trkpt lat="45.4361348" lon="11.6137934"><ele>20.0</ele><time>2026-04-29T08:16:45.231Z</time></trkpt><trkpt lat="45.4360424" lon="11.6136796"><ele>20.0</ele><time>2026-04-29T08:16:47.231Z</time></trkpt><trkpt lat="45.4359547" lon="11.6135745"><ele>20.0</ele><time>2026-04-29T08:16:49.231Z</time></trkpt><trkpt lat="45.4358792" lon="11.6134862"><ele>20.0</ele><time>2026-04-29T08:16:51.231Z</time></trkpt><trkpt lat="45.4358251" lon="11.6134291"><ele>20.0</ele><time>2026-04-29T08:16:53.232Z</time></trkpt><trkpt lat="45.4357783" lon="11.6133682"><ele>20.0</ele><time>2026-04-29T08:16:55.232Z</time></trkpt><trkpt lat="45.4357266" lon="11.6132968"><ele>20.0</ele><time>2026-04-29T08:16:57.231Z</time></trkpt><trkpt lat="45.4356724" lon="11.6132308"><ele>20.0</ele><time>2026-04-29T08:16:59.232Z</time></trkpt><trkpt lat="45.4356202" lon="11.6131361"><ele>20.0</ele><time>2026-04-29T08:17:01.231Z</time></trkpt><trkpt lat="45.4355373" lon="11.6130367"><ele>20.0</ele><time>2026-04-29T08:17:03.231Z</time></trkpt><trkpt lat="45.4354553" lon="11.6129367"><ele>20.0</ele><time>2026-04-29T08:17:05.231Z</time></trkpt><trkpt lat="45.4353678" lon="11.6128145"><ele>20.142857142857142</ele><time>2026-04-29T08:17:07.231Z</time></trkpt><trkpt lat="45.4353208" lon="11.6127505"><ele>20.285714285714285</ele><time>2026-04-29T08:17:08.231Z</time></trkpt><trkpt lat="45.4352789" lon="11.6126808"><ele>20.42857142857143</ele><time>2026-04-29T08:17:09.232Z</time></trkpt><trkpt lat="45.435232" lon="11.6126128"><ele>20.57142857142857</ele><time>2026-04-29T08:17:10.231Z</time></trkpt><trkpt lat="45.4351812" lon="11.6125478"><ele>20.714285714285715</ele><time>2026-04-29T08:17:11.231Z</time></trkpt><trkpt lat="45.4351302" lon="11.6124812"><ele>20.857142857142858</ele><time>2026-04-29T08:17:12.231Z</time></trkpt><trkpt lat="45.4350787" lon="11.612413"><ele>21.0</ele><time>2026-04-29T08:17:13.231Z</time></trkpt><trkpt lat="45.4350258" lon="11.6123451"><ele>21.0</ele><time>2026-04-29T08:17:14.231Z</time></trkpt><trkpt lat="45.4349702" lon="11.6122773"><ele>21.0</ele><time>2026-04-29T08:17:15.231Z</time></trkpt><trkpt lat="45.4349121" lon="11.6122108"><ele>21.0</ele><time>2026-04-29T08:17:16.231Z</time></trkpt><trkpt lat="45.4348554" lon="11.6121436"><ele>21.0</ele><time>2026-04-29T08:17:17.231Z</time></trkpt><trkpt lat="45.4347986" lon="11.6120794"><ele>21.0</ele><time>2026-04-29T08:17:18.232Z</time></trkpt><trkpt lat="45.4347395" lon="11.6120121"><ele>21.0</ele><time>2026-04-29T08:17:19.231Z</time></trkpt><trkpt lat="45.4346824" lon="11.6119458"><ele>21.0</ele><time>2026-04-29T08:17:20.231Z</time></trkpt><trkpt lat="45.4346265" lon="11.6118791"><ele>20.5</ele><time>2026-04-29T08:17:21.231Z</time></trkpt><trkpt lat="45.4345685" lon="11.6118123"><ele>20.0</ele><time>2026-04-29T08:17:22.231Z</time></trkpt><trkpt lat="45.4345109" lon="11.6117418"><ele>19.5</ele><time>2026-04-29T08:17:23.232Z</time></trkpt><trkpt lat="45.4344533" lon="11.6116717"><ele>19.0</ele><time>2026-04-29T08:17:24.231Z</time></trkpt><trkpt lat="45.4343953" lon="11.6116024"><ele>18.5</ele><time>2026-04-29T08:17:25.231Z</time></trkpt><trkpt lat="45.4343338" lon="11.6115346"><ele>18.0</ele><time>2026-04-29T08:17:26.231Z</time></trkpt><trkpt lat="45.4342737" lon="11.6114642"><ele>18.0</ele><time>2026-04-29T08:17:27.231Z</time></trkpt><trkpt lat="45.4342142" lon="11.6113951"><ele>18.0</ele><time>2026-04-29T08:17:28.231Z</time></trkpt><trkpt lat="45.4341543" lon="11.6113223"><ele>18.0</ele><time>2026-04-29T08:17:29.231Z</time></trkpt><trkpt lat="45.4340955" lon="11.6112481"><ele>18.0</ele><time>2026-04-29T08:17:30.232Z</time></trkpt><trkpt lat="45.4340376" lon="11.6111747"><ele>18.0</ele><time>2026-04-29T08:17:31.231Z</time></trkpt><trkpt lat="45.43398" lon="11.6111029"><ele>18.0</ele><time>2026-04-29T08:17:32.231Z</time></trkpt><trkpt lat="45.4339204" lon="11.6110326"><ele>18.0</ele><time>2026-04-29T08:17:33.231Z</time></trkpt><trkpt lat="45.4338599" lon="11.6109646"><ele>18.0</ele><time>2026-04-29T08:17:34.231Z</time></trkpt><trkpt lat="45.4338002" lon="11.6108975"><ele>18.0</ele><time>2026-04-29T08:17:35.232Z</time></trkpt><trkpt lat="45.4337435" lon="11.6108237"><ele>18.0</ele><time>2026-04-29T08:17:36.231Z</time></trkpt><trkpt lat="45.4336853" lon="11.6107559"><ele>18.0</ele><time>2026-04-29T08:17:37.231Z</time></trkpt><trkpt lat="45.4336256" lon="11.6106844"><ele>18.0</ele><time>2026-04-29T08:17:38.232Z</time></trkpt><trkpt lat="45.4335687" lon="11.6106134"><ele>18.166666666666668</ele><time>2026-04-29T08:17:39.231Z</time></trkpt><trkpt lat="45.4335119" lon="11.6105358"><ele>18.333333333333332</ele><time>2026-04-29T08:17:40.231Z</time></trkpt><trkpt lat="45.4334525" lon="11.6104693"><ele>18.5</ele><time>2026-04-29T08:17:41.232Z</time></trkpt><trkpt lat="45.4333941" lon="11.6103994"><ele>18.666666666666664</ele><time>2026-04-29T08:17:42.231Z</time></trkpt><trkpt lat="45.4333369" lon="11.6103276"><ele>18.833333333333332</ele><time>2026-04-29T08:17:43.231Z</time></trkpt><trkpt lat="45.4332789" lon="11.6102586"><ele>19.0</ele><time>2026-04-29T08:17:44.232Z</time></trkpt><trkpt lat="45.4332198" lon="11.6101889"><ele>19.0</ele><time>2026-04-29T08:17:45.231Z</time></trkpt><trkpt lat="45.4331631" lon="11.610124"><ele>19.0</ele><time>2026-04-29T08:17:46.231Z</time></trkpt><trkpt lat="45.4331085" lon="11.6100576"><ele>19.0</ele><time>2026-04-29T08:17:47.231Z</time></trkpt><trkpt lat="45.433053" lon="11.6099913"><ele>19.0</ele><time>2026-04-29T08:17:48.231Z</time></trkpt><trkpt lat="45.4329975" lon="11.6099283"><ele>19.0</ele><time>2026-04-29T08:17:49.231Z</time></trkpt><trkpt lat="45.4329429" lon="11.6098661"><ele>19.0</ele><time>2026-04-29T08:17:50.232Z</time></trkpt><trkpt lat="45.4328919" lon="11.6098047"><ele>19.0</ele><time>2026-04-29T08:17:51.232Z</time></trkpt><trkpt lat="45.432842" lon="11.6097432"><ele>19.0</ele><time>2026-04-29T08:17:52.232Z</time></trkpt><trkpt lat="45.4327925" lon="11.6096867"><ele>19.0</ele><time>2026-04-29T08:17:53.231Z</time></trkpt><trkpt lat="45.4327125" lon="11.6095737"><ele>19.0</ele><time>2026-04-29T08:17:55.232Z</time></trkpt><trkpt lat="45.4326349" lon="11.6094841"><ele>19.0</ele><time>2026-04-29T08:17:57.231Z</time></trkpt><trkpt lat="45.4325558" lon="11.6093955"><ele>19.0</ele><time>2026-04-29T08:17:59.232Z</time></trkpt><trkpt lat="45.4324646" lon="11.6092853"><ele>19.142857142857142</ele><time>2026-04-29T08:18:01.231Z</time></trkpt><trkpt lat="45.4324107" lon="11.6092259"><ele>19.28571428571429</ele><time>2026-04-29T08:18:02.232Z</time></trkpt><trkpt lat="45.4323609" lon="11.609165"><ele>19.42857142857143</ele><time>2026-04-29T08:18:03.231Z</time></trkpt><trkpt lat="45.4323104" lon="11.6090989"><ele>19.57142857142857</ele><time>2026-04-29T08:18:04.231Z</time></trkpt><trkpt lat="45.4322554" lon="11.6090325"><ele>19.714285714285715</ele><time>2026-04-29T08:18:05.231Z</time></trkpt><trkpt lat="45.432199" lon="11.6089695"><ele>19.857142857142858</ele><time>2026-04-29T08:18:06.231Z</time></trkpt><trkpt lat="45.4321392" lon="11.6089018"><ele>20.0</ele><time>2026-04-29T08:18:07.231Z</time></trkpt><trkpt lat="45.4320788" lon="11.6088318"><ele>20.0</ele><time>2026-04-29T08:18:08.231Z</time></trkpt><trkpt lat="45.4320197" lon="11.6087513"><ele>20.0</ele><time>2026-04-29T08:18:09.231Z</time></trkpt><trkpt lat="45.4319592" lon="11.6086784"><ele>20.0</ele><time>2026-04-29T08:18:10.231Z</time></trkpt><trkpt lat="45.4318991" lon="11.6086055"><ele>20.0</ele><time>2026-04-29T08:18:11.231Z</time></trkpt><trkpt lat="45.4318397" lon="11.6085279"><ele>20.0</ele><time>2026-04-29T08:18:12.231Z</time></trkpt><trkpt lat="45.4317794" lon="11.6084535"><ele>20.0</ele><time>2026-04-29T08:18:13.231Z</time></trkpt><trkpt lat="45.4317162" lon="11.6083796"><ele>19.833333333333336</ele><time>2026-04-29T08:18:14.231Z</time></trkpt><trkpt lat="45.4316554" lon="11.6083077"><ele>19.666666666666668</ele><time>2026-04-29T08:18:15.231Z</time></trkpt><trkpt lat="45.4315963" lon="11.6082421"><ele>19.5</ele><time>2026-04-29T08:18:16.231Z</time></trkpt><trkpt lat="45.4315382" lon="11.6081728"><ele>19.333333333333332</ele><time>2026-04-29T08:18:17.231Z</time></trkpt><trkpt lat="45.43148" lon="11.6080963"><ele>19.166666666666664</ele><time>2026-04-29T08:18:18.232Z</time></trkpt><trkpt lat="45.4314157" lon="11.6080141"><ele>19.0</ele><time>2026-04-29T08:18:19.231Z</time></trkpt><trkpt lat="45.4313534" lon="11.6079359"><ele>19.0</ele><time>2026-04-29T08:18:20.232Z</time></trkpt><trkpt lat="45.4312907" lon="11.6078576"><ele>19.0</ele><time>2026-04-29T08:18:21.231Z</time></trkpt><trkpt lat="45.4312258" lon="11.6077803"><ele>19.0</ele><time>2026-04-29T08:18:22.231Z</time></trkpt><trkpt lat="45.4311622" lon="11.6076998"><ele>19.0</ele><time>2026-04-29T08:18:23.232Z</time></trkpt><trkpt lat="45.4310998" lon="11.6076235"><ele>19.0</ele><time>2026-04-29T08:18:24.231Z</time></trkpt><trkpt lat="45.4310358" lon="11.6075438"><ele>19.0</ele><time>2026-04-29T08:18:25.231Z</time></trkpt><trkpt lat="45.4309737" lon="11.6074618"><ele>19.166666666666664</ele><time>2026-04-29T08:18:26.231Z</time></trkpt><trkpt lat="45.4309091" lon="11.6073803"><ele>19.333333333333332</ele><time>2026-04-29T08:18:27.232Z</time></trkpt><trkpt lat="45.4308421" lon="11.6073053"><ele>19.5</ele><time>2026-04-29T08:18:28.231Z</time></trkpt><trkpt lat="45.4307815" lon="11.6072282"><ele>19.666666666666668</ele><time>2026-04-29T08:18:29.231Z</time></trkpt><trkpt lat="45.4307221" lon="11.6071552"><ele>19.833333333333336</ele><time>2026-04-29T08:18:30.232Z</time></trkpt><trkpt lat="45.4306611" lon="11.6070806"><ele>20.0</ele><time>2026-04-29T08:18:31.232Z</time></trkpt><trkpt lat="45.4305968" lon="11.6070079"><ele>20.0</ele><time>2026-04-29T08:18:32.232Z</time></trkpt><trkpt lat="45.4305335" lon="11.60694"><ele>20.0</ele><time>2026-04-29T08:18:33.231Z</time></trkpt><trkpt lat="45.4304759" lon="11.6068636"><ele>20.0</ele><time>2026-04-29T08:18:34.231Z</time></trkpt><trkpt lat="45.4304136" lon="11.6067807"><ele>20.0</ele><time>2026-04-29T08:18:35.232Z</time></trkpt><trkpt lat="45.4303546" lon="11.6067045"><ele>20.0</ele><time>2026-04-29T08:18:36.232Z</time></trkpt><trkpt lat="45.4302918" lon="11.6066302"><ele>20.0</ele><time>2026-04-29T08:18:37.232Z</time></trkpt><trkpt lat="45.4302314" lon="11.6065518"><ele>19.833333333333336</ele><time>2026-04-29T08:18:38.232Z</time></trkpt><trkpt lat="45.4301714" lon="11.6064737"><ele>19.666666666666668</ele><time>2026-04-29T08:18:39.231Z</time></trkpt><trkpt lat="45.4301149" lon="11.6063949"><ele>19.5</ele><time>2026-04-29T08:18:40.232Z</time></trkpt><trkpt lat="45.4300529" lon="11.6063151"><ele>19.333333333333332</ele><time>2026-04-29T08:18:41.231Z</time></trkpt><trkpt lat="45.4299931" lon="11.6062388"><ele>19.166666666666664</ele><time>2026-04-29T08:18:42.231Z</time></trkpt><trkpt lat="45.4299294" lon="11.6061653"><ele>19.0</ele><time>2026-04-29T08:18:43.231Z</time></trkpt><trkpt lat="45.4298659" lon="11.6060913"><ele>18.833333333333332</ele><time>2026-04-29T08:18:44.231Z</time></trkpt><trkpt lat="45.4298031" lon="11.606016"><ele>18.666666666666664</ele><time>2026-04-29T08:18:45.231Z</time></trkpt><trkpt lat="45.4297367" lon="11.6059387"><ele>18.5</ele><time>2026-04-29T08:18:46.231Z</time></trkpt><trkpt lat="45.4296765" lon="11.6058589"><ele>18.333333333333332</ele><time>2026-04-29T08:18:47.232Z</time></trkpt><trkpt lat="45.4296144" lon="11.6057849"><ele>18.166666666666668</ele><time>2026-04-29T08:18:48.231Z</time></trkpt><trkpt lat="45.4295565" lon="11.6057105"><ele>18.0</ele><time>2026-04-29T08:18:49.231Z</time></trkpt><trkpt lat="45.4294959" lon="11.6056398"><ele>18.0</ele><time>2026-04-29T08:18:50.231Z</time></trkpt><trkpt lat="45.4294347" lon="11.6055706"><ele>18.0</ele><time>2026-04-29T08:18:51.232Z</time></trkpt><trkpt lat="45.4293758" lon="11.6055018"><ele>18.0</ele><time>2026-04-29T08:18:52.231Z</time></trkpt><trkpt lat="45.4293162" lon="11.6054298"><ele>18.0</ele><time>2026-04-29T08:18:53.231Z</time></trkpt><trkpt lat="45.4292561" lon="11.605358"><ele>18.0</ele><time>2026-04-29T08:18:54.231Z</time></trkpt><trkpt lat="45.4291945" lon="11.60528"><ele>18.0</ele><time>2026-04-29T08:18:55.232Z</time></trkpt><trkpt lat="45.4291319" lon="11.605204"><ele>18.0</ele><time>2026-04-29T08:18:56.231Z</time></trkpt><trkpt lat="45.4290679" lon="11.6051293"><ele>18.0</ele><time>2026-04-29T08:18:57.231Z</time></trkpt><trkpt lat="45.4290042" lon="11.6050557"><ele>18.0</ele><time>2026-04-29T08:18:58.232Z</time></trkpt><trkpt lat="45.4289405" lon="11.6049784"><ele>18.0</ele><time>2026-04-29T08:18:59.231Z</time></trkpt><trkpt lat="45.4288748" lon="11.6049"><ele>18.0</ele><time>2026-04-29T08:19:00.231Z</time></trkpt><trkpt lat="45.4288099" lon="11.6048222"><ele>18.0</ele><time>2026-04-29T08:19:01.231Z</time></trkpt><trkpt lat="45.4287491" lon="11.6047474"><ele>18.0</ele><time>2026-04-29T08:19:02.231Z</time></trkpt><trkpt lat="45.4286887" lon="11.6046729"><ele>18.0</ele><time>2026-04-29T08:19:03.232Z</time></trkpt><trkpt lat="45.4286259" lon="11.6045986"><ele>18.0</ele><time>2026-04-29T08:19:04.231Z</time></trkpt><trkpt lat="45.4285642" lon="11.6045244"><ele>18.0</ele><time>2026-04-29T08:19:05.231Z</time></trkpt><trkpt lat="45.4285053" lon="11.6044517"><ele>18.0</ele><time>2026-04-29T08:19:06.232Z</time></trkpt><trkpt lat="45.4284461" lon="11.6043848"><ele>18.0</ele><time>2026-04-29T08:19:07.231Z</time></trkpt><trkpt lat="45.4283851" lon="11.604316"><ele>17.833333333333332</ele><time>2026-04-29T08:19:08.232Z</time></trkpt><trkpt lat="45.4283251" lon="11.6042475"><ele>17.666666666666668</ele><time>2026-04-29T08:19:09.232Z</time></trkpt><trkpt lat="45.4282639" lon="11.6041757"><ele>17.5</ele><time>2026-04-29T08:19:10.231Z</time></trkpt><trkpt lat="45.4282037" lon="11.6040981"><ele>17.333333333333336</ele><time>2026-04-29T08:19:11.231Z</time></trkpt><trkpt lat="45.4281484" lon="11.6040256"><ele>17.166666666666668</ele><time>2026-04-29T08:19:12.231Z</time></trkpt><trkpt lat="45.4280891" lon="11.603948"><ele>17.0</ele><time>2026-04-29T08:19:13.231Z</time></trkpt><trkpt lat="45.4280273" lon="11.6038687"><ele>17.333333333333336</ele><time>2026-04-29T08:19:14.231Z</time></trkpt><trkpt lat="45.4279631" lon="11.6037918"><ele>17.666666666666668</ele><time>2026-04-29T08:19:15.231Z</time></trkpt><trkpt lat="45.4279014" lon="11.6037135"><ele>18.0</ele><time>2026-04-29T08:19:16.231Z</time></trkpt><trkpt lat="45.4278427" lon="11.6036367"><ele>18.333333333333332</ele><time>2026-04-29T08:19:17.231Z</time></trkpt><trkpt lat="45.4277829" lon="11.6035609"><ele>18.666666666666664</ele><time>2026-04-29T08:19:18.231Z</time></trkpt><trkpt lat="45.4277211" lon="11.6034881"><ele>19.0</ele><time>2026-04-29T08:19:19.232Z</time></trkpt><trkpt lat="45.4276605" lon="11.6034161"><ele>19.0</ele><time>2026-04-29T08:19:20.231Z</time></trkpt><trkpt lat="45.427599" lon="11.6033419"><ele>19.0</ele><time>2026-04-29T08:19:21.23Z</time></trkpt><trkpt lat="45.4275371" lon="11.6032598"><ele>19.0</ele><time>2026-04-29T08:19:22.23Z</time></trkpt><trkpt lat="45.4274716" lon="11.6031765"><ele>19.0</ele><time>2026-04-29T08:19:23.23Z</time></trkpt><trkpt lat="45.427407" lon="11.6030938"><ele>19.0</ele><time>2026-04-29T08:19:24.23Z</time></trkpt><trkpt lat="45.4273417" lon="11.6030161"><ele>19.0</ele><time>2026-04-29T08:19:25.231Z</time></trkpt><trkpt lat="45.4272756" lon="11.6029389"><ele>19.0</ele><time>2026-04-29T08:19:26.23Z</time></trkpt><trkpt lat="45.4272088" lon="11.6028597"><ele>19.0</ele><time>2026-04-29T08:19:27.23Z</time></trkpt><trkpt lat="45.4271432" lon="11.6027806"><ele>19.0</ele><time>2026-04-29T08:19:28.23Z</time></trkpt><trkpt lat="45.4270785" lon="11.6027025"><ele>19.0</ele><time>2026-04-29T08:19:29.23Z</time></trkpt><trkpt lat="45.427016" lon="11.6026199"><ele>19.0</ele><time>2026-04-29T08:19:30.23Z</time></trkpt><trkpt lat="45.426957" lon="11.6025444"><ele>19.0</ele><time>2026-04-29T08:19:31.23Z</time></trkpt><trkpt lat="45.4268959" lon="11.6024735"><ele>19.166666666666664</ele><time>2026-04-29T08:19:32.231Z</time></trkpt><trkpt lat="45.426834" lon="11.6024034"><ele>19.333333333333332</ele><time>2026-04-29T08:19:33.23Z</time></trkpt><trkpt lat="45.426773" lon="11.6023314"><ele>19.5</ele><time>2026-04-29T08:19:34.231Z</time></trkpt><trkpt lat="45.426714" lon="11.6022559"><ele>19.666666666666668</ele><time>2026-04-29T08:19:35.231Z</time></trkpt><trkpt lat="45.4266537" lon="11.6021813"><ele>19.833333333333336</ele><time>2026-04-29T08:19:36.23Z</time></trkpt><trkpt lat="45.4265918" lon="11.6021124"><ele>20.0</ele><time>2026-04-29T08:19:37.231Z</time></trkpt><trkpt lat="45.4265323" lon="11.6020453"><ele>20.0</ele><time>2026-04-29T08:19:38.23Z</time></trkpt><trkpt lat="45.4264758" lon="11.6019721"><ele>20.0</ele><time>2026-04-29T08:19:39.23Z</time></trkpt><trkpt lat="45.4264184" lon="11.6018999"><ele>20.0</ele><time>2026-04-29T08:19:40.231Z</time></trkpt><trkpt lat="45.4263647" lon="11.6018347"><ele>20.0</ele><time>2026-04-29T08:19:41.23Z</time></trkpt><trkpt lat="45.4263117" lon="11.6017731"><ele>20.0</ele><time>2026-04-29T08:19:42.231Z</time></trkpt><trkpt lat="45.4262334" lon="11.6016794"><ele>20.0</ele><time>2026-04-29T08:19:44.23Z</time></trkpt><trkpt lat="45.426193" lon="11.6015975"><ele>20.0</ele><time>2026-04-29T08:19:46.23Z</time></trkpt><trkpt lat="45.4261209" lon="11.6015231"><ele>20.0</ele><time>2026-04-29T08:19:48.231Z</time></trkpt><trkpt lat="45.426044" lon="11.6014115"><ele>20.0</ele><time>2026-04-29T08:19:50.231Z</time></trkpt><trkpt lat="45.4259472" lon="11.6013075"><ele>20.0</ele><time>2026-04-29T08:19:52.23Z</time></trkpt><trkpt lat="45.4258976" lon="11.6012494"><ele>20.0</ele><time>2026-04-29T08:19:53.23Z</time></trkpt><trkpt lat="45.4258492" lon="11.6011854"><ele>20.0</ele><time>2026-04-29T08:19:54.23Z</time></trkpt><trkpt lat="45.425797" lon="11.601121"><ele>20.0</ele><time>2026-04-29T08:19:55.23Z</time></trkpt><trkpt lat="45.4257414" lon="11.6010598"><ele>20.0</ele><time>2026-04-29T08:19:56.231Z</time></trkpt><trkpt lat="45.4256874" lon="11.6009935"><ele>20.0</ele><time>2026-04-29T08:19:57.23Z</time></trkpt><trkpt lat="45.4256303" lon="11.6009213"><ele>20.0</ele><time>2026-04-29T08:19:58.23Z</time></trkpt><trkpt lat="45.4255715" lon="11.600853"><ele>20.0</ele><time>2026-04-29T08:19:59.23Z</time></trkpt><trkpt lat="45.4255096" lon="11.600779"><ele>20.0</ele><time>2026-04-29T08:20:00.23Z</time></trkpt><trkpt lat="45.4254535" lon="11.6007039"><ele>20.0</ele><time>2026-04-29T08:20:01.231Z</time></trkpt><trkpt lat="45.4253916" lon="11.6006322"><ele>20.0</ele><time>2026-04-29T08:20:02.23Z</time></trkpt><trkpt lat="45.4253383" lon="11.6005654"><ele>20.0</ele><time>2026-04-29T08:20:03.231Z</time></trkpt><trkpt lat="45.4252812" lon="11.6004885"><ele>20.0</ele><time>2026-04-29T08:20:04.231Z</time></trkpt><trkpt lat="45.4252243" lon="11.6004167"><ele>20.0</ele><time>2026-04-29T08:20:05.23Z</time></trkpt><trkpt lat="45.4251632" lon="11.6003425"><ele>20.0</ele><time>2026-04-29T08:20:06.231Z</time></trkpt><trkpt lat="45.4250997" lon="11.6002717"><ele>20.333333333333336</ele><time>2026-04-29T08:20:07.23Z</time></trkpt><trkpt lat="45.4250371" lon="11.6001954"><ele>20.666666666666668</ele><time>2026-04-29T08:20:08.23Z</time></trkpt><trkpt lat="45.4249806" lon="11.6001201"><ele>21.0</ele><time>2026-04-29T08:20:09.231Z</time></trkpt><trkpt lat="45.4249193" lon="11.6000431"><ele>21.333333333333332</ele><time>2026-04-29T08:20:10.23Z</time></trkpt><trkpt lat="45.424855" lon="11.5999669"><ele>21.666666666666664</ele><time>2026-04-29T08:20:11.231Z</time></trkpt><trkpt lat="45.4247915" lon="11.5998909"><ele>22.0</ele><time>2026-04-29T08:20:12.23Z</time></trkpt><trkpt lat="45.4247308" lon="11.5998122"><ele>22.0</ele><time>2026-04-29T08:20:13.23Z</time></trkpt><trkpt lat="45.424669" lon="11.5997418"><ele>22.0</ele><time>2026-04-29T08:20:14.23Z</time></trkpt><trkpt lat="45.4246061" lon="11.5996709"><ele>22.0</ele><time>2026-04-29T08:20:15.23Z</time></trkpt><trkpt lat="45.4245451" lon="11.5995994"><ele>22.0</ele><time>2026-04-29T08:20:16.231Z</time></trkpt><trkpt lat="45.4244842" lon="11.5995247"><ele>22.0</ele><time>2026-04-29T08:20:17.23Z</time></trkpt><trkpt lat="45.424425" lon="11.5994466"><ele>22.0</ele><time>2026-04-29T08:20:18.231Z</time></trkpt><trkpt lat="45.4243618" lon="11.5993672"><ele>21.666666666666664</ele><time>2026-04-29T08:20:19.23Z</time></trkpt><trkpt lat="45.4243007" lon="11.5992966"><ele>21.333333333333332</ele><time>2026-04-29T08:20:20.231Z</time></trkpt><trkpt lat="45.4242455" lon="11.599229"><ele>21.0</ele><time>2026-04-29T08:20:21.231Z</time></trkpt><trkpt lat="45.4241881" lon="11.5991592"><ele>20.666666666666668</ele><time>2026-04-29T08:20:22.23Z</time></trkpt><trkpt lat="45.4241322" lon="11.5990872"><ele>20.333333333333336</ele><time>2026-04-29T08:20:23.23Z</time></trkpt><trkpt lat="45.4240744" lon="11.5990171"><ele>20.0</ele><time>2026-04-29T08:20:24.231Z</time></trkpt><trkpt lat="45.424015" lon="11.5989473"><ele>20.0</ele><time>2026-04-29T08:20:25.231Z</time></trkpt><trkpt lat="45.4239538" lon="11.5988803"><ele>20.0</ele><time>2026-04-29T08:20:26.23Z</time></trkpt><trkpt lat="45.4238946" lon="11.5988093"><ele>20.0</ele><time>2026-04-29T08:20:27.231Z</time></trkpt><trkpt lat="45.4238376" lon="11.5987404"><ele>20.0</ele><time>2026-04-29T08:20:28.23Z</time></trkpt><trkpt lat="45.4237797" lon="11.5986734"><ele>20.0</ele><time>2026-04-29T08:20:29.23Z</time></trkpt><trkpt lat="45.4237273" lon="11.5986068"><ele>20.0</ele><time>2026-04-29T08:20:30.23Z</time></trkpt><trkpt lat="45.4236729" lon="11.5985405"><ele>20.0</ele><time>2026-04-29T08:20:31.231Z</time></trkpt><trkpt lat="45.4236188" lon="11.5984756"><ele>20.142857142857142</ele><time>2026-04-29T08:20:32.23Z</time></trkpt><trkpt lat="45.4235661" lon="11.5984085"><ele>20.285714285714285</ele><time>2026-04-29T08:20:33.23Z</time></trkpt><trkpt lat="45.4235138" lon="11.5983428"><ele>20.42857142857143</ele><time>2026-04-29T08:20:34.23Z</time></trkpt><trkpt lat="45.4234612" lon="11.5982796"><ele>20.57142857142857</ele><time>2026-04-29T08:20:35.23Z</time></trkpt><trkpt lat="45.4234089" lon="11.5982164"><ele>20.714285714285715</ele><time>2026-04-29T08:20:36.231Z</time></trkpt><trkpt lat="45.4233563" lon="11.5981511"><ele>20.857142857142858</ele><time>2026-04-29T08:20:37.23Z</time></trkpt><trkpt lat="45.4233022" lon="11.5980868"><ele>21.0</ele><time>2026-04-29T08:20:38.23Z</time></trkpt><trkpt lat="45.4232497" lon="11.598021"><ele>21.0</ele><time>2026-04-29T08:20:39.23Z</time></trkpt><trkpt lat="45.423199" lon="11.5979581"><ele>21.0</ele><time>2026-04-29T08:20:40.23Z</time></trkpt><trkpt lat="45.4231467" lon="11.5978948"><ele>21.0</ele><time>2026-04-29T08:20:41.231Z</time></trkpt><trkpt lat="45.4230989" lon="11.5978343"><ele>21.0</ele><time>2026-04-29T08:20:42.231Z</time></trkpt><trkpt lat="45.4230106" lon="11.5977228"><ele>21.0</ele><time>2026-04-29T08:20:44.23Z</time></trkpt><trkpt lat="45.422927" lon="11.5976211"><ele>21.0</ele><time>2026-04-29T08:20:46.231Z</time></trkpt><trkpt lat="45.4228429" lon="11.5975166"><ele>20.833333333333332</ele><time>2026-04-29T08:20:48.23Z</time></trkpt><trkpt lat="45.4227674" lon="11.5974396"><ele>20.666666666666668</ele><time>2026-04-29T08:20:50.23Z</time></trkpt><trkpt lat="45.4226964" lon="11.5973637"><ele>20.5</ele><time>2026-04-29T08:20:52.231Z</time></trkpt><trkpt lat="45.4226294" lon="11.5972873"><ele>20.333333333333336</ele><time>2026-04-29T08:20:55.231Z</time></trkpt><trkpt lat="45.4225784" lon="11.5972147"><ele>20.166666666666668</ele><time>2026-04-29T08:20:57.23Z</time></trkpt><trkpt lat="45.4225147" lon="11.5971248"><ele>20.0</ele><time>2026-04-29T08:20:59.231Z</time></trkpt><trkpt lat="45.4224434" lon="11.5970339"><ele>20.0</ele><time>2026-04-29T08:21:01.23Z</time></trkpt><trkpt lat="45.4223489" lon="11.5969217"><ele>20.0</ele><time>2026-04-29T08:21:03.23Z</time></trkpt><trkpt lat="45.4222985" lon="11.5968633"><ele>20.0</ele><time>2026-04-29T08:21:04.231Z</time></trkpt><trkpt lat="45.4222455" lon="11.5967965"><ele>20.0</ele><time>2026-04-29T08:21:05.231Z</time></trkpt><trkpt lat="45.422194" lon="11.5967247"><ele>20.0</ele><time>2026-04-29T08:21:06.23Z</time></trkpt><trkpt lat="45.4221374" lon="11.596661"><ele>20.0</ele><time>2026-04-29T08:21:07.23Z</time></trkpt><trkpt lat="45.4220825" lon="11.5965866"><ele>19.666666666666668</ele><time>2026-04-29T08:21:08.231Z</time></trkpt><trkpt lat="45.4220278" lon="11.5965132"><ele>19.333333333333336</ele><time>2026-04-29T08:21:09.231Z</time></trkpt><trkpt lat="45.4219676" lon="11.5964388"><ele>19.0</ele><time>2026-04-29T08:21:10.23Z</time></trkpt><trkpt lat="45.4219068" lon="11.5963649"><ele>18.666666666666668</ele><time>2026-04-29T08:21:11.23Z</time></trkpt><trkpt lat="45.4218435" lon="11.5962905"><ele>18.333333333333332</ele><time>2026-04-29T08:21:12.23Z</time></trkpt><trkpt lat="45.4217815" lon="11.5962122"><ele>18.0</ele><time>2026-04-29T08:21:13.23Z</time></trkpt><trkpt lat="45.4217158" lon="11.5961345"><ele>18.0</ele><time>2026-04-29T08:21:14.23Z</time></trkpt><trkpt lat="45.4216502" lon="11.596058"><ele>18.0</ele><time>2026-04-29T08:21:15.23Z</time></trkpt><trkpt lat="45.4215853" lon="11.5959764"><ele>18.0</ele><time>2026-04-29T08:21:16.231Z</time></trkpt><trkpt lat="45.4215184" lon="11.5958931"><ele>18.0</ele><time>2026-04-29T08:21:17.23Z</time></trkpt><trkpt lat="45.421449" lon="11.5958149"><ele>18.0</ele><time>2026-04-29T08:21:18.23Z</time></trkpt><trkpt lat="45.4213804" lon="11.5957358"><ele>18.0</ele><time>2026-04-29T08:21:19.231Z</time></trkpt><trkpt lat="45.42131" lon="11.5956543"><ele>18.2</ele><time>2026-04-29T08:21:20.231Z</time></trkpt><trkpt lat="45.4212412" lon="11.5955663"><ele>18.4</ele><time>2026-04-29T08:21:21.23Z</time></trkpt><trkpt lat="45.421172" lon="11.5954771"><ele>18.599999999999998</ele><time>2026-04-29T08:21:22.231Z</time></trkpt><trkpt lat="45.4211018" lon="11.5953927"><ele>18.8</ele><time>2026-04-29T08:21:23.23Z</time></trkpt><trkpt lat="45.4210341" lon="11.5953076"><ele>19.0</ele><time>2026-04-29T08:21:24.231Z</time></trkpt><trkpt lat="45.4209624" lon="11.5952209"><ele>19.0</ele><time>2026-04-29T08:21:25.23Z</time></trkpt><trkpt lat="45.4208926" lon="11.5951296"><ele>19.0</ele><time>2026-04-29T08:21:26.231Z</time></trkpt><trkpt lat="45.4208231" lon="11.5950388"><ele>19.0</ele><time>2026-04-29T08:21:27.23Z</time></trkpt><trkpt lat="45.4207523" lon="11.5949551"><ele>19.0</ele><time>2026-04-29T08:21:28.23Z</time></trkpt><trkpt lat="45.4206787" lon="11.5948731"><ele>19.0</ele><time>2026-04-29T08:21:29.23Z</time></trkpt><trkpt lat="45.4206076" lon="11.5947854"><ele>19.0</ele><time>2026-04-29T08:21:30.23Z</time></trkpt><trkpt lat="45.4205348" lon="11.5946979"><ele>19.0</ele><time>2026-04-29T08:21:31.23Z</time></trkpt><trkpt lat="45.4204623" lon="11.5946114"><ele>19.0</ele><time>2026-04-29T08:21:32.23Z</time></trkpt><trkpt lat="45.420389" lon="11.5945246"><ele>19.0</ele><time>2026-04-29T08:21:33.23Z</time></trkpt><trkpt lat="45.4203152" lon="11.5944364"><ele>19.0</ele><time>2026-04-29T08:21:34.23Z</time></trkpt><trkpt lat="45.4202418" lon="11.5943448"><ele>19.0</ele><time>2026-04-29T08:21:35.23Z</time></trkpt><trkpt lat="45.4201684" lon="11.5942509"><ele>19.0</ele><time>2026-04-29T08:21:36.231Z</time></trkpt><trkpt lat="45.4200925" lon="11.5941533"><ele>19.0</ele><time>2026-04-29T08:21:37.23Z</time></trkpt><trkpt lat="45.4200159" lon="11.5940532"><ele>19.0</ele><time>2026-04-29T08:21:38.23Z</time></trkpt><trkpt lat="45.4199411" lon="11.5939595"><ele>19.0</ele><time>2026-04-29T08:21:39.23Z</time></trkpt><trkpt lat="45.4198647" lon="11.593864"><ele>19.0</ele><time>2026-04-29T08:21:40.231Z</time></trkpt><trkpt lat="45.4197886" lon="11.5937723"><ele>19.0</ele><time>2026-04-29T08:21:41.23Z</time></trkpt><trkpt lat="45.419713" lon="11.5936775"><ele>19.0</ele><time>2026-04-29T08:21:42.231Z</time></trkpt><trkpt lat="45.4196408" lon="11.59359"><ele>19.0</ele><time>2026-04-29T08:21:43.23Z</time></trkpt><trkpt lat="45.4195664" lon="11.5934996"><ele>19.0</ele><time>2026-04-29T08:21:44.231Z</time></trkpt><trkpt lat="45.4194933" lon="11.5934151"><ele>19.0</ele><time>2026-04-29T08:21:45.231Z</time></trkpt><trkpt lat="45.4194234" lon="11.5933297"><ele>19.0</ele><time>2026-04-29T08:21:46.23Z</time></trkpt><trkpt lat="45.4193547" lon="11.5932475"><ele>19.0</ele><time>2026-04-29T08:21:47.23Z</time></trkpt><trkpt lat="45.419286" lon="11.5931658"><ele>19.0</ele><time>2026-04-29T08:21:48.231Z</time></trkpt><trkpt lat="45.4192184" lon="11.5930819"><ele>19.0</ele><time>2026-04-29T08:21:49.23Z</time></trkpt><trkpt lat="45.4191528" lon="11.5929971"><ele>19.0</ele><time>2026-04-29T08:21:50.23Z</time></trkpt><trkpt lat="45.4190876" lon="11.5929134"><ele>19.0</ele><time>2026-04-29T08:21:51.23Z</time></trkpt><trkpt lat="45.4190212" lon="11.5928376"><ele>19.0</ele><time>2026-04-29T08:21:52.23Z</time></trkpt><trkpt lat="45.418954" lon="11.5927581"><ele>19.0</ele><time>2026-04-29T08:21:53.231Z</time></trkpt><trkpt lat="45.4188901" lon="11.5926798"><ele>19.0</ele><time>2026-04-29T08:21:54.23Z</time></trkpt><trkpt lat="45.4188258" lon="11.5926034"><ele>19.0</ele><time>2026-04-29T08:21:55.23Z</time></trkpt><trkpt lat="45.4187584" lon="11.5925196"><ele>19.0</ele><time>2026-04-29T08:21:56.23Z</time></trkpt><trkpt lat="45.418694" lon="11.5924373"><ele>19.0</ele><time>2026-04-29T08:21:57.23Z</time></trkpt><trkpt lat="45.4186313" lon="11.5923563"><ele>19.0</ele><time>2026-04-29T08:21:58.23Z</time></trkpt><trkpt lat="45.4185678" lon="11.5922825"><ele>19.0</ele><time>2026-04-29T08:21:59.23Z</time></trkpt><trkpt lat="45.4185043" lon="11.5922026"><ele>19.0</ele><time>2026-04-29T08:22:00.23Z</time></trkpt><trkpt lat="45.4184437" lon="11.592122"><ele>19.0</ele><time>2026-04-29T08:22:01.23Z</time></trkpt><trkpt lat="45.4183831" lon="11.5920503"><ele>19.0</ele><time>2026-04-29T08:22:02.231Z</time></trkpt><trkpt lat="45.4183221" lon="11.591972"><ele>19.0</ele><time>2026-04-29T08:22:03.23Z</time></trkpt><trkpt lat="45.4182614" lon="11.5918923"><ele>19.0</ele><time>2026-04-29T08:22:04.231Z</time></trkpt><trkpt lat="45.4182016" lon="11.5918186"><ele>19.0</ele><time>2026-04-29T08:22:05.231Z</time></trkpt><trkpt lat="45.4181376" lon="11.5917468"><ele>19.0</ele><time>2026-04-29T08:22:06.231Z</time></trkpt><trkpt lat="45.418077" lon="11.5916724"><ele>19.0</ele><time>2026-04-29T08:22:07.23Z</time></trkpt><trkpt lat="45.4180212" lon="11.5916023"><ele>19.0</ele><time>2026-04-29T08:22:08.23Z</time></trkpt><trkpt lat="45.4179593" lon="11.5915388"><ele>19.0</ele><time>2026-04-29T08:22:09.23Z</time></trkpt><trkpt lat="45.4178999" lon="11.5914672"><ele>19.0</ele><time>2026-04-29T08:22:10.231Z</time></trkpt><trkpt lat="45.4178395" lon="11.5913921"><ele>19.0</ele><time>2026-04-29T08:22:11.23Z</time></trkpt><trkpt lat="45.4177796" lon="11.5913191"><ele>19.0</ele><time>2026-04-29T08:22:12.23Z</time></trkpt><trkpt lat="45.4177217" lon="11.5912483"><ele>19.0</ele><time>2026-04-29T08:22:13.23Z</time></trkpt><trkpt lat="45.4176644" lon="11.5911834"><ele>19.0</ele><time>2026-04-29T08:22:14.23Z</time></trkpt><trkpt lat="45.4176058" lon="11.5911194"><ele>18.71428571428571</ele><time>2026-04-29T08:22:15.231Z</time></trkpt><trkpt lat="45.4175549" lon="11.5910534"><ele>18.42857142857143</ele><time>2026-04-29T08:22:16.23Z</time></trkpt><trkpt lat="45.4175014" lon="11.590988"><ele>18.142857142857142</ele><time>2026-04-29T08:22:17.231Z</time></trkpt><trkpt lat="45.4174487" lon="11.5909221"><ele>17.857142857142854</ele><time>2026-04-29T08:22:18.23Z</time></trkpt><trkpt lat="45.4173923" lon="11.5908526"><ele>17.57142857142857</ele><time>2026-04-29T08:22:19.23Z</time></trkpt><trkpt lat="45.4173411" lon="11.5907864"><ele>17.285714285714285</ele><time>2026-04-29T08:22:20.23Z</time></trkpt><trkpt lat="45.4172866" lon="11.5907161"><ele>17.0</ele><time>2026-04-29T08:22:21.231Z</time></trkpt><trkpt lat="45.4172343" lon="11.5906505"><ele>16.999999999999996</ele><time>2026-04-29T08:22:22.23Z</time></trkpt><trkpt lat="45.4171812" lon="11.5905831"><ele>17.0</ele><time>2026-04-29T08:22:23.23Z</time></trkpt><trkpt lat="45.4171255" lon="11.5905177"><ele>17.0</ele><time>2026-04-29T08:22:24.23Z</time></trkpt><trkpt lat="45.4170703" lon="11.5904487"><ele>17.0</ele><time>2026-04-29T08:22:25.23Z</time></trkpt><trkpt lat="45.4170122" lon="11.5903852"><ele>17.0</ele><time>2026-04-29T08:22:26.23Z</time></trkpt><trkpt lat="45.4169574" lon="11.5903177"><ele>16.999999999999996</ele><time>2026-04-29T08:22:27.23Z</time></trkpt><trkpt lat="45.4169065" lon="11.5902434"><ele>17.0</ele><time>2026-04-29T08:22:28.23Z</time></trkpt><trkpt lat="45.416852" lon="11.590171"><ele>17.333333333333336</ele><time>2026-04-29T08:22:29.23Z</time></trkpt><trkpt lat="45.4167958" lon="11.5901018"><ele>17.666666666666668</ele><time>2026-04-29T08:22:30.23Z</time></trkpt><trkpt lat="45.4167402" lon="11.5900328"><ele>18.0</ele><time>2026-04-29T08:22:31.231Z</time></trkpt><trkpt lat="45.4166811" lon="11.5899639"><ele>18.333333333333332</ele><time>2026-04-29T08:22:32.23Z</time></trkpt><trkpt lat="45.4166207" lon="11.5898972"><ele>18.666666666666664</ele><time>2026-04-29T08:22:33.23Z</time></trkpt><trkpt lat="45.4165606" lon="11.5898258"><ele>19.0</ele><time>2026-04-29T08:22:34.23Z</time></trkpt><trkpt lat="45.4165027" lon="11.5897518"><ele>19.0</ele><time>2026-04-29T08:22:35.23Z</time></trkpt><trkpt lat="45.4164461" lon="11.5896749"><ele>19.0</ele><time>2026-04-29T08:22:36.23Z</time></trkpt><trkpt lat="45.4163875" lon="11.5896012"><ele>19.0</ele><time>2026-04-29T08:22:37.23Z</time></trkpt><trkpt lat="45.4163284" lon="11.5895244"><ele>19.0</ele><time>2026-04-29T08:22:38.23Z</time></trkpt><trkpt lat="45.416272" lon="11.5894579"><ele>19.0</ele><time>2026-04-29T08:22:39.231Z</time></trkpt><trkpt lat="45.4162133" lon="11.5893866"><ele>19.0</ele><time>2026-04-29T08:22:40.231Z</time></trkpt><trkpt lat="45.4161518" lon="11.589316"><ele>18.833333333333332</ele><time>2026-04-29T08:22:41.23Z</time></trkpt><trkpt lat="45.4160932" lon="11.5892455"><ele>18.666666666666664</ele><time>2026-04-29T08:22:42.231Z</time></trkpt><trkpt lat="45.4160337" lon="11.5891731"><ele>18.5</ele><time>2026-04-29T08:22:43.231Z</time></trkpt><trkpt lat="45.4159738" lon="11.5891002"><ele>18.333333333333332</ele><time>2026-04-29T08:22:44.231Z</time></trkpt><trkpt lat="45.4159129" lon="11.5890278"><ele>18.166666666666668</ele><time>2026-04-29T08:22:45.23Z</time></trkpt><trkpt lat="45.415853" lon="11.5889586"><ele>18.0</ele><time>2026-04-29T08:22:46.23Z</time></trkpt><trkpt lat="45.4157987" lon="11.588889"><ele>18.000000000000004</ele><time>2026-04-29T08:22:47.231Z</time></trkpt><trkpt lat="45.4157433" lon="11.5888208"><ele>18.0</ele><time>2026-04-29T08:22:48.23Z</time></trkpt><trkpt lat="45.4156901" lon="11.5887555"><ele>18.0</ele><time>2026-04-29T08:22:49.23Z</time></trkpt><trkpt lat="45.4156372" lon="11.5886902"><ele>18.0</ele><time>2026-04-29T08:22:50.23Z</time></trkpt><trkpt lat="45.4155838" lon="11.5886228"><ele>18.0</ele><time>2026-04-29T08:22:51.231Z</time></trkpt><trkpt lat="45.4155264" lon="11.588555"><ele>18.000000000000004</ele><time>2026-04-29T08:22:52.231Z</time></trkpt><trkpt lat="45.4154713" lon="11.5884843"><ele>18.0</ele><time>2026-04-29T08:22:53.23Z</time></trkpt><trkpt lat="45.4154192" lon="11.5884171"><ele>18.142857142857146</ele><time>2026-04-29T08:22:54.23Z</time></trkpt><trkpt lat="45.4153624" lon="11.5883502"><ele>18.285714285714285</ele><time>2026-04-29T08:22:55.23Z</time></trkpt><trkpt lat="45.4153041" lon="11.5882848"><ele>18.42857142857143</ele><time>2026-04-29T08:22:56.23Z</time></trkpt><trkpt lat="45.4152481" lon="11.5882199"><ele>18.571428571428573</ele><time>2026-04-29T08:22:57.231Z</time></trkpt><trkpt lat="45.4151946" lon="11.5881472"><ele>18.714285714285715</ele><time>2026-04-29T08:22:58.23Z</time></trkpt><trkpt lat="45.4151376" lon="11.5880831"><ele>18.857142857142858</ele><time>2026-04-29T08:22:59.231Z</time></trkpt><trkpt lat="45.4150834" lon="11.5880207"><ele>19.0</ele><time>2026-04-29T08:23:00.23Z</time></trkpt><trkpt lat="45.4150286" lon="11.5879561"><ele>19.0</ele><time>2026-04-29T08:23:01.23Z</time></trkpt><trkpt lat="45.414981" lon="11.5878914"><ele>19.0</ele><time>2026-04-29T08:23:02.23Z</time></trkpt><trkpt lat="45.414936" lon="11.5878251"><ele>19.0</ele><time>2026-04-29T08:23:03.231Z</time></trkpt><trkpt lat="45.4148518" lon="11.5877092"><ele>19.0</ele><time>2026-04-29T08:23:05.23Z</time></trkpt><trkpt lat="45.4147759" lon="11.587613"><ele>19.0</ele><time>2026-04-29T08:23:07.23Z</time></trkpt><trkpt lat="45.4146867" lon="11.5875258"><ele>19.4</ele><time>2026-04-29T08:23:09.23Z</time></trkpt><trkpt lat="45.4146165" lon="11.5874305"><ele>19.799999999999997</ele><time>2026-04-29T08:23:11.23Z</time></trkpt><trkpt lat="45.4145308" lon="11.5873469"><ele>20.200000000000003</ele><time>2026-04-29T08:23:13.231Z</time></trkpt><trkpt lat="45.4144332" lon="11.587251"><ele>20.6</ele><time>2026-04-29T08:23:15.231Z</time></trkpt><trkpt lat="45.4143837" lon="11.5871866"><ele>21.0</ele><time>2026-04-29T08:23:16.23Z</time></trkpt><trkpt lat="45.4143324" lon="11.5871229"><ele>21.0</ele><time>2026-04-29T08:23:17.231Z</time></trkpt><trkpt lat="45.4142798" lon="11.5870546"><ele>21.0</ele><time>2026-04-29T08:23:18.23Z</time></trkpt><trkpt lat="45.4142247" lon="11.5869905"><ele>21.0</ele><time>2026-04-29T08:23:19.231Z</time></trkpt><trkpt lat="45.4141715" lon="11.5869254"><ele>21.0</ele><time>2026-04-29T08:23:20.231Z</time></trkpt><trkpt lat="45.4141155" lon="11.5868544"><ele>21.0</ele><time>2026-04-29T08:23:21.23Z</time></trkpt><trkpt lat="45.4140591" lon="11.5867824"><ele>21.0</ele><time>2026-04-29T08:23:22.23Z</time></trkpt><trkpt lat="45.4140026" lon="11.5867138"><ele>21.0</ele><time>2026-04-29T08:23:23.229Z</time></trkpt><trkpt lat="45.4139446" lon="11.5866484"><ele>20.666666666666668</ele><time>2026-04-29T08:23:24.229Z</time></trkpt><trkpt lat="45.4138824" lon="11.5865798"><ele>20.333333333333332</ele><time>2026-04-29T08:23:25.229Z</time></trkpt><trkpt lat="45.4138258" lon="11.5865076"><ele>20.0</ele><time>2026-04-29T08:23:26.23Z</time></trkpt><trkpt lat="45.4137638" lon="11.5864239"><ele>19.666666666666664</ele><time>2026-04-29T08:23:27.229Z</time></trkpt><trkpt lat="45.4137062" lon="11.5863524"><ele>19.333333333333332</ele><time>2026-04-29T08:23:28.23Z</time></trkpt><trkpt lat="45.4136467" lon="11.5862812"><ele>19.0</ele><time>2026-04-29T08:23:29.229Z</time></trkpt><trkpt lat="45.4135856" lon="11.5862102"><ele>19.0</ele><time>2026-04-29T08:23:30.23Z</time></trkpt><trkpt lat="45.4135245" lon="11.5861442"><ele>19.0</ele><time>2026-04-29T08:23:31.23Z</time></trkpt><trkpt lat="45.4134684" lon="11.5860702"><ele>19.0</ele><time>2026-04-29T08:23:32.229Z</time></trkpt><trkpt lat="45.4134115" lon="11.585997"><ele>19.0</ele><time>2026-04-29T08:23:33.229Z</time></trkpt><trkpt lat="45.4133536" lon="11.5859231"><ele>19.0</ele><time>2026-04-29T08:23:34.23Z</time></trkpt><trkpt lat="45.4132968" lon="11.5858543"><ele>19.0</ele><time>2026-04-29T08:23:35.229Z</time></trkpt><trkpt lat="45.413237" lon="11.5857801"><ele>19.0</ele><time>2026-04-29T08:23:36.229Z</time></trkpt><trkpt lat="45.4131765" lon="11.5857089"><ele>19.0</ele><time>2026-04-29T08:23:37.229Z</time></trkpt><trkpt lat="45.4131199" lon="11.5856365"><ele>19.0</ele><time>2026-04-29T08:23:38.229Z</time></trkpt><trkpt lat="45.4130653" lon="11.5855687"><ele>19.0</ele><time>2026-04-29T08:23:39.229Z</time></trkpt><trkpt lat="45.4130099" lon="11.5855012"><ele>19.0</ele><time>2026-04-29T08:23:40.23Z</time></trkpt><trkpt lat="45.4129534" lon="11.5854303"><ele>19.0</ele><time>2026-04-29T08:23:41.229Z</time></trkpt><trkpt lat="45.412902" lon="11.5853615"><ele>19.0</ele><time>2026-04-29T08:23:42.229Z</time></trkpt><trkpt lat="45.4128517" lon="11.5852933"><ele>18.8</ele><time>2026-04-29T08:23:43.229Z</time></trkpt><trkpt lat="45.412804" lon="11.585231"><ele>18.599999999999998</ele><time>2026-04-29T08:23:44.229Z</time></trkpt><trkpt lat="45.41272" lon="11.5851258"><ele>18.4</ele><time>2026-04-29T08:23:46.229Z</time></trkpt><trkpt lat="45.4126346" lon="11.5850108"><ele>18.2</ele><time>2026-04-29T08:23:48.229Z</time></trkpt><trkpt lat="45.4125413" lon="11.5848973"><ele>18.0</ele><time>2026-04-29T08:23:50.229Z</time></trkpt><trkpt lat="45.4124885" lon="11.5848367"><ele>18.0</ele><time>2026-04-29T08:23:51.229Z</time></trkpt><trkpt lat="45.412423" lon="11.5847749"><ele>18.0</ele><time>2026-04-29T08:23:52.229Z</time></trkpt><trkpt lat="45.4123572" lon="11.584705"><ele>18.0</ele><time>2026-04-29T08:23:53.229Z</time></trkpt><trkpt lat="45.4122958" lon="11.5846333"><ele>18.0</ele><time>2026-04-29T08:23:54.23Z</time></trkpt><trkpt lat="45.4122373" lon="11.5845586"><ele>18.0</ele><time>2026-04-29T08:23:55.23Z</time></trkpt><trkpt lat="45.4121771" lon="11.5844851"><ele>18.0</ele><time>2026-04-29T08:23:56.229Z</time></trkpt><trkpt lat="45.4121191" lon="11.5844142"><ele>17.833333333333332</ele><time>2026-04-29T08:23:57.229Z</time></trkpt><trkpt lat="45.412061" lon="11.584347"><ele>17.666666666666668</ele><time>2026-04-29T08:23:58.23Z</time></trkpt><trkpt lat="45.4119998" lon="11.5842726"><ele>17.5</ele><time>2026-04-29T08:23:59.229Z</time></trkpt><trkpt lat="45.4119356" lon="11.5841923"><ele>17.333333333333336</ele><time>2026-04-29T08:24:00.229Z</time></trkpt><trkpt lat="45.4118661" lon="11.5841186"><ele>17.166666666666668</ele><time>2026-04-29T08:24:01.229Z</time></trkpt><trkpt lat="45.4117998" lon="11.584043"><ele>17.0</ele><time>2026-04-29T08:24:02.23Z</time></trkpt><trkpt lat="45.4117361" lon="11.583965"><ele>17.0</ele><time>2026-04-29T08:24:03.229Z</time></trkpt><trkpt lat="45.411675" lon="11.583891"><ele>17.0</ele><time>2026-04-29T08:24:04.229Z</time></trkpt><trkpt lat="45.4116131" lon="11.5838116"><ele>17.0</ele><time>2026-04-29T08:24:05.229Z</time></trkpt><trkpt lat="45.4115484" lon="11.5837358"><ele>17.0</ele><time>2026-04-29T08:24:06.229Z</time></trkpt><trkpt lat="45.411485" lon="11.5836577"><ele>17.0</ele><time>2026-04-29T08:24:07.229Z</time></trkpt><trkpt lat="45.4114192" lon="11.5835777"><ele>17.0</ele><time>2026-04-29T08:24:08.229Z</time></trkpt><trkpt lat="45.4113561" lon="11.5835016"><ele>16.833333333333336</ele><time>2026-04-29T08:24:09.229Z</time></trkpt><trkpt lat="45.4112912" lon="11.5834299"><ele>16.666666666666668</ele><time>2026-04-29T08:24:10.229Z</time></trkpt><trkpt lat="45.4112287" lon="11.5833523"><ele>16.5</ele><time>2026-04-29T08:24:11.229Z</time></trkpt><trkpt lat="45.4111687" lon="11.5832773"><ele>16.333333333333332</ele><time>2026-04-29T08:24:12.229Z</time></trkpt><trkpt lat="45.411108" lon="11.5831972"><ele>16.166666666666664</ele><time>2026-04-29T08:24:13.23Z</time></trkpt><trkpt lat="45.4110453" lon="11.5831202"><ele>16.0</ele><time>2026-04-29T08:24:14.229Z</time></trkpt><trkpt lat="45.4109782" lon="11.5830445"><ele>15.999999999999998</ele><time>2026-04-29T08:24:15.229Z</time></trkpt><trkpt lat="45.4109088" lon="11.5829588"><ele>16.0</ele><time>2026-04-29T08:24:16.229Z</time></trkpt><trkpt lat="45.4108467" lon="11.5828761"><ele>16.0</ele><time>2026-04-29T08:24:17.229Z</time></trkpt><trkpt lat="45.4107822" lon="11.5827988"><ele>16.0</ele><time>2026-04-29T08:24:18.229Z</time></trkpt><trkpt lat="45.4107199" lon="11.5827262"><ele>15.999999999999998</ele><time>2026-04-29T08:24:19.229Z</time></trkpt><trkpt lat="45.4106564" lon="11.5826497"><ele>16.0</ele><time>2026-04-29T08:24:20.23Z</time></trkpt><trkpt lat="45.4105911" lon="11.5825689"><ele>16.166666666666664</ele><time>2026-04-29T08:24:21.229Z</time></trkpt><trkpt lat="45.4105282" lon="11.5824887"><ele>16.333333333333332</ele><time>2026-04-29T08:24:22.23Z</time></trkpt><trkpt lat="45.410465" lon="11.5824107"><ele>16.5</ele><time>2026-04-29T08:24:23.229Z</time></trkpt><trkpt lat="45.4103998" lon="11.5823345"><ele>16.666666666666668</ele><time>2026-04-29T08:24:24.23Z</time></trkpt><trkpt lat="45.410336" lon="11.5822569"><ele>16.833333333333336</ele><time>2026-04-29T08:24:25.229Z</time></trkpt><trkpt lat="45.4102737" lon="11.5821766"><ele>17.0</ele><time>2026-04-29T08:24:26.23Z</time></trkpt><trkpt lat="45.4102114" lon="11.5821041"><ele>17.166666666666668</ele><time>2026-04-29T08:24:27.229Z</time></trkpt><trkpt lat="45.4101521" lon="11.5820319"><ele>17.333333333333336</ele><time>2026-04-29T08:24:28.229Z</time></trkpt><trkpt lat="45.4100933" lon="11.5819633"><ele>17.5</ele><time>2026-04-29T08:24:29.229Z</time></trkpt><trkpt lat="45.4100377" lon="11.5819006"><ele>17.666666666666668</ele><time>2026-04-29T08:24:30.229Z</time></trkpt><trkpt lat="45.4099771" lon="11.5818291"><ele>17.833333333333332</ele><time>2026-04-29T08:24:31.229Z</time></trkpt><trkpt lat="45.4099228" lon="11.5817675"><ele>18.0</ele><time>2026-04-29T08:24:32.23Z</time></trkpt><trkpt lat="45.4098347" lon="11.5816639"><ele>18.0</ele><time>2026-04-29T08:24:34.23Z</time></trkpt><trkpt lat="45.4097832" lon="11.581577"><ele>18.0</ele><time>2026-04-29T08:24:36.229Z</time></trkpt><trkpt lat="45.4097153" lon="11.5815184"><ele>18.0</ele><time>2026-04-29T08:24:38.229Z</time></trkpt><trkpt lat="45.4096436" lon="11.5814297"><ele>18.0</ele><time>2026-04-29T08:24:40.229Z</time></trkpt><trkpt lat="45.4095625" lon="11.5813091"><ele>18.0</ele><time>2026-04-29T08:24:42.229Z</time></trkpt><trkpt lat="45.4095158" lon="11.5812458"><ele>18.0</ele><time>2026-04-29T08:24:43.229Z</time></trkpt><trkpt lat="45.4094675" lon="11.5811827"><ele>18.000000000000004</ele><time>2026-04-29T08:24:44.229Z</time></trkpt><trkpt lat="45.409418" lon="11.5811193"><ele>18.0</ele><time>2026-04-29T08:24:45.229Z</time></trkpt><trkpt lat="45.4093649" lon="11.5810504"><ele>18.0</ele><time>2026-04-29T08:24:46.229Z</time></trkpt><trkpt lat="45.4093053" lon="11.5809874"><ele>18.0</ele><time>2026-04-29T08:24:47.229Z</time></trkpt><trkpt lat="45.4092465" lon="11.5809165"><ele>18.0</ele><time>2026-04-29T08:24:48.229Z</time></trkpt><trkpt lat="45.4091887" lon="11.5808414"><ele>18.000000000000004</ele><time>2026-04-29T08:24:49.229Z</time></trkpt><trkpt lat="45.4091334" lon="11.5807683"><ele>18.0</ele><time>2026-04-29T08:24:50.229Z</time></trkpt><trkpt lat="45.409074" lon="11.5806911"><ele>18.0</ele><time>2026-04-29T08:24:51.229Z</time></trkpt><trkpt lat="45.4090147" lon="11.5806165"><ele>18.0</ele><time>2026-04-29T08:24:52.23Z</time></trkpt><trkpt lat="45.4089527" lon="11.580543"><ele>18.0</ele><time>2026-04-29T08:24:53.229Z</time></trkpt><trkpt lat="45.408889" lon="11.5804671"><ele>18.0</ele><time>2026-04-29T08:24:54.23Z</time></trkpt><trkpt lat="45.408826" lon="11.5803923"><ele>18.0</ele><time>2026-04-29T08:24:55.23Z</time></trkpt><trkpt lat="45.4087649" lon="11.5803123"><ele>18.0</ele><time>2026-04-29T08:24:56.23Z</time></trkpt><trkpt lat="45.4087" lon="11.580231"><ele>17.833333333333332</ele><time>2026-04-29T08:24:57.229Z</time></trkpt><trkpt lat="45.4086338" lon="11.5801503"><ele>17.666666666666668</ele><time>2026-04-29T08:24:58.229Z</time></trkpt><trkpt lat="45.4085678" lon="11.5800711"><ele>17.5</ele><time>2026-04-29T08:24:59.229Z</time></trkpt><trkpt lat="45.4084972" lon="11.5799911"><ele>17.333333333333336</ele><time>2026-04-29T08:25:00.23Z</time></trkpt><trkpt lat="45.4084309" lon="11.5799103"><ele>17.166666666666668</ele><time>2026-04-29T08:25:01.229Z</time></trkpt><trkpt lat="45.4083651" lon="11.5798277"><ele>17.0</ele><time>2026-04-29T08:25:02.229Z</time></trkpt><trkpt lat="45.4083032" lon="11.5797488"><ele>17.0</ele><time>2026-04-29T08:25:03.229Z</time></trkpt><trkpt lat="45.4082384" lon="11.5796742"><ele>17.0</ele><time>2026-04-29T08:25:04.23Z</time></trkpt><trkpt lat="45.4081718" lon="11.5795989"><ele>17.0</ele><time>2026-04-29T08:25:05.23Z</time></trkpt><trkpt lat="45.4081048" lon="11.5795221"><ele>17.0</ele><time>2026-04-29T08:25:06.229Z</time></trkpt><trkpt lat="45.4080362" lon="11.5794435"><ele>17.0</ele><time>2026-04-29T08:25:07.229Z</time></trkpt><trkpt lat="45.4079742" lon="11.5793618"><ele>17.0</ele><time>2026-04-29T08:25:08.23Z</time></trkpt><trkpt lat="45.4079102" lon="11.5792722"><ele>17.0</ele><time>2026-04-29T08:25:09.23Z</time></trkpt><trkpt lat="45.407843" lon="11.5791905"><ele>17.0</ele><time>2026-04-29T08:25:10.229Z</time></trkpt><trkpt lat="45.4077726" lon="11.5791101"><ele>17.0</ele><time>2026-04-29T08:25:11.23Z</time></trkpt><trkpt lat="45.4077038" lon="11.579025"><ele>17.0</ele><time>2026-04-29T08:25:12.23Z</time></trkpt><trkpt lat="45.4076373" lon="11.5789446"><ele>17.0</ele><time>2026-04-29T08:25:13.229Z</time></trkpt><trkpt lat="45.4075692" lon="11.5788649"><ele>17.0</ele><time>2026-04-29T08:25:14.229Z</time></trkpt><trkpt lat="45.4075027" lon="11.578787"><ele>17.0</ele><time>2026-04-29T08:25:15.229Z</time></trkpt><trkpt lat="45.4074381" lon="11.5787068"><ele>17.0</ele><time>2026-04-29T08:25:16.229Z</time></trkpt><trkpt lat="45.4073723" lon="11.5786217"><ele>17.0</ele><time>2026-04-29T08:25:17.23Z</time></trkpt><trkpt lat="45.4073102" lon="11.5785442"><ele>17.0</ele><time>2026-04-29T08:25:18.23Z</time></trkpt><trkpt lat="45.4072488" lon="11.5784663"><ele>17.0</ele><time>2026-04-29T08:25:19.229Z</time></trkpt><trkpt lat="45.4071867" lon="11.5783911"><ele>17.0</ele><time>2026-04-29T08:25:20.229Z</time></trkpt><trkpt lat="45.4071253" lon="11.5783142"><ele>17.166666666666668</ele><time>2026-04-29T08:25:21.229Z</time></trkpt><trkpt lat="45.4070675" lon="11.5782415"><ele>17.333333333333336</ele><time>2026-04-29T08:25:22.229Z</time></trkpt><trkpt lat="45.4070101" lon="11.5781726"><ele>17.5</ele><time>2026-04-29T08:25:23.23Z</time></trkpt><trkpt lat="45.4069551" lon="11.5781176"><ele>17.666666666666668</ele><time>2026-04-29T08:25:24.23Z</time></trkpt><trkpt lat="45.4068564" lon="11.5781008"><ele>17.833333333333332</ele><time>2026-04-29T08:25:26.229Z</time></trkpt><trkpt lat="45.406769" lon="11.5780878"><ele>18.0</ele><time>2026-04-29T08:25:28.229Z</time></trkpt><trkpt lat="45.406692" lon="11.5779882"><ele>18.000000000000004</ele><time>2026-04-29T08:25:30.229Z</time></trkpt><trkpt lat="45.4066446" lon="11.577929"><ele>18.0</ele><time>2026-04-29T08:25:31.229Z</time></trkpt><trkpt lat="45.4065964" lon="11.5778663"><ele>18.0</ele><time>2026-04-29T08:25:32.229Z</time></trkpt><trkpt lat="45.4065419" lon="11.5778055"><ele>18.0</ele><time>2026-04-29T08:25:33.229Z</time></trkpt><trkpt lat="45.4064878" lon="11.5777442"><ele>18.0</ele><time>2026-04-29T08:25:34.229Z</time></trkpt><trkpt lat="45.4064344" lon="11.5776787"><ele>18.000000000000004</ele><time>2026-04-29T08:25:35.229Z</time></trkpt><trkpt lat="45.4063783" lon="11.5776153"><ele>18.0</ele><time>2026-04-29T08:25:36.229Z</time></trkpt><trkpt lat="45.4063223" lon="11.5775514"><ele>18.166666666666668</ele><time>2026-04-29T08:25:37.229Z</time></trkpt><trkpt lat="45.406266" lon="11.5774811"><ele>18.333333333333332</ele><time>2026-04-29T08:25:38.23Z</time></trkpt><trkpt lat="45.406209" lon="11.5774077"><ele>18.5</ele><time>2026-04-29T08:25:39.229Z</time></trkpt><trkpt lat="45.4061507" lon="11.577337"><ele>18.666666666666664</ele><time>2026-04-29T08:25:40.229Z</time></trkpt><trkpt lat="45.4060916" lon="11.5772659"><ele>18.833333333333332</ele><time>2026-04-29T08:25:41.229Z</time></trkpt><trkpt lat="45.4060302" lon="11.5771939"><ele>19.0</ele><time>2026-04-29T08:25:42.229Z</time></trkpt><trkpt lat="45.4059704" lon="11.577119"><ele>19.0</ele><time>2026-04-29T08:25:43.229Z</time></trkpt><trkpt lat="45.4059102" lon="11.5770435"><ele>19.0</ele><time>2026-04-29T08:25:44.229Z</time></trkpt><trkpt lat="45.4058522" lon="11.576968"><ele>19.0</ele><time>2026-04-29T08:25:45.229Z</time></trkpt><trkpt lat="45.4057924" lon="11.5768949"><ele>19.0</ele><time>2026-04-29T08:25:46.23Z</time></trkpt><trkpt lat="45.405732" lon="11.5768225"><ele>19.0</ele><time>2026-04-29T08:25:47.23Z</time></trkpt><trkpt lat="45.4056722" lon="11.5767513"><ele>19.0</ele><time>2026-04-29T08:25:48.229Z</time></trkpt><trkpt lat="45.4056115" lon="11.576675"><ele>18.666666666666664</ele><time>2026-04-29T08:25:49.229Z</time></trkpt><trkpt lat="45.4055495" lon="11.5766006"><ele>18.333333333333332</ele><time>2026-04-29T08:25:50.229Z</time></trkpt><trkpt lat="45.4054886" lon="11.5765281"><ele>18.0</ele><time>2026-04-29T08:25:51.23Z</time></trkpt><trkpt lat="45.4054267" lon="11.5764533"><ele>17.666666666666668</ele><time>2026-04-29T08:25:52.229Z</time></trkpt><trkpt lat="45.4053689" lon="11.5763846"><ele>17.333333333333336</ele><time>2026-04-29T08:25:53.229Z</time></trkpt><trkpt lat="45.40531" lon="11.5763103"><ele>17.0</ele><time>2026-04-29T08:25:54.229Z</time></trkpt><trkpt lat="45.4052501" lon="11.5762383"><ele>16.833333333333336</ele><time>2026-04-29T08:25:55.229Z</time></trkpt><trkpt lat="45.4051925" lon="11.5761684"><ele>16.666666666666668</ele><time>2026-04-29T08:25:56.229Z</time></trkpt><trkpt lat="45.4051338" lon="11.5761052"><ele>16.5</ele><time>2026-04-29T08:25:57.229Z</time></trkpt><trkpt lat="45.4050772" lon="11.5760335"><ele>16.333333333333332</ele><time>2026-04-29T08:25:58.229Z</time></trkpt><trkpt lat="45.4050158" lon="11.5759563"><ele>16.166666666666664</ele><time>2026-04-29T08:25:59.229Z</time></trkpt><trkpt lat="45.4049564" lon="11.5758779"><ele>16.0</ele><time>2026-04-29T08:26:00.23Z</time></trkpt><trkpt lat="45.4048994" lon="11.5758003"><ele>15.999999999999998</ele><time>2026-04-29T08:26:01.229Z</time></trkpt><trkpt lat="45.4048401" lon="11.5757232"><ele>16.0</ele><time>2026-04-29T08:26:02.23Z</time></trkpt><trkpt lat="45.4047777" lon="11.5756462"><ele>16.0</ele><time>2026-04-29T08:26:03.229Z</time></trkpt><trkpt lat="45.4047184" lon="11.5755732"><ele>16.0</ele><time>2026-04-29T08:26:04.23Z</time></trkpt><trkpt lat="45.4046571" lon="11.5754937"><ele>15.999999999999998</ele><time>2026-04-29T08:26:05.229Z</time></trkpt><trkpt lat="45.4045917" lon="11.5754197"><ele>16.0</ele><time>2026-04-29T08:26:06.229Z</time></trkpt><trkpt lat="45.4045315" lon="11.5753474"><ele>16.166666666666664</ele><time>2026-04-29T08:26:07.229Z</time></trkpt><trkpt lat="45.4044697" lon="11.5752717"><ele>16.333333333333332</ele><time>2026-04-29T08:26:08.229Z</time></trkpt><trkpt lat="45.4044078" lon="11.5751994"><ele>16.5</ele><time>2026-04-29T08:26:09.229Z</time></trkpt><trkpt lat="45.4043436" lon="11.5751234"><ele>16.666666666666668</ele><time>2026-04-29T08:26:10.23Z</time></trkpt><trkpt lat="45.4042795" lon="11.5750497"><ele>16.833333333333336</ele><time>2026-04-29T08:26:11.23Z</time></trkpt><trkpt lat="45.4042178" lon="11.5749725"><ele>17.0</ele><time>2026-04-29T08:26:12.229Z</time></trkpt><trkpt lat="45.4041565" lon="11.5748877"><ele>17.0</ele><time>2026-04-29T08:26:13.229Z</time></trkpt><trkpt lat="45.4040974" lon="11.5748081"><ele>17.0</ele><time>2026-04-29T08:26:14.229Z</time></trkpt><trkpt lat="45.4040365" lon="11.5747284"><ele>17.0</ele><time>2026-04-29T08:26:15.229Z</time></trkpt><trkpt lat="45.4039764" lon="11.5746561"><ele>17.0</ele><time>2026-04-29T08:26:16.229Z</time></trkpt><trkpt lat="45.4039132" lon="11.574587"><ele>17.0</ele><time>2026-04-29T08:26:17.229Z</time></trkpt><trkpt lat="45.4038509" lon="11.5745166"><ele>17.0</ele><time>2026-04-29T08:26:18.229Z</time></trkpt><trkpt lat="45.4037879" lon="11.5744429"><ele>16.833333333333336</ele><time>2026-04-29T08:26:19.23Z</time></trkpt><trkpt lat="45.4037217" lon="11.5743647"><ele>16.666666666666668</ele><time>2026-04-29T08:26:20.229Z</time></trkpt><trkpt lat="45.4036571" lon="11.5742896"><ele>16.5</ele><time>2026-04-29T08:26:21.229Z</time></trkpt><trkpt lat="45.4035919" lon="11.5742126"><ele>16.333333333333332</ele><time>2026-04-29T08:26:22.229Z</time></trkpt><trkpt lat="45.4035287" lon="11.5741391"><ele>16.166666666666664</ele><time>2026-04-29T08:26:23.23Z</time></trkpt><trkpt lat="45.4034638" lon="11.5740622"><ele>16.0</ele><time>2026-04-29T08:26:24.229Z</time></trkpt><trkpt lat="45.4033995" lon="11.5739853"><ele>15.999999999999998</ele><time>2026-04-29T08:26:25.229Z</time></trkpt><trkpt lat="45.4033371" lon="11.5739041"><ele>16.0</ele><time>2026-04-29T08:26:26.229Z</time></trkpt><trkpt lat="45.4032742" lon="11.5738263"><ele>16.0</ele><time>2026-04-29T08:26:27.229Z</time></trkpt><trkpt lat="45.4032136" lon="11.5737491"><ele>16.0</ele><time>2026-04-29T08:26:28.229Z</time></trkpt><trkpt lat="45.4031537" lon="11.5736697"><ele>15.999999999999998</ele><time>2026-04-29T08:26:29.23Z</time></trkpt><trkpt lat="45.4030934" lon="11.5735957"><ele>16.0</ele><time>2026-04-29T08:26:30.229Z</time></trkpt><trkpt lat="45.4030331" lon="11.5735281"><ele>16.166666666666664</ele><time>2026-04-29T08:26:31.229Z</time></trkpt><trkpt lat="45.4029741" lon="11.5734558"><ele>16.333333333333332</ele><time>2026-04-29T08:26:32.229Z</time></trkpt><trkpt lat="45.4029162" lon="11.5733892"><ele>16.5</ele><time>2026-04-29T08:26:33.23Z</time></trkpt><trkpt lat="45.4028581" lon="11.5733231"><ele>16.666666666666668</ele><time>2026-04-29T08:26:34.229Z</time></trkpt><trkpt lat="45.4027993" lon="11.5732557"><ele>16.833333333333336</ele><time>2026-04-29T08:26:35.229Z</time></trkpt><trkpt lat="45.4027428" lon="11.5731836"><ele>17.0</ele><time>2026-04-29T08:26:36.229Z</time></trkpt><trkpt lat="45.4026843" lon="11.5731112"><ele>17.0</ele><time>2026-04-29T08:26:37.23Z</time></trkpt><trkpt lat="45.4026252" lon="11.5730433"><ele>17.0</ele><time>2026-04-29T08:26:38.23Z</time></trkpt><trkpt lat="45.4025665" lon="11.5729712"><ele>17.0</ele><time>2026-04-29T08:26:39.23Z</time></trkpt><trkpt lat="45.4025099" lon="11.572899"><ele>17.0</ele><time>2026-04-29T08:26:40.229Z</time></trkpt><trkpt lat="45.4024511" lon="11.5728263"><ele>17.0</ele><time>2026-04-29T08:26:41.23Z</time></trkpt><trkpt lat="45.4023944" lon="11.5727543"><ele>17.0</ele><time>2026-04-29T08:26:42.229Z</time></trkpt><trkpt lat="45.4023336" lon="11.5726818"><ele>16.999999999999996</ele><time>2026-04-29T08:26:43.23Z</time></trkpt><trkpt lat="45.4022754" lon="11.5726096"><ele>17.0</ele><time>2026-04-29T08:26:44.23Z</time></trkpt><trkpt lat="45.4022201" lon="11.5725387"><ele>17.0</ele><time>2026-04-29T08:26:45.229Z</time></trkpt><trkpt lat="45.4021674" lon="11.5724687"><ele>17.0</ele><time>2026-04-29T08:26:46.23Z</time></trkpt><trkpt lat="45.4021084" lon="11.5723989"><ele>17.0</ele><time>2026-04-29T08:26:47.229Z</time></trkpt><trkpt lat="45.4020531" lon="11.572333"><ele>16.999999999999996</ele><time>2026-04-29T08:26:48.229Z</time></trkpt><trkpt lat="45.4019968" lon="11.5722647"><ele>17.0</ele><time>2026-04-29T08:26:49.23Z</time></trkpt><trkpt lat="45.4019409" lon="11.5721957"><ele>16.833333333333336</ele><time>2026-04-29T08:26:50.229Z</time></trkpt><trkpt lat="45.4018827" lon="11.5721232"><ele>16.666666666666668</ele><time>2026-04-29T08:26:51.229Z</time></trkpt><trkpt lat="45.4018238" lon="11.5720504"><ele>16.5</ele><time>2026-04-29T08:26:52.229Z</time></trkpt><trkpt lat="45.4017607" lon="11.5719782"><ele>16.333333333333332</ele><time>2026-04-29T08:26:53.229Z</time></trkpt><trkpt lat="45.4016992" lon="11.5719083"><ele>16.166666666666664</ele><time>2026-04-29T08:26:54.229Z</time></trkpt><trkpt lat="45.401637" lon="11.5718331"><ele>16.0</ele><time>2026-04-29T08:26:55.229Z</time></trkpt><trkpt lat="45.4015759" lon="11.5717558"><ele>15.999999999999998</ele><time>2026-04-29T08:26:56.229Z</time></trkpt><trkpt lat="45.4015136" lon="11.571683"><ele>16.0</ele><time>2026-04-29T08:26:57.229Z</time></trkpt><trkpt lat="45.4014508" lon="11.5716083"><ele>16.0</ele><time>2026-04-29T08:26:58.229Z</time></trkpt><trkpt lat="45.4013886" lon="11.5715338"><ele>16.0</ele><time>2026-04-29T08:26:59.229Z</time></trkpt><trkpt lat="45.4013256" lon="11.5714592"><ele>15.999999999999998</ele><time>2026-04-29T08:27:00.229Z</time></trkpt><trkpt lat="45.4012608" lon="11.5713836"><ele>16.0</ele><time>2026-04-29T08:27:01.23Z</time></trkpt><trkpt lat="45.4011942" lon="11.5713029"><ele>15.999999999999998</ele><time>2026-04-29T08:27:02.23Z</time></trkpt><trkpt lat="45.4011279" lon="11.5712241"><ele>16.0</ele><time>2026-04-29T08:27:03.229Z</time></trkpt><trkpt lat="45.4010645" lon="11.5711452"><ele>16.0</ele><time>2026-04-29T08:27:04.23Z</time></trkpt><trkpt lat="45.401003" lon="11.5710685"><ele>16.0</ele><time>2026-04-29T08:27:05.229Z</time></trkpt><trkpt lat="45.4009358" lon="11.5709919"><ele>15.999999999999998</ele><time>2026-04-29T08:27:06.229Z</time></trkpt><trkpt lat="45.400872" lon="11.5709113"><ele>16.0</ele><time>2026-04-29T08:27:07.23Z</time></trkpt><trkpt lat="45.4008092" lon="11.5708272"><ele>15.999999999999998</ele><time>2026-04-29T08:27:08.229Z</time></trkpt><trkpt lat="45.4007487" lon="11.5707386"><ele>16.0</ele><time>2026-04-29T08:27:09.229Z</time></trkpt><trkpt lat="45.4006851" lon="11.5706469"><ele>16.0</ele><time>2026-04-29T08:27:10.23Z</time></trkpt><trkpt lat="45.4006184" lon="11.5705616"><ele>16.0</ele><time>2026-04-29T08:27:11.229Z</time></trkpt><trkpt lat="45.4005502" lon="11.5704885"><ele>15.999999999999998</ele><time>2026-04-29T08:27:12.229Z</time></trkpt><trkpt lat="45.4004864" lon="11.5704138"><ele>16.0</ele><time>2026-04-29T08:27:13.229Z</time></trkpt><trkpt lat="45.4004211" lon="11.5703336"><ele>16.400000000000002</ele><time>2026-04-29T08:27:14.229Z</time></trkpt><trkpt lat="45.4003532" lon="11.5702465"><ele>16.8</ele><time>2026-04-29T08:27:15.23Z</time></trkpt><trkpt lat="45.4002855" lon="11.5701633"><ele>17.200000000000003</ele><time>2026-04-29T08:27:16.229Z</time></trkpt><trkpt lat="45.4002142" lon="11.5700817"><ele>17.6</ele><time>2026-04-29T08:27:17.229Z</time></trkpt><trkpt lat="45.4001462" lon="11.569998"><ele>18.0</ele><time>2026-04-29T08:27:18.228Z</time></trkpt><trkpt lat="45.4000783" lon="11.5699156"><ele>18.0</ele><time>2026-04-29T08:27:19.229Z</time></trkpt><trkpt lat="45.4000108" lon="11.5698254"><ele>18.0</ele><time>2026-04-29T08:27:20.228Z</time></trkpt><trkpt lat="45.399945" lon="11.5697404"><ele>18.0</ele><time>2026-04-29T08:27:21.228Z</time></trkpt><trkpt lat="45.3998766" lon="11.569656"><ele>18.0</ele><time>2026-04-29T08:27:22.229Z</time></trkpt><trkpt lat="45.3998071" lon="11.5695699"><ele>18.0</ele><time>2026-04-29T08:27:23.228Z</time></trkpt><trkpt lat="45.39974" lon="11.5694948"><ele>18.0</ele><time>2026-04-29T08:27:24.228Z</time></trkpt><trkpt lat="45.399673" lon="11.5694135"><ele>18.333333333333332</ele><time>2026-04-29T08:27:25.228Z</time></trkpt><trkpt lat="45.3996071" lon="11.5693324"><ele>18.666666666666668</ele><time>2026-04-29T08:27:26.228Z</time></trkpt><trkpt lat="45.3995449" lon="11.5692489"><ele>19.0</ele><time>2026-04-29T08:27:27.228Z</time></trkpt><trkpt lat="45.3994822" lon="11.5691717"><ele>19.333333333333336</ele><time>2026-04-29T08:27:28.228Z</time></trkpt><trkpt lat="45.3994189" lon="11.5690954"><ele>19.666666666666668</ele><time>2026-04-29T08:27:29.229Z</time></trkpt><trkpt lat="45.399359" lon="11.569018"><ele>20.0</ele><time>2026-04-29T08:27:30.228Z</time></trkpt><trkpt lat="45.3992944" lon="11.5689409"><ele>20.0</ele><time>2026-04-29T08:27:31.229Z</time></trkpt><trkpt lat="45.3992272" lon="11.5688641"><ele>20.0</ele><time>2026-04-29T08:27:32.228Z</time></trkpt><trkpt lat="45.3991624" lon="11.5687821"><ele>20.0</ele><time>2026-04-29T08:27:33.229Z</time></trkpt><trkpt lat="45.3991002" lon="11.5687019"><ele>20.0</ele><time>2026-04-29T08:27:34.228Z</time></trkpt><trkpt lat="45.3990412" lon="11.5686224"><ele>20.0</ele><time>2026-04-29T08:27:35.228Z</time></trkpt><trkpt lat="45.3989798" lon="11.5685441"><ele>20.0</ele><time>2026-04-29T08:27:36.228Z</time></trkpt><trkpt lat="45.3989182" lon="11.5684676"><ele>19.666666666666668</ele><time>2026-04-29T08:27:37.228Z</time></trkpt><trkpt lat="45.3988581" lon="11.5683951"><ele>19.333333333333336</ele><time>2026-04-29T08:27:38.228Z</time></trkpt><trkpt lat="45.398797" lon="11.5683164"><ele>19.0</ele><time>2026-04-29T08:27:39.228Z</time></trkpt><trkpt lat="45.3987351" lon="11.5682443"><ele>18.666666666666668</ele><time>2026-04-29T08:27:40.228Z</time></trkpt><trkpt lat="45.3986757" lon="11.5681641"><ele>18.333333333333332</ele><time>2026-04-29T08:27:41.228Z</time></trkpt><trkpt lat="45.3986165" lon="11.5680853"><ele>18.0</ele><time>2026-04-29T08:27:42.228Z</time></trkpt><trkpt lat="45.3985572" lon="11.5680108"><ele>18.0</ele><time>2026-04-29T08:27:43.228Z</time></trkpt><trkpt lat="45.3984977" lon="11.5679407"><ele>18.0</ele><time>2026-04-29T08:27:44.228Z</time></trkpt><trkpt lat="45.3984352" lon="11.5678685"><ele>18.0</ele><time>2026-04-29T08:27:45.228Z</time></trkpt><trkpt lat="45.3983713" lon="11.5677959"><ele>18.0</ele><time>2026-04-29T08:27:46.228Z</time></trkpt><trkpt lat="45.3983109" lon="11.5677206"><ele>18.0</ele><time>2026-04-29T08:27:47.229Z</time></trkpt><trkpt lat="45.3982502" lon="11.5676456"><ele>18.0</ele><time>2026-04-29T08:27:48.228Z</time></trkpt><trkpt lat="45.39819" lon="11.567572"><ele>17.666666666666668</ele><time>2026-04-29T08:27:49.228Z</time></trkpt><trkpt lat="45.3981314" lon="11.5674938"><ele>17.333333333333332</ele><time>2026-04-29T08:27:50.228Z</time></trkpt><trkpt lat="45.3980726" lon="11.5674197"><ele>17.0</ele><time>2026-04-29T08:27:51.228Z</time></trkpt><trkpt lat="45.3980165" lon="11.5673521"><ele>16.666666666666664</ele><time>2026-04-29T08:27:52.228Z</time></trkpt><trkpt lat="45.3979588" lon="11.567285"><ele>16.333333333333332</ele><time>2026-04-29T08:27:53.228Z</time></trkpt><trkpt lat="45.3978983" lon="11.5672189"><ele>16.0</ele><time>2026-04-29T08:27:54.229Z</time></trkpt><trkpt lat="45.3978429" lon="11.567151"><ele>16.0</ele><time>2026-04-29T08:27:55.229Z</time></trkpt><trkpt lat="45.3977884" lon="11.5670831"><ele>15.999999999999998</ele><time>2026-04-29T08:27:56.228Z</time></trkpt><trkpt lat="45.3977348" lon="11.5670162"><ele>16.0</ele><time>2026-04-29T08:27:57.228Z</time></trkpt><trkpt lat="45.3976838" lon="11.5669466"><ele>16.0</ele><time>2026-04-29T08:27:58.229Z</time></trkpt><trkpt lat="45.3976325" lon="11.5668807"><ele>15.999999999999998</ele><time>2026-04-29T08:27:59.229Z</time></trkpt><trkpt lat="45.397579" lon="11.5668209"><ele>16.0</ele><time>2026-04-29T08:28:00.228Z</time></trkpt><trkpt lat="45.3975259" lon="11.5667586"><ele>16.0</ele><time>2026-04-29T08:28:01.228Z</time></trkpt><trkpt lat="45.3974737" lon="11.5666969"><ele>16.142857142857142</ele><time>2026-04-29T08:28:02.229Z</time></trkpt><trkpt lat="45.3974243" lon="11.5666318"><ele>16.285714285714285</ele><time>2026-04-29T08:28:03.229Z</time></trkpt><trkpt lat="45.3973708" lon="11.5665639"><ele>16.428571428571427</ele><time>2026-04-29T08:28:04.228Z</time></trkpt><trkpt lat="45.3973203" lon="11.5664974"><ele>16.57142857142857</ele><time>2026-04-29T08:28:05.229Z</time></trkpt><trkpt lat="45.3972662" lon="11.5664392"><ele>16.714285714285715</ele><time>2026-04-29T08:28:06.228Z</time></trkpt><trkpt lat="45.3972174" lon="11.5663734"><ele>16.857142857142854</ele><time>2026-04-29T08:28:07.228Z</time></trkpt><trkpt lat="45.3971663" lon="11.5663192"><ele>17.0</ele><time>2026-04-29T08:28:08.228Z</time></trkpt><trkpt lat="45.3970721" lon="11.5662028"><ele>17.166666666666668</ele><time>2026-04-29T08:28:10.228Z</time></trkpt><trkpt lat="45.3969887" lon="11.5661222"><ele>17.333333333333336</ele><time>2026-04-29T08:28:12.228Z</time></trkpt><trkpt lat="45.3969443" lon="11.5660445"><ele>17.5</ele><time>2026-04-29T08:28:14.228Z</time></trkpt><trkpt lat="45.3969819" lon="11.5659682"><ele>17.666666666666668</ele><time>2026-04-29T08:28:16.229Z</time></trkpt><trkpt lat="45.3970383" lon="11.5658673"><ele>17.833333333333332</ele><time>2026-04-29T08:28:19.228Z</time></trkpt><trkpt lat="45.3970957" lon="11.5658078"><ele>18.0</ele><time>2026-04-29T08:28:21.229Z</time></trkpt><trkpt lat="45.3971551" lon="11.5657398"><ele>18.166666666666668</ele><time>2026-04-29T08:28:23.229Z</time></trkpt><trkpt lat="45.3972155" lon="11.5656547"><ele>18.333333333333332</ele><time>2026-04-29T08:28:25.228Z</time></trkpt><trkpt lat="45.3972826" lon="11.5655751"><ele>18.5</ele><time>2026-04-29T08:28:27.228Z</time></trkpt><trkpt lat="45.3973434" lon="11.5655022"><ele>18.666666666666664</ele><time>2026-04-29T08:28:29.229Z</time></trkpt><trkpt lat="45.3974112" lon="11.5654394"><ele>18.833333333333332</ele><time>2026-04-29T08:28:31.229Z</time></trkpt><trkpt lat="45.3974768" lon="11.5653899"><ele>19.0</ele><time>2026-04-29T08:28:33.228Z</time></trkpt><trkpt lat="45.3975343" lon="11.5653414"><ele>19.0</ele><time>2026-04-29T08:28:35.228Z</time></trkpt><trkpt lat="45.397595" lon="11.5652933"><ele>19.0</ele><time>2026-04-29T08:28:37.228Z</time></trkpt><trkpt lat="45.3976598" lon="11.5652151"><ele>19.0</ele><time>2026-04-29T08:28:40.228Z</time></trkpt><trkpt lat="45.3977315" lon="11.5651342"><ele>19.0</ele><time>2026-04-29T08:28:43.229Z</time></trkpt><trkpt lat="45.3977955" lon="11.5650795"><ele>19.0</ele><time>2026-04-29T08:28:46.229Z</time></trkpt><trkpt lat="45.3978446" lon="11.5650212"><ele>19.0</ele><time>2026-04-29T08:28:49.228Z</time></trkpt><trkpt lat="45.3979166" lon="11.5649705"><ele>19.0</ele><time>2026-04-29T08:28:53.228Z</time></trkpt><trkpt lat="45.3979873" lon="11.5649673"><ele>19.0</ele><time>2026-04-29T08:30:22.228Z</time></trkpt><trkpt lat="45.3980492" lon="11.5649335"><ele>19.0</ele><time>2026-04-29T08:30:26.228Z</time></trkpt><trkpt lat="45.3981189" lon="11.564915"><ele>19.0</ele><time>2026-04-29T08:30:31.229Z</time></trkpt><trkpt lat="45.3981887" lon="11.5649089"><ele>19.0</ele><time>2026-04-29T08:30:35.229Z</time></trkpt><trkpt lat="45.398265" lon="11.5648972"><ele>19.0</ele><time>2026-04-29T08:30:40.228Z</time></trkpt><trkpt lat="45.3983371" lon="11.5648804"><ele>19.0</ele><time>2026-04-29T08:30:45.228Z</time></trkpt><trkpt lat="45.3983997" lon="11.5648682"><ele>21.0</ele><time>2026-04-29T08:30:49.229Z</time></trkpt><trkpt lat="45.3984726" lon="11.5648456"><ele>23.0</ele><time>2026-04-29T08:30:55.228Z</time></trkpt><trkpt lat="45.3985463" lon="11.5648421"><ele>25.0</ele><time>2026-04-29T08:31:00.228Z</time></trkpt><trkpt lat="45.39861" lon="11.5648416"><ele>27.0</ele><time>2026-04-29T08:31:04.227Z</time></trkpt><trkpt lat="45.3986861" lon="11.5648387"><ele>29.0</ele><time>2026-04-29T08:31:09.227Z</time></trkpt><trkpt lat="45.3987653" lon="11.5648618"><ele>31.0</ele><time>2026-04-29T08:31:15.227Z</time></trkpt><trkpt lat="45.3988307" lon="11.5648534"><ele>33.0</ele><time>2026-04-29T08:31:20.228Z</time></trkpt><trkpt lat="45.3989024" lon="11.5648865"><ele>35.14285714285714</ele><time>2026-04-29T08:31:26.227Z</time></trkpt><trkpt lat="45.3989698" lon="11.5648879"><ele>37.285714285714285</ele><time>2026-04-29T08:31:31.228Z</time></trkpt><trkpt lat="45.3990425" lon="11.564882"><ele>39.42857142857143</ele><time>2026-04-29T08:31:37.227Z</time></trkpt><trkpt lat="45.3991117" lon="11.5649012"><ele>41.57142857142857</ele><time>2026-04-29T08:31:42.227Z</time></trkpt><trkpt lat="45.3991844" lon="11.564917"><ele>43.714285714285715</ele><time>2026-04-29T08:31:47.227Z</time></trkpt><trkpt lat="45.399254" lon="11.5649198"><ele>45.857142857142854</ele><time>2026-04-29T08:31:52.227Z</time></trkpt><trkpt lat="45.3993189" lon="11.5649202"><ele>48.0</ele><time>2026-04-29T08:31:57.228Z</time></trkpt><trkpt lat="45.399392" lon="11.5649463"><ele>47.99999999999999</ele><time>2026-04-29T08:32:02.227Z</time></trkpt><trkpt lat="45.3994676" lon="11.564939"><ele>48.0</ele><time>2026-04-29T08:32:07.228Z</time></trkpt><trkpt lat="45.3995397" lon="11.5649467"><ele>48.0</ele><time>2026-04-29T08:32:12.227Z</time></trkpt><trkpt lat="45.3996071" lon="11.5649567"><ele>48.0</ele><time>2026-04-29T08:32:17.227Z</time></trkpt><trkpt lat="45.3996762" lon="11.5649572"><ele>48.0</ele><time>2026-04-29T08:32:22.227Z</time></trkpt><trkpt lat="45.3997411" lon="11.5649584"><ele>47.99999999999999</ele><time>2026-04-29T08:32:27.227Z</time></trkpt><trkpt lat="45.3998179" lon="11.5649727"><ele>48.0</ele><time>2026-04-29T08:32:33.227Z</time></trkpt><trkpt lat="45.399884" lon="11.564978"><ele>49.42857142857142</ele><time>2026-04-29T08:32:38.228Z</time></trkpt><trkpt lat="45.3999569" lon="11.5649828"><ele>50.85714285714286</ele><time>2026-04-29T08:32:44.228Z</time></trkpt><trkpt lat="45.4000246" lon="11.5650026"><ele>52.28571428571429</ele><time>2026-04-29T08:32:49.228Z</time></trkpt><trkpt lat="45.4000987" lon="11.5650224"><ele>53.714285714285715</ele><time>2026-04-29T08:32:54.227Z</time></trkpt><trkpt lat="45.40017" lon="11.5650229"><ele>55.142857142857146</ele><time>2026-04-29T08:32:59.227Z</time></trkpt><trkpt lat="45.4002358" lon="11.5650472"><ele>56.57142857142858</ele><time>2026-04-29T08:33:04.227Z</time></trkpt><trkpt lat="45.400306" lon="11.5650396"><ele>58.00000000000001</ele><time>2026-04-29T08:33:09.228Z</time></trkpt><trkpt lat="45.4003727" lon="11.5650474"><ele>58.00000000000001</ele><time>2026-04-29T08:33:13.227Z</time></trkpt><trkpt lat="45.400436" lon="11.5650621"><ele>58.0</ele><time>2026-04-29T08:33:17.227Z</time></trkpt><trkpt lat="45.4005015" lon="11.565082"><ele>58.00000000000001</ele><time>2026-04-29T08:33:22.228Z</time></trkpt><trkpt lat="45.4005761" lon="11.5650959"><ele>58.00000000000001</ele><time>2026-04-29T08:33:27.227Z</time></trkpt><trkpt lat="45.400644" lon="11.5651099"><ele>58.0</ele><time>2026-04-29T08:33:31.227Z</time></trkpt><trkpt lat="45.4007094" lon="11.5651232"><ele>58.00000000000001</ele><time>2026-04-29T08:33:35.227Z</time></trkpt><trkpt lat="45.4007832" lon="11.5651428"><ele>58.00000000000001</ele><time>2026-04-29T08:33:40.227Z</time></trkpt><trkpt lat="45.4008534" lon="11.5651492"><ele>59.14285714285715</ele><time>2026-04-29T08:33:44.227Z</time></trkpt><trkpt lat="45.4009185" lon="11.5651541"><ele>60.28571428571429</ele><time>2026-04-29T08:33:48.227Z</time></trkpt><trkpt lat="45.4009973" lon="11.5651511"><ele>61.42857142857143</ele><time>2026-04-29T08:33:53.227Z</time></trkpt><trkpt lat="45.4010773" lon="11.5651643"><ele>62.57142857142858</ele><time>2026-04-29T08:33:58.227Z</time></trkpt><trkpt lat="45.4011554" lon="11.565176"><ele>63.71428571428572</ele><time>2026-04-29T08:34:03.227Z</time></trkpt><trkpt lat="45.4012307" lon="11.5651821"><ele>64.85714285714286</ele><time>2026-04-29T08:34:08.227Z</time></trkpt><trkpt lat="45.4012972" lon="11.5651938"><ele>66.0</ele><time>2026-04-29T08:34:12.227Z</time></trkpt><trkpt lat="45.4013643" lon="11.5651975"><ele>67.14285714285714</ele><time>2026-04-29T08:34:16.227Z</time></trkpt><trkpt lat="45.4014281" lon="11.5652"><ele>68.28571428571429</ele><time>2026-04-29T08:34:20.228Z</time></trkpt><trkpt lat="45.4014966" lon="11.5652071"><ele>69.42857142857143</ele><time>2026-04-29T08:34:25.227Z</time></trkpt><trkpt lat="45.4015619" lon="11.565187"><ele>70.57142857142857</ele><time>2026-04-29T08:34:29.227Z</time></trkpt><trkpt lat="45.4016295" lon="11.5651779"><ele>71.71428571428571</ele><time>2026-04-29T08:34:33.227Z</time></trkpt><trkpt lat="45.4017086" lon="11.5651855"><ele>72.85714285714286</ele><time>2026-04-29T08:34:37.228Z</time></trkpt><trkpt lat="45.401771" lon="11.565198"><ele>74.0</ele><time>2026-04-29T08:34:40.227Z</time></trkpt><trkpt lat="45.4018486" lon="11.5651705"><ele>74.0</ele><time>2026-04-29T08:34:44.226Z</time></trkpt><trkpt lat="45.4019125" lon="11.5651278"><ele>74.0</ele><time>2026-04-29T08:34:48.226Z</time></trkpt><trkpt lat="45.401971" lon="11.5650798"><ele>74.0</ele><time>2026-04-29T08:34:51.226Z</time></trkpt><trkpt lat="45.4020314" lon="11.5650374"><ele>74.0</ele><time>2026-04-29T08:34:55.226Z</time></trkpt><trkpt lat="45.4020415" lon="11.5649337"><ele>74.0</ele><time>2026-04-29T08:35:10.226Z</time></trkpt><trkpt lat="45.4019733" lon="11.5649495"><ele>74.0</ele><time>2026-04-29T08:35:20.226Z</time></trkpt><trkpt lat="45.4019114" lon="11.5649768"><ele>74.0</ele><time>2026-04-29T08:35:26.226Z</time></trkpt><trkpt lat="45.4018553" lon="11.5650277"><ele>74.0</ele><time>2026-04-29T08:35:34.227Z</time></trkpt></trkseg><trkseg><trkpt lat="45.4012037" lon="11.5653097"><ele>66.0</ele><time>2026-04-29T08:49:01.221Z</time></trkpt><trkpt lat="45.4012664" lon="11.5653543"><ele>66.0</ele><time>2026-04-29T08:49:06.22Z</time></trkpt><trkpt lat="45.4013406" lon="11.5653562"><ele>66.0</ele><time>2026-04-29T08:49:10.22Z</time></trkpt><trkpt lat="45.4014029" lon="11.5653369"><ele>66.0</ele><time>2026-04-29T08:49:13.221Z</time></trkpt><trkpt lat="45.4014733" lon="11.5653169"><ele>66.0</ele><time>2026-04-29T08:49:16.221Z</time></trkpt><trkpt lat="45.4015607" lon="11.5652894"><ele>66.0</ele><time>2026-04-29T08:49:19.221Z</time></trkpt><trkpt lat="45.4016302" lon="11.5652585"><ele>66.0</ele><time>2026-04-29T08:49:21.22Z</time></trkpt><trkpt lat="45.4016994" lon="11.5652202"><ele>67.33333333333333</ele><time>2026-04-29T08:49:23.22Z</time></trkpt><trkpt lat="45.4017727" lon="11.5651762"><ele>68.66666666666667</ele><time>2026-04-29T08:49:25.22Z</time></trkpt><trkpt lat="45.4018503" lon="11.5651436"><ele>70.0</ele><time>2026-04-29T08:49:27.22Z</time></trkpt><trkpt lat="45.4019353" lon="11.5650988"><ele>71.33333333333334</ele><time>2026-04-29T08:49:30.221Z</time></trkpt><trkpt lat="45.4020224" lon="11.565048"><ele>72.66666666666667</ele><time>2026-04-29T08:49:33.22Z</time></trkpt><trkpt lat="45.4020891" lon="11.5650125"><ele>74.0</ele><time>2026-04-29T08:49:35.22Z</time></trkpt><trkpt lat="45.402151" lon="11.564977"><ele>74.33333333333334</ele><time>2026-04-29T08:49:37.22Z</time></trkpt><trkpt lat="45.4022177" lon="11.5649495"><ele>74.66666666666667</ele><time>2026-04-29T08:49:39.22Z</time></trkpt><trkpt lat="45.40229" lon="11.5648963"><ele>75.0</ele><time>2026-04-29T08:49:41.22Z</time></trkpt><trkpt lat="45.4023784" lon="11.5648551"><ele>75.33333333333333</ele><time>2026-04-29T08:49:43.22Z</time></trkpt><trkpt lat="45.402482" lon="11.5648077"><ele>75.66666666666666</ele><time>2026-04-29T08:49:45.22Z</time></trkpt><trkpt lat="45.402545" lon="11.5647691"><ele>76.0</ele><time>2026-04-29T08:49:46.22Z</time></trkpt><trkpt lat="45.4026067" lon="11.5647373"><ele>76.0</ele><time>2026-04-29T08:49:47.221Z</time></trkpt><trkpt lat="45.4026716" lon="11.5647085"><ele>76.0</ele><time>2026-04-29T08:49:48.22Z</time></trkpt><trkpt lat="45.4027417" lon="11.5646807"><ele>76.0</ele><time>2026-04-29T08:49:49.221Z</time></trkpt><trkpt lat="45.4028086" lon="11.5646644"><ele>76.0</ele><time>2026-04-29T08:49:50.22Z</time></trkpt><trkpt lat="45.4028783" lon="11.5646485"><ele>76.0</ele><time>2026-04-29T08:49:51.221Z</time></trkpt><trkpt lat="45.4029488" lon="11.5646507"><ele>76.0</ele><time>2026-04-29T08:49:52.221Z</time></trkpt><trkpt lat="45.4030207" lon="11.5646555"><ele>76.0</ele><time>2026-04-29T08:49:53.22Z</time></trkpt><trkpt lat="45.4031009" lon="11.5646643"><ele>75.83333333333333</ele><time>2026-04-29T08:49:54.22Z</time></trkpt><trkpt lat="45.4031736" lon="11.5646727"><ele>75.66666666666666</ele><time>2026-04-29T08:49:55.221Z</time></trkpt><trkpt lat="45.4032435" lon="11.5646706"><ele>75.5</ele><time>2026-04-29T08:49:56.22Z</time></trkpt><trkpt lat="45.4033128" lon="11.5646804"><ele>75.33333333333333</ele><time>2026-04-29T08:49:57.221Z</time></trkpt><trkpt lat="45.4033863" lon="11.5646937"><ele>75.16666666666667</ele><time>2026-04-29T08:49:58.22Z</time></trkpt><trkpt lat="45.4034539" lon="11.5647098"><ele>75.0</ele><time>2026-04-29T08:49:59.22Z</time></trkpt><trkpt lat="45.4035716" lon="11.5647255"><ele>75.0</ele><time>2026-04-29T08:50:01.221Z</time></trkpt><trkpt lat="45.4036343" lon="11.5647374"><ele>75.0</ele><time>2026-04-29T08:50:02.221Z</time></trkpt><trkpt lat="45.40373" lon="11.56476"><ele>75.0</ele><time>2026-04-29T08:50:04.221Z</time></trkpt><trkpt lat="45.4038287" lon="11.5647922"><ele>75.0</ele><time>2026-04-29T08:50:06.22Z</time></trkpt><trkpt lat="45.4039104" lon="11.5648355"><ele>75.0</ele><time>2026-04-29T08:50:08.22Z</time></trkpt><trkpt lat="45.40398" lon="11.5649022"><ele>75.0</ele><time>2026-04-29T08:50:10.22Z</time></trkpt><trkpt lat="45.4040385" lon="11.5649481"><ele>74.83333333333333</ele><time>2026-04-29T08:50:12.221Z</time></trkpt><trkpt lat="45.4041219" lon="11.5649907"><ele>74.66666666666667</ele><time>2026-04-29T08:50:14.221Z</time></trkpt><trkpt lat="45.4041852" lon="11.5650709"><ele>74.5</ele><time>2026-04-29T08:50:16.221Z</time></trkpt><trkpt lat="45.4042472" lon="11.5651643"><ele>74.33333333333334</ele><time>2026-04-29T08:50:18.221Z</time></trkpt><trkpt lat="45.4042996" lon="11.5652677"><ele>74.16666666666667</ele><time>2026-04-29T08:50:20.22Z</time></trkpt><trkpt lat="45.4043424" lon="11.5653829"><ele>74.0</ele><time>2026-04-29T08:50:22.22Z</time></trkpt><trkpt lat="45.4043863" lon="11.5654944"><ele>73.66666666666667</ele><time>2026-04-29T08:50:24.22Z</time></trkpt><trkpt lat="45.4044174" lon="11.5655921"><ele>73.33333333333334</ele><time>2026-04-29T08:50:26.22Z</time></trkpt><trkpt lat="45.4044414" lon="11.5656822"><ele>73.0</ele><time>2026-04-29T08:50:28.22Z</time></trkpt><trkpt lat="45.4044753" lon="11.5657889"><ele>72.66666666666667</ele><time>2026-04-29T08:50:30.22Z</time></trkpt><trkpt lat="45.4045254" lon="11.5659096"><ele>72.33333333333333</ele><time>2026-04-29T08:50:32.22Z</time></trkpt><trkpt lat="45.4045824" lon="11.5660032"><ele>72.0</ele><time>2026-04-29T08:50:34.22Z</time></trkpt><trkpt lat="45.4046611" lon="11.5660821"><ele>73.4</ele><time>2026-04-29T08:50:36.221Z</time></trkpt><trkpt lat="45.4047627" lon="11.5661191"><ele>74.80000000000001</ele><time>2026-04-29T08:50:38.22Z</time></trkpt><trkpt lat="45.4048875" lon="11.5661169"><ele>76.2</ele><time>2026-04-29T08:50:40.22Z</time></trkpt><trkpt lat="45.4050237" lon="11.5661121"><ele>77.60000000000001</ele><time>2026-04-29T08:50:42.221Z</time></trkpt><trkpt lat="45.4050994" lon="11.566115"><ele>79.0</ele><time>2026-04-29T08:50:43.22Z</time></trkpt><trkpt lat="45.4051753" lon="11.5661267"><ele>79.0</ele><time>2026-04-29T08:50:44.22Z</time></trkpt><trkpt lat="45.4052533" lon="11.5661423"><ele>79.0</ele><time>2026-04-29T08:50:45.22Z</time></trkpt><trkpt lat="45.4053305" lon="11.5661649"><ele>79.0</ele><time>2026-04-29T08:50:46.221Z</time></trkpt><trkpt lat="45.4054054" lon="11.5661768"><ele>79.0</ele><time>2026-04-29T08:50:47.221Z</time></trkpt><trkpt lat="45.4054774" lon="11.5662071"><ele>79.0</ele><time>2026-04-29T08:50:48.22Z</time></trkpt><trkpt lat="45.4055501" lon="11.5662389"><ele>79.0</ele><time>2026-04-29T08:50:49.22Z</time></trkpt><trkpt lat="45.4056205" lon="11.5662667"><ele>77.42857142857143</ele><time>2026-04-29T08:50:50.221Z</time></trkpt><trkpt lat="45.405694" lon="11.5662947"><ele>75.85714285714286</ele><time>2026-04-29T08:50:51.22Z</time></trkpt><trkpt lat="45.4057688" lon="11.5663278"><ele>74.28571428571428</ele><time>2026-04-29T08:50:52.22Z</time></trkpt><trkpt lat="45.405844" lon="11.5663632"><ele>72.71428571428572</ele><time>2026-04-29T08:50:53.22Z</time></trkpt><trkpt lat="45.4059158" lon="11.5663835"><ele>71.14285714285714</ele><time>2026-04-29T08:50:54.22Z</time></trkpt><trkpt lat="45.4059865" lon="11.5664121"><ele>69.57142857142857</ele><time>2026-04-29T08:50:55.22Z</time></trkpt><trkpt lat="45.4060496" lon="11.5664396"><ele>68.0</ele><time>2026-04-29T08:50:56.22Z</time></trkpt><trkpt lat="45.4061157" lon="11.5664752"><ele>68.0</ele><time>2026-04-29T08:50:57.22Z</time></trkpt><trkpt lat="45.406181" lon="11.5665043"><ele>68.0</ele><time>2026-04-29T08:50:58.221Z</time></trkpt><trkpt lat="45.4062433" lon="11.5665354"><ele>68.0</ele><time>2026-04-29T08:50:59.221Z</time></trkpt><trkpt lat="45.4063566" lon="11.5666015"><ele>68.0</ele><time>2026-04-29T08:51:01.221Z</time></trkpt><trkpt lat="45.4064656" lon="11.5666801"><ele>68.0</ele><time>2026-04-29T08:51:03.22Z</time></trkpt><trkpt lat="45.4065635" lon="11.566769"><ele>67.83333333333334</ele><time>2026-04-29T08:51:05.22Z</time></trkpt><trkpt lat="45.4066604" lon="11.5668618"><ele>67.66666666666667</ele><time>2026-04-29T08:51:07.22Z</time></trkpt><trkpt lat="45.4067125" lon="11.5670122"><ele>67.5</ele><time>2026-04-29T08:51:09.22Z</time></trkpt><trkpt lat="45.4067258" lon="11.5671054"><ele>67.33333333333333</ele><time>2026-04-29T08:51:10.22Z</time></trkpt><trkpt lat="45.4067333" lon="11.5672126"><ele>67.16666666666666</ele><time>2026-04-29T08:51:11.221Z</time></trkpt><trkpt lat="45.4067319" lon="11.5673156"><ele>67.0</ele><time>2026-04-29T08:51:12.221Z</time></trkpt><trkpt lat="45.4067242" lon="11.5674197"><ele>67.0</ele><time>2026-04-29T08:51:13.221Z</time></trkpt><trkpt lat="45.4067238" lon="11.5675241"><ele>67.0</ele><time>2026-04-29T08:51:14.22Z</time></trkpt><trkpt lat="45.4067262" lon="11.5676307"><ele>67.0</ele><time>2026-04-29T08:51:15.22Z</time></trkpt><trkpt lat="45.4067317" lon="11.5677404"><ele>67.0</ele><time>2026-04-29T08:51:16.22Z</time></trkpt><trkpt lat="45.4067433" lon="11.5678595"><ele>67.0</ele><time>2026-04-29T08:51:17.221Z</time></trkpt><trkpt lat="45.4067622" lon="11.567972"><ele>67.0</ele><time>2026-04-29T08:51:18.221Z</time></trkpt><trkpt lat="45.4067843" lon="11.5680813"><ele>65.83333333333333</ele><time>2026-04-29T08:51:19.221Z</time></trkpt><trkpt lat="45.4068203" lon="11.5681846"><ele>64.66666666666666</ele><time>2026-04-29T08:51:20.221Z</time></trkpt><trkpt lat="45.4068678" lon="11.5682867"><ele>63.5</ele><time>2026-04-29T08:51:21.22Z</time></trkpt><trkpt lat="45.4069129" lon="11.5683851"><ele>62.33333333333333</ele><time>2026-04-29T08:51:22.22Z</time></trkpt><trkpt lat="45.4069445" lon="11.5684821"><ele>61.166666666666664</ele><time>2026-04-29T08:51:23.22Z</time></trkpt><trkpt lat="45.4069722" lon="11.5685768"><ele>60.0</ele><time>2026-04-29T08:51:24.221Z</time></trkpt><trkpt lat="45.4070029" lon="11.5686603"><ele>59.0</ele><time>2026-04-29T08:51:25.22Z</time></trkpt><trkpt lat="45.4070354" lon="11.5687563"><ele>58.0</ele><time>2026-04-29T08:51:26.22Z</time></trkpt><trkpt lat="45.4070964" lon="11.5688929"><ele>57.0</ele><time>2026-04-29T08:51:28.22Z</time></trkpt><trkpt lat="45.4071639" lon="11.5689899"><ele>56.0</ele><time>2026-04-29T08:51:30.221Z</time></trkpt><trkpt lat="45.4072589" lon="11.5690503"><ele>55.0</ele><time>2026-04-29T08:51:32.22Z</time></trkpt><trkpt lat="45.4073739" lon="11.5690958"><ele>56.42857142857142</ele><time>2026-04-29T08:51:34.219Z</time></trkpt><trkpt lat="45.4074391" lon="11.5691188"><ele>57.85714285714286</ele><time>2026-04-29T08:51:35.219Z</time></trkpt><trkpt lat="45.4075078" lon="11.5691406"><ele>59.28571428571429</ele><time>2026-04-29T08:51:36.219Z</time></trkpt><trkpt lat="45.4075764" lon="11.5691643"><ele>60.714285714285715</ele><time>2026-04-29T08:51:37.22Z</time></trkpt><trkpt lat="45.4076417" lon="11.5691886"><ele>62.142857142857146</ele><time>2026-04-29T08:51:38.219Z</time></trkpt><trkpt lat="45.407708" lon="11.569219"><ele>63.57142857142858</ele><time>2026-04-29T08:51:39.219Z</time></trkpt><trkpt lat="45.4077809" lon="11.5692621"><ele>65.0</ele><time>2026-04-29T08:51:40.219Z</time></trkpt><trkpt lat="45.4078475" lon="11.5693204"><ele>65.0</ele><time>2026-04-29T08:51:41.219Z</time></trkpt><trkpt lat="45.4079041" lon="11.5693923"><ele>65.0</ele><time>2026-04-29T08:51:42.22Z</time></trkpt><trkpt lat="45.4079534" lon="11.5694799"><ele>65.0</ele><time>2026-04-29T08:51:43.219Z</time></trkpt><trkpt lat="45.4079957" lon="11.5695771"><ele>65.0</ele><time>2026-04-29T08:51:44.219Z</time></trkpt><trkpt lat="45.4080476" lon="11.5696756"><ele>65.0</ele><time>2026-04-29T08:51:45.219Z</time></trkpt><trkpt lat="45.4080957" lon="11.5697658"><ele>65.0</ele><time>2026-04-29T08:51:46.219Z</time></trkpt><trkpt lat="45.4081461" lon="11.5698678"><ele>64.33333333333334</ele><time>2026-04-29T08:51:47.22Z</time></trkpt><trkpt lat="45.4081926" lon="11.5699697"><ele>63.66666666666667</ele><time>2026-04-29T08:51:48.22Z</time></trkpt><trkpt lat="45.4082372" lon="11.5700688"><ele>63.0</ele><time>2026-04-29T08:51:49.219Z</time></trkpt><trkpt lat="45.4082895" lon="11.5701568"><ele>62.33333333333333</ele><time>2026-04-29T08:51:50.219Z</time></trkpt><trkpt lat="45.4083374" lon="11.5702512"><ele>61.666666666666664</ele><time>2026-04-29T08:51:51.219Z</time></trkpt><trkpt lat="45.4083922" lon="11.5703389"><ele>61.0</ele><time>2026-04-29T08:51:52.219Z</time></trkpt><trkpt lat="45.408448" lon="11.5704283"><ele>60.4</ele><time>2026-04-29T08:51:53.219Z</time></trkpt><trkpt lat="45.4085099" lon="11.5705252"><ele>59.8</ele><time>2026-04-29T08:51:54.219Z</time></trkpt><trkpt lat="45.4085665" lon="11.5706181"><ele>59.199999999999996</ele><time>2026-04-29T08:51:55.219Z</time></trkpt><trkpt lat="45.4086016" lon="11.5707412"><ele>58.599999999999994</ele><time>2026-04-29T08:51:56.22Z</time></trkpt><trkpt lat="45.4086321" lon="11.570877"><ele>58.0</ele><time>2026-04-29T08:51:57.219Z</time></trkpt><trkpt lat="45.4086575" lon="11.5710097"><ele>58.0</ele><time>2026-04-29T08:51:58.219Z</time></trkpt><trkpt lat="45.4086819" lon="11.5711457"><ele>58.0</ele><time>2026-04-29T08:51:59.22Z</time></trkpt><trkpt lat="45.4087127" lon="11.5712778"><ele>58.0</ele><time>2026-04-29T08:52:00.219Z</time></trkpt><trkpt lat="45.4087591" lon="11.5714002"><ele>58.0</ele><time>2026-04-29T08:52:01.219Z</time></trkpt><trkpt lat="45.4088088" lon="11.5715116"><ele>58.0</ele><time>2026-04-29T08:52:02.219Z</time></trkpt><trkpt lat="45.4088595" lon="11.5716213"><ele>58.33333333333333</ele><time>2026-04-29T08:52:03.219Z</time></trkpt><trkpt lat="45.4089155" lon="11.5717192"><ele>58.666666666666664</ele><time>2026-04-29T08:52:04.219Z</time></trkpt><trkpt lat="45.4089799" lon="11.5718041"><ele>59.0</ele><time>2026-04-29T08:52:05.219Z</time></trkpt><trkpt lat="45.4090503" lon="11.5718833"><ele>59.33333333333333</ele><time>2026-04-29T08:52:06.219Z</time></trkpt><trkpt lat="45.4091229" lon="11.5719633"><ele>59.666666666666664</ele><time>2026-04-29T08:52:07.219Z</time></trkpt><trkpt lat="45.4091945" lon="11.5720399"><ele>60.0</ele><time>2026-04-29T08:52:08.219Z</time></trkpt><trkpt lat="45.4092675" lon="11.5721112"><ele>60.0</ele><time>2026-04-29T08:52:09.219Z</time></trkpt><trkpt lat="45.4093361" lon="11.5722009"><ele>60.0</ele><time>2026-04-29T08:52:10.219Z</time></trkpt><trkpt lat="45.4093944" lon="11.5723131"><ele>60.0</ele><time>2026-04-29T08:52:11.219Z</time></trkpt><trkpt lat="45.4094475" lon="11.5724345"><ele>60.0</ele><time>2026-04-29T08:52:12.219Z</time></trkpt><trkpt lat="45.409509" lon="11.5725546"><ele>60.0</ele><time>2026-04-29T08:52:13.219Z</time></trkpt><trkpt lat="45.40958" lon="11.5726641"><ele>60.0</ele><time>2026-04-29T08:52:14.219Z</time></trkpt><trkpt lat="45.4096557" lon="11.5727646"><ele>60.0</ele><time>2026-04-29T08:52:15.219Z</time></trkpt><trkpt lat="45.4097368" lon="11.5728572"><ele>60.0</ele><time>2026-04-29T08:52:16.219Z</time></trkpt><trkpt lat="45.4098207" lon="11.5729481"><ele>60.0</ele><time>2026-04-29T08:52:17.219Z</time></trkpt><trkpt lat="45.4099098" lon="11.5730311"><ele>60.0</ele><time>2026-04-29T08:52:18.219Z</time></trkpt><trkpt lat="45.4100029" lon="11.5730924"><ele>58.0</ele><time>2026-04-29T08:52:19.219Z</time></trkpt><trkpt lat="45.4100874" lon="11.5731478"><ele>56.0</ele><time>2026-04-29T08:52:20.219Z</time></trkpt><trkpt lat="45.4101597" lon="11.5732027"><ele>54.0</ele><time>2026-04-29T08:52:21.22Z</time></trkpt><trkpt lat="45.4102254" lon="11.5732665"><ele>52.0</ele><time>2026-04-29T08:52:22.22Z</time></trkpt><trkpt lat="45.4102769" lon="11.5733402"><ele>50.0</ele><time>2026-04-29T08:52:23.22Z</time></trkpt><trkpt lat="45.410319" lon="11.5734281"><ele>48.0</ele><time>2026-04-29T08:52:24.219Z</time></trkpt><trkpt lat="45.4103504" lon="11.5735296"><ele>48.0</ele><time>2026-04-29T08:52:25.22Z</time></trkpt><trkpt lat="45.4103688" lon="11.5736345"><ele>48.0</ele><time>2026-04-29T08:52:26.219Z</time></trkpt><trkpt lat="45.4103593" lon="11.5737472"><ele>48.0</ele><time>2026-04-29T08:52:27.219Z</time></trkpt><trkpt lat="45.4103364" lon="11.5738653"><ele>48.0</ele><time>2026-04-29T08:52:28.219Z</time></trkpt><trkpt lat="45.4102941" lon="11.5739881"><ele>48.0</ele><time>2026-04-29T08:52:29.22Z</time></trkpt><trkpt lat="45.4102393" lon="11.5741037"><ele>48.0</ele><time>2026-04-29T08:52:30.22Z</time></trkpt><trkpt lat="45.4101866" lon="11.574223"><ele>47.0</ele><time>2026-04-29T08:52:31.219Z</time></trkpt><trkpt lat="45.4101229" lon="11.5743347"><ele>46.0</ele><time>2026-04-29T08:52:32.22Z</time></trkpt><trkpt lat="45.4100653" lon="11.5744451"><ele>45.0</ele><time>2026-04-29T08:52:33.219Z</time></trkpt><trkpt lat="45.4100029" lon="11.574552"><ele>44.0</ele><time>2026-04-29T08:52:34.22Z</time></trkpt><trkpt lat="45.4099431" lon="11.5746572"><ele>43.0</ele><time>2026-04-29T08:52:35.22Z</time></trkpt><trkpt lat="45.4098875" lon="11.5747678"><ele>40.0</ele><time>2026-04-29T08:52:36.22Z</time></trkpt><trkpt lat="45.4098376" lon="11.5748759"><ele>37.0</ele><time>2026-04-29T08:52:37.219Z</time></trkpt><trkpt lat="45.4097861" lon="11.5749761"><ele>34.0</ele><time>2026-04-29T08:52:38.219Z</time></trkpt><trkpt lat="45.4097434" lon="11.5750746"><ele>31.0</ele><time>2026-04-29T08:52:39.22Z</time></trkpt><trkpt lat="45.4097267" lon="11.5751854"><ele>28.000000000000004</ele><time>2026-04-29T08:52:40.219Z</time></trkpt><trkpt lat="45.4097215" lon="11.5753131"><ele>25.0</ele><time>2026-04-29T08:52:41.219Z</time></trkpt><trkpt lat="45.4097285" lon="11.5754424"><ele>23.833333333333336</ele><time>2026-04-29T08:52:42.219Z</time></trkpt><trkpt lat="45.4097524" lon="11.5755644"><ele>22.666666666666668</ele><time>2026-04-29T08:52:43.22Z</time></trkpt><trkpt lat="45.4097838" lon="11.5756865"><ele>21.5</ele><time>2026-04-29T08:52:44.219Z</time></trkpt><trkpt lat="45.4098337" lon="11.575798"><ele>20.333333333333336</ele><time>2026-04-29T08:52:45.219Z</time></trkpt><trkpt lat="45.4098738" lon="11.5759104"><ele>19.166666666666668</ele><time>2026-04-29T08:52:46.219Z</time></trkpt><trkpt lat="45.4098944" lon="11.5760289"><ele>18.0</ele><time>2026-04-29T08:52:47.219Z</time></trkpt><trkpt lat="45.4099037" lon="11.5761492"><ele>17.5</ele><time>2026-04-29T08:52:48.219Z</time></trkpt><trkpt lat="45.4099075" lon="11.5762651"><ele>17.0</ele><time>2026-04-29T08:52:49.22Z</time></trkpt><trkpt lat="45.409906" lon="11.5763773"><ele>16.5</ele><time>2026-04-29T08:52:50.22Z</time></trkpt><trkpt lat="45.4099073" lon="11.5764855"><ele>16.0</ele><time>2026-04-29T08:52:51.22Z</time></trkpt><trkpt lat="45.4099138" lon="11.5765856"><ele>15.5</ele><time>2026-04-29T08:52:52.219Z</time></trkpt><trkpt lat="45.4099143" lon="11.5766883"><ele>15.0</ele><time>2026-04-29T08:52:53.219Z</time></trkpt><trkpt lat="45.4099157" lon="11.5767919"><ele>15.0</ele><time>2026-04-29T08:52:54.219Z</time></trkpt><trkpt lat="45.4099173" lon="11.5768881"><ele>15.0</ele><time>2026-04-29T08:52:55.219Z</time></trkpt><trkpt lat="45.4099233" lon="11.5769822"><ele>15.0</ele><time>2026-04-29T08:52:56.219Z</time></trkpt><trkpt lat="45.4099314" lon="11.5770803"><ele>15.0</ele><time>2026-04-29T08:52:57.219Z</time></trkpt><trkpt lat="45.4099384" lon="11.5771723"><ele>15.0</ele><time>2026-04-29T08:52:58.219Z</time></trkpt><trkpt lat="45.4099424" lon="11.5772651"><ele>15.0</ele><time>2026-04-29T08:52:59.22Z</time></trkpt><trkpt lat="45.4099466" lon="11.5773578"><ele>15.0</ele><time>2026-04-29T08:53:00.22Z</time></trkpt><trkpt lat="45.409948" lon="11.5774484"><ele>15.2</ele><time>2026-04-29T08:53:01.22Z</time></trkpt><trkpt lat="45.409956" lon="11.5776291"><ele>15.4</ele><time>2026-04-29T08:53:03.22Z</time></trkpt><trkpt lat="45.4099618" lon="11.5778069"><ele>15.600000000000001</ele><time>2026-04-29T08:53:05.219Z</time></trkpt><trkpt lat="45.4099595" lon="11.5779049"><ele>15.8</ele><time>2026-04-29T08:53:06.22Z</time></trkpt><trkpt lat="45.4099459" lon="11.5780793"><ele>16.0</ele><time>2026-04-29T08:53:08.219Z</time></trkpt><trkpt lat="45.4099211" lon="11.5782549"><ele>16.0</ele><time>2026-04-29T08:53:10.219Z</time></trkpt><trkpt lat="45.4098973" lon="11.5784266"><ele>16.0</ele><time>2026-04-29T08:53:12.219Z</time></trkpt><trkpt lat="45.4098747" lon="11.5785114"><ele>16.0</ele><time>2026-04-29T08:53:13.219Z</time></trkpt><trkpt lat="45.4098399" lon="11.5786754"><ele>16.0</ele><time>2026-04-29T08:53:15.219Z</time></trkpt><trkpt lat="45.4098122" lon="11.5788378"><ele>16.0</ele><time>2026-04-29T08:53:17.219Z</time></trkpt><trkpt lat="45.4097727" lon="11.5789933"><ele>16.5</ele><time>2026-04-29T08:53:19.219Z</time></trkpt><trkpt lat="45.4097354" lon="11.5791514"><ele>17.0</ele><time>2026-04-29T08:53:21.219Z</time></trkpt><trkpt lat="45.4096957" lon="11.579309"><ele>17.5</ele><time>2026-04-29T08:53:23.219Z</time></trkpt><trkpt lat="45.409662" lon="11.5794669"><ele>18.0</ele><time>2026-04-29T08:53:25.219Z</time></trkpt><trkpt lat="45.4096411" lon="11.5796276"><ele>18.0</ele><time>2026-04-29T08:53:27.219Z</time></trkpt><trkpt lat="45.409625" lon="11.5797909"><ele>18.0</ele><time>2026-04-29T08:53:29.219Z</time></trkpt><trkpt lat="45.4096205" lon="11.5799326"><ele>18.0</ele><time>2026-04-29T08:53:31.22Z</time></trkpt><trkpt lat="45.4096183" lon="11.5800811"><ele>18.0</ele><time>2026-04-29T08:53:33.219Z</time></trkpt><trkpt lat="45.4096217" lon="11.5802133"><ele>18.0</ele><time>2026-04-29T08:53:35.219Z</time></trkpt><trkpt lat="45.4096386" lon="11.580343"><ele>17.8</ele><time>2026-04-29T08:53:37.219Z</time></trkpt><trkpt lat="45.409662" lon="11.5804689"><ele>17.6</ele><time>2026-04-29T08:53:39.219Z</time></trkpt><trkpt lat="45.4096871" lon="11.5805934"><ele>17.4</ele><time>2026-04-29T08:53:41.219Z</time></trkpt><trkpt lat="45.4097188" lon="11.5807237"><ele>17.2</ele><time>2026-04-29T08:53:43.219Z</time></trkpt><trkpt lat="45.4097437" lon="11.5808637"><ele>17.0</ele><time>2026-04-29T08:53:45.219Z</time></trkpt><trkpt lat="45.4097644" lon="11.5809858"><ele>17.0</ele><time>2026-04-29T08:53:47.22Z</time></trkpt><trkpt lat="45.4097759" lon="11.5811046"><ele>17.0</ele><time>2026-04-29T08:53:49.219Z</time></trkpt><trkpt lat="45.4097743" lon="11.5812228"><ele>17.0</ele><time>2026-04-29T08:53:51.219Z</time></trkpt><trkpt lat="45.4097734" lon="11.5813349"><ele>17.0</ele><time>2026-04-29T08:53:53.219Z</time></trkpt><trkpt lat="45.4097646" lon="11.5814349"><ele>17.0</ele><time>2026-04-29T08:53:55.22Z</time></trkpt><trkpt lat="45.4097588" lon="11.581547"><ele>17.0</ele><time>2026-04-29T08:53:58.219Z</time></trkpt><trkpt lat="45.4097401" lon="11.5816359"><ele>17.166666666666668</ele><time>2026-04-29T08:54:01.219Z</time></trkpt><trkpt lat="45.409722" lon="11.581722"><ele>17.333333333333336</ele><time>2026-04-29T08:54:03.219Z</time></trkpt><trkpt lat="45.4096939" lon="11.5818389"><ele>17.5</ele><time>2026-04-29T08:54:05.219Z</time></trkpt><trkpt lat="45.4096821" lon="11.5819846"><ele>17.666666666666668</ele><time>2026-04-29T08:54:07.219Z</time></trkpt><trkpt lat="45.4096687" lon="11.5821302"><ele>17.833333333333332</ele><time>2026-04-29T08:54:09.219Z</time></trkpt><trkpt lat="45.409702" lon="11.5822436"><ele>18.0</ele><time>2026-04-29T08:54:11.219Z</time></trkpt><trkpt lat="45.4097556" lon="11.5823187"><ele>18.0</ele><time>2026-04-29T08:54:13.219Z</time></trkpt><trkpt lat="45.4098158" lon="11.5824232"><ele>18.0</ele><time>2026-04-29T08:54:15.219Z</time></trkpt><trkpt lat="45.4098886" lon="11.5825287"><ele>18.0</ele><time>2026-04-29T08:54:17.219Z</time></trkpt><trkpt lat="45.4099624" lon="11.5826356"><ele>18.0</ele><time>2026-04-29T08:54:19.219Z</time></trkpt><trkpt lat="45.41004" lon="11.5827549"><ele>18.0</ele><time>2026-04-29T08:54:21.219Z</time></trkpt><trkpt lat="45.4101203" lon="11.5828704"><ele>18.0</ele><time>2026-04-29T08:54:23.219Z</time></trkpt><trkpt lat="45.4102039" lon="11.5829957"><ele>18.0</ele><time>2026-04-29T08:54:25.219Z</time></trkpt><trkpt lat="45.4102815" lon="11.5831221"><ele>18.0</ele><time>2026-04-29T08:54:27.219Z</time></trkpt><trkpt lat="45.4103643" lon="11.5832378"><ele>18.0</ele><time>2026-04-29T08:54:29.219Z</time></trkpt><trkpt lat="45.4104417" lon="11.5833543"><ele>18.0</ele><time>2026-04-29T08:54:31.219Z</time></trkpt><trkpt lat="45.4105231" lon="11.5834784"><ele>18.0</ele><time>2026-04-29T08:54:33.219Z</time></trkpt><trkpt lat="45.4105669" lon="11.5835446"><ele>18.0</ele><time>2026-04-29T08:54:34.219Z</time></trkpt><trkpt lat="45.4106482" lon="11.583663"><ele>18.0</ele><time>2026-04-29T08:54:36.219Z</time></trkpt><trkpt lat="45.4107345" lon="11.5837871"><ele>18.0</ele><time>2026-04-29T08:54:38.219Z</time></trkpt><trkpt lat="45.4108139" lon="11.5839117"><ele>18.0</ele><time>2026-04-29T08:54:40.22Z</time></trkpt><trkpt lat="45.4109042" lon="11.5840255"><ele>18.0</ele><time>2026-04-29T08:54:42.219Z</time></trkpt><trkpt lat="45.411001" lon="11.5841339"><ele>18.0</ele><time>2026-04-29T08:54:44.219Z</time></trkpt><trkpt lat="45.4110495" lon="11.5841913"><ele>18.0</ele><time>2026-04-29T08:54:45.219Z</time></trkpt><trkpt lat="45.4111028" lon="11.5842472"><ele>18.0</ele><time>2026-04-29T08:54:46.219Z</time></trkpt><trkpt lat="45.411158" lon="11.5842936"><ele>18.0</ele><time>2026-04-29T08:54:47.219Z</time></trkpt><trkpt lat="45.4112148" lon="11.5843405"><ele>18.0</ele><time>2026-04-29T08:54:48.22Z</time></trkpt><trkpt lat="45.4113172" lon="11.5844176"><ele>18.0</ele><time>2026-04-29T08:54:50.219Z</time></trkpt><trkpt lat="45.4114343" lon="11.5844792"><ele>18.0</ele><time>2026-04-29T08:54:52.219Z</time></trkpt><trkpt lat="45.4115436" lon="11.5845334"><ele>18.0</ele><time>2026-04-29T08:54:54.219Z</time></trkpt><trkpt lat="45.4116548" lon="11.5845833"><ele>18.0</ele><time>2026-04-29T08:54:56.219Z</time></trkpt><trkpt lat="45.4117704" lon="11.5846191"><ele>18.0</ele><time>2026-04-29T08:54:58.22Z</time></trkpt><trkpt lat="45.4118352" lon="11.5846233"><ele>18.0</ele><time>2026-04-29T08:54:59.219Z</time></trkpt><trkpt lat="45.4118989" lon="11.5846362"><ele>18.0</ele><time>2026-04-29T08:55:00.219Z</time></trkpt><trkpt lat="45.4120094" lon="11.584666"><ele>18.0</ele><time>2026-04-29T08:55:02.219Z</time></trkpt><trkpt lat="45.4121299" lon="11.5846673"><ele>18.0</ele><time>2026-04-29T08:55:04.219Z</time></trkpt><trkpt lat="45.4122511" lon="11.5846746"><ele>18.0</ele><time>2026-04-29T08:55:06.219Z</time></trkpt><trkpt lat="45.4123169" lon="11.5846919"><ele>18.0</ele><time>2026-04-29T08:55:07.219Z</time></trkpt><trkpt lat="45.4124262" lon="11.5846986"><ele>18.0</ele><time>2026-04-29T08:55:09.22Z</time></trkpt><trkpt lat="45.4125503" lon="11.5847012"><ele>18.0</ele><time>2026-04-29T08:55:11.219Z</time></trkpt><trkpt lat="45.412618" lon="11.5847031"><ele>18.0</ele><time>2026-04-29T08:55:12.22Z</time></trkpt><trkpt lat="45.4126862" lon="11.5847109"><ele>18.0</ele><time>2026-04-29T08:55:13.22Z</time></trkpt><trkpt lat="45.4128078" lon="11.5847189"><ele>18.0</ele><time>2026-04-29T08:55:15.219Z</time></trkpt><trkpt lat="45.4129289" lon="11.5847269"><ele>18.0</ele><time>2026-04-29T08:55:17.218Z</time></trkpt><trkpt lat="45.4130418" lon="11.5847338"><ele>18.0</ele><time>2026-04-29T08:55:19.219Z</time></trkpt><trkpt lat="45.4131515" lon="11.5847551"><ele>17.2</ele><time>2026-04-29T08:55:21.218Z</time></trkpt><trkpt lat="45.4132594" lon="11.5847783"><ele>16.4</ele><time>2026-04-29T08:55:23.218Z</time></trkpt><trkpt lat="45.4133225" lon="11.584795"><ele>15.599999999999998</ele><time>2026-04-29T08:55:24.218Z</time></trkpt><trkpt lat="45.4134383" lon="11.5848237"><ele>14.799999999999999</ele><time>2026-04-29T08:55:26.218Z</time></trkpt><trkpt lat="45.4135519" lon="11.5848528"><ele>14.0</ele><time>2026-04-29T08:55:28.218Z</time></trkpt><trkpt lat="45.413667" lon="11.584889"><ele>14.0</ele><time>2026-04-29T08:55:30.218Z</time></trkpt><trkpt lat="45.4137726" lon="11.5849315"><ele>13.999999999999998</ele><time>2026-04-29T08:55:32.218Z</time></trkpt><trkpt lat="45.4138747" lon="11.5849924"><ele>13.999999999999998</ele><time>2026-04-29T08:55:34.218Z</time></trkpt><trkpt lat="45.4139799" lon="11.5850434"><ele>14.0</ele><time>2026-04-29T08:55:36.218Z</time></trkpt><trkpt lat="45.414086" lon="11.5850967"><ele>14.0</ele><time>2026-04-29T08:55:38.218Z</time></trkpt><trkpt lat="45.4141946" lon="11.5851579"><ele>14.0</ele><time>2026-04-29T08:55:40.219Z</time></trkpt><trkpt lat="45.4142995" lon="11.5852222"><ele>14.0</ele><time>2026-04-29T08:55:42.218Z</time></trkpt><trkpt lat="45.4144074" lon="11.5852823"><ele>14.0</ele><time>2026-04-29T08:55:44.218Z</time></trkpt><trkpt lat="45.4145122" lon="11.5853442"><ele>14.0</ele><time>2026-04-29T08:55:46.219Z</time></trkpt><trkpt lat="45.4146137" lon="11.585391"><ele>14.000000000000002</ele><time>2026-04-29T08:55:48.219Z</time></trkpt><trkpt lat="45.4146977" lon="11.5854455"><ele>14.0</ele><time>2026-04-29T08:55:50.219Z</time></trkpt><trkpt lat="45.4147773" lon="11.5855055"><ele>14.0</ele><time>2026-04-29T08:55:52.219Z</time></trkpt><trkpt lat="45.414836" lon="11.5855438"><ele>14.0</ele><time>2026-04-29T08:55:54.219Z</time></trkpt><trkpt lat="45.4149014" lon="11.5855249"><ele>14.000000000000002</ele><time>2026-04-29T08:55:57.219Z</time></trkpt><trkpt lat="45.4149381" lon="11.5854488"><ele>14.0</ele><time>2026-04-29T08:55:59.218Z</time></trkpt><trkpt lat="45.4149515" lon="11.585318"><ele>14.0</ele><time>2026-04-29T08:56:01.218Z</time></trkpt><trkpt lat="45.4149768" lon="11.5851885"><ele>13.999999999999998</ele><time>2026-04-29T08:56:03.218Z</time></trkpt><trkpt lat="45.4150262" lon="11.5850557"><ele>13.999999999999998</ele><time>2026-04-29T08:56:05.218Z</time></trkpt><trkpt lat="45.4150712" lon="11.5849302"><ele>14.0</ele><time>2026-04-29T08:56:07.219Z</time></trkpt><trkpt lat="45.4151232" lon="11.5848181"><ele>14.0</ele><time>2026-04-29T08:56:09.219Z</time></trkpt><trkpt lat="45.4151593" lon="11.5846887"><ele>14.0</ele><time>2026-04-29T08:56:11.218Z</time></trkpt><trkpt lat="45.4151838" lon="11.5845625"><ele>13.999999999999998</ele><time>2026-04-29T08:56:13.218Z</time></trkpt><trkpt lat="45.4152259" lon="11.5844413"><ele>13.999999999999998</ele><time>2026-04-29T08:56:15.219Z</time></trkpt><trkpt lat="45.4153008" lon="11.5843814"><ele>14.0</ele><time>2026-04-29T08:56:17.218Z</time></trkpt><trkpt lat="45.4153878" lon="11.5844033"><ele>14.0</ele><time>2026-04-29T08:56:19.219Z</time></trkpt><trkpt lat="45.4154806" lon="11.5844261"><ele>14.0</ele><time>2026-04-29T08:56:21.219Z</time></trkpt><trkpt lat="45.4155886" lon="11.5844453"><ele>13.999999999999998</ele><time>2026-04-29T08:56:23.218Z</time></trkpt><trkpt lat="45.4156975" lon="11.5844702"><ele>13.999999999999998</ele><time>2026-04-29T08:56:25.218Z</time></trkpt><trkpt lat="45.4158121" lon="11.5844933"><ele>14.0</ele><time>2026-04-29T08:56:27.219Z</time></trkpt><trkpt lat="45.4159246" lon="11.5845096"><ele>14.0</ele><time>2026-04-29T08:56:29.218Z</time></trkpt><trkpt lat="45.4160366" lon="11.5845332"><ele>14.0</ele><time>2026-04-29T08:56:31.218Z</time></trkpt><trkpt lat="45.4161543" lon="11.5845564"><ele>14.0</ele><time>2026-04-29T08:56:33.218Z</time></trkpt><trkpt lat="45.4162693" lon="11.5845819"><ele>14.0</ele><time>2026-04-29T08:56:35.219Z</time></trkpt><trkpt lat="45.4163809" lon="11.5845996"><ele>14.0</ele><time>2026-04-29T08:56:37.218Z</time></trkpt><trkpt lat="45.4164931" lon="11.584616"><ele>14.0</ele><time>2026-04-29T08:56:39.218Z</time></trkpt><trkpt lat="45.4165982" lon="11.5846321"><ele>13.999999999999998</ele><time>2026-04-29T08:56:41.218Z</time></trkpt><trkpt lat="45.4167009" lon="11.5846622"><ele>13.999999999999998</ele><time>2026-04-29T08:56:43.218Z</time></trkpt><trkpt lat="45.4168044" lon="11.5846884"><ele>14.0</ele><time>2026-04-29T08:56:45.218Z</time></trkpt><trkpt lat="45.4169057" lon="11.5846938"><ele>14.0</ele><time>2026-04-29T08:56:47.218Z</time></trkpt><trkpt lat="45.4169954" lon="11.5847024"><ele>14.0</ele><time>2026-04-29T08:56:49.218Z</time></trkpt><trkpt lat="45.4170848" lon="11.5847243"><ele>13.999999999999998</ele><time>2026-04-29T08:56:51.218Z</time></trkpt><trkpt lat="45.4171537" lon="11.5848197"><ele>13.999999999999998</ele><time>2026-04-29T08:56:53.218Z</time></trkpt><trkpt lat="45.4171741" lon="11.5849585"><ele>14.0</ele><time>2026-04-29T08:56:55.218Z</time></trkpt><trkpt lat="45.4171974" lon="11.5851134"><ele>14.0</ele><time>2026-04-29T08:56:57.218Z</time></trkpt><trkpt lat="45.417206" lon="11.5852579"><ele>14.799999999999999</ele><time>2026-04-29T08:56:59.219Z</time></trkpt><trkpt lat="45.4172234" lon="11.5854234"><ele>15.599999999999998</ele><time>2026-04-29T08:57:01.218Z</time></trkpt><trkpt lat="45.4172338" lon="11.5855831"><ele>16.4</ele><time>2026-04-29T08:57:03.218Z</time></trkpt><trkpt lat="45.417243" lon="11.5857268"><ele>17.2</ele><time>2026-04-29T08:57:05.218Z</time></trkpt><trkpt lat="45.4172469" lon="11.5858728"><ele>18.0</ele><time>2026-04-29T08:57:07.218Z</time></trkpt><trkpt lat="45.4172415" lon="11.586025"><ele>18.0</ele><time>2026-04-29T08:57:09.219Z</time></trkpt><trkpt lat="45.4172245" lon="11.586174"><ele>18.0</ele><time>2026-04-29T08:57:11.218Z</time></trkpt><trkpt lat="45.4172082" lon="11.5863128"><ele>18.0</ele><time>2026-04-29T08:57:13.218Z</time></trkpt><trkpt lat="45.4171896" lon="11.586437"><ele>18.0</ele><time>2026-04-29T08:57:15.218Z</time></trkpt><trkpt lat="45.4171752" lon="11.5865669"><ele>18.0</ele><time>2026-04-29T08:57:17.218Z</time></trkpt><trkpt lat="45.4171789" lon="11.5866798"><ele>17.833333333333332</ele><time>2026-04-29T08:57:19.218Z</time></trkpt><trkpt lat="45.4171922" lon="11.5867774"><ele>17.666666666666668</ele><time>2026-04-29T08:57:21.218Z</time></trkpt><trkpt lat="45.4172461" lon="11.5868509"><ele>17.5</ele><time>2026-04-29T08:57:23.219Z</time></trkpt><trkpt lat="45.417327" lon="11.5868996"><ele>17.333333333333336</ele><time>2026-04-29T08:57:25.218Z</time></trkpt><trkpt lat="45.4174109" lon="11.5869569"><ele>17.166666666666668</ele><time>2026-04-29T08:57:27.219Z</time></trkpt><trkpt lat="45.4175054" lon="11.5870014"><ele>17.0</ele><time>2026-04-29T08:57:29.219Z</time></trkpt><trkpt lat="45.417599" lon="11.5870627"><ele>17.25</ele><time>2026-04-29T08:57:31.219Z</time></trkpt><trkpt lat="45.4177005" lon="11.5871077"><ele>17.5</ele><time>2026-04-29T08:57:33.219Z</time></trkpt><trkpt lat="45.4178065" lon="11.58716"><ele>17.75</ele><time>2026-04-29T08:57:35.218Z</time></trkpt><trkpt lat="45.4179169" lon="11.5872284"><ele>18.0</ele><time>2026-04-29T08:57:37.218Z</time></trkpt><trkpt lat="45.4180193" lon="11.587292"><ele>18.0</ele><time>2026-04-29T08:57:39.218Z</time></trkpt><trkpt lat="45.4181237" lon="11.5873509"><ele>18.0</ele><time>2026-04-29T08:57:41.218Z</time></trkpt><trkpt lat="45.4182341" lon="11.5874103"><ele>18.0</ele><time>2026-04-29T08:57:43.218Z</time></trkpt><trkpt lat="45.4183428" lon="11.5874801"><ele>18.0</ele><time>2026-04-29T08:57:45.218Z</time></trkpt><trkpt lat="45.4184571" lon="11.5875365"><ele>18.0</ele><time>2026-04-29T08:57:47.218Z</time></trkpt><trkpt lat="45.4185639" lon="11.5875966"><ele>18.0</ele><time>2026-04-29T08:57:49.218Z</time></trkpt><trkpt lat="45.4186699" lon="11.5876536"><ele>18.0</ele><time>2026-04-29T08:57:51.218Z</time></trkpt><trkpt lat="45.4187867" lon="11.5877115"><ele>18.0</ele><time>2026-04-29T08:57:53.218Z</time></trkpt><trkpt lat="45.4188983" lon="11.5877813"><ele>17.8</ele><time>2026-04-29T08:57:55.218Z</time></trkpt><trkpt lat="45.4190112" lon="11.5878375"><ele>17.6</ele><time>2026-04-29T08:57:57.218Z</time></trkpt><trkpt lat="45.419072" lon="11.5878725"><ele>17.4</ele><time>2026-04-29T08:57:58.219Z</time></trkpt><trkpt lat="45.4191794" lon="11.5879349"><ele>17.2</ele><time>2026-04-29T08:58:00.218Z</time></trkpt><trkpt lat="45.4192893" lon="11.5879916"><ele>17.0</ele><time>2026-04-29T08:58:02.218Z</time></trkpt><trkpt lat="45.4193991" lon="11.5880518"><ele>17.0</ele><time>2026-04-29T08:58:04.218Z</time></trkpt><trkpt lat="45.4195061" lon="11.5881131"><ele>17.0</ele><time>2026-04-29T08:58:06.218Z</time></trkpt><trkpt lat="45.419616" lon="11.5881706"><ele>17.0</ele><time>2026-04-29T08:58:08.218Z</time></trkpt><trkpt lat="45.4197265" lon="11.5882335"><ele>17.0</ele><time>2026-04-29T08:58:10.218Z</time></trkpt><trkpt lat="45.4198334" lon="11.588294"><ele>16.75</ele><time>2026-04-29T08:58:12.219Z</time></trkpt><trkpt lat="45.4199444" lon="11.5883587"><ele>16.5</ele><time>2026-04-29T08:58:14.219Z</time></trkpt><trkpt lat="45.4200513" lon="11.5884189"><ele>16.25</ele><time>2026-04-29T08:58:16.218Z</time></trkpt><trkpt lat="45.4201639" lon="11.588483"><ele>16.0</ele><time>2026-04-29T08:58:18.218Z</time></trkpt><trkpt lat="45.4202724" lon="11.5885341"><ele>16.0</ele><time>2026-04-29T08:58:20.219Z</time></trkpt><trkpt lat="45.4203747" lon="11.5885913"><ele>16.0</ele><time>2026-04-29T08:58:22.218Z</time></trkpt><trkpt lat="45.4204783" lon="11.5886527"><ele>16.0</ele><time>2026-04-29T08:58:24.218Z</time></trkpt><trkpt lat="45.4205825" lon="11.588703"><ele>16.0</ele><time>2026-04-29T08:58:26.219Z</time></trkpt><trkpt lat="45.4206816" lon="11.5887581"><ele>16.0</ele><time>2026-04-29T08:58:28.218Z</time></trkpt><trkpt lat="45.4207808" lon="11.5888127"><ele>16.0</ele><time>2026-04-29T08:58:30.218Z</time></trkpt><trkpt lat="45.4208787" lon="11.5888693"><ele>16.0</ele><time>2026-04-29T08:58:32.219Z</time></trkpt><trkpt lat="45.4209703" lon="11.5889206"><ele>16.0</ele><time>2026-04-29T08:58:34.218Z</time></trkpt><trkpt lat="45.4210695" lon="11.5889826"><ele>16.0</ele><time>2026-04-29T08:58:36.218Z</time></trkpt><trkpt lat="45.4211551" lon="11.58903"><ele>16.0</ele><time>2026-04-29T08:58:38.218Z</time></trkpt><trkpt lat="45.4212375" lon="11.5890565"><ele>15.999999999999998</ele><time>2026-04-29T08:58:40.218Z</time></trkpt><trkpt lat="45.421298" lon="11.5891223"><ele>16.0</ele><time>2026-04-29T08:58:43.219Z</time></trkpt><trkpt lat="45.4213537" lon="11.5891695"><ele>16.0</ele><time>2026-04-29T08:58:45.218Z</time></trkpt><trkpt lat="45.4214191" lon="11.5891826"><ele>16.0</ele><time>2026-04-29T08:58:47.219Z</time></trkpt><trkpt lat="45.4214998" lon="11.5892328"><ele>15.999999999999998</ele><time>2026-04-29T08:58:49.218Z</time></trkpt><trkpt lat="45.4215801" lon="11.5892758"><ele>16.0</ele><time>2026-04-29T08:58:51.218Z</time></trkpt><trkpt lat="45.4216653" lon="11.5893331"><ele>16.400000000000002</ele><time>2026-04-29T08:58:53.218Z</time></trkpt><trkpt lat="45.4217595" lon="11.589386"><ele>16.8</ele><time>2026-04-29T08:58:55.219Z</time></trkpt><trkpt lat="45.4218583" lon="11.5894401"><ele>17.200000000000003</ele><time>2026-04-29T08:58:57.219Z</time></trkpt><trkpt lat="45.4219551" lon="11.5894939"><ele>17.6</ele><time>2026-04-29T08:58:59.217Z</time></trkpt><trkpt lat="45.4220487" lon="11.5895383"><ele>18.0</ele><time>2026-04-29T08:59:01.218Z</time></trkpt><trkpt lat="45.4221383" lon="11.5895817"><ele>18.2</ele><time>2026-04-29T08:59:03.217Z</time></trkpt><trkpt lat="45.4222309" lon="11.5896336"><ele>18.4</ele><time>2026-04-29T08:59:05.217Z</time></trkpt><trkpt lat="45.4223169" lon="11.5896941"><ele>18.599999999999998</ele><time>2026-04-29T08:59:07.217Z</time></trkpt><trkpt lat="45.4224149" lon="11.5897468"><ele>18.8</ele><time>2026-04-29T08:59:09.218Z</time></trkpt><trkpt lat="45.4225137" lon="11.5898021"><ele>19.0</ele><time>2026-04-29T08:59:11.217Z</time></trkpt><trkpt lat="45.422619" lon="11.5898573"><ele>19.0</ele><time>2026-04-29T08:59:13.218Z</time></trkpt><trkpt lat="45.4227235" lon="11.5899058"><ele>19.0</ele><time>2026-04-29T08:59:15.217Z</time></trkpt><trkpt lat="45.4228253" lon="11.5899644"><ele>19.0</ele><time>2026-04-29T08:59:17.217Z</time></trkpt><trkpt lat="45.4229315" lon="11.5900173"><ele>19.0</ele><time>2026-04-29T08:59:19.217Z</time></trkpt><trkpt lat="45.4230257" lon="11.5900766"><ele>19.0</ele><time>2026-04-29T08:59:21.218Z</time></trkpt><trkpt lat="45.4231186" lon="11.5901184"><ele>19.0</ele><time>2026-04-29T08:59:23.217Z</time></trkpt><trkpt lat="45.4232063" lon="11.5901498"><ele>19.0</ele><time>2026-04-29T08:59:25.217Z</time></trkpt><trkpt lat="45.4232916" lon="11.5901869"><ele>19.0</ele><time>2026-04-29T08:59:27.218Z</time></trkpt><trkpt lat="45.4233743" lon="11.5902279"><ele>19.0</ele><time>2026-04-29T08:59:29.218Z</time></trkpt><trkpt lat="45.4234423" lon="11.590261"><ele>19.0</ele><time>2026-04-29T08:59:31.217Z</time></trkpt><trkpt lat="45.4235184" lon="11.5902909"><ele>19.0</ele><time>2026-04-29T08:59:33.218Z</time></trkpt><trkpt lat="45.4235847" lon="11.59032"><ele>19.0</ele><time>2026-04-29T08:59:35.218Z</time></trkpt><trkpt lat="45.4236658" lon="11.5903369"><ele>19.0</ele><time>2026-04-29T08:59:37.217Z</time></trkpt><trkpt lat="45.4237599" lon="11.5903925"><ele>19.0</ele><time>2026-04-29T08:59:39.217Z</time></trkpt><trkpt lat="45.4238512" lon="11.5904444"><ele>19.0</ele><time>2026-04-29T08:59:41.217Z</time></trkpt><trkpt lat="45.4239484" lon="11.5904981"><ele>19.0</ele><time>2026-04-29T08:59:43.217Z</time></trkpt><trkpt lat="45.4240558" lon="11.5905504"><ele>19.2</ele><time>2026-04-29T08:59:45.217Z</time></trkpt><trkpt lat="45.4241508" lon="11.5906008"><ele>19.4</ele><time>2026-04-29T08:59:47.218Z</time></trkpt><trkpt lat="45.4242531" lon="11.5906462"><ele>19.6</ele><time>2026-04-29T08:59:49.218Z</time></trkpt><trkpt lat="45.4243513" lon="11.5906986"><ele>19.8</ele><time>2026-04-29T08:59:51.217Z</time></trkpt><trkpt lat="45.424451" lon="11.5907719"><ele>20.0</ele><time>2026-04-29T08:59:53.217Z</time></trkpt><trkpt lat="45.424546" lon="11.5908436"><ele>20.0</ele><time>2026-04-29T08:59:55.217Z</time></trkpt><trkpt lat="45.4246377" lon="11.5909208"><ele>20.0</ele><time>2026-04-29T08:59:57.218Z</time></trkpt><trkpt lat="45.4247301" lon="11.591002"><ele>20.0</ele><time>2026-04-29T08:59:59.217Z</time></trkpt><trkpt lat="45.4248253" lon="11.5910798"><ele>20.0</ele><time>2026-04-29T09:00:01.218Z</time></trkpt><trkpt lat="45.424922" lon="11.5911601"><ele>20.0</ele><time>2026-04-29T09:00:03.217Z</time></trkpt><trkpt lat="45.4250091" lon="11.5912564"><ele>20.166666666666668</ele><time>2026-04-29T09:00:05.217Z</time></trkpt><trkpt lat="45.4250958" lon="11.5913367"><ele>20.333333333333336</ele><time>2026-04-29T09:00:07.217Z</time></trkpt><trkpt lat="45.4251645" lon="11.5914227"><ele>20.5</ele><time>2026-04-29T09:00:09.217Z</time></trkpt><trkpt lat="45.425224" lon="11.591511"><ele>20.666666666666668</ele><time>2026-04-29T09:00:11.217Z</time></trkpt><trkpt lat="45.4252844" lon="11.591565"><ele>20.833333333333332</ele><time>2026-04-29T09:00:13.217Z</time></trkpt><trkpt lat="45.4253502" lon="11.5915781"><ele>21.0</ele><time>2026-04-29T09:00:15.217Z</time></trkpt><trkpt lat="45.4254202" lon="11.5916559"><ele>21.0</ele><time>2026-04-29T09:00:18.217Z</time></trkpt><trkpt lat="45.4254703" lon="11.5917186"><ele>21.0</ele><time>2026-04-29T09:00:20.217Z</time></trkpt><trkpt lat="45.4255435" lon="11.5917832"><ele>21.0</ele><time>2026-04-29T09:00:22.218Z</time></trkpt><trkpt lat="45.4256222" lon="11.591864"><ele>21.0</ele><time>2026-04-29T09:00:24.217Z</time></trkpt><trkpt lat="45.4257081" lon="11.5919379"><ele>21.0</ele><time>2026-04-29T09:00:26.217Z</time></trkpt><trkpt lat="45.425798" lon="11.5920174"><ele>20.75</ele><time>2026-04-29T09:00:28.218Z</time></trkpt><trkpt lat="45.4258874" lon="11.592117"><ele>20.5</ele><time>2026-04-29T09:00:30.217Z</time></trkpt><trkpt lat="45.4259846" lon="11.592211"><ele>20.25</ele><time>2026-04-29T09:00:32.218Z</time></trkpt><trkpt lat="45.426082" lon="11.592302"><ele>20.0</ele><time>2026-04-29T09:00:34.217Z</time></trkpt><trkpt lat="45.4261791" lon="11.5924041"><ele>20.0</ele><time>2026-04-29T09:00:36.218Z</time></trkpt><trkpt lat="45.4262319" lon="11.5924591"><ele>20.0</ele><time>2026-04-29T09:00:37.217Z</time></trkpt><trkpt lat="45.4262852" lon="11.5925097"><ele>20.0</ele><time>2026-04-29T09:00:38.218Z</time></trkpt><trkpt lat="45.4263904" lon="11.5926078"><ele>20.0</ele><time>2026-04-29T09:00:40.217Z</time></trkpt><trkpt lat="45.4264947" lon="11.5927031"><ele>20.0</ele><time>2026-04-29T09:00:42.217Z</time></trkpt><trkpt lat="45.4265936" lon="11.5928048"><ele>19.75</ele><time>2026-04-29T09:00:44.217Z</time></trkpt><trkpt lat="45.4266923" lon="11.5929073"><ele>19.5</ele><time>2026-04-29T09:00:46.217Z</time></trkpt><trkpt lat="45.4267887" lon="11.5929956"><ele>19.25</ele><time>2026-04-29T09:00:48.217Z</time></trkpt><trkpt lat="45.4268911" lon="11.59309"><ele>19.0</ele><time>2026-04-29T09:00:50.217Z</time></trkpt><trkpt lat="45.4269915" lon="11.5931884"><ele>19.0</ele><time>2026-04-29T09:00:52.217Z</time></trkpt><trkpt lat="45.4270906" lon="11.5932845"><ele>19.0</ele><time>2026-04-29T09:00:54.217Z</time></trkpt><trkpt lat="45.4271886" lon="11.5933777"><ele>19.0</ele><time>2026-04-29T09:00:56.218Z</time></trkpt><trkpt lat="45.4272845" lon="11.5934696"><ele>19.0</ele><time>2026-04-29T09:00:58.217Z</time></trkpt><trkpt lat="45.4273715" lon="11.5935517"><ele>19.2</ele><time>2026-04-29T09:01:00.217Z</time></trkpt><trkpt lat="45.4274556" lon="11.5936287"><ele>19.4</ele><time>2026-04-29T09:01:02.217Z</time></trkpt><trkpt lat="45.4275333" lon="11.5937143"><ele>19.6</ele><time>2026-04-29T09:01:04.217Z</time></trkpt><trkpt lat="45.4276007" lon="11.5937888"><ele>19.8</ele><time>2026-04-29T09:01:06.217Z</time></trkpt><trkpt lat="45.4276633" lon="11.5938688"><ele>20.0</ele><time>2026-04-29T09:01:08.217Z</time></trkpt><trkpt lat="45.427745" lon="11.5939483"><ele>20.0</ele><time>2026-04-29T09:01:10.218Z</time></trkpt><trkpt lat="45.4278284" lon="11.5940235"><ele>20.0</ele><time>2026-04-29T09:01:12.217Z</time></trkpt><trkpt lat="45.4279143" lon="11.5941153"><ele>20.0</ele><time>2026-04-29T09:01:14.217Z</time></trkpt><trkpt lat="45.4280017" lon="11.5942024"><ele>20.0</ele><time>2026-04-29T09:01:16.217Z</time></trkpt><trkpt lat="45.4280977" lon="11.5942898"><ele>20.0</ele><time>2026-04-29T09:01:18.217Z</time></trkpt><trkpt lat="45.4281866" lon="11.5943837"><ele>20.0</ele><time>2026-04-29T09:01:20.218Z</time></trkpt><trkpt lat="45.4282801" lon="11.5944742"><ele>20.0</ele><time>2026-04-29T09:01:22.218Z</time></trkpt><trkpt lat="45.4283712" lon="11.5945637"><ele>20.0</ele><time>2026-04-29T09:01:24.217Z</time></trkpt><trkpt lat="45.4284659" lon="11.5946593"><ele>20.0</ele><time>2026-04-29T09:01:26.217Z</time></trkpt><trkpt lat="45.4285622" lon="11.5947477"><ele>20.0</ele><time>2026-04-29T09:01:28.217Z</time></trkpt><trkpt lat="45.4286537" lon="11.5948404"><ele>20.0</ele><time>2026-04-29T09:01:30.218Z</time></trkpt><trkpt lat="45.4287422" lon="11.594935"><ele>20.0</ele><time>2026-04-29T09:01:32.218Z</time></trkpt><trkpt lat="45.428835" lon="11.5950331"><ele>20.0</ele><time>2026-04-29T09:01:34.217Z</time></trkpt><trkpt lat="45.4289261" lon="11.5951242"><ele>20.0</ele><time>2026-04-29T09:01:36.217Z</time></trkpt><trkpt lat="45.4290244" lon="11.5952146"><ele>20.0</ele><time>2026-04-29T09:01:38.217Z</time></trkpt><trkpt lat="45.4291152" lon="11.5952979"><ele>20.0</ele><time>2026-04-29T09:01:40.217Z</time></trkpt><trkpt lat="45.4292009" lon="11.595386"><ele>20.0</ele><time>2026-04-29T09:01:42.218Z</time></trkpt><trkpt lat="45.429294" lon="11.5954773"><ele>20.0</ele><time>2026-04-29T09:01:44.218Z</time></trkpt><trkpt lat="45.4293861" lon="11.5955611"><ele>20.0</ele><time>2026-04-29T09:01:46.217Z</time></trkpt><trkpt lat="45.4294796" lon="11.5956568"><ele>20.0</ele><time>2026-04-29T09:01:48.217Z</time></trkpt><trkpt lat="45.4295717" lon="11.5957453"><ele>20.0</ele><time>2026-04-29T09:01:50.217Z</time></trkpt><trkpt lat="45.4296639" lon="11.5958334"><ele>20.0</ele><time>2026-04-29T09:01:52.217Z</time></trkpt><trkpt lat="45.4297578" lon="11.5959315"><ele>19.5</ele><time>2026-04-29T09:01:54.217Z</time></trkpt><trkpt lat="45.4298549" lon="11.5960309"><ele>19.0</ele><time>2026-04-29T09:01:56.217Z</time></trkpt><trkpt lat="45.4299534" lon="11.5961273"><ele>18.5</ele><time>2026-04-29T09:01:58.217Z</time></trkpt><trkpt lat="45.4300522" lon="11.5962242"><ele>18.0</ele><time>2026-04-29T09:02:00.217Z</time></trkpt><trkpt lat="45.4301489" lon="11.5963247"><ele>18.0</ele><time>2026-04-29T09:02:02.217Z</time></trkpt><trkpt lat="45.4302437" lon="11.5964195"><ele>18.0</ele><time>2026-04-29T09:02:04.217Z</time></trkpt><trkpt lat="45.4303362" lon="11.5965044"><ele>18.0</ele><time>2026-04-29T09:02:06.217Z</time></trkpt><trkpt lat="45.4304255" lon="11.5965821"><ele>18.0</ele><time>2026-04-29T09:02:08.217Z</time></trkpt><trkpt lat="45.4305207" lon="11.596665"><ele>18.0</ele><time>2026-04-29T09:02:10.217Z</time></trkpt><trkpt lat="45.4306119" lon="11.5967393"><ele>17.75</ele><time>2026-04-29T09:02:12.217Z</time></trkpt><trkpt lat="45.4307116" lon="11.5968152"><ele>17.5</ele><time>2026-04-29T09:02:14.217Z</time></trkpt><trkpt lat="45.4308113" lon="11.5968785"><ele>17.25</ele><time>2026-04-29T09:02:16.217Z</time></trkpt><trkpt lat="45.4309195" lon="11.5969241"><ele>17.0</ele><time>2026-04-29T09:02:18.217Z</time></trkpt><trkpt lat="45.4310345" lon="11.5969783"><ele>17.25</ele><time>2026-04-29T09:02:20.218Z</time></trkpt><trkpt lat="45.4311486" lon="11.5970193"><ele>17.5</ele><time>2026-04-29T09:02:22.217Z</time></trkpt><trkpt lat="45.4312673" lon="11.5970581"><ele>17.75</ele><time>2026-04-29T09:02:24.218Z</time></trkpt><trkpt lat="45.4313784" lon="11.5970975"><ele>18.0</ele><time>2026-04-29T09:02:26.217Z</time></trkpt><trkpt lat="45.43149" lon="11.5971281"><ele>18.75</ele><time>2026-04-29T09:02:28.218Z</time></trkpt><trkpt lat="45.4316092" lon="11.5971597"><ele>19.5</ele><time>2026-04-29T09:02:30.217Z</time></trkpt><trkpt lat="45.4317263" lon="11.5971895"><ele>20.25</ele><time>2026-04-29T09:02:32.217Z</time></trkpt><trkpt lat="45.4318437" lon="11.59723"><ele>21.0</ele><time>2026-04-29T09:02:34.218Z</time></trkpt><trkpt lat="45.4319597" lon="11.5972667"><ele>21.0</ele><time>2026-04-29T09:02:36.217Z</time></trkpt><trkpt lat="45.4320685" lon="11.597299"><ele>21.0</ele><time>2026-04-29T09:02:38.218Z</time></trkpt><trkpt lat="45.4321837" lon="11.5973413"><ele>21.0</ele><time>2026-04-29T09:02:40.216Z</time></trkpt><trkpt lat="45.4322996" lon="11.5973785"><ele>21.0</ele><time>2026-04-29T09:02:42.216Z</time></trkpt><trkpt lat="45.4323617" lon="11.5973953"><ele>21.0</ele><time>2026-04-29T09:02:43.217Z</time></trkpt><trkpt lat="45.4324796" lon="11.5974277"><ele>20.5</ele><time>2026-04-29T09:02:45.216Z</time></trkpt><trkpt lat="45.4326016" lon="11.5974627"><ele>20.0</ele><time>2026-04-29T09:02:47.216Z</time></trkpt><trkpt lat="45.4327261" lon="11.5974998"><ele>19.5</ele><time>2026-04-29T09:02:49.217Z</time></trkpt><trkpt lat="45.4328472" lon="11.5975412"><ele>19.0</ele><time>2026-04-29T09:02:51.216Z</time></trkpt><trkpt lat="45.4329698" lon="11.5975657"><ele>19.5</ele><time>2026-04-29T09:02:53.216Z</time></trkpt><trkpt lat="45.4330918" lon="11.5975848"><ele>20.0</ele><time>2026-04-29T09:02:55.216Z</time></trkpt><trkpt lat="45.433212" lon="11.5975958"><ele>20.5</ele><time>2026-04-29T09:02:57.216Z</time></trkpt><trkpt lat="45.4333223" lon="11.5976109"><ele>21.0</ele><time>2026-04-29T09:02:59.216Z</time></trkpt><trkpt lat="45.4334343" lon="11.5976208"><ele>21.0</ele><time>2026-04-29T09:03:01.216Z</time></trkpt><trkpt lat="45.4335451" lon="11.5976308"><ele>21.0</ele><time>2026-04-29T09:03:03.216Z</time></trkpt><trkpt lat="45.4336605" lon="11.5976437"><ele>21.0</ele><time>2026-04-29T09:03:05.216Z</time></trkpt><trkpt lat="45.4337801" lon="11.5976485"><ele>21.0</ele><time>2026-04-29T09:03:07.217Z</time></trkpt><trkpt lat="45.4339021" lon="11.5976531"><ele>20.75</ele><time>2026-04-29T09:03:09.216Z</time></trkpt><trkpt lat="45.4340215" lon="11.5976607"><ele>20.5</ele><time>2026-04-29T09:03:11.216Z</time></trkpt><trkpt lat="45.4341361" lon="11.5976643"><ele>20.25</ele><time>2026-04-29T09:03:13.217Z</time></trkpt><trkpt lat="45.4342548" lon="11.5976674"><ele>20.0</ele><time>2026-04-29T09:03:15.216Z</time></trkpt><trkpt lat="45.4343708" lon="11.5976764"><ele>20.0</ele><time>2026-04-29T09:03:17.217Z</time></trkpt><trkpt lat="45.4344788" lon="11.5976701"><ele>20.0</ele><time>2026-04-29T09:03:19.216Z</time></trkpt><trkpt lat="45.4345822" lon="11.5976761"><ele>20.0</ele><time>2026-04-29T09:03:21.217Z</time></trkpt><trkpt lat="45.4346937" lon="11.5976901"><ele>20.0</ele><time>2026-04-29T09:03:23.216Z</time></trkpt><trkpt lat="45.4348027" lon="11.5976877"><ele>20.0</ele><time>2026-04-29T09:03:25.216Z</time></trkpt><trkpt lat="45.4349222" lon="11.5976655"><ele>20.0</ele><time>2026-04-29T09:03:27.216Z</time></trkpt><trkpt lat="45.4350335" lon="11.5976487"><ele>20.0</ele><time>2026-04-29T09:03:29.216Z</time></trkpt><trkpt lat="45.4351467" lon="11.5976161"><ele>20.0</ele><time>2026-04-29T09:03:31.216Z</time></trkpt><trkpt lat="45.4352657" lon="11.5975692"><ele>20.0</ele><time>2026-04-29T09:03:33.216Z</time></trkpt><trkpt lat="45.4353813" lon="11.5975216"><ele>20.0</ele><time>2026-04-29T09:03:35.217Z</time></trkpt><trkpt lat="45.4354412" lon="11.5974938"><ele>20.0</ele><time>2026-04-29T09:03:36.216Z</time></trkpt><trkpt lat="45.4355542" lon="11.5974368"><ele>20.0</ele><time>2026-04-29T09:03:38.216Z</time></trkpt><trkpt lat="45.4356132" lon="11.5974016"><ele>20.0</ele><time>2026-04-29T09:03:39.216Z</time></trkpt><trkpt lat="45.435674" lon="11.5973621"><ele>20.0</ele><time>2026-04-29T09:03:40.216Z</time></trkpt><trkpt lat="45.4357321" lon="11.5973207"><ele>20.0</ele><time>2026-04-29T09:03:41.216Z</time></trkpt><trkpt lat="45.4358367" lon="11.597231"><ele>19.75</ele><time>2026-04-29T09:03:43.216Z</time></trkpt><trkpt lat="45.4359246" lon="11.5971188"><ele>19.5</ele><time>2026-04-29T09:03:45.217Z</time></trkpt><trkpt lat="45.4360108" lon="11.5970027"><ele>19.25</ele><time>2026-04-29T09:03:47.216Z</time></trkpt><trkpt lat="45.4361045" lon="11.5968865"><ele>19.0</ele><time>2026-04-29T09:03:49.216Z</time></trkpt><trkpt lat="45.4362025" lon="11.5967796"><ele>18.75</ele><time>2026-04-29T09:03:51.216Z</time></trkpt><trkpt lat="45.4363141" lon="11.5967197"><ele>18.5</ele><time>2026-04-29T09:03:53.217Z</time></trkpt><trkpt lat="45.4364374" lon="11.5967183"><ele>18.25</ele><time>2026-04-29T09:03:55.216Z</time></trkpt><trkpt lat="45.4365572" lon="11.5967442"><ele>18.0</ele><time>2026-04-29T09:03:57.216Z</time></trkpt><trkpt lat="45.4366768" lon="11.5967686"><ele>18.0</ele><time>2026-04-29T09:03:59.216Z</time></trkpt><trkpt lat="45.4367625" lon="11.5968732"><ele>18.0</ele><time>2026-04-29T09:04:01.216Z</time></trkpt><trkpt lat="45.4368192" lon="11.5970021"><ele>18.0</ele><time>2026-04-29T09:04:03.216Z</time></trkpt><trkpt lat="45.4368593" lon="11.597151"><ele>18.0</ele><time>2026-04-29T09:04:05.216Z</time></trkpt><trkpt lat="45.436892" lon="11.597309"><ele>18.0</ele><time>2026-04-29T09:04:07.216Z</time></trkpt><trkpt lat="45.4369187" lon="11.5973905"><ele>18.4</ele><time>2026-04-29T09:04:08.217Z</time></trkpt><trkpt lat="45.4369425" lon="11.5974739"><ele>18.8</ele><time>2026-04-29T09:04:09.216Z</time></trkpt><trkpt lat="45.4369889" lon="11.597631"><ele>19.2</ele><time>2026-04-29T09:04:11.216Z</time></trkpt><trkpt lat="45.4370313" lon="11.5977802"><ele>19.6</ele><time>2026-04-29T09:04:13.216Z</time></trkpt><trkpt lat="45.4370801" lon="11.5979087"><ele>20.0</ele><time>2026-04-29T09:04:15.216Z</time></trkpt><trkpt lat="45.4371717" lon="11.5979869"><ele>20.25</ele><time>2026-04-29T09:04:17.216Z</time></trkpt><trkpt lat="45.4372842" lon="11.5979933"><ele>20.5</ele><time>2026-04-29T09:04:19.216Z</time></trkpt><trkpt lat="45.4373964" lon="11.5980323"><ele>20.75</ele><time>2026-04-29T09:04:21.216Z</time></trkpt><trkpt lat="45.4375142" lon="11.598065"><ele>21.0</ele><time>2026-04-29T09:04:23.217Z</time></trkpt><trkpt lat="45.4376236" lon="11.5980951"><ele>21.0</ele><time>2026-04-29T09:04:25.217Z</time></trkpt><trkpt lat="45.4377374" lon="11.5981262"><ele>21.0</ele><time>2026-04-29T09:04:27.216Z</time></trkpt><trkpt lat="45.4378479" lon="11.5981491"><ele>21.0</ele><time>2026-04-29T09:04:29.216Z</time></trkpt><trkpt lat="45.437955" lon="11.5981768"><ele>21.0</ele><time>2026-04-29T09:04:31.216Z</time></trkpt><trkpt lat="45.4380661" lon="11.5982041"><ele>21.0</ele><time>2026-04-29T09:04:33.216Z</time></trkpt><trkpt lat="45.43818" lon="11.5982286"><ele>21.200000000000003</ele><time>2026-04-29T09:04:35.216Z</time></trkpt><trkpt lat="45.4382902" lon="11.5982626"><ele>21.400000000000002</ele><time>2026-04-29T09:04:37.217Z</time></trkpt><trkpt lat="45.4383957" lon="11.5983017"><ele>21.6</ele><time>2026-04-29T09:04:39.217Z</time></trkpt><trkpt lat="45.4384903" lon="11.5983339"><ele>21.8</ele><time>2026-04-29T09:04:41.216Z</time></trkpt><trkpt lat="45.4385741" lon="11.5983585"><ele>22.0</ele><time>2026-04-29T09:04:43.216Z</time></trkpt><trkpt lat="45.4386755" lon="11.5983749"><ele>22.0</ele><time>2026-04-29T09:04:45.216Z</time></trkpt><trkpt lat="45.438771" lon="11.5984032"><ele>22.0</ele><time>2026-04-29T09:04:47.216Z</time></trkpt><trkpt lat="45.4388735" lon="11.5984335"><ele>22.0</ele><time>2026-04-29T09:04:49.216Z</time></trkpt><trkpt lat="45.4389798" lon="11.5984668"><ele>22.0</ele><time>2026-04-29T09:04:51.216Z</time></trkpt><trkpt lat="45.4390831" lon="11.598522"><ele>22.0</ele><time>2026-04-29T09:04:53.216Z</time></trkpt><trkpt lat="45.4391847" lon="11.5985789"><ele>22.0</ele><time>2026-04-29T09:04:55.216Z</time></trkpt><trkpt lat="45.4392947" lon="11.5986359"><ele>22.0</ele><time>2026-04-29T09:04:57.217Z</time></trkpt><trkpt lat="45.4393936" lon="11.5987006"><ele>22.0</ele><time>2026-04-29T09:04:59.216Z</time></trkpt><trkpt lat="45.4394974" lon="11.5987634"><ele>22.0</ele><time>2026-04-29T09:05:01.216Z</time></trkpt><trkpt lat="45.4396052" lon="11.5988362"><ele>21.75</ele><time>2026-04-29T09:05:03.216Z</time></trkpt><trkpt lat="45.4397105" lon="11.5989085"><ele>21.5</ele><time>2026-04-29T09:05:05.216Z</time></trkpt><trkpt lat="45.4398168" lon="11.5989953"><ele>21.25</ele><time>2026-04-29T09:05:07.217Z</time></trkpt><trkpt lat="45.4399202" lon="11.5990898"><ele>21.0</ele><time>2026-04-29T09:05:09.216Z</time></trkpt><trkpt lat="45.4400207" lon="11.5991717"><ele>21.0</ele><time>2026-04-29T09:05:11.216Z</time></trkpt><trkpt lat="45.4401099" lon="11.5992547"><ele>21.0</ele><time>2026-04-29T09:05:13.216Z</time></trkpt><trkpt lat="45.4402026" lon="11.5993441"><ele>21.0</ele><time>2026-04-29T09:05:15.216Z</time></trkpt><trkpt lat="45.4402986" lon="11.5994298"><ele>21.0</ele><time>2026-04-29T09:05:17.216Z</time></trkpt><trkpt lat="45.4403962" lon="11.5995179"><ele>21.0</ele><time>2026-04-29T09:05:19.216Z</time></trkpt><trkpt lat="45.4404993" lon="11.5996117"><ele>20.8</ele><time>2026-04-29T09:05:21.216Z</time></trkpt><trkpt lat="45.4405997" lon="11.5997025"><ele>20.6</ele><time>2026-04-29T09:05:23.216Z</time></trkpt><trkpt lat="45.4406899" lon="11.5997832"><ele>20.4</ele><time>2026-04-29T09:05:25.216Z</time></trkpt><trkpt lat="45.4407779" lon="11.5998589"><ele>20.2</ele><time>2026-04-29T09:05:27.217Z</time></trkpt><trkpt lat="45.4408692" lon="11.5999552"><ele>20.0</ele><time>2026-04-29T09:05:29.216Z</time></trkpt><trkpt lat="45.4409578" lon="11.60004"><ele>20.0</ele><time>2026-04-29T09:05:31.217Z</time></trkpt><trkpt lat="45.4410579" lon="11.6001234"><ele>20.0</ele><time>2026-04-29T09:05:33.216Z</time></trkpt><trkpt lat="45.4411467" lon="11.6002084"><ele>20.0</ele><time>2026-04-29T09:05:35.216Z</time></trkpt><trkpt lat="45.4412314" lon="11.6002779"><ele>20.0</ele><time>2026-04-29T09:05:37.217Z</time></trkpt><trkpt lat="45.4413246" lon="11.6003466"><ele>20.0</ele><time>2026-04-29T09:05:39.216Z</time></trkpt><trkpt lat="45.4414172" lon="11.6004177"><ele>19.8</ele><time>2026-04-29T09:05:41.216Z</time></trkpt><trkpt lat="45.4415134" lon="11.6004679"><ele>19.6</ele><time>2026-04-29T09:05:43.217Z</time></trkpt><trkpt lat="45.4416062" lon="11.6005179"><ele>19.4</ele><time>2026-04-29T09:05:45.216Z</time></trkpt><trkpt lat="45.4416979" lon="11.6005637"><ele>19.2</ele><time>2026-04-29T09:05:47.216Z</time></trkpt><trkpt lat="45.4418003" lon="11.6006037"><ele>19.0</ele><time>2026-04-29T09:05:49.216Z</time></trkpt><trkpt lat="45.4419064" lon="11.6006448"><ele>19.0</ele><time>2026-04-29T09:05:51.216Z</time></trkpt><trkpt lat="45.4420135" lon="11.6006749"><ele>19.0</ele><time>2026-04-29T09:05:53.216Z</time></trkpt><trkpt lat="45.4421116" lon="11.6007064"><ele>19.0</ele><time>2026-04-29T09:05:55.216Z</time></trkpt><trkpt lat="45.4422073" lon="11.6007216"><ele>19.0</ele><time>2026-04-29T09:05:57.216Z</time></trkpt><trkpt lat="45.4422861" lon="11.6007299"><ele>19.0</ele><time>2026-04-29T09:05:59.216Z</time></trkpt><trkpt lat="45.4423535" lon="11.6007439"><ele>19.333333333333332</ele><time>2026-04-29T09:06:01.216Z</time></trkpt><trkpt lat="45.4424209" lon="11.6007651"><ele>19.666666666666664</ele><time>2026-04-29T09:06:03.216Z</time></trkpt><trkpt lat="45.4425139" lon="11.6007607"><ele>20.0</ele><time>2026-04-29T09:06:06.217Z</time></trkpt><trkpt lat="45.4426046" lon="11.6007334"><ele>20.333333333333332</ele><time>2026-04-29T09:06:09.216Z</time></trkpt><trkpt lat="45.4426631" lon="11.6006408"><ele>20.666666666666668</ele><time>2026-04-29T09:06:12.217Z</time></trkpt><trkpt lat="45.442669" lon="11.6005476"><ele>21.0</ele><time>2026-04-29T09:06:14.217Z</time></trkpt><trkpt lat="45.4426462" lon="11.6004484"><ele>21.0</ele><time>2026-04-29T09:06:17.216Z</time></trkpt><trkpt lat="45.4426986" lon="11.6003761"><ele>21.0</ele><time>2026-04-29T09:06:24.215Z</time></trkpt><trkpt lat="45.44277" lon="11.600408"><ele>21.0</ele><time>2026-04-29T09:06:27.215Z</time></trkpt><trkpt lat="45.4428427" lon="11.6005118"><ele>21.0</ele><time>2026-04-29T09:06:30.216Z</time></trkpt><trkpt lat="45.4429187" lon="11.6005874"><ele>21.0</ele><time>2026-04-29T09:06:32.215Z</time></trkpt><trkpt lat="45.4429881" lon="11.6006513"><ele>21.0</ele><time>2026-04-29T09:06:34.215Z</time></trkpt><trkpt lat="45.4430489" lon="11.6007371"><ele>20.833333333333332</ele><time>2026-04-29T09:06:36.216Z</time></trkpt><trkpt lat="45.4431314" lon="11.6007635"><ele>20.666666666666668</ele><time>2026-04-29T09:06:38.215Z</time></trkpt><trkpt lat="45.443224" lon="11.6007531"><ele>20.5</ele><time>2026-04-29T09:06:40.215Z</time></trkpt><trkpt lat="45.4433152" lon="11.6007533"><ele>20.333333333333336</ele><time>2026-04-29T09:06:42.215Z</time></trkpt><trkpt lat="45.443399" lon="11.6007651"><ele>20.166666666666668</ele><time>2026-04-29T09:06:44.216Z</time></trkpt><trkpt lat="45.4434877" lon="11.6007694"><ele>20.0</ele><time>2026-04-29T09:06:46.216Z</time></trkpt><trkpt lat="45.4435927" lon="11.6007746"><ele>20.0</ele><time>2026-04-29T09:06:48.215Z</time></trkpt><trkpt lat="45.4437025" lon="11.6007686"><ele>20.0</ele><time>2026-04-29T09:06:50.216Z</time></trkpt><trkpt lat="45.4438169" lon="11.600772"><ele>20.0</ele><time>2026-04-29T09:06:52.215Z</time></trkpt><trkpt lat="45.4439296" lon="11.6007831"><ele>20.0</ele><time>2026-04-29T09:06:54.215Z</time></trkpt><trkpt lat="45.4440451" lon="11.600786"><ele>20.25</ele><time>2026-04-29T09:06:56.215Z</time></trkpt><trkpt lat="45.444167" lon="11.6007828"><ele>20.5</ele><time>2026-04-29T09:06:58.216Z</time></trkpt><trkpt lat="45.4442886" lon="11.6007894"><ele>20.75</ele><time>2026-04-29T09:07:00.215Z</time></trkpt><trkpt lat="45.4444172" lon="11.6007969"><ele>21.0</ele><time>2026-04-29T09:07:02.215Z</time></trkpt><trkpt lat="45.4445424" lon="11.6007982"><ele>21.0</ele><time>2026-04-29T09:07:04.215Z</time></trkpt><trkpt lat="45.4446085" lon="11.6007993"><ele>21.0</ele><time>2026-04-29T09:07:05.215Z</time></trkpt><trkpt lat="45.444674" lon="11.6008049"><ele>21.0</ele><time>2026-04-29T09:07:06.215Z</time></trkpt><trkpt lat="45.4447414" lon="11.6008085"><ele>21.0</ele><time>2026-04-29T09:07:07.215Z</time></trkpt><trkpt lat="45.4448082" lon="11.6008165"><ele>21.0</ele><time>2026-04-29T09:07:08.215Z</time></trkpt><trkpt lat="45.4448755" lon="11.600823"><ele>21.0</ele><time>2026-04-29T09:07:09.215Z</time></trkpt><trkpt lat="45.4449434" lon="11.6008254"><ele>21.0</ele><time>2026-04-29T09:07:10.215Z</time></trkpt><trkpt lat="45.4450117" lon="11.6008287"><ele>20.857142857142858</ele><time>2026-04-29T09:07:11.215Z</time></trkpt><trkpt lat="45.4450802" lon="11.6008321"><ele>20.714285714285715</ele><time>2026-04-29T09:07:12.215Z</time></trkpt><trkpt lat="45.445147" lon="11.6008334"><ele>20.57142857142857</ele><time>2026-04-29T09:07:13.215Z</time></trkpt><trkpt lat="45.4452163" lon="11.6008388"><ele>20.42857142857143</ele><time>2026-04-29T09:07:14.216Z</time></trkpt><trkpt lat="45.4452841" lon="11.6008457"><ele>20.285714285714285</ele><time>2026-04-29T09:07:15.215Z</time></trkpt><trkpt lat="45.44535" lon="11.6008484"><ele>20.142857142857142</ele><time>2026-04-29T09:07:16.215Z</time></trkpt><trkpt lat="45.44542" lon="11.6008484"><ele>20.0</ele><time>2026-04-29T09:07:17.216Z</time></trkpt><trkpt lat="45.4454894" lon="11.600849"><ele>20.285714285714285</ele><time>2026-04-29T09:07:18.215Z</time></trkpt><trkpt lat="45.4455566" lon="11.6008496"><ele>20.571428571428573</ele><time>2026-04-29T09:07:19.215Z</time></trkpt><trkpt lat="45.445629" lon="11.6008548"><ele>20.857142857142858</ele><time>2026-04-29T09:07:20.215Z</time></trkpt><trkpt lat="45.4456924" lon="11.6008641"><ele>21.142857142857142</ele><time>2026-04-29T09:07:21.216Z</time></trkpt><trkpt lat="45.4457584" lon="11.6008731"><ele>21.428571428571427</ele><time>2026-04-29T09:07:22.215Z</time></trkpt><trkpt lat="45.4458272" lon="11.6008769"><ele>21.714285714285715</ele><time>2026-04-29T09:07:23.215Z</time></trkpt><trkpt lat="45.4458946" lon="11.6008795"><ele>22.0</ele><time>2026-04-29T09:07:24.215Z</time></trkpt><trkpt lat="45.4459626" lon="11.6008811"><ele>22.0</ele><time>2026-04-29T09:07:25.216Z</time></trkpt><trkpt lat="45.4460311" lon="11.6008808"><ele>22.0</ele><time>2026-04-29T09:07:26.215Z</time></trkpt><trkpt lat="45.4461001" lon="11.6008843"><ele>22.0</ele><time>2026-04-29T09:07:27.215Z</time></trkpt><trkpt lat="45.4461683" lon="11.6008863"><ele>22.0</ele><time>2026-04-29T09:07:28.215Z</time></trkpt><trkpt lat="45.4462324" lon="11.6008863"><ele>22.0</ele><time>2026-04-29T09:07:29.215Z</time></trkpt><trkpt lat="45.4463578" lon="11.6008951"><ele>22.0</ele><time>2026-04-29T09:07:31.215Z</time></trkpt><trkpt lat="45.4464226" lon="11.6008975"><ele>21.857142857142858</ele><time>2026-04-29T09:07:32.216Z</time></trkpt><trkpt lat="45.4464892" lon="11.6008963"><ele>21.714285714285715</ele><time>2026-04-29T09:07:33.215Z</time></trkpt><trkpt lat="45.4465539" lon="11.6008992"><ele>21.57142857142857</ele><time>2026-04-29T09:07:34.215Z</time></trkpt><trkpt lat="45.4466191" lon="11.6009028"><ele>21.42857142857143</ele><time>2026-04-29T09:07:35.215Z</time></trkpt><trkpt lat="45.4466834" lon="11.6009067"><ele>21.285714285714285</ele><time>2026-04-29T09:07:36.216Z</time></trkpt><trkpt lat="45.4467495" lon="11.6009086"><ele>21.142857142857142</ele><time>2026-04-29T09:07:37.215Z</time></trkpt><trkpt lat="45.4468157" lon="11.6009131"><ele>21.0</ele><time>2026-04-29T09:07:38.215Z</time></trkpt><trkpt lat="45.4468814" lon="11.600914"><ele>21.0</ele><time>2026-04-29T09:07:39.215Z</time></trkpt><trkpt lat="45.4469479" lon="11.6009184"><ele>21.0</ele><time>2026-04-29T09:07:40.216Z</time></trkpt><trkpt lat="45.4470151" lon="11.6009252"><ele>21.0</ele><time>2026-04-29T09:07:41.216Z</time></trkpt><trkpt lat="45.4470815" lon="11.6009264"><ele>21.0</ele><time>2026-04-29T09:07:42.215Z</time></trkpt><trkpt lat="45.4471486" lon="11.6009288"><ele>21.0</ele><time>2026-04-29T09:07:43.215Z</time></trkpt><trkpt lat="45.4472149" lon="11.6009288"><ele>21.0</ele><time>2026-04-29T09:07:44.215Z</time></trkpt><trkpt lat="45.4473395" lon="11.600929"><ele>21.0</ele><time>2026-04-29T09:07:46.215Z</time></trkpt><trkpt lat="45.4474589" lon="11.600934"><ele>21.0</ele><time>2026-04-29T09:07:48.215Z</time></trkpt><trkpt lat="45.4475809" lon="11.600943"><ele>21.0</ele><time>2026-04-29T09:07:50.215Z</time></trkpt><trkpt lat="45.4477037" lon="11.6009514"><ele>21.0</ele><time>2026-04-29T09:07:52.215Z</time></trkpt><trkpt lat="45.4478285" lon="11.6009657"><ele>21.0</ele><time>2026-04-29T09:07:54.215Z</time></trkpt><trkpt lat="45.4478927" lon="11.6009679"><ele>21.0</ele><time>2026-04-29T09:07:55.215Z</time></trkpt><trkpt lat="45.4479579" lon="11.6009645"><ele>21.0</ele><time>2026-04-29T09:07:56.215Z</time></trkpt><trkpt lat="45.4480228" lon="11.6009658"><ele>21.0</ele><time>2026-04-29T09:07:57.215Z</time></trkpt><trkpt lat="45.4480858" lon="11.6009698"><ele>21.0</ele><time>2026-04-29T09:07:58.216Z</time></trkpt><trkpt lat="45.4481508" lon="11.6009779"><ele>21.0</ele><time>2026-04-29T09:07:59.215Z</time></trkpt><trkpt lat="45.4482146" lon="11.6009813"><ele>21.0</ele><time>2026-04-29T09:08:00.216Z</time></trkpt><trkpt lat="45.448279" lon="11.6009872"><ele>21.0</ele><time>2026-04-29T09:08:01.215Z</time></trkpt><trkpt lat="45.4483999" lon="11.6009935"><ele>21.0</ele><time>2026-04-29T09:08:03.215Z</time></trkpt><trkpt lat="45.4485108" lon="11.6009873"><ele>21.0</ele><time>2026-04-29T09:08:05.215Z</time></trkpt><trkpt lat="45.4486156" lon="11.600989"><ele>21.0</ele><time>2026-04-29T09:08:07.216Z</time></trkpt><trkpt lat="45.448707" lon="11.6009877"><ele>21.0</ele><time>2026-04-29T09:08:09.215Z</time></trkpt><trkpt lat="45.4488003" lon="11.600994"><ele>21.0</ele><time>2026-04-29T09:08:11.216Z</time></trkpt><trkpt lat="45.4489032" lon="11.60101"><ele>21.0</ele><time>2026-04-29T09:08:13.215Z</time></trkpt><trkpt lat="45.4490244" lon="11.6010163"><ele>21.0</ele><time>2026-04-29T09:08:15.215Z</time></trkpt><trkpt lat="45.449152" lon="11.6010205"><ele>21.0</ele><time>2026-04-29T09:08:17.215Z</time></trkpt><trkpt lat="45.4492157" lon="11.601023"><ele>21.0</ele><time>2026-04-29T09:08:18.215Z</time></trkpt><trkpt lat="45.449339" lon="11.6010217"><ele>21.0</ele><time>2026-04-29T09:08:20.216Z</time></trkpt><trkpt lat="45.4494029" lon="11.6010258"><ele>21.0</ele><time>2026-04-29T09:08:21.215Z</time></trkpt><trkpt lat="45.4494714" lon="11.6010296"><ele>21.0</ele><time>2026-04-29T09:08:22.215Z</time></trkpt><trkpt lat="45.4495973" lon="11.6010335"><ele>21.0</ele><time>2026-04-29T09:08:24.216Z</time></trkpt><trkpt lat="45.4496675" lon="11.6010298"><ele>21.0</ele><time>2026-04-29T09:08:25.215Z</time></trkpt><trkpt lat="45.4497343" lon="11.6010334"><ele>21.0</ele><time>2026-04-29T09:08:26.215Z</time></trkpt><trkpt lat="45.4497982" lon="11.6010344"><ele>21.200000000000003</ele><time>2026-04-29T09:08:27.216Z</time></trkpt><trkpt lat="45.4498614" lon="11.6010337"><ele>21.400000000000002</ele><time>2026-04-29T09:08:28.215Z</time></trkpt><trkpt lat="45.449925" lon="11.6010302"><ele>21.6</ele><time>2026-04-29T09:08:29.215Z</time></trkpt><trkpt lat="45.4500437" lon="11.6010446"><ele>21.8</ele><time>2026-04-29T09:08:31.215Z</time></trkpt><trkpt lat="45.4501561" lon="11.60106"><ele>22.0</ele><time>2026-04-29T09:08:33.216Z</time></trkpt><trkpt lat="45.4502779" lon="11.60108"><ele>22.0</ele><time>2026-04-29T09:08:35.215Z</time></trkpt><trkpt lat="45.4503985" lon="11.6010932"><ele>22.0</ele><time>2026-04-29T09:08:37.216Z</time></trkpt><trkpt lat="45.4504617" lon="11.6011022"><ele>22.0</ele><time>2026-04-29T09:08:38.215Z</time></trkpt><trkpt lat="45.4505279" lon="11.6011131"><ele>22.0</ele><time>2026-04-29T09:08:39.216Z</time></trkpt><trkpt lat="45.4505908" lon="11.6011254"><ele>22.0</ele><time>2026-04-29T09:08:40.215Z</time></trkpt><trkpt lat="45.4507172" lon="11.6011601"><ele>22.0</ele><time>2026-04-29T09:08:42.215Z</time></trkpt><trkpt lat="45.4507811" lon="11.601182"><ele>21.714285714285715</ele><time>2026-04-29T09:08:43.216Z</time></trkpt><trkpt lat="45.4508471" lon="11.6011978"><ele>21.428571428571427</ele><time>2026-04-29T09:08:44.215Z</time></trkpt><trkpt lat="45.4509145" lon="11.601219"><ele>21.142857142857142</ele><time>2026-04-29T09:08:45.215Z</time></trkpt><trkpt lat="45.4509829" lon="11.6012399"><ele>20.857142857142858</ele><time>2026-04-29T09:08:46.215Z</time></trkpt><trkpt lat="45.4510504" lon="11.6012569"><ele>20.571428571428573</ele><time>2026-04-29T09:08:47.215Z</time></trkpt><trkpt lat="45.4511172" lon="11.6012769"><ele>20.285714285714285</ele><time>2026-04-29T09:08:48.216Z</time></trkpt><trkpt lat="45.4511828" lon="11.6012935"><ele>20.0</ele><time>2026-04-29T09:08:49.215Z</time></trkpt><trkpt lat="45.4512513" lon="11.6013131"><ele>20.285714285714285</ele><time>2026-04-29T09:08:50.215Z</time></trkpt><trkpt lat="45.4513146" lon="11.6013309"><ele>20.571428571428573</ele><time>2026-04-29T09:08:51.216Z</time></trkpt><trkpt lat="45.4513801" lon="11.6013462"><ele>20.857142857142858</ele><time>2026-04-29T09:08:52.215Z</time></trkpt><trkpt lat="45.4514477" lon="11.6013627"><ele>21.142857142857142</ele><time>2026-04-29T09:08:53.215Z</time></trkpt><trkpt lat="45.4515143" lon="11.6013854"><ele>21.428571428571427</ele><time>2026-04-29T09:08:54.215Z</time></trkpt><trkpt lat="45.451579" lon="11.601404"><ele>21.714285714285715</ele><time>2026-04-29T09:08:55.215Z</time></trkpt><trkpt lat="45.4516409" lon="11.6014229"><ele>22.0</ele><time>2026-04-29T09:08:56.216Z</time></trkpt><trkpt lat="45.4517039" lon="11.6014417"><ele>22.0</ele><time>2026-04-29T09:08:57.216Z</time></trkpt><trkpt lat="45.4517684" lon="11.6014589"><ele>22.0</ele><time>2026-04-29T09:08:58.215Z</time></trkpt><trkpt lat="45.4518342" lon="11.6014779"><ele>22.0</ele><time>2026-04-29T09:08:59.215Z</time></trkpt><trkpt lat="45.451898" lon="11.6015028"><ele>22.0</ele><time>2026-04-29T09:09:00.216Z</time></trkpt><trkpt lat="45.451962" lon="11.6015238"><ele>22.0</ele><time>2026-04-29T09:09:01.215Z</time></trkpt><trkpt lat="45.4520271" lon="11.6015451"><ele>22.0</ele><time>2026-04-29T09:09:02.215Z</time></trkpt><trkpt lat="45.4520919" lon="11.6015674"><ele>22.0</ele><time>2026-04-29T09:09:03.215Z</time></trkpt><trkpt lat="45.4521564" lon="11.6015901"><ele>22.0</ele><time>2026-04-29T09:09:04.215Z</time></trkpt><trkpt lat="45.4522213" lon="11.6016161"><ele>22.0</ele><time>2026-04-29T09:09:05.215Z</time></trkpt><trkpt lat="45.4522867" lon="11.6016443"><ele>22.0</ele><time>2026-04-29T09:09:06.215Z</time></trkpt><trkpt lat="45.4523517" lon="11.6016747"><ele>22.0</ele><time>2026-04-29T09:09:07.215Z</time></trkpt><trkpt lat="45.4524169" lon="11.6017106"><ele>22.0</ele><time>2026-04-29T09:09:08.215Z</time></trkpt><trkpt lat="45.4524825" lon="11.6017429"><ele>22.0</ele><time>2026-04-29T09:09:09.215Z</time></trkpt><trkpt lat="45.4525456" lon="11.6017751"><ele>22.0</ele><time>2026-04-29T09:09:10.215Z</time></trkpt><trkpt lat="45.4526068" lon="11.6018067"><ele>22.0</ele><time>2026-04-29T09:09:11.215Z</time></trkpt><trkpt lat="45.4526699" lon="11.6018351"><ele>22.0</ele><time>2026-04-29T09:09:12.215Z</time></trkpt><trkpt lat="45.452729" lon="11.6018708"><ele>22.0</ele><time>2026-04-29T09:09:13.215Z</time></trkpt><trkpt lat="45.4527881" lon="11.6019021"><ele>22.0</ele><time>2026-04-29T09:09:14.215Z</time></trkpt><trkpt lat="45.4528495" lon="11.6019314"><ele>22.0</ele><time>2026-04-29T09:09:15.216Z</time></trkpt><trkpt lat="45.452963" lon="11.6019839"><ele>22.0</ele><time>2026-04-29T09:09:17.215Z</time></trkpt><trkpt lat="45.4530759" lon="11.6020396"><ele>22.0</ele><time>2026-04-29T09:09:19.215Z</time></trkpt><trkpt lat="45.4531896" lon="11.6020979"><ele>22.0</ele><time>2026-04-29T09:09:21.215Z</time></trkpt><trkpt lat="45.4533034" lon="11.6021502"><ele>22.0</ele><time>2026-04-29T09:09:23.215Z</time></trkpt><trkpt lat="45.4534132" lon="11.6022009"><ele>22.0</ele><time>2026-04-29T09:09:25.215Z</time></trkpt><trkpt lat="45.4535289" lon="11.602259"><ele>22.0</ele><time>2026-04-29T09:09:27.216Z</time></trkpt><trkpt lat="45.4536347" lon="11.6023092"><ele>22.0</ele><time>2026-04-29T09:09:29.215Z</time></trkpt><trkpt lat="45.4537382" lon="11.6023605"><ele>22.0</ele><time>2026-04-29T09:09:31.215Z</time></trkpt><trkpt lat="45.4538317" lon="11.6024159"><ele>22.0</ele><time>2026-04-29T09:09:33.216Z</time></trkpt><trkpt lat="45.4539124" lon="11.6024469"><ele>22.0</ele><time>2026-04-29T09:09:35.215Z</time></trkpt><trkpt lat="45.4539747" lon="11.6024703"><ele>21.8</ele><time>2026-04-29T09:09:37.215Z</time></trkpt><trkpt lat="45.4540311" lon="11.6025253"><ele>21.6</ele><time>2026-04-29T09:09:39.215Z</time></trkpt><trkpt lat="45.4541157" lon="11.602565"><ele>21.400000000000002</ele><time>2026-04-29T09:09:41.215Z</time></trkpt><trkpt lat="45.4542188" lon="11.6026072"><ele>21.200000000000003</ele><time>2026-04-29T09:09:43.215Z</time></trkpt><trkpt lat="45.4543172" lon="11.6026591"><ele>21.0</ele><time>2026-04-29T09:09:45.215Z</time></trkpt><trkpt lat="45.4544267" lon="11.6027124"><ele>21.0</ele><time>2026-04-29T09:09:47.215Z</time></trkpt><trkpt lat="45.4544873" lon="11.6027402"><ele>21.0</ele><time>2026-04-29T09:09:48.215Z</time></trkpt><trkpt lat="45.4546016" lon="11.6027989"><ele>21.0</ele><time>2026-04-29T09:09:50.216Z</time></trkpt><trkpt lat="45.4547203" lon="11.6028549"><ele>21.0</ele><time>2026-04-29T09:09:52.215Z</time></trkpt><trkpt lat="45.4548382" lon="11.6029136"><ele>21.0</ele><time>2026-04-29T09:09:54.216Z</time></trkpt><trkpt lat="45.4548969" lon="11.6029476"><ele>21.200000000000003</ele><time>2026-04-29T09:09:55.216Z</time></trkpt><trkpt lat="45.4550156" lon="11.6030037"><ele>21.400000000000002</ele><time>2026-04-29T09:09:57.215Z</time></trkpt><trkpt lat="45.4551348" lon="11.6030591"><ele>21.6</ele><time>2026-04-29T09:09:59.214Z</time></trkpt><trkpt lat="45.4552582" lon="11.6031183"><ele>21.8</ele><time>2026-04-29T09:10:01.214Z</time></trkpt><trkpt lat="45.4553217" lon="11.6031478"><ele>22.0</ele><time>2026-04-29T09:10:02.215Z</time></trkpt><trkpt lat="45.4553848" lon="11.6031837"><ele>22.0</ele><time>2026-04-29T09:10:03.214Z</time></trkpt><trkpt lat="45.4554473" lon="11.6032111"><ele>22.0</ele><time>2026-04-29T09:10:04.214Z</time></trkpt><trkpt lat="45.4555566" lon="11.6032755"><ele>22.0</ele><time>2026-04-29T09:10:06.214Z</time></trkpt><trkpt lat="45.455666" lon="11.603339"><ele>22.0</ele><time>2026-04-29T09:10:08.214Z</time></trkpt><trkpt lat="45.4557685" lon="11.6034053"><ele>22.0</ele><time>2026-04-29T09:10:10.214Z</time></trkpt><trkpt lat="45.4558757" lon="11.6034769"><ele>22.0</ele><time>2026-04-29T09:10:12.214Z</time></trkpt><trkpt lat="45.4559825" lon="11.6035431"><ele>22.0</ele><time>2026-04-29T09:10:14.214Z</time></trkpt><trkpt lat="45.4560905" lon="11.6036146"><ele>22.0</ele><time>2026-04-29T09:10:16.214Z</time></trkpt><trkpt lat="45.4561989" lon="11.6036892"><ele>22.0</ele><time>2026-04-29T09:10:18.214Z</time></trkpt><trkpt lat="45.4563076" lon="11.6037651"><ele>21.5</ele><time>2026-04-29T09:10:20.214Z</time></trkpt><trkpt lat="45.4564191" lon="11.6038368"><ele>21.0</ele><time>2026-04-29T09:10:22.215Z</time></trkpt><trkpt lat="45.4565277" lon="11.6039096"><ele>20.5</ele><time>2026-04-29T09:10:24.215Z</time></trkpt><trkpt lat="45.4566331" lon="11.6039813"><ele>20.0</ele><time>2026-04-29T09:10:26.215Z</time></trkpt><trkpt lat="45.4567268" lon="11.6040469"><ele>20.0</ele><time>2026-04-29T09:10:28.215Z</time></trkpt><trkpt lat="45.456818" lon="11.6041066"><ele>20.0</ele><time>2026-04-29T09:10:30.214Z</time></trkpt><trkpt lat="45.4569001" lon="11.6041614"><ele>20.0</ele><time>2026-04-29T09:10:32.215Z</time></trkpt><trkpt lat="45.4569812" lon="11.604212"><ele>20.0</ele><time>2026-04-29T09:10:34.215Z</time></trkpt><trkpt lat="45.457046" lon="11.6042548"><ele>20.0</ele><time>2026-04-29T09:10:36.215Z</time></trkpt><trkpt lat="45.4571275" lon="11.6042911"><ele>20.0</ele><time>2026-04-29T09:10:39.215Z</time></trkpt><trkpt lat="45.4571894" lon="11.6042608"><ele>20.0</ele><time>2026-04-29T09:10:41.214Z</time></trkpt><trkpt lat="45.4572545" lon="11.6042122"><ele>20.0</ele><time>2026-04-29T09:10:43.214Z</time></trkpt><trkpt lat="45.4573241" lon="11.60413"><ele>20.0</ele><time>2026-04-29T09:10:46.217Z</time></trkpt><trkpt lat="45.457379" lon="11.6040794"><ele>20.0</ele><time>2026-04-29T09:10:49.217Z</time></trkpt><trkpt lat="45.4575047" lon="11.6040541"><ele>20.0</ele><time>2026-04-29T09:19:11.215Z</time></trkpt><trkpt lat="45.4574752" lon="11.603968"><ele>20.0</ele><time>2026-04-29T09:19:21.215Z</time></trkpt><trkpt lat="45.4574056" lon="11.6039858"><ele>20.0</ele><time>2026-04-29T09:20:12.215Z</time></trkpt><trkpt lat="45.4573629" lon="11.6040854"><ele>20.0</ele><time>2026-04-29T09:20:15.179Z</time></trkpt><trkpt lat="45.4573126" lon="11.6041606"><ele>20.0</ele><time>2026-04-29T09:20:17.238Z</time></trkpt><trkpt lat="45.457261" lon="11.6042437"><ele>20.0</ele><time>2026-04-29T09:20:19.132Z</time></trkpt><trkpt lat="45.4571684" lon="11.6042975"><ele>20.0</ele><time>2026-04-29T09:20:21.215Z</time></trkpt><trkpt lat="45.4570878" lon="11.6042951"><ele>20.0</ele><time>2026-04-29T09:20:23.215Z</time></trkpt><trkpt lat="45.4570424" lon="11.60421"><ele>20.0</ele><time>2026-04-29T09:20:25.214Z</time></trkpt><trkpt lat="45.4570729" lon="11.6041169"><ele>20.0</ele><time>2026-04-29T09:20:27.217Z</time></trkpt><trkpt lat="45.4571301" lon="11.6040362"><ele>20.0</ele><time>2026-04-29T09:20:29.235Z</time></trkpt><trkpt lat="45.4571689" lon="11.6039128"><ele>20.0</ele><time>2026-04-29T09:20:31.253Z</time></trkpt><trkpt lat="45.4571947" lon="11.6037728"><ele>20.0</ele><time>2026-04-29T09:20:33.214Z</time></trkpt><trkpt lat="45.4572543" lon="11.6036597"><ele>20.0</ele><time>2026-04-29T09:20:35.214Z</time></trkpt><trkpt lat="45.457358" lon="11.6036194"><ele>20.0</ele><time>2026-04-29T09:20:37.214Z</time></trkpt><trkpt lat="45.4574538" lon="11.6036559"><ele>20.0</ele><time>2026-04-29T09:20:39.214Z</time></trkpt><trkpt lat="45.4575487" lon="11.6037395"><ele>20.0</ele><time>2026-04-29T09:20:41.214Z</time></trkpt><trkpt lat="45.4576388" lon="11.6038077"><ele>20.0</ele><time>2026-04-29T09:20:43.214Z</time></trkpt><trkpt lat="45.4577312" lon="11.6038658"><ele>20.0</ele><time>2026-04-29T09:20:45.215Z</time></trkpt><trkpt lat="45.4578094" lon="11.6039156"><ele>20.0</ele><time>2026-04-29T09:20:47.214Z</time></trkpt><trkpt lat="45.4578869" lon="11.6039736"><ele>20.0</ele><time>2026-04-29T09:20:49.214Z</time></trkpt><trkpt lat="45.4579628" lon="11.6040576"><ele>20.0</ele><time>2026-04-29T09:20:51.214Z</time></trkpt><trkpt lat="45.4579874" lon="11.6041964"><ele>20.0</ele><time>2026-04-29T09:20:53.214Z</time></trkpt><trkpt lat="45.4579353" lon="11.6043177"><ele>20.0</ele><time>2026-04-29T09:20:55.214Z</time></trkpt><trkpt lat="45.4578898" lon="11.6044425"><ele>20.0</ele><time>2026-04-29T09:20:57.214Z</time></trkpt><trkpt lat="45.4578503" lon="11.6045651"><ele>20.0</ele><time>2026-04-29T09:20:59.215Z</time></trkpt><trkpt lat="45.4578261" lon="11.6046936"><ele>20.0</ele><time>2026-04-29T09:21:01.214Z</time></trkpt><trkpt lat="45.4578619" lon="11.6047968"><ele>20.0</ele><time>2026-04-29T09:21:03.214Z</time></trkpt><trkpt lat="45.4579368" lon="11.6048528"><ele>20.0</ele><time>2026-04-29T09:21:05.215Z</time></trkpt><trkpt lat="45.4580257" lon="11.6049021"><ele>20.0</ele><time>2026-04-29T09:21:07.214Z</time></trkpt><trkpt lat="45.4581164" lon="11.6049615"><ele>20.2</ele><time>2026-04-29T09:21:09.214Z</time></trkpt><trkpt lat="45.4582124" lon="11.6050232"><ele>20.4</ele><time>2026-04-29T09:21:11.214Z</time></trkpt><trkpt lat="45.4583114" lon="11.6050858"><ele>20.6</ele><time>2026-04-29T09:21:13.215Z</time></trkpt><trkpt lat="45.4584117" lon="11.6051556"><ele>20.8</ele><time>2026-04-29T09:21:15.214Z</time></trkpt><trkpt lat="45.458507" lon="11.6052207"><ele>21.0</ele><time>2026-04-29T09:21:17.214Z</time></trkpt><trkpt lat="45.4586074" lon="11.605285"><ele>21.200000000000003</ele><time>2026-04-29T09:21:19.214Z</time></trkpt><trkpt lat="45.458713" lon="11.6053504"><ele>21.400000000000002</ele><time>2026-04-29T09:21:21.215Z</time></trkpt><trkpt lat="45.4588132" lon="11.6054239"><ele>21.6</ele><time>2026-04-29T09:21:23.214Z</time></trkpt><trkpt lat="45.4589116" lon="11.6054934"><ele>21.8</ele><time>2026-04-29T09:21:25.214Z</time></trkpt><trkpt lat="45.4590126" lon="11.60555"><ele>22.0</ele><time>2026-04-29T09:21:27.214Z</time></trkpt><trkpt lat="45.4591117" lon="11.6056268"><ele>22.0</ele><time>2026-04-29T09:21:29.215Z</time></trkpt><trkpt lat="45.4592115" lon="11.6056994"><ele>22.0</ele><time>2026-04-29T09:21:31.214Z</time></trkpt><trkpt lat="45.4593119" lon="11.6057519"><ele>22.0</ele><time>2026-04-29T09:21:33.214Z</time></trkpt><trkpt lat="45.4594149" lon="11.6058158"><ele>22.0</ele><time>2026-04-29T09:21:35.214Z</time></trkpt><trkpt lat="45.4595051" lon="11.6058779"><ele>22.0</ele><time>2026-04-29T09:21:37.214Z</time></trkpt><trkpt lat="45.459595" lon="11.6059529"><ele>22.0</ele><time>2026-04-29T09:21:39.214Z</time></trkpt><trkpt lat="45.4596916" lon="11.6060209"><ele>22.0</ele><time>2026-04-29T09:21:41.214Z</time></trkpt><trkpt lat="45.4597891" lon="11.6060979"><ele>22.0</ele><time>2026-04-29T09:21:43.215Z</time></trkpt><trkpt lat="45.4598955" lon="11.6061715"><ele>22.0</ele><time>2026-04-29T09:21:45.214Z</time></trkpt><trkpt lat="45.4599998" lon="11.6062339"><ele>22.0</ele><time>2026-04-29T09:21:47.214Z</time></trkpt><trkpt lat="45.4600926" lon="11.6062973"><ele>22.0</ele><time>2026-04-29T09:21:49.214Z</time></trkpt><trkpt lat="45.4601809" lon="11.6063483"><ele>22.0</ele><time>2026-04-29T09:21:51.215Z</time></trkpt><trkpt lat="45.4602609" lon="11.6063963"><ele>22.0</ele><time>2026-04-29T09:21:53.214Z</time></trkpt><trkpt lat="45.4603298" lon="11.6063957"><ele>22.0</ele><time>2026-04-29T09:21:55.214Z</time></trkpt><trkpt lat="45.4603949" lon="11.6063643"><ele>22.0</ele><time>2026-04-29T09:21:57.214Z</time></trkpt><trkpt lat="45.4604714" lon="11.6063473"><ele>22.0</ele><time>2026-04-29T09:21:59.214Z</time></trkpt><trkpt lat="45.4605512" lon="11.6063109"><ele>22.0</ele><time>2026-04-29T09:22:01.215Z</time></trkpt><trkpt lat="45.4606315" lon="11.6063145"><ele>22.0</ele><time>2026-04-29T09:22:03.214Z</time></trkpt><trkpt lat="45.4607006" lon="11.6063591"><ele>22.0</ele><time>2026-04-29T09:22:05.214Z</time></trkpt><trkpt lat="45.4607416" lon="11.6064489"><ele>22.0</ele><time>2026-04-29T09:22:07.214Z</time></trkpt><trkpt lat="45.4607383" lon="11.6065433"><ele>22.0</ele><time>2026-04-29T09:22:09.214Z</time></trkpt><trkpt lat="45.4606927" lon="11.6066163"><ele>22.0</ele><time>2026-04-29T09:22:11.214Z</time></trkpt><trkpt lat="45.4606171" lon="11.6066481"><ele>22.0</ele><time>2026-04-29T09:22:13.214Z</time></trkpt><trkpt lat="45.4605163" lon="11.6066505"><ele>22.0</ele><time>2026-04-29T09:22:15.215Z</time></trkpt><trkpt lat="45.4604142" lon="11.6066591"><ele>22.0</ele><time>2026-04-29T09:22:17.214Z</time></trkpt><trkpt lat="45.4603041" lon="11.6066931"><ele>22.0</ele><time>2026-04-29T09:22:19.214Z</time></trkpt><trkpt lat="45.4602055" lon="11.6067738"><ele>22.200000000000003</ele><time>2026-04-29T09:22:21.215Z</time></trkpt><trkpt lat="45.4601317" lon="11.6069036"><ele>22.4</ele><time>2026-04-29T09:22:23.215Z</time></trkpt><trkpt lat="45.4600832" lon="11.6070516"><ele>22.6</ele><time>2026-04-29T09:22:25.215Z</time></trkpt><trkpt lat="45.4600664" lon="11.6071436"><ele>22.799999999999997</ele><time>2026-04-29T09:22:26.215Z</time></trkpt><trkpt lat="45.4600496" lon="11.6073163"><ele>23.0</ele><time>2026-04-29T09:22:28.215Z</time></trkpt><trkpt lat="45.4600608" lon="11.6074859"><ele>23.0</ele><time>2026-04-29T09:22:30.215Z</time></trkpt><trkpt lat="45.4600977" lon="11.6076339"><ele>23.0</ele><time>2026-04-29T09:22:32.214Z</time></trkpt><trkpt lat="45.4601715" lon="11.6077561"><ele>23.0</ele><time>2026-04-29T09:22:34.214Z</time></trkpt><trkpt lat="45.4602621" lon="11.6078659"><ele>23.0</ele><time>2026-04-29T09:22:36.215Z</time></trkpt><trkpt lat="45.460361" lon="11.6079498"><ele>23.25</ele><time>2026-04-29T09:22:38.214Z</time></trkpt><trkpt lat="45.4604604" lon="11.6080477"><ele>23.5</ele><time>2026-04-29T09:22:40.214Z</time></trkpt><trkpt lat="45.4605467" lon="11.6081687"><ele>23.75</ele><time>2026-04-29T09:22:42.215Z</time></trkpt><trkpt lat="45.4606116" lon="11.6083209"><ele>24.0</ele><time>2026-04-29T09:22:44.215Z</time></trkpt><trkpt lat="45.4606508" lon="11.6084797"><ele>24.0</ele><time>2026-04-29T09:22:46.214Z</time></trkpt><trkpt lat="45.4606658" lon="11.608645"><ele>24.0</ele><time>2026-04-29T09:22:48.214Z</time></trkpt><trkpt lat="45.4606753" lon="11.6088173"><ele>24.0</ele><time>2026-04-29T09:22:50.214Z</time></trkpt><trkpt lat="45.4606741" lon="11.6089826"><ele>24.0</ele><time>2026-04-29T09:22:52.214Z</time></trkpt><trkpt lat="45.4606635" lon="11.6091462"><ele>24.0</ele><time>2026-04-29T09:22:54.214Z</time></trkpt><trkpt lat="45.460652" lon="11.6093138"><ele>24.0</ele><time>2026-04-29T09:22:56.215Z</time></trkpt><trkpt lat="45.4606324" lon="11.6094758"><ele>24.0</ele><time>2026-04-29T09:22:58.215Z</time></trkpt><trkpt lat="45.4606036" lon="11.6096389"><ele>24.0</ele><time>2026-04-29T09:23:00.215Z</time></trkpt><trkpt lat="45.4605692" lon="11.6097994"><ele>24.0</ele><time>2026-04-29T09:23:02.214Z</time></trkpt><trkpt lat="45.4605498" lon="11.6098863"><ele>24.0</ele><time>2026-04-29T09:23:03.215Z</time></trkpt><trkpt lat="45.4605029" lon="11.6100498"><ele>24.0</ele><time>2026-04-29T09:23:05.215Z</time></trkpt><trkpt lat="45.4604567" lon="11.6102077"><ele>24.0</ele><time>2026-04-29T09:23:07.214Z</time></trkpt><trkpt lat="45.4604044" lon="11.6103545"><ele>24.0</ele><time>2026-04-29T09:23:09.214Z</time></trkpt><trkpt lat="45.4603443" lon="11.6105067"><ele>23.833333333333332</ele><time>2026-04-29T09:23:11.214Z</time></trkpt><trkpt lat="45.4602761" lon="11.610648"><ele>23.666666666666668</ele><time>2026-04-29T09:23:13.214Z</time></trkpt><trkpt lat="45.460237" lon="11.6107184"><ele>23.5</ele><time>2026-04-29T09:23:14.215Z</time></trkpt><trkpt lat="45.4601966" lon="11.6107911"><ele>23.333333333333336</ele><time>2026-04-29T09:23:15.215Z</time></trkpt><trkpt lat="45.4601551" lon="11.6108645"><ele>23.166666666666668</ele><time>2026-04-29T09:23:16.214Z</time></trkpt><trkpt lat="45.4601138" lon="11.6109376"><ele>23.0</ele><time>2026-04-29T09:23:17.215Z</time></trkpt><trkpt lat="45.4600324" lon="11.6110755"><ele>23.0</ele><time>2026-04-29T09:23:19.214Z</time></trkpt><trkpt lat="45.4599921" lon="11.6111454"><ele>23.0</ele><time>2026-04-29T09:23:20.214Z</time></trkpt><trkpt lat="45.4599512" lon="11.6112137"><ele>23.0</ele><time>2026-04-29T09:23:21.214Z</time></trkpt><trkpt lat="45.4599094" lon="11.6112826"><ele>23.0</ele><time>2026-04-29T09:23:22.215Z</time></trkpt><trkpt lat="45.4598685" lon="11.6113531"><ele>23.0</ele><time>2026-04-29T09:23:23.214Z</time></trkpt><trkpt lat="45.4598249" lon="11.6114235"><ele>23.0</ele><time>2026-04-29T09:23:24.214Z</time></trkpt><trkpt lat="45.4597434" lon="11.6115612"><ele>23.0</ele><time>2026-04-29T09:23:26.215Z</time></trkpt><trkpt lat="45.4597015" lon="11.6116289"><ele>23.0</ele><time>2026-04-29T09:23:27.215Z</time></trkpt><trkpt lat="45.4596217" lon="11.6117626"><ele>23.0</ele><time>2026-04-29T09:23:29.215Z</time></trkpt><trkpt lat="45.459543" lon="11.6118978"><ele>23.0</ele><time>2026-04-29T09:23:31.214Z</time></trkpt><trkpt lat="45.4594652" lon="11.6120393"><ele>23.0</ele><time>2026-04-29T09:23:33.213Z</time></trkpt><trkpt lat="45.4594246" lon="11.61211"><ele>23.0</ele><time>2026-04-29T09:23:34.213Z</time></trkpt><trkpt lat="45.4593794" lon="11.6121875"><ele>23.166666666666668</ele><time>2026-04-29T09:23:35.213Z</time></trkpt><trkpt lat="45.4593007" lon="11.6123231"><ele>23.333333333333336</ele><time>2026-04-29T09:23:37.213Z</time></trkpt><trkpt lat="45.45926" lon="11.6123953"><ele>23.5</ele><time>2026-04-29T09:23:38.214Z</time></trkpt><trkpt lat="45.45922" lon="11.6124673"><ele>23.666666666666668</ele><time>2026-04-29T09:23:39.213Z</time></trkpt><trkpt lat="45.4591769" lon="11.6125409"><ele>23.833333333333332</ele><time>2026-04-29T09:23:40.213Z</time></trkpt><trkpt lat="45.4591361" lon="11.6126194"><ele>24.0</ele><time>2026-04-29T09:23:41.214Z</time></trkpt><trkpt lat="45.4590959" lon="11.6126904"><ele>24.0</ele><time>2026-04-29T09:23:42.213Z</time></trkpt><trkpt lat="45.4590566" lon="11.6127615"><ele>24.0</ele><time>2026-04-29T09:23:43.214Z</time></trkpt><trkpt lat="45.4589756" lon="11.612898"><ele>24.0</ele><time>2026-04-29T09:23:45.213Z</time></trkpt><trkpt lat="45.4589312" lon="11.612975"><ele>24.0</ele><time>2026-04-29T09:23:46.213Z</time></trkpt><trkpt lat="45.4588898" lon="11.6130471"><ele>24.0</ele><time>2026-04-29T09:23:47.213Z</time></trkpt><trkpt lat="45.4588448" lon="11.6131211"><ele>24.0</ele><time>2026-04-29T09:23:48.213Z</time></trkpt><trkpt lat="45.4588011" lon="11.6131951"><ele>23.799999999999997</ele><time>2026-04-29T09:23:49.213Z</time></trkpt><trkpt lat="45.4587589" lon="11.613268"><ele>23.599999999999998</ele><time>2026-04-29T09:23:50.214Z</time></trkpt><trkpt lat="45.4586803" lon="11.613401"><ele>23.4</ele><time>2026-04-29T09:23:52.213Z</time></trkpt><trkpt lat="45.458604" lon="11.6135368"><ele>23.2</ele><time>2026-04-29T09:23:54.213Z</time></trkpt><trkpt lat="45.4585639" lon="11.613606"><ele>23.0</ele><time>2026-04-29T09:23:55.213Z</time></trkpt><trkpt lat="45.4584842" lon="11.6137446"><ele>23.0</ele><time>2026-04-29T09:23:57.213Z</time></trkpt><trkpt lat="45.4584432" lon="11.6138173"><ele>23.0</ele><time>2026-04-29T09:23:58.213Z</time></trkpt><trkpt lat="45.4583694" lon="11.6139544"><ele>23.0</ele><time>2026-04-29T09:24:00.213Z</time></trkpt><trkpt lat="45.4582897" lon="11.6140861"><ele>23.0</ele><time>2026-04-29T09:24:02.213Z</time></trkpt><trkpt lat="45.4582158" lon="11.6142219"><ele>23.0</ele><time>2026-04-29T09:24:04.213Z</time></trkpt><trkpt lat="45.4581366" lon="11.6143545"><ele>23.0</ele><time>2026-04-29T09:24:06.214Z</time></trkpt><trkpt lat="45.4580636" lon="11.6144918"><ele>23.0</ele><time>2026-04-29T09:24:08.213Z</time></trkpt><trkpt lat="45.4580245" lon="11.6145628"><ele>23.0</ele><time>2026-04-29T09:24:09.213Z</time></trkpt><trkpt lat="45.4579794" lon="11.6146338"><ele>23.0</ele><time>2026-04-29T09:24:10.214Z</time></trkpt><trkpt lat="45.4579399" lon="11.6147057"><ele>23.0</ele><time>2026-04-29T09:24:11.213Z</time></trkpt><trkpt lat="45.4578991" lon="11.6147753"><ele>23.0</ele><time>2026-04-29T09:24:12.213Z</time></trkpt><trkpt lat="45.4578579" lon="11.6148443"><ele>23.0</ele><time>2026-04-29T09:24:13.214Z</time></trkpt><trkpt lat="45.4577841" lon="11.6149807"><ele>23.0</ele><time>2026-04-29T09:24:15.213Z</time></trkpt><trkpt lat="45.4577076" lon="11.6151103"><ele>23.0</ele><time>2026-04-29T09:24:17.213Z</time></trkpt><trkpt lat="45.4576215" lon="11.6152403"><ele>23.0</ele><time>2026-04-29T09:24:19.214Z</time></trkpt><trkpt lat="45.4575344" lon="11.6153693"><ele>23.0</ele><time>2026-04-29T09:24:21.213Z</time></trkpt><trkpt lat="45.4574467" lon="11.6154915"><ele>22.799999999999997</ele><time>2026-04-29T09:24:23.214Z</time></trkpt><trkpt lat="45.4573567" lon="11.6155983"><ele>22.6</ele><time>2026-04-29T09:24:25.213Z</time></trkpt><trkpt lat="45.4572668" lon="11.6157003"><ele>22.4</ele><time>2026-04-29T09:24:27.214Z</time></trkpt><trkpt lat="45.4572143" lon="11.6157538"><ele>22.200000000000003</ele><time>2026-04-29T09:24:28.213Z</time></trkpt><trkpt lat="45.4571151" lon="11.615855"><ele>22.0</ele><time>2026-04-29T09:24:30.213Z</time></trkpt><trkpt lat="45.4570148" lon="11.615961"><ele>22.0</ele><time>2026-04-29T09:24:32.213Z</time></trkpt><trkpt lat="45.4569123" lon="11.6160674"><ele>22.0</ele><time>2026-04-29T09:24:34.214Z</time></trkpt><trkpt lat="45.4568592" lon="11.6161186"><ele>22.0</ele><time>2026-04-29T09:24:35.213Z</time></trkpt><trkpt lat="45.4568032" lon="11.6161698"><ele>22.0</ele><time>2026-04-29T09:24:36.213Z</time></trkpt><trkpt lat="45.4566986" lon="11.6162725"><ele>22.0</ele><time>2026-04-29T09:24:38.214Z</time></trkpt><trkpt lat="45.456646" lon="11.6163241"><ele>22.0</ele><time>2026-04-29T09:24:39.214Z</time></trkpt><trkpt lat="45.4565926" lon="11.6163734"><ele>22.0</ele><time>2026-04-29T09:24:40.214Z</time></trkpt><trkpt lat="45.4564892" lon="11.616477"><ele>22.0</ele><time>2026-04-29T09:24:42.213Z</time></trkpt><trkpt lat="45.4564325" lon="11.6165317"><ele>22.0</ele><time>2026-04-29T09:24:43.213Z</time></trkpt><trkpt lat="45.4563717" lon="11.6165921"><ele>22.0</ele><time>2026-04-29T09:24:44.213Z</time></trkpt><trkpt lat="45.4563156" lon="11.6166574"><ele>22.0</ele><time>2026-04-29T09:24:45.213Z</time></trkpt><trkpt lat="45.4562593" lon="11.6167132"><ele>22.0</ele><time>2026-04-29T09:24:46.214Z</time></trkpt><trkpt lat="45.4562032" lon="11.616764"><ele>22.0</ele><time>2026-04-29T09:24:47.213Z</time></trkpt><trkpt lat="45.4561484" lon="11.6168182"><ele>22.0</ele><time>2026-04-29T09:24:48.213Z</time></trkpt><trkpt lat="45.4560914" lon="11.6168691"><ele>22.0</ele><time>2026-04-29T09:24:49.213Z</time></trkpt><trkpt lat="45.4560375" lon="11.6169229"><ele>22.0</ele><time>2026-04-29T09:24:50.214Z</time></trkpt><trkpt lat="45.4559829" lon="11.6169742"><ele>22.0</ele><time>2026-04-29T09:24:51.213Z</time></trkpt><trkpt lat="45.4558839" lon="11.6170723"><ele>22.0</ele><time>2026-04-29T09:24:53.213Z</time></trkpt><trkpt lat="45.4557862" lon="11.6171654"><ele>22.0</ele><time>2026-04-29T09:24:55.213Z</time></trkpt><trkpt lat="45.4556877" lon="11.6172584"><ele>22.0</ele><time>2026-04-29T09:24:57.214Z</time></trkpt><trkpt lat="45.4555962" lon="11.6173562"><ele>22.0</ele><time>2026-04-29T09:24:59.213Z</time></trkpt><trkpt lat="45.4555047" lon="11.6174433"><ele>22.0</ele><time>2026-04-29T09:25:01.213Z</time></trkpt><trkpt lat="45.4554104" lon="11.6175391"><ele>22.0</ele><time>2026-04-29T09:25:03.213Z</time></trkpt><trkpt lat="45.4553205" lon="11.6176575"><ele>22.0</ele><time>2026-04-29T09:25:05.214Z</time></trkpt><trkpt lat="45.4552337" lon="11.6177755"><ele>22.0</ele><time>2026-04-29T09:25:07.213Z</time></trkpt><trkpt lat="45.4551536" lon="11.6178924"><ele>22.0</ele><time>2026-04-29T09:25:09.213Z</time></trkpt><trkpt lat="45.4550758" lon="11.6180142"><ele>22.0</ele><time>2026-04-29T09:25:11.213Z</time></trkpt><trkpt lat="45.4549976" lon="11.6181481"><ele>22.0</ele><time>2026-04-29T09:25:13.213Z</time></trkpt><trkpt lat="45.4549245" lon="11.6182832"><ele>22.0</ele><time>2026-04-29T09:25:15.213Z</time></trkpt><trkpt lat="45.4548556" lon="11.618429"><ele>22.0</ele><time>2026-04-29T09:25:17.213Z</time></trkpt><trkpt lat="45.4548194" lon="11.6185046"><ele>22.0</ele><time>2026-04-29T09:25:18.214Z</time></trkpt><trkpt lat="45.4547535" lon="11.6186417"><ele>22.200000000000003</ele><time>2026-04-29T09:25:20.213Z</time></trkpt><trkpt lat="45.4547016" lon="11.6187694"><ele>22.4</ele><time>2026-04-29T09:25:22.213Z</time></trkpt><trkpt lat="45.4546517" lon="11.6188971"><ele>22.6</ele><time>2026-04-29T09:25:24.213Z</time></trkpt><trkpt lat="45.454604" lon="11.6190174"><ele>22.799999999999997</ele><time>2026-04-29T09:25:26.213Z</time></trkpt><trkpt lat="45.4545527" lon="11.6191439"><ele>23.0</ele><time>2026-04-29T09:25:28.213Z</time></trkpt><trkpt lat="45.4544787" lon="11.6192552"><ele>23.25</ele><time>2026-04-29T09:25:30.213Z</time></trkpt><trkpt lat="45.4543896" lon="11.6193522"><ele>23.5</ele><time>2026-04-29T09:25:32.213Z</time></trkpt><trkpt lat="45.4542867" lon="11.6194134"><ele>23.75</ele><time>2026-04-29T09:25:34.213Z</time></trkpt><trkpt lat="45.4541867" lon="11.6194916"><ele>24.0</ele><time>2026-04-29T09:25:36.213Z</time></trkpt><trkpt lat="45.4541061" lon="11.6196128"><ele>24.0</ele><time>2026-04-29T09:25:38.213Z</time></trkpt><trkpt lat="45.4540678" lon="11.6197707"><ele>24.0</ele><time>2026-04-29T09:25:40.213Z</time></trkpt><trkpt lat="45.4540668" lon="11.6199385"><ele>24.0</ele><time>2026-04-29T09:25:42.213Z</time></trkpt><trkpt lat="45.4540875" lon="11.6201093"><ele>24.0</ele><time>2026-04-29T09:25:44.214Z</time></trkpt><trkpt lat="45.4541031" lon="11.6202823"><ele>23.6</ele><time>2026-04-29T09:25:46.214Z</time></trkpt><trkpt lat="45.4541014" lon="11.6204578"><ele>23.2</ele><time>2026-04-29T09:25:48.213Z</time></trkpt><trkpt lat="45.4540876" lon="11.620547"><ele>22.8</ele><time>2026-04-29T09:25:49.214Z</time></trkpt><trkpt lat="45.4540469" lon="11.6207126"><ele>22.400000000000002</ele><time>2026-04-29T09:25:51.214Z</time></trkpt><trkpt lat="45.4539953" lon="11.6208635"><ele>22.0</ele><time>2026-04-29T09:25:53.214Z</time></trkpt><trkpt lat="45.4539486" lon="11.6210135"><ele>22.0</ele><time>2026-04-29T09:25:55.214Z</time></trkpt><trkpt lat="45.4539103" lon="11.6211706"><ele>22.0</ele><time>2026-04-29T09:25:57.213Z</time></trkpt><trkpt lat="45.453874" lon="11.6213315"><ele>22.0</ele><time>2026-04-29T09:25:59.214Z</time></trkpt><trkpt lat="45.4538436" lon="11.6215005"><ele>22.0</ele><time>2026-04-29T09:26:01.213Z</time></trkpt><trkpt lat="45.453808" lon="11.6216642"><ele>22.200000000000003</ele><time>2026-04-29T09:26:03.213Z</time></trkpt><trkpt lat="45.4537832" lon="11.621833"><ele>22.4</ele><time>2026-04-29T09:26:05.213Z</time></trkpt><trkpt lat="45.4537684" lon="11.6219252"><ele>22.6</ele><time>2026-04-29T09:26:06.213Z</time></trkpt><trkpt lat="45.4537427" lon="11.6220967"><ele>22.799999999999997</ele><time>2026-04-29T09:26:08.214Z</time></trkpt><trkpt lat="45.4537193" lon="11.6222563"><ele>23.0</ele><time>2026-04-29T09:26:10.213Z</time></trkpt><trkpt lat="45.453701" lon="11.6224229"><ele>23.0</ele><time>2026-04-29T09:26:12.213Z</time></trkpt><trkpt lat="45.4536801" lon="11.6225768"><ele>23.0</ele><time>2026-04-29T09:26:14.213Z</time></trkpt><trkpt lat="45.453657" lon="11.6227299"><ele>23.0</ele><time>2026-04-29T09:26:16.213Z</time></trkpt><trkpt lat="45.4536329" lon="11.6228882"><ele>23.0</ele><time>2026-04-29T09:26:18.213Z</time></trkpt><trkpt lat="45.4536093" lon="11.6230452"><ele>23.0</ele><time>2026-04-29T09:26:20.213Z</time></trkpt><trkpt lat="45.4535866" lon="11.6231994"><ele>23.0</ele><time>2026-04-29T09:26:22.213Z</time></trkpt><trkpt lat="45.4535657" lon="11.6233463"><ele>23.0</ele><time>2026-04-29T09:26:24.213Z</time></trkpt><trkpt lat="45.4535415" lon="11.6234999"><ele>23.0</ele><time>2026-04-29T09:26:26.213Z</time></trkpt><trkpt lat="45.4535167" lon="11.623653"><ele>23.0</ele><time>2026-04-29T09:26:28.214Z</time></trkpt><trkpt lat="45.4534934" lon="11.623804"><ele>23.0</ele><time>2026-04-29T09:26:30.214Z</time></trkpt><trkpt lat="45.4534718" lon="11.6239489"><ele>22.833333333333336</ele><time>2026-04-29T09:26:32.213Z</time></trkpt><trkpt lat="45.4534498" lon="11.6240812"><ele>22.666666666666668</ele><time>2026-04-29T09:26:34.213Z</time></trkpt><trkpt lat="45.4534347" lon="11.6242082"><ele>22.5</ele><time>2026-04-29T09:26:36.213Z</time></trkpt><trkpt lat="45.4534134" lon="11.624328"><ele>22.333333333333332</ele><time>2026-04-29T09:26:38.213Z</time></trkpt><trkpt lat="45.4533988" lon="11.6244411"><ele>22.166666666666664</ele><time>2026-04-29T09:26:40.213Z</time></trkpt><trkpt lat="45.4533851" lon="11.6245417"><ele>22.0</ele><time>2026-04-29T09:26:42.213Z</time></trkpt><trkpt lat="45.4533709" lon="11.6246434"><ele>22.0</ele><time>2026-04-29T09:26:44.214Z</time></trkpt><trkpt lat="45.4533574" lon="11.6247431"><ele>22.0</ele><time>2026-04-29T09:26:46.213Z</time></trkpt><trkpt lat="45.4533434" lon="11.6248433"><ele>22.0</ele><time>2026-04-29T09:26:48.214Z</time></trkpt><trkpt lat="45.4533281" lon="11.6249429"><ele>22.0</ele><time>2026-04-29T09:26:50.213Z</time></trkpt><trkpt lat="45.453316" lon="11.6250468"><ele>22.0</ele><time>2026-04-29T09:26:52.213Z</time></trkpt><trkpt lat="45.4533018" lon="11.6251488"><ele>22.0</ele><time>2026-04-29T09:26:54.213Z</time></trkpt><trkpt lat="45.4532874" lon="11.6252467"><ele>22.0</ele><time>2026-04-29T09:26:56.214Z</time></trkpt><trkpt lat="45.453272" lon="11.625355"><ele>22.142857142857142</ele><time>2026-04-29T09:26:58.213Z</time></trkpt><trkpt lat="45.4532552" lon="11.6254565"><ele>22.285714285714285</ele><time>2026-04-29T09:27:00.213Z</time></trkpt><trkpt lat="45.4532398" lon="11.6255544"><ele>22.42857142857143</ele><time>2026-04-29T09:27:02.213Z</time></trkpt><trkpt lat="45.4532303" lon="11.6256474"><ele>22.57142857142857</ele><time>2026-04-29T09:27:04.213Z</time></trkpt><trkpt lat="45.4532155" lon="11.6257442"><ele>22.71428571428571</ele><time>2026-04-29T09:27:06.213Z</time></trkpt><trkpt lat="45.4532039" lon="11.6258444"><ele>22.857142857142858</ele><time>2026-04-29T09:27:08.213Z</time></trkpt><trkpt lat="45.45319" lon="11.6259477"><ele>23.0</ele><time>2026-04-29T09:27:10.213Z</time></trkpt><trkpt lat="45.4531756" lon="11.6260462"><ele>23.0</ele><time>2026-04-29T09:27:12.214Z</time></trkpt><trkpt lat="45.4531607" lon="11.6261391"><ele>23.0</ele><time>2026-04-29T09:27:14.213Z</time></trkpt><trkpt lat="45.4531475" lon="11.6262316"><ele>23.0</ele><time>2026-04-29T09:27:16.212Z</time></trkpt><trkpt lat="45.453133" lon="11.6263278"><ele>23.0</ele><time>2026-04-29T09:27:18.212Z</time></trkpt><trkpt lat="45.4531171" lon="11.6264275"><ele>23.0</ele><time>2026-04-29T09:27:20.212Z</time></trkpt><trkpt lat="45.4531023" lon="11.6265422"><ele>23.0</ele><time>2026-04-29T09:27:22.212Z</time></trkpt><trkpt lat="45.4530848" lon="11.6266526"><ele>23.0</ele><time>2026-04-29T09:27:24.213Z</time></trkpt><trkpt lat="45.4530667" lon="11.6267728"><ele>22.799999999999997</ele><time>2026-04-29T09:27:26.212Z</time></trkpt><trkpt lat="45.4530484" lon="11.6268924"><ele>22.6</ele><time>2026-04-29T09:27:28.212Z</time></trkpt><trkpt lat="45.453027" lon="11.6270199"><ele>22.4</ele><time>2026-04-29T09:27:30.212Z</time></trkpt><trkpt lat="45.4530144" lon="11.6271452"><ele>22.200000000000003</ele><time>2026-04-29T09:27:32.213Z</time></trkpt><trkpt lat="45.4529957" lon="11.6272655"><ele>22.0</ele><time>2026-04-29T09:27:34.212Z</time></trkpt><trkpt lat="45.4529742" lon="11.6274019"><ele>22.200000000000003</ele><time>2026-04-29T09:27:36.212Z</time></trkpt><trkpt lat="45.4529283" lon="11.6275355"><ele>22.4</ele><time>2026-04-29T09:27:38.213Z</time></trkpt><trkpt lat="45.4528618" lon="11.6276477"><ele>22.6</ele><time>2026-04-29T09:27:40.212Z</time></trkpt><trkpt lat="45.4527817" lon="11.6277116"><ele>22.799999999999997</ele><time>2026-04-29T09:27:42.212Z</time></trkpt><trkpt lat="45.4527015" lon="11.6277594"><ele>23.0</ele><time>2026-04-29T09:27:44.212Z</time></trkpt><trkpt lat="45.4526299" lon="11.6278255"><ele>23.0</ele><time>2026-04-29T09:27:46.213Z</time></trkpt><trkpt lat="45.4525581" lon="11.6279091"><ele>23.0</ele><time>2026-04-29T09:27:48.212Z</time></trkpt><trkpt lat="45.4524841" lon="11.6280294"><ele>23.0</ele><time>2026-04-29T09:27:50.213Z</time></trkpt><trkpt lat="45.4524071" lon="11.6281684"><ele>23.0</ele><time>2026-04-29T09:27:52.213Z</time></trkpt><trkpt lat="45.4523745" lon="11.6282455"><ele>23.0</ele><time>2026-04-29T09:27:53.212Z</time></trkpt><trkpt lat="45.4523204" lon="11.6284148"><ele>23.0</ele><time>2026-04-29T09:27:55.213Z</time></trkpt><trkpt lat="45.4523007" lon="11.6285088"><ele>23.0</ele><time>2026-04-29T09:27:56.213Z</time></trkpt><trkpt lat="45.4522918" lon="11.6286097"><ele>23.0</ele><time>2026-04-29T09:27:57.212Z</time></trkpt><trkpt lat="45.4522888" lon="11.6287055"><ele>23.0</ele><time>2026-04-29T09:27:58.212Z</time></trkpt><trkpt lat="45.452296" lon="11.6287947"><ele>23.0</ele><time>2026-04-29T09:27:59.212Z</time></trkpt><trkpt lat="45.4523103" lon="11.628886"><ele>23.0</ele><time>2026-04-29T09:28:00.212Z</time></trkpt><trkpt lat="45.4523443" lon="11.629056"><ele>22.857142857142858</ele><time>2026-04-29T09:28:02.213Z</time></trkpt><trkpt lat="45.4523722" lon="11.6291473"><ele>22.71428571428571</ele><time>2026-04-29T09:28:03.212Z</time></trkpt><trkpt lat="45.4524062" lon="11.6292325"><ele>22.57142857142857</ele><time>2026-04-29T09:28:04.212Z</time></trkpt><trkpt lat="45.4524436" lon="11.6293199"><ele>22.42857142857143</ele><time>2026-04-29T09:28:05.212Z</time></trkpt><trkpt lat="45.4524892" lon="11.6293957"><ele>22.285714285714285</ele><time>2026-04-29T09:28:06.212Z</time></trkpt><trkpt lat="45.4525406" lon="11.6294637"><ele>22.142857142857142</ele><time>2026-04-29T09:28:07.212Z</time></trkpt><trkpt lat="45.4525928" lon="11.6295258"><ele>22.0</ele><time>2026-04-29T09:28:08.212Z</time></trkpt><trkpt lat="45.4526442" lon="11.6295799"><ele>22.0</ele><time>2026-04-29T09:28:09.212Z</time></trkpt><trkpt lat="45.4527014" lon="11.6296277"><ele>22.0</ele><time>2026-04-29T09:28:10.212Z</time></trkpt><trkpt lat="45.4528128" lon="11.6297323"><ele>22.0</ele><time>2026-04-29T09:28:12.212Z</time></trkpt><trkpt lat="45.4528612" lon="11.6298007"><ele>22.0</ele><time>2026-04-29T09:28:13.212Z</time></trkpt><trkpt lat="45.4529073" lon="11.6298749"><ele>22.0</ele><time>2026-04-29T09:28:14.213Z</time></trkpt><trkpt lat="45.4529513" lon="11.6299587"><ele>22.0</ele><time>2026-04-29T09:28:15.213Z</time></trkpt><trkpt lat="45.4529785" lon="11.6300539"><ele>22.142857142857142</ele><time>2026-04-29T09:28:16.213Z</time></trkpt><trkpt lat="45.452993" lon="11.630156"><ele>22.285714285714285</ele><time>2026-04-29T09:28:17.212Z</time></trkpt><trkpt lat="45.4530084" lon="11.6302621"><ele>22.42857142857143</ele><time>2026-04-29T09:28:18.212Z</time></trkpt><trkpt lat="45.453017" lon="11.6303675"><ele>22.57142857142857</ele><time>2026-04-29T09:28:19.213Z</time></trkpt><trkpt lat="45.4530253" lon="11.6304685"><ele>22.71428571428571</ele><time>2026-04-29T09:28:20.212Z</time></trkpt><trkpt lat="45.4530339" lon="11.6305671"><ele>22.857142857142858</ele><time>2026-04-29T09:28:21.212Z</time></trkpt><trkpt lat="45.4530389" lon="11.6306633"><ele>23.0</ele><time>2026-04-29T09:28:22.212Z</time></trkpt><trkpt lat="45.4530444" lon="11.6307608"><ele>23.142857142857142</ele><time>2026-04-29T09:28:23.213Z</time></trkpt><trkpt lat="45.4530496" lon="11.6308606"><ele>23.285714285714285</ele><time>2026-04-29T09:28:24.213Z</time></trkpt><trkpt lat="45.4530605" lon="11.6309567"><ele>23.428571428571427</ele><time>2026-04-29T09:28:25.212Z</time></trkpt><trkpt lat="45.4530632" lon="11.6310598"><ele>23.57142857142857</ele><time>2026-04-29T09:28:26.212Z</time></trkpt><trkpt lat="45.4530707" lon="11.6311592"><ele>23.714285714285715</ele><time>2026-04-29T09:28:27.212Z</time></trkpt><trkpt lat="45.453075" lon="11.6312611"><ele>23.857142857142854</ele><time>2026-04-29T09:28:28.212Z</time></trkpt><trkpt lat="45.4530773" lon="11.6313623"><ele>24.0</ele><time>2026-04-29T09:28:29.212Z</time></trkpt><trkpt lat="45.4530846" lon="11.6314639"><ele>23.999999999999996</ele><time>2026-04-29T09:28:30.212Z</time></trkpt><trkpt lat="45.4530878" lon="11.6315671"><ele>24.0</ele><time>2026-04-29T09:28:31.212Z</time></trkpt><trkpt lat="45.4530927" lon="11.6316705"><ele>24.0</ele><time>2026-04-29T09:28:32.212Z</time></trkpt><trkpt lat="45.4531" lon="11.6317745"><ele>24.0</ele><time>2026-04-29T09:28:33.212Z</time></trkpt><trkpt lat="45.4531055" lon="11.6318799"><ele>24.0</ele><time>2026-04-29T09:28:34.212Z</time></trkpt><trkpt lat="45.4531136" lon="11.631985"><ele>23.999999999999996</ele><time>2026-04-29T09:28:35.212Z</time></trkpt><trkpt lat="45.4531185" lon="11.6320889"><ele>24.0</ele><time>2026-04-29T09:28:36.213Z</time></trkpt><trkpt lat="45.4531233" lon="11.6321952"><ele>24.0</ele><time>2026-04-29T09:28:37.212Z</time></trkpt><trkpt lat="45.4531256" lon="11.6322984"><ele>24.0</ele><time>2026-04-29T09:28:38.212Z</time></trkpt><trkpt lat="45.4531277" lon="11.6323994"><ele>24.0</ele><time>2026-04-29T09:28:39.212Z</time></trkpt><trkpt lat="45.453125" lon="11.6325008"><ele>24.0</ele><time>2026-04-29T09:28:40.212Z</time></trkpt><trkpt lat="45.4531116" lon="11.6325971"><ele>24.0</ele><time>2026-04-29T09:28:41.212Z</time></trkpt><trkpt lat="45.4530855" lon="11.6326796"><ele>24.0</ele><time>2026-04-29T09:28:42.212Z</time></trkpt><trkpt lat="45.4530157" lon="11.6328421"><ele>23.857142857142854</ele><time>2026-04-29T09:28:44.212Z</time></trkpt><trkpt lat="45.4529804" lon="11.6329203"><ele>23.714285714285715</ele><time>2026-04-29T09:28:45.212Z</time></trkpt><trkpt lat="45.4529414" lon="11.6329972"><ele>23.57142857142857</ele><time>2026-04-29T09:28:46.212Z</time></trkpt><trkpt lat="45.4529078" lon="11.6330776"><ele>23.428571428571427</ele><time>2026-04-29T09:28:47.213Z</time></trkpt><trkpt lat="45.452886" lon="11.6331682"><ele>23.285714285714285</ele><time>2026-04-29T09:28:48.213Z</time></trkpt><trkpt lat="45.4528776" lon="11.6332681"><ele>23.142857142857142</ele><time>2026-04-29T09:28:49.213Z</time></trkpt><trkpt lat="45.4528869" lon="11.6333587"><ele>23.0</ele><time>2026-04-29T09:28:50.213Z</time></trkpt><trkpt lat="45.4529349" lon="11.6335209"><ele>23.0</ele><time>2026-04-29T09:28:52.213Z</time></trkpt><trkpt lat="45.4530135" lon="11.6336545"><ele>23.0</ele><time>2026-04-29T09:28:54.213Z</time></trkpt><trkpt lat="45.4531017" lon="11.6337721"><ele>23.0</ele><time>2026-04-29T09:28:56.212Z</time></trkpt><trkpt lat="45.4531727" lon="11.6339205"><ele>23.0</ele><time>2026-04-29T09:28:58.212Z</time></trkpt><trkpt lat="45.4532045" lon="11.6339995"><ele>23.0</ele><time>2026-04-29T09:28:59.212Z</time></trkpt><trkpt lat="45.4532334" lon="11.6340793"><ele>23.0</ele><time>2026-04-29T09:29:00.212Z</time></trkpt><trkpt lat="45.4532804" lon="11.6342425"><ele>23.0</ele><time>2026-04-29T09:29:02.212Z</time></trkpt><trkpt lat="45.4533248" lon="11.6344084"><ele>23.0</ele><time>2026-04-29T09:29:04.213Z</time></trkpt><trkpt lat="45.4533487" lon="11.6344945"><ele>23.0</ele><time>2026-04-29T09:29:05.213Z</time></trkpt><trkpt lat="45.453373" lon="11.6345783"><ele>23.0</ele><time>2026-04-29T09:29:06.212Z</time></trkpt><trkpt lat="45.4533978" lon="11.634666"><ele>23.0</ele><time>2026-04-29T09:29:07.213Z</time></trkpt><trkpt lat="45.4534233" lon="11.6347511"><ele>23.0</ele><time>2026-04-29T09:29:08.213Z</time></trkpt><trkpt lat="45.4534537" lon="11.6348333"><ele>23.0</ele><time>2026-04-29T09:29:09.212Z</time></trkpt><trkpt lat="45.453486" lon="11.6349107"><ele>23.0</ele><time>2026-04-29T09:29:10.212Z</time></trkpt><trkpt lat="45.4535509" lon="11.6350543"><ele>23.0</ele><time>2026-04-29T09:29:12.213Z</time></trkpt><trkpt lat="45.4536188" lon="11.635194"><ele>23.0</ele><time>2026-04-29T09:29:14.212Z</time></trkpt><trkpt lat="45.4536947" lon="11.6353252"><ele>23.0</ele><time>2026-04-29T09:29:16.212Z</time></trkpt><trkpt lat="45.4537747" lon="11.6354504"><ele>23.0</ele><time>2026-04-29T09:29:18.212Z</time></trkpt><trkpt lat="45.453818" lon="11.6355169"><ele>23.0</ele><time>2026-04-29T09:29:19.213Z</time></trkpt><trkpt lat="45.4538634" lon="11.6355791"><ele>23.0</ele><time>2026-04-29T09:29:20.212Z</time></trkpt><trkpt lat="45.4539503" lon="11.6357037"><ele>23.0</ele><time>2026-04-29T09:29:22.212Z</time></trkpt><trkpt lat="45.4540397" lon="11.6358348"><ele>23.0</ele><time>2026-04-29T09:29:24.213Z</time></trkpt><trkpt lat="45.4540822" lon="11.6359014"><ele>23.0</ele><time>2026-04-29T09:29:25.213Z</time></trkpt><trkpt lat="45.454166" lon="11.6360268"><ele>23.0</ele><time>2026-04-29T09:29:27.212Z</time></trkpt><trkpt lat="45.4542126" lon="11.6360876"><ele>23.0</ele><time>2026-04-29T09:29:28.212Z</time></trkpt><trkpt lat="45.4542566" lon="11.6361536"><ele>23.0</ele><time>2026-04-29T09:29:29.212Z</time></trkpt><trkpt lat="45.4543373" lon="11.6362803"><ele>23.0</ele><time>2026-04-29T09:29:31.213Z</time></trkpt><trkpt lat="45.4544184" lon="11.636404"><ele>23.2</ele><time>2026-04-29T09:29:33.213Z</time></trkpt><trkpt lat="45.4544979" lon="11.6365222"><ele>23.4</ele><time>2026-04-29T09:29:35.212Z</time></trkpt><trkpt lat="45.454578" lon="11.6366341"><ele>23.599999999999998</ele><time>2026-04-29T09:29:37.212Z</time></trkpt><trkpt lat="45.4546521" lon="11.6367449"><ele>23.799999999999997</ele><time>2026-04-29T09:29:39.212Z</time></trkpt><trkpt lat="45.4547307" lon="11.6368539"><ele>24.0</ele><time>2026-04-29T09:29:41.212Z</time></trkpt><trkpt lat="45.4548096" lon="11.6369712"><ele>24.0</ele><time>2026-04-29T09:29:43.213Z</time></trkpt><trkpt lat="45.454891" lon="11.6370881"><ele>24.0</ele><time>2026-04-29T09:29:45.213Z</time></trkpt><trkpt lat="45.4549708" lon="11.6372086"><ele>24.0</ele><time>2026-04-29T09:29:47.213Z</time></trkpt><trkpt lat="45.4550556" lon="11.6373312"><ele>24.0</ele><time>2026-04-29T09:29:49.213Z</time></trkpt><trkpt lat="45.455137" lon="11.6374521"><ele>24.0</ele><time>2026-04-29T09:29:51.212Z</time></trkpt><trkpt lat="45.4552233" lon="11.6375638"><ele>24.0</ele><time>2026-04-29T09:29:53.212Z</time></trkpt><trkpt lat="45.4553012" lon="11.6376835"><ele>24.0</ele><time>2026-04-29T09:29:55.213Z</time></trkpt><trkpt lat="45.4553792" lon="11.6378003"><ele>24.0</ele><time>2026-04-29T09:29:57.212Z</time></trkpt><trkpt lat="45.4554623" lon="11.6379083"><ele>23.799999999999997</ele><time>2026-04-29T09:29:59.213Z</time></trkpt><trkpt lat="45.4555361" lon="11.6380178"><ele>23.599999999999998</ele><time>2026-04-29T09:30:01.213Z</time></trkpt><trkpt lat="45.4556137" lon="11.6381289"><ele>23.4</ele><time>2026-04-29T09:30:03.212Z</time></trkpt><trkpt lat="45.4556853" lon="11.6382466"><ele>23.2</ele><time>2026-04-29T09:30:05.213Z</time></trkpt><trkpt lat="45.4557649" lon="11.6383541"><ele>23.0</ele><time>2026-04-29T09:30:07.212Z</time></trkpt><trkpt lat="45.4558469" lon="11.63847"><ele>23.0</ele><time>2026-04-29T09:30:09.212Z</time></trkpt><trkpt lat="45.4559239" lon="11.6385947"><ele>23.0</ele><time>2026-04-29T09:30:11.212Z</time></trkpt><trkpt lat="45.4560033" lon="11.6387065"><ele>23.0</ele><time>2026-04-29T09:30:13.212Z</time></trkpt><trkpt lat="45.456084" lon="11.6388138"><ele>23.0</ele><time>2026-04-29T09:30:15.212Z</time></trkpt><trkpt lat="45.4561637" lon="11.6389203"><ele>23.0</ele><time>2026-04-29T09:30:17.212Z</time></trkpt><trkpt lat="45.4562326" lon="11.6390268"><ele>22.799999999999997</ele><time>2026-04-29T09:30:19.212Z</time></trkpt><trkpt lat="45.4563014" lon="11.6391386"><ele>22.6</ele><time>2026-04-29T09:30:21.213Z</time></trkpt><trkpt lat="45.4563717" lon="11.6392438"><ele>22.4</ele><time>2026-04-29T09:30:23.212Z</time></trkpt><trkpt lat="45.4564359" lon="11.6393408"><ele>22.200000000000003</ele><time>2026-04-29T09:30:25.212Z</time></trkpt><trkpt lat="45.4565013" lon="11.6394398"><ele>22.0</ele><time>2026-04-29T09:30:27.213Z</time></trkpt><trkpt lat="45.4565669" lon="11.6395458"><ele>22.400000000000002</ele><time>2026-04-29T09:30:29.212Z</time></trkpt><trkpt lat="45.4566372" lon="11.6396512"><ele>22.8</ele><time>2026-04-29T09:30:31.212Z</time></trkpt><trkpt lat="45.4567062" lon="11.6397492"><ele>23.2</ele><time>2026-04-29T09:30:33.212Z</time></trkpt><trkpt lat="45.4567759" lon="11.6398531"><ele>23.6</ele><time>2026-04-29T09:30:35.212Z</time></trkpt><trkpt lat="45.4568482" lon="11.6399599"><ele>24.0</ele><time>2026-04-29T09:30:37.212Z</time></trkpt><trkpt lat="45.4569208" lon="11.640067"><ele>24.0</ele><time>2026-04-29T09:30:39.212Z</time></trkpt><trkpt lat="45.4569951" lon="11.6401738"><ele>24.0</ele><time>2026-04-29T09:30:41.212Z</time></trkpt><trkpt lat="45.4570648" lon="11.6402805"><ele>24.0</ele><time>2026-04-29T09:30:43.213Z</time></trkpt><trkpt lat="45.4571331" lon="11.6403837"><ele>24.0</ele><time>2026-04-29T09:30:45.212Z</time></trkpt><trkpt lat="45.4571982" lon="11.6404774"><ele>24.0</ele><time>2026-04-29T09:30:47.213Z</time></trkpt><trkpt lat="45.4572617" lon="11.6405685"><ele>23.4</ele><time>2026-04-29T09:30:49.212Z</time></trkpt><trkpt lat="45.4573254" lon="11.6406594"><ele>22.799999999999997</ele><time>2026-04-29T09:30:51.212Z</time></trkpt><trkpt lat="45.4573865" lon="11.6407352"><ele>22.200000000000003</ele><time>2026-04-29T09:30:53.212Z</time></trkpt><trkpt lat="45.4574487" lon="11.6408275"><ele>21.6</ele><time>2026-04-29T09:30:55.211Z</time></trkpt><trkpt lat="45.4575142" lon="11.6409268"><ele>21.0</ele><time>2026-04-29T09:30:57.211Z</time></trkpt><trkpt lat="45.4575849" lon="11.6410295"><ele>21.0</ele><time>2026-04-29T09:30:59.211Z</time></trkpt><trkpt lat="45.4576529" lon="11.6411315"><ele>21.0</ele><time>2026-04-29T09:31:01.211Z</time></trkpt><trkpt lat="45.4577143" lon="11.6412245"><ele>21.0</ele><time>2026-04-29T09:31:03.211Z</time></trkpt><trkpt lat="45.4577849" lon="11.6413364"><ele>21.0</ele><time>2026-04-29T09:31:05.211Z</time></trkpt><trkpt lat="45.4578609" lon="11.6414436"><ele>21.0</ele><time>2026-04-29T09:31:07.211Z</time></trkpt><trkpt lat="45.4579342" lon="11.6415495"><ele>21.4</ele><time>2026-04-29T09:31:09.212Z</time></trkpt><trkpt lat="45.4580107" lon="11.6416623"><ele>21.8</ele><time>2026-04-29T09:31:11.211Z</time></trkpt><trkpt lat="45.4580898" lon="11.6417808"><ele>22.2</ele><time>2026-04-29T09:31:13.211Z</time></trkpt><trkpt lat="45.4581666" lon="11.6418936"><ele>22.599999999999998</ele><time>2026-04-29T09:31:15.211Z</time></trkpt><trkpt lat="45.4582485" lon="11.6420074"><ele>23.0</ele><time>2026-04-29T09:31:17.212Z</time></trkpt><trkpt lat="45.4583325" lon="11.6421251"><ele>23.0</ele><time>2026-04-29T09:31:19.212Z</time></trkpt><trkpt lat="45.4584229" lon="11.6422529"><ele>23.0</ele><time>2026-04-29T09:31:21.211Z</time></trkpt><trkpt lat="45.4584689" lon="11.6423197"><ele>23.0</ele><time>2026-04-29T09:31:22.211Z</time></trkpt><trkpt lat="45.4585144" lon="11.6423902"><ele>23.0</ele><time>2026-04-29T09:31:23.211Z</time></trkpt><trkpt lat="45.4585609" lon="11.642459"><ele>23.0</ele><time>2026-04-29T09:31:24.211Z</time></trkpt><trkpt lat="45.4586063" lon="11.6425225"><ele>23.0</ele><time>2026-04-29T09:31:25.211Z</time></trkpt><trkpt lat="45.4586509" lon="11.6425874"><ele>23.0</ele><time>2026-04-29T09:31:26.212Z</time></trkpt><trkpt lat="45.4587411" lon="11.6427118"><ele>23.0</ele><time>2026-04-29T09:31:28.211Z</time></trkpt><trkpt lat="45.4588235" lon="11.642835"><ele>23.0</ele><time>2026-04-29T09:31:30.212Z</time></trkpt><trkpt lat="45.4589065" lon="11.6429631"><ele>23.0</ele><time>2026-04-29T09:31:32.211Z</time></trkpt><trkpt lat="45.4589863" lon="11.6430932"><ele>23.0</ele><time>2026-04-29T09:31:34.212Z</time></trkpt><trkpt lat="45.4590624" lon="11.6432272"><ele>23.0</ele><time>2026-04-29T09:31:36.211Z</time></trkpt><trkpt lat="45.459122" lon="11.6433703"><ele>23.0</ele><time>2026-04-29T09:31:38.212Z</time></trkpt><trkpt lat="45.4591526" lon="11.6434584"><ele>23.0</ele><time>2026-04-29T09:31:39.211Z</time></trkpt><trkpt lat="45.4591662" lon="11.6436421"><ele>23.0</ele><time>2026-04-29T09:31:41.211Z</time></trkpt><trkpt lat="45.4591579" lon="11.6437347"><ele>23.0</ele><time>2026-04-29T09:31:42.211Z</time></trkpt><trkpt lat="45.4591411" lon="11.6438232"><ele>23.0</ele><time>2026-04-29T09:31:43.211Z</time></trkpt><trkpt lat="45.4590915" lon="11.6439871"><ele>23.0</ele><time>2026-04-29T09:31:45.212Z</time></trkpt><trkpt lat="45.4590636" lon="11.6440753"><ele>23.0</ele><time>2026-04-29T09:31:46.211Z</time></trkpt><trkpt lat="45.4590355" lon="11.6441626"><ele>23.0</ele><time>2026-04-29T09:31:47.212Z</time></trkpt><trkpt lat="45.4590174" lon="11.6442568"><ele>23.0</ele><time>2026-04-29T09:31:48.212Z</time></trkpt><trkpt lat="45.4590106" lon="11.6443533"><ele>23.0</ele><time>2026-04-29T09:31:49.211Z</time></trkpt><trkpt lat="45.4590233" lon="11.6444434"><ele>23.0</ele><time>2026-04-29T09:31:50.211Z</time></trkpt><trkpt lat="45.4590491" lon="11.6445312"><ele>23.0</ele><time>2026-04-29T09:31:51.211Z</time></trkpt><trkpt lat="45.4590853" lon="11.6446058"><ele>23.0</ele><time>2026-04-29T09:31:52.211Z</time></trkpt><trkpt lat="45.4591861" lon="11.644709"><ele>23.0</ele><time>2026-04-29T09:31:54.211Z</time></trkpt><trkpt lat="45.4592442" lon="11.6447445"><ele>23.0</ele><time>2026-04-29T09:31:55.212Z</time></trkpt><trkpt lat="45.4593633" lon="11.6447622"><ele>23.0</ele><time>2026-04-29T09:31:57.211Z</time></trkpt><trkpt lat="45.4594744" lon="11.6447029"><ele>23.0</ele><time>2026-04-29T09:31:59.211Z</time></trkpt><trkpt lat="45.4595884" lon="11.6446678"><ele>23.0</ele><time>2026-04-29T09:32:01.211Z</time></trkpt><trkpt lat="45.4596888" lon="11.6445964"><ele>23.0</ele><time>2026-04-29T09:32:03.211Z</time></trkpt><trkpt lat="45.4597508" lon="11.6445064"><ele>23.0</ele><time>2026-04-29T09:32:05.211Z</time></trkpt><trkpt lat="45.4598067" lon="11.6444263"><ele>23.0</ele><time>2026-04-29T09:32:07.212Z</time></trkpt><trkpt lat="45.4598826" lon="11.6443898"><ele>23.0</ele><time>2026-04-29T09:32:09.211Z</time></trkpt><trkpt lat="45.4599598" lon="11.6444335"><ele>23.0</ele><time>2026-04-29T09:32:11.212Z</time></trkpt><trkpt lat="45.4600259" lon="11.6445254"><ele>23.0</ele><time>2026-04-29T09:32:13.211Z</time></trkpt><trkpt lat="45.4600946" lon="11.6446416"><ele>23.0</ele><time>2026-04-29T09:32:15.212Z</time></trkpt><trkpt lat="45.4601794" lon="11.6447632"><ele>22.666666666666668</ele><time>2026-04-29T09:32:17.211Z</time></trkpt><trkpt lat="45.4602656" lon="11.6448948"><ele>22.333333333333336</ele><time>2026-04-29T09:32:19.211Z</time></trkpt><trkpt lat="45.4603146" lon="11.6449678"><ele>22.0</ele><time>2026-04-29T09:32:20.212Z</time></trkpt><trkpt lat="45.4603616" lon="11.6450387"><ele>21.666666666666668</ele><time>2026-04-29T09:32:21.212Z</time></trkpt><trkpt lat="45.4604094" lon="11.6451045"><ele>21.333333333333332</ele><time>2026-04-29T09:32:22.212Z</time></trkpt><trkpt lat="45.460458" lon="11.6451692"><ele>21.0</ele><time>2026-04-29T09:32:23.211Z</time></trkpt><trkpt lat="45.4605058" lon="11.6452422"><ele>21.0</ele><time>2026-04-29T09:32:24.211Z</time></trkpt><trkpt lat="45.4605978" lon="11.6453731"><ele>21.0</ele><time>2026-04-29T09:32:26.211Z</time></trkpt><trkpt lat="45.4606439" lon="11.6454418"><ele>21.0</ele><time>2026-04-29T09:32:27.211Z</time></trkpt><trkpt lat="45.4606932" lon="11.6455043"><ele>21.0</ele><time>2026-04-29T09:32:28.211Z</time></trkpt><trkpt lat="45.4607426" lon="11.6455758"><ele>21.0</ele><time>2026-04-29T09:32:29.211Z</time></trkpt><trkpt lat="45.4607914" lon="11.6456464"><ele>21.0</ele><time>2026-04-29T09:32:30.211Z</time></trkpt><trkpt lat="45.4608396" lon="11.6457179"><ele>21.0</ele><time>2026-04-29T09:32:31.211Z</time></trkpt><trkpt lat="45.4608887" lon="11.6457969"><ele>21.0</ele><time>2026-04-29T09:32:32.211Z</time></trkpt><trkpt lat="45.4609365" lon="11.6458703"><ele>21.0</ele><time>2026-04-29T09:32:33.212Z</time></trkpt><trkpt lat="45.4609894" lon="11.6459542"><ele>21.0</ele><time>2026-04-29T09:32:34.211Z</time></trkpt><trkpt lat="45.4610354" lon="11.6460256"><ele>21.0</ele><time>2026-04-29T09:32:35.211Z</time></trkpt><trkpt lat="45.4610835" lon="11.6461003"><ele>21.0</ele><time>2026-04-29T09:32:36.212Z</time></trkpt><trkpt lat="45.4611339" lon="11.6461713"><ele>21.0</ele><time>2026-04-29T09:32:37.211Z</time></trkpt><trkpt lat="45.4611865" lon="11.6462471"><ele>20.857142857142858</ele><time>2026-04-29T09:32:38.211Z</time></trkpt><trkpt lat="45.4612364" lon="11.6463192"><ele>20.714285714285715</ele><time>2026-04-29T09:32:39.211Z</time></trkpt><trkpt lat="45.4612878" lon="11.6463934"><ele>20.57142857142857</ele><time>2026-04-29T09:32:40.211Z</time></trkpt><trkpt lat="45.4613353" lon="11.6464694"><ele>20.42857142857143</ele><time>2026-04-29T09:32:41.212Z</time></trkpt><trkpt lat="45.4613877" lon="11.6465487"><ele>20.285714285714285</ele><time>2026-04-29T09:32:42.211Z</time></trkpt><trkpt lat="45.4614389" lon="11.6466222"><ele>20.142857142857142</ele><time>2026-04-29T09:32:43.211Z</time></trkpt><trkpt lat="45.4614897" lon="11.6466937"><ele>20.0</ele><time>2026-04-29T09:32:44.212Z</time></trkpt><trkpt lat="45.4615398" lon="11.6467656"><ele>20.285714285714285</ele><time>2026-04-29T09:32:45.211Z</time></trkpt><trkpt lat="45.4615887" lon="11.6468368"><ele>20.571428571428573</ele><time>2026-04-29T09:32:46.211Z</time></trkpt><trkpt lat="45.4616407" lon="11.646904"><ele>20.857142857142858</ele><time>2026-04-29T09:32:47.211Z</time></trkpt><trkpt lat="45.4616924" lon="11.6469726"><ele>21.142857142857142</ele><time>2026-04-29T09:32:48.211Z</time></trkpt><trkpt lat="45.4617412" lon="11.6470529"><ele>21.428571428571427</ele><time>2026-04-29T09:32:49.211Z</time></trkpt><trkpt lat="45.4617891" lon="11.6471303"><ele>21.714285714285715</ele><time>2026-04-29T09:32:50.212Z</time></trkpt><trkpt lat="45.4618357" lon="11.6472031"><ele>22.0</ele><time>2026-04-29T09:32:51.212Z</time></trkpt><trkpt lat="45.4618858" lon="11.64728"><ele>22.0</ele><time>2026-04-29T09:32:52.212Z</time></trkpt><trkpt lat="45.4619321" lon="11.6473554"><ele>22.0</ele><time>2026-04-29T09:32:53.211Z</time></trkpt><trkpt lat="45.4619783" lon="11.6474276"><ele>22.0</ele><time>2026-04-29T09:32:54.212Z</time></trkpt><trkpt lat="45.4620247" lon="11.6475047"><ele>22.0</ele><time>2026-04-29T09:32:55.211Z</time></trkpt><trkpt lat="45.462074" lon="11.6475749"><ele>22.0</ele><time>2026-04-29T09:32:56.211Z</time></trkpt><trkpt lat="45.462123" lon="11.6476455"><ele>22.0</ele><time>2026-04-29T09:32:57.211Z</time></trkpt><trkpt lat="45.4621675" lon="11.6477186"><ele>22.0</ele><time>2026-04-29T09:32:58.212Z</time></trkpt><trkpt lat="45.462213" lon="11.6477943"><ele>21.857142857142858</ele><time>2026-04-29T09:32:59.212Z</time></trkpt><trkpt lat="45.4622586" lon="11.6478653"><ele>21.714285714285715</ele><time>2026-04-29T09:33:00.211Z</time></trkpt><trkpt lat="45.4623092" lon="11.6479431"><ele>21.57142857142857</ele><time>2026-04-29T09:33:01.211Z</time></trkpt><trkpt lat="45.4623588" lon="11.6480171"><ele>21.42857142857143</ele><time>2026-04-29T09:33:02.211Z</time></trkpt><trkpt lat="45.4624072" lon="11.6480896"><ele>21.285714285714285</ele><time>2026-04-29T09:33:03.211Z</time></trkpt><trkpt lat="45.4624496" lon="11.648163"><ele>21.142857142857142</ele><time>2026-04-29T09:33:04.211Z</time></trkpt><trkpt lat="45.4624946" lon="11.6482365"><ele>21.0</ele><time>2026-04-29T09:33:05.211Z</time></trkpt><trkpt lat="45.462539" lon="11.648309"><ele>21.0</ele><time>2026-04-29T09:33:06.211Z</time></trkpt><trkpt lat="45.4625846" lon="11.6483795"><ele>21.0</ele><time>2026-04-29T09:33:07.211Z</time></trkpt><trkpt lat="45.4626279" lon="11.6484507"><ele>21.0</ele><time>2026-04-29T09:33:08.212Z</time></trkpt><trkpt lat="45.4626708" lon="11.6485208"><ele>21.0</ele><time>2026-04-29T09:33:09.211Z</time></trkpt><trkpt lat="45.4627154" lon="11.6485927"><ele>21.0</ele><time>2026-04-29T09:33:10.211Z</time></trkpt><trkpt lat="45.4627597" lon="11.6486641"><ele>21.0</ele><time>2026-04-29T09:33:11.212Z</time></trkpt><trkpt lat="45.4628057" lon="11.6487343"><ele>21.0</ele><time>2026-04-29T09:33:12.211Z</time></trkpt><trkpt lat="45.4628506" lon="11.6488006"><ele>21.0</ele><time>2026-04-29T09:33:13.211Z</time></trkpt><trkpt lat="45.4628965" lon="11.6488724"><ele>21.0</ele><time>2026-04-29T09:33:14.211Z</time></trkpt><trkpt lat="45.4629413" lon="11.6489423"><ele>21.0</ele><time>2026-04-29T09:33:15.212Z</time></trkpt><trkpt lat="45.4629827" lon="11.6490108"><ele>21.0</ele><time>2026-04-29T09:33:16.211Z</time></trkpt><trkpt lat="45.4630638" lon="11.6491435"><ele>21.0</ele><time>2026-04-29T09:33:18.212Z</time></trkpt><trkpt lat="45.463149" lon="11.6492753"><ele>21.0</ele><time>2026-04-29T09:33:20.211Z</time></trkpt><trkpt lat="45.4632312" lon="11.6494096"><ele>21.142857142857142</ele><time>2026-04-29T09:33:22.211Z</time></trkpt><trkpt lat="45.4632755" lon="11.6494755"><ele>21.285714285714285</ele><time>2026-04-29T09:33:23.211Z</time></trkpt><trkpt lat="45.4633192" lon="11.6495421"><ele>21.42857142857143</ele><time>2026-04-29T09:33:24.212Z</time></trkpt><trkpt lat="45.4633606" lon="11.6496123"><ele>21.57142857142857</ele><time>2026-04-29T09:33:25.211Z</time></trkpt><trkpt lat="45.4634027" lon="11.6496805"><ele>21.714285714285715</ele><time>2026-04-29T09:33:26.212Z</time></trkpt><trkpt lat="45.4634472" lon="11.6497517"><ele>21.857142857142858</ele><time>2026-04-29T09:33:27.211Z</time></trkpt><trkpt lat="45.4634924" lon="11.6498205"><ele>22.0</ele><time>2026-04-29T09:33:28.211Z</time></trkpt><trkpt lat="45.4635345" lon="11.6498946"><ele>22.0</ele><time>2026-04-29T09:33:29.211Z</time></trkpt><trkpt lat="45.4635763" lon="11.6499651"><ele>22.0</ele><time>2026-04-29T09:33:30.212Z</time></trkpt><trkpt lat="45.4636196" lon="11.6500313"><ele>22.0</ele><time>2026-04-29T09:33:31.211Z</time></trkpt><trkpt lat="45.4636655" lon="11.6500972"><ele>22.0</ele><time>2026-04-29T09:33:32.212Z</time></trkpt><trkpt lat="45.4637096" lon="11.6501682"><ele>22.0</ele><time>2026-04-29T09:33:33.212Z</time></trkpt><trkpt lat="45.4637556" lon="11.6502381"><ele>22.0</ele><time>2026-04-29T09:33:34.211Z</time></trkpt><trkpt lat="45.4638411" lon="11.6503697"><ele>22.25</ele><time>2026-04-29T09:33:36.212Z</time></trkpt><trkpt lat="45.4639191" lon="11.6504939"><ele>22.5</ele><time>2026-04-29T09:33:38.211Z</time></trkpt><trkpt lat="45.4639943" lon="11.650617"><ele>22.75</ele><time>2026-04-29T09:33:40.211Z</time></trkpt><trkpt lat="45.4640712" lon="11.6507505"><ele>23.0</ele><time>2026-04-29T09:33:42.211Z</time></trkpt><trkpt lat="45.4641494" lon="11.6508827"><ele>23.0</ele><time>2026-04-29T09:33:44.212Z</time></trkpt><trkpt lat="45.4642351" lon="11.6510103"><ele>23.0</ele><time>2026-04-29T09:33:46.211Z</time></trkpt><trkpt lat="45.4643214" lon="11.6511413"><ele>23.0</ele><time>2026-04-29T09:33:48.211Z</time></trkpt><trkpt lat="45.464364" lon="11.6512097"><ele>23.0</ele><time>2026-04-29T09:33:49.211Z</time></trkpt><trkpt lat="45.4644084" lon="11.6512826"><ele>23.0</ele><time>2026-04-29T09:33:50.211Z</time></trkpt><trkpt lat="45.4644545" lon="11.6513471"><ele>23.0</ele><time>2026-04-29T09:33:51.211Z</time></trkpt><trkpt lat="45.4644976" lon="11.6514177"><ele>23.142857142857142</ele><time>2026-04-29T09:33:52.211Z</time></trkpt><trkpt lat="45.4645424" lon="11.6514877"><ele>23.285714285714285</ele><time>2026-04-29T09:33:53.212Z</time></trkpt><trkpt lat="45.4645868" lon="11.6515538"><ele>23.428571428571427</ele><time>2026-04-29T09:33:54.211Z</time></trkpt><trkpt lat="45.4646309" lon="11.6516227"><ele>23.57142857142857</ele><time>2026-04-29T09:33:55.211Z</time></trkpt><trkpt lat="45.4646739" lon="11.6516944"><ele>23.714285714285715</ele><time>2026-04-29T09:33:56.211Z</time></trkpt><trkpt lat="45.4647207" lon="11.6517662"><ele>23.857142857142854</ele><time>2026-04-29T09:33:57.211Z</time></trkpt><trkpt lat="45.4647638" lon="11.6518346"><ele>24.0</ele><time>2026-04-29T09:33:58.211Z</time></trkpt><trkpt lat="45.4648071" lon="11.6519019"><ele>23.71428571428571</ele><time>2026-04-29T09:33:59.211Z</time></trkpt><trkpt lat="45.4648505" lon="11.6519698"><ele>23.428571428571427</ele><time>2026-04-29T09:34:00.212Z</time></trkpt><trkpt lat="45.464894" lon="11.6520436"><ele>23.142857142857142</ele><time>2026-04-29T09:34:01.212Z</time></trkpt><trkpt lat="45.464938" lon="11.6521097"><ele>22.857142857142854</ele><time>2026-04-29T09:34:02.212Z</time></trkpt><trkpt lat="45.4649802" lon="11.6521796"><ele>22.57142857142857</ele><time>2026-04-29T09:34:03.211Z</time></trkpt><trkpt lat="45.4650208" lon="11.6522499"><ele>22.285714285714285</ele><time>2026-04-29T09:34:04.211Z</time></trkpt><trkpt lat="45.4650632" lon="11.6523197"><ele>22.0</ele><time>2026-04-29T09:34:05.212Z</time></trkpt><trkpt lat="45.4651064" lon="11.652389"><ele>22.0</ele><time>2026-04-29T09:34:06.212Z</time></trkpt><trkpt lat="45.4651895" lon="11.6525135"><ele>22.0</ele><time>2026-04-29T09:34:08.211Z</time></trkpt><trkpt lat="45.4652698" lon="11.6526386"><ele>22.0</ele><time>2026-04-29T09:34:10.211Z</time></trkpt><trkpt lat="45.4653524" lon="11.6527604"><ele>22.0</ele><time>2026-04-29T09:34:12.211Z</time></trkpt><trkpt lat="45.4654218" lon="11.6528841"><ele>22.200000000000003</ele><time>2026-04-29T09:34:14.211Z</time></trkpt><trkpt lat="45.465493" lon="11.6529955"><ele>22.4</ele><time>2026-04-29T09:34:16.211Z</time></trkpt><trkpt lat="45.4655655" lon="11.6531033"><ele>22.6</ele><time>2026-04-29T09:34:18.211Z</time></trkpt><trkpt lat="45.4656283" lon="11.6531957"><ele>22.799999999999997</ele><time>2026-04-29T09:34:20.211Z</time></trkpt><trkpt lat="45.4656883" lon="11.6532818"><ele>23.0</ele><time>2026-04-29T09:34:22.211Z</time></trkpt><trkpt lat="45.4657392" lon="11.653379"><ele>23.0</ele><time>2026-04-29T09:34:25.211Z</time></trkpt><trkpt lat="45.4658125" lon="11.6534681"><ele>23.0</ele><time>2026-04-29T09:34:28.212Z</time></trkpt><trkpt lat="45.4658535" lon="11.6535579"><ele>23.0</ele><time>2026-04-29T09:34:30.211Z</time></trkpt><trkpt lat="45.4659152" lon="11.6536461"><ele>23.0</ele><time>2026-04-29T09:34:32.211Z</time></trkpt><trkpt lat="45.4659822" lon="11.6537552"><ele>23.0</ele><time>2026-04-29T09:34:34.211Z</time></trkpt><trkpt lat="45.4660524" lon="11.6538703"><ele>22.799999999999997</ele><time>2026-04-29T09:34:36.211Z</time></trkpt><trkpt lat="45.4661268" lon="11.653989"><ele>22.6</ele><time>2026-04-29T09:34:38.21Z</time></trkpt><trkpt lat="45.466206" lon="11.6541161"><ele>22.4</ele><time>2026-04-29T09:34:40.21Z</time></trkpt><trkpt lat="45.4662861" lon="11.6542444"><ele>22.200000000000003</ele><time>2026-04-29T09:34:42.21Z</time></trkpt><trkpt lat="45.466329" lon="11.6543109"><ele>22.0</ele><time>2026-04-29T09:34:43.21Z</time></trkpt><trkpt lat="45.466372" lon="11.6543773"><ele>21.6</ele><time>2026-04-29T09:34:44.211Z</time></trkpt><trkpt lat="45.4664496" lon="11.6545024"><ele>21.200000000000003</ele><time>2026-04-29T09:34:46.21Z</time></trkpt><trkpt lat="45.4665236" lon="11.6546303"><ele>20.8</ele><time>2026-04-29T09:34:48.21Z</time></trkpt><trkpt lat="45.4665951" lon="11.6547435"><ele>20.4</ele><time>2026-04-29T09:34:50.211Z</time></trkpt><trkpt lat="45.4666584" lon="11.654853"><ele>20.0</ele><time>2026-04-29T09:34:52.21Z</time></trkpt><trkpt lat="45.4667322" lon="11.6549631"><ele>20.0</ele><time>2026-04-29T09:34:54.211Z</time></trkpt><trkpt lat="45.4668004" lon="11.6550799"><ele>20.0</ele><time>2026-04-29T09:34:56.21Z</time></trkpt><trkpt lat="45.4668777" lon="11.6551866"><ele>20.0</ele><time>2026-04-29T09:34:58.211Z</time></trkpt><trkpt lat="45.4669448" lon="11.6552951"><ele>20.0</ele><time>2026-04-29T09:35:00.21Z</time></trkpt><trkpt lat="45.4670123" lon="11.6554037"><ele>20.0</ele><time>2026-04-29T09:35:02.21Z</time></trkpt><trkpt lat="45.4670767" lon="11.6555088"><ele>20.2</ele><time>2026-04-29T09:35:04.211Z</time></trkpt><trkpt lat="45.467148" lon="11.6556124"><ele>20.4</ele><time>2026-04-29T09:35:06.21Z</time></trkpt><trkpt lat="45.4672166" lon="11.6557184"><ele>20.6</ele><time>2026-04-29T09:35:08.21Z</time></trkpt><trkpt lat="45.4672725" lon="11.655822"><ele>20.8</ele><time>2026-04-29T09:35:10.21Z</time></trkpt><trkpt lat="45.4673161" lon="11.6559245"><ele>21.0</ele><time>2026-04-29T09:35:12.211Z</time></trkpt><trkpt lat="45.4673664" lon="11.6560142"><ele>21.0</ele><time>2026-04-29T09:35:14.21Z</time></trkpt><trkpt lat="45.467461" lon="11.6561517"><ele>21.0</ele><time>2026-04-29T09:35:17.211Z</time></trkpt><trkpt lat="45.4675342" lon="11.6562473"><ele>21.0</ele><time>2026-04-29T09:35:19.211Z</time></trkpt><trkpt lat="45.4676135" lon="11.6563569"><ele>21.0</ele><time>2026-04-29T09:35:21.211Z</time></trkpt><trkpt lat="45.467677" lon="11.6564708"><ele>21.0</ele><time>2026-04-29T09:35:23.21Z</time></trkpt><trkpt lat="45.4677363" lon="11.6565676"><ele>21.0</ele><time>2026-04-29T09:35:25.21Z</time></trkpt><trkpt lat="45.4678053" lon="11.6566803"><ele>21.0</ele><time>2026-04-29T09:35:27.21Z</time></trkpt><trkpt lat="45.4678741" lon="11.6568003"><ele>21.0</ele><time>2026-04-29T09:35:29.21Z</time></trkpt><trkpt lat="45.4679381" lon="11.6569473"><ele>21.0</ele><time>2026-04-29T09:35:31.21Z</time></trkpt><trkpt lat="45.4679729" lon="11.657023"><ele>21.0</ele><time>2026-04-29T09:35:32.21Z</time></trkpt><trkpt lat="45.4680599" lon="11.657127"><ele>21.4</ele><time>2026-04-29T09:35:34.21Z</time></trkpt><trkpt lat="45.4681513" lon="11.6572367"><ele>21.8</ele><time>2026-04-29T09:35:36.21Z</time></trkpt><trkpt lat="45.4682335" lon="11.6573607"><ele>22.2</ele><time>2026-04-29T09:35:38.211Z</time></trkpt><trkpt lat="45.4683204" lon="11.6574918"><ele>22.599999999999998</ele><time>2026-04-29T09:35:40.21Z</time></trkpt><trkpt lat="45.4683642" lon="11.6575576"><ele>23.0</ele><time>2026-04-29T09:35:41.211Z</time></trkpt><trkpt lat="45.4684054" lon="11.6576261"><ele>23.0</ele><time>2026-04-29T09:35:42.211Z</time></trkpt><trkpt lat="45.4684889" lon="11.6577545"><ele>23.0</ele><time>2026-04-29T09:35:44.21Z</time></trkpt><trkpt lat="45.4685742" lon="11.6578909"><ele>23.0</ele><time>2026-04-29T09:35:46.21Z</time></trkpt><trkpt lat="45.468619" lon="11.6579652"><ele>23.0</ele><time>2026-04-29T09:35:47.21Z</time></trkpt><trkpt lat="45.4687014" lon="11.658088"><ele>23.0</ele><time>2026-04-29T09:35:49.211Z</time></trkpt><trkpt lat="45.4687835" lon="11.6582226"><ele>22.799999999999997</ele><time>2026-04-29T09:35:51.21Z</time></trkpt><trkpt lat="45.4688265" lon="11.658291"><ele>22.6</ele><time>2026-04-29T09:35:52.211Z</time></trkpt><trkpt lat="45.4689117" lon="11.6584208"><ele>22.4</ele><time>2026-04-29T09:35:54.211Z</time></trkpt><trkpt lat="45.4689946" lon="11.6585496"><ele>22.200000000000003</ele><time>2026-04-29T09:35:56.21Z</time></trkpt><trkpt lat="45.4690708" lon="11.6586747"><ele>22.0</ele><time>2026-04-29T09:35:58.21Z</time></trkpt><trkpt lat="45.4691494" lon="11.6588017"><ele>22.5</ele><time>2026-04-29T09:36:00.21Z</time></trkpt><trkpt lat="45.4692311" lon="11.6589299"><ele>23.0</ele><time>2026-04-29T09:36:02.21Z</time></trkpt><trkpt lat="45.4693134" lon="11.6590562"><ele>23.5</ele><time>2026-04-29T09:36:04.21Z</time></trkpt><trkpt lat="45.4693968" lon="11.6591857"><ele>24.0</ele><time>2026-04-29T09:36:06.21Z</time></trkpt><trkpt lat="45.4694749" lon="11.6593053"><ele>24.0</ele><time>2026-04-29T09:36:08.21Z</time></trkpt><trkpt lat="45.4695219" lon="11.6593722"><ele>24.0</ele><time>2026-04-29T09:36:09.211Z</time></trkpt><trkpt lat="45.4696049" lon="11.6594952"><ele>24.0</ele><time>2026-04-29T09:36:11.21Z</time></trkpt><trkpt lat="45.4696791" lon="11.659629"><ele>24.0</ele><time>2026-04-29T09:36:13.211Z</time></trkpt><trkpt lat="45.4697266" lon="11.6596929"><ele>24.0</ele><time>2026-04-29T09:36:14.21Z</time></trkpt><trkpt lat="45.4697751" lon="11.6597608"><ele>24.0</ele><time>2026-04-29T09:36:15.211Z</time></trkpt><trkpt lat="45.469818" lon="11.6598325"><ele>24.0</ele><time>2026-04-29T09:36:16.21Z</time></trkpt><trkpt lat="45.4699004" lon="11.6599683"><ele>24.0</ele><time>2026-04-29T09:36:18.211Z</time></trkpt><trkpt lat="45.4699438" lon="11.6600355"><ele>24.0</ele><time>2026-04-29T09:36:19.21Z</time></trkpt><trkpt lat="45.470023" lon="11.6601645"><ele>24.0</ele><time>2026-04-29T09:36:21.21Z</time></trkpt><trkpt lat="45.4701055" lon="11.6602926"><ele>24.0</ele><time>2026-04-29T09:36:23.21Z</time></trkpt><trkpt lat="45.4701886" lon="11.6604131"><ele>24.0</ele><time>2026-04-29T09:36:25.21Z</time></trkpt><trkpt lat="45.4702538" lon="11.6605328"><ele>24.0</ele><time>2026-04-29T09:36:27.211Z</time></trkpt><trkpt lat="45.4703211" lon="11.6606441"><ele>24.0</ele><time>2026-04-29T09:36:29.21Z</time></trkpt><trkpt lat="45.4703737" lon="11.6607625"><ele>24.0</ele><time>2026-04-29T09:36:31.21Z</time></trkpt><trkpt lat="45.4704425" lon="11.6608509"><ele>24.0</ele><time>2026-04-29T09:36:33.21Z</time></trkpt><trkpt lat="45.4705139" lon="11.6609593"><ele>24.0</ele><time>2026-04-29T09:36:35.21Z</time></trkpt><trkpt lat="45.4705843" lon="11.6610707"><ele>24.0</ele><time>2026-04-29T09:36:37.21Z</time></trkpt><trkpt lat="45.4706577" lon="11.6611891"><ele>24.0</ele><time>2026-04-29T09:36:39.211Z</time></trkpt><trkpt lat="45.4707349" lon="11.6613152"><ele>24.0</ele><time>2026-04-29T09:36:41.211Z</time></trkpt><trkpt lat="45.4708216" lon="11.661433"><ele>24.0</ele><time>2026-04-29T09:36:43.211Z</time></trkpt><trkpt lat="45.4709038" lon="11.6615645"><ele>24.0</ele><time>2026-04-29T09:36:45.21Z</time></trkpt><trkpt lat="45.4709874" lon="11.6616959"><ele>24.0</ele><time>2026-04-29T09:36:47.21Z</time></trkpt><trkpt lat="45.47107" lon="11.6618296"><ele>24.0</ele><time>2026-04-29T09:36:49.211Z</time></trkpt><trkpt lat="45.4711552" lon="11.6619695"><ele>23.999999999999996</ele><time>2026-04-29T09:36:51.21Z</time></trkpt><trkpt lat="45.4711991" lon="11.6620409"><ele>24.0</ele><time>2026-04-29T09:36:52.21Z</time></trkpt><trkpt lat="45.4712425" lon="11.6621082"><ele>24.0</ele><time>2026-04-29T09:36:53.211Z</time></trkpt><trkpt lat="45.4712848" lon="11.662182"><ele>24.0</ele><time>2026-04-29T09:36:54.21Z</time></trkpt><trkpt lat="45.4713273" lon="11.662249"><ele>24.0</ele><time>2026-04-29T09:36:55.21Z</time></trkpt><trkpt lat="45.4713734" lon="11.6623138"><ele>23.999999999999996</ele><time>2026-04-29T09:36:56.21Z</time></trkpt><trkpt lat="45.4714147" lon="11.6623859"><ele>24.0</ele><time>2026-04-29T09:36:57.21Z</time></trkpt><trkpt lat="45.4714576" lon="11.6624563"><ele>23.999999999999996</ele><time>2026-04-29T09:36:58.211Z</time></trkpt><trkpt lat="45.4714994" lon="11.6625256"><ele>24.0</ele><time>2026-04-29T09:36:59.21Z</time></trkpt><trkpt lat="45.4715378" lon="11.6625975"><ele>24.0</ele><time>2026-04-29T09:37:00.21Z</time></trkpt><trkpt lat="45.4715759" lon="11.6626709"><ele>24.0</ele><time>2026-04-29T09:37:01.21Z</time></trkpt><trkpt lat="45.4716253" lon="11.66274"><ele>24.0</ele><time>2026-04-29T09:37:02.21Z</time></trkpt><trkpt lat="45.4716701" lon="11.6628087"><ele>23.999999999999996</ele><time>2026-04-29T09:37:03.21Z</time></trkpt><trkpt lat="45.471715" lon="11.6628829"><ele>24.0</ele><time>2026-04-29T09:37:04.211Z</time></trkpt><trkpt lat="45.4717591" lon="11.6629541"><ele>23.799999999999997</ele><time>2026-04-29T09:37:05.211Z</time></trkpt><trkpt lat="45.4718045" lon="11.6630222"><ele>23.599999999999998</ele><time>2026-04-29T09:37:06.21Z</time></trkpt><trkpt lat="45.4718477" lon="11.6630911"><ele>23.4</ele><time>2026-04-29T09:37:07.21Z</time></trkpt><trkpt lat="45.471933" lon="11.6632224"><ele>23.2</ele><time>2026-04-29T09:37:09.21Z</time></trkpt><trkpt lat="45.472016" lon="11.6633581"><ele>23.0</ele><time>2026-04-29T09:37:11.21Z</time></trkpt><trkpt lat="45.4720952" lon="11.663492"><ele>23.25</ele><time>2026-04-29T09:37:13.21Z</time></trkpt><trkpt lat="45.4721837" lon="11.6636152"><ele>23.5</ele><time>2026-04-29T09:37:15.21Z</time></trkpt><trkpt lat="45.4722643" lon="11.6637467"><ele>23.75</ele><time>2026-04-29T09:37:17.211Z</time></trkpt><trkpt lat="45.4723434" lon="11.6638742"><ele>24.0</ele><time>2026-04-29T09:37:19.21Z</time></trkpt><trkpt lat="45.4724292" lon="11.6639953"><ele>24.0</ele><time>2026-04-29T09:37:21.21Z</time></trkpt><trkpt lat="45.4725085" lon="11.6641216"><ele>24.0</ele><time>2026-04-29T09:37:23.21Z</time></trkpt><trkpt lat="45.4725858" lon="11.6642426"><ele>24.0</ele><time>2026-04-29T09:37:25.21Z</time></trkpt><trkpt lat="45.4726633" lon="11.6643697"><ele>24.0</ele><time>2026-04-29T09:37:27.21Z</time></trkpt><trkpt lat="45.4727455" lon="11.6644949"><ele>23.75</ele><time>2026-04-29T09:37:29.21Z</time></trkpt><trkpt lat="45.4728196" lon="11.6646239"><ele>23.5</ele><time>2026-04-29T09:37:31.211Z</time></trkpt><trkpt lat="45.4728993" lon="11.664746"><ele>23.25</ele><time>2026-04-29T09:37:33.211Z</time></trkpt><trkpt lat="45.4729776" lon="11.664872"><ele>23.0</ele><time>2026-04-29T09:37:35.21Z</time></trkpt><trkpt lat="45.4730558" lon="11.6650015"><ele>23.0</ele><time>2026-04-29T09:37:37.211Z</time></trkpt><trkpt lat="45.4731351" lon="11.6651349"><ele>23.0</ele><time>2026-04-29T09:37:39.21Z</time></trkpt><trkpt lat="45.4732177" lon="11.6652637"><ele>23.0</ele><time>2026-04-29T09:37:41.211Z</time></trkpt><trkpt lat="45.4732625" lon="11.6653283"><ele>23.0</ele><time>2026-04-29T09:37:42.21Z</time></trkpt><trkpt lat="45.4733437" lon="11.6654593"><ele>23.0</ele><time>2026-04-29T09:37:44.21Z</time></trkpt><trkpt lat="45.4734281" lon="11.6655893"><ele>23.0</ele><time>2026-04-29T09:37:46.211Z</time></trkpt><trkpt lat="45.4734715" lon="11.6656546"><ele>23.0</ele><time>2026-04-29T09:37:47.21Z</time></trkpt><trkpt lat="45.4735577" lon="11.6657882"><ele>23.0</ele><time>2026-04-29T09:37:49.21Z</time></trkpt><trkpt lat="45.4736442" lon="11.6659218"><ele>23.0</ele><time>2026-04-29T09:37:51.211Z</time></trkpt><trkpt lat="45.4736864" lon="11.6659891"><ele>23.0</ele><time>2026-04-29T09:37:52.21Z</time></trkpt><trkpt lat="45.4737672" lon="11.6661254"><ele>23.0</ele><time>2026-04-29T09:37:54.211Z</time></trkpt><trkpt lat="45.4738124" lon="11.6661929"><ele>23.0</ele><time>2026-04-29T09:37:55.21Z</time></trkpt><trkpt lat="45.4738557" lon="11.6662617"><ele>23.0</ele><time>2026-04-29T09:37:56.21Z</time></trkpt><trkpt lat="45.4739324" lon="11.6663811"><ele>23.0</ele><time>2026-04-29T09:37:58.211Z</time></trkpt><trkpt lat="45.4740115" lon="11.6665022"><ele>23.0</ele><time>2026-04-29T09:38:00.211Z</time></trkpt><trkpt lat="45.474088" lon="11.6666254"><ele>23.0</ele><time>2026-04-29T09:38:02.21Z</time></trkpt><trkpt lat="45.4741669" lon="11.6667577"><ele>23.0</ele><time>2026-04-29T09:38:04.211Z</time></trkpt><trkpt lat="45.4742135" lon="11.6668216"><ele>23.0</ele><time>2026-04-29T09:38:05.21Z</time></trkpt><trkpt lat="45.4742931" lon="11.6669417"><ele>23.0</ele><time>2026-04-29T09:38:07.211Z</time></trkpt><trkpt lat="45.4743697" lon="11.6670608"><ele>23.0</ele><time>2026-04-29T09:38:09.21Z</time></trkpt><trkpt lat="45.4744462" lon="11.6671894"><ele>23.0</ele><time>2026-04-29T09:38:11.21Z</time></trkpt><trkpt lat="45.4745263" lon="11.6673213"><ele>23.0</ele><time>2026-04-29T09:38:13.21Z</time></trkpt><trkpt lat="45.474607" lon="11.6674545"><ele>23.0</ele><time>2026-04-29T09:38:15.21Z</time></trkpt><trkpt lat="45.4746942" lon="11.6675788"><ele>23.0</ele><time>2026-04-29T09:38:17.21Z</time></trkpt><trkpt lat="45.4747675" lon="11.6677037"><ele>23.0</ele><time>2026-04-29T09:38:19.21Z</time></trkpt><trkpt lat="45.4748408" lon="11.6678156"><ele>23.0</ele><time>2026-04-29T09:38:21.209Z</time></trkpt><trkpt lat="45.4749076" lon="11.6679188"><ele>23.0</ele><time>2026-04-29T09:38:23.21Z</time></trkpt><trkpt lat="45.4749696" lon="11.6680088"><ele>23.0</ele><time>2026-04-29T09:38:25.209Z</time></trkpt><trkpt lat="45.4750284" lon="11.6680954"><ele>23.0</ele><time>2026-04-29T09:38:27.209Z</time></trkpt><trkpt lat="45.475079" lon="11.6681757"><ele>23.0</ele><time>2026-04-29T09:38:29.209Z</time></trkpt><trkpt lat="45.475122" lon="11.6682576"><ele>23.0</ele><time>2026-04-29T09:38:31.21Z</time></trkpt><trkpt lat="45.4751787" lon="11.6683473"><ele>23.0</ele><time>2026-04-29T09:38:34.21Z</time></trkpt><trkpt lat="45.4752472" lon="11.6684439"><ele>23.0</ele><time>2026-04-29T09:38:37.209Z</time></trkpt><trkpt lat="45.4753118" lon="11.6685519"><ele>23.0</ele><time>2026-04-29T09:38:39.209Z</time></trkpt><trkpt lat="45.4753822" lon="11.6686686"><ele>22.25</ele><time>2026-04-29T09:38:41.209Z</time></trkpt><trkpt lat="45.4754537" lon="11.6687876"><ele>21.5</ele><time>2026-04-29T09:38:43.209Z</time></trkpt><trkpt lat="45.475528" lon="11.6689056"><ele>20.75</ele><time>2026-04-29T09:38:45.209Z</time></trkpt><trkpt lat="45.4756021" lon="11.6690365"><ele>20.0</ele><time>2026-04-29T09:38:47.209Z</time></trkpt><trkpt lat="45.4756849" lon="11.6691662"><ele>20.0</ele><time>2026-04-29T09:38:49.209Z</time></trkpt><trkpt lat="45.4757293" lon="11.6692329"><ele>20.0</ele><time>2026-04-29T09:38:50.209Z</time></trkpt><trkpt lat="45.4758149" lon="11.6693525"><ele>20.0</ele><time>2026-04-29T09:38:52.209Z</time></trkpt><trkpt lat="45.4758862" lon="11.6694745"><ele>20.0</ele><time>2026-04-29T09:38:54.209Z</time></trkpt><trkpt lat="45.475958" lon="11.6695845"><ele>20.0</ele><time>2026-04-29T09:38:56.209Z</time></trkpt><trkpt lat="45.4760223" lon="11.6696837"><ele>20.0</ele><time>2026-04-29T09:38:58.21Z</time></trkpt><trkpt lat="45.4760838" lon="11.6697911"><ele>20.0</ele><time>2026-04-29T09:39:00.21Z</time></trkpt><trkpt lat="45.4761561" lon="11.6699118"><ele>20.0</ele><time>2026-04-29T09:39:02.209Z</time></trkpt><trkpt lat="45.4762331" lon="11.6700326"><ele>20.0</ele><time>2026-04-29T09:39:04.209Z</time></trkpt><trkpt lat="45.4763071" lon="11.6701589"><ele>20.0</ele><time>2026-04-29T09:39:06.209Z</time></trkpt><trkpt lat="45.4763773" lon="11.6702795"><ele>20.6</ele><time>2026-04-29T09:39:08.209Z</time></trkpt><trkpt lat="45.4764449" lon="11.6703956"><ele>21.2</ele><time>2026-04-29T09:39:10.21Z</time></trkpt><trkpt lat="45.47652" lon="11.6704962"><ele>21.799999999999997</ele><time>2026-04-29T09:39:12.209Z</time></trkpt><trkpt lat="45.4765878" lon="11.6705848"><ele>22.4</ele><time>2026-04-29T09:39:14.21Z</time></trkpt><trkpt lat="45.4766431" lon="11.6706841"><ele>23.0</ele><time>2026-04-29T09:39:16.209Z</time></trkpt><trkpt lat="45.4767018" lon="11.670784"><ele>23.0</ele><time>2026-04-29T09:39:18.209Z</time></trkpt><trkpt lat="45.4767664" lon="11.6708743"><ele>23.0</ele><time>2026-04-29T09:39:20.209Z</time></trkpt><trkpt lat="45.4768204" lon="11.6709647"><ele>23.0</ele><time>2026-04-29T09:39:22.21Z</time></trkpt><trkpt lat="45.4768634" lon="11.6710502"><ele>23.0</ele><time>2026-04-29T09:39:24.21Z</time></trkpt><trkpt lat="45.4769317" lon="11.671116"><ele>23.0</ele><time>2026-04-29T09:39:27.209Z</time></trkpt><trkpt lat="45.4769813" lon="11.6711948"><ele>23.0</ele><time>2026-04-29T09:39:29.209Z</time></trkpt><trkpt lat="45.4770386" lon="11.6713116"><ele>23.0</ele><time>2026-04-29T09:39:31.209Z</time></trkpt><trkpt lat="45.4770979" lon="11.6714234"><ele>23.0</ele><time>2026-04-29T09:39:33.21Z</time></trkpt><trkpt lat="45.4771773" lon="11.6715369"><ele>23.0</ele><time>2026-04-29T09:39:35.209Z</time></trkpt><trkpt lat="45.4772572" lon="11.6716633"><ele>23.0</ele><time>2026-04-29T09:39:37.209Z</time></trkpt><trkpt lat="45.4773438" lon="11.6717935"><ele>22.857142857142858</ele><time>2026-04-29T09:39:39.209Z</time></trkpt><trkpt lat="45.4773882" lon="11.6718591"><ele>22.71428571428571</ele><time>2026-04-29T09:39:40.209Z</time></trkpt><trkpt lat="45.477434" lon="11.6719261"><ele>22.57142857142857</ele><time>2026-04-29T09:39:41.21Z</time></trkpt><trkpt lat="45.4774772" lon="11.6719992"><ele>22.42857142857143</ele><time>2026-04-29T09:39:42.209Z</time></trkpt><trkpt lat="45.4775211" lon="11.6720687"><ele>22.285714285714285</ele><time>2026-04-29T09:39:43.209Z</time></trkpt><trkpt lat="45.4775661" lon="11.6721375"><ele>22.142857142857142</ele><time>2026-04-29T09:39:44.209Z</time></trkpt><trkpt lat="45.4776091" lon="11.6722074"><ele>22.0</ele><time>2026-04-29T09:39:45.209Z</time></trkpt><trkpt lat="45.4776545" lon="11.6722791"><ele>22.0</ele><time>2026-04-29T09:39:46.21Z</time></trkpt><trkpt lat="45.4776998" lon="11.6723544"><ele>22.0</ele><time>2026-04-29T09:39:47.209Z</time></trkpt><trkpt lat="45.4777465" lon="11.6724279"><ele>22.0</ele><time>2026-04-29T09:39:48.209Z</time></trkpt><trkpt lat="45.4777917" lon="11.6724992"><ele>22.0</ele><time>2026-04-29T09:39:49.21Z</time></trkpt><trkpt lat="45.477838" lon="11.6725733"><ele>22.0</ele><time>2026-04-29T09:39:50.209Z</time></trkpt><trkpt lat="45.4778846" lon="11.672646"><ele>22.0</ele><time>2026-04-29T09:39:51.21Z</time></trkpt><trkpt lat="45.4779342" lon="11.6727176"><ele>22.0</ele><time>2026-04-29T09:39:52.209Z</time></trkpt><trkpt lat="45.4779827" lon="11.6727928"><ele>21.857142857142858</ele><time>2026-04-29T09:39:53.209Z</time></trkpt><trkpt lat="45.4780271" lon="11.6728694"><ele>21.714285714285715</ele><time>2026-04-29T09:39:54.209Z</time></trkpt><trkpt lat="45.4780723" lon="11.6729427"><ele>21.57142857142857</ele><time>2026-04-29T09:39:55.21Z</time></trkpt><trkpt lat="45.4781155" lon="11.673015"><ele>21.42857142857143</ele><time>2026-04-29T09:39:56.209Z</time></trkpt><trkpt lat="45.4781606" lon="11.6730883"><ele>21.285714285714285</ele><time>2026-04-29T09:39:57.209Z</time></trkpt><trkpt lat="45.4782053" lon="11.6731538"><ele>21.142857142857142</ele><time>2026-04-29T09:39:58.209Z</time></trkpt><trkpt lat="45.4782496" lon="11.673224"><ele>21.0</ele><time>2026-04-29T09:39:59.209Z</time></trkpt><trkpt lat="45.4782918" lon="11.6732921"><ele>21.0</ele><time>2026-04-29T09:40:00.209Z</time></trkpt><trkpt lat="45.4783706" lon="11.6734269"><ele>21.0</ele><time>2026-04-29T09:40:02.209Z</time></trkpt><trkpt lat="45.4784602" lon="11.6735641"><ele>21.0</ele><time>2026-04-29T09:40:04.21Z</time></trkpt><trkpt lat="45.4785497" lon="11.6736938"><ele>21.0</ele><time>2026-04-29T09:40:06.209Z</time></trkpt><trkpt lat="45.4786333" lon="11.6738246"><ele>20.8</ele><time>2026-04-29T09:40:08.209Z</time></trkpt><trkpt lat="45.4786749" lon="11.6738929"><ele>20.6</ele><time>2026-04-29T09:40:09.209Z</time></trkpt><trkpt lat="45.4787173" lon="11.6739609"><ele>20.4</ele><time>2026-04-29T09:40:10.21Z</time></trkpt><trkpt lat="45.4787958" lon="11.6740993"><ele>20.2</ele><time>2026-04-29T09:40:12.209Z</time></trkpt><trkpt lat="45.4788777" lon="11.6742338"><ele>20.0</ele><time>2026-04-29T09:40:14.209Z</time></trkpt><trkpt lat="45.4789595" lon="11.6743644"><ele>19.857142857142858</ele><time>2026-04-29T09:40:16.209Z</time></trkpt><trkpt lat="45.4790031" lon="11.6744306"><ele>19.714285714285715</ele><time>2026-04-29T09:40:17.209Z</time></trkpt><trkpt lat="45.4790475" lon="11.6744959"><ele>19.57142857142857</ele><time>2026-04-29T09:40:18.21Z</time></trkpt><trkpt lat="45.4790903" lon="11.6745636"><ele>19.42857142857143</ele><time>2026-04-29T09:40:19.21Z</time></trkpt><trkpt lat="45.4791349" lon="11.6746369"><ele>19.28571428571429</ele><time>2026-04-29T09:40:20.21Z</time></trkpt><trkpt lat="45.4791783" lon="11.674702"><ele>19.142857142857142</ele><time>2026-04-29T09:40:21.209Z</time></trkpt><trkpt lat="45.4792592" lon="11.6748291"><ele>19.0</ele><time>2026-04-29T09:40:23.209Z</time></trkpt><trkpt lat="45.4793024" lon="11.6749011"><ele>19.0</ele><time>2026-04-29T09:40:24.21Z</time></trkpt><trkpt lat="45.4793882" lon="11.6750352"><ele>19.0</ele><time>2026-04-29T09:40:26.21Z</time></trkpt><trkpt lat="45.4794332" lon="11.6751048"><ele>19.0</ele><time>2026-04-29T09:40:27.209Z</time></trkpt><trkpt lat="45.479476" lon="11.6751736"><ele>19.0</ele><time>2026-04-29T09:40:28.209Z</time></trkpt><trkpt lat="45.47952" lon="11.6752419"><ele>19.0</ele><time>2026-04-29T09:40:29.209Z</time></trkpt><trkpt lat="45.4795632" lon="11.6753116"><ele>19.0</ele><time>2026-04-29T09:40:30.209Z</time></trkpt><trkpt lat="45.4796074" lon="11.6753842"><ele>19.0</ele><time>2026-04-29T09:40:31.209Z</time></trkpt><trkpt lat="45.4796516" lon="11.6754487"><ele>19.0</ele><time>2026-04-29T09:40:32.209Z</time></trkpt><trkpt lat="45.4796963" lon="11.6755215"><ele>19.0</ele><time>2026-04-29T09:40:33.209Z</time></trkpt><trkpt lat="45.4797408" lon="11.6755931"><ele>19.0</ele><time>2026-04-29T09:40:34.21Z</time></trkpt><trkpt lat="45.4797852" lon="11.6756662"><ele>19.0</ele><time>2026-04-29T09:40:35.209Z</time></trkpt><trkpt lat="45.4798274" lon="11.6757363"><ele>19.0</ele><time>2026-04-29T09:40:36.209Z</time></trkpt><trkpt lat="45.4798691" lon="11.6758087"><ele>19.0</ele><time>2026-04-29T09:40:37.209Z</time></trkpt><trkpt lat="45.4799144" lon="11.6758758"><ele>19.0</ele><time>2026-04-29T09:40:38.209Z</time></trkpt><trkpt lat="45.4799936" lon="11.6760045"><ele>19.0</ele><time>2026-04-29T09:40:40.209Z</time></trkpt><trkpt lat="45.4800734" lon="11.6761236"><ele>19.0</ele><time>2026-04-29T09:40:42.209Z</time></trkpt><trkpt lat="45.480152" lon="11.6762555"><ele>19.0</ele><time>2026-04-29T09:40:44.209Z</time></trkpt><trkpt lat="45.4802379" lon="11.6763871"><ele>19.0</ele><time>2026-04-29T09:40:46.21Z</time></trkpt><trkpt lat="45.4802834" lon="11.6764566"><ele>19.0</ele><time>2026-04-29T09:40:47.21Z</time></trkpt><trkpt lat="45.4803261" lon="11.6765246"><ele>19.0</ele><time>2026-04-29T09:40:48.21Z</time></trkpt><trkpt lat="45.4803716" lon="11.6765953"><ele>19.0</ele><time>2026-04-29T09:40:49.21Z</time></trkpt><trkpt lat="45.4804152" lon="11.6766645"><ele>19.0</ele><time>2026-04-29T09:40:50.21Z</time></trkpt><trkpt lat="45.4804625" lon="11.6767379"><ele>19.0</ele><time>2026-04-29T09:40:51.21Z</time></trkpt><trkpt lat="45.4805073" lon="11.676808"><ele>19.0</ele><time>2026-04-29T09:40:52.21Z</time></trkpt><trkpt lat="45.4805509" lon="11.6768747"><ele>19.25</ele><time>2026-04-29T09:40:53.21Z</time></trkpt><trkpt lat="45.4806331" lon="11.6770061"><ele>19.5</ele><time>2026-04-29T09:40:55.21Z</time></trkpt><trkpt lat="45.4807139" lon="11.677136"><ele>19.75</ele><time>2026-04-29T09:40:57.211Z</time></trkpt><trkpt lat="45.4807911" lon="11.6772658"><ele>20.0</ele><time>2026-04-29T09:40:59.21Z</time></trkpt><trkpt lat="45.480873" lon="11.6774006"><ele>20.0</ele><time>2026-04-29T09:41:01.211Z</time></trkpt><trkpt lat="45.4809498" lon="11.6775326"><ele>20.0</ele><time>2026-04-29T09:41:03.211Z</time></trkpt><trkpt lat="45.4810285" lon="11.6776519"><ele>20.0</ele><time>2026-04-29T09:41:05.211Z</time></trkpt><trkpt lat="45.4811043" lon="11.6777733"><ele>20.0</ele><time>2026-04-29T09:41:07.21Z</time></trkpt><trkpt lat="45.4811854" lon="11.6779015"><ele>20.142857142857142</ele><time>2026-04-29T09:41:09.21Z</time></trkpt><trkpt lat="45.4812279" lon="11.6779681"><ele>20.285714285714285</ele><time>2026-04-29T09:41:10.21Z</time></trkpt><trkpt lat="45.4813104" lon="11.678102"><ele>20.42857142857143</ele><time>2026-04-29T09:41:12.21Z</time></trkpt><trkpt lat="45.4813577" lon="11.6781641"><ele>20.57142857142857</ele><time>2026-04-29T09:41:13.21Z</time></trkpt><trkpt lat="45.481402" lon="11.6782285"><ele>20.714285714285715</ele><time>2026-04-29T09:41:14.21Z</time></trkpt><trkpt lat="45.4814446" lon="11.6783015"><ele>20.857142857142858</ele><time>2026-04-29T09:41:15.211Z</time></trkpt><trkpt lat="45.4814875" lon="11.6783688"><ele>21.0</ele><time>2026-04-29T09:41:16.211Z</time></trkpt><trkpt lat="45.4815323" lon="11.6784364"><ele>21.0</ele><time>2026-04-29T09:41:17.211Z</time></trkpt><trkpt lat="45.481577" lon="11.6785033"><ele>21.0</ele><time>2026-04-29T09:41:18.21Z</time></trkpt><trkpt lat="45.4816208" lon="11.6785724"><ele>21.0</ele><time>2026-04-29T09:41:19.21Z</time></trkpt><trkpt lat="45.4816647" lon="11.6786408"><ele>21.0</ele><time>2026-04-29T09:41:20.211Z</time></trkpt><trkpt lat="45.4817087" lon="11.6787121"><ele>21.0</ele><time>2026-04-29T09:41:21.211Z</time></trkpt><trkpt lat="45.4817546" lon="11.6787868"><ele>21.0</ele><time>2026-04-29T09:41:22.21Z</time></trkpt><trkpt lat="45.4818036" lon="11.6788577"><ele>21.0</ele><time>2026-04-29T09:41:23.211Z</time></trkpt><trkpt lat="45.48185" lon="11.6789222"><ele>21.0</ele><time>2026-04-29T09:41:24.21Z</time></trkpt><trkpt lat="45.4818943" lon="11.678987"><ele>21.0</ele><time>2026-04-29T09:41:25.21Z</time></trkpt><trkpt lat="45.481939" lon="11.6790559"><ele>21.0</ele><time>2026-04-29T09:41:26.21Z</time></trkpt><trkpt lat="45.4820256" lon="11.679188"><ele>21.0</ele><time>2026-04-29T09:41:28.21Z</time></trkpt><trkpt lat="45.4820679" lon="11.6792554"><ele>21.0</ele><time>2026-04-29T09:41:29.21Z</time></trkpt><trkpt lat="45.4821099" lon="11.6793236"><ele>21.0</ele><time>2026-04-29T09:41:30.21Z</time></trkpt><trkpt lat="45.4821514" lon="11.679396"><ele>21.0</ele><time>2026-04-29T09:41:31.21Z</time></trkpt><trkpt lat="45.4821942" lon="11.679468"><ele>21.0</ele><time>2026-04-29T09:41:32.211Z</time></trkpt><trkpt lat="45.4822362" lon="11.6795434"><ele>21.0</ele><time>2026-04-29T09:41:33.21Z</time></trkpt><trkpt lat="45.4822806" lon="11.6796134"><ele>21.0</ele><time>2026-04-29T09:41:34.21Z</time></trkpt><trkpt lat="45.4823275" lon="11.6796836"><ele>21.0</ele><time>2026-04-29T09:41:35.21Z</time></trkpt><trkpt lat="45.48237" lon="11.6797541"><ele>21.0</ele><time>2026-04-29T09:41:36.21Z</time></trkpt><trkpt lat="45.482411" lon="11.6798277"><ele>21.0</ele><time>2026-04-29T09:41:37.21Z</time></trkpt><trkpt lat="45.4824512" lon="11.6799021"><ele>21.0</ele><time>2026-04-29T09:41:38.21Z</time></trkpt><trkpt lat="45.4825302" lon="11.6800245"><ele>21.0</ele><time>2026-04-29T09:41:40.211Z</time></trkpt><trkpt lat="45.4826148" lon="11.6801493"><ele>21.0</ele><time>2026-04-29T09:41:42.21Z</time></trkpt><trkpt lat="45.4826955" lon="11.6802842"><ele>21.0</ele><time>2026-04-29T09:41:44.21Z</time></trkpt><trkpt lat="45.4827731" lon="11.680404"><ele>21.0</ele><time>2026-04-29T09:41:46.21Z</time></trkpt><trkpt lat="45.4828584" lon="11.6805245"><ele>21.200000000000003</ele><time>2026-04-29T09:41:48.211Z</time></trkpt><trkpt lat="45.4829384" lon="11.6806436"><ele>21.400000000000002</ele><time>2026-04-29T09:41:50.21Z</time></trkpt><trkpt lat="45.4830188" lon="11.6807628"><ele>21.6</ele><time>2026-04-29T09:41:52.21Z</time></trkpt><trkpt lat="45.4830959" lon="11.6808913"><ele>21.8</ele><time>2026-04-29T09:41:54.21Z</time></trkpt><trkpt lat="45.4831395" lon="11.6809585"><ele>22.0</ele><time>2026-04-29T09:41:55.211Z</time></trkpt><trkpt lat="45.4832243" lon="11.6810908"><ele>22.0</ele><time>2026-04-29T09:41:57.21Z</time></trkpt><trkpt lat="45.4832647" lon="11.6811693"><ele>22.0</ele><time>2026-04-29T09:41:58.21Z</time></trkpt><trkpt lat="45.4832995" lon="11.6812455"><ele>22.0</ele><time>2026-04-29T09:41:59.21Z</time></trkpt><trkpt lat="45.4833455" lon="11.6813171"><ele>22.0</ele><time>2026-04-29T09:42:00.21Z</time></trkpt><trkpt lat="45.483425" lon="11.6814462"><ele>22.0</ele><time>2026-04-29T09:42:02.21Z</time></trkpt><trkpt lat="45.4834994" lon="11.6815622"><ele>22.0</ele><time>2026-04-29T09:42:04.211Z</time></trkpt><trkpt lat="45.4835752" lon="11.6816758"><ele>22.0</ele><time>2026-04-29T09:42:06.21Z</time></trkpt><trkpt lat="45.4836437" lon="11.6817865"><ele>22.0</ele><time>2026-04-29T09:42:08.211Z</time></trkpt><trkpt lat="45.4837154" lon="11.6818868"><ele>22.0</ele><time>2026-04-29T09:42:10.21Z</time></trkpt><trkpt lat="45.4837728" lon="11.6819859"><ele>22.0</ele><time>2026-04-29T09:42:12.21Z</time></trkpt><trkpt lat="45.4838298" lon="11.6820884"><ele>22.0</ele><time>2026-04-29T09:42:14.211Z</time></trkpt><trkpt lat="45.4838763" lon="11.682181"><ele>21.6</ele><time>2026-04-29T09:42:16.21Z</time></trkpt><trkpt lat="45.4839179" lon="11.6822563"><ele>21.200000000000003</ele><time>2026-04-29T09:42:18.211Z</time></trkpt><trkpt lat="45.4839949" lon="11.6823551"><ele>20.8</ele><time>2026-04-29T09:42:21.21Z</time></trkpt><trkpt lat="45.4840638" lon="11.6824581"><ele>20.4</ele><time>2026-04-29T09:42:23.21Z</time></trkpt><trkpt lat="45.4841307" lon="11.6825654"><ele>20.0</ele><time>2026-04-29T09:42:25.21Z</time></trkpt><trkpt lat="45.4842062" lon="11.6826846"><ele>20.0</ele><time>2026-04-29T09:42:27.21Z</time></trkpt><trkpt lat="45.4842906" lon="11.6828085"><ele>20.0</ele><time>2026-04-29T09:42:29.21Z</time></trkpt><trkpt lat="45.4843728" lon="11.6829365"><ele>20.0</ele><time>2026-04-29T09:42:31.21Z</time></trkpt><trkpt lat="45.4844149" lon="11.6830046"><ele>20.0</ele><time>2026-04-29T09:42:32.21Z</time></trkpt><trkpt lat="45.4844927" lon="11.6831369"><ele>20.0</ele><time>2026-04-29T09:42:34.211Z</time></trkpt><trkpt lat="45.4845734" lon="11.6832689"><ele>20.142857142857142</ele><time>2026-04-29T09:42:36.21Z</time></trkpt><trkpt lat="45.4846188" lon="11.6833363"><ele>20.285714285714285</ele><time>2026-04-29T09:42:37.21Z</time></trkpt><trkpt lat="45.4846621" lon="11.6834082"><ele>20.42857142857143</ele><time>2026-04-29T09:42:38.211Z</time></trkpt><trkpt lat="45.4847055" lon="11.6834742"><ele>20.57142857142857</ele><time>2026-04-29T09:42:39.21Z</time></trkpt><trkpt lat="45.4847496" lon="11.6835393"><ele>20.714285714285715</ele><time>2026-04-29T09:42:40.211Z</time></trkpt><trkpt lat="45.4847965" lon="11.6836103"><ele>20.857142857142858</ele><time>2026-04-29T09:42:41.21Z</time></trkpt><trkpt lat="45.4848445" lon="11.6836829"><ele>21.0</ele><time>2026-04-29T09:42:42.21Z</time></trkpt><trkpt lat="45.4849257" lon="11.6838105"><ele>21.200000000000003</ele><time>2026-04-29T09:42:44.21Z</time></trkpt><trkpt lat="45.4850091" lon="11.6839414"><ele>21.400000000000002</ele><time>2026-04-29T09:42:46.211Z</time></trkpt><trkpt lat="45.4851" lon="11.6840756"><ele>21.6</ele><time>2026-04-29T09:42:48.21Z</time></trkpt><trkpt lat="45.4851409" lon="11.6841478"><ele>21.8</ele><time>2026-04-29T09:42:49.211Z</time></trkpt><trkpt lat="45.4851878" lon="11.6842239"><ele>22.0</ele><time>2026-04-29T09:42:50.21Z</time></trkpt><trkpt lat="45.4852321" lon="11.6842926"><ele>22.0</ele><time>2026-04-29T09:42:51.21Z</time></trkpt><trkpt lat="45.4852735" lon="11.6843613"><ele>22.0</ele><time>2026-04-29T09:42:52.21Z</time></trkpt><trkpt lat="45.4853157" lon="11.6844299"><ele>22.0</ele><time>2026-04-29T09:42:53.211Z</time></trkpt><trkpt lat="45.4853993" lon="11.6845723"><ele>22.0</ele><time>2026-04-29T09:42:55.21Z</time></trkpt><trkpt lat="45.4854808" lon="11.6847168"><ele>22.0</ele><time>2026-04-29T09:42:57.211Z</time></trkpt><trkpt lat="45.4855257" lon="11.6847847"><ele>22.200000000000003</ele><time>2026-04-29T09:42:58.21Z</time></trkpt><trkpt lat="45.4855695" lon="11.6848514"><ele>22.4</ele><time>2026-04-29T09:42:59.21Z</time></trkpt><trkpt lat="45.4856164" lon="11.6849162"><ele>22.6</ele><time>2026-04-29T09:43:00.21Z</time></trkpt><trkpt lat="45.4856996" lon="11.685037"><ele>22.799999999999997</ele><time>2026-04-29T09:43:02.209Z</time></trkpt><trkpt lat="45.4857719" lon="11.6851316"><ele>23.0</ele><time>2026-04-29T09:43:04.209Z</time></trkpt><trkpt lat="45.4858377" lon="11.6852486"><ele>22.799999999999997</ele><time>2026-04-29T09:43:06.21Z</time></trkpt><trkpt lat="45.485908" lon="11.6853541"><ele>22.6</ele><time>2026-04-29T09:43:08.21Z</time></trkpt><trkpt lat="45.4859805" lon="11.6854637"><ele>22.4</ele><time>2026-04-29T09:43:10.21Z</time></trkpt><trkpt lat="45.4860412" lon="11.6855783"><ele>22.200000000000003</ele><time>2026-04-29T09:43:12.209Z</time></trkpt><trkpt lat="45.4861096" lon="11.6856793"><ele>22.0</ele><time>2026-04-29T09:43:14.209Z</time></trkpt><trkpt lat="45.4861699" lon="11.6857787"><ele>22.0</ele><time>2026-04-29T09:43:16.209Z</time></trkpt><trkpt lat="45.4862324" lon="11.6858965"><ele>22.0</ele><time>2026-04-29T09:43:18.21Z</time></trkpt><trkpt lat="45.4863111" lon="11.6860165"><ele>22.0</ele><time>2026-04-29T09:43:20.209Z</time></trkpt><trkpt lat="45.4863842" lon="11.6861451"><ele>22.0</ele><time>2026-04-29T09:43:22.209Z</time></trkpt><trkpt lat="45.4864588" lon="11.6862678"><ele>22.0</ele><time>2026-04-29T09:43:24.21Z</time></trkpt><trkpt lat="45.4865428" lon="11.6863988"><ele>21.6</ele><time>2026-04-29T09:43:26.209Z</time></trkpt><trkpt lat="45.4865861" lon="11.6864656"><ele>21.200000000000003</ele><time>2026-04-29T09:43:27.209Z</time></trkpt><trkpt lat="45.486663" lon="11.6865853"><ele>20.8</ele><time>2026-04-29T09:43:29.209Z</time></trkpt><trkpt lat="45.4867439" lon="11.6867156"><ele>20.4</ele><time>2026-04-29T09:43:31.21Z</time></trkpt><trkpt lat="45.4868273" lon="11.6868481"><ele>20.0</ele><time>2026-04-29T09:43:33.21Z</time></trkpt><trkpt lat="45.4868734" lon="11.6869206"><ele>20.142857142857142</ele><time>2026-04-29T09:43:34.209Z</time></trkpt><trkpt lat="45.4869177" lon="11.6869897"><ele>20.285714285714285</ele><time>2026-04-29T09:43:35.209Z</time></trkpt><trkpt lat="45.4869633" lon="11.6870546"><ele>20.42857142857143</ele><time>2026-04-29T09:43:36.21Z</time></trkpt><trkpt lat="45.4870068" lon="11.6871208"><ele>20.57142857142857</ele><time>2026-04-29T09:43:37.21Z</time></trkpt><trkpt lat="45.487048" lon="11.6871894"><ele>20.714285714285715</ele><time>2026-04-29T09:43:38.21Z</time></trkpt><trkpt lat="45.4870919" lon="11.6872639"><ele>20.857142857142858</ele><time>2026-04-29T09:43:39.209Z</time></trkpt><trkpt lat="45.4871385" lon="11.6873367"><ele>21.0</ele><time>2026-04-29T09:43:40.21Z</time></trkpt><trkpt lat="45.4871832" lon="11.6874041"><ele>20.714285714285715</ele><time>2026-04-29T09:43:41.21Z</time></trkpt><trkpt lat="45.4872264" lon="11.6874752"><ele>20.42857142857143</ele><time>2026-04-29T09:43:42.209Z</time></trkpt><trkpt lat="45.4872704" lon="11.6875413"><ele>20.142857142857142</ele><time>2026-04-29T09:43:43.209Z</time></trkpt><trkpt lat="45.4873117" lon="11.6876116"><ele>19.857142857142858</ele><time>2026-04-29T09:43:44.21Z</time></trkpt><trkpt lat="45.4873915" lon="11.6877446"><ele>19.571428571428573</ele><time>2026-04-29T09:43:46.209Z</time></trkpt><trkpt lat="45.487433" lon="11.6878153"><ele>19.285714285714285</ele><time>2026-04-29T09:43:47.209Z</time></trkpt><trkpt lat="45.4874757" lon="11.6878886"><ele>19.0</ele><time>2026-04-29T09:43:48.209Z</time></trkpt><trkpt lat="45.4875205" lon="11.6879569"><ele>19.0</ele><time>2026-04-29T09:43:49.21Z</time></trkpt><trkpt lat="45.4875628" lon="11.6880269"><ele>19.0</ele><time>2026-04-29T09:43:50.209Z</time></trkpt><trkpt lat="45.487646" lon="11.6881589"><ele>19.0</ele><time>2026-04-29T09:43:52.21Z</time></trkpt><trkpt lat="45.4877238" lon="11.6882873"><ele>19.0</ele><time>2026-04-29T09:43:54.209Z</time></trkpt><trkpt lat="45.4878067" lon="11.6884234"><ele>19.0</ele><time>2026-04-29T09:43:56.209Z</time></trkpt><trkpt lat="45.4878478" lon="11.6884947"><ele>19.0</ele><time>2026-04-29T09:43:57.21Z</time></trkpt><trkpt lat="45.4878918" lon="11.6885698"><ele>19.0</ele><time>2026-04-29T09:43:58.209Z</time></trkpt><trkpt lat="45.4879392" lon="11.6886379"><ele>19.0</ele><time>2026-04-29T09:43:59.209Z</time></trkpt><trkpt lat="45.4880257" lon="11.6887702"><ele>19.0</ele><time>2026-04-29T09:44:01.209Z</time></trkpt><trkpt lat="45.4881086" lon="11.6889023"><ele>19.0</ele><time>2026-04-29T09:44:03.209Z</time></trkpt><trkpt lat="45.4881547" lon="11.6889775"><ele>19.0</ele><time>2026-04-29T09:44:04.21Z</time></trkpt><trkpt lat="45.4881985" lon="11.6890501"><ele>19.0</ele><time>2026-04-29T09:44:05.209Z</time></trkpt><trkpt lat="45.4882463" lon="11.6891214"><ele>19.0</ele><time>2026-04-29T09:44:06.209Z</time></trkpt><trkpt lat="45.488292" lon="11.6891935"><ele>19.0</ele><time>2026-04-29T09:44:07.209Z</time></trkpt><trkpt lat="45.4883393" lon="11.6892649"><ele>19.0</ele><time>2026-04-29T09:44:08.21Z</time></trkpt><trkpt lat="45.4884253" lon="11.6893919"><ele>19.0</ele><time>2026-04-29T09:44:10.209Z</time></trkpt><trkpt lat="45.4885119" lon="11.6895186"><ele>19.0</ele><time>2026-04-29T09:44:12.209Z</time></trkpt><trkpt lat="45.4885562" lon="11.6895879"><ele>19.0</ele><time>2026-04-29T09:44:13.21Z</time></trkpt><trkpt lat="45.4886378" lon="11.689714"><ele>19.0</ele><time>2026-04-29T09:44:15.209Z</time></trkpt><trkpt lat="45.4887195" lon="11.6898476"><ele>19.0</ele><time>2026-04-29T09:44:17.209Z</time></trkpt><trkpt lat="45.4887961" lon="11.689978"><ele>19.0</ele><time>2026-04-29T09:44:19.21Z</time></trkpt><trkpt lat="45.4888418" lon="11.6900443"><ele>19.0</ele><time>2026-04-29T09:44:20.209Z</time></trkpt><trkpt lat="45.4888857" lon="11.6901163"><ele>19.0</ele><time>2026-04-29T09:44:21.209Z</time></trkpt><trkpt lat="45.4889271" lon="11.6901896"><ele>19.0</ele><time>2026-04-29T09:44:22.21Z</time></trkpt><trkpt lat="45.4889711" lon="11.6902585"><ele>19.0</ele><time>2026-04-29T09:44:23.209Z</time></trkpt><trkpt lat="45.4890168" lon="11.6903296"><ele>19.0</ele><time>2026-04-29T09:44:24.21Z</time></trkpt><trkpt lat="45.4890621" lon="11.6904039"><ele>19.0</ele><time>2026-04-29T09:44:25.209Z</time></trkpt><trkpt lat="45.4891455" lon="11.690531"><ele>19.4</ele><time>2026-04-29T09:44:27.21Z</time></trkpt><trkpt lat="45.4891889" lon="11.6905975"><ele>19.799999999999997</ele><time>2026-04-29T09:44:28.21Z</time></trkpt><trkpt lat="45.4892709" lon="11.6907242"><ele>20.200000000000003</ele><time>2026-04-29T09:44:30.209Z</time></trkpt><trkpt lat="45.489351" lon="11.6908437"><ele>20.6</ele><time>2026-04-29T09:44:32.209Z</time></trkpt><trkpt lat="45.4894275" lon="11.6909624"><ele>21.0</ele><time>2026-04-29T09:44:34.209Z</time></trkpt><trkpt lat="45.489503" lon="11.6910831"><ele>21.0</ele><time>2026-04-29T09:44:36.209Z</time></trkpt><trkpt lat="45.489582" lon="11.6912104"><ele>21.0</ele><time>2026-04-29T09:44:38.21Z</time></trkpt><trkpt lat="45.4896648" lon="11.6913407"><ele>21.0</ele><time>2026-04-29T09:44:40.21Z</time></trkpt><trkpt lat="45.4897469" lon="11.6914758"><ele>21.0</ele><time>2026-04-29T09:44:42.209Z</time></trkpt><trkpt lat="45.4898318" lon="11.6916139"><ele>21.0</ele><time>2026-04-29T09:44:44.209Z</time></trkpt><trkpt lat="45.4899167" lon="11.6917504"><ele>21.0</ele><time>2026-04-29T09:44:46.209Z</time></trkpt><trkpt lat="45.4899581" lon="11.6918208"><ele>21.0</ele><time>2026-04-29T09:44:47.209Z</time></trkpt><trkpt lat="45.4900438" lon="11.6919508"><ele>21.0</ele><time>2026-04-29T09:44:49.21Z</time></trkpt><trkpt lat="45.490123" lon="11.6920763"><ele>21.0</ele><time>2026-04-29T09:44:51.209Z</time></trkpt><trkpt lat="45.490203" lon="11.6922009"><ele>21.0</ele><time>2026-04-29T09:44:53.209Z</time></trkpt><trkpt lat="45.490286" lon="11.6923258"><ele>21.0</ele><time>2026-04-29T09:44:55.209Z</time></trkpt><trkpt lat="45.4903689" lon="11.692445"><ele>21.0</ele><time>2026-04-29T09:44:57.21Z</time></trkpt><trkpt lat="45.4904451" lon="11.6925848"><ele>21.0</ele><time>2026-04-29T09:44:59.209Z</time></trkpt><trkpt lat="45.4905264" lon="11.6927195"><ele>21.166666666666668</ele><time>2026-04-29T09:45:01.209Z</time></trkpt><trkpt lat="45.4905692" lon="11.6927885"><ele>21.333333333333332</ele><time>2026-04-29T09:45:02.209Z</time></trkpt><trkpt lat="45.4906122" lon="11.6928599"><ele>21.5</ele><time>2026-04-29T09:45:03.209Z</time></trkpt><trkpt lat="45.4906551" lon="11.6929259"><ele>21.666666666666664</ele><time>2026-04-29T09:45:04.209Z</time></trkpt><trkpt lat="45.490696" lon="11.6929953"><ele>21.833333333333332</ele><time>2026-04-29T09:45:05.209Z</time></trkpt><trkpt lat="45.4907723" lon="11.6931292"><ele>22.0</ele><time>2026-04-29T09:45:07.209Z</time></trkpt><trkpt lat="45.4908408" lon="11.6932544"><ele>22.0</ele><time>2026-04-29T09:45:09.209Z</time></trkpt><trkpt lat="45.4909067" lon="11.6933904"><ele>22.0</ele><time>2026-04-29T09:45:11.209Z</time></trkpt><trkpt lat="45.4909678" lon="11.6935265"><ele>22.0</ele><time>2026-04-29T09:45:13.209Z</time></trkpt><trkpt lat="45.4910114" lon="11.6936534"><ele>22.0</ele><time>2026-04-29T09:45:15.21Z</time></trkpt><trkpt lat="45.4910719" lon="11.6937744"><ele>22.0</ele><time>2026-04-29T09:45:17.21Z</time></trkpt><trkpt lat="45.4911362" lon="11.6938975"><ele>22.0</ele><time>2026-04-29T09:45:19.209Z</time></trkpt><trkpt lat="45.4911904" lon="11.6940169"><ele>22.0</ele><time>2026-04-29T09:45:21.21Z</time></trkpt><trkpt lat="45.4912357" lon="11.6941151"><ele>22.0</ele><time>2026-04-29T09:45:23.209Z</time></trkpt><trkpt lat="45.4912666" lon="11.6942144"><ele>22.0</ele><time>2026-04-29T09:45:25.209Z</time></trkpt><trkpt lat="45.4912495" lon="11.6943349"><ele>22.0</ele><time>2026-04-29T09:45:28.209Z</time></trkpt><trkpt lat="45.4911871" lon="11.6944031"><ele>22.0</ele><time>2026-04-29T09:45:30.209Z</time></trkpt><trkpt lat="45.4911153" lon="11.6944793"><ele>22.0</ele><time>2026-04-29T09:45:32.21Z</time></trkpt><trkpt lat="45.4910294" lon="11.6945694"><ele>22.0</ele><time>2026-04-29T09:45:34.21Z</time></trkpt><trkpt lat="45.4909313" lon="11.6946844"><ele>22.0</ele><time>2026-04-29T09:45:36.209Z</time></trkpt><trkpt lat="45.4908303" lon="11.6947927"><ele>22.0</ele><time>2026-04-29T09:45:38.209Z</time></trkpt><trkpt lat="45.4907812" lon="11.6948492"><ele>22.0</ele><time>2026-04-29T09:45:39.209Z</time></trkpt><trkpt lat="45.4907299" lon="11.6949055"><ele>22.0</ele><time>2026-04-29T09:45:40.21Z</time></trkpt><trkpt lat="45.4906327" lon="11.6950252"><ele>22.0</ele><time>2026-04-29T09:45:42.209Z</time></trkpt><trkpt lat="45.4905322" lon="11.6951322"><ele>22.0</ele><time>2026-04-29T09:45:44.209Z</time></trkpt><trkpt lat="45.4904835" lon="11.6951906"><ele>22.0</ele><time>2026-04-29T09:45:45.21Z</time></trkpt><trkpt lat="45.4904287" lon="11.6952528"><ele>22.0</ele><time>2026-04-29T09:45:46.21Z</time></trkpt><trkpt lat="45.4903751" lon="11.6953114"><ele>22.142857142857142</ele><time>2026-04-29T09:45:47.209Z</time></trkpt><trkpt lat="45.4903227" lon="11.6953665"><ele>22.285714285714285</ele><time>2026-04-29T09:45:48.209Z</time></trkpt><trkpt lat="45.4902682" lon="11.6954235"><ele>22.42857142857143</ele><time>2026-04-29T09:45:49.209Z</time></trkpt><trkpt lat="45.4902147" lon="11.695477"><ele>22.57142857142857</ele><time>2026-04-29T09:45:50.209Z</time></trkpt><trkpt lat="45.4901644" lon="11.6955356"><ele>22.71428571428571</ele><time>2026-04-29T09:45:51.209Z</time></trkpt><trkpt lat="45.4901156" lon="11.6955977"><ele>22.857142857142858</ele><time>2026-04-29T09:45:52.209Z</time></trkpt><trkpt lat="45.4900663" lon="11.6956554"><ele>23.0</ele><time>2026-04-29T09:45:53.209Z</time></trkpt><trkpt lat="45.4899612" lon="11.6957629"><ele>23.0</ele><time>2026-04-29T09:45:55.21Z</time></trkpt><trkpt lat="45.4899092" lon="11.6958266"><ele>23.0</ele><time>2026-04-29T09:45:56.209Z</time></trkpt><trkpt lat="45.4898572" lon="11.6958849"><ele>23.0</ele><time>2026-04-29T09:45:57.21Z</time></trkpt><trkpt lat="45.4898071" lon="11.695949"><ele>23.0</ele><time>2026-04-29T09:45:58.209Z</time></trkpt><trkpt lat="45.4897604" lon="11.696012"><ele>23.0</ele><time>2026-04-29T09:45:59.21Z</time></trkpt><trkpt lat="45.4896612" lon="11.6961154"><ele>23.0</ele><time>2026-04-29T09:46:01.209Z</time></trkpt><trkpt lat="45.4895689" lon="11.6962229"><ele>23.0</ele><time>2026-04-29T09:46:03.209Z</time></trkpt><trkpt lat="45.489483" lon="11.6963293"><ele>23.0</ele><time>2026-04-29T09:46:05.209Z</time></trkpt><trkpt lat="45.4894059" lon="11.6964228"><ele>23.0</ele><time>2026-04-29T09:46:07.209Z</time></trkpt><trkpt lat="45.4893227" lon="11.6965116"><ele>23.0</ele><time>2026-04-29T09:46:09.209Z</time></trkpt><trkpt lat="45.4892485" lon="11.6966004"><ele>23.0</ele><time>2026-04-29T09:46:11.209Z</time></trkpt><trkpt lat="45.489247" lon="11.6967177"><ele>23.0</ele><time>2026-04-29T09:46:13.209Z</time></trkpt><trkpt lat="45.4893043" lon="11.6968037"><ele>23.0</ele><time>2026-04-29T09:46:15.209Z</time></trkpt><trkpt lat="45.4893777" lon="11.6968847"><ele>23.0</ele><time>2026-04-29T09:46:17.21Z</time></trkpt><trkpt lat="45.489457" lon="11.6969686"><ele>23.0</ele><time>2026-04-29T09:46:19.21Z</time></trkpt><trkpt lat="45.4895317" lon="11.6970479"><ele>23.0</ele><time>2026-04-29T09:46:21.209Z</time></trkpt><trkpt lat="45.4896106" lon="11.697141"><ele>22.799999999999997</ele><time>2026-04-29T09:46:23.209Z</time></trkpt><trkpt lat="45.4896952" lon="11.6972401"><ele>22.6</ele><time>2026-04-29T09:46:25.21Z</time></trkpt><trkpt lat="45.4897797" lon="11.6973414"><ele>22.4</ele><time>2026-04-29T09:46:27.209Z</time></trkpt><trkpt lat="45.4898397" lon="11.6974484"><ele>22.200000000000003</ele><time>2026-04-29T09:46:29.209Z</time></trkpt><trkpt lat="45.4898694" lon="11.6975769"><ele>22.0</ele><time>2026-04-29T09:46:31.209Z</time></trkpt><trkpt lat="45.4898996" lon="11.6977054"><ele>22.166666666666664</ele><time>2026-04-29T09:46:33.209Z</time></trkpt><trkpt lat="45.4899325" lon="11.6978189"><ele>22.333333333333332</ele><time>2026-04-29T09:46:35.209Z</time></trkpt><trkpt lat="45.4899546" lon="11.6979285"><ele>22.5</ele><time>2026-04-29T09:46:37.209Z</time></trkpt><trkpt lat="45.4899885" lon="11.6980465"><ele>22.666666666666668</ele><time>2026-04-29T09:46:39.209Z</time></trkpt><trkpt lat="45.4900228" lon="11.6981645"><ele>22.833333333333336</ele><time>2026-04-29T09:46:41.209Z</time></trkpt><trkpt lat="45.4900614" lon="11.6983001"><ele>23.0</ele><time>2026-04-29T09:46:43.209Z</time></trkpt><trkpt lat="45.4901015" lon="11.6984498"><ele>22.75</ele><time>2026-04-29T09:46:45.209Z</time></trkpt><trkpt lat="45.4901362" lon="11.6986173"><ele>22.5</ele><time>2026-04-29T09:46:47.209Z</time></trkpt><trkpt lat="45.490161" lon="11.6987835"><ele>22.25</ele><time>2026-04-29T09:46:49.21Z</time></trkpt><trkpt lat="45.4901691" lon="11.6989538"><ele>22.0</ele><time>2026-04-29T09:46:51.208Z</time></trkpt><trkpt lat="45.4901085" lon="11.6990973"><ele>22.0</ele><time>2026-04-29T09:46:53.208Z</time></trkpt><trkpt lat="45.4901118" lon="11.6992422"><ele>22.0</ele><time>2026-04-29T09:46:55.208Z</time></trkpt><trkpt lat="45.4901351" lon="11.6994064"><ele>22.0</ele><time>2026-04-29T09:46:57.208Z</time></trkpt><trkpt lat="45.4901455" lon="11.6995784"><ele>22.0</ele><time>2026-04-29T09:46:59.208Z</time></trkpt><trkpt lat="45.4901505" lon="11.6996733"><ele>22.0</ele><time>2026-04-29T09:47:00.208Z</time></trkpt><trkpt lat="45.4901591" lon="11.6998469"><ele>22.0</ele><time>2026-04-29T09:47:02.208Z</time></trkpt><trkpt lat="45.4901734" lon="11.7000175"><ele>22.0</ele><time>2026-04-29T09:47:04.208Z</time></trkpt><trkpt lat="45.4901848" lon="11.7001758"><ele>22.0</ele><time>2026-04-29T09:47:06.208Z</time></trkpt><trkpt lat="45.4901629" lon="11.7003339"><ele>22.0</ele><time>2026-04-29T09:47:08.209Z</time></trkpt><trkpt lat="45.4900678" lon="11.7004416"><ele>22.400000000000002</ele><time>2026-04-29T09:47:10.208Z</time></trkpt><trkpt lat="45.4899545" lon="11.7005042"><ele>22.8</ele><time>2026-04-29T09:47:12.208Z</time></trkpt><trkpt lat="45.489893" lon="11.7005291"><ele>23.2</ele><time>2026-04-29T09:47:13.209Z</time></trkpt><trkpt lat="45.4897825" lon="11.7005942"><ele>23.6</ele><time>2026-04-29T09:47:15.209Z</time></trkpt><trkpt lat="45.4896707" lon="11.7006784"><ele>24.0</ele><time>2026-04-29T09:47:17.208Z</time></trkpt><trkpt lat="45.4895608" lon="11.700769"><ele>23.999999999999996</ele><time>2026-04-29T09:47:19.209Z</time></trkpt><trkpt lat="45.4895037" lon="11.7008138"><ele>24.0</ele><time>2026-04-29T09:47:20.209Z</time></trkpt><trkpt lat="45.4894453" lon="11.7008551"><ele>24.0</ele><time>2026-04-29T09:47:21.208Z</time></trkpt><trkpt lat="45.4893886" lon="11.7009024"><ele>24.0</ele><time>2026-04-29T09:47:22.208Z</time></trkpt><trkpt lat="45.4893336" lon="11.7009476"><ele>24.0</ele><time>2026-04-29T09:47:23.208Z</time></trkpt><trkpt lat="45.4892764" lon="11.7010004"><ele>23.999999999999996</ele><time>2026-04-29T09:47:24.209Z</time></trkpt><trkpt lat="45.4892205" lon="11.7010454"><ele>24.0</ele><time>2026-04-29T09:47:25.208Z</time></trkpt><trkpt lat="45.4891122" lon="11.7011388"><ele>24.166666666666668</ele><time>2026-04-29T09:47:27.208Z</time></trkpt><trkpt lat="45.4889985" lon="11.7012299"><ele>24.333333333333336</ele><time>2026-04-29T09:47:29.209Z</time></trkpt><trkpt lat="45.4889389" lon="11.7012768"><ele>24.5</ele><time>2026-04-29T09:47:30.208Z</time></trkpt><trkpt lat="45.4888792" lon="11.7013241"><ele>24.666666666666668</ele><time>2026-04-29T09:47:31.208Z</time></trkpt><trkpt lat="45.4888219" lon="11.7013733"><ele>24.833333333333336</ele><time>2026-04-29T09:47:32.208Z</time></trkpt><trkpt lat="45.4887628" lon="11.7014239"><ele>25.0</ele><time>2026-04-29T09:47:33.209Z</time></trkpt><trkpt lat="45.4887044" lon="11.7014761"><ele>24.666666666666668</ele><time>2026-04-29T09:47:34.208Z</time></trkpt><trkpt lat="45.4886459" lon="11.7015266"><ele>24.333333333333336</ele><time>2026-04-29T09:47:35.208Z</time></trkpt><trkpt lat="45.4885856" lon="11.7015749"><ele>24.0</ele><time>2026-04-29T09:47:36.208Z</time></trkpt><trkpt lat="45.4885218" lon="11.7016265"><ele>23.666666666666668</ele><time>2026-04-29T09:47:37.208Z</time></trkpt><trkpt lat="45.4884582" lon="11.701677"><ele>23.333333333333336</ele><time>2026-04-29T09:47:38.208Z</time></trkpt><trkpt lat="45.488398" lon="11.7017316"><ele>23.0</ele><time>2026-04-29T09:47:39.209Z</time></trkpt><trkpt lat="45.4882846" lon="11.7018233"><ele>23.0</ele><time>2026-04-29T09:47:41.208Z</time></trkpt><trkpt lat="45.4882256" lon="11.7018676"><ele>23.0</ele><time>2026-04-29T09:47:42.208Z</time></trkpt><trkpt lat="45.4881689" lon="11.7019167"><ele>23.0</ele><time>2026-04-29T09:47:43.208Z</time></trkpt><trkpt lat="45.488109" lon="11.7019611"><ele>23.0</ele><time>2026-04-29T09:47:44.209Z</time></trkpt><trkpt lat="45.4880486" lon="11.7020044"><ele>23.0</ele><time>2026-04-29T09:47:45.209Z</time></trkpt><trkpt lat="45.4879877" lon="11.7020503"><ele>23.0</ele><time>2026-04-29T09:47:46.208Z</time></trkpt><trkpt lat="45.487929" lon="11.702097"><ele>23.0</ele><time>2026-04-29T09:47:47.208Z</time></trkpt><trkpt lat="45.4878211" lon="11.7021793"><ele>23.0</ele><time>2026-04-29T09:47:49.208Z</time></trkpt><trkpt lat="45.4877119" lon="11.7022613"><ele>23.0</ele><time>2026-04-29T09:47:51.208Z</time></trkpt><trkpt lat="45.4876044" lon="11.7023545"><ele>23.0</ele><time>2026-04-29T09:47:53.208Z</time></trkpt><trkpt lat="45.4874997" lon="11.7024297"><ele>23.0</ele><time>2026-04-29T09:47:55.208Z</time></trkpt><trkpt lat="45.487399" lon="11.7024949"><ele>23.0</ele><time>2026-04-29T09:47:57.208Z</time></trkpt><trkpt lat="45.4873133" lon="11.702571"><ele>23.0</ele><time>2026-04-29T09:47:59.208Z</time></trkpt><trkpt lat="45.4872492" lon="11.7026375"><ele>23.0</ele><time>2026-04-29T09:48:01.208Z</time></trkpt><trkpt lat="45.4872416" lon="11.7027371"><ele>23.0</ele><time>2026-04-29T09:48:04.208Z</time></trkpt><trkpt lat="45.4872873" lon="11.7028482"><ele>23.0</ele><time>2026-04-29T09:48:07.208Z</time></trkpt><trkpt lat="45.4872173" lon="11.7029378"><ele>23.0</ele><time>2026-04-29T09:48:10.209Z</time></trkpt><trkpt lat="45.4871312" lon="11.7029734"><ele>22.799999999999997</ele><time>2026-04-29T09:48:12.208Z</time></trkpt><trkpt lat="45.4870407" lon="11.7030436"><ele>22.6</ele><time>2026-04-29T09:48:14.208Z</time></trkpt><trkpt lat="45.4869514" lon="11.7031095"><ele>22.4</ele><time>2026-04-29T09:48:16.208Z</time></trkpt><trkpt lat="45.4868589" lon="11.7031819"><ele>22.200000000000003</ele><time>2026-04-29T09:48:18.209Z</time></trkpt><trkpt lat="45.4867508" lon="11.7032574"><ele>22.0</ele><time>2026-04-29T09:48:20.209Z</time></trkpt><trkpt lat="45.4866446" lon="11.7033395"><ele>22.0</ele><time>2026-04-29T09:48:22.208Z</time></trkpt><trkpt lat="45.4865341" lon="11.7034166"><ele>22.0</ele><time>2026-04-29T09:48:24.208Z</time></trkpt><trkpt lat="45.4864242" lon="11.7035004"><ele>22.0</ele><time>2026-04-29T09:48:26.209Z</time></trkpt><trkpt lat="45.4863187" lon="11.7035753"><ele>22.0</ele><time>2026-04-29T09:48:28.208Z</time></trkpt><trkpt lat="45.4862097" lon="11.7036654"><ele>22.200000000000003</ele><time>2026-04-29T09:48:30.209Z</time></trkpt><trkpt lat="45.4861528" lon="11.7037091"><ele>22.4</ele><time>2026-04-29T09:48:31.208Z</time></trkpt><trkpt lat="45.4860451" lon="11.7037843"><ele>22.6</ele><time>2026-04-29T09:48:33.208Z</time></trkpt><trkpt lat="45.48594" lon="11.7038619"><ele>22.799999999999997</ele><time>2026-04-29T09:48:35.209Z</time></trkpt><trkpt lat="45.4858408" lon="11.7039364"><ele>23.0</ele><time>2026-04-29T09:48:37.208Z</time></trkpt><trkpt lat="45.4857453" lon="11.7040093"><ele>23.0</ele><time>2026-04-29T09:48:39.209Z</time></trkpt><trkpt lat="45.4856473" lon="11.7040811"><ele>23.0</ele><time>2026-04-29T09:48:41.208Z</time></trkpt><trkpt lat="45.485544" lon="11.7041556"><ele>23.0</ele><time>2026-04-29T09:48:43.208Z</time></trkpt><trkpt lat="45.4854335" lon="11.7042443"><ele>23.0</ele><time>2026-04-29T09:48:45.209Z</time></trkpt><trkpt lat="45.4853701" lon="11.7042893"><ele>23.0</ele><time>2026-04-29T09:48:46.209Z</time></trkpt><trkpt lat="45.4853111" lon="11.7043349"><ele>22.857142857142858</ele><time>2026-04-29T09:48:47.209Z</time></trkpt><trkpt lat="45.4852524" lon="11.7043803"><ele>22.71428571428571</ele><time>2026-04-29T09:48:48.208Z</time></trkpt><trkpt lat="45.4851951" lon="11.7044275"><ele>22.57142857142857</ele><time>2026-04-29T09:48:49.209Z</time></trkpt><trkpt lat="45.4851362" lon="11.7044745"><ele>22.42857142857143</ele><time>2026-04-29T09:48:50.208Z</time></trkpt><trkpt lat="45.4850764" lon="11.7045177"><ele>22.285714285714285</ele><time>2026-04-29T09:48:51.209Z</time></trkpt><trkpt lat="45.4850174" lon="11.7045597"><ele>22.142857142857142</ele><time>2026-04-29T09:48:52.208Z</time></trkpt><trkpt lat="45.4849547" lon="11.7046025"><ele>22.0</ele><time>2026-04-29T09:48:53.208Z</time></trkpt><trkpt lat="45.4848962" lon="11.7046429"><ele>21.833333333333332</ele><time>2026-04-29T09:48:54.208Z</time></trkpt><trkpt lat="45.4848359" lon="11.7046838"><ele>21.666666666666664</ele><time>2026-04-29T09:48:55.209Z</time></trkpt><trkpt lat="45.4847795" lon="11.7047296"><ele>21.5</ele><time>2026-04-29T09:48:56.208Z</time></trkpt><trkpt lat="45.484723" lon="11.7047747"><ele>21.333333333333332</ele><time>2026-04-29T09:48:57.208Z</time></trkpt><trkpt lat="45.4846671" lon="11.7048182"><ele>21.166666666666668</ele><time>2026-04-29T09:48:58.209Z</time></trkpt><trkpt lat="45.4845549" lon="11.7049032"><ele>21.0</ele><time>2026-04-29T09:49:00.208Z</time></trkpt><trkpt lat="45.4844977" lon="11.7049415"><ele>21.75</ele><time>2026-04-29T09:49:01.208Z</time></trkpt><trkpt lat="45.4843896" lon="11.7050214"><ele>22.5</ele><time>2026-04-29T09:49:03.208Z</time></trkpt><trkpt lat="45.4842856" lon="11.7050986"><ele>23.25</ele><time>2026-04-29T09:49:05.208Z</time></trkpt><trkpt lat="45.4841867" lon="11.7051722"><ele>24.0</ele><time>2026-04-29T09:49:07.209Z</time></trkpt><trkpt lat="45.4840881" lon="11.7052433"><ele>23.833333333333332</ele><time>2026-04-29T09:49:09.208Z</time></trkpt><trkpt lat="45.4839968" lon="11.7053134"><ele>23.666666666666668</ele><time>2026-04-29T09:49:11.208Z</time></trkpt><trkpt lat="45.4839391" lon="11.7054181"><ele>23.5</ele><time>2026-04-29T09:49:13.208Z</time></trkpt><trkpt lat="45.483921" lon="11.7055324"><ele>23.333333333333336</ele><time>2026-04-29T09:49:15.208Z</time></trkpt><trkpt lat="45.4838573" lon="11.7055895"><ele>23.166666666666668</ele><time>2026-04-29T09:49:17.208Z</time></trkpt><trkpt lat="45.4837788" lon="11.7056506"><ele>23.0</ele><time>2026-04-29T09:49:19.208Z</time></trkpt><trkpt lat="45.4836956" lon="11.7056394"><ele>22.799999999999997</ele><time>2026-04-29T09:49:21.208Z</time></trkpt><trkpt lat="45.4836009" lon="11.7056054"><ele>22.6</ele><time>2026-04-29T09:49:23.208Z</time></trkpt><trkpt lat="45.4834888" lon="11.705654"><ele>22.4</ele><time>2026-04-29T09:49:25.208Z</time></trkpt><trkpt lat="45.4833784" lon="11.7057271"><ele>22.200000000000003</ele><time>2026-04-29T09:49:27.209Z</time></trkpt><trkpt lat="45.4833226" lon="11.7057734"><ele>22.0</ele><time>2026-04-29T09:49:28.209Z</time></trkpt><trkpt lat="45.4832168" lon="11.7058433"><ele>22.0</ele><time>2026-04-29T09:49:30.209Z</time></trkpt><trkpt lat="45.4831102" lon="11.7059157"><ele>22.0</ele><time>2026-04-29T09:49:32.208Z</time></trkpt><trkpt lat="45.4829971" lon="11.705986"><ele>22.0</ele><time>2026-04-29T09:49:34.208Z</time></trkpt><trkpt lat="45.4828915" lon="11.7060591"><ele>22.0</ele><time>2026-04-29T09:49:36.208Z</time></trkpt><trkpt lat="45.4827812" lon="11.7061389"><ele>22.0</ele><time>2026-04-29T09:49:38.208Z</time></trkpt><trkpt lat="45.4826709" lon="11.7062049"><ele>22.0</ele><time>2026-04-29T09:49:40.209Z</time></trkpt><trkpt lat="45.4825614" lon="11.7062801"><ele>22.0</ele><time>2026-04-29T09:49:42.208Z</time></trkpt><trkpt lat="45.4825028" lon="11.7063163"><ele>22.0</ele><time>2026-04-29T09:49:43.208Z</time></trkpt><trkpt lat="45.4823948" lon="11.7064033"><ele>22.0</ele><time>2026-04-29T09:49:45.208Z</time></trkpt><trkpt lat="45.4822798" lon="11.7064622"><ele>22.0</ele><time>2026-04-29T09:49:47.208Z</time></trkpt><trkpt lat="45.4821728" lon="11.7065412"><ele>22.0</ele><time>2026-04-29T09:49:49.209Z</time></trkpt><trkpt lat="45.482071" lon="11.7065916"><ele>22.0</ele><time>2026-04-29T09:49:51.209Z</time></trkpt><trkpt lat="45.4819715" lon="11.7066365"><ele>22.0</ele><time>2026-04-29T09:49:53.208Z</time></trkpt><trkpt lat="45.4818917" lon="11.7067246"><ele>22.0</ele><time>2026-04-29T09:49:55.208Z</time></trkpt><trkpt lat="45.4818416" lon="11.706838"><ele>22.0</ele><time>2026-04-29T09:49:57.208Z</time></trkpt><trkpt lat="45.4818425" lon="11.7069731"><ele>22.0</ele><time>2026-04-29T09:49:59.208Z</time></trkpt><trkpt lat="45.4818861" lon="11.7071287"><ele>22.0</ele><time>2026-04-29T09:50:01.208Z</time></trkpt><trkpt lat="45.4819122" lon="11.7072126"><ele>22.0</ele><time>2026-04-29T09:50:02.208Z</time></trkpt><trkpt lat="45.4819377" lon="11.7072957"><ele>22.0</ele><time>2026-04-29T09:50:03.209Z</time></trkpt><trkpt lat="45.4819775" lon="11.7074559"><ele>22.0</ele><time>2026-04-29T09:50:05.208Z</time></trkpt><trkpt lat="45.4820338" lon="11.7076228"><ele>22.0</ele><time>2026-04-29T09:50:07.208Z</time></trkpt><trkpt lat="45.4820661" lon="11.7077054"><ele>22.0</ele><time>2026-04-29T09:50:08.208Z</time></trkpt><trkpt lat="45.4820971" lon="11.7077855"><ele>22.0</ele><time>2026-04-29T09:50:09.208Z</time></trkpt><trkpt lat="45.4821281" lon="11.7078703"><ele>22.0</ele><time>2026-04-29T09:50:10.208Z</time></trkpt><trkpt lat="45.4821574" lon="11.7079507"><ele>22.0</ele><time>2026-04-29T09:50:11.209Z</time></trkpt><trkpt lat="45.4822195" lon="11.708109"><ele>22.0</ele><time>2026-04-29T09:50:13.209Z</time></trkpt><trkpt lat="45.4822468" lon="11.70819"><ele>22.0</ele><time>2026-04-29T09:50:14.208Z</time></trkpt><trkpt lat="45.4822749" lon="11.7082724"><ele>22.0</ele><time>2026-04-29T09:50:15.208Z</time></trkpt><trkpt lat="45.482328" lon="11.7084385"><ele>22.0</ele><time>2026-04-29T09:50:17.208Z</time></trkpt><trkpt lat="45.4823524" lon="11.7085215"><ele>22.0</ele><time>2026-04-29T09:50:18.209Z</time></trkpt><trkpt lat="45.4823767" lon="11.708606"><ele>22.0</ele><time>2026-04-29T09:50:19.208Z</time></trkpt><trkpt lat="45.4824146" lon="11.7087784"><ele>22.0</ele><time>2026-04-29T09:50:21.208Z</time></trkpt><trkpt lat="45.4824287" lon="11.7088667"><ele>22.0</ele><time>2026-04-29T09:50:22.208Z</time></trkpt><trkpt lat="45.4824436" lon="11.7089583"><ele>22.0</ele><time>2026-04-29T09:50:23.209Z</time></trkpt><trkpt lat="45.4824841" lon="11.7091177"><ele>22.0</ele><time>2026-04-29T09:50:25.208Z</time></trkpt><trkpt lat="45.4825178" lon="11.7092748"><ele>22.0</ele><time>2026-04-29T09:50:27.208Z</time></trkpt><trkpt lat="45.4825523" lon="11.7094275"><ele>22.200000000000003</ele><time>2026-04-29T09:50:29.208Z</time></trkpt><trkpt lat="45.4825903" lon="11.7095801"><ele>22.4</ele><time>2026-04-29T09:50:31.208Z</time></trkpt><trkpt lat="45.4826227" lon="11.7097466"><ele>22.6</ele><time>2026-04-29T09:50:33.208Z</time></trkpt><trkpt lat="45.4826531" lon="11.709885"><ele>22.799999999999997</ele><time>2026-04-29T09:50:35.208Z</time></trkpt><trkpt lat="45.4826817" lon="11.71002"><ele>23.0</ele><time>2026-04-29T09:50:37.208Z</time></trkpt><trkpt lat="45.4826991" lon="11.7101584"><ele>22.799999999999997</ele><time>2026-04-29T09:50:39.208Z</time></trkpt><trkpt lat="45.4827355" lon="11.7102842"><ele>22.6</ele><time>2026-04-29T09:50:41.207Z</time></trkpt><trkpt lat="45.4827679" lon="11.7104105"><ele>22.4</ele><time>2026-04-29T09:50:43.207Z</time></trkpt><trkpt lat="45.4827853" lon="11.7105198"><ele>22.200000000000003</ele><time>2026-04-29T09:50:45.208Z</time></trkpt><trkpt lat="45.482813" lon="11.7106522"><ele>22.0</ele><time>2026-04-29T09:50:47.207Z</time></trkpt><trkpt lat="45.4828431" lon="11.7107798"><ele>22.0</ele><time>2026-04-29T09:50:49.207Z</time></trkpt><trkpt lat="45.4828777" lon="11.7109108"><ele>22.0</ele><time>2026-04-29T09:50:51.207Z</time></trkpt><trkpt lat="45.4829129" lon="11.7110263"><ele>22.0</ele><time>2026-04-29T09:50:53.207Z</time></trkpt><trkpt lat="45.4829397" lon="11.7111362"><ele>22.0</ele><time>2026-04-29T09:50:55.207Z</time></trkpt><trkpt lat="45.4829369" lon="11.7112281"><ele>22.0</ele><time>2026-04-29T09:50:57.207Z</time></trkpt><trkpt lat="45.4829731" lon="11.7113229"><ele>22.0</ele><time>2026-04-29T09:51:00.208Z</time></trkpt><trkpt lat="45.483032" lon="11.711371"><ele>22.0</ele><time>2026-04-29T09:51:02.207Z</time></trkpt><trkpt lat="45.4830832" lon="11.7114596"><ele>22.0</ele><time>2026-04-29T09:51:05.207Z</time></trkpt><trkpt lat="45.4830628" lon="11.7115821"><ele>22.0</ele><time>2026-04-29T09:51:08.207Z</time></trkpt><trkpt lat="45.483096" lon="11.7116868"><ele>22.0</ele><time>2026-04-29T09:51:10.207Z</time></trkpt><trkpt lat="45.4831277" lon="11.7118048"><ele>22.0</ele><time>2026-04-29T09:51:12.208Z</time></trkpt><trkpt lat="45.4831512" lon="11.7119221"><ele>22.0</ele><time>2026-04-29T09:51:14.207Z</time></trkpt><trkpt lat="45.4831861" lon="11.7120383"><ele>22.0</ele><time>2026-04-29T09:51:16.208Z</time></trkpt><trkpt lat="45.4832212" lon="11.7121475"><ele>22.0</ele><time>2026-04-29T09:51:18.207Z</time></trkpt><trkpt lat="45.4832484" lon="11.7122552"><ele>22.0</ele><time>2026-04-29T09:51:20.207Z</time></trkpt><trkpt lat="45.4832765" lon="11.7123627"><ele>22.0</ele><time>2026-04-29T09:51:22.208Z</time></trkpt><trkpt lat="45.4833035" lon="11.7124697"><ele>22.0</ele><time>2026-04-29T09:51:24.207Z</time></trkpt><trkpt lat="45.4833258" lon="11.7125829"><ele>22.0</ele><time>2026-04-29T09:51:26.207Z</time></trkpt><trkpt lat="45.4833516" lon="11.7126817"><ele>22.0</ele><time>2026-04-29T09:51:28.208Z</time></trkpt><trkpt lat="45.4833759" lon="11.7127822"><ele>22.0</ele><time>2026-04-29T09:51:30.207Z</time></trkpt><trkpt lat="45.4833959" lon="11.7128913"><ele>22.0</ele><time>2026-04-29T09:51:32.207Z</time></trkpt><trkpt lat="45.4834246" lon="11.7129945"><ele>22.0</ele><time>2026-04-29T09:51:34.207Z</time></trkpt><trkpt lat="45.4834506" lon="11.7130915"><ele>22.0</ele><time>2026-04-29T09:51:36.208Z</time></trkpt><trkpt lat="45.4834819" lon="11.7131934"><ele>22.0</ele><time>2026-04-29T09:51:38.208Z</time></trkpt><trkpt lat="45.4835085" lon="11.7132991"><ele>22.0</ele><time>2026-04-29T09:51:40.208Z</time></trkpt><trkpt lat="45.4835307" lon="11.7134085"><ele>22.0</ele><time>2026-04-29T09:51:42.207Z</time></trkpt><trkpt lat="45.4835505" lon="11.7135153"><ele>22.0</ele><time>2026-04-29T09:51:44.207Z</time></trkpt><trkpt lat="45.4835807" lon="11.713614"><ele>22.0</ele><time>2026-04-29T09:51:46.207Z</time></trkpt><trkpt lat="45.4836121" lon="11.7137232"><ele>22.0</ele><time>2026-04-29T09:51:48.207Z</time></trkpt><trkpt lat="45.4836396" lon="11.7138193"><ele>22.0</ele><time>2026-04-29T09:51:50.208Z</time></trkpt><trkpt lat="45.4836662" lon="11.713915"><ele>22.0</ele><time>2026-04-29T09:51:52.208Z</time></trkpt><trkpt lat="45.4836936" lon="11.7140215"><ele>22.0</ele><time>2026-04-29T09:51:54.208Z</time></trkpt><trkpt lat="45.4837163" lon="11.714127"><ele>22.0</ele><time>2026-04-29T09:51:56.207Z</time></trkpt><trkpt lat="45.4837414" lon="11.7142368"><ele>22.0</ele><time>2026-04-29T09:51:58.207Z</time></trkpt><trkpt lat="45.4837751" lon="11.7143427"><ele>22.0</ele><time>2026-04-29T09:52:00.208Z</time></trkpt><trkpt lat="45.4838066" lon="11.7144511"><ele>22.0</ele><time>2026-04-29T09:52:02.207Z</time></trkpt><trkpt lat="45.4838295" lon="11.7145558"><ele>22.166666666666664</ele><time>2026-04-29T09:52:04.207Z</time></trkpt><trkpt lat="45.4838584" lon="11.7146631"><ele>22.333333333333332</ele><time>2026-04-29T09:52:06.207Z</time></trkpt><trkpt lat="45.4838922" lon="11.7147732"><ele>22.5</ele><time>2026-04-29T09:52:08.207Z</time></trkpt><trkpt lat="45.4839153" lon="11.7148783"><ele>22.666666666666668</ele><time>2026-04-29T09:52:10.207Z</time></trkpt><trkpt lat="45.4839426" lon="11.7149795"><ele>22.833333333333336</ele><time>2026-04-29T09:52:12.207Z</time></trkpt><trkpt lat="45.483972" lon="11.7150687"><ele>23.0</ele><time>2026-04-29T09:52:14.207Z</time></trkpt><trkpt lat="45.4840083" lon="11.7151897"><ele>23.333333333333336</ele><time>2026-04-29T09:52:17.207Z</time></trkpt><trkpt lat="45.4840402" lon="11.7152842"><ele>23.666666666666668</ele><time>2026-04-29T09:52:19.207Z</time></trkpt><trkpt lat="45.484075" lon="11.7153887"><ele>24.0</ele><time>2026-04-29T09:52:21.207Z</time></trkpt><trkpt lat="45.4841108" lon="11.7154928"><ele>24.333333333333336</ele><time>2026-04-29T09:52:23.207Z</time></trkpt><trkpt lat="45.4841406" lon="11.7155864"><ele>24.666666666666668</ele><time>2026-04-29T09:52:25.207Z</time></trkpt><trkpt lat="45.4841699" lon="11.7156738"><ele>25.0</ele><time>2026-04-29T09:52:27.207Z</time></trkpt><trkpt lat="45.484202" lon="11.7157748"><ele>25.0</ele><time>2026-04-29T09:52:29.207Z</time></trkpt><trkpt lat="45.4842437" lon="11.7158811"><ele>25.0</ele><time>2026-04-29T09:52:31.207Z</time></trkpt><trkpt lat="45.4842816" lon="11.7159919"><ele>25.0</ele><time>2026-04-29T09:52:33.207Z</time></trkpt><trkpt lat="45.4843292" lon="11.7161107"><ele>25.0</ele><time>2026-04-29T09:52:35.207Z</time></trkpt><trkpt lat="45.4843694" lon="11.716226"><ele>25.0</ele><time>2026-04-29T09:52:37.207Z</time></trkpt><trkpt lat="45.4844073" lon="11.716349"><ele>24.833333333333336</ele><time>2026-04-29T09:52:39.207Z</time></trkpt><trkpt lat="45.4844725" lon="11.7164033"><ele>24.666666666666668</ele><time>2026-04-29T09:52:42.208Z</time></trkpt><trkpt lat="45.4844899" lon="11.7165166"><ele>24.5</ele><time>2026-04-29T09:52:45.207Z</time></trkpt><trkpt lat="45.4844782" lon="11.7166125"><ele>24.333333333333336</ele><time>2026-04-29T09:52:47.208Z</time></trkpt><trkpt lat="45.4845065" lon="11.7167115"><ele>24.166666666666668</ele><time>2026-04-29T09:52:49.208Z</time></trkpt><trkpt lat="45.4845569" lon="11.7168277"><ele>24.0</ele><time>2026-04-29T09:52:51.207Z</time></trkpt><trkpt lat="45.4846102" lon="11.7169756"><ele>23.833333333333332</ele><time>2026-04-29T09:52:53.208Z</time></trkpt><trkpt lat="45.4846353" lon="11.7170626"><ele>23.666666666666668</ele><time>2026-04-29T09:52:54.207Z</time></trkpt><trkpt lat="45.4846708" lon="11.7172396"><ele>23.5</ele><time>2026-04-29T09:52:56.207Z</time></trkpt><trkpt lat="45.484681" lon="11.7173381"><ele>23.333333333333336</ele><time>2026-04-29T09:52:57.207Z</time></trkpt><trkpt lat="45.4846859" lon="11.7174386"><ele>23.166666666666668</ele><time>2026-04-29T09:52:58.207Z</time></trkpt><trkpt lat="45.4846951" lon="11.7175488"><ele>23.0</ele><time>2026-04-29T09:52:59.207Z</time></trkpt><trkpt lat="45.4847024" lon="11.7176585"><ele>23.0</ele><time>2026-04-29T09:53:00.208Z</time></trkpt><trkpt lat="45.484711" lon="11.7177788"><ele>23.0</ele><time>2026-04-29T09:53:01.207Z</time></trkpt><trkpt lat="45.4847158" lon="11.7179067"><ele>23.0</ele><time>2026-04-29T09:53:02.207Z</time></trkpt><trkpt lat="45.4847218" lon="11.7180289"><ele>23.0</ele><time>2026-04-29T09:53:03.207Z</time></trkpt><trkpt lat="45.4847317" lon="11.7181549"><ele>23.0</ele><time>2026-04-29T09:53:04.208Z</time></trkpt><trkpt lat="45.4847382" lon="11.7182863"><ele>23.0</ele><time>2026-04-29T09:53:05.207Z</time></trkpt><trkpt lat="45.4847509" lon="11.7184132"><ele>23.0</ele><time>2026-04-29T09:53:06.208Z</time></trkpt><trkpt lat="45.4847579" lon="11.7185359"><ele>23.0</ele><time>2026-04-29T09:53:07.207Z</time></trkpt><trkpt lat="45.4847628" lon="11.7186568"><ele>23.0</ele><time>2026-04-29T09:53:08.207Z</time></trkpt><trkpt lat="45.484772" lon="11.7187776"><ele>23.0</ele><time>2026-04-29T09:53:09.208Z</time></trkpt><trkpt lat="45.4847775" lon="11.7189019"><ele>23.0</ele><time>2026-04-29T09:53:10.207Z</time></trkpt><trkpt lat="45.4847782" lon="11.7190259"><ele>23.0</ele><time>2026-04-29T09:53:11.207Z</time></trkpt><trkpt lat="45.4847831" lon="11.7191542"><ele>22.666666666666668</ele><time>2026-04-29T09:53:12.208Z</time></trkpt><trkpt lat="45.4847871" lon="11.7192782"><ele>22.333333333333336</ele><time>2026-04-29T09:53:13.207Z</time></trkpt><trkpt lat="45.4847922" lon="11.7193971"><ele>22.0</ele><time>2026-04-29T09:53:14.208Z</time></trkpt><trkpt lat="45.484798" lon="11.7195195"><ele>21.666666666666668</ele><time>2026-04-29T09:53:15.207Z</time></trkpt><trkpt lat="45.4848058" lon="11.7196338"><ele>21.333333333333332</ele><time>2026-04-29T09:53:16.207Z</time></trkpt><trkpt lat="45.4848076" lon="11.7197413"><ele>21.0</ele><time>2026-04-29T09:53:17.207Z</time></trkpt><trkpt lat="45.4848075" lon="11.7198452"><ele>21.0</ele><time>2026-04-29T09:53:18.207Z</time></trkpt><trkpt lat="45.4848164" lon="11.7199434"><ele>21.0</ele><time>2026-04-29T09:53:19.207Z</time></trkpt><trkpt lat="45.4848263" lon="11.720041"><ele>21.0</ele><time>2026-04-29T09:53:20.208Z</time></trkpt><trkpt lat="45.4848362" lon="11.7201344"><ele>21.0</ele><time>2026-04-29T09:53:21.207Z</time></trkpt><trkpt lat="45.4848722" lon="11.7203034"><ele>21.0</ele><time>2026-04-29T09:53:23.207Z</time></trkpt><trkpt lat="45.4848949" lon="11.7204607"><ele>21.0</ele><time>2026-04-29T09:53:25.207Z</time></trkpt><trkpt lat="45.4849357" lon="11.720623"><ele>21.0</ele><time>2026-04-29T09:53:27.207Z</time></trkpt><trkpt lat="45.4849784" lon="11.720788"><ele>21.0</ele><time>2026-04-29T09:53:29.207Z</time></trkpt><trkpt lat="45.485009" lon="11.7209451"><ele>21.0</ele><time>2026-04-29T09:53:31.208Z</time></trkpt><trkpt lat="45.4850468" lon="11.7211071"><ele>21.0</ele><time>2026-04-29T09:53:33.207Z</time></trkpt><trkpt lat="45.485074" lon="11.7212662"><ele>21.0</ele><time>2026-04-29T09:53:35.207Z</time></trkpt><trkpt lat="45.4851164" lon="11.7214159"><ele>21.0</ele><time>2026-04-29T09:53:37.208Z</time></trkpt><trkpt lat="45.4851457" lon="11.7215751"><ele>21.0</ele><time>2026-04-29T09:53:39.208Z</time></trkpt><trkpt lat="45.485184" lon="11.7217376"><ele>21.0</ele><time>2026-04-29T09:53:41.207Z</time></trkpt><trkpt lat="45.4852109" lon="11.7218955"><ele>21.0</ele><time>2026-04-29T09:53:43.208Z</time></trkpt><trkpt lat="45.4852466" lon="11.7220411"><ele>21.0</ele><time>2026-04-29T09:53:45.207Z</time></trkpt><trkpt lat="45.4852865" lon="11.7221845"><ele>21.0</ele><time>2026-04-29T09:53:47.207Z</time></trkpt><trkpt lat="45.4853247" lon="11.7223357"><ele>21.0</ele><time>2026-04-29T09:53:49.208Z</time></trkpt><trkpt lat="45.4853624" lon="11.7224901"><ele>21.0</ele><time>2026-04-29T09:53:51.207Z</time></trkpt><trkpt lat="45.485393" lon="11.7226373"><ele>20.8</ele><time>2026-04-29T09:53:53.207Z</time></trkpt><trkpt lat="45.485428" lon="11.7227809"><ele>20.6</ele><time>2026-04-29T09:53:55.207Z</time></trkpt><trkpt lat="45.4854572" lon="11.72293"><ele>20.4</ele><time>2026-04-29T09:53:57.207Z</time></trkpt><trkpt lat="45.4854974" lon="11.7230837"><ele>20.2</ele><time>2026-04-29T09:53:59.207Z</time></trkpt><trkpt lat="45.4855355" lon="11.7232423"><ele>20.0</ele><time>2026-04-29T09:54:01.207Z</time></trkpt><trkpt lat="45.4855696" lon="11.7234018"><ele>20.2</ele><time>2026-04-29T09:54:03.207Z</time></trkpt><trkpt lat="45.4856082" lon="11.723565"><ele>20.4</ele><time>2026-04-29T09:54:05.208Z</time></trkpt><trkpt lat="45.4856486" lon="11.7237184"><ele>20.6</ele><time>2026-04-29T09:54:07.208Z</time></trkpt><trkpt lat="45.4857219" lon="11.7238094"><ele>20.8</ele><time>2026-04-29T09:54:09.207Z</time></trkpt><trkpt lat="45.4858203" lon="11.7238142"><ele>21.0</ele><time>2026-04-29T09:54:11.207Z</time></trkpt><trkpt lat="45.4858704" lon="11.7239074"><ele>21.0</ele><time>2026-04-29T09:54:13.207Z</time></trkpt><trkpt lat="45.4858483" lon="11.7240332"><ele>21.0</ele><time>2026-04-29T09:54:15.207Z</time></trkpt><trkpt lat="45.4858015" lon="11.724142"><ele>21.0</ele><time>2026-04-29T09:54:17.207Z</time></trkpt><trkpt lat="45.4857944" lon="11.7242907"><ele>21.0</ele><time>2026-04-29T09:54:19.207Z</time></trkpt><trkpt lat="45.4858311" lon="11.7244536"><ele>21.0</ele><time>2026-04-29T09:54:21.207Z</time></trkpt><trkpt lat="45.4858652" lon="11.7246142"><ele>20.75</ele><time>2026-04-29T09:54:23.206Z</time></trkpt><trkpt lat="45.4858852" lon="11.7247867"><ele>20.5</ele><time>2026-04-29T09:54:25.206Z</time></trkpt><trkpt lat="45.4859136" lon="11.72495"><ele>20.25</ele><time>2026-04-29T09:54:27.206Z</time></trkpt><trkpt lat="45.485951" lon="11.7251135"><ele>20.0</ele><time>2026-04-29T09:54:29.206Z</time></trkpt><trkpt lat="45.4859871" lon="11.7252827"><ele>20.4</ele><time>2026-04-29T09:54:31.206Z</time></trkpt><trkpt lat="45.4860247" lon="11.7254398"><ele>20.8</ele><time>2026-04-29T09:54:33.206Z</time></trkpt><trkpt lat="45.4860573" lon="11.7255869"><ele>21.200000000000003</ele><time>2026-04-29T09:54:35.206Z</time></trkpt><trkpt lat="45.4860927" lon="11.7257226"><ele>21.6</ele><time>2026-04-29T09:54:37.206Z</time></trkpt><trkpt lat="45.4861232" lon="11.7258582"><ele>22.0</ele><time>2026-04-29T09:54:39.206Z</time></trkpt><trkpt lat="45.4861563" lon="11.7259881"><ele>22.0</ele><time>2026-04-29T09:54:41.206Z</time></trkpt><trkpt lat="45.4861756" lon="11.7261012"><ele>22.0</ele><time>2026-04-29T09:54:43.206Z</time></trkpt><trkpt lat="45.4861943" lon="11.726217"><ele>22.0</ele><time>2026-04-29T09:54:45.206Z</time></trkpt><trkpt lat="45.4862248" lon="11.7263184"><ele>22.0</ele><time>2026-04-29T09:54:47.206Z</time></trkpt><trkpt lat="45.4862567" lon="11.7264166"><ele>22.0</ele><time>2026-04-29T09:54:50.206Z</time></trkpt><trkpt lat="45.4861898" lon="11.7264662"><ele>22.0</ele><time>2026-04-29T09:55:00.206Z</time></trkpt><trkpt lat="45.4861398" lon="11.7265274"><ele>22.0</ele><time>2026-04-29T09:55:02.206Z</time></trkpt><trkpt lat="45.4860867" lon="11.726622"><ele>22.0</ele><time>2026-04-29T09:55:04.206Z</time></trkpt><trkpt lat="45.4860228" lon="11.7267079"><ele>22.0</ele><time>2026-04-29T09:55:06.206Z</time></trkpt><trkpt lat="45.4859509" lon="11.7267862"><ele>22.0</ele><time>2026-04-29T09:55:08.207Z</time></trkpt><trkpt lat="45.4858607" lon="11.7268278"><ele>22.0</ele><time>2026-04-29T09:55:10.206Z</time></trkpt><trkpt lat="45.4857998" lon="11.7269464"><ele>21.75</ele><time>2026-04-29T09:55:12.206Z</time></trkpt><trkpt lat="45.4857266" lon="11.7270648"><ele>21.5</ele><time>2026-04-29T09:55:14.206Z</time></trkpt><trkpt lat="45.4856496" lon="11.7271948"><ele>21.25</ele><time>2026-04-29T09:55:16.207Z</time></trkpt><trkpt lat="45.4855798" lon="11.727327"><ele>21.0</ele><time>2026-04-29T09:55:18.207Z</time></trkpt><trkpt lat="45.4855379" lon="11.7274651"><ele>21.0</ele><time>2026-04-29T09:55:20.207Z</time></trkpt><trkpt lat="45.485604" lon="11.7275995"><ele>21.0</ele><time>2026-04-29T09:55:22.206Z</time></trkpt><trkpt lat="45.485695" lon="11.7276762"><ele>21.0</ele><time>2026-04-29T09:55:24.206Z</time></trkpt><trkpt lat="45.4857934" lon="11.7277686"><ele>21.0</ele><time>2026-04-29T09:55:26.206Z</time></trkpt><trkpt lat="45.4858872" lon="11.7278776"><ele>21.0</ele><time>2026-04-29T09:55:28.206Z</time></trkpt><trkpt lat="45.4859851" lon="11.7279804"><ele>21.0</ele><time>2026-04-29T09:55:30.206Z</time></trkpt><trkpt lat="45.4860735" lon="11.7280666"><ele>21.0</ele><time>2026-04-29T09:55:32.206Z</time></trkpt><trkpt lat="45.4861553" lon="11.7281344"><ele>21.0</ele><time>2026-04-29T09:55:34.206Z</time></trkpt><trkpt lat="45.4862389" lon="11.728152"><ele>21.0</ele><time>2026-04-29T09:55:36.206Z</time></trkpt><trkpt lat="45.4863202" lon="11.7281685"><ele>21.0</ele><time>2026-04-29T09:55:38.206Z</time></trkpt><trkpt lat="45.4863783" lon="11.7282354"><ele>21.0</ele><time>2026-04-29T09:55:40.206Z</time></trkpt><trkpt lat="45.4864149" lon="11.7283444"><ele>21.0</ele><time>2026-04-29T09:55:43.206Z</time></trkpt><trkpt lat="45.4863583" lon="11.7284623"><ele>21.0</ele><time>2026-04-29T09:55:45.207Z</time></trkpt><trkpt lat="45.4863194" lon="11.7286008"><ele>21.0</ele><time>2026-04-29T09:55:47.206Z</time></trkpt><trkpt lat="45.4862852" lon="11.7287456"><ele>20.666666666666668</ele><time>2026-04-29T09:55:49.206Z</time></trkpt><trkpt lat="45.4862474" lon="11.7288762"><ele>20.333333333333332</ele><time>2026-04-29T09:55:51.206Z</time></trkpt><trkpt lat="45.4862223" lon="11.7289777"><ele>20.0</ele><time>2026-04-29T09:55:53.207Z</time></trkpt><trkpt lat="45.4861874" lon="11.729102"><ele>19.666666666666664</ele><time>2026-04-29T09:55:56.206Z</time></trkpt><trkpt lat="45.4861568" lon="11.729198"><ele>19.333333333333332</ele><time>2026-04-29T09:55:58.207Z</time></trkpt><trkpt lat="45.4861291" lon="11.7293195"><ele>19.0</ele><time>2026-04-29T09:56:00.206Z</time></trkpt><trkpt lat="45.4861143" lon="11.7294494"><ele>19.0</ele><time>2026-04-29T09:56:02.206Z</time></trkpt><trkpt lat="45.4861503" lon="11.729596"><ele>19.0</ele><time>2026-04-29T09:56:04.206Z</time></trkpt><trkpt lat="45.4862101" lon="11.7297209"><ele>19.0</ele><time>2026-04-29T09:56:06.206Z</time></trkpt><trkpt lat="45.4862764" lon="11.7298439"><ele>19.0</ele><time>2026-04-29T09:56:08.207Z</time></trkpt><trkpt lat="45.4863381" lon="11.7299712"><ele>19.0</ele><time>2026-04-29T09:56:10.206Z</time></trkpt><trkpt lat="45.4864071" lon="11.7300916"><ele>19.0</ele><time>2026-04-29T09:56:12.206Z</time></trkpt><trkpt lat="45.486472" lon="11.7302157"><ele>19.0</ele><time>2026-04-29T09:56:14.207Z</time></trkpt><trkpt lat="45.4865385" lon="11.7303418"><ele>19.0</ele><time>2026-04-29T09:56:16.206Z</time></trkpt><trkpt lat="45.4866072" lon="11.7304665"><ele>19.0</ele><time>2026-04-29T09:56:18.206Z</time></trkpt><trkpt lat="45.4866831" lon="11.730577"><ele>19.0</ele><time>2026-04-29T09:56:20.206Z</time></trkpt><trkpt lat="45.4867643" lon="11.7306809"><ele>19.0</ele><time>2026-04-29T09:56:22.207Z</time></trkpt><trkpt lat="45.4868509" lon="11.7307805"><ele>19.0</ele><time>2026-04-29T09:56:24.206Z</time></trkpt><trkpt lat="45.4869386" lon="11.730874"><ele>19.0</ele><time>2026-04-29T09:56:26.206Z</time></trkpt><trkpt lat="45.4870143" lon="11.7309596"><ele>19.0</ele><time>2026-04-29T09:56:28.207Z</time></trkpt><trkpt lat="45.4870902" lon="11.7310307"><ele>19.0</ele><time>2026-04-29T09:56:30.206Z</time></trkpt><trkpt lat="45.4871778" lon="11.7310306"><ele>19.333333333333332</ele><time>2026-04-29T09:56:32.206Z</time></trkpt><trkpt lat="45.4872515" lon="11.7310018"><ele>19.666666666666664</ele><time>2026-04-29T09:56:34.206Z</time></trkpt><trkpt lat="45.4873452" lon="11.7309473"><ele>20.0</ele><time>2026-04-29T09:56:36.206Z</time></trkpt><trkpt lat="45.4874357" lon="11.7308955"><ele>20.333333333333332</ele><time>2026-04-29T09:56:38.206Z</time></trkpt><trkpt lat="45.4875139" lon="11.7308832"><ele>20.666666666666668</ele><time>2026-04-29T09:56:41.206Z</time></trkpt><trkpt lat="45.4875527" lon="11.7309622"><ele>21.0</ele><time>2026-04-29T09:56:44.206Z</time></trkpt><trkpt lat="45.4876347" lon="11.7309633"><ele>21.0</ele><time>2026-04-29T09:56:47.206Z</time></trkpt><trkpt lat="45.4877216" lon="11.7309109"><ele>21.0</ele><time>2026-04-29T09:56:49.206Z</time></trkpt><trkpt lat="45.4878144" lon="11.730898"><ele>21.0</ele><time>2026-04-29T09:56:51.206Z</time></trkpt><trkpt lat="45.4878859" lon="11.7309174"><ele>21.0</ele><time>2026-04-29T09:56:53.206Z</time></trkpt><trkpt lat="45.4879517" lon="11.7309634"><ele>21.0</ele><time>2026-04-29T09:56:55.207Z</time></trkpt><trkpt lat="45.4880246" lon="11.7309769"><ele>21.0</ele><time>2026-04-29T09:56:57.206Z</time></trkpt><trkpt lat="45.4881289" lon="11.7309718"><ele>21.0</ele><time>2026-04-29T09:56:59.207Z</time></trkpt><trkpt lat="45.4882246" lon="11.7309295"><ele>21.0</ele><time>2026-04-29T09:57:01.207Z</time></trkpt><trkpt lat="45.4883344" lon="11.7309041"><ele>21.0</ele><time>2026-04-29T09:57:03.206Z</time></trkpt><trkpt lat="45.4884487" lon="11.7308716"><ele>21.0</ele><time>2026-04-29T09:57:05.206Z</time></trkpt><trkpt lat="45.4885565" lon="11.7308321"><ele>21.0</ele><time>2026-04-29T09:57:07.207Z</time></trkpt><trkpt lat="45.4886588" lon="11.7307854"><ele>21.0</ele><time>2026-04-29T09:57:09.206Z</time></trkpt><trkpt lat="45.4887566" lon="11.7307405"><ele>21.0</ele><time>2026-04-29T09:57:11.207Z</time></trkpt><trkpt lat="45.4888476" lon="11.7307006"><ele>21.0</ele><time>2026-04-29T09:57:13.207Z</time></trkpt><trkpt lat="45.4889421" lon="11.7307197"><ele>21.0</ele><time>2026-04-29T09:57:15.206Z</time></trkpt><trkpt lat="45.4890167" lon="11.7307953"><ele>21.0</ele><time>2026-04-29T09:57:17.206Z</time></trkpt><trkpt lat="45.4890939" lon="11.7308715"><ele>20.833333333333332</ele><time>2026-04-29T09:57:19.206Z</time></trkpt><trkpt lat="45.4891674" lon="11.7309396"><ele>20.666666666666668</ele><time>2026-04-29T09:57:21.206Z</time></trkpt><trkpt lat="45.4892745" lon="11.7310446"><ele>20.5</ele><time>2026-04-29T09:57:23.206Z</time></trkpt><trkpt lat="45.4893288" lon="11.7311027"><ele>20.333333333333336</ele><time>2026-04-29T09:57:24.206Z</time></trkpt><trkpt lat="45.4893858" lon="11.731159"><ele>20.166666666666668</ele><time>2026-04-29T09:57:25.206Z</time></trkpt><trkpt lat="45.4894399" lon="11.7312124"><ele>20.0</ele><time>2026-04-29T09:57:26.207Z</time></trkpt><trkpt lat="45.4894954" lon="11.7312631"><ele>20.0</ele><time>2026-04-29T09:57:27.207Z</time></trkpt><trkpt lat="45.4895522" lon="11.7313109"><ele>20.0</ele><time>2026-04-29T09:57:28.206Z</time></trkpt><trkpt lat="45.4896052" lon="11.7313662"><ele>20.0</ele><time>2026-04-29T09:57:29.206Z</time></trkpt><trkpt lat="45.4896587" lon="11.7314206"><ele>20.0</ele><time>2026-04-29T09:57:30.206Z</time></trkpt><trkpt lat="45.4897147" lon="11.7314698"><ele>20.0</ele><time>2026-04-29T09:57:31.206Z</time></trkpt><trkpt lat="45.4897692" lon="11.7315164"><ele>20.0</ele><time>2026-04-29T09:57:32.206Z</time></trkpt><trkpt lat="45.4898714" lon="11.731617"><ele>20.0</ele><time>2026-04-29T09:57:34.207Z</time></trkpt><trkpt lat="45.4899765" lon="11.731723"><ele>20.0</ele><time>2026-04-29T09:57:36.207Z</time></trkpt><trkpt lat="45.4900372" lon="11.7317755"><ele>20.0</ele><time>2026-04-29T09:57:37.206Z</time></trkpt><trkpt lat="45.490093" lon="11.7318289"><ele>20.0</ele><time>2026-04-29T09:57:38.206Z</time></trkpt><trkpt lat="45.4901971" lon="11.7319284"><ele>20.0</ele><time>2026-04-29T09:57:40.206Z</time></trkpt><trkpt lat="45.4902514" lon="11.7319831"><ele>19.8</ele><time>2026-04-29T09:57:41.206Z</time></trkpt><trkpt lat="45.4903534" lon="11.7320836"><ele>19.6</ele><time>2026-04-29T09:57:43.206Z</time></trkpt><trkpt lat="45.4904506" lon="11.7321773"><ele>19.4</ele><time>2026-04-29T09:57:45.206Z</time></trkpt><trkpt lat="45.4905358" lon="11.7322486"><ele>19.2</ele><time>2026-04-29T09:57:47.206Z</time></trkpt><trkpt lat="45.4906183" lon="11.7323394"><ele>19.0</ele><time>2026-04-29T09:57:49.207Z</time></trkpt><trkpt lat="45.4907038" lon="11.7324131"><ele>19.6</ele><time>2026-04-29T09:57:51.207Z</time></trkpt><trkpt lat="45.4907931" lon="11.7324948"><ele>20.2</ele><time>2026-04-29T09:57:53.207Z</time></trkpt><trkpt lat="45.4908906" lon="11.7325866"><ele>20.8</ele><time>2026-04-29T09:57:55.206Z</time></trkpt><trkpt lat="45.4909796" lon="11.7326762"><ele>21.400000000000002</ele><time>2026-04-29T09:57:57.206Z</time></trkpt><trkpt lat="45.4910683" lon="11.7327649"><ele>22.0</ele><time>2026-04-29T09:57:59.206Z</time></trkpt><trkpt lat="45.4911592" lon="11.7328593"><ele>22.0</ele><time>2026-04-29T09:58:01.206Z</time></trkpt><trkpt lat="45.4912556" lon="11.7329508"><ele>22.0</ele><time>2026-04-29T09:58:03.205Z</time></trkpt><trkpt lat="45.4913423" lon="11.7330368"><ele>22.0</ele><time>2026-04-29T09:58:05.206Z</time></trkpt><trkpt lat="45.4914302" lon="11.7331212"><ele>22.0</ele><time>2026-04-29T09:58:07.205Z</time></trkpt><trkpt lat="45.4915209" lon="11.7332002"><ele>22.0</ele><time>2026-04-29T09:58:09.205Z</time></trkpt><trkpt lat="45.4916082" lon="11.7332772"><ele>22.0</ele><time>2026-04-29T09:58:11.205Z</time></trkpt><trkpt lat="45.4916959" lon="11.7333509"><ele>22.0</ele><time>2026-04-29T09:58:13.206Z</time></trkpt><trkpt lat="45.491777" lon="11.7334423"><ele>22.0</ele><time>2026-04-29T09:58:15.205Z</time></trkpt><trkpt lat="45.4918612" lon="11.733533"><ele>22.0</ele><time>2026-04-29T09:58:17.205Z</time></trkpt><trkpt lat="45.4919511" lon="11.7336186"><ele>22.0</ele><time>2026-04-29T09:58:19.205Z</time></trkpt><trkpt lat="45.4920401" lon="11.733704"><ele>21.5</ele><time>2026-04-29T09:58:21.205Z</time></trkpt><trkpt lat="45.4921246" lon="11.7337851"><ele>21.0</ele><time>2026-04-29T09:58:23.205Z</time></trkpt><trkpt lat="45.4922142" lon="11.7338677"><ele>20.5</ele><time>2026-04-29T09:58:25.205Z</time></trkpt><trkpt lat="45.4923192" lon="11.7339656"><ele>20.0</ele><time>2026-04-29T09:58:27.206Z</time></trkpt><trkpt lat="45.4924138" lon="11.7340628"><ele>20.0</ele><time>2026-04-29T09:58:29.205Z</time></trkpt><trkpt lat="45.4925036" lon="11.7341471"><ele>20.0</ele><time>2026-04-29T09:58:31.206Z</time></trkpt><trkpt lat="45.492597" lon="11.7342382"><ele>20.0</ele><time>2026-04-29T09:58:33.205Z</time></trkpt><trkpt lat="45.4926938" lon="11.7343235"><ele>20.0</ele><time>2026-04-29T09:58:35.206Z</time></trkpt><trkpt lat="45.4927854" lon="11.7344168"><ele>20.0</ele><time>2026-04-29T09:58:37.206Z</time></trkpt><trkpt lat="45.4928724" lon="11.7344993"><ele>20.0</ele><time>2026-04-29T09:58:39.205Z</time></trkpt><trkpt lat="45.4929505" lon="11.7345781"><ele>20.0</ele><time>2026-04-29T09:58:41.205Z</time></trkpt><trkpt lat="45.4930362" lon="11.7346468"><ele>20.0</ele><time>2026-04-29T09:58:43.205Z</time></trkpt><trkpt lat="45.4931214" lon="11.7347359"><ele>20.0</ele><time>2026-04-29T09:58:45.205Z</time></trkpt><trkpt lat="45.4932054" lon="11.7348187"><ele>20.0</ele><time>2026-04-29T09:58:47.205Z</time></trkpt><trkpt lat="45.4933436" lon="11.7349525"><ele>20.0</ele><time>2026-04-29T09:58:50.205Z</time></trkpt><trkpt lat="45.4934442" lon="11.7350379"><ele>20.0</ele><time>2026-04-29T09:58:52.205Z</time></trkpt><trkpt lat="45.4935396" lon="11.735123"><ele>20.0</ele><time>2026-04-29T09:58:54.205Z</time></trkpt><trkpt lat="45.4936306" lon="11.7352079"><ele>20.0</ele><time>2026-04-29T09:58:56.205Z</time></trkpt><trkpt lat="45.4937222" lon="11.7352938"><ele>20.0</ele><time>2026-04-29T09:58:58.205Z</time></trkpt><trkpt lat="45.4938177" lon="11.7353939"><ele>20.2</ele><time>2026-04-29T09:59:00.205Z</time></trkpt><trkpt lat="45.4939183" lon="11.7354748"><ele>20.4</ele><time>2026-04-29T09:59:02.205Z</time></trkpt><trkpt lat="45.494014" lon="11.7355469"><ele>20.6</ele><time>2026-04-29T09:59:04.206Z</time></trkpt><trkpt lat="45.4940903" lon="11.7356331"><ele>20.8</ele><time>2026-04-29T09:59:06.205Z</time></trkpt><trkpt lat="45.4941606" lon="11.735696"><ele>21.0</ele><time>2026-04-29T09:59:08.206Z</time></trkpt><trkpt lat="45.4942412" lon="11.7357794"><ele>21.0</ele><time>2026-04-29T09:59:10.205Z</time></trkpt><trkpt lat="45.4943172" lon="11.73588"><ele>21.0</ele><time>2026-04-29T09:59:12.205Z</time></trkpt><trkpt lat="45.4944115" lon="11.7359703"><ele>21.0</ele><time>2026-04-29T09:59:14.206Z</time></trkpt><trkpt lat="45.4945139" lon="11.7360605"><ele>21.0</ele><time>2026-04-29T09:59:16.205Z</time></trkpt><trkpt lat="45.494569" lon="11.7361124"><ele>21.0</ele><time>2026-04-29T09:59:17.206Z</time></trkpt><trkpt lat="45.4946213" lon="11.7361701"><ele>20.571428571428573</ele><time>2026-04-29T09:59:18.206Z</time></trkpt><trkpt lat="45.4946756" lon="11.7362227"><ele>20.142857142857142</ele><time>2026-04-29T09:59:19.205Z</time></trkpt><trkpt lat="45.4947295" lon="11.7362718"><ele>19.714285714285715</ele><time>2026-04-29T09:59:20.205Z</time></trkpt><trkpt lat="45.4947849" lon="11.7363254"><ele>19.285714285714285</ele><time>2026-04-29T09:59:21.206Z</time></trkpt><trkpt lat="45.4948396" lon="11.7363801"><ele>18.857142857142858</ele><time>2026-04-29T09:59:22.205Z</time></trkpt><trkpt lat="45.4948939" lon="11.7364298"><ele>18.42857142857143</ele><time>2026-04-29T09:59:23.205Z</time></trkpt><trkpt lat="45.4949478" lon="11.7364823"><ele>18.0</ele><time>2026-04-29T09:59:24.205Z</time></trkpt><trkpt lat="45.4950028" lon="11.7365368"><ele>18.0</ele><time>2026-04-29T09:59:25.205Z</time></trkpt><trkpt lat="45.4950977" lon="11.7366345"><ele>18.0</ele><time>2026-04-29T09:59:27.206Z</time></trkpt><trkpt lat="45.4951981" lon="11.7367297"><ele>18.0</ele><time>2026-04-29T09:59:29.206Z</time></trkpt><trkpt lat="45.4952938" lon="11.7368286"><ele>18.0</ele><time>2026-04-29T09:59:31.206Z</time></trkpt><trkpt lat="45.4954019" lon="11.7369258"><ele>18.42857142857143</ele><time>2026-04-29T09:59:33.205Z</time></trkpt><trkpt lat="45.4954553" lon="11.7369791"><ele>18.857142857142858</ele><time>2026-04-29T09:59:34.205Z</time></trkpt><trkpt lat="45.4955107" lon="11.7370305"><ele>19.285714285714285</ele><time>2026-04-29T09:59:35.205Z</time></trkpt><trkpt lat="45.4955661" lon="11.7370816"><ele>19.714285714285715</ele><time>2026-04-29T09:59:36.205Z</time></trkpt><trkpt lat="45.4956227" lon="11.7371348"><ele>20.142857142857142</ele><time>2026-04-29T09:59:37.205Z</time></trkpt><trkpt lat="45.4956802" lon="11.737186"><ele>20.571428571428573</ele><time>2026-04-29T09:59:38.205Z</time></trkpt><trkpt lat="45.495736" lon="11.7372403"><ele>21.0</ele><time>2026-04-29T09:59:39.206Z</time></trkpt><trkpt lat="45.4957912" lon="11.7372934"><ele>21.0</ele><time>2026-04-29T09:59:40.206Z</time></trkpt><trkpt lat="45.4958493" lon="11.7373446"><ele>21.0</ele><time>2026-04-29T09:59:41.205Z</time></trkpt><trkpt lat="45.495905" lon="11.7374041"><ele>21.0</ele><time>2026-04-29T09:59:42.205Z</time></trkpt><trkpt lat="45.4960151" lon="11.7375042"><ele>21.0</ele><time>2026-04-29T09:59:44.205Z</time></trkpt><trkpt lat="45.4960714" lon="11.7375581"><ele>21.0</ele><time>2026-04-29T09:59:45.205Z</time></trkpt><trkpt lat="45.4961259" lon="11.7376155"><ele>21.0</ele><time>2026-04-29T09:59:46.205Z</time></trkpt><trkpt lat="45.4962308" lon="11.7377117"><ele>21.0</ele><time>2026-04-29T09:59:48.205Z</time></trkpt><trkpt lat="45.4962846" lon="11.7377638"><ele>21.0</ele><time>2026-04-29T09:59:49.205Z</time></trkpt><trkpt lat="45.4963382" lon="11.7378169"><ele>21.0</ele><time>2026-04-29T09:59:50.206Z</time></trkpt><trkpt lat="45.4963916" lon="11.7378695"><ele>21.0</ele><time>2026-04-29T09:59:51.206Z</time></trkpt><trkpt lat="45.4964415" lon="11.7379256"><ele>21.0</ele><time>2026-04-29T09:59:52.206Z</time></trkpt><trkpt lat="45.4964956" lon="11.7379805"><ele>21.0</ele><time>2026-04-29T09:59:53.205Z</time></trkpt><trkpt lat="45.4965519" lon="11.7380301"><ele>21.0</ele><time>2026-04-29T09:59:54.205Z</time></trkpt><trkpt lat="45.4966113" lon="11.7380843"><ele>21.0</ele><time>2026-04-29T09:59:55.205Z</time></trkpt><trkpt lat="45.4966671" lon="11.7381376"><ele>21.0</ele><time>2026-04-29T09:59:56.205Z</time></trkpt><trkpt lat="45.4967205" lon="11.7381889"><ele>21.0</ele><time>2026-04-29T09:59:57.205Z</time></trkpt><trkpt lat="45.4967819" lon="11.7382379"><ele>21.0</ele><time>2026-04-29T09:59:58.205Z</time></trkpt><trkpt lat="45.4968387" lon="11.7382946"><ele>21.0</ele><time>2026-04-29T09:59:59.206Z</time></trkpt><trkpt lat="45.4968944" lon="11.7383531"><ele>21.0</ele><time>2026-04-29T10:00:00.205Z</time></trkpt><trkpt lat="45.4969486" lon="11.7384049"><ele>21.0</ele><time>2026-04-29T10:00:01.205Z</time></trkpt><trkpt lat="45.4970021" lon="11.7384547"><ele>21.0</ele><time>2026-04-29T10:00:02.205Z</time></trkpt><trkpt lat="45.4970567" lon="11.7385114"><ele>21.0</ele><time>2026-04-29T10:00:03.205Z</time></trkpt><trkpt lat="45.497115" lon="11.738566"><ele>21.0</ele><time>2026-04-29T10:00:04.205Z</time></trkpt><trkpt lat="45.4971702" lon="11.7386243"><ele>21.0</ele><time>2026-04-29T10:00:05.205Z</time></trkpt><trkpt lat="45.4972298" lon="11.7386792"><ele>21.0</ele><time>2026-04-29T10:00:06.205Z</time></trkpt><trkpt lat="45.4972829" lon="11.7387317"><ele>21.0</ele><time>2026-04-29T10:00:07.206Z</time></trkpt><trkpt lat="45.4973425" lon="11.7387903"><ele>21.0</ele><time>2026-04-29T10:00:08.206Z</time></trkpt><trkpt lat="45.497403" lon="11.7388481"><ele>20.714285714285715</ele><time>2026-04-29T10:00:09.205Z</time></trkpt><trkpt lat="45.4974613" lon="11.7389034"><ele>20.42857142857143</ele><time>2026-04-29T10:00:10.205Z</time></trkpt><trkpt lat="45.4975168" lon="11.7389534"><ele>20.142857142857142</ele><time>2026-04-29T10:00:11.206Z</time></trkpt><trkpt lat="45.4975725" lon="11.7390082"><ele>19.857142857142858</ele><time>2026-04-29T10:00:12.205Z</time></trkpt><trkpt lat="45.4976338" lon="11.7390635"><ele>19.571428571428573</ele><time>2026-04-29T10:00:13.205Z</time></trkpt><trkpt lat="45.4976886" lon="11.7391132"><ele>19.285714285714285</ele><time>2026-04-29T10:00:14.206Z</time></trkpt><trkpt lat="45.4977458" lon="11.7391655"><ele>19.0</ele><time>2026-04-29T10:00:15.205Z</time></trkpt><trkpt lat="45.4977994" lon="11.7392199"><ele>19.0</ele><time>2026-04-29T10:00:16.206Z</time></trkpt><trkpt lat="45.4978506" lon="11.7392753"><ele>19.0</ele><time>2026-04-29T10:00:17.206Z</time></trkpt><trkpt lat="45.4979016" lon="11.7393286"><ele>19.0</ele><time>2026-04-29T10:00:18.206Z</time></trkpt><trkpt lat="45.498012" lon="11.7394339"><ele>19.0</ele><time>2026-04-29T10:00:20.206Z</time></trkpt><trkpt lat="45.4980702" lon="11.7394819"><ele>19.0</ele><time>2026-04-29T10:00:21.206Z</time></trkpt><trkpt lat="45.4981239" lon="11.739535"><ele>19.0</ele><time>2026-04-29T10:00:22.205Z</time></trkpt><trkpt lat="45.4981767" lon="11.7395876"><ele>18.75</ele><time>2026-04-29T10:00:23.205Z</time></trkpt><trkpt lat="45.4982713" lon="11.7396777"><ele>18.5</ele><time>2026-04-29T10:00:25.205Z</time></trkpt><trkpt lat="45.4983636" lon="11.7397693"><ele>18.25</ele><time>2026-04-29T10:00:27.205Z</time></trkpt><trkpt lat="45.4984605" lon="11.7398714"><ele>18.0</ele><time>2026-04-29T10:00:29.205Z</time></trkpt><trkpt lat="45.4985619" lon="11.7399735"><ele>18.0</ele><time>2026-04-29T10:00:31.206Z</time></trkpt><trkpt lat="45.4986383" lon="11.7400519"><ele>18.0</ele><time>2026-04-29T10:00:33.205Z</time></trkpt><trkpt lat="45.4987374" lon="11.7401333"><ele>18.0</ele><time>2026-04-29T10:00:35.206Z</time></trkpt><trkpt lat="45.4987993" lon="11.740189"><ele>18.0</ele><time>2026-04-29T10:00:36.205Z</time></trkpt><trkpt lat="45.4988956" lon="11.7402822"><ele>18.0</ele><time>2026-04-29T10:00:38.205Z</time></trkpt><trkpt lat="45.4989902" lon="11.7403769"><ele>18.2</ele><time>2026-04-29T10:00:40.206Z</time></trkpt><trkpt lat="45.4990929" lon="11.740477"><ele>18.4</ele><time>2026-04-29T10:00:42.206Z</time></trkpt><trkpt lat="45.4991837" lon="11.7405644"><ele>18.599999999999998</ele><time>2026-04-29T10:00:44.206Z</time></trkpt><trkpt lat="45.4992435" lon="11.7406286"><ele>18.8</ele><time>2026-04-29T10:00:45.205Z</time></trkpt><trkpt lat="45.4993044" lon="11.7406896"><ele>19.0</ele><time>2026-04-29T10:00:46.205Z</time></trkpt><trkpt lat="45.4994072" lon="11.7407792"><ele>19.0</ele><time>2026-04-29T10:00:48.206Z</time></trkpt><trkpt lat="45.4994658" lon="11.7408332"><ele>19.0</ele><time>2026-04-29T10:00:49.206Z</time></trkpt><trkpt lat="45.4995311" lon="11.740896"><ele>19.0</ele><time>2026-04-29T10:00:50.205Z</time></trkpt><trkpt lat="45.4995854" lon="11.7409476"><ele>19.0</ele><time>2026-04-29T10:00:51.206Z</time></trkpt><trkpt lat="45.4996465" lon="11.7410079"><ele>19.0</ele><time>2026-04-29T10:00:52.205Z</time></trkpt><trkpt lat="45.4997022" lon="11.7410606"><ele>19.0</ele><time>2026-04-29T10:00:53.205Z</time></trkpt><trkpt lat="45.4998088" lon="11.7411605"><ele>19.4</ele><time>2026-04-29T10:00:55.205Z</time></trkpt><trkpt lat="45.499911" lon="11.7412623"><ele>19.799999999999997</ele><time>2026-04-29T10:00:57.206Z</time></trkpt><trkpt lat="45.5000103" lon="11.7413659"><ele>20.200000000000003</ele><time>2026-04-29T10:00:59.206Z</time></trkpt><trkpt lat="45.5001171" lon="11.741463"><ele>20.6</ele><time>2026-04-29T10:01:01.205Z</time></trkpt><trkpt lat="45.5001802" lon="11.7415155"><ele>21.0</ele><time>2026-04-29T10:01:02.205Z</time></trkpt><trkpt lat="45.5002416" lon="11.741573"><ele>21.0</ele><time>2026-04-29T10:01:03.205Z</time></trkpt><trkpt lat="45.5003018" lon="11.7416251"><ele>21.0</ele><time>2026-04-29T10:01:04.205Z</time></trkpt><trkpt lat="45.5003572" lon="11.741682"><ele>21.0</ele><time>2026-04-29T10:01:05.205Z</time></trkpt><trkpt lat="45.5004119" lon="11.7417346"><ele>21.0</ele><time>2026-04-29T10:01:06.206Z</time></trkpt><trkpt lat="45.5005112" lon="11.7418395"><ele>21.0</ele><time>2026-04-29T10:01:08.205Z</time></trkpt><trkpt lat="45.5006075" lon="11.741944"><ele>21.0</ele><time>2026-04-29T10:01:10.205Z</time></trkpt><trkpt lat="45.5006929" lon="11.7420349"><ele>21.25</ele><time>2026-04-29T10:01:12.205Z</time></trkpt><trkpt lat="45.5007991" lon="11.7421308"><ele>21.5</ele><time>2026-04-29T10:01:14.205Z</time></trkpt><trkpt lat="45.5008964" lon="11.7422237"><ele>21.75</ele><time>2026-04-29T10:01:16.206Z</time></trkpt><trkpt lat="45.5009939" lon="11.7423208"><ele>22.0</ele><time>2026-04-29T10:01:18.206Z</time></trkpt><trkpt lat="45.5010852" lon="11.7424187"><ele>22.0</ele><time>2026-04-29T10:01:20.206Z</time></trkpt><trkpt lat="45.5011796" lon="11.7424998"><ele>22.0</ele><time>2026-04-29T10:01:22.206Z</time></trkpt><trkpt lat="45.5012742" lon="11.7425923"><ele>22.0</ele><time>2026-04-29T10:01:24.206Z</time></trkpt><trkpt lat="45.5013303" lon="11.7426392"><ele>22.0</ele><time>2026-04-29T10:01:25.205Z</time></trkpt><trkpt lat="45.5014406" lon="11.7427105"><ele>22.0</ele><time>2026-04-29T10:01:27.205Z</time></trkpt><trkpt lat="45.5015323" lon="11.7428044"><ele>22.200000000000003</ele><time>2026-04-29T10:01:29.206Z</time></trkpt><trkpt lat="45.5016153" lon="11.7428782"><ele>22.4</ele><time>2026-04-29T10:01:31.205Z</time></trkpt><trkpt lat="45.5016919" lon="11.7429571"><ele>22.6</ele><time>2026-04-29T10:01:33.205Z</time></trkpt><trkpt lat="45.5017629" lon="11.7430199"><ele>22.799999999999997</ele><time>2026-04-29T10:01:35.206Z</time></trkpt><trkpt lat="45.5018651" lon="11.7429995"><ele>23.0</ele><time>2026-04-29T10:01:37.205Z</time></trkpt><trkpt lat="45.5019535" lon="11.7429685"><ele>23.0</ele><time>2026-04-29T10:01:39.206Z</time></trkpt><trkpt lat="45.5020287" lon="11.7429449"><ele>23.0</ele><time>2026-04-29T10:01:41.205Z</time></trkpt><trkpt lat="45.5021058" lon="11.7429343"><ele>23.0</ele><time>2026-04-29T10:01:43.206Z</time></trkpt><trkpt lat="45.5021845" lon="11.7430032"><ele>23.0</ele><time>2026-04-29T10:01:45.205Z</time></trkpt><trkpt lat="45.502179" lon="11.7431198"><ele>23.0</ele><time>2026-04-29T10:01:47.204Z</time></trkpt><trkpt lat="45.5021322" lon="11.7432102"><ele>23.0</ele><time>2026-04-29T10:01:49.204Z</time></trkpt><trkpt lat="45.5021043" lon="11.74332"><ele>23.0</ele><time>2026-04-29T10:01:51.205Z</time></trkpt><trkpt lat="45.5021444" lon="11.7434188"><ele>23.0</ele><time>2026-04-29T10:01:53.205Z</time></trkpt><trkpt lat="45.5022324" lon="11.7434922"><ele>23.0</ele><time>2026-04-29T10:01:55.204Z</time></trkpt><trkpt lat="45.502325" lon="11.7435665"><ele>23.0</ele><time>2026-04-29T10:01:57.204Z</time></trkpt><trkpt lat="45.5024104" lon="11.7436532"><ele>23.0</ele><time>2026-04-29T10:01:59.205Z</time></trkpt><trkpt lat="45.5025055" lon="11.7437444"><ele>23.0</ele><time>2026-04-29T10:02:01.205Z</time></trkpt><trkpt lat="45.5026016" lon="11.7438385"><ele>23.0</ele><time>2026-04-29T10:02:03.204Z</time></trkpt><trkpt lat="45.5026989" lon="11.7439331"><ele>23.0</ele><time>2026-04-29T10:02:05.205Z</time></trkpt><trkpt lat="45.5027913" lon="11.7440278"><ele>23.0</ele><time>2026-04-29T10:02:07.205Z</time></trkpt><trkpt lat="45.5028977" lon="11.744131"><ele>22.714285714285715</ele><time>2026-04-29T10:02:09.205Z</time></trkpt><trkpt lat="45.502954" lon="11.7441857"><ele>22.428571428571427</ele><time>2026-04-29T10:02:10.205Z</time></trkpt><trkpt lat="45.5030102" lon="11.7442356"><ele>22.142857142857142</ele><time>2026-04-29T10:02:11.204Z</time></trkpt><trkpt lat="45.5030676" lon="11.7442854"><ele>21.857142857142858</ele><time>2026-04-29T10:02:12.205Z</time></trkpt><trkpt lat="45.5031267" lon="11.7443421"><ele>21.57142857142857</ele><time>2026-04-29T10:02:13.205Z</time></trkpt><trkpt lat="45.5031822" lon="11.7443962"><ele>21.285714285714285</ele><time>2026-04-29T10:02:14.204Z</time></trkpt><trkpt lat="45.503241" lon="11.7444533"><ele>21.0</ele><time>2026-04-29T10:02:15.205Z</time></trkpt><trkpt lat="45.5032994" lon="11.7445062"><ele>21.0</ele><time>2026-04-29T10:02:16.204Z</time></trkpt><trkpt lat="45.5033552" lon="11.744561"><ele>21.0</ele><time>2026-04-29T10:02:17.204Z</time></trkpt><trkpt lat="45.503412" lon="11.744617"><ele>21.0</ele><time>2026-04-29T10:02:18.205Z</time></trkpt><trkpt lat="45.5034661" lon="11.7446641"><ele>21.0</ele><time>2026-04-29T10:02:19.204Z</time></trkpt><trkpt lat="45.5035182" lon="11.7447184"><ele>21.0</ele><time>2026-04-29T10:02:20.204Z</time></trkpt><trkpt lat="45.5035729" lon="11.744769"><ele>21.0</ele><time>2026-04-29T10:02:21.205Z</time></trkpt><trkpt lat="45.5036255" lon="11.7448197"><ele>21.0</ele><time>2026-04-29T10:02:22.204Z</time></trkpt><trkpt lat="45.50368" lon="11.7448746"><ele>21.0</ele><time>2026-04-29T10:02:23.204Z</time></trkpt><trkpt lat="45.5037275" lon="11.7449364"><ele>21.0</ele><time>2026-04-29T10:02:24.204Z</time></trkpt><trkpt lat="45.5037783" lon="11.7449978"><ele>21.0</ele><time>2026-04-29T10:02:25.204Z</time></trkpt><trkpt lat="45.5038694" lon="11.7451036"><ele>21.0</ele><time>2026-04-29T10:02:27.204Z</time></trkpt><trkpt lat="45.5039685" lon="11.7451992"><ele>21.0</ele><time>2026-04-29T10:02:29.205Z</time></trkpt><trkpt lat="45.504071" lon="11.7452802"><ele>21.4</ele><time>2026-04-29T10:02:31.204Z</time></trkpt><trkpt lat="45.5041837" lon="11.74536"><ele>21.8</ele><time>2026-04-29T10:02:33.204Z</time></trkpt><trkpt lat="45.5042519" lon="11.7454105"><ele>22.2</ele><time>2026-04-29T10:02:34.204Z</time></trkpt><trkpt lat="45.5043081" lon="11.7454665"><ele>22.599999999999998</ele><time>2026-04-29T10:02:35.204Z</time></trkpt><trkpt lat="45.5044099" lon="11.7455671"><ele>23.0</ele><time>2026-04-29T10:02:37.204Z</time></trkpt><trkpt lat="45.5044705" lon="11.745613"><ele>23.0</ele><time>2026-04-29T10:02:38.205Z</time></trkpt><trkpt lat="45.5045337" lon="11.7456666"><ele>23.0</ele><time>2026-04-29T10:02:39.205Z</time></trkpt><trkpt lat="45.5045965" lon="11.7457231"><ele>23.0</ele><time>2026-04-29T10:02:40.204Z</time></trkpt><trkpt lat="45.504654" lon="11.7457815"><ele>23.0</ele><time>2026-04-29T10:02:41.204Z</time></trkpt><trkpt lat="45.5047109" lon="11.7458386"><ele>23.0</ele><time>2026-04-29T10:02:42.204Z</time></trkpt><trkpt lat="45.5047617" lon="11.7458958"><ele>23.0</ele><time>2026-04-29T10:02:43.205Z</time></trkpt><trkpt lat="45.5048155" lon="11.7459498"><ele>23.0</ele><time>2026-04-29T10:02:44.204Z</time></trkpt><trkpt lat="45.504908" lon="11.7460441"><ele>23.0</ele><time>2026-04-29T10:02:46.205Z</time></trkpt><trkpt lat="45.5050047" lon="11.7461445"><ele>23.0</ele><time>2026-04-29T10:02:48.204Z</time></trkpt><trkpt lat="45.5051018" lon="11.7462421"><ele>23.0</ele><time>2026-04-29T10:02:50.204Z</time></trkpt><trkpt lat="45.5051529" lon="11.7462949"><ele>23.0</ele><time>2026-04-29T10:02:51.205Z</time></trkpt><trkpt lat="45.5052074" lon="11.7463521"><ele>23.0</ele><time>2026-04-29T10:02:52.204Z</time></trkpt><trkpt lat="45.5052641" lon="11.7463995"><ele>23.0</ele><time>2026-04-29T10:02:53.204Z</time></trkpt><trkpt lat="45.5053652" lon="11.7464958"><ele>22.833333333333336</ele><time>2026-04-29T10:02:55.205Z</time></trkpt><trkpt lat="45.5054513" lon="11.7466019"><ele>22.666666666666668</ele><time>2026-04-29T10:02:57.204Z</time></trkpt><trkpt lat="45.5055063" lon="11.7466631"><ele>22.5</ele><time>2026-04-29T10:02:58.204Z</time></trkpt><trkpt lat="45.5055648" lon="11.7467192"><ele>22.333333333333332</ele><time>2026-04-29T10:02:59.204Z</time></trkpt><trkpt lat="45.5056246" lon="11.7467776"><ele>22.166666666666664</ele><time>2026-04-29T10:03:00.205Z</time></trkpt><trkpt lat="45.5056842" lon="11.7468291"><ele>22.0</ele><time>2026-04-29T10:03:01.205Z</time></trkpt><trkpt lat="45.5057351" lon="11.746882"><ele>22.0</ele><time>2026-04-29T10:03:02.204Z</time></trkpt><trkpt lat="45.5057897" lon="11.7469295"><ele>22.0</ele><time>2026-04-29T10:03:03.204Z</time></trkpt><trkpt lat="45.5058981" lon="11.7470298"><ele>22.0</ele><time>2026-04-29T10:03:05.205Z</time></trkpt><trkpt lat="45.5060015" lon="11.7471163"><ele>22.0</ele><time>2026-04-29T10:03:07.204Z</time></trkpt><trkpt lat="45.5060559" lon="11.7471732"><ele>22.0</ele><time>2026-04-29T10:03:08.204Z</time></trkpt><trkpt lat="45.5061049" lon="11.7472299"><ele>22.0</ele><time>2026-04-29T10:03:09.204Z</time></trkpt><trkpt lat="45.5062002" lon="11.7473241"><ele>22.0</ele><time>2026-04-29T10:03:11.204Z</time></trkpt><trkpt lat="45.5062982" lon="11.7474094"><ele>22.0</ele><time>2026-04-29T10:03:13.204Z</time></trkpt><trkpt lat="45.5064034" lon="11.7475048"><ele>22.0</ele><time>2026-04-29T10:03:15.204Z</time></trkpt><trkpt lat="45.5064576" lon="11.7475539"><ele>22.0</ele><time>2026-04-29T10:03:16.204Z</time></trkpt><trkpt lat="45.5065153" lon="11.7476024"><ele>22.0</ele><time>2026-04-29T10:03:17.204Z</time></trkpt><trkpt lat="45.506568" lon="11.7476586"><ele>22.0</ele><time>2026-04-29T10:03:18.205Z</time></trkpt><trkpt lat="45.5066199" lon="11.747711"><ele>22.0</ele><time>2026-04-29T10:03:19.205Z</time></trkpt><trkpt lat="45.5066733" lon="11.7477649"><ele>22.0</ele><time>2026-04-29T10:03:20.204Z</time></trkpt><trkpt lat="45.5067309" lon="11.7478246"><ele>22.0</ele><time>2026-04-29T10:03:21.204Z</time></trkpt><trkpt lat="45.5067872" lon="11.7478773"><ele>22.0</ele><time>2026-04-29T10:03:22.205Z</time></trkpt><trkpt lat="45.506842" lon="11.7479287"><ele>22.0</ele><time>2026-04-29T10:03:23.205Z</time></trkpt><trkpt lat="45.5069021" lon="11.7479852"><ele>22.0</ele><time>2026-04-29T10:03:24.204Z</time></trkpt><trkpt lat="45.5069641" lon="11.7480446"><ele>22.0</ele><time>2026-04-29T10:03:25.204Z</time></trkpt><trkpt lat="45.5070218" lon="11.7480998"><ele>21.714285714285715</ele><time>2026-04-29T10:03:26.204Z</time></trkpt><trkpt lat="45.5070792" lon="11.7481518"><ele>21.428571428571427</ele><time>2026-04-29T10:03:27.205Z</time></trkpt><trkpt lat="45.5071379" lon="11.7482101"><ele>21.142857142857142</ele><time>2026-04-29T10:03:28.204Z</time></trkpt><trkpt lat="45.5071949" lon="11.7482677"><ele>20.857142857142858</ele><time>2026-04-29T10:03:29.204Z</time></trkpt><trkpt lat="45.5072512" lon="11.7483194"><ele>20.571428571428573</ele><time>2026-04-29T10:03:30.205Z</time></trkpt><trkpt lat="45.5073107" lon="11.7483743"><ele>20.285714285714285</ele><time>2026-04-29T10:03:31.204Z</time></trkpt><trkpt lat="45.5073714" lon="11.7484323"><ele>20.0</ele><time>2026-04-29T10:03:32.205Z</time></trkpt><trkpt lat="45.5074252" lon="11.7484926"><ele>20.0</ele><time>2026-04-29T10:03:33.204Z</time></trkpt><trkpt lat="45.5074804" lon="11.7485439"><ele>20.0</ele><time>2026-04-29T10:03:34.205Z</time></trkpt><trkpt lat="45.5075331" lon="11.7485961"><ele>20.0</ele><time>2026-04-29T10:03:35.205Z</time></trkpt><trkpt lat="45.5075903" lon="11.7486485"><ele>20.0</ele><time>2026-04-29T10:03:36.205Z</time></trkpt><trkpt lat="45.5076979" lon="11.7487491"><ele>20.0</ele><time>2026-04-29T10:03:38.204Z</time></trkpt><trkpt lat="45.5077508" lon="11.7488001"><ele>20.0</ele><time>2026-04-29T10:03:39.205Z</time></trkpt><trkpt lat="45.5078026" lon="11.7488561"><ele>20.0</ele><time>2026-04-29T10:03:40.204Z</time></trkpt><trkpt lat="45.5078997" lon="11.7489517"><ele>20.0</ele><time>2026-04-29T10:03:42.204Z</time></trkpt><trkpt lat="45.5079929" lon="11.7490434"><ele>20.0</ele><time>2026-04-29T10:03:44.205Z</time></trkpt><trkpt lat="45.5080956" lon="11.7491334"><ele>20.0</ele><time>2026-04-29T10:03:46.205Z</time></trkpt><trkpt lat="45.5081924" lon="11.7492299"><ele>20.4</ele><time>2026-04-29T10:03:48.204Z</time></trkpt><trkpt lat="45.508288" lon="11.7493232"><ele>20.8</ele><time>2026-04-29T10:03:50.204Z</time></trkpt><trkpt lat="45.508382" lon="11.7494188"><ele>21.200000000000003</ele><time>2026-04-29T10:03:52.204Z</time></trkpt><trkpt lat="45.5084686" lon="11.7495019"><ele>21.6</ele><time>2026-04-29T10:03:54.205Z</time></trkpt><trkpt lat="45.5085606" lon="11.7495769"><ele>22.0</ele><time>2026-04-29T10:03:56.204Z</time></trkpt><trkpt lat="45.5086511" lon="11.7496743"><ele>22.0</ele><time>2026-04-29T10:03:58.204Z</time></trkpt><trkpt lat="45.5087467" lon="11.749761"><ele>22.0</ele><time>2026-04-29T10:04:00.205Z</time></trkpt><trkpt lat="45.5088336" lon="11.7498416"><ele>22.0</ele><time>2026-04-29T10:04:02.205Z</time></trkpt><trkpt lat="45.508907" lon="11.7499358"><ele>22.0</ele><time>2026-04-29T10:04:04.205Z</time></trkpt><trkpt lat="45.5089757" lon="11.7499994"><ele>22.0</ele><time>2026-04-29T10:04:06.204Z</time></trkpt><trkpt lat="45.5090586" lon="11.7500423"><ele>22.0</ele><time>2026-04-29T10:04:08.204Z</time></trkpt><trkpt lat="45.5091292" lon="11.750095"><ele>22.0</ele><time>2026-04-29T10:04:10.204Z</time></trkpt><trkpt lat="45.5091872" lon="11.7501581"><ele>22.0</ele><time>2026-04-29T10:04:12.204Z</time></trkpt><trkpt lat="45.5092442" lon="11.7502346"><ele>22.0</ele><time>2026-04-29T10:04:14.205Z</time></trkpt><trkpt lat="45.5093229" lon="11.7503373"><ele>22.0</ele><time>2026-04-29T10:04:16.205Z</time></trkpt><trkpt lat="45.5094046" lon="11.7504277"><ele>22.0</ele><time>2026-04-29T10:04:18.204Z</time></trkpt><trkpt lat="45.5095052" lon="11.7505262"><ele>22.166666666666664</ele><time>2026-04-29T10:04:20.204Z</time></trkpt><trkpt lat="45.5096111" lon="11.7506258"><ele>22.333333333333332</ele><time>2026-04-29T10:04:22.204Z</time></trkpt><trkpt lat="45.5096669" lon="11.7506744"><ele>22.5</ele><time>2026-04-29T10:04:23.205Z</time></trkpt><trkpt lat="45.5097245" lon="11.7507253"><ele>22.666666666666668</ele><time>2026-04-29T10:04:24.204Z</time></trkpt><trkpt lat="45.5097803" lon="11.7507761"><ele>22.833333333333336</ele><time>2026-04-29T10:04:25.204Z</time></trkpt><trkpt lat="45.5098347" lon="11.7508248"><ele>23.0</ele><time>2026-04-29T10:04:26.204Z</time></trkpt><trkpt lat="45.5098907" lon="11.7508724"><ele>23.0</ele><time>2026-04-29T10:04:27.204Z</time></trkpt><trkpt lat="45.5099515" lon="11.7509242"><ele>23.0</ele><time>2026-04-29T10:04:28.205Z</time></trkpt><trkpt lat="45.5100069" lon="11.750974"><ele>23.0</ele><time>2026-04-29T10:04:29.205Z</time></trkpt><trkpt lat="45.5100625" lon="11.7510246"><ele>23.0</ele><time>2026-04-29T10:04:30.205Z</time></trkpt><trkpt lat="45.510119" lon="11.7510791"><ele>23.0</ele><time>2026-04-29T10:04:31.204Z</time></trkpt><trkpt lat="45.5101731" lon="11.7511354"><ele>23.0</ele><time>2026-04-29T10:04:32.204Z</time></trkpt><trkpt lat="45.5102279" lon="11.7511852"><ele>23.0</ele><time>2026-04-29T10:04:33.205Z</time></trkpt><trkpt lat="45.510289" lon="11.7512386"><ele>23.0</ele><time>2026-04-29T10:04:34.204Z</time></trkpt><trkpt lat="45.5103501" lon="11.751293"><ele>23.0</ele><time>2026-04-29T10:04:35.204Z</time></trkpt><trkpt lat="45.5104116" lon="11.7513464"><ele>23.0</ele><time>2026-04-29T10:04:36.205Z</time></trkpt><trkpt lat="45.5104712" lon="11.7514015"><ele>23.0</ele><time>2026-04-29T10:04:37.204Z</time></trkpt><trkpt lat="45.510534" lon="11.7514594"><ele>23.0</ele><time>2026-04-29T10:04:38.205Z</time></trkpt><trkpt lat="45.5105917" lon="11.7515137"><ele>23.0</ele><time>2026-04-29T10:04:39.204Z</time></trkpt><trkpt lat="45.5106549" lon="11.7515726"><ele>23.0</ele><time>2026-04-29T10:04:40.204Z</time></trkpt><trkpt lat="45.5107123" lon="11.7516306"><ele>22.833333333333336</ele><time>2026-04-29T10:04:41.204Z</time></trkpt><trkpt lat="45.5107734" lon="11.7516892"><ele>22.666666666666668</ele><time>2026-04-29T10:04:42.204Z</time></trkpt><trkpt lat="45.5108343" lon="11.751747"><ele>22.5</ele><time>2026-04-29T10:04:43.204Z</time></trkpt><trkpt lat="45.5108975" lon="11.7518019"><ele>22.333333333333332</ele><time>2026-04-29T10:04:44.204Z</time></trkpt><trkpt lat="45.5109534" lon="11.7518594"><ele>22.166666666666664</ele><time>2026-04-29T10:04:45.204Z</time></trkpt><trkpt lat="45.5110068" lon="11.7519147"><ele>22.0</ele><time>2026-04-29T10:04:46.205Z</time></trkpt><trkpt lat="45.5111111" lon="11.7520163"><ele>21.857142857142858</ele><time>2026-04-29T10:04:48.205Z</time></trkpt><trkpt lat="45.5111676" lon="11.7520691"><ele>21.714285714285715</ele><time>2026-04-29T10:04:49.204Z</time></trkpt><trkpt lat="45.5112303" lon="11.7521285"><ele>21.57142857142857</ele><time>2026-04-29T10:04:50.204Z</time></trkpt><trkpt lat="45.5112893" lon="11.7521844"><ele>21.42857142857143</ele><time>2026-04-29T10:04:51.204Z</time></trkpt><trkpt lat="45.5113577" lon="11.7522498"><ele>21.285714285714285</ele><time>2026-04-29T10:04:52.205Z</time></trkpt><trkpt lat="45.5114059" lon="11.7523144"><ele>21.142857142857142</ele><time>2026-04-29T10:04:53.204Z</time></trkpt><trkpt lat="45.5114618" lon="11.752374"><ele>21.0</ele><time>2026-04-29T10:04:54.204Z</time></trkpt><trkpt lat="45.5115102" lon="11.7524315"><ele>21.0</ele><time>2026-04-29T10:04:55.204Z</time></trkpt><trkpt lat="45.5115652" lon="11.7524843"><ele>21.0</ele><time>2026-04-29T10:04:56.204Z</time></trkpt><trkpt lat="45.5116262" lon="11.7525352"><ele>21.0</ele><time>2026-04-29T10:04:57.204Z</time></trkpt><trkpt lat="45.5116882" lon="11.7525871"><ele>21.0</ele><time>2026-04-29T10:04:58.204Z</time></trkpt><trkpt lat="45.5117477" lon="11.752649"><ele>21.0</ele><time>2026-04-29T10:04:59.204Z</time></trkpt><trkpt lat="45.5118086" lon="11.7527031"><ele>21.0</ele><time>2026-04-29T10:05:00.204Z</time></trkpt><trkpt lat="45.5118643" lon="11.7527591"><ele>21.0</ele><time>2026-04-29T10:05:01.204Z</time></trkpt><trkpt lat="45.5119172" lon="11.7528115"><ele>21.0</ele><time>2026-04-29T10:05:02.205Z</time></trkpt><trkpt lat="45.5119725" lon="11.7528622"><ele>21.0</ele><time>2026-04-29T10:05:03.204Z</time></trkpt><trkpt lat="45.5120747" lon="11.7529628"><ele>21.0</ele><time>2026-04-29T10:05:05.205Z</time></trkpt><trkpt lat="45.5121295" lon="11.7530142"><ele>21.0</ele><time>2026-04-29T10:05:06.204Z</time></trkpt><trkpt lat="45.5122357" lon="11.7531078"><ele>21.0</ele><time>2026-04-29T10:05:08.204Z</time></trkpt><trkpt lat="45.5123367" lon="11.7532099"><ele>21.0</ele><time>2026-04-29T10:05:10.205Z</time></trkpt><trkpt lat="45.5124388" lon="11.7533046"><ele>21.0</ele><time>2026-04-29T10:05:12.204Z</time></trkpt><trkpt lat="45.5125419" lon="11.7533976"><ele>21.0</ele><time>2026-04-29T10:05:14.204Z</time></trkpt><trkpt lat="45.5125958" lon="11.7534485"><ele>21.0</ele><time>2026-04-29T10:05:15.204Z</time></trkpt><trkpt lat="45.5126925" lon="11.7535534"><ele>21.0</ele><time>2026-04-29T10:05:17.204Z</time></trkpt><trkpt lat="45.5127965" lon="11.7536436"><ele>21.0</ele><time>2026-04-29T10:05:19.205Z</time></trkpt><trkpt lat="45.512899" lon="11.7537295"><ele>21.0</ele><time>2026-04-29T10:05:21.204Z</time></trkpt><trkpt lat="45.5129951" lon="11.7538356"><ele>21.0</ele><time>2026-04-29T10:05:23.204Z</time></trkpt><trkpt lat="45.5130913" lon="11.7539273"><ele>21.0</ele><time>2026-04-29T10:05:25.204Z</time></trkpt><trkpt lat="45.5131908" lon="11.7540248"><ele>21.166666666666668</ele><time>2026-04-29T10:05:27.204Z</time></trkpt><trkpt lat="45.5132432" lon="11.7540782"><ele>21.333333333333332</ele><time>2026-04-29T10:05:28.204Z</time></trkpt><trkpt lat="45.5132944" lon="11.7541348"><ele>21.5</ele><time>2026-04-29T10:05:29.205Z</time></trkpt><trkpt lat="45.5133958" lon="11.7542318"><ele>21.666666666666664</ele><time>2026-04-29T10:05:31.205Z</time></trkpt><trkpt lat="45.5134512" lon="11.7542811"><ele>21.833333333333332</ele><time>2026-04-29T10:05:32.204Z</time></trkpt><trkpt lat="45.5135472" lon="11.7543766"><ele>22.0</ele><time>2026-04-29T10:05:34.205Z</time></trkpt><trkpt lat="45.5136018" lon="11.7544289"><ele>22.0</ele><time>2026-04-29T10:05:35.204Z</time></trkpt><trkpt lat="45.5136561" lon="11.7544857"><ele>22.0</ele><time>2026-04-29T10:05:36.205Z</time></trkpt><trkpt lat="45.5137547" lon="11.7545863"><ele>22.0</ele><time>2026-04-29T10:05:38.204Z</time></trkpt><trkpt lat="45.5138501" lon="11.7546716"><ele>22.0</ele><time>2026-04-29T10:05:40.204Z</time></trkpt><trkpt lat="45.5139432" lon="11.7547545"><ele>22.0</ele><time>2026-04-29T10:05:42.204Z</time></trkpt><trkpt lat="45.5140391" lon="11.7548435"><ele>22.0</ele><time>2026-04-29T10:05:44.204Z</time></trkpt><trkpt lat="45.5141323" lon="11.7549301"><ele>22.0</ele><time>2026-04-29T10:05:46.203Z</time></trkpt><trkpt lat="45.5142215" lon="11.7550089"><ele>22.0</ele><time>2026-04-29T10:05:48.204Z</time></trkpt><trkpt lat="45.5142778" lon="11.7550579"><ele>22.0</ele><time>2026-04-29T10:05:49.204Z</time></trkpt><trkpt lat="45.5143389" lon="11.7551004"><ele>22.0</ele><time>2026-04-29T10:05:50.203Z</time></trkpt><trkpt lat="45.5144349" lon="11.7551874"><ele>22.0</ele><time>2026-04-29T10:05:52.203Z</time></trkpt><trkpt lat="45.5145203" lon="11.7552718"><ele>22.0</ele><time>2026-04-29T10:05:54.204Z</time></trkpt><trkpt lat="45.514603" lon="11.7553397"><ele>22.0</ele><time>2026-04-29T10:05:56.203Z</time></trkpt><trkpt lat="45.5146763" lon="11.7554031"><ele>22.0</ele><time>2026-04-29T10:05:58.203Z</time></trkpt><trkpt lat="45.5147341" lon="11.7554666"><ele>22.0</ele><time>2026-04-29T10:06:00.203Z</time></trkpt><trkpt lat="45.5147957" lon="11.7555367"><ele>22.0</ele><time>2026-04-29T10:06:02.203Z</time></trkpt><trkpt lat="45.5148514" lon="11.7556028"><ele>22.166666666666664</ele><time>2026-04-29T10:06:04.203Z</time></trkpt><trkpt lat="45.5149006" lon="11.7556673"><ele>22.333333333333332</ele><time>2026-04-29T10:06:06.203Z</time></trkpt><trkpt lat="45.5149475" lon="11.7557313"><ele>22.5</ele><time>2026-04-29T10:06:08.203Z</time></trkpt><trkpt lat="45.515038" lon="11.7557565"><ele>22.666666666666668</ele><time>2026-04-29T10:06:11.204Z</time></trkpt><trkpt lat="45.5151058" lon="11.7558229"><ele>22.833333333333336</ele><time>2026-04-29T10:06:13.203Z</time></trkpt><trkpt lat="45.5151813" lon="11.7559008"><ele>23.0</ele><time>2026-04-29T10:06:15.203Z</time></trkpt><trkpt lat="45.5152428" lon="11.7559708"><ele>23.25</ele><time>2026-04-29T10:06:17.203Z</time></trkpt><trkpt lat="45.5153523" lon="11.756109"><ele>23.5</ele><time>2026-04-29T10:06:20.203Z</time></trkpt><trkpt lat="45.515412" lon="11.7561701"><ele>23.75</ele><time>2026-04-29T10:06:21.204Z</time></trkpt><trkpt lat="45.5155036" lon="11.7562818"><ele>24.0</ele><time>2026-04-29T10:06:23.203Z</time></trkpt><trkpt lat="45.5155981" lon="11.7563766"><ele>24.2</ele><time>2026-04-29T10:06:25.203Z</time></trkpt><trkpt lat="45.5156994" lon="11.756466"><ele>24.4</ele><time>2026-04-29T10:06:27.203Z</time></trkpt><trkpt lat="45.5158019" lon="11.7565474"><ele>24.6</ele><time>2026-04-29T10:06:29.204Z</time></trkpt><trkpt lat="45.5158607" lon="11.7565874"><ele>24.8</ele><time>2026-04-29T10:06:30.204Z</time></trkpt><trkpt lat="45.5159509" lon="11.7566897"><ele>25.0</ele><time>2026-04-29T10:06:32.203Z</time></trkpt><trkpt lat="45.5160475" lon="11.7567901"><ele>24.8</ele><time>2026-04-29T10:06:34.203Z</time></trkpt><trkpt lat="45.5161312" lon="11.7568752"><ele>24.6</ele><time>2026-04-29T10:06:36.204Z</time></trkpt><trkpt lat="45.5162151" lon="11.7569567"><ele>24.4</ele><time>2026-04-29T10:06:38.204Z</time></trkpt><trkpt lat="45.5163041" lon="11.7570382"><ele>24.2</ele><time>2026-04-29T10:06:40.203Z</time></trkpt><trkpt lat="45.516405" lon="11.7571286"><ele>24.0</ele><time>2026-04-29T10:06:42.204Z</time></trkpt><trkpt lat="45.5165109" lon="11.7572226"><ele>23.71428571428571</ele><time>2026-04-29T10:06:44.203Z</time></trkpt><trkpt lat="45.5165629" lon="11.7572733"><ele>23.428571428571427</ele><time>2026-04-29T10:06:45.204Z</time></trkpt><trkpt lat="45.5166241" lon="11.7573266"><ele>23.142857142857142</ele><time>2026-04-29T10:06:46.204Z</time></trkpt><trkpt lat="45.5166779" lon="11.7573843"><ele>22.857142857142854</ele><time>2026-04-29T10:06:47.203Z</time></trkpt><trkpt lat="45.5167336" lon="11.7574414"><ele>22.57142857142857</ele><time>2026-04-29T10:06:48.203Z</time></trkpt><trkpt lat="45.5167888" lon="11.7574956"><ele>22.285714285714285</ele><time>2026-04-29T10:06:49.203Z</time></trkpt><trkpt lat="45.5168423" lon="11.7575483"><ele>22.0</ele><time>2026-04-29T10:06:50.203Z</time></trkpt><trkpt lat="45.5168956" lon="11.7576017"><ele>22.0</ele><time>2026-04-29T10:06:51.203Z</time></trkpt><trkpt lat="45.5169491" lon="11.7576543"><ele>22.0</ele><time>2026-04-29T10:06:52.203Z</time></trkpt><trkpt lat="45.5170049" lon="11.7577077"><ele>22.0</ele><time>2026-04-29T10:06:53.203Z</time></trkpt><trkpt lat="45.5170659" lon="11.7577599"><ele>22.0</ele><time>2026-04-29T10:06:54.204Z</time></trkpt><trkpt lat="45.5171227" lon="11.7578083"><ele>22.0</ele><time>2026-04-29T10:06:55.203Z</time></trkpt><trkpt lat="45.517176" lon="11.7578611"><ele>22.0</ele><time>2026-04-29T10:06:56.203Z</time></trkpt><trkpt lat="45.5172309" lon="11.757914"><ele>22.0</ele><time>2026-04-29T10:06:57.204Z</time></trkpt><trkpt lat="45.5172874" lon="11.7579709"><ele>22.142857142857142</ele><time>2026-04-29T10:06:58.203Z</time></trkpt><trkpt lat="45.5173441" lon="11.758024"><ele>22.285714285714285</ele><time>2026-04-29T10:06:59.203Z</time></trkpt><trkpt lat="45.5174018" lon="11.7580753"><ele>22.42857142857143</ele><time>2026-04-29T10:07:00.203Z</time></trkpt><trkpt lat="45.517458" lon="11.7581333"><ele>22.57142857142857</ele><time>2026-04-29T10:07:01.203Z</time></trkpt><trkpt lat="45.5175158" lon="11.7581883"><ele>22.71428571428571</ele><time>2026-04-29T10:07:02.203Z</time></trkpt><trkpt lat="45.5175732" lon="11.7582434"><ele>22.857142857142858</ele><time>2026-04-29T10:07:03.203Z</time></trkpt><trkpt lat="45.517629" lon="11.7583022"><ele>23.0</ele><time>2026-04-29T10:07:04.203Z</time></trkpt><trkpt lat="45.5176881" lon="11.7583576"><ele>23.0</ele><time>2026-04-29T10:07:05.203Z</time></trkpt><trkpt lat="45.5177443" lon="11.7584103"><ele>23.0</ele><time>2026-04-29T10:07:06.203Z</time></trkpt><trkpt lat="45.5178538" lon="11.7585094"><ele>23.0</ele><time>2026-04-29T10:07:08.204Z</time></trkpt><trkpt lat="45.5179607" lon="11.7586057"><ele>23.0</ele><time>2026-04-29T10:07:10.203Z</time></trkpt><trkpt lat="45.5180654" lon="11.7587092"><ele>23.0</ele><time>2026-04-29T10:07:12.203Z</time></trkpt><trkpt lat="45.5181269" lon="11.7587596"><ele>23.0</ele><time>2026-04-29T10:07:13.203Z</time></trkpt><trkpt lat="45.5182276" lon="11.7588564"><ele>23.0</ele><time>2026-04-29T10:07:15.203Z</time></trkpt><trkpt lat="45.5182785" lon="11.7589096"><ele>23.0</ele><time>2026-04-29T10:07:16.203Z</time></trkpt><trkpt lat="45.5183796" lon="11.7590045"><ele>23.0</ele><time>2026-04-29T10:07:18.203Z</time></trkpt><trkpt lat="45.5184302" lon="11.7590582"><ele>23.0</ele><time>2026-04-29T10:07:19.203Z</time></trkpt><trkpt lat="45.5184865" lon="11.7591063"><ele>23.0</ele><time>2026-04-29T10:07:20.203Z</time></trkpt><trkpt lat="45.5185425" lon="11.7591574"><ele>23.0</ele><time>2026-04-29T10:07:21.203Z</time></trkpt><trkpt lat="45.5186521" lon="11.7592487"><ele>23.0</ele><time>2026-04-29T10:07:23.203Z</time></trkpt><trkpt lat="45.5187476" lon="11.7593532"><ele>23.0</ele><time>2026-04-29T10:07:25.203Z</time></trkpt><trkpt lat="45.5188454" lon="11.7594542"><ele>23.0</ele><time>2026-04-29T10:07:27.203Z</time></trkpt><trkpt lat="45.5189423" lon="11.7595502"><ele>23.0</ele><time>2026-04-29T10:07:29.203Z</time></trkpt><trkpt lat="45.519043" lon="11.759647"><ele>23.0</ele><time>2026-04-29T10:07:31.204Z</time></trkpt><trkpt lat="45.5191411" lon="11.7597525"><ele>23.0</ele><time>2026-04-29T10:07:33.204Z</time></trkpt><trkpt lat="45.5191918" lon="11.7598105"><ele>23.0</ele><time>2026-04-29T10:07:34.203Z</time></trkpt><trkpt lat="45.519243" lon="11.7598704"><ele>23.0</ele><time>2026-04-29T10:07:35.204Z</time></trkpt><trkpt lat="45.5193014" lon="11.7599209"><ele>23.0</ele><time>2026-04-29T10:07:36.203Z</time></trkpt><trkpt lat="45.519357" lon="11.7599651"><ele>23.0</ele><time>2026-04-29T10:07:37.204Z</time></trkpt><trkpt lat="45.5194146" lon="11.7600186"><ele>23.0</ele><time>2026-04-29T10:07:38.203Z</time></trkpt><trkpt lat="45.5194803" lon="11.7600753"><ele>23.0</ele><time>2026-04-29T10:07:39.204Z</time></trkpt><trkpt lat="45.5195402" lon="11.7601276"><ele>23.0</ele><time>2026-04-29T10:07:40.203Z</time></trkpt><trkpt lat="45.5195981" lon="11.7601831"><ele>23.0</ele><time>2026-04-29T10:07:41.204Z</time></trkpt><trkpt lat="45.5196569" lon="11.7602349"><ele>23.0</ele><time>2026-04-29T10:07:42.204Z</time></trkpt><trkpt lat="45.5197134" lon="11.7602854"><ele>23.0</ele><time>2026-04-29T10:07:43.203Z</time></trkpt><trkpt lat="45.5197692" lon="11.7603412"><ele>23.2</ele><time>2026-04-29T10:07:44.203Z</time></trkpt><trkpt lat="45.5198303" lon="11.7603945"><ele>23.4</ele><time>2026-04-29T10:07:45.203Z</time></trkpt><trkpt lat="45.5198849" lon="11.7604478"><ele>23.599999999999998</ele><time>2026-04-29T10:07:46.203Z</time></trkpt><trkpt lat="45.5199923" lon="11.7605478"><ele>23.799999999999997</ele><time>2026-04-29T10:07:48.203Z</time></trkpt><trkpt lat="45.5200491" lon="11.7606032"><ele>24.0</ele><time>2026-04-29T10:07:49.204Z</time></trkpt><trkpt lat="45.5201478" lon="11.7607061"><ele>24.0</ele><time>2026-04-29T10:07:51.204Z</time></trkpt><trkpt lat="45.5202463" lon="11.7608025"><ele>24.0</ele><time>2026-04-29T10:07:53.203Z</time></trkpt><trkpt lat="45.5202975" lon="11.7608553"><ele>24.0</ele><time>2026-04-29T10:07:54.203Z</time></trkpt><trkpt lat="45.5203954" lon="11.760943"><ele>24.0</ele><time>2026-04-29T10:07:56.204Z</time></trkpt><trkpt lat="45.5204931" lon="11.7610439"><ele>24.0</ele><time>2026-04-29T10:07:58.203Z</time></trkpt><trkpt lat="45.5205946" lon="11.7611423"><ele>24.0</ele><time>2026-04-29T10:08:00.204Z</time></trkpt><trkpt lat="45.5206898" lon="11.761232"><ele>24.0</ele><time>2026-04-29T10:08:02.204Z</time></trkpt><trkpt lat="45.5207744" lon="11.761309"><ele>24.0</ele><time>2026-04-29T10:08:04.203Z</time></trkpt><trkpt lat="45.5208473" lon="11.7613878"><ele>24.0</ele><time>2026-04-29T10:08:06.203Z</time></trkpt><trkpt lat="45.5209191" lon="11.7614602"><ele>24.0</ele><time>2026-04-29T10:08:08.203Z</time></trkpt><trkpt lat="45.520977" lon="11.761511"><ele>24.0</ele><time>2026-04-29T10:08:10.203Z</time></trkpt><trkpt lat="45.5210354" lon="11.7615723"><ele>24.0</ele><time>2026-04-29T10:08:13.203Z</time></trkpt><trkpt lat="45.5211087" lon="11.761646"><ele>24.0</ele><time>2026-04-29T10:08:16.203Z</time></trkpt><trkpt lat="45.521171" lon="11.7616923"><ele>24.0</ele><time>2026-04-29T10:08:18.203Z</time></trkpt><trkpt lat="45.5212513" lon="11.7617641"><ele>24.0</ele><time>2026-04-29T10:08:20.203Z</time></trkpt><trkpt lat="45.5213341" lon="11.7618532"><ele>24.0</ele><time>2026-04-29T10:08:22.203Z</time></trkpt><trkpt lat="45.5214246" lon="11.7619418"><ele>23.799999999999997</ele><time>2026-04-29T10:08:24.203Z</time></trkpt><trkpt lat="45.5215225" lon="11.7620381"><ele>23.599999999999998</ele><time>2026-04-29T10:08:26.204Z</time></trkpt><trkpt lat="45.5215746" lon="11.7620895"><ele>23.4</ele><time>2026-04-29T10:08:27.203Z</time></trkpt><trkpt lat="45.521671" lon="11.7621919"><ele>23.2</ele><time>2026-04-29T10:08:29.203Z</time></trkpt><trkpt lat="45.5217733" lon="11.7622947"><ele>23.0</ele><time>2026-04-29T10:08:31.204Z</time></trkpt><trkpt lat="45.5218297" lon="11.7623473"><ele>23.0</ele><time>2026-04-29T10:08:32.203Z</time></trkpt><trkpt lat="45.521884" lon="11.7624029"><ele>23.0</ele><time>2026-04-29T10:08:33.204Z</time></trkpt><trkpt lat="45.5219371" lon="11.7624542"><ele>23.0</ele><time>2026-04-29T10:08:34.204Z</time></trkpt><trkpt lat="45.5219904" lon="11.7625053"><ele>23.0</ele><time>2026-04-29T10:08:35.203Z</time></trkpt><trkpt lat="45.5221" lon="11.7626029"><ele>23.0</ele><time>2026-04-29T10:08:37.203Z</time></trkpt><trkpt lat="45.5221554" lon="11.7626568"><ele>23.0</ele><time>2026-04-29T10:08:38.203Z</time></trkpt><trkpt lat="45.5222108" lon="11.7627149"><ele>22.857142857142858</ele><time>2026-04-29T10:08:39.203Z</time></trkpt><trkpt lat="45.5222692" lon="11.7627732"><ele>22.71428571428571</ele><time>2026-04-29T10:08:40.204Z</time></trkpt><trkpt lat="45.5223268" lon="11.7628188"><ele>22.57142857142857</ele><time>2026-04-29T10:08:41.204Z</time></trkpt><trkpt lat="45.5223884" lon="11.7628743"><ele>22.42857142857143</ele><time>2026-04-29T10:08:42.204Z</time></trkpt><trkpt lat="45.522446" lon="11.7629291"><ele>22.285714285714285</ele><time>2026-04-29T10:08:43.203Z</time></trkpt><trkpt lat="45.5225067" lon="11.7629835"><ele>22.142857142857142</ele><time>2026-04-29T10:08:44.203Z</time></trkpt><trkpt lat="45.5225618" lon="11.7630425"><ele>22.0</ele><time>2026-04-29T10:08:45.203Z</time></trkpt><trkpt lat="45.522621" lon="11.7630898"><ele>22.0</ele><time>2026-04-29T10:08:46.203Z</time></trkpt><trkpt lat="45.5226734" lon="11.763142"><ele>22.0</ele><time>2026-04-29T10:08:47.203Z</time></trkpt><trkpt lat="45.522727" lon="11.7631955"><ele>22.0</ele><time>2026-04-29T10:08:48.204Z</time></trkpt><trkpt lat="45.5228342" lon="11.76329"><ele>22.0</ele><time>2026-04-29T10:08:50.203Z</time></trkpt><trkpt lat="45.5229365" lon="11.7633911"><ele>22.0</ele><time>2026-04-29T10:08:52.204Z</time></trkpt><trkpt lat="45.5230378" lon="11.7634922"><ele>22.166666666666664</ele><time>2026-04-29T10:08:54.203Z</time></trkpt><trkpt lat="45.5230966" lon="11.763553"><ele>22.333333333333332</ele><time>2026-04-29T10:08:55.203Z</time></trkpt><trkpt lat="45.5231516" lon="11.7636079"><ele>22.5</ele><time>2026-04-29T10:08:56.203Z</time></trkpt><trkpt lat="45.5232595" lon="11.7637122"><ele>22.666666666666668</ele><time>2026-04-29T10:08:58.203Z</time></trkpt><trkpt lat="45.5233152" lon="11.7637608"><ele>22.833333333333336</ele><time>2026-04-29T10:08:59.203Z</time></trkpt><trkpt lat="45.5233706" lon="11.7638128"><ele>23.0</ele><time>2026-04-29T10:09:00.203Z</time></trkpt><trkpt lat="45.5234264" lon="11.7638649"><ele>23.0</ele><time>2026-04-29T10:09:01.203Z</time></trkpt><trkpt lat="45.5234792" lon="11.7639149"><ele>23.0</ele><time>2026-04-29T10:09:02.203Z</time></trkpt><trkpt lat="45.5235308" lon="11.7639681"><ele>23.0</ele><time>2026-04-29T10:09:03.204Z</time></trkpt><trkpt lat="45.5236273" lon="11.7640611"><ele>23.0</ele><time>2026-04-29T10:09:05.204Z</time></trkpt><trkpt lat="45.523729" lon="11.7641591"><ele>23.0</ele><time>2026-04-29T10:09:07.203Z</time></trkpt><trkpt lat="45.5238323" lon="11.7642484"><ele>22.799999999999997</ele><time>2026-04-29T10:09:09.204Z</time></trkpt><trkpt lat="45.5239268" lon="11.7643362"><ele>22.6</ele><time>2026-04-29T10:09:11.203Z</time></trkpt><trkpt lat="45.5240098" lon="11.7644199"><ele>22.4</ele><time>2026-04-29T10:09:13.203Z</time></trkpt><trkpt lat="45.5240852" lon="11.7644792"><ele>22.200000000000003</ele><time>2026-04-29T10:09:15.203Z</time></trkpt><trkpt lat="45.524134" lon="11.7645529"><ele>22.0</ele><time>2026-04-29T10:09:18.204Z</time></trkpt><trkpt lat="45.524222" lon="11.7645743"><ele>22.0</ele><time>2026-04-29T10:09:21.203Z</time></trkpt><trkpt lat="45.5242926" lon="11.7646294"><ele>22.0</ele><time>2026-04-29T10:09:23.203Z</time></trkpt><trkpt lat="45.5243515" lon="11.7646889"><ele>22.0</ele><time>2026-04-29T10:09:25.203Z</time></trkpt><trkpt lat="45.5244215" lon="11.7647516"><ele>22.0</ele><time>2026-04-29T10:09:27.203Z</time></trkpt><trkpt lat="45.524501" lon="11.7648177"><ele>22.0</ele><time>2026-04-29T10:09:29.203Z</time></trkpt><trkpt lat="45.5245764" lon="11.7649114"><ele>22.0</ele><time>2026-04-29T10:09:31.203Z</time></trkpt><trkpt lat="45.5246466" lon="11.7649848"><ele>22.200000000000003</ele><time>2026-04-29T10:09:33.203Z</time></trkpt><trkpt lat="45.5247275" lon="11.7650574"><ele>22.4</ele><time>2026-04-29T10:09:35.203Z</time></trkpt><trkpt lat="45.5248137" lon="11.7651443"><ele>22.6</ele><time>2026-04-29T10:09:37.204Z</time></trkpt><trkpt lat="45.5249019" lon="11.765228"><ele>22.799999999999997</ele><time>2026-04-29T10:09:39.203Z</time></trkpt><trkpt lat="45.5250016" lon="11.7653145"><ele>23.0</ele><time>2026-04-29T10:09:41.203Z</time></trkpt><trkpt lat="45.5250912" lon="11.7654062"><ele>23.25</ele><time>2026-04-29T10:09:43.203Z</time></trkpt><trkpt lat="45.5251785" lon="11.7655072"><ele>23.5</ele><time>2026-04-29T10:09:45.203Z</time></trkpt><trkpt lat="45.5252652" lon="11.7656008"><ele>23.75</ele><time>2026-04-29T10:09:47.203Z</time></trkpt><trkpt lat="45.5253523" lon="11.7657023"><ele>24.0</ele><time>2026-04-29T10:09:49.203Z</time></trkpt><trkpt lat="45.5254542" lon="11.7657978"><ele>24.0</ele><time>2026-04-29T10:09:51.202Z</time></trkpt><trkpt lat="45.5255473" lon="11.7658999"><ele>24.0</ele><time>2026-04-29T10:09:53.202Z</time></trkpt><trkpt lat="45.5256365" lon="11.7659908"><ele>24.0</ele><time>2026-04-29T10:09:55.203Z</time></trkpt><trkpt lat="45.5257218" lon="11.7660825"><ele>24.0</ele><time>2026-04-29T10:09:57.202Z</time></trkpt><trkpt lat="45.5258084" lon="11.7661653"><ele>24.0</ele><time>2026-04-29T10:09:59.202Z</time></trkpt><trkpt lat="45.5259016" lon="11.7662419"><ele>24.0</ele><time>2026-04-29T10:10:01.203Z</time></trkpt><trkpt lat="45.5260028" lon="11.7663314"><ele>24.0</ele><time>2026-04-29T10:10:03.202Z</time></trkpt><trkpt lat="45.526055" lon="11.7663836"><ele>24.0</ele><time>2026-04-29T10:10:04.203Z</time></trkpt><trkpt lat="45.5261516" lon="11.7664846"><ele>24.0</ele><time>2026-04-29T10:10:06.202Z</time></trkpt><trkpt lat="45.5262061" lon="11.7665347"><ele>24.0</ele><time>2026-04-29T10:10:07.203Z</time></trkpt><trkpt lat="45.5262616" lon="11.7665844"><ele>24.0</ele><time>2026-04-29T10:10:08.202Z</time></trkpt><trkpt lat="45.5263171" lon="11.7666354"><ele>24.0</ele><time>2026-04-29T10:10:09.202Z</time></trkpt><trkpt lat="45.5263725" lon="11.7666909"><ele>24.0</ele><time>2026-04-29T10:10:10.202Z</time></trkpt><trkpt lat="45.526427" lon="11.7667419"><ele>24.0</ele><time>2026-04-29T10:10:11.202Z</time></trkpt><trkpt lat="45.5265196" lon="11.7668459"><ele>24.0</ele><time>2026-04-29T10:10:13.202Z</time></trkpt><trkpt lat="45.5266123" lon="11.7669439"><ele>24.0</ele><time>2026-04-29T10:10:15.202Z</time></trkpt><trkpt lat="45.5266651" lon="11.7669929"><ele>24.0</ele><time>2026-04-29T10:10:16.202Z</time></trkpt><trkpt lat="45.5267187" lon="11.7670452"><ele>24.0</ele><time>2026-04-29T10:10:17.202Z</time></trkpt><trkpt lat="45.5268209" lon="11.7671509"><ele>24.0</ele><time>2026-04-29T10:10:19.202Z</time></trkpt><trkpt lat="45.5268737" lon="11.7672068"><ele>24.0</ele><time>2026-04-29T10:10:20.202Z</time></trkpt><trkpt lat="45.5269295" lon="11.7672586"><ele>24.0</ele><time>2026-04-29T10:10:21.202Z</time></trkpt><trkpt lat="45.5269871" lon="11.7673111"><ele>24.0</ele><time>2026-04-29T10:10:22.203Z</time></trkpt><trkpt lat="45.5270422" lon="11.7673625"><ele>24.0</ele><time>2026-04-29T10:10:23.203Z</time></trkpt><trkpt lat="45.527096" lon="11.7674203"><ele>24.0</ele><time>2026-04-29T10:10:24.202Z</time></trkpt><trkpt lat="45.5271489" lon="11.7674802"><ele>24.0</ele><time>2026-04-29T10:10:25.202Z</time></trkpt><trkpt lat="45.5272042" lon="11.7675269"><ele>24.0</ele><time>2026-04-29T10:10:26.202Z</time></trkpt><trkpt lat="45.5272622" lon="11.7675683"><ele>24.0</ele><time>2026-04-29T10:10:27.202Z</time></trkpt><trkpt lat="45.5273173" lon="11.7676205"><ele>24.0</ele><time>2026-04-29T10:10:28.202Z</time></trkpt><trkpt lat="45.5274074" lon="11.7677232"><ele>24.0</ele><time>2026-04-29T10:10:30.203Z</time></trkpt><trkpt lat="45.5274995" lon="11.7678288"><ele>24.0</ele><time>2026-04-29T10:10:32.202Z</time></trkpt><trkpt lat="45.5275955" lon="11.7679266"><ele>24.0</ele><time>2026-04-29T10:10:34.202Z</time></trkpt><trkpt lat="45.5276545" lon="11.7679849"><ele>24.0</ele><time>2026-04-29T10:10:35.202Z</time></trkpt><trkpt lat="45.527705" lon="11.7680553"><ele>24.0</ele><time>2026-04-29T10:10:36.203Z</time></trkpt><trkpt lat="45.527801" lon="11.7681712"><ele>24.0</ele><time>2026-04-29T10:10:38.202Z</time></trkpt><trkpt lat="45.5278533" lon="11.768236"><ele>24.0</ele><time>2026-04-29T10:10:39.203Z</time></trkpt><trkpt lat="45.527906" lon="11.7683011"><ele>24.0</ele><time>2026-04-29T10:10:40.203Z</time></trkpt><trkpt lat="45.5279517" lon="11.7683703"><ele>24.0</ele><time>2026-04-29T10:10:41.202Z</time></trkpt><trkpt lat="45.528045" lon="11.7684845"><ele>24.0</ele><time>2026-04-29T10:10:43.202Z</time></trkpt><trkpt lat="45.5281349" lon="11.7685974"><ele>24.0</ele><time>2026-04-29T10:10:45.202Z</time></trkpt><trkpt lat="45.5282235" lon="11.7687202"><ele>23.75</ele><time>2026-04-29T10:10:47.202Z</time></trkpt><trkpt lat="45.528319" lon="11.7688349"><ele>23.5</ele><time>2026-04-29T10:10:49.202Z</time></trkpt><trkpt lat="45.5284111" lon="11.7689468"><ele>23.25</ele><time>2026-04-29T10:10:51.202Z</time></trkpt><trkpt lat="45.5284956" lon="11.7690608"><ele>23.0</ele><time>2026-04-29T10:10:53.202Z</time></trkpt><trkpt lat="45.528566" lon="11.7691571"><ele>23.0</ele><time>2026-04-29T10:10:55.202Z</time></trkpt><trkpt lat="45.5286225" lon="11.769246"><ele>23.0</ele><time>2026-04-29T10:10:57.202Z</time></trkpt><trkpt lat="45.5286727" lon="11.7693252"><ele>23.0</ele><time>2026-04-29T10:10:59.202Z</time></trkpt><trkpt lat="45.5287449" lon="11.7694307"><ele>23.0</ele><time>2026-04-29T10:11:01.203Z</time></trkpt><trkpt lat="45.5288115" lon="11.7695421"><ele>23.0</ele><time>2026-04-29T10:11:03.202Z</time></trkpt><trkpt lat="45.5288862" lon="11.7696641"><ele>23.0</ele><time>2026-04-29T10:11:05.202Z</time></trkpt><trkpt lat="45.5289636" lon="11.7697922"><ele>23.0</ele><time>2026-04-29T10:11:07.203Z</time></trkpt><trkpt lat="45.5290382" lon="11.7699255"><ele>23.0</ele><time>2026-04-29T10:11:09.202Z</time></trkpt><trkpt lat="45.5291115" lon="11.7700575"><ele>23.0</ele><time>2026-04-29T10:11:11.202Z</time></trkpt><trkpt lat="45.5291863" lon="11.770203"><ele>23.5</ele><time>2026-04-29T10:11:13.202Z</time></trkpt><trkpt lat="45.5292475" lon="11.7703483"><ele>24.0</ele><time>2026-04-29T10:11:15.202Z</time></trkpt><trkpt lat="45.529313" lon="11.7704902"><ele>24.5</ele><time>2026-04-29T10:11:17.202Z</time></trkpt><trkpt lat="45.5293772" lon="11.7706158"><ele>25.0</ele><time>2026-04-29T10:11:19.202Z</time></trkpt><trkpt lat="45.5294379" lon="11.7707459"><ele>25.0</ele><time>2026-04-29T10:11:21.203Z</time></trkpt><trkpt lat="45.5295059" lon="11.7708578"><ele>25.0</ele><time>2026-04-29T10:11:23.202Z</time></trkpt><trkpt lat="45.5295717" lon="11.7709863"><ele>25.0</ele><time>2026-04-29T10:11:25.202Z</time></trkpt><trkpt lat="45.5296363" lon="11.7711059"><ele>25.0</ele><time>2026-04-29T10:11:27.202Z</time></trkpt><trkpt lat="45.5296841" lon="11.7712167"><ele>25.0</ele><time>2026-04-29T10:11:29.202Z</time></trkpt><trkpt lat="45.5297203" lon="11.7713214"><ele>24.833333333333336</ele><time>2026-04-29T10:11:31.202Z</time></trkpt><trkpt lat="45.5297474" lon="11.7714068"><ele>24.666666666666668</ele><time>2026-04-29T10:11:33.202Z</time></trkpt><trkpt lat="45.5297893" lon="11.7714906"><ele>24.5</ele><time>2026-04-29T10:11:36.202Z</time></trkpt><trkpt lat="45.5298332" lon="11.7715891"><ele>24.333333333333336</ele><time>2026-04-29T10:11:38.202Z</time></trkpt><trkpt lat="45.529883" lon="11.7717146"><ele>24.166666666666668</ele><time>2026-04-29T10:11:40.202Z</time></trkpt><trkpt lat="45.5299369" lon="11.7718664"><ele>24.0</ele><time>2026-04-29T10:11:42.202Z</time></trkpt><trkpt lat="45.529999" lon="11.7720055"><ele>23.75</ele><time>2026-04-29T10:11:44.202Z</time></trkpt><trkpt lat="45.5300436" lon="11.7721467"><ele>23.5</ele><time>2026-04-29T10:11:46.202Z</time></trkpt><trkpt lat="45.5300913" lon="11.7722989"><ele>23.25</ele><time>2026-04-29T10:11:48.202Z</time></trkpt><trkpt lat="45.5301431" lon="11.7724568"><ele>23.0</ele><time>2026-04-29T10:11:50.202Z</time></trkpt><trkpt lat="45.5301994" lon="11.7726174"><ele>23.25</ele><time>2026-04-29T10:11:52.202Z</time></trkpt><trkpt lat="45.5302509" lon="11.7727624"><ele>23.5</ele><time>2026-04-29T10:11:54.203Z</time></trkpt><trkpt lat="45.5303018" lon="11.7729044"><ele>23.75</ele><time>2026-04-29T10:11:56.202Z</time></trkpt><trkpt lat="45.530347" lon="11.7730562"><ele>24.0</ele><time>2026-04-29T10:11:58.203Z</time></trkpt><trkpt lat="45.5303911" lon="11.7732121"><ele>24.0</ele><time>2026-04-29T10:12:00.202Z</time></trkpt><trkpt lat="45.5304409" lon="11.7733742"><ele>24.0</ele><time>2026-04-29T10:12:02.202Z</time></trkpt><trkpt lat="45.5304696" lon="11.7734645"><ele>24.0</ele><time>2026-04-29T10:12:03.202Z</time></trkpt><trkpt lat="45.5304922" lon="11.7735514"><ele>24.0</ele><time>2026-04-29T10:12:04.202Z</time></trkpt><trkpt lat="45.5305152" lon="11.7736368"><ele>24.0</ele><time>2026-04-29T10:12:05.202Z</time></trkpt><trkpt lat="45.5305334" lon="11.7737268"><ele>24.0</ele><time>2026-04-29T10:12:06.202Z</time></trkpt><trkpt lat="45.5305516" lon="11.773817"><ele>23.999999999999996</ele><time>2026-04-29T10:12:07.202Z</time></trkpt><trkpt lat="45.530569" lon="11.7739091"><ele>24.0</ele><time>2026-04-29T10:12:08.202Z</time></trkpt><trkpt lat="45.5305876" lon="11.774001"><ele>24.0</ele><time>2026-04-29T10:12:09.202Z</time></trkpt><trkpt lat="45.5306101" lon="11.7741014"><ele>24.0</ele><time>2026-04-29T10:12:10.202Z</time></trkpt><trkpt lat="45.5306298" lon="11.7741964"><ele>24.0</ele><time>2026-04-29T10:12:11.202Z</time></trkpt><trkpt lat="45.5306541" lon="11.7742895"><ele>23.999999999999996</ele><time>2026-04-29T10:12:12.202Z</time></trkpt><trkpt lat="45.5306823" lon="11.7743769"><ele>24.0</ele><time>2026-04-29T10:12:13.203Z</time></trkpt><trkpt lat="45.5307131" lon="11.7744728"><ele>23.999999999999996</ele><time>2026-04-29T10:12:14.202Z</time></trkpt><trkpt lat="45.5307445" lon="11.7745631"><ele>24.0</ele><time>2026-04-29T10:12:15.202Z</time></trkpt><trkpt lat="45.5307756" lon="11.7746489"><ele>24.0</ele><time>2026-04-29T10:12:16.202Z</time></trkpt><trkpt lat="45.5308026" lon="11.7747461"><ele>24.0</ele><time>2026-04-29T10:12:17.203Z</time></trkpt><trkpt lat="45.530826" lon="11.7748383"><ele>24.0</ele><time>2026-04-29T10:12:18.202Z</time></trkpt><trkpt lat="45.5308515" lon="11.7749329"><ele>23.999999999999996</ele><time>2026-04-29T10:12:19.203Z</time></trkpt><trkpt lat="45.5308704" lon="11.7750227"><ele>24.0</ele><time>2026-04-29T10:12:20.202Z</time></trkpt><trkpt lat="45.5308935" lon="11.7751115"><ele>24.142857142857142</ele><time>2026-04-29T10:12:21.202Z</time></trkpt><trkpt lat="45.5309155" lon="11.7752048"><ele>24.285714285714285</ele><time>2026-04-29T10:12:22.202Z</time></trkpt><trkpt lat="45.5309382" lon="11.7753039"><ele>24.42857142857143</ele><time>2026-04-29T10:12:23.203Z</time></trkpt><trkpt lat="45.5309591" lon="11.7754"><ele>24.57142857142857</ele><time>2026-04-29T10:12:24.202Z</time></trkpt><trkpt lat="45.5309753" lon="11.7754882"><ele>24.714285714285715</ele><time>2026-04-29T10:12:25.202Z</time></trkpt><trkpt lat="45.5309924" lon="11.7755755"><ele>24.857142857142858</ele><time>2026-04-29T10:12:26.203Z</time></trkpt><trkpt lat="45.5310169" lon="11.7756604"><ele>25.0</ele><time>2026-04-29T10:12:27.202Z</time></trkpt><trkpt lat="45.53105" lon="11.775743"><ele>25.000000000000004</ele><time>2026-04-29T10:12:28.202Z</time></trkpt><trkpt lat="45.5310713" lon="11.7758287"><ele>25.0</ele><time>2026-04-29T10:12:29.203Z</time></trkpt><trkpt lat="45.5310921" lon="11.7759157"><ele>25.0</ele><time>2026-04-29T10:12:30.202Z</time></trkpt><trkpt lat="45.5311157" lon="11.7760042"><ele>25.0</ele><time>2026-04-29T10:12:31.203Z</time></trkpt><trkpt lat="45.5311408" lon="11.7760886"><ele>25.0</ele><time>2026-04-29T10:12:32.202Z</time></trkpt><trkpt lat="45.5311672" lon="11.7761749"><ele>25.000000000000004</ele><time>2026-04-29T10:12:33.202Z</time></trkpt><trkpt lat="45.5311912" lon="11.7762621"><ele>25.0</ele><time>2026-04-29T10:12:34.203Z</time></trkpt><trkpt lat="45.5312128" lon="11.7763502"><ele>25.000000000000004</ele><time>2026-04-29T10:12:35.202Z</time></trkpt><trkpt lat="45.5312436" lon="11.7764351"><ele>25.0</ele><time>2026-04-29T10:12:36.203Z</time></trkpt><trkpt lat="45.5312872" lon="11.7766093"><ele>25.0</ele><time>2026-04-29T10:12:38.202Z</time></trkpt><trkpt lat="45.5313029" lon="11.7766981"><ele>25.0</ele><time>2026-04-29T10:12:39.203Z</time></trkpt><trkpt lat="45.5313224" lon="11.7767905"><ele>25.000000000000004</ele><time>2026-04-29T10:12:40.202Z</time></trkpt><trkpt lat="45.5313592" lon="11.7769504"><ele>25.0</ele><time>2026-04-29T10:12:42.202Z</time></trkpt><trkpt lat="45.5313811" lon="11.7770436"><ele>25.0</ele><time>2026-04-29T10:12:43.202Z</time></trkpt><trkpt lat="45.5314062" lon="11.7771293"><ele>25.0</ele><time>2026-04-29T10:12:44.202Z</time></trkpt><trkpt lat="45.5314264" lon="11.7772183"><ele>25.0</ele><time>2026-04-29T10:12:45.203Z</time></trkpt><trkpt lat="45.5314672" lon="11.7773836"><ele>25.0</ele><time>2026-04-29T10:12:47.202Z</time></trkpt><trkpt lat="45.531518" lon="11.7775421"><ele>25.0</ele><time>2026-04-29T10:12:49.202Z</time></trkpt><trkpt lat="45.5315666" lon="11.7776639"><ele>25.166666666666668</ele><time>2026-04-29T10:12:51.202Z</time></trkpt><trkpt lat="45.531605" lon="11.7777982"><ele>25.333333333333336</ele><time>2026-04-29T10:12:53.202Z</time></trkpt><trkpt lat="45.5316425" lon="11.7779236"><ele>25.5</ele><time>2026-04-29T10:12:55.202Z</time></trkpt><trkpt lat="45.5316741" lon="11.7780527"><ele>25.666666666666664</ele><time>2026-04-29T10:12:57.203Z</time></trkpt><trkpt lat="45.5317059" lon="11.7781615"><ele>25.833333333333332</ele><time>2026-04-29T10:12:59.203Z</time></trkpt><trkpt lat="45.5317254" lon="11.7782607"><ele>26.0</ele><time>2026-04-29T10:13:01.202Z</time></trkpt><trkpt lat="45.5317633" lon="11.7783834"><ele>25.999999999999996</ele><time>2026-04-29T10:13:04.202Z</time></trkpt><trkpt lat="45.5317839" lon="11.7784859"><ele>26.0</ele><time>2026-04-29T10:13:07.202Z</time></trkpt><trkpt lat="45.5318138" lon="11.7786011"><ele>26.0</ele><time>2026-04-29T10:13:11.203Z</time></trkpt><trkpt lat="45.5318444" lon="11.7787049"><ele>26.0</ele><time>2026-04-29T10:13:13.202Z</time></trkpt><trkpt lat="45.5318735" lon="11.7788412"><ele>25.999999999999996</ele><time>2026-04-29T10:13:15.202Z</time></trkpt><trkpt lat="45.5318991" lon="11.7789915"><ele>26.0</ele><time>2026-04-29T10:13:17.202Z</time></trkpt><trkpt lat="45.5319318" lon="11.779153"><ele>25.8</ele><time>2026-04-29T10:13:19.202Z</time></trkpt><trkpt lat="45.5319696" lon="11.7793177"><ele>25.6</ele><time>2026-04-29T10:13:21.203Z</time></trkpt><trkpt lat="45.5320059" lon="11.7794923"><ele>25.4</ele><time>2026-04-29T10:13:23.202Z</time></trkpt><trkpt lat="45.5320259" lon="11.7795804"><ele>25.2</ele><time>2026-04-29T10:13:24.202Z</time></trkpt><trkpt lat="45.5320455" lon="11.779676"><ele>25.0</ele><time>2026-04-29T10:13:25.202Z</time></trkpt><trkpt lat="45.5320659" lon="11.779768"><ele>24.857142857142858</ele><time>2026-04-29T10:13:26.202Z</time></trkpt><trkpt lat="45.5320903" lon="11.7798526"><ele>24.714285714285715</ele><time>2026-04-29T10:13:27.202Z</time></trkpt><trkpt lat="45.5321093" lon="11.7799459"><ele>24.57142857142857</ele><time>2026-04-29T10:13:28.203Z</time></trkpt><trkpt lat="45.5321313" lon="11.7800418"><ele>24.42857142857143</ele><time>2026-04-29T10:13:29.202Z</time></trkpt><trkpt lat="45.5321531" lon="11.780141"><ele>24.285714285714285</ele><time>2026-04-29T10:13:30.202Z</time></trkpt><trkpt lat="45.5321732" lon="11.7802332"><ele>24.142857142857142</ele><time>2026-04-29T10:13:31.202Z</time></trkpt><trkpt lat="45.5321899" lon="11.7803226"><ele>24.0</ele><time>2026-04-29T10:13:32.202Z</time></trkpt><trkpt lat="45.5322075" lon="11.7804166"><ele>23.999999999999996</ele><time>2026-04-29T10:13:33.202Z</time></trkpt><trkpt lat="45.5322302" lon="11.7805072"><ele>24.0</ele><time>2026-04-29T10:13:34.203Z</time></trkpt><trkpt lat="45.5322535" lon="11.7805965"><ele>24.0</ele><time>2026-04-29T10:13:35.202Z</time></trkpt><trkpt lat="45.5322751" lon="11.7806896"><ele>24.0</ele><time>2026-04-29T10:13:36.202Z</time></trkpt><trkpt lat="45.5322962" lon="11.7807836"><ele>24.0</ele><time>2026-04-29T10:13:37.202Z</time></trkpt><trkpt lat="45.5323218" lon="11.7808773"><ele>23.999999999999996</ele><time>2026-04-29T10:13:38.202Z</time></trkpt><trkpt lat="45.5323476" lon="11.7809719"><ele>24.0</ele><time>2026-04-29T10:13:39.203Z</time></trkpt><trkpt lat="45.5323763" lon="11.7810658"><ele>24.428571428571427</ele><time>2026-04-29T10:13:40.202Z</time></trkpt><trkpt lat="45.5324011" lon="11.7811545"><ele>24.857142857142858</ele><time>2026-04-29T10:13:41.202Z</time></trkpt><trkpt lat="45.5324303" lon="11.7812402"><ele>25.285714285714285</ele><time>2026-04-29T10:13:42.202Z</time></trkpt><trkpt lat="45.5324583" lon="11.7813275"><ele>25.714285714285715</ele><time>2026-04-29T10:13:43.203Z</time></trkpt><trkpt lat="45.5324868" lon="11.7814138"><ele>26.142857142857142</ele><time>2026-04-29T10:13:44.202Z</time></trkpt><trkpt lat="45.5325194" lon="11.7815072"><ele>26.57142857142857</ele><time>2026-04-29T10:13:45.202Z</time></trkpt><trkpt lat="45.5325487" lon="11.7815928"><ele>27.0</ele><time>2026-04-29T10:13:46.202Z</time></trkpt><trkpt lat="45.5325806" lon="11.781676"><ele>27.0</ele><time>2026-04-29T10:13:47.202Z</time></trkpt><trkpt lat="45.532609" lon="11.7817652"><ele>27.0</ele><time>2026-04-29T10:13:48.202Z</time></trkpt><trkpt lat="45.5326431" lon="11.7818519"><ele>27.0</ele><time>2026-04-29T10:13:49.203Z</time></trkpt><trkpt lat="45.5326724" lon="11.7819393"><ele>27.0</ele><time>2026-04-29T10:13:50.202Z</time></trkpt><trkpt lat="45.5326992" lon="11.7820309"><ele>27.0</ele><time>2026-04-29T10:13:51.203Z</time></trkpt><trkpt lat="45.5327212" lon="11.7821198"><ele>27.0</ele><time>2026-04-29T10:13:52.202Z</time></trkpt><trkpt lat="45.5327448" lon="11.7822068"><ele>27.0</ele><time>2026-04-29T10:13:53.202Z</time></trkpt><trkpt lat="45.5327746" lon="11.7822976"><ele>26.8</ele><time>2026-04-29T10:13:54.202Z</time></trkpt><trkpt lat="45.5327995" lon="11.7823861"><ele>26.6</ele><time>2026-04-29T10:13:55.202Z</time></trkpt><trkpt lat="45.5328221" lon="11.7824721"><ele>26.400000000000002</ele><time>2026-04-29T10:13:56.201Z</time></trkpt><trkpt lat="45.5328596" lon="11.7826404"><ele>26.200000000000003</ele><time>2026-04-29T10:13:58.201Z</time></trkpt><trkpt lat="45.5329066" lon="11.7827986"><ele>26.0</ele><time>2026-04-29T10:14:00.201Z</time></trkpt><trkpt lat="45.5329424" lon="11.7829512"><ele>25.6</ele><time>2026-04-29T10:14:02.201Z</time></trkpt><trkpt lat="45.532988" lon="11.7831082"><ele>25.200000000000003</ele><time>2026-04-29T10:14:04.201Z</time></trkpt><trkpt lat="45.5330367" lon="11.7832739"><ele>24.799999999999997</ele><time>2026-04-29T10:14:06.201Z</time></trkpt><trkpt lat="45.5330802" lon="11.7834448"><ele>24.4</ele><time>2026-04-29T10:14:08.202Z</time></trkpt><trkpt lat="45.5331019" lon="11.7835316"><ele>24.0</ele><time>2026-04-29T10:14:09.201Z</time></trkpt><trkpt lat="45.5331196" lon="11.7836181"><ele>23.833333333333332</ele><time>2026-04-29T10:14:10.201Z</time></trkpt><trkpt lat="45.5331443" lon="11.7837082"><ele>23.666666666666668</ele><time>2026-04-29T10:14:11.202Z</time></trkpt><trkpt lat="45.533166" lon="11.7837929"><ele>23.5</ele><time>2026-04-29T10:14:12.201Z</time></trkpt><trkpt lat="45.5331879" lon="11.783879"><ele>23.333333333333336</ele><time>2026-04-29T10:14:13.201Z</time></trkpt><trkpt lat="45.5332064" lon="11.7839659"><ele>23.166666666666668</ele><time>2026-04-29T10:14:14.202Z</time></trkpt><trkpt lat="45.5332583" lon="11.7841289"><ele>23.0</ele><time>2026-04-29T10:14:16.201Z</time></trkpt><trkpt lat="45.5332786" lon="11.7842214"><ele>23.0</ele><time>2026-04-29T10:14:17.202Z</time></trkpt><trkpt lat="45.5333025" lon="11.7843068"><ele>23.0</ele><time>2026-04-29T10:14:18.201Z</time></trkpt><trkpt lat="45.5333291" lon="11.7844033"><ele>23.0</ele><time>2026-04-29T10:14:19.201Z</time></trkpt><trkpt lat="45.5333554" lon="11.7844967"><ele>23.0</ele><time>2026-04-29T10:14:20.201Z</time></trkpt><trkpt lat="45.533381" lon="11.7845897"><ele>23.0</ele><time>2026-04-29T10:14:21.201Z</time></trkpt><trkpt lat="45.5334024" lon="11.7846835"><ele>23.0</ele><time>2026-04-29T10:14:22.201Z</time></trkpt><trkpt lat="45.5334236" lon="11.7847795"><ele>23.0</ele><time>2026-04-29T10:14:23.201Z</time></trkpt><trkpt lat="45.5334464" lon="11.7848715"><ele>23.0</ele><time>2026-04-29T10:14:24.202Z</time></trkpt><trkpt lat="45.5334682" lon="11.7849606"><ele>23.0</ele><time>2026-04-29T10:14:25.201Z</time></trkpt><trkpt lat="45.5334861" lon="11.7850505"><ele>23.0</ele><time>2026-04-29T10:14:26.202Z</time></trkpt><trkpt lat="45.5335161" lon="11.7851322"><ele>23.0</ele><time>2026-04-29T10:14:27.201Z</time></trkpt><trkpt lat="45.5335364" lon="11.7852218"><ele>23.0</ele><time>2026-04-29T10:14:28.201Z</time></trkpt><trkpt lat="45.5335588" lon="11.7853103"><ele>23.0</ele><time>2026-04-29T10:14:29.201Z</time></trkpt><trkpt lat="45.5335829" lon="11.7853983"><ele>23.0</ele><time>2026-04-29T10:14:30.202Z</time></trkpt><trkpt lat="45.5336077" lon="11.7854842"><ele>23.0</ele><time>2026-04-29T10:14:31.202Z</time></trkpt><trkpt lat="45.5336363" lon="11.7855739"><ele>23.0</ele><time>2026-04-29T10:14:32.202Z</time></trkpt><trkpt lat="45.5336603" lon="11.7856656"><ele>23.0</ele><time>2026-04-29T10:14:33.202Z</time></trkpt><trkpt lat="45.5336861" lon="11.7857601"><ele>23.0</ele><time>2026-04-29T10:14:34.201Z</time></trkpt><trkpt lat="45.5337116" lon="11.7858471"><ele>23.0</ele><time>2026-04-29T10:14:35.201Z</time></trkpt><trkpt lat="45.5337355" lon="11.78594"><ele>23.0</ele><time>2026-04-29T10:14:36.201Z</time></trkpt><trkpt lat="45.5337583" lon="11.7860354"><ele>23.0</ele><time>2026-04-29T10:14:37.202Z</time></trkpt><trkpt lat="45.5337772" lon="11.7861347"><ele>23.166666666666668</ele><time>2026-04-29T10:14:38.201Z</time></trkpt><trkpt lat="45.5337939" lon="11.786229"><ele>23.333333333333336</ele><time>2026-04-29T10:14:39.201Z</time></trkpt><trkpt lat="45.5338225" lon="11.786407"><ele>23.5</ele><time>2026-04-29T10:14:41.202Z</time></trkpt><trkpt lat="45.5338446" lon="11.786503"><ele>23.666666666666668</ele><time>2026-04-29T10:14:42.202Z</time></trkpt><trkpt lat="45.5338714" lon="11.7865966"><ele>23.833333333333332</ele><time>2026-04-29T10:14:43.201Z</time></trkpt><trkpt lat="45.5338931" lon="11.7866972"><ele>24.0</ele><time>2026-04-29T10:14:44.202Z</time></trkpt><trkpt lat="45.5339159" lon="11.7867992"><ele>23.799999999999997</ele><time>2026-04-29T10:14:45.202Z</time></trkpt><trkpt lat="45.5339399" lon="11.78696"><ele>23.599999999999998</ele><time>2026-04-29T10:14:47.201Z</time></trkpt><trkpt lat="45.5339761" lon="11.7871049"><ele>23.4</ele><time>2026-04-29T10:14:49.202Z</time></trkpt><trkpt lat="45.5340156" lon="11.7872325"><ele>23.2</ele><time>2026-04-29T10:14:51.202Z</time></trkpt><trkpt lat="45.5340524" lon="11.7873668"><ele>23.0</ele><time>2026-04-29T10:14:53.202Z</time></trkpt><trkpt lat="45.5340988" lon="11.7874973"><ele>23.0</ele><time>2026-04-29T10:14:55.201Z</time></trkpt><trkpt lat="45.5341237" lon="11.78762"><ele>23.0</ele><time>2026-04-29T10:14:57.201Z</time></trkpt><trkpt lat="45.5341622" lon="11.7877148"><ele>23.0</ele><time>2026-04-29T10:14:59.202Z</time></trkpt><trkpt lat="45.5341952" lon="11.7878293"><ele>23.0</ele><time>2026-04-29T10:15:01.201Z</time></trkpt><trkpt lat="45.5342258" lon="11.787963"><ele>23.0</ele><time>2026-04-29T10:15:03.201Z</time></trkpt><trkpt lat="45.5342669" lon="11.7881314"><ele>23.0</ele><time>2026-04-29T10:15:05.201Z</time></trkpt><trkpt lat="45.534287" lon="11.7882194"><ele>23.0</ele><time>2026-04-29T10:15:06.202Z</time></trkpt><trkpt lat="45.5343224" lon="11.7883841"><ele>23.0</ele><time>2026-04-29T10:15:08.201Z</time></trkpt><trkpt lat="45.5343628" lon="11.7885409"><ele>23.0</ele><time>2026-04-29T10:15:10.202Z</time></trkpt><trkpt lat="45.5344048" lon="11.7886919"><ele>23.0</ele><time>2026-04-29T10:15:12.202Z</time></trkpt><trkpt lat="45.53445" lon="11.7888348"><ele>23.4</ele><time>2026-04-29T10:15:14.201Z</time></trkpt><trkpt lat="45.5344864" lon="11.7889815"><ele>23.799999999999997</ele><time>2026-04-29T10:15:16.202Z</time></trkpt><trkpt lat="45.5345193" lon="11.7891281"><ele>24.2</ele><time>2026-04-29T10:15:18.202Z</time></trkpt><trkpt lat="45.5345507" lon="11.7892582"><ele>24.6</ele><time>2026-04-29T10:15:20.201Z</time></trkpt><trkpt lat="45.534585" lon="11.7893961"><ele>25.0</ele><time>2026-04-29T10:15:22.201Z</time></trkpt><trkpt lat="45.5346145" lon="11.7895254"><ele>25.166666666666668</ele><time>2026-04-29T10:15:24.201Z</time></trkpt><trkpt lat="45.534641" lon="11.7896289"><ele>25.333333333333336</ele><time>2026-04-29T10:15:26.201Z</time></trkpt><trkpt lat="45.5346618" lon="11.7897233"><ele>25.5</ele><time>2026-04-29T10:15:28.201Z</time></trkpt><trkpt lat="45.5346982" lon="11.7898449"><ele>25.666666666666664</ele><time>2026-04-29T10:15:31.201Z</time></trkpt><trkpt lat="45.5347093" lon="11.7899469"><ele>25.833333333333332</ele><time>2026-04-29T10:15:34.201Z</time></trkpt><trkpt lat="45.5347323" lon="11.7900472"><ele>26.0</ele><time>2026-04-29T10:15:40.201Z</time></trkpt><trkpt lat="45.5347521" lon="11.7901619"><ele>25.833333333333332</ele><time>2026-04-29T10:15:43.202Z</time></trkpt><trkpt lat="45.5347759" lon="11.7902511"><ele>25.666666666666664</ele><time>2026-04-29T10:15:45.201Z</time></trkpt><trkpt lat="45.5348031" lon="11.7903566"><ele>25.5</ele><time>2026-04-29T10:15:47.201Z</time></trkpt><trkpt lat="45.5348463" lon="11.7905163"><ele>25.333333333333336</ele><time>2026-04-29T10:15:49.201Z</time></trkpt><trkpt lat="45.5348699" lon="11.7906036"><ele>25.166666666666668</ele><time>2026-04-29T10:15:50.201Z</time></trkpt><trkpt lat="45.534894" lon="11.7906939"><ele>25.0</ele><time>2026-04-29T10:15:51.201Z</time></trkpt><trkpt lat="45.5349162" lon="11.7907823"><ele>25.000000000000004</ele><time>2026-04-29T10:15:52.201Z</time></trkpt><trkpt lat="45.5349378" lon="11.7908794"><ele>25.0</ele><time>2026-04-29T10:15:53.201Z</time></trkpt><trkpt lat="45.5349829" lon="11.7910446"><ele>25.0</ele><time>2026-04-29T10:15:55.202Z</time></trkpt><trkpt lat="45.5350073" lon="11.7911394"><ele>25.0</ele><time>2026-04-29T10:15:56.202Z</time></trkpt><trkpt lat="45.5350313" lon="11.7912304"><ele>25.000000000000004</ele><time>2026-04-29T10:15:57.201Z</time></trkpt><trkpt lat="45.5350573" lon="11.7913186"><ele>25.0</ele><time>2026-04-29T10:15:58.202Z</time></trkpt><trkpt lat="45.5350819" lon="11.7914178"><ele>24.6</ele><time>2026-04-29T10:15:59.202Z</time></trkpt><trkpt lat="45.535101" lon="11.7915129"><ele>24.2</ele><time>2026-04-29T10:16:00.202Z</time></trkpt><trkpt lat="45.5351165" lon="11.7916116"><ele>23.799999999999997</ele><time>2026-04-29T10:16:01.201Z</time></trkpt><trkpt lat="45.5351278" lon="11.7917056"><ele>23.4</ele><time>2026-04-29T10:16:02.201Z</time></trkpt><trkpt lat="45.5351548" lon="11.7918746"><ele>23.0</ele><time>2026-04-29T10:16:04.201Z</time></trkpt><trkpt lat="45.5351983" lon="11.7920498"><ele>23.0</ele><time>2026-04-29T10:16:06.202Z</time></trkpt><trkpt lat="45.535223" lon="11.7921428"><ele>23.0</ele><time>2026-04-29T10:16:07.202Z</time></trkpt><trkpt lat="45.5352496" lon="11.7922317"><ele>23.0</ele><time>2026-04-29T10:16:08.201Z</time></trkpt><trkpt lat="45.5352731" lon="11.7923171"><ele>23.0</ele><time>2026-04-29T10:16:09.201Z</time></trkpt><trkpt lat="45.5352945" lon="11.7924044"><ele>23.0</ele><time>2026-04-29T10:16:10.202Z</time></trkpt><trkpt lat="45.5353206" lon="11.7925004"><ele>23.0</ele><time>2026-04-29T10:16:11.201Z</time></trkpt><trkpt lat="45.5353416" lon="11.7925939"><ele>23.0</ele><time>2026-04-29T10:16:12.201Z</time></trkpt><trkpt lat="45.5353658" lon="11.7926836"><ele>22.799999999999997</ele><time>2026-04-29T10:16:13.201Z</time></trkpt><trkpt lat="45.5353914" lon="11.7927798"><ele>22.6</ele><time>2026-04-29T10:16:14.201Z</time></trkpt><trkpt lat="45.5354188" lon="11.7928669"><ele>22.4</ele><time>2026-04-29T10:16:15.201Z</time></trkpt><trkpt lat="45.5354812" lon="11.7930263"><ele>22.200000000000003</ele><time>2026-04-29T10:16:17.201Z</time></trkpt><trkpt lat="45.5355292" lon="11.7931845"><ele>22.0</ele><time>2026-04-29T10:16:19.202Z</time></trkpt><trkpt lat="45.5355472" lon="11.7932751"><ele>22.0</ele><time>2026-04-29T10:16:20.201Z</time></trkpt><trkpt lat="45.5355959" lon="11.7934213"><ele>22.0</ele><time>2026-04-29T10:16:22.202Z</time></trkpt><trkpt lat="45.5356312" lon="11.7935593"><ele>22.0</ele><time>2026-04-29T10:16:24.201Z</time></trkpt><trkpt lat="45.535664" lon="11.7937201"><ele>22.0</ele><time>2026-04-29T10:16:26.202Z</time></trkpt><trkpt lat="45.5356989" lon="11.7938685"><ele>22.0</ele><time>2026-04-29T10:16:28.201Z</time></trkpt><trkpt lat="45.5357378" lon="11.7940204"><ele>21.5</ele><time>2026-04-29T10:16:30.202Z</time></trkpt><trkpt lat="45.535777" lon="11.7941696"><ele>21.0</ele><time>2026-04-29T10:16:32.201Z</time></trkpt><trkpt lat="45.5358168" lon="11.7943188"><ele>20.5</ele><time>2026-04-29T10:16:34.201Z</time></trkpt><trkpt lat="45.5358521" lon="11.7944899"><ele>20.0</ele><time>2026-04-29T10:16:36.202Z</time></trkpt><trkpt lat="45.5358909" lon="11.7946619"><ele>20.0</ele><time>2026-04-29T10:16:38.201Z</time></trkpt><trkpt lat="45.5359356" lon="11.7948245"><ele>20.0</ele><time>2026-04-29T10:16:40.201Z</time></trkpt><trkpt lat="45.535961" lon="11.7949104"><ele>20.0</ele><time>2026-04-29T10:16:41.201Z</time></trkpt><trkpt lat="45.535982" lon="11.7949957"><ele>20.0</ele><time>2026-04-29T10:16:42.201Z</time></trkpt><trkpt lat="45.5360264" lon="11.7951707"><ele>20.0</ele><time>2026-04-29T10:16:44.202Z</time></trkpt><trkpt lat="45.5360515" lon="11.7952636"><ele>20.0</ele><time>2026-04-29T10:16:45.202Z</time></trkpt><trkpt lat="45.5360743" lon="11.7953508"><ele>20.0</ele><time>2026-04-29T10:16:46.201Z</time></trkpt><trkpt lat="45.5360933" lon="11.7954434"><ele>20.0</ele><time>2026-04-29T10:16:47.201Z</time></trkpt><trkpt lat="45.5361168" lon="11.7956112"><ele>20.0</ele><time>2026-04-29T10:16:49.201Z</time></trkpt><trkpt lat="45.5361416" lon="11.7956951"><ele>20.0</ele><time>2026-04-29T10:16:50.202Z</time></trkpt><trkpt lat="45.5361683" lon="11.7957796"><ele>20.0</ele><time>2026-04-29T10:16:51.201Z</time></trkpt><trkpt lat="45.5361934" lon="11.7958623"><ele>20.0</ele><time>2026-04-29T10:16:52.201Z</time></trkpt><trkpt lat="45.536238" lon="11.7960247"><ele>20.142857142857142</ele><time>2026-04-29T10:16:54.201Z</time></trkpt><trkpt lat="45.5362595" lon="11.7961092"><ele>20.285714285714285</ele><time>2026-04-29T10:16:55.201Z</time></trkpt><trkpt lat="45.5362833" lon="11.7962007"><ele>20.42857142857143</ele><time>2026-04-29T10:16:56.201Z</time></trkpt><trkpt lat="45.536306" lon="11.7962907"><ele>20.57142857142857</ele><time>2026-04-29T10:16:57.201Z</time></trkpt><trkpt lat="45.5363284" lon="11.7963872"><ele>20.714285714285715</ele><time>2026-04-29T10:16:58.201Z</time></trkpt><trkpt lat="45.5363556" lon="11.7964808"><ele>20.857142857142858</ele><time>2026-04-29T10:16:59.202Z</time></trkpt><trkpt lat="45.5363814" lon="11.7965684"><ele>21.0</ele><time>2026-04-29T10:17:00.202Z</time></trkpt><trkpt lat="45.536407" lon="11.7966598"><ele>21.0</ele><time>2026-04-29T10:17:01.201Z</time></trkpt><trkpt lat="45.5364281" lon="11.7967476"><ele>21.0</ele><time>2026-04-29T10:17:02.201Z</time></trkpt><trkpt lat="45.5364784" lon="11.7969094"><ele>21.0</ele><time>2026-04-29T10:17:04.202Z</time></trkpt><trkpt lat="45.5364998" lon="11.7969949"><ele>21.0</ele><time>2026-04-29T10:17:05.202Z</time></trkpt><trkpt lat="45.5365205" lon="11.7970813"><ele>21.0</ele><time>2026-04-29T10:17:06.201Z</time></trkpt><trkpt lat="45.5365397" lon="11.797167"><ele>21.0</ele><time>2026-04-29T10:17:07.202Z</time></trkpt><trkpt lat="45.5365612" lon="11.7972525"><ele>21.0</ele><time>2026-04-29T10:17:08.201Z</time></trkpt><trkpt lat="45.5366062" lon="11.7974117"><ele>21.0</ele><time>2026-04-29T10:17:10.201Z</time></trkpt><trkpt lat="45.5366528" lon="11.7975689"><ele>21.0</ele><time>2026-04-29T10:17:12.201Z</time></trkpt><trkpt lat="45.5366819" lon="11.7977185"><ele>21.0</ele><time>2026-04-29T10:17:14.201Z</time></trkpt><trkpt lat="45.5367179" lon="11.7978585"><ele>21.0</ele><time>2026-04-29T10:17:16.202Z</time></trkpt><trkpt lat="45.5367629" lon="11.7980149"><ele>21.0</ele><time>2026-04-29T10:17:18.201Z</time></trkpt><trkpt lat="45.5368036" lon="11.7981816"><ele>21.0</ele><time>2026-04-29T10:17:20.202Z</time></trkpt><trkpt lat="45.5368269" lon="11.798269"><ele>21.0</ele><time>2026-04-29T10:17:21.201Z</time></trkpt><trkpt lat="45.5368448" lon="11.7983567"><ele>21.0</ele><time>2026-04-29T10:17:22.201Z</time></trkpt><trkpt lat="45.5368668" lon="11.7984458"><ele>21.0</ele><time>2026-04-29T10:17:23.201Z</time></trkpt><trkpt lat="45.5368885" lon="11.7985392"><ele>21.0</ele><time>2026-04-29T10:17:24.201Z</time></trkpt><trkpt lat="45.5369132" lon="11.798636"><ele>21.0</ele><time>2026-04-29T10:17:25.201Z</time></trkpt><trkpt lat="45.5369395" lon="11.798723"><ele>21.0</ele><time>2026-04-29T10:17:26.201Z</time></trkpt><trkpt lat="45.5369612" lon="11.7988134"><ele>21.0</ele><time>2026-04-29T10:17:27.201Z</time></trkpt><trkpt lat="45.5369855" lon="11.7989012"><ele>21.0</ele><time>2026-04-29T10:17:28.201Z</time></trkpt><trkpt lat="45.5370113" lon="11.7989915"><ele>21.0</ele><time>2026-04-29T10:17:29.202Z</time></trkpt><trkpt lat="45.5370316" lon="11.7990874"><ele>21.0</ele><time>2026-04-29T10:17:30.202Z</time></trkpt><trkpt lat="45.5370561" lon="11.7991841"><ele>21.0</ele><time>2026-04-29T10:17:31.201Z</time></trkpt><trkpt lat="45.5370819" lon="11.799276"><ele>21.0</ele><time>2026-04-29T10:17:32.201Z</time></trkpt><trkpt lat="45.5371051" lon="11.7993695"><ele>21.0</ele><time>2026-04-29T10:17:33.201Z</time></trkpt><trkpt lat="45.5371328" lon="11.7994555"><ele>21.0</ele><time>2026-04-29T10:17:34.201Z</time></trkpt><trkpt lat="45.5371542" lon="11.7995498"><ele>21.0</ele><time>2026-04-29T10:17:35.201Z</time></trkpt><trkpt lat="45.5371774" lon="11.7996451"><ele>21.0</ele><time>2026-04-29T10:17:36.202Z</time></trkpt><trkpt lat="45.5372028" lon="11.7997327"><ele>21.0</ele><time>2026-04-29T10:17:37.202Z</time></trkpt><trkpt lat="45.5372316" lon="11.799822"><ele>21.0</ele><time>2026-04-29T10:17:38.201Z</time></trkpt><trkpt lat="45.5372613" lon="11.79991"><ele>21.0</ele><time>2026-04-29T10:17:39.201Z</time></trkpt><trkpt lat="45.5372854" lon="11.8000016"><ele>21.0</ele><time>2026-04-29T10:17:40.202Z</time></trkpt><trkpt lat="45.537307" lon="11.8000929"><ele>21.0</ele><time>2026-04-29T10:17:41.202Z</time></trkpt><trkpt lat="45.5373248" lon="11.8001838"><ele>21.0</ele><time>2026-04-29T10:17:42.202Z</time></trkpt><trkpt lat="45.5373462" lon="11.8002762"><ele>21.0</ele><time>2026-04-29T10:17:43.202Z</time></trkpt><trkpt lat="45.5373667" lon="11.800365"><ele>21.0</ele><time>2026-04-29T10:17:44.201Z</time></trkpt><trkpt lat="45.5374079" lon="11.8005285"><ele>21.0</ele><time>2026-04-29T10:17:46.202Z</time></trkpt><trkpt lat="45.5374278" lon="11.8006153"><ele>21.0</ele><time>2026-04-29T10:17:47.201Z</time></trkpt><trkpt lat="45.5374509" lon="11.8007049"><ele>21.0</ele><time>2026-04-29T10:17:48.201Z</time></trkpt><trkpt lat="45.5374721" lon="11.8007979"><ele>21.0</ele><time>2026-04-29T10:17:49.201Z</time></trkpt><trkpt lat="45.5374957" lon="11.8008892"><ele>21.0</ele><time>2026-04-29T10:17:50.201Z</time></trkpt><trkpt lat="45.5375228" lon="11.8009816"><ele>21.0</ele><time>2026-04-29T10:17:51.201Z</time></trkpt><trkpt lat="45.5375449" lon="11.8010733"><ele>21.0</ele><time>2026-04-29T10:17:52.201Z</time></trkpt><trkpt lat="45.5375667" lon="11.8011689"><ele>20.857142857142858</ele><time>2026-04-29T10:17:53.201Z</time></trkpt><trkpt lat="45.5375867" lon="11.8012617"><ele>20.714285714285715</ele><time>2026-04-29T10:17:54.201Z</time></trkpt><trkpt lat="45.5376071" lon="11.8013555"><ele>20.57142857142857</ele><time>2026-04-29T10:17:55.201Z</time></trkpt><trkpt lat="45.5376321" lon="11.801446"><ele>20.42857142857143</ele><time>2026-04-29T10:17:56.2Z</time></trkpt><trkpt lat="45.5376572" lon="11.8015364"><ele>20.285714285714285</ele><time>2026-04-29T10:17:57.2Z</time></trkpt><trkpt lat="45.5376812" lon="11.8016267"><ele>20.142857142857142</ele><time>2026-04-29T10:17:58.2Z</time></trkpt><trkpt lat="45.5377001" lon="11.8017146"><ele>20.0</ele><time>2026-04-29T10:17:59.2Z</time></trkpt><trkpt lat="45.5377352" lon="11.801876"><ele>20.0</ele><time>2026-04-29T10:18:01.2Z</time></trkpt><trkpt lat="45.5377661" lon="11.8020348"><ele>20.0</ele><time>2026-04-29T10:18:03.2Z</time></trkpt><trkpt lat="45.5377909" lon="11.8021904"><ele>20.0</ele><time>2026-04-29T10:18:05.2Z</time></trkpt><trkpt lat="45.5378143" lon="11.8023394"><ele>20.0</ele><time>2026-04-29T10:18:07.2Z</time></trkpt><trkpt lat="45.5378446" lon="11.8024962"><ele>20.0</ele><time>2026-04-29T10:18:09.2Z</time></trkpt><trkpt lat="45.5378626" lon="11.8025835"><ele>20.142857142857142</ele><time>2026-04-29T10:18:10.2Z</time></trkpt><trkpt lat="45.5378779" lon="11.8026797"><ele>20.285714285714285</ele><time>2026-04-29T10:18:11.201Z</time></trkpt><trkpt lat="45.5378933" lon="11.8027779"><ele>20.42857142857143</ele><time>2026-04-29T10:18:12.201Z</time></trkpt><trkpt lat="45.5379093" lon="11.8028816"><ele>20.57142857142857</ele><time>2026-04-29T10:18:13.2Z</time></trkpt><trkpt lat="45.5379273" lon="11.8029769"><ele>20.714285714285715</ele><time>2026-04-29T10:18:14.201Z</time></trkpt><trkpt lat="45.5379396" lon="11.8030733"><ele>20.857142857142858</ele><time>2026-04-29T10:18:15.2Z</time></trkpt><trkpt lat="45.5379538" lon="11.8031666"><ele>21.0</ele><time>2026-04-29T10:18:16.201Z</time></trkpt><trkpt lat="45.5379638" lon="11.8032634"><ele>21.0</ele><time>2026-04-29T10:18:17.201Z</time></trkpt><trkpt lat="45.537976" lon="11.8033587"><ele>21.0</ele><time>2026-04-29T10:18:18.201Z</time></trkpt><trkpt lat="45.5379889" lon="11.8034484"><ele>21.0</ele><time>2026-04-29T10:18:19.201Z</time></trkpt><trkpt lat="45.5380013" lon="11.8035466"><ele>21.0</ele><time>2026-04-29T10:18:20.2Z</time></trkpt><trkpt lat="45.5380163" lon="11.8036421"><ele>21.0</ele><time>2026-04-29T10:18:21.2Z</time></trkpt><trkpt lat="45.538034" lon="11.8037431"><ele>21.0</ele><time>2026-04-29T10:18:22.2Z</time></trkpt><trkpt lat="45.5380431" lon="11.8038462"><ele>21.0</ele><time>2026-04-29T10:18:23.201Z</time></trkpt><trkpt lat="45.5380543" lon="11.8039559"><ele>21.0</ele><time>2026-04-29T10:18:24.2Z</time></trkpt><trkpt lat="45.5380659" lon="11.8040556"><ele>21.0</ele><time>2026-04-29T10:18:25.2Z</time></trkpt><trkpt lat="45.5380717" lon="11.8041531"><ele>21.0</ele><time>2026-04-29T10:18:26.201Z</time></trkpt><trkpt lat="45.5380829" lon="11.804244"><ele>21.0</ele><time>2026-04-29T10:18:27.201Z</time></trkpt><trkpt lat="45.5380939" lon="11.8043356"><ele>21.0</ele><time>2026-04-29T10:18:28.201Z</time></trkpt><trkpt lat="45.5381033" lon="11.8044299"><ele>21.0</ele><time>2026-04-29T10:18:29.2Z</time></trkpt><trkpt lat="45.5381114" lon="11.8045257"><ele>21.0</ele><time>2026-04-29T10:18:30.2Z</time></trkpt><trkpt lat="45.5381204" lon="11.8046253"><ele>21.142857142857142</ele><time>2026-04-29T10:18:31.201Z</time></trkpt><trkpt lat="45.5381246" lon="11.8047228"><ele>21.285714285714285</ele><time>2026-04-29T10:18:32.2Z</time></trkpt><trkpt lat="45.5381296" lon="11.8048183"><ele>21.42857142857143</ele><time>2026-04-29T10:18:33.2Z</time></trkpt><trkpt lat="45.5381382" lon="11.8049143"><ele>21.57142857142857</ele><time>2026-04-29T10:18:34.2Z</time></trkpt><trkpt lat="45.5381474" lon="11.8050193"><ele>21.714285714285715</ele><time>2026-04-29T10:18:35.2Z</time></trkpt><trkpt lat="45.5381521" lon="11.8051217"><ele>21.857142857142858</ele><time>2026-04-29T10:18:36.2Z</time></trkpt><trkpt lat="45.53816" lon="11.8052132"><ele>22.0</ele><time>2026-04-29T10:18:37.201Z</time></trkpt><trkpt lat="45.5381726" lon="11.8053082"><ele>22.0</ele><time>2026-04-29T10:18:38.201Z</time></trkpt><trkpt lat="45.5381771" lon="11.8054017"><ele>22.0</ele><time>2026-04-29T10:18:39.201Z</time></trkpt><trkpt lat="45.5381846" lon="11.805495"><ele>22.0</ele><time>2026-04-29T10:18:40.2Z</time></trkpt><trkpt lat="45.5381933" lon="11.8056726"><ele>22.0</ele><time>2026-04-29T10:18:42.2Z</time></trkpt><trkpt lat="45.5381916" lon="11.80584"><ele>22.0</ele><time>2026-04-29T10:18:44.201Z</time></trkpt><trkpt lat="45.5381994" lon="11.8060234"><ele>21.857142857142858</ele><time>2026-04-29T10:18:46.2Z</time></trkpt><trkpt lat="45.5382038" lon="11.8061146"><ele>21.714285714285715</ele><time>2026-04-29T10:18:47.2Z</time></trkpt><trkpt lat="45.5382013" lon="11.8062059"><ele>21.57142857142857</ele><time>2026-04-29T10:18:48.201Z</time></trkpt><trkpt lat="45.5382009" lon="11.8063009"><ele>21.42857142857143</ele><time>2026-04-29T10:18:49.2Z</time></trkpt><trkpt lat="45.5382043" lon="11.806397"><ele>21.285714285714285</ele><time>2026-04-29T10:18:50.2Z</time></trkpt><trkpt lat="45.5382069" lon="11.8064903"><ele>21.142857142857142</ele><time>2026-04-29T10:18:51.2Z</time></trkpt><trkpt lat="45.5382091" lon="11.8065883"><ele>21.0</ele><time>2026-04-29T10:18:52.2Z</time></trkpt><trkpt lat="45.5382111" lon="11.8066806"><ele>20.2</ele><time>2026-04-29T10:18:53.2Z</time></trkpt><trkpt lat="45.538208" lon="11.8068439"><ele>19.400000000000002</ele><time>2026-04-29T10:18:55.201Z</time></trkpt><trkpt lat="45.5382077" lon="11.8069741"><ele>18.6</ele><time>2026-04-29T10:18:57.201Z</time></trkpt><trkpt lat="45.5382117" lon="11.8070808"><ele>17.8</ele><time>2026-04-29T10:18:59.2Z</time></trkpt><trkpt lat="45.5382105" lon="11.8072019"><ele>17.0</ele><time>2026-04-29T10:19:01.2Z</time></trkpt><trkpt lat="45.5382183" lon="11.8073382"><ele>17.0</ele><time>2026-04-29T10:19:03.2Z</time></trkpt><trkpt lat="45.5382202" lon="11.807465"><ele>17.0</ele><time>2026-04-29T10:19:05.2Z</time></trkpt><trkpt lat="45.5382212" lon="11.8075994"><ele>17.0</ele><time>2026-04-29T10:19:07.201Z</time></trkpt><trkpt lat="45.5382247" lon="11.8077439"><ele>17.0</ele><time>2026-04-29T10:19:09.201Z</time></trkpt><trkpt lat="45.538229" lon="11.8078926"><ele>17.0</ele><time>2026-04-29T10:19:11.2Z</time></trkpt><trkpt lat="45.5382253" lon="11.8080462"><ele>17.4</ele><time>2026-04-29T10:19:13.2Z</time></trkpt><trkpt lat="45.5382303" lon="11.8081834"><ele>17.799999999999997</ele><time>2026-04-29T10:19:15.2Z</time></trkpt><trkpt lat="45.5382251" lon="11.8083094"><ele>18.2</ele><time>2026-04-29T10:19:17.201Z</time></trkpt><trkpt lat="45.5382275" lon="11.8084534"><ele>18.599999999999998</ele><time>2026-04-29T10:19:19.2Z</time></trkpt><trkpt lat="45.5382378" lon="11.8086094"><ele>19.0</ele><time>2026-04-29T10:19:21.2Z</time></trkpt><trkpt lat="45.5382376" lon="11.8087802"><ele>19.5</ele><time>2026-04-29T10:19:23.2Z</time></trkpt><trkpt lat="45.5382417" lon="11.8089606"><ele>20.0</ele><time>2026-04-29T10:19:25.2Z</time></trkpt><trkpt lat="45.5382422" lon="11.8090619"><ele>20.5</ele><time>2026-04-29T10:19:26.2Z</time></trkpt><trkpt lat="45.5382442" lon="11.8091645"><ele>21.0</ele><time>2026-04-29T10:19:27.201Z</time></trkpt><trkpt lat="45.5382467" lon="11.8092651"><ele>21.5</ele><time>2026-04-29T10:19:28.2Z</time></trkpt><trkpt lat="45.5382487" lon="11.8093664"><ele>22.0</ele><time>2026-04-29T10:19:29.2Z</time></trkpt><trkpt lat="45.5382497" lon="11.8094666"><ele>22.142857142857142</ele><time>2026-04-29T10:19:30.201Z</time></trkpt><trkpt lat="45.5382538" lon="11.8095704"><ele>22.285714285714285</ele><time>2026-04-29T10:19:31.2Z</time></trkpt><trkpt lat="45.5382586" lon="11.8096761"><ele>22.42857142857143</ele><time>2026-04-29T10:19:32.2Z</time></trkpt><trkpt lat="45.538263" lon="11.8097777"><ele>22.57142857142857</ele><time>2026-04-29T10:19:33.2Z</time></trkpt><trkpt lat="45.5382647" lon="11.8098833"><ele>22.71428571428571</ele><time>2026-04-29T10:19:34.2Z</time></trkpt><trkpt lat="45.5382647" lon="11.8099899"><ele>22.857142857142858</ele><time>2026-04-29T10:19:35.201Z</time></trkpt><trkpt lat="45.5382622" lon="11.8100937"><ele>23.0</ele><time>2026-04-29T10:19:36.201Z</time></trkpt><trkpt lat="45.5382614" lon="11.8101996"><ele>22.714285714285715</ele><time>2026-04-29T10:19:37.2Z</time></trkpt><trkpt lat="45.538261" lon="11.8103002"><ele>22.428571428571427</ele><time>2026-04-29T10:19:38.2Z</time></trkpt><trkpt lat="45.5382637" lon="11.8103973"><ele>22.142857142857142</ele><time>2026-04-29T10:19:39.2Z</time></trkpt><trkpt lat="45.5382617" lon="11.810491"><ele>21.857142857142858</ele><time>2026-04-29T10:19:40.2Z</time></trkpt><trkpt lat="45.5382645" lon="11.8105873"><ele>21.57142857142857</ele><time>2026-04-29T10:19:41.201Z</time></trkpt><trkpt lat="45.5382668" lon="11.8106901"><ele>21.285714285714285</ele><time>2026-04-29T10:19:42.2Z</time></trkpt><trkpt lat="45.5382683" lon="11.8107906"><ele>21.0</ele><time>2026-04-29T10:19:43.2Z</time></trkpt><trkpt lat="45.5382694" lon="11.8108899"><ele>21.0</ele><time>2026-04-29T10:19:44.2Z</time></trkpt><trkpt lat="45.5382751" lon="11.8109907"><ele>21.0</ele><time>2026-04-29T10:19:45.201Z</time></trkpt><trkpt lat="45.5382803" lon="11.8110951"><ele>21.0</ele><time>2026-04-29T10:19:46.201Z</time></trkpt><trkpt lat="45.5382737" lon="11.8111988"><ele>21.0</ele><time>2026-04-29T10:19:47.2Z</time></trkpt><trkpt lat="45.5382737" lon="11.811308"><ele>21.0</ele><time>2026-04-29T10:19:48.2Z</time></trkpt><trkpt lat="45.5382755" lon="11.8114129"><ele>21.0</ele><time>2026-04-29T10:19:49.201Z</time></trkpt><trkpt lat="45.5382765" lon="11.8115056"><ele>21.0</ele><time>2026-04-29T10:19:50.2Z</time></trkpt><trkpt lat="45.5382761" lon="11.8115971"><ele>21.0</ele><time>2026-04-29T10:19:51.2Z</time></trkpt><trkpt lat="45.5382768" lon="11.8116898"><ele>21.0</ele><time>2026-04-29T10:19:52.2Z</time></trkpt><trkpt lat="45.5382772" lon="11.81178"><ele>21.0</ele><time>2026-04-29T10:19:53.201Z</time></trkpt><trkpt lat="45.5382784" lon="11.8118807"><ele>21.0</ele><time>2026-04-29T10:19:54.2Z</time></trkpt><trkpt lat="45.5382761" lon="11.8120606"><ele>21.0</ele><time>2026-04-29T10:19:56.2Z</time></trkpt><trkpt lat="45.5382677" lon="11.8121661"><ele>21.0</ele><time>2026-04-29T10:19:57.201Z</time></trkpt><trkpt lat="45.5382667" lon="11.812278"><ele>21.166666666666668</ele><time>2026-04-29T10:19:58.201Z</time></trkpt><trkpt lat="45.5382635" lon="11.8123886"><ele>21.333333333333332</ele><time>2026-04-29T10:19:59.2Z</time></trkpt><trkpt lat="45.5382629" lon="11.8124977"><ele>21.5</ele><time>2026-04-29T10:20:00.2Z</time></trkpt><trkpt lat="45.5382644" lon="11.8126035"><ele>21.666666666666664</ele><time>2026-04-29T10:20:01.201Z</time></trkpt><trkpt lat="45.5382697" lon="11.8127138"><ele>21.833333333333332</ele><time>2026-04-29T10:20:02.201Z</time></trkpt><trkpt lat="45.5382745" lon="11.8128223"><ele>22.0</ele><time>2026-04-29T10:20:03.2Z</time></trkpt><trkpt lat="45.5382801" lon="11.8129224"><ele>21.6</ele><time>2026-04-29T10:20:04.201Z</time></trkpt><trkpt lat="45.5382827" lon="11.8130861"><ele>21.200000000000003</ele><time>2026-04-29T10:20:06.2Z</time></trkpt><trkpt lat="45.5382848" lon="11.8132152"><ele>20.8</ele><time>2026-04-29T10:20:08.2Z</time></trkpt><trkpt lat="45.5382855" lon="11.8133469"><ele>20.4</ele><time>2026-04-29T10:20:10.201Z</time></trkpt><trkpt lat="45.5382865" lon="11.8134879"><ele>20.0</ele><time>2026-04-29T10:20:12.2Z</time></trkpt><trkpt lat="45.5382968" lon="11.8136388"><ele>20.0</ele><time>2026-04-29T10:20:14.201Z</time></trkpt><trkpt lat="45.5383066" lon="11.8138236"><ele>20.0</ele><time>2026-04-29T10:20:16.2Z</time></trkpt><trkpt lat="45.5383111" lon="11.8139357"><ele>20.0</ele><time>2026-04-29T10:20:17.201Z</time></trkpt><trkpt lat="45.5383119" lon="11.8140473"><ele>20.0</ele><time>2026-04-29T10:20:18.2Z</time></trkpt><trkpt lat="45.538316" lon="11.8141587"><ele>20.0</ele><time>2026-04-29T10:20:19.2Z</time></trkpt><trkpt lat="45.5383196" lon="11.8142684"><ele>20.0</ele><time>2026-04-29T10:20:20.201Z</time></trkpt><trkpt lat="45.5383193" lon="11.8143707"><ele>20.142857142857142</ele><time>2026-04-29T10:20:21.2Z</time></trkpt><trkpt lat="45.5383187" lon="11.8144728"><ele>20.285714285714285</ele><time>2026-04-29T10:20:22.2Z</time></trkpt><trkpt lat="45.5383165" lon="11.814573"><ele>20.42857142857143</ele><time>2026-04-29T10:20:23.2Z</time></trkpt><trkpt lat="45.5383151" lon="11.8146715"><ele>20.57142857142857</ele><time>2026-04-29T10:20:24.2Z</time></trkpt><trkpt lat="45.5383149" lon="11.8147659"><ele>20.714285714285715</ele><time>2026-04-29T10:20:25.201Z</time></trkpt><trkpt lat="45.5383116" lon="11.8148613"><ele>20.857142857142858</ele><time>2026-04-29T10:20:26.2Z</time></trkpt><trkpt lat="45.5383117" lon="11.8149594"><ele>21.0</ele><time>2026-04-29T10:20:27.2Z</time></trkpt><trkpt lat="45.5383119" lon="11.8150541"><ele>21.0</ele><time>2026-04-29T10:20:28.201Z</time></trkpt><trkpt lat="45.5383124" lon="11.8151527"><ele>21.0</ele><time>2026-04-29T10:20:29.2Z</time></trkpt><trkpt lat="45.5383103" lon="11.8152524"><ele>21.0</ele><time>2026-04-29T10:20:30.2Z</time></trkpt><trkpt lat="45.5383146" lon="11.8153456"><ele>21.0</ele><time>2026-04-29T10:20:31.201Z</time></trkpt><trkpt lat="45.5383217" lon="11.8154351"><ele>21.0</ele><time>2026-04-29T10:20:32.201Z</time></trkpt><trkpt lat="45.5383214" lon="11.815532"><ele>21.0</ele><time>2026-04-29T10:20:33.2Z</time></trkpt><trkpt lat="45.5383231" lon="11.8156247"><ele>21.0</ele><time>2026-04-29T10:20:34.2Z</time></trkpt><trkpt lat="45.5383254" lon="11.8157942"><ele>20.8</ele><time>2026-04-29T10:20:36.2Z</time></trkpt><trkpt lat="45.5383271" lon="11.8158865"><ele>20.6</ele><time>2026-04-29T10:20:37.2Z</time></trkpt><trkpt lat="45.5383345" lon="11.8160474"><ele>20.4</ele><time>2026-04-29T10:20:39.2Z</time></trkpt><trkpt lat="45.5383331" lon="11.8161922"><ele>20.2</ele><time>2026-04-29T10:20:41.2Z</time></trkpt><trkpt lat="45.5383222" lon="11.8163173"><ele>20.0</ele><time>2026-04-29T10:20:43.2Z</time></trkpt><trkpt lat="45.5383157" lon="11.8164763"><ele>20.0</ele><time>2026-04-29T10:20:45.2Z</time></trkpt><trkpt lat="45.5383195" lon="11.8165663"><ele>20.0</ele><time>2026-04-29T10:20:46.2Z</time></trkpt><trkpt lat="45.538328" lon="11.8167373"><ele>20.0</ele><time>2026-04-29T10:20:48.2Z</time></trkpt><trkpt lat="45.5383377" lon="11.8169109"><ele>20.0</ele><time>2026-04-29T10:20:50.201Z</time></trkpt><trkpt lat="45.5383381" lon="11.817081"><ele>20.0</ele><time>2026-04-29T10:20:52.201Z</time></trkpt><trkpt lat="45.5383365" lon="11.8172559"><ele>20.0</ele><time>2026-04-29T10:20:54.2Z</time></trkpt><trkpt lat="45.5383377" lon="11.8174301"><ele>20.0</ele><time>2026-04-29T10:20:56.2Z</time></trkpt><trkpt lat="45.5383381" lon="11.8176099"><ele>20.0</ele><time>2026-04-29T10:20:58.2Z</time></trkpt><trkpt lat="45.5383365" lon="11.8177163"><ele>20.0</ele><time>2026-04-29T10:20:59.201Z</time></trkpt><trkpt lat="45.5383375" lon="11.8178118"><ele>20.0</ele><time>2026-04-29T10:21:00.201Z</time></trkpt><trkpt lat="45.5383402" lon="11.8179107"><ele>19.8</ele><time>2026-04-29T10:21:01.201Z</time></trkpt><trkpt lat="45.5383473" lon="11.8180221"><ele>19.6</ele><time>2026-04-29T10:21:02.2Z</time></trkpt><trkpt lat="45.5383487" lon="11.8181184"><ele>19.4</ele><time>2026-04-29T10:21:03.201Z</time></trkpt><trkpt lat="45.5383497" lon="11.8182198"><ele>19.2</ele><time>2026-04-29T10:21:04.2Z</time></trkpt><trkpt lat="45.5383591" lon="11.8183948"><ele>19.0</ele><time>2026-04-29T10:21:06.201Z</time></trkpt><trkpt lat="45.5383719" lon="11.8185655"><ele>19.0</ele><time>2026-04-29T10:21:08.2Z</time></trkpt><trkpt lat="45.5383675" lon="11.8187438"><ele>19.0</ele><time>2026-04-29T10:21:10.2Z</time></trkpt><trkpt lat="45.5383662" lon="11.8189194"><ele>19.0</ele><time>2026-04-29T10:21:12.2Z</time></trkpt><trkpt lat="45.5383566" lon="11.819105"><ele>19.0</ele><time>2026-04-29T10:21:14.2Z</time></trkpt><trkpt lat="45.5383579" lon="11.819285"><ele>19.166666666666664</ele><time>2026-04-29T10:21:16.2Z</time></trkpt><trkpt lat="45.5383634" lon="11.8193761"><ele>19.333333333333332</ele><time>2026-04-29T10:21:17.2Z</time></trkpt><trkpt lat="45.5383642" lon="11.819471"><ele>19.5</ele><time>2026-04-29T10:21:18.2Z</time></trkpt><trkpt lat="45.5383602" lon="11.8195693"><ele>19.666666666666668</ele><time>2026-04-29T10:21:19.201Z</time></trkpt><trkpt lat="45.5383589" lon="11.8196594"><ele>19.833333333333336</ele><time>2026-04-29T10:21:20.201Z</time></trkpt><trkpt lat="45.5383743" lon="11.8198302"><ele>20.0</ele><time>2026-04-29T10:21:22.2Z</time></trkpt><trkpt lat="45.5383833" lon="11.8200006"><ele>20.0</ele><time>2026-04-29T10:21:24.2Z</time></trkpt><trkpt lat="45.5383864" lon="11.8200977"><ele>20.0</ele><time>2026-04-29T10:21:25.2Z</time></trkpt><trkpt lat="45.5384002" lon="11.8202614"><ele>20.0</ele><time>2026-04-29T10:21:27.201Z</time></trkpt><trkpt lat="45.5384099" lon="11.8204242"><ele>20.0</ele><time>2026-04-29T10:21:29.2Z</time></trkpt><trkpt lat="45.5384191" lon="11.8205705"><ele>20.0</ele><time>2026-04-29T10:21:31.201Z</time></trkpt><trkpt lat="45.5384298" lon="11.8206937"><ele>20.333333333333336</ele><time>2026-04-29T10:21:33.2Z</time></trkpt><trkpt lat="45.538439" lon="11.8207998"><ele>20.666666666666668</ele><time>2026-04-29T10:21:35.201Z</time></trkpt><trkpt lat="45.5384412" lon="11.8209189"><ele>21.0</ele><time>2026-04-29T10:21:37.2Z</time></trkpt><trkpt lat="45.5384494" lon="11.8210555"><ele>21.333333333333332</ele><time>2026-04-29T10:21:39.2Z</time></trkpt><trkpt lat="45.5384687" lon="11.8212093"><ele>21.666666666666664</ele><time>2026-04-29T10:21:41.2Z</time></trkpt><trkpt lat="45.5384723" lon="11.821315"><ele>22.0</ele><time>2026-04-29T10:21:42.2Z</time></trkpt><trkpt lat="45.5384819" lon="11.8214303"><ele>22.142857142857142</ele><time>2026-04-29T10:21:43.2Z</time></trkpt><trkpt lat="45.5384948" lon="11.8215473"><ele>22.285714285714285</ele><time>2026-04-29T10:21:44.2Z</time></trkpt><trkpt lat="45.5385056" lon="11.8216472"><ele>22.42857142857143</ele><time>2026-04-29T10:21:45.2Z</time></trkpt><trkpt lat="45.5385188" lon="11.8217514"><ele>22.57142857142857</ele><time>2026-04-29T10:21:46.2Z</time></trkpt><trkpt lat="45.5385253" lon="11.8218477"><ele>22.71428571428571</ele><time>2026-04-29T10:21:47.201Z</time></trkpt><trkpt lat="45.5385302" lon="11.8219499"><ele>22.857142857142858</ele><time>2026-04-29T10:21:48.2Z</time></trkpt><trkpt lat="45.5385359" lon="11.8220437"><ele>23.0</ele><time>2026-04-29T10:21:49.199Z</time></trkpt><trkpt lat="45.5385622" lon="11.8222168"><ele>23.0</ele><time>2026-04-29T10:21:51.199Z</time></trkpt><trkpt lat="45.5385997" lon="11.8223764"><ele>23.0</ele><time>2026-04-29T10:21:53.2Z</time></trkpt><trkpt lat="45.5386271" lon="11.8224619"><ele>23.0</ele><time>2026-04-29T10:21:54.199Z</time></trkpt><trkpt lat="45.5386755" lon="11.8226235"><ele>23.0</ele><time>2026-04-29T10:21:56.199Z</time></trkpt><trkpt lat="45.5386973" lon="11.8227953"><ele>23.0</ele><time>2026-04-29T10:21:58.199Z</time></trkpt><trkpt lat="45.5387161" lon="11.8229497"><ele>23.166666666666668</ele><time>2026-04-29T10:22:00.199Z</time></trkpt><trkpt lat="45.5387355" lon="11.8230887"><ele>23.333333333333336</ele><time>2026-04-29T10:22:02.199Z</time></trkpt><trkpt lat="45.5387539" lon="11.8232144"><ele>23.5</ele><time>2026-04-29T10:22:04.2Z</time></trkpt><trkpt lat="45.538772" lon="11.8233271"><ele>23.666666666666668</ele><time>2026-04-29T10:22:06.199Z</time></trkpt><trkpt lat="45.5387733" lon="11.8234332"><ele>23.833333333333332</ele><time>2026-04-29T10:22:08.2Z</time></trkpt><trkpt lat="45.5387777" lon="11.823542"><ele>24.0</ele><time>2026-04-29T10:22:10.199Z</time></trkpt><trkpt lat="45.5388016" lon="11.8236292"><ele>24.0</ele><time>2026-04-29T10:22:12.2Z</time></trkpt><trkpt lat="45.538862" lon="11.8236584"><ele>24.0</ele><time>2026-04-29T10:22:15.199Z</time></trkpt><trkpt lat="45.5389195" lon="11.8236041"><ele>24.0</ele><time>2026-04-29T10:22:20.199Z</time></trkpt><trkpt lat="45.5390043" lon="11.8235331"><ele>24.0</ele><time>2026-04-29T10:22:23.2Z</time></trkpt><trkpt lat="45.5391018" lon="11.8234523"><ele>24.0</ele><time>2026-04-29T10:22:25.199Z</time></trkpt><trkpt lat="45.5391866" lon="11.8233909"><ele>24.0</ele><time>2026-04-29T10:22:27.2Z</time></trkpt><trkpt lat="45.5392662" lon="11.823329"><ele>24.166666666666668</ele><time>2026-04-29T10:22:29.2Z</time></trkpt><trkpt lat="45.5393445" lon="11.823268"><ele>24.333333333333336</ele><time>2026-04-29T10:22:31.199Z</time></trkpt><trkpt lat="45.5394161" lon="11.8232145"><ele>24.5</ele><time>2026-04-29T10:22:33.199Z</time></trkpt><trkpt lat="45.5394856" lon="11.8231676"><ele>24.666666666666668</ele><time>2026-04-29T10:22:35.199Z</time></trkpt><trkpt lat="45.5395562" lon="11.8231131"><ele>24.833333333333336</ele><time>2026-04-29T10:22:38.2Z</time></trkpt><trkpt lat="45.5396009" lon="11.8231835"><ele>25.0</ele><time>2026-04-29T10:22:48.199Z</time></trkpt><trkpt lat="45.5395654" lon="11.8232871"><ele>25.0</ele><time>2026-04-29T10:22:52.2Z</time></trkpt><trkpt lat="45.5395183" lon="11.8233579"><ele>25.0</ele><time>2026-04-29T10:23:09.2Z</time></trkpt><trkpt lat="45.5395822" lon="11.8233509"><ele>25.0</ele><time>2026-04-29T10:24:03.911Z</time></trkpt><trkpt lat="45.5393613" lon="11.8232163"><ele>25.0</ele><time>2026-04-29T10:24:46.199Z</time></trkpt><trkpt lat="45.5397102" lon="11.823756"><ele>24.8</ele><time>2026-04-29T10:25:02.199Z</time></trkpt><trkpt lat="45.5396102" lon="11.8236684"><ele>24.6</ele><time>2026-04-29T10:25:32.199Z</time></trkpt><trkpt lat="45.5395675" lon="11.8235787"><ele>24.4</ele><time>2026-04-29T10:25:44.199Z</time></trkpt><trkpt lat="45.5395185" lon="11.8233614"><ele>24.2</ele><time>2026-04-29T10:27:07.198Z</time></trkpt><trkpt lat="45.5394593" lon="11.8233099"><ele>24.0</ele><time>2026-04-29T10:27:15.198Z</time></trkpt><trkpt lat="45.5395122" lon="11.8233707"><ele>26.0</ele><time>2026-04-29T10:27:51.198Z</time></trkpt></trkseg><trkseg><trkpt lat="45.5394385" lon="11.8233473"><ele>25.999999999999996</ele><time>2026-04-29T10:38:06.195Z</time></trkpt><trkpt lat="45.5393722" lon="11.8233982"><ele>26.0</ele><time>2026-04-29T10:38:10.195Z</time></trkpt><trkpt lat="45.5392999" lon="11.8234331"><ele>26.0</ele><time>2026-04-29T10:38:13.196Z</time></trkpt><trkpt lat="45.5392349" lon="11.8234446"><ele>26.0</ele><time>2026-04-29T10:38:15.195Z</time></trkpt><trkpt lat="45.5391458" lon="11.8234888"><ele>25.999999999999996</ele><time>2026-04-29T10:38:17.196Z</time></trkpt><trkpt lat="45.5390579" lon="11.8235583"><ele>26.0</ele><time>2026-04-29T10:38:19.195Z</time></trkpt><trkpt lat="45.5389677" lon="11.8236269"><ele>25.6</ele><time>2026-04-29T10:38:21.196Z</time></trkpt><trkpt lat="45.5388733" lon="11.8237087"><ele>25.200000000000003</ele><time>2026-04-29T10:38:23.195Z</time></trkpt><trkpt lat="45.5387811" lon="11.8237741"><ele>24.799999999999997</ele><time>2026-04-29T10:38:25.195Z</time></trkpt><trkpt lat="45.5386855" lon="11.8238401"><ele>24.4</ele><time>2026-04-29T10:38:27.195Z</time></trkpt><trkpt lat="45.5385938" lon="11.823925"><ele>24.0</ele><time>2026-04-29T10:38:29.195Z</time></trkpt><trkpt lat="45.5384983" lon="11.8240096"><ele>23.833333333333332</ele><time>2026-04-29T10:38:31.195Z</time></trkpt><trkpt lat="45.5384436" lon="11.8240589"><ele>23.666666666666668</ele><time>2026-04-29T10:38:32.195Z</time></trkpt><trkpt lat="45.538337" lon="11.8241458"><ele>23.5</ele><time>2026-04-29T10:38:34.195Z</time></trkpt><trkpt lat="45.5382766" lon="11.8241897"><ele>23.333333333333336</ele><time>2026-04-29T10:38:35.195Z</time></trkpt><trkpt lat="45.5382212" lon="11.8242435"><ele>23.166666666666668</ele><time>2026-04-29T10:38:36.195Z</time></trkpt><trkpt lat="45.5381629" lon="11.8242959"><ele>23.0</ele><time>2026-04-29T10:38:37.195Z</time></trkpt><trkpt lat="45.5381026" lon="11.8243476"><ele>23.0</ele><time>2026-04-29T10:38:38.195Z</time></trkpt><trkpt lat="45.5380445" lon="11.8243891"><ele>23.0</ele><time>2026-04-29T10:38:39.196Z</time></trkpt><trkpt lat="45.5379826" lon="11.8244352"><ele>23.0</ele><time>2026-04-29T10:38:40.195Z</time></trkpt><trkpt lat="45.5379207" lon="11.8244836"><ele>23.0</ele><time>2026-04-29T10:38:41.196Z</time></trkpt><trkpt lat="45.5378533" lon="11.8245299"><ele>23.0</ele><time>2026-04-29T10:38:42.195Z</time></trkpt><trkpt lat="45.5377841" lon="11.8245743"><ele>23.0</ele><time>2026-04-29T10:38:43.195Z</time></trkpt><trkpt lat="45.5377213" lon="11.8246256"><ele>23.0</ele><time>2026-04-29T10:38:44.195Z</time></trkpt><trkpt lat="45.537662" lon="11.8246681"><ele>23.0</ele><time>2026-04-29T10:38:45.195Z</time></trkpt><trkpt lat="45.5376032" lon="11.8247195"><ele>23.0</ele><time>2026-04-29T10:38:46.195Z</time></trkpt><trkpt lat="45.5375441" lon="11.8247664"><ele>23.0</ele><time>2026-04-29T10:38:47.196Z</time></trkpt><trkpt lat="45.5374826" lon="11.824808"><ele>23.0</ele><time>2026-04-29T10:38:48.195Z</time></trkpt><trkpt lat="45.5374137" lon="11.8248524"><ele>23.0</ele><time>2026-04-29T10:38:49.196Z</time></trkpt><trkpt lat="45.5373461" lon="11.8248955"><ele>23.0</ele><time>2026-04-29T10:38:50.195Z</time></trkpt><trkpt lat="45.5372754" lon="11.8249416"><ele>23.0</ele><time>2026-04-29T10:38:51.195Z</time></trkpt><trkpt lat="45.5372084" lon="11.8249927"><ele>23.0</ele><time>2026-04-29T10:38:52.195Z</time></trkpt><trkpt lat="45.5371419" lon="11.8250413"><ele>23.0</ele><time>2026-04-29T10:38:53.195Z</time></trkpt><trkpt lat="45.5370727" lon="11.8250844"><ele>23.0</ele><time>2026-04-29T10:38:54.196Z</time></trkpt><trkpt lat="45.5370071" lon="11.8251281"><ele>23.0</ele><time>2026-04-29T10:38:55.195Z</time></trkpt><trkpt lat="45.5369403" lon="11.8251758"><ele>23.0</ele><time>2026-04-29T10:38:56.195Z</time></trkpt><trkpt lat="45.5368737" lon="11.8252241"><ele>23.0</ele><time>2026-04-29T10:38:57.195Z</time></trkpt><trkpt lat="45.5368063" lon="11.8252706"><ele>23.0</ele><time>2026-04-29T10:38:58.195Z</time></trkpt><trkpt lat="45.5367412" lon="11.8253193"><ele>23.0</ele><time>2026-04-29T10:38:59.196Z</time></trkpt><trkpt lat="45.5366752" lon="11.8253694"><ele>23.0</ele><time>2026-04-29T10:39:00.195Z</time></trkpt><trkpt lat="45.5366146" lon="11.8254214"><ele>23.0</ele><time>2026-04-29T10:39:01.195Z</time></trkpt><trkpt lat="45.5365544" lon="11.8254733"><ele>23.0</ele><time>2026-04-29T10:39:02.196Z</time></trkpt><trkpt lat="45.5364906" lon="11.8255172"><ele>23.0</ele><time>2026-04-29T10:39:03.195Z</time></trkpt><trkpt lat="45.5364256" lon="11.825558"><ele>23.0</ele><time>2026-04-29T10:39:04.196Z</time></trkpt><trkpt lat="45.5363657" lon="11.8255979"><ele>23.0</ele><time>2026-04-29T10:39:05.195Z</time></trkpt><trkpt lat="45.5363053" lon="11.8256318"><ele>22.833333333333336</ele><time>2026-04-29T10:39:06.195Z</time></trkpt><trkpt lat="45.536197" lon="11.8257239"><ele>22.666666666666668</ele><time>2026-04-29T10:39:08.196Z</time></trkpt><trkpt lat="45.5361551" lon="11.8257943"><ele>22.5</ele><time>2026-04-29T10:39:09.196Z</time></trkpt><trkpt lat="45.5361197" lon="11.8258735"><ele>22.333333333333332</ele><time>2026-04-29T10:39:10.195Z</time></trkpt><trkpt lat="45.5360813" lon="11.8259602"><ele>22.166666666666664</ele><time>2026-04-29T10:39:11.195Z</time></trkpt><trkpt lat="45.5360404" lon="11.8260359"><ele>22.0</ele><time>2026-04-29T10:39:12.195Z</time></trkpt><trkpt lat="45.535988" lon="11.8261012"><ele>21.857142857142858</ele><time>2026-04-29T10:39:13.195Z</time></trkpt><trkpt lat="45.5359332" lon="11.8261546"><ele>21.714285714285715</ele><time>2026-04-29T10:39:14.195Z</time></trkpt><trkpt lat="45.5358741" lon="11.8262104"><ele>21.57142857142857</ele><time>2026-04-29T10:39:15.195Z</time></trkpt><trkpt lat="45.5358153" lon="11.8262636"><ele>21.42857142857143</ele><time>2026-04-29T10:39:16.196Z</time></trkpt><trkpt lat="45.5357609" lon="11.8263094"><ele>21.285714285714285</ele><time>2026-04-29T10:39:17.195Z</time></trkpt><trkpt lat="45.535701" lon="11.8263581"><ele>21.142857142857142</ele><time>2026-04-29T10:39:18.195Z</time></trkpt><trkpt lat="45.5356411" lon="11.826408"><ele>21.0</ele><time>2026-04-29T10:39:19.195Z</time></trkpt><trkpt lat="45.5355782" lon="11.8264627"><ele>21.0</ele><time>2026-04-29T10:39:20.195Z</time></trkpt><trkpt lat="45.5355185" lon="11.8265122"><ele>21.0</ele><time>2026-04-29T10:39:21.195Z</time></trkpt><trkpt lat="45.5354584" lon="11.8265627"><ele>21.0</ele><time>2026-04-29T10:39:22.196Z</time></trkpt><trkpt lat="45.5353975" lon="11.8266158"><ele>21.0</ele><time>2026-04-29T10:39:23.195Z</time></trkpt><trkpt lat="45.5353353" lon="11.826665"><ele>21.0</ele><time>2026-04-29T10:39:24.196Z</time></trkpt><trkpt lat="45.5352728" lon="11.8267211"><ele>21.0</ele><time>2026-04-29T10:39:25.196Z</time></trkpt><trkpt lat="45.5352073" lon="11.8267785"><ele>21.0</ele><time>2026-04-29T10:39:26.196Z</time></trkpt><trkpt lat="45.5351445" lon="11.8268244"><ele>21.142857142857142</ele><time>2026-04-29T10:39:27.195Z</time></trkpt><trkpt lat="45.535083" lon="11.8268748"><ele>21.285714285714285</ele><time>2026-04-29T10:39:28.196Z</time></trkpt><trkpt lat="45.5350183" lon="11.8269272"><ele>21.42857142857143</ele><time>2026-04-29T10:39:29.195Z</time></trkpt><trkpt lat="45.5349551" lon="11.8269839"><ele>21.57142857142857</ele><time>2026-04-29T10:39:30.195Z</time></trkpt><trkpt lat="45.5348915" lon="11.8270378"><ele>21.714285714285715</ele><time>2026-04-29T10:39:31.194Z</time></trkpt><trkpt lat="45.5348302" lon="11.8270884"><ele>21.857142857142858</ele><time>2026-04-29T10:39:32.194Z</time></trkpt><trkpt lat="45.5347682" lon="11.8271412"><ele>22.0</ele><time>2026-04-29T10:39:33.194Z</time></trkpt><trkpt lat="45.5347025" lon="11.8271937"><ele>22.0</ele><time>2026-04-29T10:39:34.194Z</time></trkpt><trkpt lat="45.5346387" lon="11.8272474"><ele>22.0</ele><time>2026-04-29T10:39:35.195Z</time></trkpt><trkpt lat="45.5345773" lon="11.8272986"><ele>22.0</ele><time>2026-04-29T10:39:36.195Z</time></trkpt><trkpt lat="45.534511" lon="11.8273495"><ele>22.0</ele><time>2026-04-29T10:39:37.194Z</time></trkpt><trkpt lat="45.5344485" lon="11.8274019"><ele>22.0</ele><time>2026-04-29T10:39:38.195Z</time></trkpt><trkpt lat="45.5343854" lon="11.827458"><ele>22.0</ele><time>2026-04-29T10:39:39.194Z</time></trkpt><trkpt lat="45.5343225" lon="11.8275118"><ele>22.0</ele><time>2026-04-29T10:39:40.194Z</time></trkpt><trkpt lat="45.5342619" lon="11.8275638"><ele>22.0</ele><time>2026-04-29T10:39:41.194Z</time></trkpt><trkpt lat="45.5341994" lon="11.8276127"><ele>22.0</ele><time>2026-04-29T10:39:42.195Z</time></trkpt><trkpt lat="45.5341357" lon="11.8276586"><ele>22.0</ele><time>2026-04-29T10:39:43.195Z</time></trkpt><trkpt lat="45.5340752" lon="11.8277084"><ele>22.0</ele><time>2026-04-29T10:39:44.195Z</time></trkpt><trkpt lat="45.5340158" lon="11.8277647"><ele>22.0</ele><time>2026-04-29T10:39:45.194Z</time></trkpt><trkpt lat="45.5339544" lon="11.8278141"><ele>22.0</ele><time>2026-04-29T10:39:46.194Z</time></trkpt><trkpt lat="45.5338926" lon="11.8278626"><ele>22.0</ele><time>2026-04-29T10:39:47.194Z</time></trkpt><trkpt lat="45.5338323" lon="11.8279135"><ele>22.0</ele><time>2026-04-29T10:39:48.194Z</time></trkpt><trkpt lat="45.5337671" lon="11.8279679"><ele>22.0</ele><time>2026-04-29T10:39:49.195Z</time></trkpt><trkpt lat="45.5337099" lon="11.828021"><ele>22.0</ele><time>2026-04-29T10:39:50.194Z</time></trkpt><trkpt lat="45.5336514" lon="11.8280774"><ele>22.0</ele><time>2026-04-29T10:39:51.194Z</time></trkpt><trkpt lat="45.5335906" lon="11.8281274"><ele>22.0</ele><time>2026-04-29T10:39:52.194Z</time></trkpt><trkpt lat="45.5335292" lon="11.8281723"><ele>22.0</ele><time>2026-04-29T10:39:53.195Z</time></trkpt><trkpt lat="45.5334709" lon="11.828221"><ele>22.0</ele><time>2026-04-29T10:39:54.194Z</time></trkpt><trkpt lat="45.5334102" lon="11.8282656"><ele>21.857142857142858</ele><time>2026-04-29T10:39:55.194Z</time></trkpt><trkpt lat="45.5333493" lon="11.8283149"><ele>21.714285714285715</ele><time>2026-04-29T10:39:56.195Z</time></trkpt><trkpt lat="45.5332893" lon="11.8283659"><ele>21.57142857142857</ele><time>2026-04-29T10:39:57.195Z</time></trkpt><trkpt lat="45.5332297" lon="11.8284122"><ele>21.42857142857143</ele><time>2026-04-29T10:39:58.194Z</time></trkpt><trkpt lat="45.5331694" lon="11.8284644"><ele>21.285714285714285</ele><time>2026-04-29T10:39:59.195Z</time></trkpt><trkpt lat="45.5331113" lon="11.8285176"><ele>21.142857142857142</ele><time>2026-04-29T10:40:00.194Z</time></trkpt><trkpt lat="45.5330529" lon="11.8285675"><ele>21.0</ele><time>2026-04-29T10:40:01.194Z</time></trkpt><trkpt lat="45.5329421" lon="11.8286604"><ele>20.6</ele><time>2026-04-29T10:40:03.194Z</time></trkpt><trkpt lat="45.5328341" lon="11.8287537"><ele>20.200000000000003</ele><time>2026-04-29T10:40:05.195Z</time></trkpt><trkpt lat="45.5327798" lon="11.8287996"><ele>19.799999999999997</ele><time>2026-04-29T10:40:06.194Z</time></trkpt><trkpt lat="45.5326707" lon="11.8288896"><ele>19.4</ele><time>2026-04-29T10:40:08.194Z</time></trkpt><trkpt lat="45.532614" lon="11.8289342"><ele>19.0</ele><time>2026-04-29T10:40:09.195Z</time></trkpt><trkpt lat="45.5325046" lon="11.8290201"><ele>19.0</ele><time>2026-04-29T10:40:11.194Z</time></trkpt><trkpt lat="45.5324442" lon="11.8290562"><ele>19.0</ele><time>2026-04-29T10:40:12.194Z</time></trkpt><trkpt lat="45.5323217" lon="11.8290886"><ele>19.0</ele><time>2026-04-29T10:40:14.194Z</time></trkpt><trkpt lat="45.5322522" lon="11.8291247"><ele>19.0</ele><time>2026-04-29T10:40:15.194Z</time></trkpt><trkpt lat="45.5321829" lon="11.829169"><ele>19.0</ele><time>2026-04-29T10:40:16.194Z</time></trkpt><trkpt lat="45.5321169" lon="11.8292281"><ele>19.0</ele><time>2026-04-29T10:40:17.194Z</time></trkpt><trkpt lat="45.5320658" lon="11.8292917"><ele>19.0</ele><time>2026-04-29T10:40:18.195Z</time></trkpt><trkpt lat="45.5319755" lon="11.8293898"><ele>19.0</ele><time>2026-04-29T10:40:20.194Z</time></trkpt><trkpt lat="45.5319013" lon="11.8294798"><ele>19.0</ele><time>2026-04-29T10:40:22.194Z</time></trkpt><trkpt lat="45.5318237" lon="11.8295643"><ele>19.0</ele><time>2026-04-29T10:40:24.194Z</time></trkpt><trkpt lat="45.5317341" lon="11.829645"><ele>19.0</ele><time>2026-04-29T10:40:26.195Z</time></trkpt><trkpt lat="45.5316273" lon="11.8297209"><ele>19.0</ele><time>2026-04-29T10:40:28.194Z</time></trkpt><trkpt lat="45.5315109" lon="11.8297892"><ele>19.0</ele><time>2026-04-29T10:40:30.194Z</time></trkpt><trkpt lat="45.5314474" lon="11.8298199"><ele>19.0</ele><time>2026-04-29T10:40:31.194Z</time></trkpt><trkpt lat="45.5313884" lon="11.8298531"><ele>19.0</ele><time>2026-04-29T10:40:32.195Z</time></trkpt><trkpt lat="45.5313249" lon="11.8298848"><ele>19.0</ele><time>2026-04-29T10:40:33.195Z</time></trkpt><trkpt lat="45.5312639" lon="11.82992"><ele>19.0</ele><time>2026-04-29T10:40:34.194Z</time></trkpt><trkpt lat="45.5312047" lon="11.8299513"><ele>19.0</ele><time>2026-04-29T10:40:35.194Z</time></trkpt><trkpt lat="45.5310913" lon="11.8300178"><ele>19.0</ele><time>2026-04-29T10:40:37.195Z</time></trkpt><trkpt lat="45.5309874" lon="11.8300856"><ele>19.0</ele><time>2026-04-29T10:40:39.194Z</time></trkpt><trkpt lat="45.5308825" lon="11.8301378"><ele>19.0</ele><time>2026-04-29T10:40:41.195Z</time></trkpt><trkpt lat="45.5307736" lon="11.8301706"><ele>19.0</ele><time>2026-04-29T10:40:43.194Z</time></trkpt><trkpt lat="45.5306588" lon="11.8301461"><ele>19.0</ele><time>2026-04-29T10:40:45.194Z</time></trkpt><trkpt lat="45.5305513" lon="11.8300698"><ele>19.0</ele><time>2026-04-29T10:40:47.194Z</time></trkpt><trkpt lat="45.5304881" lon="11.8300594"><ele>19.0</ele><time>2026-04-29T10:40:48.195Z</time></trkpt><trkpt lat="45.5304205" lon="11.8300723"><ele>19.0</ele><time>2026-04-29T10:40:49.194Z</time></trkpt><trkpt lat="45.5303167" lon="11.8301667"><ele>19.333333333333332</ele><time>2026-04-29T10:40:51.195Z</time></trkpt><trkpt lat="45.5302201" lon="11.8302843"><ele>19.666666666666664</ele><time>2026-04-29T10:40:53.195Z</time></trkpt><trkpt lat="45.5301583" lon="11.8303296"><ele>20.0</ele><time>2026-04-29T10:40:54.194Z</time></trkpt><trkpt lat="45.5301002" lon="11.8303662"><ele>20.333333333333332</ele><time>2026-04-29T10:40:55.194Z</time></trkpt><trkpt lat="45.5300323" lon="11.8303974"><ele>20.666666666666668</ele><time>2026-04-29T10:40:56.194Z</time></trkpt><trkpt lat="45.5299639" lon="11.8304233"><ele>21.0</ele><time>2026-04-29T10:40:57.194Z</time></trkpt><trkpt lat="45.5298943" lon="11.8304437"><ele>21.0</ele><time>2026-04-29T10:40:58.195Z</time></trkpt><trkpt lat="45.5298235" lon="11.8304642"><ele>21.0</ele><time>2026-04-29T10:40:59.194Z</time></trkpt><trkpt lat="45.5297541" lon="11.8304869"><ele>21.0</ele><time>2026-04-29T10:41:00.195Z</time></trkpt><trkpt lat="45.5296894" lon="11.8305161"><ele>21.0</ele><time>2026-04-29T10:41:01.194Z</time></trkpt><trkpt lat="45.529623" lon="11.830542"><ele>21.0</ele><time>2026-04-29T10:41:02.194Z</time></trkpt><trkpt lat="45.5295018" lon="11.830561"><ele>21.0</ele><time>2026-04-29T10:41:04.194Z</time></trkpt><trkpt lat="45.5293864" lon="11.8305802"><ele>21.0</ele><time>2026-04-29T10:41:06.194Z</time></trkpt><trkpt lat="45.5292776" lon="11.8305984"><ele>21.0</ele><time>2026-04-29T10:41:08.194Z</time></trkpt><trkpt lat="45.5291951" lon="11.8306129"><ele>21.0</ele><time>2026-04-29T10:41:10.194Z</time></trkpt><trkpt lat="45.5291222" lon="11.8306605"><ele>21.0</ele><time>2026-04-29T10:41:12.194Z</time></trkpt><trkpt lat="45.5290899" lon="11.8307936"><ele>21.0</ele><time>2026-04-29T10:41:14.194Z</time></trkpt><trkpt lat="45.5290498" lon="11.8309485"><ele>21.166666666666668</ele><time>2026-04-29T10:41:16.194Z</time></trkpt><trkpt lat="45.5290008" lon="11.8310926"><ele>21.333333333333332</ele><time>2026-04-29T10:41:18.194Z</time></trkpt><trkpt lat="45.528954" lon="11.8311601"><ele>21.5</ele><time>2026-04-29T10:41:19.194Z</time></trkpt><trkpt lat="45.5288948" lon="11.8312159"><ele>21.666666666666664</ele><time>2026-04-29T10:41:20.195Z</time></trkpt><trkpt lat="45.5287785" lon="11.8312897"><ele>21.833333333333332</ele><time>2026-04-29T10:41:22.195Z</time></trkpt><trkpt lat="45.5287188" lon="11.831333"><ele>22.0</ele><time>2026-04-29T10:41:23.194Z</time></trkpt><trkpt lat="45.5286133" lon="11.8314156"><ele>21.6</ele><time>2026-04-29T10:41:25.195Z</time></trkpt><trkpt lat="45.528517" lon="11.8315084"><ele>21.200000000000003</ele><time>2026-04-29T10:41:27.195Z</time></trkpt><trkpt lat="45.5284176" lon="11.8315886"><ele>20.8</ele><time>2026-04-29T10:41:29.194Z</time></trkpt><trkpt lat="45.5283186" lon="11.8316804"><ele>20.4</ele><time>2026-04-29T10:41:31.194Z</time></trkpt><trkpt lat="45.5282641" lon="11.8317287"><ele>20.0</ele><time>2026-04-29T10:41:32.195Z</time></trkpt><trkpt lat="45.5282069" lon="11.831771"><ele>19.833333333333336</ele><time>2026-04-29T10:41:33.194Z</time></trkpt><trkpt lat="45.5281515" lon="11.8318229"><ele>19.666666666666668</ele><time>2026-04-29T10:41:34.195Z</time></trkpt><trkpt lat="45.5280904" lon="11.8318727"><ele>19.5</ele><time>2026-04-29T10:41:35.194Z</time></trkpt><trkpt lat="45.5280317" lon="11.8319221"><ele>19.333333333333332</ele><time>2026-04-29T10:41:36.195Z</time></trkpt><trkpt lat="45.5279737" lon="11.8319627"><ele>19.166666666666664</ele><time>2026-04-29T10:41:37.195Z</time></trkpt><trkpt lat="45.5279149" lon="11.8320124"><ele>19.0</ele><time>2026-04-29T10:41:38.195Z</time></trkpt><trkpt lat="45.5278061" lon="11.832094"><ele>19.0</ele><time>2026-04-29T10:41:40.194Z</time></trkpt><trkpt lat="45.527749" lon="11.8321358"><ele>19.0</ele><time>2026-04-29T10:41:41.195Z</time></trkpt><trkpt lat="45.5276909" lon="11.8321832"><ele>19.0</ele><time>2026-04-29T10:41:42.194Z</time></trkpt><trkpt lat="45.5276292" lon="11.832228"><ele>19.0</ele><time>2026-04-29T10:41:43.194Z</time></trkpt><trkpt lat="45.5275627" lon="11.8322698"><ele>19.0</ele><time>2026-04-29T10:41:44.194Z</time></trkpt><trkpt lat="45.5274932" lon="11.8322986"><ele>19.0</ele><time>2026-04-29T10:41:45.195Z</time></trkpt><trkpt lat="45.5274229" lon="11.8323214"><ele>19.0</ele><time>2026-04-29T10:41:46.194Z</time></trkpt><trkpt lat="45.5273507" lon="11.8323324"><ele>19.0</ele><time>2026-04-29T10:41:47.194Z</time></trkpt><trkpt lat="45.5272777" lon="11.8323396"><ele>19.0</ele><time>2026-04-29T10:41:48.195Z</time></trkpt><trkpt lat="45.5272073" lon="11.832345"><ele>19.0</ele><time>2026-04-29T10:41:49.195Z</time></trkpt><trkpt lat="45.5271345" lon="11.8323564"><ele>19.0</ele><time>2026-04-29T10:41:50.194Z</time></trkpt><trkpt lat="45.5270627" lon="11.832358"><ele>19.0</ele><time>2026-04-29T10:41:51.194Z</time></trkpt><trkpt lat="45.526992" lon="11.8323502"><ele>19.0</ele><time>2026-04-29T10:41:52.195Z</time></trkpt><trkpt lat="45.5269196" lon="11.8323442"><ele>19.0</ele><time>2026-04-29T10:41:53.194Z</time></trkpt><trkpt lat="45.526844" lon="11.832341"><ele>19.166666666666664</ele><time>2026-04-29T10:41:54.194Z</time></trkpt><trkpt lat="45.5267709" lon="11.8323372"><ele>19.333333333333332</ele><time>2026-04-29T10:41:55.194Z</time></trkpt><trkpt lat="45.5266982" lon="11.8323378"><ele>19.5</ele><time>2026-04-29T10:41:56.195Z</time></trkpt><trkpt lat="45.5266197" lon="11.8323424"><ele>19.666666666666668</ele><time>2026-04-29T10:41:57.194Z</time></trkpt><trkpt lat="45.5265431" lon="11.8323379"><ele>19.833333333333336</ele><time>2026-04-29T10:41:58.194Z</time></trkpt><trkpt lat="45.5264648" lon="11.8323338"><ele>20.0</ele><time>2026-04-29T10:41:59.194Z</time></trkpt><trkpt lat="45.5263865" lon="11.8323278"><ele>20.0</ele><time>2026-04-29T10:42:00.195Z</time></trkpt><trkpt lat="45.5263161" lon="11.83233"><ele>20.0</ele><time>2026-04-29T10:42:01.194Z</time></trkpt><trkpt lat="45.5262408" lon="11.8323336"><ele>20.0</ele><time>2026-04-29T10:42:02.194Z</time></trkpt><trkpt lat="45.5261576" lon="11.8323304"><ele>20.0</ele><time>2026-04-29T10:42:03.195Z</time></trkpt><trkpt lat="45.5260796" lon="11.8323242"><ele>20.0</ele><time>2026-04-29T10:42:04.195Z</time></trkpt><trkpt lat="45.5260089" lon="11.8323266"><ele>20.0</ele><time>2026-04-29T10:42:05.194Z</time></trkpt><trkpt lat="45.5259345" lon="11.8323353"><ele>20.0</ele><time>2026-04-29T10:42:06.194Z</time></trkpt><trkpt lat="45.5258572" lon="11.8323346"><ele>20.0</ele><time>2026-04-29T10:42:07.194Z</time></trkpt><trkpt lat="45.525779" lon="11.8323326"><ele>20.0</ele><time>2026-04-29T10:42:08.195Z</time></trkpt><trkpt lat="45.5257061" lon="11.8323316"><ele>20.0</ele><time>2026-04-29T10:42:09.194Z</time></trkpt><trkpt lat="45.5256329" lon="11.8323225"><ele>20.0</ele><time>2026-04-29T10:42:10.194Z</time></trkpt><trkpt lat="45.5255605" lon="11.8323175"><ele>20.0</ele><time>2026-04-29T10:42:11.195Z</time></trkpt><trkpt lat="45.5254855" lon="11.8323193"><ele>20.0</ele><time>2026-04-29T10:42:12.194Z</time></trkpt><trkpt lat="45.5254117" lon="11.8323199"><ele>19.857142857142858</ele><time>2026-04-29T10:42:13.194Z</time></trkpt><trkpt lat="45.5253416" lon="11.8323201"><ele>19.714285714285715</ele><time>2026-04-29T10:42:14.194Z</time></trkpt><trkpt lat="45.5252673" lon="11.8323147"><ele>19.57142857142857</ele><time>2026-04-29T10:42:15.194Z</time></trkpt><trkpt lat="45.5251979" lon="11.8323096"><ele>19.42857142857143</ele><time>2026-04-29T10:42:16.195Z</time></trkpt><trkpt lat="45.5251284" lon="11.8323045"><ele>19.28571428571429</ele><time>2026-04-29T10:42:17.195Z</time></trkpt><trkpt lat="45.5250639" lon="11.8322983"><ele>19.142857142857142</ele><time>2026-04-29T10:42:18.194Z</time></trkpt><trkpt lat="45.5250001" lon="11.8322961"><ele>19.0</ele><time>2026-04-29T10:42:19.195Z</time></trkpt><trkpt lat="45.5248954" lon="11.8323647"><ele>19.0</ele><time>2026-04-29T10:42:21.194Z</time></trkpt><trkpt lat="45.5248767" lon="11.8325219"><ele>19.0</ele><time>2026-04-29T10:42:23.195Z</time></trkpt><trkpt lat="45.5248788" lon="11.8327031"><ele>19.0</ele><time>2026-04-29T10:42:25.194Z</time></trkpt><trkpt lat="45.5248789" lon="11.8327954"><ele>19.0</ele><time>2026-04-29T10:42:26.195Z</time></trkpt><trkpt lat="45.5248664" lon="11.8329696"><ele>19.0</ele><time>2026-04-29T10:42:28.195Z</time></trkpt><trkpt lat="45.5248566" lon="11.8331406"><ele>19.0</ele><time>2026-04-29T10:42:30.194Z</time></trkpt><trkpt lat="45.5248539" lon="11.8332324"><ele>19.0</ele><time>2026-04-29T10:42:31.194Z</time></trkpt><trkpt lat="45.5248481" lon="11.8333245"><ele>19.0</ele><time>2026-04-29T10:42:32.194Z</time></trkpt><trkpt lat="45.5248402" lon="11.8334188"><ele>19.0</ele><time>2026-04-29T10:42:33.194Z</time></trkpt><trkpt lat="45.5248319" lon="11.8335106"><ele>19.0</ele><time>2026-04-29T10:42:34.194Z</time></trkpt><trkpt lat="45.5248187" lon="11.8336008"><ele>19.0</ele><time>2026-04-29T10:42:35.194Z</time></trkpt><trkpt lat="45.5248093" lon="11.8336913"><ele>19.0</ele><time>2026-04-29T10:42:36.195Z</time></trkpt><trkpt lat="45.5247967" lon="11.8338536"><ele>19.25</ele><time>2026-04-29T10:42:38.194Z</time></trkpt><trkpt lat="45.5247841" lon="11.8340095"><ele>19.5</ele><time>2026-04-29T10:42:40.195Z</time></trkpt><trkpt lat="45.5247736" lon="11.834167"><ele>19.75</ele><time>2026-04-29T10:42:42.194Z</time></trkpt><trkpt lat="45.5247672" lon="11.8343447"><ele>20.0</ele><time>2026-04-29T10:42:44.194Z</time></trkpt><trkpt lat="45.5247567" lon="11.8345109"><ele>19.75</ele><time>2026-04-29T10:42:46.195Z</time></trkpt><trkpt lat="45.5247291" lon="11.8346719"><ele>19.5</ele><time>2026-04-29T10:42:48.194Z</time></trkpt><trkpt lat="45.5246506" lon="11.8347789"><ele>19.25</ele><time>2026-04-29T10:42:50.195Z</time></trkpt><trkpt lat="45.5245255" lon="11.8347807"><ele>19.0</ele><time>2026-04-29T10:42:52.194Z</time></trkpt><trkpt lat="45.5244067" lon="11.8347538"><ele>19.0</ele><time>2026-04-29T10:42:54.195Z</time></trkpt><trkpt lat="45.5242895" lon="11.8347384"><ele>19.0</ele><time>2026-04-29T10:42:56.194Z</time></trkpt><trkpt lat="45.5241754" lon="11.8347336"><ele>19.0</ele><time>2026-04-29T10:42:58.194Z</time></trkpt><trkpt lat="45.5240988" lon="11.834832"><ele>19.0</ele><time>2026-04-29T10:43:00.193Z</time></trkpt><trkpt lat="45.5240699" lon="11.8349122"><ele>19.0</ele><time>2026-04-29T10:43:01.194Z</time></trkpt><trkpt lat="45.5240591" lon="11.8350798"><ele>18.75</ele><time>2026-04-29T10:43:03.193Z</time></trkpt><trkpt lat="45.5240598" lon="11.8352441"><ele>18.5</ele><time>2026-04-29T10:43:05.194Z</time></trkpt><trkpt lat="45.5240411" lon="11.835407"><ele>18.25</ele><time>2026-04-29T10:43:07.193Z</time></trkpt><trkpt lat="45.5240331" lon="11.8355753"><ele>18.0</ele><time>2026-04-29T10:43:09.193Z</time></trkpt><trkpt lat="45.5240316" lon="11.8357395"><ele>18.0</ele><time>2026-04-29T10:43:11.193Z</time></trkpt><trkpt lat="45.5240165" lon="11.8359095"><ele>18.0</ele><time>2026-04-29T10:43:13.193Z</time></trkpt><trkpt lat="45.5240162" lon="11.8360858"><ele>18.0</ele><time>2026-04-29T10:43:15.193Z</time></trkpt><trkpt lat="45.5240096" lon="11.8362581"><ele>18.0</ele><time>2026-04-29T10:43:17.193Z</time></trkpt><trkpt lat="45.5239578" lon="11.8364115"><ele>17.75</ele><time>2026-04-29T10:43:19.193Z</time></trkpt><trkpt lat="45.5238521" lon="11.8364725"><ele>17.5</ele><time>2026-04-29T10:43:21.193Z</time></trkpt><trkpt lat="45.5237464" lon="11.836436"><ele>17.25</ele><time>2026-04-29T10:43:23.193Z</time></trkpt><trkpt lat="45.5236254" lon="11.836391"><ele>17.0</ele><time>2026-04-29T10:43:25.193Z</time></trkpt><trkpt lat="45.5235008" lon="11.8363647"><ele>17.0</ele><time>2026-04-29T10:43:27.194Z</time></trkpt><trkpt lat="45.5233765" lon="11.8363313"><ele>17.0</ele><time>2026-04-29T10:43:29.194Z</time></trkpt><trkpt lat="45.5233122" lon="11.8363125"><ele>17.0</ele><time>2026-04-29T10:43:30.193Z</time></trkpt><trkpt lat="45.523249" lon="11.8362959"><ele>17.0</ele><time>2026-04-29T10:43:31.193Z</time></trkpt><trkpt lat="45.5231832" lon="11.8362867"><ele>17.0</ele><time>2026-04-29T10:43:32.193Z</time></trkpt><trkpt lat="45.5231188" lon="11.8362709"><ele>17.0</ele><time>2026-04-29T10:43:33.193Z</time></trkpt><trkpt lat="45.5229966" lon="11.8362394"><ele>17.4</ele><time>2026-04-29T10:43:35.193Z</time></trkpt><trkpt lat="45.5228722" lon="11.8362114"><ele>17.799999999999997</ele><time>2026-04-29T10:43:37.193Z</time></trkpt><trkpt lat="45.5227496" lon="11.8361847"><ele>18.2</ele><time>2026-04-29T10:43:39.193Z</time></trkpt><trkpt lat="45.5226861" lon="11.8361785"><ele>18.599999999999998</ele><time>2026-04-29T10:43:40.193Z</time></trkpt><trkpt lat="45.5225615" lon="11.8361484"><ele>19.0</ele><time>2026-04-29T10:43:42.194Z</time></trkpt><trkpt lat="45.5224982" lon="11.8361339"><ele>19.0</ele><time>2026-04-29T10:43:43.193Z</time></trkpt><trkpt lat="45.5223824" lon="11.8361127"><ele>19.0</ele><time>2026-04-29T10:43:45.194Z</time></trkpt><trkpt lat="45.5222714" lon="11.8360884"><ele>19.0</ele><time>2026-04-29T10:43:47.193Z</time></trkpt><trkpt lat="45.522166" lon="11.8360711"><ele>19.0</ele><time>2026-04-29T10:43:49.193Z</time></trkpt><trkpt lat="45.5220668" lon="11.836076"><ele>19.0</ele><time>2026-04-29T10:43:51.193Z</time></trkpt><trkpt lat="45.5219818" lon="11.8360816"><ele>18.833333333333332</ele><time>2026-04-29T10:43:53.193Z</time></trkpt><trkpt lat="45.5219414" lon="11.8361721"><ele>18.666666666666664</ele><time>2026-04-29T10:43:56.193Z</time></trkpt><trkpt lat="45.5219498" lon="11.8362764"><ele>18.5</ele><time>2026-04-29T10:43:58.193Z</time></trkpt><trkpt lat="45.521945" lon="11.8363899"><ele>18.333333333333332</ele><time>2026-04-29T10:44:00.193Z</time></trkpt><trkpt lat="45.5219388" lon="11.8365205"><ele>18.166666666666668</ele><time>2026-04-29T10:44:02.193Z</time></trkpt><trkpt lat="45.5219361" lon="11.8366576"><ele>18.0</ele><time>2026-04-29T10:44:04.193Z</time></trkpt><trkpt lat="45.5219295" lon="11.8368047"><ele>18.0</ele><time>2026-04-29T10:44:06.193Z</time></trkpt><trkpt lat="45.521927" lon="11.8369501"><ele>18.0</ele><time>2026-04-29T10:44:08.194Z</time></trkpt><trkpt lat="45.5219191" lon="11.837104"><ele>18.0</ele><time>2026-04-29T10:44:10.193Z</time></trkpt><trkpt lat="45.5219139" lon="11.837251"><ele>18.0</ele><time>2026-04-29T10:44:12.193Z</time></trkpt><trkpt lat="45.5219075" lon="11.8373961"><ele>18.0</ele><time>2026-04-29T10:44:14.193Z</time></trkpt><trkpt lat="45.5219026" lon="11.8375544"><ele>18.2</ele><time>2026-04-29T10:44:16.193Z</time></trkpt><trkpt lat="45.5218951" lon="11.8377007"><ele>18.4</ele><time>2026-04-29T10:44:18.194Z</time></trkpt><trkpt lat="45.5218884" lon="11.8378507"><ele>18.599999999999998</ele><time>2026-04-29T10:44:20.194Z</time></trkpt><trkpt lat="45.5218785" lon="11.8380009"><ele>18.8</ele><time>2026-04-29T10:44:22.193Z</time></trkpt><trkpt lat="45.5218657" lon="11.8381612"><ele>19.0</ele><time>2026-04-29T10:44:24.193Z</time></trkpt><trkpt lat="45.5218565" lon="11.8383"><ele>19.0</ele><time>2026-04-29T10:44:26.193Z</time></trkpt><trkpt lat="45.5218528" lon="11.8384515"><ele>19.0</ele><time>2026-04-29T10:44:28.193Z</time></trkpt><trkpt lat="45.5218564" lon="11.8386144"><ele>19.0</ele><time>2026-04-29T10:44:30.194Z</time></trkpt><trkpt lat="45.5218477" lon="11.8387742"><ele>19.0</ele><time>2026-04-29T10:44:32.194Z</time></trkpt><trkpt lat="45.5218595" lon="11.838933"><ele>19.0</ele><time>2026-04-29T10:44:34.194Z</time></trkpt><trkpt lat="45.5219193" lon="11.8390532"><ele>19.2</ele><time>2026-04-29T10:44:36.193Z</time></trkpt><trkpt lat="45.5219827" lon="11.8391913"><ele>19.4</ele><time>2026-04-29T10:44:38.193Z</time></trkpt><trkpt lat="45.5220416" lon="11.8393314"><ele>19.6</ele><time>2026-04-29T10:44:40.193Z</time></trkpt><trkpt lat="45.5220969" lon="11.8394645"><ele>19.8</ele><time>2026-04-29T10:44:42.193Z</time></trkpt><trkpt lat="45.522151" lon="11.839596"><ele>20.0</ele><time>2026-04-29T10:44:44.193Z</time></trkpt><trkpt lat="45.5221502" lon="11.8397194"><ele>20.0</ele><time>2026-04-29T10:44:46.193Z</time></trkpt><trkpt lat="45.5220951" lon="11.8398189"><ele>20.0</ele><time>2026-04-29T10:44:48.193Z</time></trkpt><trkpt lat="45.5220339" lon="11.839952"><ele>20.0</ele><time>2026-04-29T10:44:50.194Z</time></trkpt><trkpt lat="45.5219814" lon="11.8400827"><ele>20.0</ele><time>2026-04-29T10:44:52.194Z</time></trkpt><trkpt lat="45.5219253" lon="11.8402015"><ele>20.0</ele><time>2026-04-29T10:44:54.193Z</time></trkpt><trkpt lat="45.5218802" lon="11.8402896"><ele>19.666666666666668</ele><time>2026-04-29T10:44:56.193Z</time></trkpt><trkpt lat="45.5218465" lon="11.8403888"><ele>19.333333333333336</ele><time>2026-04-29T10:44:58.193Z</time></trkpt><trkpt lat="45.5218041" lon="11.8404705"><ele>19.0</ele><time>2026-04-29T10:45:00.194Z</time></trkpt><trkpt lat="45.5217472" lon="11.8405684"><ele>18.666666666666668</ele><time>2026-04-29T10:45:02.193Z</time></trkpt><trkpt lat="45.5216856" lon="11.8406438"><ele>18.333333333333332</ele><time>2026-04-29T10:45:04.194Z</time></trkpt><trkpt lat="45.5216063" lon="11.8407346"><ele>18.0</ele><time>2026-04-29T10:45:06.193Z</time></trkpt><trkpt lat="45.5215255" lon="11.8408293"><ele>18.0</ele><time>2026-04-29T10:45:08.193Z</time></trkpt><trkpt lat="45.5214368" lon="11.8409446"><ele>18.0</ele><time>2026-04-29T10:45:10.193Z</time></trkpt><trkpt lat="45.5213565" lon="11.8410441"><ele>18.0</ele><time>2026-04-29T10:45:12.193Z</time></trkpt><trkpt lat="45.5212828" lon="11.8411476"><ele>18.0</ele><time>2026-04-29T10:45:14.194Z</time></trkpt><trkpt lat="45.5212165" lon="11.8412283"><ele>18.0</ele><time>2026-04-29T10:45:16.194Z</time></trkpt><trkpt lat="45.5211438" lon="11.8412328"><ele>18.333333333333332</ele><time>2026-04-29T10:45:18.193Z</time></trkpt><trkpt lat="45.5210618" lon="11.8411948"><ele>18.666666666666668</ele><time>2026-04-29T10:45:20.194Z</time></trkpt><trkpt lat="45.5209838" lon="11.8411254"><ele>19.0</ele><time>2026-04-29T10:45:22.193Z</time></trkpt><trkpt lat="45.5209108" lon="11.8410559"><ele>19.333333333333336</ele><time>2026-04-29T10:45:24.193Z</time></trkpt><trkpt lat="45.5208311" lon="11.8410528"><ele>19.666666666666668</ele><time>2026-04-29T10:45:26.193Z</time></trkpt><trkpt lat="45.5207472" lon="11.8410913"><ele>20.0</ele><time>2026-04-29T10:45:28.193Z</time></trkpt><trkpt lat="45.5207066" lon="11.8412039"><ele>20.0</ele><time>2026-04-29T10:45:30.194Z</time></trkpt><trkpt lat="45.5206729" lon="11.841339"><ele>20.0</ele><time>2026-04-29T10:45:32.193Z</time></trkpt><trkpt lat="45.5206335" lon="11.8414752"><ele>20.0</ele><time>2026-04-29T10:45:34.193Z</time></trkpt><trkpt lat="45.520592" lon="11.841621"><ele>20.0</ele><time>2026-04-29T10:45:36.194Z</time></trkpt><trkpt lat="45.5205465" lon="11.8417539"><ele>20.0</ele><time>2026-04-29T10:45:38.194Z</time></trkpt><trkpt lat="45.5205094" lon="11.8418948"><ele>20.166666666666668</ele><time>2026-04-29T10:45:40.194Z</time></trkpt><trkpt lat="45.520462" lon="11.8420261"><ele>20.333333333333336</ele><time>2026-04-29T10:45:42.194Z</time></trkpt><trkpt lat="45.5204224" lon="11.8421431"><ele>20.5</ele><time>2026-04-29T10:45:44.194Z</time></trkpt><trkpt lat="45.5203917" lon="11.8422641"><ele>20.666666666666668</ele><time>2026-04-29T10:45:46.194Z</time></trkpt><trkpt lat="45.5203618" lon="11.8423775"><ele>20.833333333333332</ele><time>2026-04-29T10:45:48.194Z</time></trkpt><trkpt lat="45.5203308" lon="11.8424796"><ele>21.0</ele><time>2026-04-29T10:45:50.193Z</time></trkpt><trkpt lat="45.5202622" lon="11.8424944"><ele>20.0</ele><time>2026-04-29T10:45:53.193Z</time></trkpt><trkpt lat="45.5201991" lon="11.8425138"><ele>19.0</ele><time>2026-04-29T10:45:56.193Z</time></trkpt><trkpt lat="45.5201787" lon="11.8426125"><ele>18.0</ele><time>2026-04-29T10:45:59.194Z</time></trkpt><trkpt lat="45.5201503" lon="11.8427033"><ele>17.0</ele><time>2026-04-29T10:46:01.194Z</time></trkpt><trkpt lat="45.5201127" lon="11.842803"><ele>16.0</ele><time>2026-04-29T10:46:03.193Z</time></trkpt><trkpt lat="45.5200718" lon="11.8429334"><ele>15.0</ele><time>2026-04-29T10:46:05.193Z</time></trkpt><trkpt lat="45.5200392" lon="11.8430646"><ele>15.0</ele><time>2026-04-29T10:46:07.193Z</time></trkpt><trkpt lat="45.5199874" lon="11.8432087"><ele>15.0</ele><time>2026-04-29T10:46:09.193Z</time></trkpt><trkpt lat="45.5199454" lon="11.8433437"><ele>15.0</ele><time>2026-04-29T10:46:11.194Z</time></trkpt><trkpt lat="45.5199208" lon="11.8434268"><ele>15.0</ele><time>2026-04-29T10:46:12.193Z</time></trkpt><trkpt lat="45.5198736" lon="11.8435891"><ele>15.0</ele><time>2026-04-29T10:46:14.194Z</time></trkpt><trkpt lat="45.5198243" lon="11.8437552"><ele>15.333333333333334</ele><time>2026-04-29T10:46:16.193Z</time></trkpt><trkpt lat="45.5197776" lon="11.8439155"><ele>15.666666666666668</ele><time>2026-04-29T10:46:18.193Z</time></trkpt><trkpt lat="45.5197469" lon="11.8440018"><ele>16.0</ele><time>2026-04-29T10:46:19.193Z</time></trkpt><trkpt lat="45.5197154" lon="11.8440811"><ele>16.333333333333336</ele><time>2026-04-29T10:46:20.194Z</time></trkpt><trkpt lat="45.5196485" lon="11.8442292"><ele>16.666666666666668</ele><time>2026-04-29T10:46:22.193Z</time></trkpt><trkpt lat="45.5196112" lon="11.8443056"><ele>17.0</ele><time>2026-04-29T10:46:23.193Z</time></trkpt><trkpt lat="45.5195487" lon="11.8444551"><ele>17.4</ele><time>2026-04-29T10:46:25.194Z</time></trkpt><trkpt lat="45.5194901" lon="11.8446001"><ele>17.799999999999997</ele><time>2026-04-29T10:46:27.193Z</time></trkpt><trkpt lat="45.5194496" lon="11.8446745"><ele>18.2</ele><time>2026-04-29T10:46:28.193Z</time></trkpt><trkpt lat="45.5193668" lon="11.8448073"><ele>18.599999999999998</ele><time>2026-04-29T10:46:30.193Z</time></trkpt><trkpt lat="45.519282" lon="11.8449309"><ele>19.0</ele><time>2026-04-29T10:46:32.193Z</time></trkpt><trkpt lat="45.5191938" lon="11.8450449"><ele>18.75</ele><time>2026-04-29T10:46:34.192Z</time></trkpt><trkpt lat="45.5191082" lon="11.8451465"><ele>18.5</ele><time>2026-04-29T10:46:36.192Z</time></trkpt><trkpt lat="45.5190113" lon="11.8452477"><ele>18.25</ele><time>2026-04-29T10:46:38.192Z</time></trkpt><trkpt lat="45.5189062" lon="11.8453271"><ele>18.0</ele><time>2026-04-29T10:46:40.192Z</time></trkpt><trkpt lat="45.5187944" lon="11.8454021"><ele>18.0</ele><time>2026-04-29T10:46:42.192Z</time></trkpt><trkpt lat="45.5186812" lon="11.8454693"><ele>18.0</ele><time>2026-04-29T10:46:44.192Z</time></trkpt><trkpt lat="45.5186217" lon="11.8455012"><ele>18.0</ele><time>2026-04-29T10:46:45.192Z</time></trkpt><trkpt lat="45.5185031" lon="11.8455351"><ele>18.0</ele><time>2026-04-29T10:46:47.193Z</time></trkpt><trkpt lat="45.5183819" lon="11.8455536"><ele>18.0</ele><time>2026-04-29T10:46:49.192Z</time></trkpt><trkpt lat="45.5182599" lon="11.8455719"><ele>18.0</ele><time>2026-04-29T10:46:51.192Z</time></trkpt><trkpt lat="45.5181388" lon="11.8455863"><ele>18.0</ele><time>2026-04-29T10:46:53.192Z</time></trkpt><trkpt lat="45.5180175" lon="11.8456062"><ele>18.0</ele><time>2026-04-29T10:46:55.192Z</time></trkpt><trkpt lat="45.5178986" lon="11.8456217"><ele>18.0</ele><time>2026-04-29T10:46:57.193Z</time></trkpt><trkpt lat="45.5178341" lon="11.8456261"><ele>18.0</ele><time>2026-04-29T10:46:58.192Z</time></trkpt><trkpt lat="45.5177157" lon="11.8456152"><ele>18.0</ele><time>2026-04-29T10:47:00.192Z</time></trkpt><trkpt lat="45.5176528" lon="11.8455937"><ele>18.0</ele><time>2026-04-29T10:47:01.193Z</time></trkpt><trkpt lat="45.517591" lon="11.8455756"><ele>18.0</ele><time>2026-04-29T10:47:02.193Z</time></trkpt><trkpt lat="45.5175278" lon="11.8455532"><ele>18.0</ele><time>2026-04-29T10:47:03.193Z</time></trkpt><trkpt lat="45.5174208" lon="11.8454974"><ele>18.0</ele><time>2026-04-29T10:47:05.192Z</time></trkpt><trkpt lat="45.5173026" lon="11.8454633"><ele>18.0</ele><time>2026-04-29T10:47:07.192Z</time></trkpt><trkpt lat="45.5171857" lon="11.8454341"><ele>18.0</ele><time>2026-04-29T10:47:09.192Z</time></trkpt><trkpt lat="45.5170689" lon="11.8454065"><ele>18.0</ele><time>2026-04-29T10:47:11.192Z</time></trkpt><trkpt lat="45.5169587" lon="11.8453782"><ele>18.0</ele><time>2026-04-29T10:47:13.192Z</time></trkpt><trkpt lat="45.5168506" lon="11.845348"><ele>18.0</ele><time>2026-04-29T10:47:15.193Z</time></trkpt><trkpt lat="45.516751" lon="11.8453129"><ele>18.0</ele><time>2026-04-29T10:47:17.193Z</time></trkpt><trkpt lat="45.5166509" lon="11.8453223"><ele>18.0</ele><time>2026-04-29T10:47:19.193Z</time></trkpt><trkpt lat="45.5166088" lon="11.8454312"><ele>18.0</ele><time>2026-04-29T10:47:21.192Z</time></trkpt><trkpt lat="45.5165613" lon="11.8455438"><ele>18.0</ele><time>2026-04-29T10:47:23.192Z</time></trkpt><trkpt lat="45.5165157" lon="11.8456733"><ele>18.0</ele><time>2026-04-29T10:47:25.193Z</time></trkpt><trkpt lat="45.5164816" lon="11.8458129"><ele>18.0</ele><time>2026-04-29T10:47:27.193Z</time></trkpt><trkpt lat="45.5164449" lon="11.8459581"><ele>18.0</ele><time>2026-04-29T10:47:29.192Z</time></trkpt><trkpt lat="45.5164116" lon="11.8460961"><ele>18.0</ele><time>2026-04-29T10:47:31.193Z</time></trkpt><trkpt lat="45.5163782" lon="11.8462306"><ele>18.0</ele><time>2026-04-29T10:47:33.193Z</time></trkpt><trkpt lat="45.5163442" lon="11.8463546"><ele>18.0</ele><time>2026-04-29T10:47:35.193Z</time></trkpt><trkpt lat="45.5163192" lon="11.8464774"><ele>18.0</ele><time>2026-04-29T10:47:37.192Z</time></trkpt><trkpt lat="45.516285" lon="11.8466048"><ele>18.0</ele><time>2026-04-29T10:47:39.192Z</time></trkpt><trkpt lat="45.5162524" lon="11.846711"><ele>18.0</ele><time>2026-04-29T10:47:41.192Z</time></trkpt><trkpt lat="45.5162154" lon="11.8468182"><ele>18.0</ele><time>2026-04-29T10:47:43.193Z</time></trkpt><trkpt lat="45.516195" lon="11.8469248"><ele>18.0</ele><time>2026-04-29T10:47:45.193Z</time></trkpt><trkpt lat="45.5161825" lon="11.8470449"><ele>18.0</ele><time>2026-04-29T10:47:47.192Z</time></trkpt><trkpt lat="45.5161492" lon="11.8471565"><ele>18.0</ele><time>2026-04-29T10:47:49.192Z</time></trkpt><trkpt lat="45.5161056" lon="11.847281"><ele>18.0</ele><time>2026-04-29T10:47:51.192Z</time></trkpt><trkpt lat="45.5160698" lon="11.8474366"><ele>18.0</ele><time>2026-04-29T10:47:53.193Z</time></trkpt><trkpt lat="45.5160293" lon="11.8475862"><ele>18.0</ele><time>2026-04-29T10:47:55.192Z</time></trkpt><trkpt lat="45.5159882" lon="11.8477377"><ele>18.0</ele><time>2026-04-29T10:47:57.192Z</time></trkpt><trkpt lat="45.5159501" lon="11.8478893"><ele>18.0</ele><time>2026-04-29T10:47:59.192Z</time></trkpt><trkpt lat="45.5159045" lon="11.8480483"><ele>18.0</ele><time>2026-04-29T10:48:01.192Z</time></trkpt><trkpt lat="45.5158635" lon="11.8482088"><ele>18.0</ele><time>2026-04-29T10:48:03.192Z</time></trkpt><trkpt lat="45.5158268" lon="11.8483502"><ele>18.0</ele><time>2026-04-29T10:48:05.192Z</time></trkpt><trkpt lat="45.5157898" lon="11.8484774"><ele>18.0</ele><time>2026-04-29T10:48:07.193Z</time></trkpt><trkpt lat="45.5157567" lon="11.8486152"><ele>18.0</ele><time>2026-04-29T10:48:09.193Z</time></trkpt><trkpt lat="45.5157131" lon="11.8487543"><ele>18.0</ele><time>2026-04-29T10:48:11.192Z</time></trkpt><trkpt lat="45.5156706" lon="11.8488944"><ele>18.0</ele><time>2026-04-29T10:48:13.193Z</time></trkpt><trkpt lat="45.5156488" lon="11.8489805"><ele>18.0</ele><time>2026-04-29T10:48:14.192Z</time></trkpt><trkpt lat="45.5156004" lon="11.8491442"><ele>18.0</ele><time>2026-04-29T10:48:16.192Z</time></trkpt><trkpt lat="45.5155779" lon="11.8492304"><ele>17.857142857142858</ele><time>2026-04-29T10:48:17.192Z</time></trkpt><trkpt lat="45.5155568" lon="11.84932"><ele>17.714285714285715</ele><time>2026-04-29T10:48:18.192Z</time></trkpt><trkpt lat="45.5155308" lon="11.8494029"><ele>17.57142857142857</ele><time>2026-04-29T10:48:19.192Z</time></trkpt><trkpt lat="45.5155079" lon="11.8494891"><ele>17.42857142857143</ele><time>2026-04-29T10:48:20.193Z</time></trkpt><trkpt lat="45.5154842" lon="11.8495732"><ele>17.285714285714285</ele><time>2026-04-29T10:48:21.192Z</time></trkpt><trkpt lat="45.5154601" lon="11.8496604"><ele>17.142857142857142</ele><time>2026-04-29T10:48:22.192Z</time></trkpt><trkpt lat="45.5154383" lon="11.8497493"><ele>17.0</ele><time>2026-04-29T10:48:23.193Z</time></trkpt><trkpt lat="45.5154145" lon="11.8498375"><ele>17.0</ele><time>2026-04-29T10:48:24.192Z</time></trkpt><trkpt lat="45.5153923" lon="11.8499252"><ele>17.0</ele><time>2026-04-29T10:48:25.192Z</time></trkpt><trkpt lat="45.5153727" lon="11.8500113"><ele>17.0</ele><time>2026-04-29T10:48:26.193Z</time></trkpt><trkpt lat="45.5153348" lon="11.8501662"><ele>17.0</ele><time>2026-04-29T10:48:28.193Z</time></trkpt><trkpt lat="45.5152953" lon="11.8503279"><ele>17.0</ele><time>2026-04-29T10:48:30.193Z</time></trkpt><trkpt lat="45.5152689" lon="11.8504123"><ele>17.0</ele><time>2026-04-29T10:48:31.192Z</time></trkpt><trkpt lat="45.5152468" lon="11.8505016"><ele>17.0</ele><time>2026-04-29T10:48:32.192Z</time></trkpt><trkpt lat="45.5152049" lon="11.8506723"><ele>17.0</ele><time>2026-04-29T10:48:34.192Z</time></trkpt><trkpt lat="45.515179" lon="11.8507575"><ele>17.0</ele><time>2026-04-29T10:48:35.192Z</time></trkpt><trkpt lat="45.515153" lon="11.850845"><ele>17.0</ele><time>2026-04-29T10:48:36.193Z</time></trkpt><trkpt lat="45.5151306" lon="11.8509348"><ele>17.0</ele><time>2026-04-29T10:48:37.193Z</time></trkpt><trkpt lat="45.5150889" lon="11.851106"><ele>17.0</ele><time>2026-04-29T10:48:39.193Z</time></trkpt><trkpt lat="45.5150439" lon="11.8512631"><ele>17.0</ele><time>2026-04-29T10:48:41.193Z</time></trkpt><trkpt lat="45.5150223" lon="11.8513484"><ele>17.0</ele><time>2026-04-29T10:48:42.192Z</time></trkpt><trkpt lat="45.5149893" lon="11.8515212"><ele>17.0</ele><time>2026-04-29T10:48:44.192Z</time></trkpt><trkpt lat="45.5149661" lon="11.8516071"><ele>17.0</ele><time>2026-04-29T10:48:45.192Z</time></trkpt><trkpt lat="45.514942" lon="11.8516918"><ele>17.0</ele><time>2026-04-29T10:48:46.193Z</time></trkpt><trkpt lat="45.5149151" lon="11.8517732"><ele>17.2</ele><time>2026-04-29T10:48:47.192Z</time></trkpt><trkpt lat="45.5148947" lon="11.85186"><ele>17.4</ele><time>2026-04-29T10:48:48.192Z</time></trkpt><trkpt lat="45.5148526" lon="11.8520192"><ele>17.6</ele><time>2026-04-29T10:48:50.193Z</time></trkpt><trkpt lat="45.5148121" lon="11.8521867"><ele>17.8</ele><time>2026-04-29T10:48:52.192Z</time></trkpt><trkpt lat="45.5147726" lon="11.852339"><ele>18.0</ele><time>2026-04-29T10:48:54.192Z</time></trkpt><trkpt lat="45.5147347" lon="11.8524989"><ele>17.75</ele><time>2026-04-29T10:48:56.192Z</time></trkpt><trkpt lat="45.5146956" lon="11.8526533"><ele>17.5</ele><time>2026-04-29T10:48:58.193Z</time></trkpt><trkpt lat="45.5146613" lon="11.8528088"><ele>17.25</ele><time>2026-04-29T10:49:00.192Z</time></trkpt><trkpt lat="45.514628" lon="11.8529737"><ele>17.0</ele><time>2026-04-29T10:49:02.192Z</time></trkpt><trkpt lat="45.5145964" lon="11.8531365"><ele>17.25</ele><time>2026-04-29T10:49:04.193Z</time></trkpt><trkpt lat="45.5145639" lon="11.853301"><ele>17.5</ele><time>2026-04-29T10:49:06.192Z</time></trkpt><trkpt lat="45.5145346" lon="11.8534598"><ele>17.75</ele><time>2026-04-29T10:49:08.192Z</time></trkpt><trkpt lat="45.5145037" lon="11.8536217"><ele>18.0</ele><time>2026-04-29T10:49:10.192Z</time></trkpt><trkpt lat="45.5144665" lon="11.8537827"><ele>18.0</ele><time>2026-04-29T10:49:12.193Z</time></trkpt><trkpt lat="45.5144333" lon="11.8539418"><ele>18.0</ele><time>2026-04-29T10:49:14.192Z</time></trkpt><trkpt lat="45.5143937" lon="11.8540876"><ele>18.0</ele><time>2026-04-29T10:49:16.192Z</time></trkpt><trkpt lat="45.5143666" lon="11.8542383"><ele>18.0</ele><time>2026-04-29T10:49:18.192Z</time></trkpt><trkpt lat="45.5143397" lon="11.8544043"><ele>18.2</ele><time>2026-04-29T10:49:20.193Z</time></trkpt><trkpt lat="45.5143085" lon="11.8545728"><ele>18.4</ele><time>2026-04-29T10:49:22.193Z</time></trkpt><trkpt lat="45.5142843" lon="11.8547495"><ele>18.599999999999998</ele><time>2026-04-29T10:49:24.192Z</time></trkpt><trkpt lat="45.5142497" lon="11.8549125"><ele>18.8</ele><time>2026-04-29T10:49:26.192Z</time></trkpt><trkpt lat="45.51423" lon="11.8549995"><ele>19.0</ele><time>2026-04-29T10:49:27.192Z</time></trkpt><trkpt lat="45.5142005" lon="11.8551704"><ele>19.0</ele><time>2026-04-29T10:49:29.193Z</time></trkpt><trkpt lat="45.5141873" lon="11.8552602"><ele>19.0</ele><time>2026-04-29T10:49:30.193Z</time></trkpt><trkpt lat="45.514175" lon="11.8553486"><ele>19.0</ele><time>2026-04-29T10:49:31.193Z</time></trkpt><trkpt lat="45.5141456" lon="11.8555205"><ele>19.0</ele><time>2026-04-29T10:49:33.192Z</time></trkpt><trkpt lat="45.5141312" lon="11.8556103"><ele>19.0</ele><time>2026-04-29T10:49:34.192Z</time></trkpt><trkpt lat="45.5141158" lon="11.8556996"><ele>19.0</ele><time>2026-04-29T10:49:35.192Z</time></trkpt><trkpt lat="45.5141004" lon="11.8557885"><ele>19.0</ele><time>2026-04-29T10:49:36.193Z</time></trkpt><trkpt lat="45.5140879" lon="11.8558777"><ele>18.75</ele><time>2026-04-29T10:49:37.192Z</time></trkpt><trkpt lat="45.5140689" lon="11.8560355"><ele>18.5</ele><time>2026-04-29T10:49:39.193Z</time></trkpt><trkpt lat="45.5140454" lon="11.8561957"><ele>18.25</ele><time>2026-04-29T10:49:41.193Z</time></trkpt><trkpt lat="45.5140211" lon="11.8563638"><ele>18.0</ele><time>2026-04-29T10:49:43.193Z</time></trkpt><trkpt lat="45.5139974" lon="11.8565357"><ele>18.0</ele><time>2026-04-29T10:49:45.193Z</time></trkpt><trkpt lat="45.5139844" lon="11.8566277"><ele>18.0</ele><time>2026-04-29T10:49:46.193Z</time></trkpt><trkpt lat="45.5139701" lon="11.8567163"><ele>18.0</ele><time>2026-04-29T10:49:47.192Z</time></trkpt><trkpt lat="45.5139554" lon="11.8568106"><ele>18.0</ele><time>2026-04-29T10:49:48.192Z</time></trkpt><trkpt lat="45.5139315" lon="11.8569869"><ele>18.0</ele><time>2026-04-29T10:49:50.192Z</time></trkpt><trkpt lat="45.5139186" lon="11.8570776"><ele>18.0</ele><time>2026-04-29T10:49:51.193Z</time></trkpt><trkpt lat="45.5138997" lon="11.8572462"><ele>18.0</ele><time>2026-04-29T10:49:53.192Z</time></trkpt><trkpt lat="45.5138877" lon="11.857338"><ele>18.0</ele><time>2026-04-29T10:49:54.192Z</time></trkpt><trkpt lat="45.5138615" lon="11.85751"><ele>18.0</ele><time>2026-04-29T10:49:56.192Z</time></trkpt><trkpt lat="45.5138485" lon="11.8575993"><ele>18.0</ele><time>2026-04-29T10:49:57.192Z</time></trkpt><trkpt lat="45.5138219" lon="11.8577723"><ele>18.0</ele><time>2026-04-29T10:49:59.192Z</time></trkpt><trkpt lat="45.5138095" lon="11.8578609"><ele>18.0</ele><time>2026-04-29T10:50:00.192Z</time></trkpt><trkpt lat="45.5137966" lon="11.8579565"><ele>17.8</ele><time>2026-04-29T10:50:01.193Z</time></trkpt><trkpt lat="45.513785" lon="11.8580491"><ele>17.6</ele><time>2026-04-29T10:50:02.193Z</time></trkpt><trkpt lat="45.5137636" lon="11.8582216"><ele>17.4</ele><time>2026-04-29T10:50:04.193Z</time></trkpt><trkpt lat="45.5137505" lon="11.8583144"><ele>17.2</ele><time>2026-04-29T10:50:05.192Z</time></trkpt><trkpt lat="45.5137243" lon="11.8584936"><ele>17.0</ele><time>2026-04-29T10:50:07.192Z</time></trkpt><trkpt lat="45.5137051" lon="11.8586557"><ele>16.8</ele><time>2026-04-29T10:50:09.191Z</time></trkpt><trkpt lat="45.5136832" lon="11.8588213"><ele>16.6</ele><time>2026-04-29T10:50:11.191Z</time></trkpt><trkpt lat="45.5136622" lon="11.8589698"><ele>16.400000000000002</ele><time>2026-04-29T10:50:13.191Z</time></trkpt><trkpt lat="45.5136555" lon="11.8591184"><ele>16.2</ele><time>2026-04-29T10:50:15.191Z</time></trkpt><trkpt lat="45.5136413" lon="11.859269"><ele>16.0</ele><time>2026-04-29T10:50:17.192Z</time></trkpt><trkpt lat="45.5136337" lon="11.859425"><ele>16.5</ele><time>2026-04-29T10:50:19.191Z</time></trkpt><trkpt lat="45.5136258" lon="11.8595926"><ele>17.0</ele><time>2026-04-29T10:50:21.192Z</time></trkpt><trkpt lat="45.5136257" lon="11.8597585"><ele>17.5</ele><time>2026-04-29T10:50:23.192Z</time></trkpt><trkpt lat="45.5136275" lon="11.8599329"><ele>18.0</ele><time>2026-04-29T10:50:25.191Z</time></trkpt><trkpt lat="45.513641" lon="11.8601082"><ele>18.0</ele><time>2026-04-29T10:50:27.192Z</time></trkpt><trkpt lat="45.513655" lon="11.8602827"><ele>18.0</ele><time>2026-04-29T10:50:29.191Z</time></trkpt><trkpt lat="45.5136615" lon="11.860434"><ele>18.0</ele><time>2026-04-29T10:50:31.191Z</time></trkpt><trkpt lat="45.5136793" lon="11.8605913"><ele>18.0</ele><time>2026-04-29T10:50:33.191Z</time></trkpt><trkpt lat="45.5137002" lon="11.8607445"><ele>18.0</ele><time>2026-04-29T10:50:35.191Z</time></trkpt><trkpt lat="45.5137308" lon="11.8609028"><ele>18.0</ele><time>2026-04-29T10:50:37.191Z</time></trkpt><trkpt lat="45.5137516" lon="11.8610647"><ele>18.0</ele><time>2026-04-29T10:50:39.191Z</time></trkpt><trkpt lat="45.5137807" lon="11.8612289"><ele>18.0</ele><time>2026-04-29T10:50:41.191Z</time></trkpt><trkpt lat="45.5138122" lon="11.8613842"><ele>17.75</ele><time>2026-04-29T10:50:43.192Z</time></trkpt><trkpt lat="45.5138522" lon="11.8615287"><ele>17.5</ele><time>2026-04-29T10:50:45.191Z</time></trkpt><trkpt lat="45.5139027" lon="11.8616732"><ele>17.25</ele><time>2026-04-29T10:50:47.191Z</time></trkpt><trkpt lat="45.5139506" lon="11.8618229"><ele>17.0</ele><time>2026-04-29T10:50:49.191Z</time></trkpt><trkpt lat="45.5140044" lon="11.8619788"><ele>17.0</ele><time>2026-04-29T10:50:51.192Z</time></trkpt><trkpt lat="45.5140636" lon="11.8621355"><ele>17.0</ele><time>2026-04-29T10:50:53.192Z</time></trkpt><trkpt lat="45.5140943" lon="11.8622151"><ele>17.0</ele><time>2026-04-29T10:50:54.191Z</time></trkpt><trkpt lat="45.514126" lon="11.8622982"><ele>17.0</ele><time>2026-04-29T10:50:55.191Z</time></trkpt><trkpt lat="45.5141819" lon="11.8624564"><ele>17.0</ele><time>2026-04-29T10:50:57.191Z</time></trkpt><trkpt lat="45.5142383" lon="11.8626145"><ele>17.0</ele><time>2026-04-29T10:50:59.191Z</time></trkpt><trkpt lat="45.514292" lon="11.862756"><ele>17.0</ele><time>2026-04-29T10:51:01.191Z</time></trkpt><trkpt lat="45.5143363" lon="11.8628894"><ele>17.0</ele><time>2026-04-29T10:51:03.191Z</time></trkpt><trkpt lat="45.5143948" lon="11.8630305"><ele>17.0</ele><time>2026-04-29T10:51:05.192Z</time></trkpt><trkpt lat="45.5144492" lon="11.8631695"><ele>17.0</ele><time>2026-04-29T10:51:07.192Z</time></trkpt><trkpt lat="45.5144997" lon="11.8633098"><ele>17.25</ele><time>2026-04-29T10:51:09.192Z</time></trkpt><trkpt lat="45.5145519" lon="11.8634587"><ele>17.5</ele><time>2026-04-29T10:51:11.191Z</time></trkpt><trkpt lat="45.514604" lon="11.8636121"><ele>17.75</ele><time>2026-04-29T10:51:13.191Z</time></trkpt><trkpt lat="45.5146575" lon="11.8637625"><ele>18.0</ele><time>2026-04-29T10:51:15.191Z</time></trkpt><trkpt lat="45.5147056" lon="11.8639037"><ele>18.6</ele><time>2026-04-29T10:51:17.191Z</time></trkpt><trkpt lat="45.5147634" lon="11.8640459"><ele>19.200000000000003</ele><time>2026-04-29T10:51:19.191Z</time></trkpt><trkpt lat="45.5147933" lon="11.864208"><ele>19.8</ele><time>2026-04-29T10:51:21.192Z</time></trkpt><trkpt lat="45.5148139" lon="11.8643565"><ele>20.400000000000002</ele><time>2026-04-29T10:51:23.191Z</time></trkpt><trkpt lat="45.5147944" lon="11.8644847"><ele>21.0</ele><time>2026-04-29T10:51:25.191Z</time></trkpt><trkpt lat="45.5147596" lon="11.8645802"><ele>21.166666666666668</ele><time>2026-04-29T10:51:27.191Z</time></trkpt><trkpt lat="45.5147237" lon="11.8646652"><ele>21.333333333333332</ele><time>2026-04-29T10:51:29.191Z</time></trkpt><trkpt lat="45.5146861" lon="11.8647667"><ele>21.5</ele><time>2026-04-29T10:51:32.191Z</time></trkpt><trkpt lat="45.5146517" lon="11.8648478"><ele>21.666666666666664</ele><time>2026-04-29T10:51:39.191Z</time></trkpt><trkpt lat="45.5146231" lon="11.8649377"><ele>21.833333333333332</ele><time>2026-04-29T10:51:41.191Z</time></trkpt><trkpt lat="45.5146074" lon="11.865063"><ele>22.0</ele><time>2026-04-29T10:51:43.192Z</time></trkpt><trkpt lat="45.5146038" lon="11.8651997"><ele>22.0</ele><time>2026-04-29T10:51:45.191Z</time></trkpt><trkpt lat="45.5146121" lon="11.8653559"><ele>22.0</ele><time>2026-04-29T10:51:47.192Z</time></trkpt><trkpt lat="45.5146069" lon="11.8655303"><ele>22.0</ele><time>2026-04-29T10:51:49.191Z</time></trkpt><trkpt lat="45.514593" lon="11.8656213"><ele>22.0</ele><time>2026-04-29T10:51:50.191Z</time></trkpt><trkpt lat="45.5145796" lon="11.8657175"><ele>22.0</ele><time>2026-04-29T10:51:51.191Z</time></trkpt><trkpt lat="45.5145649" lon="11.8658109"><ele>22.0</ele><time>2026-04-29T10:51:52.191Z</time></trkpt><trkpt lat="45.5145567" lon="11.8659027"><ele>21.571428571428573</ele><time>2026-04-29T10:51:53.191Z</time></trkpt><trkpt lat="45.5145458" lon="11.8659935"><ele>21.142857142857142</ele><time>2026-04-29T10:51:54.191Z</time></trkpt><trkpt lat="45.5145367" lon="11.8660835"><ele>20.714285714285715</ele><time>2026-04-29T10:51:55.191Z</time></trkpt><trkpt lat="45.5145257" lon="11.8661767"><ele>20.285714285714285</ele><time>2026-04-29T10:51:56.191Z</time></trkpt><trkpt lat="45.5145127" lon="11.8662689"><ele>19.857142857142858</ele><time>2026-04-29T10:51:57.191Z</time></trkpt><trkpt lat="45.5145008" lon="11.8663582"><ele>19.428571428571427</ele><time>2026-04-29T10:51:58.191Z</time></trkpt><trkpt lat="45.5144892" lon="11.8664518"><ele>19.0</ele><time>2026-04-29T10:51:59.191Z</time></trkpt><trkpt lat="45.5144776" lon="11.8665428"><ele>19.0</ele><time>2026-04-29T10:52:00.191Z</time></trkpt><trkpt lat="45.5144542" lon="11.8667232"><ele>19.0</ele><time>2026-04-29T10:52:02.191Z</time></trkpt><trkpt lat="45.5144334" lon="11.8669009"><ele>19.0</ele><time>2026-04-29T10:52:04.191Z</time></trkpt><trkpt lat="45.5144153" lon="11.8670835"><ele>19.0</ele><time>2026-04-29T10:52:06.192Z</time></trkpt><trkpt lat="45.5144075" lon="11.8671739"><ele>19.0</ele><time>2026-04-29T10:52:07.191Z</time></trkpt><trkpt lat="45.5144" lon="11.8672647"><ele>19.0</ele><time>2026-04-29T10:52:08.191Z</time></trkpt><trkpt lat="45.5143831" lon="11.8674368"><ele>19.0</ele><time>2026-04-29T10:52:10.192Z</time></trkpt><trkpt lat="45.5143764" lon="11.867606"><ele>19.0</ele><time>2026-04-29T10:52:12.191Z</time></trkpt><trkpt lat="45.5143771" lon="11.8677818"><ele>19.0</ele><time>2026-04-29T10:52:14.192Z</time></trkpt><trkpt lat="45.5143784" lon="11.8678733"><ele>19.0</ele><time>2026-04-29T10:52:15.191Z</time></trkpt><trkpt lat="45.5143891" lon="11.8680454"><ele>18.8</ele><time>2026-04-29T10:52:17.191Z</time></trkpt><trkpt lat="45.5144109" lon="11.8682212"><ele>18.599999999999998</ele><time>2026-04-29T10:52:19.191Z</time></trkpt><trkpt lat="45.5144215" lon="11.8683101"><ele>18.4</ele><time>2026-04-29T10:52:20.191Z</time></trkpt><trkpt lat="45.514447" lon="11.8684719"><ele>18.2</ele><time>2026-04-29T10:52:22.191Z</time></trkpt><trkpt lat="45.5144746" lon="11.8686269"><ele>18.0</ele><time>2026-04-29T10:52:24.192Z</time></trkpt><trkpt lat="45.5145034" lon="11.8687757"><ele>18.0</ele><time>2026-04-29T10:52:26.192Z</time></trkpt><trkpt lat="45.5145314" lon="11.8689385"><ele>18.0</ele><time>2026-04-29T10:52:28.191Z</time></trkpt><trkpt lat="45.5145725" lon="11.8690971"><ele>18.0</ele><time>2026-04-29T10:52:30.192Z</time></trkpt><trkpt lat="45.5146084" lon="11.8692641"><ele>18.0</ele><time>2026-04-29T10:52:32.191Z</time></trkpt><trkpt lat="45.5146439" lon="11.8694257"><ele>17.8</ele><time>2026-04-29T10:52:34.191Z</time></trkpt><trkpt lat="45.5146775" lon="11.8695905"><ele>17.6</ele><time>2026-04-29T10:52:36.191Z</time></trkpt><trkpt lat="45.5147114" lon="11.8697593"><ele>17.4</ele><time>2026-04-29T10:52:38.192Z</time></trkpt><trkpt lat="45.5147293" lon="11.8698471"><ele>17.2</ele><time>2026-04-29T10:52:39.191Z</time></trkpt><trkpt lat="45.5147624" lon="11.8700163"><ele>17.0</ele><time>2026-04-29T10:52:41.191Z</time></trkpt><trkpt lat="45.5147952" lon="11.8701785"><ele>16.75</ele><time>2026-04-29T10:52:43.191Z</time></trkpt><trkpt lat="45.5148304" lon="11.8703416"><ele>16.5</ele><time>2026-04-29T10:52:45.192Z</time></trkpt><trkpt lat="45.5148651" lon="11.8705044"><ele>16.25</ele><time>2026-04-29T10:52:47.191Z</time></trkpt><trkpt lat="45.5149024" lon="11.8706607"><ele>16.0</ele><time>2026-04-29T10:52:49.191Z</time></trkpt><trkpt lat="45.5149424" lon="11.8708172"><ele>16.25</ele><time>2026-04-29T10:52:51.191Z</time></trkpt><trkpt lat="45.514975" lon="11.870985"><ele>16.5</ele><time>2026-04-29T10:52:53.192Z</time></trkpt><trkpt lat="45.5150093" lon="11.8711491"><ele>16.75</ele><time>2026-04-29T10:52:55.191Z</time></trkpt><trkpt lat="45.5150457" lon="11.8713049"><ele>17.0</ele><time>2026-04-29T10:52:57.192Z</time></trkpt><trkpt lat="45.515088" lon="11.8714659"><ele>17.0</ele><time>2026-04-29T10:52:59.191Z</time></trkpt><trkpt lat="45.5151101" lon="11.8716029"><ele>17.0</ele><time>2026-04-29T10:53:01.192Z</time></trkpt><trkpt lat="45.5151257" lon="11.8717324"><ele>17.0</ele><time>2026-04-29T10:53:03.191Z</time></trkpt><trkpt lat="45.5151404" lon="11.8718768"><ele>17.0</ele><time>2026-04-29T10:53:05.191Z</time></trkpt><trkpt lat="45.5151555" lon="11.8720255"><ele>17.0</ele><time>2026-04-29T10:53:07.192Z</time></trkpt><trkpt lat="45.5151687" lon="11.8721756"><ele>16.8</ele><time>2026-04-29T10:53:09.191Z</time></trkpt><trkpt lat="45.5151713" lon="11.8723317"><ele>16.6</ele><time>2026-04-29T10:53:11.191Z</time></trkpt><trkpt lat="45.5151828" lon="11.8724921"><ele>16.400000000000002</ele><time>2026-04-29T10:53:13.191Z</time></trkpt><trkpt lat="45.5151892" lon="11.872655"><ele>16.2</ele><time>2026-04-29T10:53:15.191Z</time></trkpt><trkpt lat="45.5151965" lon="11.8728063"><ele>16.0</ele><time>2026-04-29T10:53:17.192Z</time></trkpt><trkpt lat="45.5151975" lon="11.8729585"><ele>15.8</ele><time>2026-04-29T10:53:19.191Z</time></trkpt><trkpt lat="45.5152017" lon="11.8731062"><ele>15.600000000000001</ele><time>2026-04-29T10:53:21.191Z</time></trkpt><trkpt lat="45.5152107" lon="11.8732564"><ele>15.4</ele><time>2026-04-29T10:53:23.191Z</time></trkpt><trkpt lat="45.5152184" lon="11.8734009"><ele>15.2</ele><time>2026-04-29T10:53:25.191Z</time></trkpt><trkpt lat="45.5152259" lon="11.8735266"><ele>15.0</ele><time>2026-04-29T10:53:27.192Z</time></trkpt><trkpt lat="45.5152294" lon="11.8736959"><ele>15.4</ele><time>2026-04-29T10:53:29.191Z</time></trkpt><trkpt lat="45.5152376" lon="11.8738521"><ele>15.8</ele><time>2026-04-29T10:53:31.191Z</time></trkpt><trkpt lat="45.5152431" lon="11.8740068"><ele>16.2</ele><time>2026-04-29T10:53:33.192Z</time></trkpt><trkpt lat="45.5152433" lon="11.8741563"><ele>16.6</ele><time>2026-04-29T10:53:35.191Z</time></trkpt><trkpt lat="45.5152517" lon="11.8743048"><ele>17.0</ele><time>2026-04-29T10:53:37.191Z</time></trkpt><trkpt lat="45.5152585" lon="11.8744484"><ele>17.0</ele><time>2026-04-29T10:53:39.191Z</time></trkpt><trkpt lat="45.5152643" lon="11.8745955"><ele>17.0</ele><time>2026-04-29T10:53:41.192Z</time></trkpt><trkpt lat="45.5152668" lon="11.8747395"><ele>17.0</ele><time>2026-04-29T10:53:43.191Z</time></trkpt><trkpt lat="45.5152729" lon="11.87488"><ele>17.0</ele><time>2026-04-29T10:53:45.19Z</time></trkpt><trkpt lat="45.5152802" lon="11.8750198"><ele>17.0</ele><time>2026-04-29T10:53:47.19Z</time></trkpt><trkpt lat="45.5152866" lon="11.8751489"><ele>17.0</ele><time>2026-04-29T10:53:49.19Z</time></trkpt><trkpt lat="45.5152899" lon="11.8752807"><ele>17.0</ele><time>2026-04-29T10:53:51.19Z</time></trkpt><trkpt lat="45.5152908" lon="11.8754207"><ele>17.0</ele><time>2026-04-29T10:53:53.19Z</time></trkpt><trkpt lat="45.5152875" lon="11.8755598"><ele>17.0</ele><time>2026-04-29T10:53:55.19Z</time></trkpt><trkpt lat="45.5152849" lon="11.875701"><ele>17.0</ele><time>2026-04-29T10:53:57.19Z</time></trkpt><trkpt lat="45.5152762" lon="11.875849"><ele>16.8</ele><time>2026-04-29T10:53:59.19Z</time></trkpt><trkpt lat="45.5152638" lon="11.8759938"><ele>16.6</ele><time>2026-04-29T10:54:01.19Z</time></trkpt><trkpt lat="45.5152479" lon="11.8761453"><ele>16.400000000000002</ele><time>2026-04-29T10:54:03.191Z</time></trkpt><trkpt lat="45.5152285" lon="11.8762994"><ele>16.2</ele><time>2026-04-29T10:54:05.19Z</time></trkpt><trkpt lat="45.5152076" lon="11.8764677"><ele>16.0</ele><time>2026-04-29T10:54:07.19Z</time></trkpt><trkpt lat="45.515193" lon="11.8766364"><ele>15.8</ele><time>2026-04-29T10:54:09.19Z</time></trkpt><trkpt lat="45.5151692" lon="11.8768182"><ele>15.600000000000001</ele><time>2026-04-29T10:54:11.19Z</time></trkpt><trkpt lat="45.5151553" lon="11.8769071"><ele>15.4</ele><time>2026-04-29T10:54:12.19Z</time></trkpt><trkpt lat="45.5151278" lon="11.8770841"><ele>15.2</ele><time>2026-04-29T10:54:14.19Z</time></trkpt><trkpt lat="45.5151072" lon="11.8772521"><ele>15.0</ele><time>2026-04-29T10:54:16.19Z</time></trkpt><trkpt lat="45.515088" lon="11.8774259"><ele>15.0</ele><time>2026-04-29T10:54:18.19Z</time></trkpt><trkpt lat="45.5150767" lon="11.877516"><ele>15.0</ele><time>2026-04-29T10:54:19.19Z</time></trkpt><trkpt lat="45.515056" lon="11.8776841"><ele>15.0</ele><time>2026-04-29T10:54:21.19Z</time></trkpt><trkpt lat="45.5150368" lon="11.8778443"><ele>15.0</ele><time>2026-04-29T10:54:23.191Z</time></trkpt><trkpt lat="45.5150158" lon="11.8779988"><ele>15.0</ele><time>2026-04-29T10:54:25.19Z</time></trkpt><trkpt lat="45.5150029" lon="11.8781574"><ele>15.25</ele><time>2026-04-29T10:54:27.19Z</time></trkpt><trkpt lat="45.5149833" lon="11.8783246"><ele>15.5</ele><time>2026-04-29T10:54:29.19Z</time></trkpt><trkpt lat="45.514967" lon="11.8784943"><ele>15.75</ele><time>2026-04-29T10:54:31.191Z</time></trkpt><trkpt lat="45.5149461" lon="11.8786558"><ele>16.0</ele><time>2026-04-29T10:54:33.19Z</time></trkpt><trkpt lat="45.5149269" lon="11.878825"><ele>16.0</ele><time>2026-04-29T10:54:35.19Z</time></trkpt><trkpt lat="45.514901" lon="11.8789856"><ele>16.0</ele><time>2026-04-29T10:54:37.191Z</time></trkpt><trkpt lat="45.5148829" lon="11.8791519"><ele>16.0</ele><time>2026-04-29T10:54:39.19Z</time></trkpt><trkpt lat="45.5148633" lon="11.8793038"><ele>16.0</ele><time>2026-04-29T10:54:41.191Z</time></trkpt><trkpt lat="45.5148447" lon="11.8794664"><ele>15.999999999999998</ele><time>2026-04-29T10:54:43.191Z</time></trkpt><trkpt lat="45.5148182" lon="11.8796343"><ele>16.0</ele><time>2026-04-29T10:54:45.19Z</time></trkpt><trkpt lat="45.5148069" lon="11.8797253"><ele>16.0</ele><time>2026-04-29T10:54:46.19Z</time></trkpt><trkpt lat="45.5147939" lon="11.8798139"><ele>16.0</ele><time>2026-04-29T10:54:47.19Z</time></trkpt><trkpt lat="45.5147788" lon="11.8799014"><ele>15.999999999999998</ele><time>2026-04-29T10:54:48.19Z</time></trkpt><trkpt lat="45.5147541" lon="11.8800701"><ele>16.0</ele><time>2026-04-29T10:54:50.19Z</time></trkpt><trkpt lat="45.514731" lon="11.8802301"><ele>15.8</ele><time>2026-04-29T10:54:52.19Z</time></trkpt><trkpt lat="45.5147022" lon="11.8803879"><ele>15.600000000000001</ele><time>2026-04-29T10:54:54.191Z</time></trkpt><trkpt lat="45.5146777" lon="11.8805432"><ele>15.4</ele><time>2026-04-29T10:54:56.19Z</time></trkpt><trkpt lat="45.5146502" lon="11.880693"><ele>15.2</ele><time>2026-04-29T10:54:58.19Z</time></trkpt><trkpt lat="45.5146253" lon="11.8808481"><ele>15.0</ele><time>2026-04-29T10:55:00.191Z</time></trkpt><trkpt lat="45.5146081" lon="11.881"><ele>15.0</ele><time>2026-04-29T10:55:02.19Z</time></trkpt><trkpt lat="45.5145813" lon="11.8811419"><ele>15.0</ele><time>2026-04-29T10:55:04.19Z</time></trkpt><trkpt lat="45.5145515" lon="11.8812954"><ele>15.0</ele><time>2026-04-29T10:55:06.19Z</time></trkpt><trkpt lat="45.5145254" lon="11.8814576"><ele>15.0</ele><time>2026-04-29T10:55:08.19Z</time></trkpt><trkpt lat="45.5144973" lon="11.8816123"><ele>15.0</ele><time>2026-04-29T10:55:10.191Z</time></trkpt><trkpt lat="45.5144691" lon="11.8817765"><ele>15.2</ele><time>2026-04-29T10:55:12.191Z</time></trkpt><trkpt lat="45.5144445" lon="11.8819492"><ele>15.4</ele><time>2026-04-29T10:55:14.191Z</time></trkpt><trkpt lat="45.5144204" lon="11.8821216"><ele>15.600000000000001</ele><time>2026-04-29T10:55:16.19Z</time></trkpt><trkpt lat="45.5144005" lon="11.882208"><ele>15.8</ele><time>2026-04-29T10:55:17.19Z</time></trkpt><trkpt lat="45.51437" lon="11.8823823"><ele>16.0</ele><time>2026-04-29T10:55:19.19Z</time></trkpt><trkpt lat="45.5143523" lon="11.8824718"><ele>16.0</ele><time>2026-04-29T10:55:20.19Z</time></trkpt><trkpt lat="45.514335" lon="11.8825629"><ele>15.999999999999998</ele><time>2026-04-29T10:55:21.19Z</time></trkpt><trkpt lat="45.5143194" lon="11.8826508"><ele>16.0</ele><time>2026-04-29T10:55:22.19Z</time></trkpt><trkpt lat="45.5143026" lon="11.882742"><ele>16.0</ele><time>2026-04-29T10:55:23.191Z</time></trkpt><trkpt lat="45.514288" lon="11.8828334"><ele>15.999999999999998</ele><time>2026-04-29T10:55:24.19Z</time></trkpt><trkpt lat="45.5142759" lon="11.8829227"><ele>16.0</ele><time>2026-04-29T10:55:25.191Z</time></trkpt><trkpt lat="45.5142473" lon="11.8830904"><ele>16.0</ele><time>2026-04-29T10:55:27.19Z</time></trkpt><trkpt lat="45.5142294" lon="11.8832562"><ele>16.25</ele><time>2026-04-29T10:55:29.19Z</time></trkpt><trkpt lat="45.5142176" lon="11.8834146"><ele>16.5</ele><time>2026-04-29T10:55:31.19Z</time></trkpt><trkpt lat="45.5141974" lon="11.8835755"><ele>16.75</ele><time>2026-04-29T10:55:33.19Z</time></trkpt><trkpt lat="45.5141749" lon="11.8837435"><ele>17.0</ele><time>2026-04-29T10:55:35.19Z</time></trkpt><trkpt lat="45.5141502" lon="11.8839135"><ele>17.0</ele><time>2026-04-29T10:55:37.191Z</time></trkpt><trkpt lat="45.514121" lon="11.8840888"><ele>17.0</ele><time>2026-04-29T10:55:39.19Z</time></trkpt><trkpt lat="45.5141139" lon="11.8841825"><ele>17.0</ele><time>2026-04-29T10:55:40.191Z</time></trkpt><trkpt lat="45.5141053" lon="11.8842768"><ele>17.0</ele><time>2026-04-29T10:55:41.191Z</time></trkpt><trkpt lat="45.5140779" lon="11.8844403"><ele>17.0</ele><time>2026-04-29T10:55:43.19Z</time></trkpt><trkpt lat="45.5140506" lon="11.8846148"><ele>16.857142857142854</ele><time>2026-04-29T10:55:45.19Z</time></trkpt><trkpt lat="45.5140362" lon="11.8847081"><ele>16.714285714285715</ele><time>2026-04-29T10:55:46.19Z</time></trkpt><trkpt lat="45.5140166" lon="11.884796"><ele>16.57142857142857</ele><time>2026-04-29T10:55:47.19Z</time></trkpt><trkpt lat="45.5139902" lon="11.8849682"><ele>16.428571428571427</ele><time>2026-04-29T10:55:49.19Z</time></trkpt><trkpt lat="45.5139711" lon="11.8850552"><ele>16.285714285714285</ele><time>2026-04-29T10:55:50.19Z</time></trkpt><trkpt lat="45.5139629" lon="11.8851458"><ele>16.142857142857142</ele><time>2026-04-29T10:55:51.19Z</time></trkpt><trkpt lat="45.5139447" lon="11.8852319"><ele>16.0</ele><time>2026-04-29T10:55:52.19Z</time></trkpt><trkpt lat="45.5139151" lon="11.8854095"><ele>16.0</ele><time>2026-04-29T10:55:54.19Z</time></trkpt><trkpt lat="45.5139005" lon="11.885501"><ele>16.0</ele><time>2026-04-29T10:55:55.19Z</time></trkpt><trkpt lat="45.5138734" lon="11.8856711"><ele>16.0</ele><time>2026-04-29T10:55:57.191Z</time></trkpt><trkpt lat="45.5138408" lon="11.8858392"><ele>16.0</ele><time>2026-04-29T10:55:59.191Z</time></trkpt><trkpt lat="45.5138106" lon="11.8860167"><ele>16.0</ele><time>2026-04-29T10:56:01.191Z</time></trkpt><trkpt lat="45.5137933" lon="11.8861072"><ele>15.999999999999998</ele><time>2026-04-29T10:56:02.19Z</time></trkpt><trkpt lat="45.5137797" lon="11.8861958"><ele>16.0</ele><time>2026-04-29T10:56:03.19Z</time></trkpt><trkpt lat="45.5137635" lon="11.8862833"><ele>16.0</ele><time>2026-04-29T10:56:04.191Z</time></trkpt><trkpt lat="45.5137494" lon="11.8863776"><ele>16.0</ele><time>2026-04-29T10:56:05.19Z</time></trkpt><trkpt lat="45.5137357" lon="11.8864688"><ele>15.999999999999998</ele><time>2026-04-29T10:56:06.191Z</time></trkpt><trkpt lat="45.5137092" lon="11.8866336"><ele>16.0</ele><time>2026-04-29T10:56:08.191Z</time></trkpt><trkpt lat="45.5136784" lon="11.8868014"><ele>16.0</ele><time>2026-04-29T10:56:10.19Z</time></trkpt><trkpt lat="45.5136613" lon="11.8868879"><ele>16.0</ele><time>2026-04-29T10:56:11.19Z</time></trkpt><trkpt lat="45.513632" lon="11.8870632"><ele>16.0</ele><time>2026-04-29T10:56:13.191Z</time></trkpt><trkpt lat="45.5136019" lon="11.8872315"><ele>16.0</ele><time>2026-04-29T10:56:15.19Z</time></trkpt><trkpt lat="45.5135759" lon="11.8873986"><ele>16.0</ele><time>2026-04-29T10:56:17.191Z</time></trkpt><trkpt lat="45.5135444" lon="11.887563"><ele>16.0</ele><time>2026-04-29T10:56:19.19Z</time></trkpt><trkpt lat="45.5135199" lon="11.8877281"><ele>16.0</ele><time>2026-04-29T10:56:21.191Z</time></trkpt><trkpt lat="45.5135048" lon="11.8878155"><ele>16.0</ele><time>2026-04-29T10:56:22.19Z</time></trkpt><trkpt lat="45.5134834" lon="11.8879832"><ele>16.0</ele><time>2026-04-29T10:56:24.19Z</time></trkpt><trkpt lat="45.5134549" lon="11.8881496"><ele>16.0</ele><time>2026-04-29T10:56:26.191Z</time></trkpt><trkpt lat="45.5134242" lon="11.8883099"><ele>16.2</ele><time>2026-04-29T10:56:28.191Z</time></trkpt><trkpt lat="45.5133979" lon="11.8884566"><ele>16.400000000000002</ele><time>2026-04-29T10:56:30.19Z</time></trkpt><trkpt lat="45.5133755" lon="11.8886124"><ele>16.6</ele><time>2026-04-29T10:56:32.19Z</time></trkpt><trkpt lat="45.5133485" lon="11.8887739"><ele>16.8</ele><time>2026-04-29T10:56:34.191Z</time></trkpt><trkpt lat="45.5133181" lon="11.8889189"><ele>17.0</ele><time>2026-04-29T10:56:36.19Z</time></trkpt><trkpt lat="45.5132905" lon="11.889077"><ele>17.0</ele><time>2026-04-29T10:56:38.191Z</time></trkpt><trkpt lat="45.5132692" lon="11.8892311"><ele>17.0</ele><time>2026-04-29T10:56:40.19Z</time></trkpt><trkpt lat="45.513234" lon="11.8893965"><ele>17.0</ele><time>2026-04-29T10:56:42.19Z</time></trkpt><trkpt lat="45.5132088" lon="11.8895552"><ele>17.0</ele><time>2026-04-29T10:56:44.19Z</time></trkpt><trkpt lat="45.5131765" lon="11.8897241"><ele>17.0</ele><time>2026-04-29T10:56:46.19Z</time></trkpt><trkpt lat="45.5131547" lon="11.8898685"><ele>17.0</ele><time>2026-04-29T10:56:48.19Z</time></trkpt><trkpt lat="45.5131269" lon="11.8900296"><ele>17.0</ele><time>2026-04-29T10:56:50.19Z</time></trkpt><trkpt lat="45.5130977" lon="11.8901918"><ele>17.0</ele><time>2026-04-29T10:56:52.19Z</time></trkpt><trkpt lat="45.5130663" lon="11.890345"><ele>17.0</ele><time>2026-04-29T10:56:54.19Z</time></trkpt><trkpt lat="45.5130381" lon="11.8905046"><ele>16.8</ele><time>2026-04-29T10:56:56.191Z</time></trkpt><trkpt lat="45.5130166" lon="11.8906593"><ele>16.6</ele><time>2026-04-29T10:56:58.19Z</time></trkpt><trkpt lat="45.5129967" lon="11.8908081"><ele>16.400000000000002</ele><time>2026-04-29T10:57:00.191Z</time></trkpt><trkpt lat="45.5129744" lon="11.8909424"><ele>16.2</ele><time>2026-04-29T10:57:02.19Z</time></trkpt><trkpt lat="45.5129464" lon="11.8910743"><ele>16.0</ele><time>2026-04-29T10:57:04.19Z</time></trkpt><trkpt lat="45.5129249" lon="11.8912036"><ele>15.8</ele><time>2026-04-29T10:57:06.191Z</time></trkpt><trkpt lat="45.5129025" lon="11.8913267"><ele>15.600000000000001</ele><time>2026-04-29T10:57:08.191Z</time></trkpt><trkpt lat="45.5128656" lon="11.8914418"><ele>15.4</ele><time>2026-04-29T10:57:10.191Z</time></trkpt><trkpt lat="45.5127884" lon="11.8915336"><ele>15.2</ele><time>2026-04-29T10:57:12.19Z</time></trkpt><trkpt lat="45.5127027" lon="11.8916162"><ele>15.0</ele><time>2026-04-29T10:57:14.19Z</time></trkpt><trkpt lat="45.5126225" lon="11.891732"><ele>15.0</ele><time>2026-04-29T10:57:16.189Z</time></trkpt><trkpt lat="45.5125862" lon="11.8918825"><ele>15.0</ele><time>2026-04-29T10:57:18.19Z</time></trkpt><trkpt lat="45.5125904" lon="11.8920398"><ele>15.0</ele><time>2026-04-29T10:57:20.189Z</time></trkpt><trkpt lat="45.5125779" lon="11.8921984"><ele>15.0</ele><time>2026-04-29T10:57:22.19Z</time></trkpt><trkpt lat="45.5125282" lon="11.8923337"><ele>15.0</ele><time>2026-04-29T10:57:24.189Z</time></trkpt><trkpt lat="45.5124682" lon="11.8924786"><ele>15.5</ele><time>2026-04-29T10:57:26.189Z</time></trkpt><trkpt lat="45.5124012" lon="11.8926197"><ele>16.0</ele><time>2026-04-29T10:57:28.189Z</time></trkpt><trkpt lat="45.5123349" lon="11.8927563"><ele>16.5</ele><time>2026-04-29T10:57:30.189Z</time></trkpt><trkpt lat="45.5122575" lon="11.8928807"><ele>17.0</ele><time>2026-04-29T10:57:32.19Z</time></trkpt><trkpt lat="45.5121735" lon="11.8929871"><ele>17.0</ele><time>2026-04-29T10:57:34.189Z</time></trkpt><trkpt lat="45.5120896" lon="11.8930938"><ele>17.0</ele><time>2026-04-29T10:57:36.189Z</time></trkpt><trkpt lat="45.5119972" lon="11.8932065"><ele>17.0</ele><time>2026-04-29T10:57:38.189Z</time></trkpt><trkpt lat="45.511906" lon="11.8932969"><ele>17.0</ele><time>2026-04-29T10:57:40.189Z</time></trkpt><trkpt lat="45.5118012" lon="11.8933781"><ele>16.75</ele><time>2026-04-29T10:57:42.189Z</time></trkpt><trkpt lat="45.5117004" lon="11.8934678"><ele>16.5</ele><time>2026-04-29T10:57:44.189Z</time></trkpt><trkpt lat="45.511598" lon="11.8935476"><ele>16.25</ele><time>2026-04-29T10:57:46.189Z</time></trkpt><trkpt lat="45.5114841" lon="11.8936067"><ele>16.0</ele><time>2026-04-29T10:57:48.189Z</time></trkpt><trkpt lat="45.5113753" lon="11.8936713"><ele>15.999999999999998</ele><time>2026-04-29T10:57:50.189Z</time></trkpt><trkpt lat="45.5112602" lon="11.8937244"><ele>16.0</ele><time>2026-04-29T10:57:52.189Z</time></trkpt><trkpt lat="45.5111988" lon="11.8937529"><ele>16.0</ele><time>2026-04-29T10:57:53.19Z</time></trkpt><trkpt lat="45.5110802" lon="11.8938005"><ele>16.0</ele><time>2026-04-29T10:57:55.189Z</time></trkpt><trkpt lat="45.5110199" lon="11.8938275"><ele>15.999999999999998</ele><time>2026-04-29T10:57:56.189Z</time></trkpt><trkpt lat="45.5109587" lon="11.8938535"><ele>16.0</ele><time>2026-04-29T10:57:57.189Z</time></trkpt><trkpt lat="45.5108933" lon="11.8938845"><ele>16.0</ele><time>2026-04-29T10:57:58.19Z</time></trkpt><trkpt lat="45.5108281" lon="11.8939227"><ele>15.999999999999998</ele><time>2026-04-29T10:57:59.189Z</time></trkpt><trkpt lat="45.5107685" lon="11.893954"><ele>16.0</ele><time>2026-04-29T10:58:00.189Z</time></trkpt><trkpt lat="45.5107059" lon="11.893984"><ele>16.0</ele><time>2026-04-29T10:58:01.19Z</time></trkpt><trkpt lat="45.5106421" lon="11.8940082"><ele>15.999999999999998</ele><time>2026-04-29T10:58:02.19Z</time></trkpt><trkpt lat="45.5105803" lon="11.8940401"><ele>16.0</ele><time>2026-04-29T10:58:03.189Z</time></trkpt><trkpt lat="45.5105194" lon="11.8940749"><ele>16.0</ele><time>2026-04-29T10:58:04.189Z</time></trkpt><trkpt lat="45.5104567" lon="11.8941032"><ele>15.833333333333332</ele><time>2026-04-29T10:58:05.189Z</time></trkpt><trkpt lat="45.5103916" lon="11.8941307"><ele>15.666666666666666</ele><time>2026-04-29T10:58:06.19Z</time></trkpt><trkpt lat="45.5102686" lon="11.8941835"><ele>15.5</ele><time>2026-04-29T10:58:08.189Z</time></trkpt><trkpt lat="45.5102058" lon="11.8942064"><ele>15.333333333333332</ele><time>2026-04-29T10:58:09.189Z</time></trkpt><trkpt lat="45.5101427" lon="11.8942334"><ele>15.166666666666666</ele><time>2026-04-29T10:58:10.189Z</time></trkpt><trkpt lat="45.5100808" lon="11.8942659"><ele>15.0</ele><time>2026-04-29T10:58:11.19Z</time></trkpt><trkpt lat="45.510019" lon="11.8942906"><ele>14.833333333333334</ele><time>2026-04-29T10:58:12.189Z</time></trkpt><trkpt lat="45.5099569" lon="11.8943268"><ele>14.666666666666668</ele><time>2026-04-29T10:58:13.19Z</time></trkpt><trkpt lat="45.5098905" lon="11.8943525"><ele>14.5</ele><time>2026-04-29T10:58:14.189Z</time></trkpt><trkpt lat="45.5098283" lon="11.8943798"><ele>14.333333333333334</ele><time>2026-04-29T10:58:15.189Z</time></trkpt><trkpt lat="45.5097118" lon="11.8944293"><ele>14.166666666666668</ele><time>2026-04-29T10:58:17.189Z</time></trkpt><trkpt lat="45.5095957" lon="11.8944859"><ele>14.0</ele><time>2026-04-29T10:58:19.19Z</time></trkpt><trkpt lat="45.5094823" lon="11.8945353"><ele>16.0</ele><time>2026-04-29T10:58:21.189Z</time></trkpt><trkpt lat="45.5094212" lon="11.8945767"><ele>16.0</ele><time>2026-04-29T10:58:22.19Z</time></trkpt><trkpt lat="45.5093607" lon="11.8946141"><ele>16.0</ele><time>2026-04-29T10:58:23.189Z</time></trkpt><trkpt lat="45.509249" lon="11.894663"><ele>16.0</ele><time>2026-04-29T10:58:25.189Z</time></trkpt><trkpt lat="45.5091379" lon="11.8947092"><ele>16.0</ele><time>2026-04-29T10:58:27.19Z</time></trkpt></trkseg></trk></gpx>